
Distance (Route):
Temperature : 21.9°C
Humidity : 65.1%
Pressure : 969.0hPa| Receiver | Frames | First received | Last received |
|---|---|---|---|
| DL1XH-west | 676 | 2026-09-04 10:49:03 | 2026-09-04 12:56:13 |
| AA1-15 | 662 | 2026-09-04 10:53:21 | 2026-09-04 13:04:34 |
| DF8AY | 642 | 2026-09-04 10:49:44 | 2026-09-04 13:01:21 |
| BIOWL1-15 | 594 | 2026-09-04 10:48:48 | 2026-09-04 12:56:01 |
| DM0DOS-11 | 488 | 2026-09-04 10:47:50 | 2026-09-04 13:00:20 |
| DB0DAN | 479 | 2026-09-04 10:46:25 | 2026-09-04 13:08:40 |
| DO2SHX-10 | 475 | 2026-09-04 10:56:47 | 2026-09-04 12:57:05 |
| DL1XH1-15 | 447 | 2026-09-04 10:49:36 | 2026-09-04 12:55:46 |
| DL1XH-15 | 358 | 2026-09-04 10:49:18 | 2026-09-04 12:51:55 |
| HSKMA3-T | 184 | 2026-09-04 11:30:55 | 2026-09-04 12:30:49 |
| DD8BA-10 | 152 | 2026-09-04 10:52:39 | 2026-09-04 12:41:51 |
| GOEST3-10 | 130 | 2026-09-04 11:02:55 | 2026-09-04 12:36:54 |
| DL1NUX | 110 | 2026-09-04 11:49:26 | 2026-09-04 12:35:31 |
| AM1SDL-15 | 101 | 2026-09-04 10:54:53 | 2026-09-04 13:09:04 |
| DF8AY-15 | 57 | 2026-09-04 10:51:06 | 2026-09-04 12:58:59 |
| DF7ER-10 | 55 | 2026-09-04 10:58:01 | 2026-09-04 12:42:26 |
| EDDB2-12 | 53 | 2026-09-04 11:06:25 | 2026-09-04 13:09:34 |
| DL4BBY-15 | 47 | 2026-09-04 10:51:58 | 2026-09-04 12:39:24 |
| EDDB2-11 | 45 | 2026-09-04 11:17:27 | 2026-09-04 13:07:39 |
| DB0NH | 42 | 2026-09-04 11:10:32 | 2026-09-04 12:46:17 |
| DL3AQ-11 | 38 | 2026-09-04 10:58:05 | 2026-09-04 11:32:58 |
| TFSTFS | 36 | 2026-09-04 11:00:26 | 2026-09-04 12:46:57 |
| DL4XJ-10 | 35 | 2026-09-04 10:48:44 | 2026-09-04 12:17:20 |
| BIOWL9-15 | 35 | 2026-09-04 10:52:32 | 2026-09-04 12:55:43 |
| DB0UT-7 | 35 | 2026-09-04 11:19:45 | 2026-09-04 12:41:42 |
| SONDE2-11 | 35 | 2026-09-04 11:21:28 | 2026-09-04 13:09:38 |
| SMARD9-15 | 34 | 2026-09-04 10:52:48 | 2026-09-04 12:38:24 |
| S3001 | 29 | 2026-09-04 10:57:35 | 2026-09-04 13:09:01 |
| DJ2DS-15 | 28 | 2026-09-04 10:52:50 | 2026-09-04 12:47:39 |
| SONCRA | 26 | 2026-09-04 10:56:02 | 2026-09-04 12:45:50 |
| DF2AP-13 | 24 | 2026-09-04 11:10:50 | 2026-09-04 12:45:34 |
| DO3MHA-11 | 23 | 2026-09-04 12:01:52 | 2026-09-04 12:30:43 |
| SP3WXH-11 | 22 | 2026-09-04 11:37:57 | 2026-09-04 12:46:46 |
| MECKS9 | 20 | 2026-09-04 11:25:54 | 2026-09-04 13:00:30 |
| SO1NDE-10 | 19 | 2026-09-04 11:52:56 | 2026-09-04 12:21:26 |
| DH5RUM-10 | 17 | 2026-09-04 11:39:57 | 2026-09-04 13:00:38 |
| SMARD9-10 | 15 | 2026-09-04 10:58:23 | 2026-09-04 12:46:39 |
| SP3BTT-10 | 15 | 2026-09-04 11:18:16 | 2026-09-04 12:56:53 |
| DL1ZP-14 | 14 | 2026-09-04 11:19:34 | 2026-09-04 12:36:43 |
| HTAHTA | 13 | 2026-09-04 11:24:55 | 2026-09-04 12:28:03 |
| DL1LOL-11 | 12 | 2026-09-04 11:04:42 | 2026-09-04 12:39:43 |
| DL2RXE-15 | 11 | 2026-09-04 11:12:43 | 2026-09-04 12:57:00 |
| NBG1-10 | 9 | 2026-09-04 11:39:28 | 2026-09-04 12:35:13 |
| BUE01 | 7 | 2026-09-04 11:16:19 | 2026-09-04 11:35:59 |
| BIOWL7-15 | 5 | 2026-09-04 10:54:43 | 2026-09-04 11:18:07 |
| AP2371 | 3 | 2026-09-04 11:25:11 | 2026-09-04 12:25:26 |
| DO2LYB-13 | 1 | 2026-09-04 11:14:26 | 2026-09-04 11:14:26 |
| HARRO8 | 1 | 2026-09-04 11:43:35 | 2026-09-04 11:43:35 |
| DL1CLM-18 | 1 | 2026-09-04 12:11:11 | 2026-09-04 12:11:11 |
| DJ8HS-15 | 1 | 2026-09-04 12:24:31 | 2026-09-04 12:24:31 |
| OE5DRO-10 | 1 | 2026-09-04 12:25:17 | 2026-09-04 12:25:17 |
| OE3JTB-15 | 1 | 2026-09-04 12:28:34 | 2026-09-04 12:28:34 |
| DB0ND-19 | 1 | 2026-09-04 12:32:08 | 2026-09-04 12:32:08 |
| DK1YY | 1 | 2026-09-04 12:32:56 | 2026-09-04 12:32:56 |
| Receiver | Date | Latitude | Longitude | Direction | Speed | Altitude | Climb | Temperature | Humidity | Pressure | Voltage | Killtimer | Uptime | BKT | XDATA |
|---|---|---|---|---|---|---|---|---|---|---|---|---|---|---|---|
| SONDE2-11 | 2026-09-04 13:09:38 | 52.77510 | 13.09057 | 68° | 68km/h | 339m | -6.7m/s | 21.9°C | 65.1% | 969.0hPa | 2.7V | 00:00:00 | 00:00:00 | 00:00:00 | |
| EDDB2-12 | 2026-09-04 13:09:34 | 52.77510 | 13.09057 | 68° | 68km/h | 339m | -6.7m/s | 21.9°C | 65.1% | 969.0hPa | 2.7V | 00:00:00 | 00:00:00 | 00:00:00 | |
| SONDE2-11 | 2026-09-04 13:09:07 | 52.77420 | 13.08660 | 67° | 78km/h | 417m | -6.4m/s | 21.1°C | 66.6% | 960.4hPa | 2.7V | 00:00:00 | 00:00:00 | 00:00:00 | |
| AM1SDL-15 | 2026-09-04 13:09:04 | 52.77397 | 13.08567 | 70° | 80km/h | 436m | -6.6m/s | 20.9°C | 67.0% | 958.2hPa | 2.7V | 00:00:00 | 03:01:22 | 00:00:00 | |
| S3001 | 2026-09-04 13:09:01 | 52.77311 | 13.08182 | 70° | 78km/h | 515m | -7.1m/s | 20.2°C | 69.0% | 949.4hPa | 2.7V | 00:00:00 | 00:00:00 | 00:00:00 | |
| AM1SDL-15 | 2026-09-04 13:09:00 | 52.77368 | 13.08439 | 70° | 84km/h | 460m | -6.0m/s | 20.7°C | 67.7% | 955.6hPa | 2.7V | 02:38:00 | 03:01:18 | 00:00:00 | |
| AM1SDL-15 | 2026-09-04 13:08:58 | 52.77353 | 13.08374 | 70° | 82km/h | 473m | -6.9m/s | 20.6°C | 67.8% | 954.2hPa | 2.7V | 00:00:00 | 03:01:16 | 00:00:00 | |
| AM1SDL-15 | 2026-09-04 13:08:56 | 52.77339 | 13.08310 | 71° | 82km/h | 487m | -7.1m/s | 20.4°C | 68.6% | 952.9hPa | 2.7V | 00:00:00 | 03:01:14 | 00:00:00 | |
| AM1SDL-15 | 2026-09-04 13:08:54 | 52.77325 | 13.08246 | 71° | 82km/h | 502m | -7.9m/s | 20.3°C | 68.3% | 951.1hPa | 2.7V | 02:38:00 | 03:01:12 | 00:00:00 | |
| AM1SDL-15 | 2026-09-04 13:08:52 | 52.77311 | 13.08182 | 71° | 80km/h | 515m | -7.1m/s | 20.2°C | 68.7% | 949.4hPa | 2.7V | 00:00:00 | 03:01:10 | 00:00:00 | |
| AM1SDL-15 | 2026-09-04 13:08:50 | 52.77298 | 13.08119 | 71° | 78km/h | 528m | -6.6m/s | 20.0°C | 68.8% | 948.0hPa | 2.7V | 00:00:00 | 03:01:08 | 00:00:00 | |
| AM1SDL-15 | 2026-09-04 13:08:48 | 52.77286 | 13.08058 | 73° | 78km/h | 542m | -6.4m/s | 19.9°C | 70.2% | 946.4hPa | 2.7V | 02:38:00 | 03:01:06 | 00:00:00 | |
| AM1SDL-15 | 2026-09-04 13:08:46 | 52.77273 | 13.07995 | 74° | 78km/h | 556m | -7.5m/s | 19.7°C | 70.4% | 945.0hPa | 2.7V | 00:00:00 | 03:01:04 | 00:00:00 | |
| AM1SDL-15 | 2026-09-04 13:08:44 | 52.77263 | 13.07931 | 76° | 80km/h | 570m | -7.0m/s | 19.6°C | 71.5% | 943.3hPa | 2.7V | 00:00:00 | 03:01:02 | 00:00:00 | |
| AM1SDL-15 | 2026-09-04 13:08:42 | 52.77253 | 13.07866 | 77° | 82km/h | 584m | -6.8m/s | 19.4°C | 71.9% | 942.0hPa | 2.7V | 02:39:00 | 03:01:00 | 00:00:00 | |
| DB0DAN | 2026-09-04 13:08:40 | 52.77244 | 13.07800 | 78° | 77km/h | 598m | -7.8m/s | 19.4°C | 72.3% | 940.53hPa | 2.7V | 00:00:00 | 00:00:00 | 00:00:00 | |
| AM1SDL-15 | 2026-09-04 13:08:40 | 52.77244 | 13.07800 | 78° | 80km/h | 598m | -7.8m/s | 19.3°C | 72.0% | 940.5hPa | 2.7V | 00:00:00 | 03:00:58 | 00:00:00 | |
| AM1SDL-15 | 2026-09-04 13:08:36 | 52.77228 | 13.07678 | 79° | 73km/h | 629m | -8.3m/s | 19.0°C | 73.3% | 936.9hPa | 2.7V | 02:39:00 | 03:00:54 | 00:00:00 | |
| SONDE2-11 | 2026-09-04 13:08:36 | 52.77228 | 13.07678 | 78° | 71km/h | 629m | -8.4m/s | 19.1°C | 73.6% | 937.0hPa | 2.7V | 00:00:00 | 00:00:00 | 00:00:00 | |
| AM1SDL-15 | 2026-09-04 13:08:34 | 52.77220 | 13.07618 | 79° | 73km/h | 646m | -8.8m/s | 18.9°C | 72.9% | 934.9hPa | 2.7V | 00:00:00 | 03:00:52 | 00:00:00 | |
| AM1SDL-15 | 2026-09-04 13:08:32 | 52.77214 | 13.07558 | 81° | 73km/h | 664m | -9.8m/s | 18.7°C | 73.8% | 933.1hPa | 2.7V | 00:00:00 | 03:00:50 | 00:00:00 | |
| S3001 | 2026-09-04 13:08:30 | 52.77208 | 13.07498 | 81° | 71km/h | 681m | -8.8m/s | 18.6°C | 73.7% | 931.3hPa | 2.7V | 00:00:00 | 00:00:00 | 00:00:00 | |
| AM1SDL-15 | 2026-09-04 13:08:30 | 52.77208 | 13.07498 | 82° | 71km/h | 682m | -8.8m/s | 18.6°C | 73.5% | 931.3hPa | 2.7V | 02:39:00 | 03:00:48 | 00:00:00 | |
| AM1SDL-15 | 2026-09-04 13:08:28 | 52.77202 | 13.07439 | 81° | 69km/h | 699m | -8.9m/s | 18.4°C | 74.2% | 929.1hPa | 2.7V | 00:00:00 | 03:00:46 | 00:00:00 | |
| DB0DAN | 2026-09-04 13:08:25 | 52.77192 | 13.07353 | 79° | 66km/h | 724m | -8.4m/s | 18.2°C | 76.4% | 926.5hPa | 2.7V | 00:00:00 | 00:00:00 | 00:00:00 | |
| AM1SDL-15 | 2026-09-04 13:08:16 | 52.77151 | 13.07097 | 75° | 75km/h | 784m | -6.3m/s | 17.6°C | 78.2% | 920.3hPa | 2.8V | 00:00:00 | 03:00:34 | 00:00:00 | |
| DB0DAN | 2026-09-04 13:08:10 | 52.77121 | 13.06920 | 75° | 73km/h | 833m | -8.2m/s | 17.1°C | 80.2% | 915.42hPa | 2.8V | 00:00:00 | 00:00:00 | 00:00:00 | |
| SONDE2-11 | 2026-09-04 13:08:05 | 52.77086 | 13.06765 | 66° | 77km/h | 871m | -7.5m/s | 16.7°C | 82.0% | 911.1hPa | 2.7V | 00:00:00 | 00:00:00 | 00:00:00 | |
| AM1SDL-15 | 2026-09-04 13:08:04 | 52.77079 | 13.06734 | 68° | 82km/h | 879m | -7.6m/s | 16.6°C | 82.4% | 910.2hPa | 2.7V | 02:39:00 | 03:00:22 | 00:00:00 | |
| EDDB2-12 | 2026-09-04 13:08:01 | 52.77056 | 13.06640 | 68° | 82km/h | 903m | -8.6m/s | 16.4°C | 82.2% | 907.8hPa | 2.8V | 00:00:00 | 00:00:00 | 00:00:00 | |
| S3001 | 2026-09-04 13:07:59 | 52.77040 | 13.06576 | 68° | 82km/h | 920m | -8.2m/s | 16.3°C | 83.3% | 905.9hPa | 2.8V | 00:00:00 | 00:00:00 | 00:00:00 | |
| DB0DAN | 2026-09-04 13:07:55 | 52.77011 | 13.06444 | 71° | 80km/h | 952m | -7.9m/s | 15.9°C | 84.4% | 902.62hPa | 2.8V | 00:00:00 | 00:00:00 | 00:00:00 | |
| AM1SDL-15 | 2026-09-04 13:07:52 | 52.76990 | 13.06343 | 72° | 89km/h | 974m | -7.4m/s | 15.7°C | 85.2% | 900.1hPa | 2.7V | 00:00:00 | 03:00:10 | 00:00:00 | |
| DB0DAN | 2026-09-04 13:07:40 | 52.76900 | 13.05914 | 69° | 89km/h | 1055m | -5.7m/s | 15°C | 88.4% | 891.57hPa | 2.7V | 00:00:00 | 00:00:00 | 00:00:00 | |
| AM1SDL-15 | 2026-09-04 13:07:40 | 52.76899 | 13.05914 | 70° | 93km/h | 1055m | -5.7m/s | 14.9°C | 88.3% | 891.5hPa | 2.7V | 00:00:00 | 02:59:58 | 00:00:00 | |
| EDDB2-11 | 2026-09-04 13:07:39 | 52.76891 | 13.05877 | 69° | 91km/h | 1060m | -6.1m/s | 14.9°C | 88.7% | 890.9hPa | 2.7V | 00:00:00 | 00:00:00 | 00:00:00 | |
| SONDE2-11 | 2026-09-04 13:07:34 | 52.76853 | 13.05695 | 71° | 93km/h | 1091m | -6.1m/s | 14.6°C | 90.1% | 887.8hPa | 2.7V | 00:00:00 | 00:00:00 | 00:00:00 | |
| S3001 | 2026-09-04 13:07:28 | 52.76800 | 13.05472 | 67° | 99km/h | 1125m | -6.0m/s | 14.3°C | 91.3% | 884.2hPa | 2.7V | 00:00:00 | 00:00:00 | 00:00:00 | |
| AM1SDL-15 | 2026-09-04 13:07:28 | 52.76800 | 13.05472 | 68° | 100km/h | 1125m | -5.9m/s | 14.3°C | 91.2% | 884.1hPa | 2.7V | 02:40:00 | 02:59:46 | 00:00:00 | |
| DB0DAN | 2026-09-04 13:07:25 | 52.76773 | 13.05356 | 69° | 97km/h | 1142m | -4.9m/s | 14.2°C | 91.8% | 882.42hPa | 2.7V | 00:00:00 | 00:00:00 | 00:00:00 | |
| AM1SDL-15 | 2026-09-04 13:07:16 | 52.76703 | 13.05003 | 71° | 97km/h | 1181m | -4.5m/s | 13.7°C | 94.6% | 878.4hPa | 2.7V | 00:00:00 | 02:59:34 | 00:00:00 | |
| DB0DAN | 2026-09-04 13:07:10 | 52.76653 | 13.04779 | 70° | 91km/h | 1216m | -5.8m/s | 13.7°C | 92% | 875.03hPa | 2.7V | 00:00:00 | 00:00:00 | 00:00:00 | |
| EDDB2-11 | 2026-09-04 13:07:08 | 52.76636 | 13.04702 | 71° | 97km/h | 1225m | -4.0m/s | 13.6°C | 92.8% | 874.0hPa | 2.7V | 00:00:00 | 00:00:00 | 00:00:00 | |
| AM1SDL-15 | 2026-09-04 13:07:04 | 52.76608 | 13.04542 | 75° | 97km/h | 1244m | -5.8m/s | 13.3°C | 94.0% | 872.1hPa | 2.7V | 00:00:00 | 02:59:22 | 00:00:00 | |
| SONDE2-11 | 2026-09-04 13:07:03 | 52.76601 | 13.04502 | 75° | 100km/h | 1249m | -5.0m/s | 13.3°C | 95.6% | 871.4hPa | 2.7V | 00:00:00 | 00:00:00 | 00:00:00 | |
| EDDB2-12 | 2026-09-04 13:06:59 | 52.76574 | 13.04343 | 72° | 95km/h | 1271m | -6.6m/s | 13.1°C | 96.4% | 869.2hPa | 2.7V | 00:00:00 | 00:00:00 | 00:00:00 | |
| S3001 | 2026-09-04 13:06:57 | 52.76560 | 13.04267 | 74° | 95km/h | 1284m | -7.0m/s | 13.0°C | 96.0% | 868.2hPa | 2.7V | 00:00:00 | 00:00:00 | 00:00:00 | |
| DB0DAN | 2026-09-04 13:06:55 | 52.76549 | 13.04190 | 78° | 89km/h | 1297m | -5.3m/s | 12.9°C | 96.8% | 866.75hPa | 2.7V | 00:00:00 | 00:00:00 | 00:00:00 | |
| AM1SDL-15 | 2026-09-04 13:06:52 | 52.76535 | 13.04073 | 81° | 99km/h | 1313m | -5.5m/s | 12.9°C | 95.0% | 864.8hPa | 2.7V | 02:40:00 | 02:59:10 | 00:00:00 | |
| DB0DAN | 2026-09-04 13:06:40 | 52.76483 | 13.03581 | 82° | 95km/h | 1395m | -7.2m/s | 12.4°C | 96.1% | 856.47hPa | 2.7V | 00:00:00 | 00:00:00 | 00:00:00 | |
| AM1SDL-15 | 2026-09-04 13:06:40 | 52.76483 | 13.03581 | 83° | 100km/h | 1395m | -7.2m/s | 12.3°C | 96.2% | 856.4hPa | 2.7V | 00:00:00 | 02:58:58 | 00:00:00 | |
| EDDB2-11 | 2026-09-04 13:06:37 | 52.76473 | 13.03455 | 82° | 102km/h | 1416m | -6.8m/s | 12.2°C | 97.6% | 854.5hPa | 2.7V | 00:00:00 | 00:00:00 | 00:00:00 | |
| SONDE2-11 | 2026-09-04 13:06:32 | 52.76458 | 13.03244 | 83° | 99km/h | 1448m | -6.3m/s | 12.0°C | 98.4% | 851.3hPa | 2.7V | 00:00:00 | 00:00:00 | 00:00:00 | |
| AM1SDL-15 | 2026-09-04 13:06:28 | 52.76446 | 13.03078 | 83° | 99km/h | 1472m | -6.7m/s | 11.9°C | 96.7% | 848.7hPa | 2.7V | 00:00:00 | 02:58:46 | 00:00:00 | |
| EDDB2-12 | 2026-09-04 13:06:28 | 52.76446 | 13.03078 | 82° | 100km/h | 1472m | -6.7m/s | 11.9°C | 96.5% | 848.8hPa | 2.7V | 00:00:00 | 00:00:00 | 00:00:00 | |
| DB0DAN | 2026-09-04 13:06:25 | 52.76437 | 13.02954 | 83° | 95km/h | 1490m | -5.9m/s | 11.8°C | 97.2% | 847hPa | 2.7V | 00:00:00 | 00:00:00 | 00:00:00 | |
| AM1SDL-15 | 2026-09-04 13:06:16 | 52.76409 | 13.02588 | 84° | 99km/h | 1541m | -6.1m/s | 11.4°C | 97.7% | 841.7hPa | 2.7V | 02:41:00 | 02:58:34 | 00:00:00 | |
| DB0DAN | 2026-09-04 13:06:10 | 52.76391 | 13.02344 | 83° | 93km/h | 1573m | -5.5m/s | 11.2°C | 98.8% | 838.44hPa | 2.7V | 00:00:00 | 00:00:00 | 00:00:00 | |
| EDDB2-11 | 2026-09-04 13:06:06 | 52.76377 | 13.02183 | 81° | 97km/h | 1595m | -5.5m/s | 11.1°C | 99.3% | 836.4hPa | 2.7V | 00:00:00 | 00:00:00 | 00:00:00 | |
| AM1SDL-15 | 2026-09-04 13:06:04 | 52.76370 | 13.02103 | 83° | 99km/h | 1605m | -5.1m/s | 11.0°C | 0% | 835.3hPa | 2.7V | 00:00:00 | 02:58:22 | 00:00:00 | |
| SONDE2-11 | 2026-09-04 13:06:01 | 52.76362 | 13.01982 | 83° | 97km/h | 1622m | -6.2m/s | 10.9°C | 100.0% | 833.7hPa | 2.7V | 00:00:00 | 00:00:00 | 00:00:00 | |
| EDDB2-12 | 2026-09-04 13:05:57 | 52.76351 | 13.01817 | 84° | 99km/h | 1644m | -5.5m/s | 10.8°C | 100.0% | 831.6hPa | 2.7V | 00:00:00 | 00:00:00 | 00:00:00 | |
| DB0DAN | 2026-09-04 13:05:55 | 52.76346 | 13.01733 | 84° | 97km/h | 1655m | -4.9m/s | 10.8°C | 100% | 830.54hPa | 2.7V | 00:00:00 | 00:00:00 | 00:00:00 | |
| S3001 | 2026-09-04 13:05:55 | 52.76346 | 13.01733 | 83° | 100km/h | 1655m | -4.9m/s | 10.8°C | 100.0% | 830.5hPa | 2.7V | 00:00:00 | 00:00:00 | 00:00:00 | |
| AM1SDL-15 | 2026-09-04 13:05:52 | 52.76338 | 13.01607 | 84° | 99km/h | 1669m | -4.9m/s | 10.7°C | 0% | 828.8hPa | 2.7V | 00:00:00 | 02:58:10 | 00:00:00 | |
| AM1SDL-15 | 2026-09-04 13:05:40 | 52.76311 | 13.01112 | 86° | 102km/h | 1729m | -5.3m/s | 10.4°C | 0% | 823.0hPa | 2.7V | 02:42:00 | 02:57:58 | 00:00:00 | |
| DB0DAN | 2026-09-04 13:05:40 | 52.76311 | 13.01112 | 85° | 95km/h | 1729m | -5.3m/s | 10.5°C | 100% | 823.09hPa | 2.7V | 00:00:00 | 00:00:00 | 00:00:00 | |
| EDDB2-11 | 2026-09-04 13:05:36 | 52.76300 | 13.00901 | 84° | 100km/h | 1751m | -5.5m/s | 10.3°C | 100.0% | 820.8hPa | 2.7V | 00:00:00 | 00:00:00 | 00:00:00 | |
| SONDE2-11 | 2026-09-04 13:05:30 | 52.76286 | 13.00645 | 84° | 102km/h | 1780m | -4.3m/s | 10.2°C | 100.0% | 818.0hPa | 2.7V | 00:00:00 | 00:00:00 | 00:00:00 | |
| AM1SDL-15 | 2026-09-04 13:05:28 | 52.76283 | 13.00602 | 85° | 104km/h | 1784m | -4.9m/s | 10.1°C | 0% | 817.5hPa | 2.7V | 00:00:00 | 02:57:46 | 00:00:00 | |
| DB0DAN | 2026-09-04 13:05:25 | 52.76275 | 13.00473 | 84° | 99km/h | 1798m | -5.2m/s | 10.1°C | 100% | 816.03hPa | 2.7V | 00:00:00 | 00:00:00 | 00:00:00 | |
| S3001 | 2026-09-04 13:05:24 | 52.76273 | 13.00429 | 83° | 104km/h | 1803m | -5.9m/s | 10.1°C | 100.0% | 815.6hPa | 2.7V | 00:00:00 | 00:00:00 | 00:00:00 | |
| AM1SDL-15 | 2026-09-04 13:05:16 | 52.76252 | 13.00087 | 86° | 102km/h | 1840m | -4.3m/s | 10.0°C | 0% | 812.2hPa | 2.7V | 00:00:00 | 02:57:34 | 00:00:00 | |
| DB0DAN | 2026-09-04 13:05:10 | 52.76239 | 12.99829 | 85° | 99km/h | 1864m | -3.8m/s | 9.9°C | 100% | 809.88hPa | 2.7V | 00:00:00 | 00:00:00 | 00:00:00 | |
| EDDB2-11 | 2026-09-04 13:05:04 | 52.76222 | 12.99574 | 82° | 102km/h | 1887m | -4.7m/s | 9.8°C | 99.4% | 807.7hPa | 2.7V | 00:00:00 | 00:00:00 | 00:00:00 | |
| AM1SDL-15 | 2026-09-04 13:05:04 | 52.76222 | 12.99574 | 83° | 104km/h | 1887m | -4.7m/s | 9.8°C | 99.7% | 807.6hPa | 2.7V | 02:42:00 | 02:57:22 | 00:00:00 | |
| SONDE2-11 | 2026-09-04 13:04:59 | 52.76200 | 12.99320 | 82° | 102km/h | 1912m | -4.2m/s | 9.7°C | 98.9% | 805.2hPa | 2.7V | 00:00:00 | 00:00:00 | 00:00:00 | |
| DB0DAN | 2026-09-04 13:04:55 | 52.76191 | 12.99189 | 84° | 100km/h | 1925m | -4.3m/s | 9.6°C | 98.2% | 803.99hPa | 2.7V | 00:00:00 | 00:00:00 | 00:00:00 | |
| EDDB2-12 | 2026-09-04 13:04:55 | 52.76189 | 12.99146 | 84° | 104km/h | 1929m | -4.7m/s | 9.5°C | 98.0% | 803.5hPa | 2.7V | 00:00:00 | 00:00:00 | 00:00:00 | |
| S3001 | 2026-09-04 13:04:53 | 52.76186 | 12.99102 | 83° | 104km/h | 1933m | -4.3m/s | 9.6°C | 97.3% | 803.2hPa | 2.7V | 00:00:00 | 00:00:00 | 00:00:00 | |
| AM1SDL-15 | 2026-09-04 13:04:52 | 52.76183 | 12.99058 | 83° | 104km/h | 1937m | -4.3m/s | 9.9°C | 93.4% | 802.6hPa | 2.7V | 00:00:00 | 02:57:10 | 00:00:00 | |
| DB0DAN | 2026-09-04 13:04:40 | 52.76143 | 12.98540 | 83° | 100km/h | 1990m | -3.8m/s | 11.1°C | 78.3% | 797.74hPa | 2.7V | 00:00:00 | 00:00:00 | 00:00:00 | |
| AA1-15 | 2026-09-04 13:04:34 | 52.76122 | 12.98286 | 82° | 102km/h | 2017m | -5m/s | 11.1°C | 82.7% | 795.1hPa | 2.7V | 02:44:06 | 02:56:52 | 00:00:00 | |
| EDDB2-11 | 2026-09-04 13:04:33 | 52.76118 | 12.98243 | 81° | 102km/h | 2021m | -4.7m/s | 11.1°C | 76.4% | 794.6hPa | 2.7V | 00:00:00 | 00:00:00 | 00:00:00 | |
| AM1SDL-15 | 2026-09-04 13:04:28 | 52.76100 | 12.98030 | 83° | 102km/h | 2046m | -4.9m/s | 10.8°C | 76.8% | 792.2hPa | 2.7V | 02:43:00 | 02:56:46 | 00:00:00 | |
| DB0DAN | 2026-09-04 13:04:25 | 52.76090 | 12.97904 | 83° | 95km/h | 2060m | -4.9m/s | 10.8°C | 77% | 790.97hPa | 2.7V | 00:00:00 | 00:00:00 | 00:00:00 | |
| AA1-15 | 2026-09-04 13:04:21 | 52.76078 | 12.97737 | 83° | 100km/h | 2081m | -6.7m/s | 10.7°C | 83.2% | 789.2hPa | 2.7V | 02:44:06 | 02:56:39 | 00:00:00 | |
| AA1-15 | 2026-09-04 13:04:11 | 52.76040 | 12.97315 | 83° | 102km/h | 2134m | -5.5m/s | 10.4°C | 82.7% | 784hPa | 2.7V | 02:44:06 | 02:56:29 | 00:00:00 | |
| DB0DAN | 2026-09-04 13:04:10 | 52.76037 | 12.97273 | 84° | 97km/h | 2138m | -5.1m/s | 10.4°C | 75.7% | 783.52hPa | 2.7V | 00:00:00 | 00:00:00 | 00:00:00 | |
| AA1-15 | 2026-09-04 13:04:01 | 52.76011 | 12.96900 | 82° | 100km/h | 2190m | -6.2m/s | 10°C | 83.7% | 778.7hPa | 2.7V | 02:44:06 | 02:56:19 | 00:00:00 | |
| SONDE2-11 | 2026-09-04 13:03:57 | 52.75991 | 12.96691 | 81° | 100km/h | 2217m | -5.0m/s | 9.8°C | 77.1% | 776.0hPa | 2.7V | 00:00:00 | 00:00:00 | 00:00:00 | |
| DB0DAN | 2026-09-04 13:03:55 | 52.75988 | 12.96650 | 82° | 97km/h | 2222m | -5.6m/s | 9.8°C | 75.8% | 775.65hPa | 2.7V | 00:00:00 | 00:00:00 | 00:00:00 | |
| AA1-15 | 2026-09-04 13:03:51 | 52.75974 | 12.96482 | 83° | 100km/h | 2243m | -5.7m/s | 9.7°C | 82.7% | 773.6hPa | 2.7V | 02:44:06 | 02:56:09 | 00:00:00 | |
| S3001 | 2026-09-04 13:03:51 | 52.75974 | 12.96482 | 83° | 100km/h | 2243m | -5.7m/s | 9.7°C | 75.4% | 773.6hPa | 2.7V | 00:00:00 | 00:00:00 | 00:00:00 | |
| AA1-15 | 2026-09-04 13:03:41 | 52.75945 | 12.96062 | 82° | 100km/h | 2302m | -5.8m/s | 9.2°C | 83.9% | 768.4hPa | 2.7V | 02:44:06 | 02:55:59 | 00:00:00 | |
| DB0DAN | 2026-09-04 13:03:40 | 52.75941 | 12.96021 | 82° | 97km/h | 2308m | -6.2m/s | 9.1°C | 77.6% | 767.88hPa | 2.7V | 00:00:00 | 00:00:00 | 00:00:00 | |
| AA1-15 | 2026-09-04 13:03:30 | 52.75906 | 12.95595 | 82° | 104km/h | 2365m | -6.6m/s | 8.7°C | 84.6% | 762.6hPa | 2.7V | 02:44:57 | 02:55:48 | 00:00:00 | |
| AM1SDL-15 | 2026-09-04 13:03:28 | 52.75898 | 12.95508 | 82° | 106km/h | 2377m | -6.2m/s | 8.5°C | 78.9% | 761.5hPa | 2.7V | 00:00:00 | 02:55:46 | 00:00:00 | |
| DB0DAN | 2026-09-04 13:03:25 | 52.75887 | 12.95379 | 82° | 100km/h | 2394m | -6.3m/s | 8.4°C | 79.1% | 759.86hPa | 2.7V | 00:00:00 | 00:00:00 | 00:00:00 | |
| EDDB2-12 | 2026-09-04 13:03:22 | 52.75873 | 12.95204 | 82° | 106km/h | 2418m | -6.9m/s | 8.2°C | 79.2% | 757.5hPa | 2.7V | 00:00:00 | 00:00:00 | 00:00:00 | |
| S3001 | 2026-09-04 13:03:20 | 52.75866 | 12.95116 | 82° | 106km/h | 2431m | -5.8m/s | 8.1°C | 79.5% | 756.4hPa | 2.7V | 00:00:00 | 00:00:00 | 00:00:00 | |
| AA1-15 | 2026-09-04 13:03:20 | 52.75870 | 12.95160 | 82° | 106km/h | 2425m | -6.5m/s | 8.2°C | 86.2% | 757hPa | 2.7V | 02:44:57 | 02:55:38 | 00:00:00 | |
| AM1SDL-15 | 2026-09-04 13:03:16 | 52.75856 | 12.94983 | 84° | 106km/h | 2448m | -6.3m/s | 7.9°C | 80.7% | 754.9hPa | 2.7V | 02:44:00 | 02:55:34 | 00:00:00 | |
| DB0DAN | 2026-09-04 13:03:10 | 52.75837 | 12.94721 | 84° | 100km/h | 2486m | -7.5m/s | 7.8°C | 79% | 751.52hPa | 2.6V | 00:00:00 | 00:00:00 | 00:00:00 | |
| AA1-15 | 2026-09-04 13:03:09 | 52.75834 | 12.94677 | 84° | 106km/h | 2492m | -6.3m/s | 7.8°C | 84.3% | 750.9hPa | 2.7V | 02:44:57 | 02:55:27 | 00:00:00 | |
| AA1-15 | 2026-09-04 13:02:59 | 52.75805 | 12.94242 | 83° | 106km/h | 2555m | -6.6m/s | 7.2°C | 85.2% | 745.4hPa | 2.7V | 02:44:57 | 02:55:17 | 00:00:00 | |
| DB0DAN | 2026-09-04 13:02:55 | 52.75794 | 12.94064 | 86° | 102km/h | 2582m | -7.3m/s | 6.9°C | 78.2% | 742.79hPa | 2.7V | 00:00:00 | 00:00:00 | 00:00:00 | |
| AA1-15 | 2026-09-04 13:02:49 | 52.75780 | 12.93751 | 86° | 108km/h | 2628m | -6.3m/s | 6.5°C | 88.6% | 738.6hPa | 2.7V | 02:44:57 | 02:55:06 | 00:00:00 | |
| S3001 | 2026-09-04 13:02:49 | 52.75780 | 12.93751 | 85° | 106km/h | 2628m | -6.3m/s | 6.5°C | 81.4% | 738.6hPa | 2.7V | 00:00:00 | 00:00:00 | 00:00:00 | |
| DB0DAN | 2026-09-04 13:02:40 | 52.75766 | 12.93395 | 86° | 100km/h | 2680m | -6.5m/s | 6.1°C | 83.2% | 733.9hPa | 2.7V | 00:00:00 | 00:00:00 | 00:00:00 | |
| AA1-15 | 2026-09-04 13:02:38 | 52.75761 | 12.93307 | 85° | 106km/h | 2693m | -6.7m/s | 6°C | 90.3% | 732.7hPa | 2.7V | 02:45:48 | 02:54:56 | 00:00:00 | |
| AA1-15 | 2026-09-04 13:02:27 | 52.75737 | 12.92815 | 87° | 110km/h | 2763m | -6.5m/s | 5.6°C | 89.4% | 726.5hPa | 2.7V | 02:45:48 | 02:54:45 | 00:00:00 | |
| DB0DAN | 2026-09-04 13:02:25 | 52.75735 | 12.92724 | 88° | 102km/h | 2776m | -6.6m/s | 5.5°C | 82.1% | 725.47hPa | 2.7V | 00:00:00 | 00:00:00 | 00:00:00 | |
| AA1-15 | 2026-09-04 13:02:16 | 52.75724 | 12.92321 | 87° | 108km/h | 2837m | -7.1m/s | 5°C | 89.6% | 719.9hPa | 2.7V | 02:45:48 | 02:54:34 | 00:00:00 | |
| AM1SDL-15 | 2026-09-04 13:02:16 | 52.75724 | 12.92321 | 87° | 108km/h | 2837m | -7.0m/s | 4.9°C | 84.0% | 719.9hPa | 2.7V | 00:00:00 | 02:54:34 | 00:00:00 | |
| DB0DAN | 2026-09-04 13:02:10 | 52.75719 | 12.92052 | 90° | 102km/h | 2875m | -6.7m/s | 4.6°C | 89.6% | 716.54hPa | 2.7V | 00:00:00 | 00:00:00 | 00:00:00 | |
| AA1-15 | 2026-09-04 13:02:05 | 52.75720 | 12.91828 | 91° | 108km/h | 2910m | -7m/s | 4.5°C | 93.7% | 713.6hPa | 2.7V | 02:45:48 | 02:54:23 | 00:00:00 | |
| AM1SDL-15 | 2026-09-04 13:02:04 | 52.75720 | 12.91783 | 91° | 108km/h | 2916m | -6.4m/s | 4.4°C | 87.5% | 712.9hPa | 2.7V | 02:45:00 | 02:54:22 | 00:00:00 | |
| EDDB2-11 | 2026-09-04 13:01:58 | 52.75721 | 12.91513 | 89° | 106km/h | 2956m | -6.9m/s | 4.3°C | 85.9% | 709.6hPa | 2.7V | 00:00:00 | 00:00:00 | 00:00:00 | |
| DB0DAN | 2026-09-04 13:01:55 | 52.75719 | 12.91378 | 89° | 102km/h | 2975m | -5.9m/s | 4.2°C | 86.5% | 707.97hPa | 2.7V | 00:00:00 | 00:00:00 | 00:00:00 | |
| AA1-15 | 2026-09-04 13:01:54 | 52.75719 | 12.91333 | 89° | 108km/h | 2980m | -6.1m/s | 4.1°C | 92.9% | 707.5hPa | 2.7V | 02:46:39 | 02:54:12 | 00:00:00 | |
| AA1-15 | 2026-09-04 13:01:44 | 52.75725 | 12.90884 | 92° | 111km/h | 3045m | -6.7m/s | 3.6°C | 94.7% | 701.9hPa | 2.6V | 02:46:39 | 02:54:02 | 00:00:00 | |
| DB0DAN | 2026-09-04 13:01:40 | 52.75729 | 12.90698 | 92° | 106km/h | 3070m | -6.1m/s | 3.4°C | 88.1% | 699.74hPa | 2.7V | 00:00:00 | 00:00:00 | 00:00:00 | |
| AA1-15 | 2026-09-04 13:01:34 | 52.75735 | 12.90420 | 93° | 110km/h | 3108m | -6.4m/s | 3.3°C | 92.9% | 696.4hPa | 2.7V | 02:46:39 | 02:53:52 | 00:00:00 | |
| AM1SDL-15 | 2026-09-04 13:01:28 | 52.75745 | 12.90142 | 95° | 113km/h | 3145m | -7.2m/s | 3.0°C | 87.7% | 693.2hPa | 2.7V | 02:46:00 | 02:53:46 | 00:00:00 | |
| EDDB2-11 | 2026-09-04 13:01:27 | 52.75747 | 12.90095 | 94° | 115km/h | 3151m | -6.5m/s | 3.0°C | 87.2% | 692.9hPa | 2.7V | 00:00:00 | 00:00:00 | 00:00:00 | |
| DB0DAN | 2026-09-04 13:01:25 | 52.75752 | 12.89999 | 95° | 110km/h | 3164m | -6m/s | 2.9°C | 87.5% | 691.73hPa | 2.7V | 00:00:00 | 00:00:00 | 00:00:00 | |
| AA1-15 | 2026-09-04 13:01:23 | 52.75757 | 12.89904 | 94° | 115km/h | 3176m | -5.8m/s | 2.8°C | 93.6% | 690.6hPa | 2.6V | 02:46:39 | 02:53:41 | 00:00:00 | |
| DF8AY | 2026-09-04 13:01:21 | 52.75761 | 12.89809 | 94° | 113km/h | 3188m | -6.3m/s | 2.7°C | 93.9% | 689.7hPa | 2.7V | 02:46:39 | 02:53:39 | 00:00:00 | |
| AA1-15 | 2026-09-04 13:01:13 | 52.75783 | 12.89386 | 95° | 113km/h | 3246m | -6.3m/s | 2.4°C | 96.5% | 685hPa | 2.7V | 02:46:39 | 02:53:30 | 00:00:00 | |
| DB0DAN | 2026-09-04 13:01:10 | 52.75788 | 12.89293 | 95° | 106km/h | 3259m | -6.6m/s | 2.4°C | 87.2% | 683.85hPa | 2.6V | 00:00:00 | 00:00:00 | 00:00:00 | |
| DF8AY | 2026-09-04 13:01:10 | 52.75796 | 12.89153 | 95° | 113km/h | 3277m | -6.3m/s | 2.4°C | 93.5% | 682hPa | 2.7V | 02:46:39 | 02:53:25 | 00:00:00 | |
| AA1-15 | 2026-09-04 13:01:02 | 52.75812 | 12.88865 | 95° | 117km/h | 3315m | -7.4m/s | 2.1°C | 94% | 679hPa | 2.7V | 02:48:21 | 02:53:19 | 00:00:00 | |
| DF8AY | 2026-09-04 13:00:58 | 52.75821 | 12.88723 | 97° | 113km/h | 3334m | -6.4m/s | 2.1°C | 94.9% | 677.4hPa | 2.7V | 02:47:30 | 02:53:16 | 00:00:00 | |
| EDDB2-11 | 2026-09-04 13:00:56 | 52.75827 | 12.88629 | 96° | 113km/h | 3345m | -5.7m/s | 2.1°C | 88.5% | 676.5hPa | 2.7V | 00:00:00 | 00:00:00 | 00:00:00 | |
| DB0DAN | 2026-09-04 13:00:55 | 52.75830 | 12.88581 | 96° | 110km/h | 3351m | -6.2m/s | 2.1°C | 88.4% | 675.88hPa | 2.7V | 00:00:00 | 00:00:00 | 00:00:00 | |
| SONDE2-11 | 2026-09-04 13:00:50 | 52.75845 | 12.88345 | 96° | 115km/h | 3380m | -6.0m/s | 2.1°C | 88.0% | 673.4hPa | 2.6V | 00:00:00 | 00:00:00 | 00:00:00 | |
| EDDB2-12 | 2026-09-04 13:00:46 | 52.75859 | 12.88153 | 96° | 115km/h | 3403m | -5.3m/s | 2.1°C | 87.0% | 671.5hPa | 2.6V | 00:00:00 | 00:00:00 | 00:00:00 | |
| DF8AY | 2026-09-04 13:00:45 | 52.75881 | 12.87814 | 96° | 119km/h | 3445m | -5.9m/s | 1.7°C | 93.4% | 668.1hPa | 2.6V | 02:47:30 | 02:52:57 | 00:00:00 | |
| AM1SDL-15 | 2026-09-04 13:00:40 | 52.75878 | 12.87863 | 97° | 120km/h | 3439m | -6.5m/s | 1.7°C | 90.1% | 668.5hPa | 2.7V | 00:00:00 | 02:52:58 | 00:00:00 | |
| DB0DAN | 2026-09-04 13:00:40 | 52.75878 | 12.87863 | 96° | 111km/h | 3439m | -6.6m/s | 1.8°C | 89.1% | 668.58hPa | 2.7V | 00:00:00 | 00:00:00 | 00:00:00 | |
| DH5RUM-10 | 2026-09-04 13:00:38 | 52.75882 | 12.87814 | 97° | 119km/h | 3445m | -5.9m/s | 1.7°C | 89.5% | 668.1hPa | 2.7V | 00:00:00 | 00:00:00 | 00:00:00 | |
| MECKS9 | 2026-09-04 13:00:30 | 52.75908 | 12.87416 | 97° | 120km/h | 3493m | -6.4m/s | 1.3°C | 92.2% | 664.1hPa | 2.7V | 00:00:00 | 00:00:00 | 00:00:00 | |
| AM1SDL-15 | 2026-09-04 13:00:28 | 52.75917 | 12.87264 | 96° | 126km/h | 3510m | -5.9m/s | 1.3°C | 92.6% | 662.7hPa | 2.7V | 00:00:00 | 02:52:46 | 00:00:00 | |
| DB0DAN | 2026-09-04 13:00:25 | 52.75926 | 12.87109 | 95° | 119km/h | 3529m | -5.8m/s | 1.5°C | 87.4% | 661.24hPa | 2.7V | 00:00:00 | 00:00:00 | 00:00:00 | |
| DF8AY | 2026-09-04 13:00:25 | 52.75926 | 12.87109 | 95° | 124km/h | 3529m | -5.8m/s | 1.5°C | 90.9% | 661.2hPa | 2.7V | 02:47:30 | 02:52:43 | 00:00:00 | |
| DM0DOS-11 | 2026-09-04 13:00:20 | 52.75956 | 12.86575 | 95° | 131km/h | 3584m | -5.6m/s | 1.9°C | 72.3% | 656.7hPa | 2.7V | 02:47:30 | 02:52:33 | 00:00:00 | |
| DF8AY | 2026-09-04 13:00:16 | 52.75956 | 12.86575 | 96° | 131km/h | 3584m | -5.6m/s | 1.9°C | 77.9% | 656.7hPa | 2.7V | 02:47:30 | 02:52:33 | 00:00:00 | |
| EDDB2-12 | 2026-09-04 13:00:15 | 52.75956 | 12.86575 | 95° | 130km/h | 3584m | -5.6m/s | 1.9°C | 71.4% | 656.7hPa | 2.6V | 00:00:00 | 00:00:00 | 00:00:00 | |
| S3001 | 2026-09-04 13:00:14 | 52.75963 | 12.86466 | 96° | 131km/h | 3595m | -5.5m/s | 1.9°C | 70.2% | 655.9hPa | 2.6V | 00:00:00 | 00:00:00 | 00:00:00 | |
| DB0DAN | 2026-09-04 13:00:10 | 52.75974 | 12.86301 | 96° | 126km/h | 3611m | -6.2m/s | 1.9°C | 68% | 654.36hPa | 2.6V | 00:00:00 | 00:00:00 | 00:00:00 | |
| DF8AY | 2026-09-04 13:00:04 | 52.75996 | 12.85965 | 97° | 137km/h | 3644m | -5.4m/s | 1.7°C | 73.9% | 651.7hPa | 2.6V | 02:48:21 | 02:52:22 | 00:00:00 | |
| AM1SDL-15 | 2026-09-04 13:00:04 | 52.75996 | 12.85965 | 97° | 137km/h | 3644m | -5.3m/s | 1.6°C | 67.8% | 651.7hPa | 2.6V | 00:00:00 | 02:52:22 | 00:00:00 | |
| DB0DAN | 2026-09-04 12:59:55 | 52.76027 | 12.85451 | 95° | 131km/h | 3691m | -5.9m/s | 1.3°C | 67.8% | 647.88hPa | 2.6V | 00:00:00 | 00:00:00 | 00:00:00 | |
| AA1-15 | 2026-09-04 12:59:55 | 52.76027 | 12.85451 | 95° | 137km/h | 3691m | -5.9m/s | 1.3°C | 74.7% | 647.9hPa | 2.6V | 02:48:21 | 02:52:13 | 00:00:00 | |
| DF8AY | 2026-09-04 12:59:54 | 52.76030 | 12.85394 | 95° | 139km/h | 3696m | -6.1m/s | 1.3°C | 74.4% | 647.4hPa | 2.6V | 02:48:21 | 02:52:12 | 00:00:00 | |
| DF8AY | 2026-09-04 12:59:44 | 52.76070 | 12.84812 | 97° | 142km/h | 3751m | -5.3m/s | 0.9°C | 78.6% | 643.1hPa | 2.7V | 02:48:21 | 02:52:02 | 00:00:00 | |
| EDDB2-12 | 2026-09-04 12:59:44 | 52.76070 | 12.84812 | 97° | 141km/h | 3751m | -5.3m/s | 0.9°C | 72.4% | 643.1hPa | 2.7V | 00:00:00 | 00:00:00 | 00:00:00 | |
| S3001 | 2026-09-04 12:59:42 | 52.76079 | 12.84694 | 97° | 141km/h | 3762m | -5.2m/s | 0.8°C | 72.3% | 642.3hPa | 2.7V | 00:00:00 | 00:00:00 | 00:00:00 | |
| DB0DAN | 2026-09-04 12:59:40 | 52.76087 | 12.84576 | 96° | 137km/h | 3773m | -5.5m/s | 0.7°C | 72.5% | 641.31hPa | 2.7V | 00:00:00 | 00:00:00 | 00:00:00 | |
| DF8AY | 2026-09-04 12:59:34 | 52.76109 | 12.84218 | 96° | 144km/h | 3805m | -5.7m/s | 0.5°C | 79.5% | 638.8hPa | 2.7V | 02:48:21 | 02:51:52 | 00:00:00 | |
| AA1-15 | 2026-09-04 12:59:34 | 52.76112 | 12.84159 | 96° | 144km/h | 3810m | -5.4m/s | 0.5°C | 79.5% | 638.4hPa | 2.7V | 02:48:21 | 02:51:51 | 00:00:00 | |
| DH5RUM-10 | 2026-09-04 12:59:30 | 52.76119 | 12.84038 | 97° | 144km/h | 3820m | -5.1m/s | 0.4°C | 74.5% | 637.6hPa | 2.7V | 00:00:00 | 00:00:00 | 00:00:00 | |
| AM1SDL-15 | 2026-09-04 12:59:28 | 52.76130 | 12.83856 | 96° | 146km/h | 3835m | -5.0m/s | 0.3°C | 75.5% | 636.5hPa | 2.7V | 00:00:00 | 02:51:46 | 00:00:00 | |
| DB0DAN | 2026-09-04 12:59:25 | 52.76140 | 12.83672 | 95° | 139km/h | 3850m | -6.1m/s | 0.4°C | 72.7% | 635.24hPa | 2.7V | 00:00:00 | 00:00:00 | 00:00:00 | |
| DF8AY | 2026-09-04 12:59:24 | 52.76163 | 12.83190 | 94° | 142km/h | 3890m | -5.5m/s | 0.3°C | 75.2% | 632.2hPa | 2.7V | 02:49:12 | 02:51:35 | 00:00:00 | |
| AA1-15 | 2026-09-04 12:59:24 | 52.76149 | 12.83490 | 95° | 146km/h | 3865m | -5.2m/s | 0.3°C | 78.5% | 634.1hPa | 2.7V | 02:49:12 | 02:51:40 | 00:00:00 | |
| AA1-15 | 2026-09-04 12:59:13 | 52.76173 | 12.82954 | 94° | 141km/h | 3910m | -5.4m/s | 0.5°C | 70.9% | 630.6hPa | 2.7V | 02:49:12 | 02:51:31 | 00:00:00 | |
| DF8AY | 2026-09-04 12:59:11 | 52.76178 | 12.82837 | 94° | 141km/h | 3921m | -5.5m/s | 0.4°C | 71.5% | 629.7hPa | 2.7V | 02:49:12 | 02:51:29 | 00:00:00 | |
| DB0DAN | 2026-09-04 12:59:10 | 52.76181 | 12.82779 | 94° | 133km/h | 3926m | -5.5m/s | 0.3°C | 64.5% | 629.37hPa | 2.7V | 00:00:00 | 00:00:00 | 00:00:00 | |
| AA1-15 | 2026-09-04 12:59:02 | 52.76196 | 12.82309 | 93° | 142km/h | 3967m | -6.1m/s | -0°C | 76.9% | 626hPa | 2.7V | 02:49:12 | 02:51:20 | 00:00:00 | |
| DF8AY | 2026-09-04 12:59:00 | 52.76199 | 12.82190 | 92° | 142km/h | 3978m | -5.3m/s | -0.1°C | 77% | 625.1hPa | 2.7V | 02:49:12 | 02:51:18 | 00:00:00 | |
| DF8AY-15 | 2026-09-04 12:58:59 | 52.76200 | 12.82130 | 92° | 142km/h | 3983m | -5.3m/s | -0.1°C | 71.2% | 624.6hPa | 2.7V | 00:00:00 | 02:51:17 | 00:00:00 | |
| DB0DAN | 2026-09-04 12:58:55 | 52.76204 | 12.81895 | 92° | 133km/h | 4004m | -5.5m/s | -0.4°C | 73.6% | 623.14hPa | 2.7V | 00:00:00 | 00:00:00 | 00:00:00 | |
| DF8AY | 2026-09-04 12:58:54 | 52.76208 | 12.81541 | 91° | 142km/h | 4036m | -6m/s | -0.6°C | 85.7% | 620.7hPa | 2.6V | 02:49:12 | 02:51:07 | 00:00:00 | |
| AA1-15 | 2026-09-04 12:58:51 | 52.76207 | 12.81660 | 90° | 141km/h | 4025m | -5.4m/s | -0.5°C | 82.6% | 621.5hPa | 2.7V | 02:49:12 | 02:51:09 | 00:00:00 | |
| SONDE2-11 | 2026-09-04 12:58:47 | 52.76209 | 12.81362 | 90° | 142km/h | 4052m | -5.1m/s | -0.7°C | 80.8% | 619.5hPa | 2.7V | 00:00:00 | 00:00:00 | 00:00:00 | |
| AA1-15 | 2026-09-04 12:58:40 | 52.76214 | 12.81002 | 91° | 144km/h | 4084m | -5m/s | -0.9°C | 87.8% | 617hPa | 2.7V | 02:49:12 | 02:50:58 | 00:00:00 | |
| DB0DAN | 2026-09-04 12:58:40 | 52.76214 | 12.81002 | 91° | 137km/h | 4084m | -5m/s | -0.9°C | 81.6% | 616.95hPa | 2.7V | 00:00:00 | 00:00:00 | 00:00:00 | |
| DF8AY | 2026-09-04 12:58:39 | 52.76214 | 12.80942 | 90° | 142km/h | 4089m | -5.2m/s | -1°C | 88.1% | 616.6hPa | 2.7V | 02:49:12 | 02:50:57 | 00:00:00 | |
| DF8AY | 2026-09-04 12:58:29 | 52.76210 | 12.80350 | 89° | 144km/h | 4149m | -5.3m/s | -1.4°C | 88.7% | 612.1hPa | 2.7V | 02:50:03 | 02:50:47 | 00:00:00 | |
| AM1SDL-15 | 2026-09-04 12:58:28 | 52.76209 | 12.80289 | 90° | 144km/h | 4155m | -5.0m/s | -1.4°C | 83.7% | 611.6hPa | 2.7V | 02:49:00 | 02:50:46 | 00:00:00 | |
| DH5RUM-10 | 2026-09-04 12:58:27 | 52.76209 | 12.80289 | 90° | 144km/h | 4155m | -5.1m/s | -1.4°C | 82.3% | 611.7hPa | 2.6V | 00:00:00 | 00:00:00 | 00:00:00 | |
| DB0DAN | 2026-09-04 12:58:25 | 52.76208 | 12.80108 | 90° | 139km/h | 4171m | -6.2m/s | -1.4°C | 80.1% | 610.45hPa | 2.6V | 00:00:00 | 00:00:00 | 00:00:00 | |
| DF8AY | 2026-09-04 12:58:19 | 52.76210 | 12.79750 | 90° | 141km/h | 4203m | -5.9m/s | -1.7°C | 86.8% | 607.8hPa | 2.7V | 02:50:03 | 02:50:37 | 00:00:00 | |
| AA1-15 | 2026-09-04 12:58:18 | 52.76210 | 12.79691 | 90° | 141km/h | 4209m | -5.9m/s | -1.7°C | 87.1% | 607.5hPa | 2.7V | 02:50:03 | 02:50:36 | 00:00:00 | |
| DM0DOS-11 | 2026-09-04 12:58:17 | 52.76209 | 12.79333 | 90° | 144km/h | 4242m | -5.6m/s | -2°C | 83.3% | 604.9hPa | 2.7V | 02:49:33 | 02:50:30 | 00:00:00 | |
| SONDE2-11 | 2026-09-04 12:58:16 | 52.76209 | 12.79513 | 89° | 142km/h | 4225m | -5.3m/s | -1.9°C | 81.3% | 606.2hPa | 2.6V | 00:00:00 | 00:00:00 | 00:00:00 | |
| DM0DOS-11 | 2026-09-04 12:58:12 | 52.76210 | 12.79033 | 89° | 144km/h | 4271m | -6.3m/s | -2.2°C | 85.7% | 602.8hPa | 2.6V | 02:49:38 | 02:50:25 | 00:00:00 | |
| DB0DAN | 2026-09-04 12:58:10 | 52.76209 | 12.79212 | 90° | 137km/h | 4253m | -6.9m/s | -2.1°C | 82.8% | 604.17hPa | 2.7V | 00:00:00 | 00:00:00 | 00:00:00 | |
| AA1-15 | 2026-09-04 12:58:08 | 52.76210 | 12.79092 | 90° | 142km/h | 4265m | -6.1m/s | -2.2°C | 90% | 603.2hPa | 2.6V | 02:50:03 | 02:50:26 | 00:00:00 | |
| AA1-15 | 2026-09-04 12:57:58 | 52.76210 | 12.78496 | 90° | 142km/h | 4321m | -5.8m/s | -2.6°C | 93.7% | 599hPa | 2.6V | 02:50:03 | 02:50:16 | 00:00:00 | |
| DB0DAN | 2026-09-04 12:57:55 | 52.76210 | 12.78315 | 90° | 139km/h | 4337m | -5.4m/s | -2.8°C | 89.7% | 597.81hPa | 2.7V | 00:00:00 | 00:00:00 | 00:00:00 | |
| AA1-15 | 2026-09-04 12:57:48 | 52.76209 | 12.77890 | 90° | 144km/h | 4374m | -5.7m/s | -3.1°C | 96% | 594.9hPa | 2.7V | 02:50:03 | 02:50:06 | 00:00:00 | |
| DF8AY | 2026-09-04 12:57:48 | 52.76207 | 12.77282 | 90° | 148km/h | 4430m | -5.9m/s | -3.4°C | 99.4% | 590.9hPa | 2.7V | 02:50:54 | 02:49:56 | 00:00:00 | |
| SONDE2-11 | 2026-09-04 12:57:45 | 52.76208 | 12.77649 | 89° | 144km/h | 4397m | -5.5m/s | -3.2°C | 94.0% | 593.3hPa | 2.6V | 00:00:00 | 00:00:00 | 00:00:00 | |
| DF8AY | 2026-09-04 12:57:42 | 52.76207 | 12.77220 | 90° | 148km/h | 4435m | -5.6m/s | -3.4°C | 99.4% | 590.3hPa | 2.6V | 02:50:54 | 02:49:55 | 00:00:00 | |
| DB0DAN | 2026-09-04 12:57:40 | 52.76207 | 12.77406 | 90° | 141km/h | 4419m | -5.4m/s | -3.3°C | 94.5% | 591.63hPa | 2.7V | 00:00:00 | 00:00:00 | 00:00:00 | |
| DM0DOS-11 | 2026-09-04 12:57:39 | 52.76206 | 12.77035 | 89° | 146km/h | 4452m | -6.2m/s | -3.6°C | 97.2% | 589.1hPa | 2.7V | 02:50:11 | 02:49:52 | 00:00:00 | |
| AA1-15 | 2026-09-04 12:57:37 | 52.76207 | 12.77159 | 90° | 148km/h | 4441m | -5.8m/s | -3.5°C | 99.2% | 590hPa | 2.6V | 02:50:54 | 02:49:54 | 00:00:00 | |
| DM0DOS-11 | 2026-09-04 12:57:34 | 52.76207 | 12.76667 | 90° | 150km/h | 4485m | -6.7m/s | -3.6°C | 93.4% | 586.6hPa | 2.6V | 02:50:17 | 02:49:46 | 00:00:00 | |
| AA1-15 | 2026-09-04 12:57:27 | 52.76207 | 12.76605 | 91° | 150km/h | 4491m | -5.7m/s | -3.6°C | 97.1% | 586.3hPa | 2.7V | 02:50:54 | 02:49:45 | 00:00:00 | |
| DB0DAN | 2026-09-04 12:57:25 | 52.76207 | 12.76480 | 90° | 142km/h | 4502m | -5.9m/s | -3.7°C | 91.6% | 585.43hPa | 2.7V | 00:00:00 | 00:00:00 | 00:00:00 | |
| DM0DOS-11 | 2026-09-04 12:57:21 | 52.76208 | 12.75928 | 90° | 148km/h | 4556m | -6.3m/s | -4.1°C | 94.3% | 581.5hPa | 2.6V | 02:50:29 | 02:49:34 | 00:00:00 | |
| AA1-15 | 2026-09-04 12:57:17 | 52.76207 | 12.75990 | 91° | 148km/h | 4550m | -6.3m/s | -4°C | 98% | 581.8hPa | 2.7V | 02:50:54 | 02:49:35 | 00:00:00 | |
| DF8AY | 2026-09-04 12:57:16 | 52.76208 | 12.75928 | 91° | 148km/h | 4557m | -6.4m/s | -4.1°C | 98.5% | 581.5hPa | 2.6V | 02:50:54 | 02:49:34 | 00:00:00 | |
| SONDE2-11 | 2026-09-04 12:57:13 | 52.76210 | 12.75742 | 91° | 148km/h | 4575m | -6.1m/s | -4.1°C | 91.0% | 580.1hPa | 2.7V | 00:00:00 | 00:00:00 | 00:00:00 | |
| DM0DOS-11 | 2026-09-04 12:57:11 | 52.76215 | 12.75238 | 90° | 150km/h | 4622m | -5.9m/s | -4.4°C | 93.9% | 576.6hPa | 2.7V | 02:50:40 | 02:49:23 | 00:00:00 | |
| DB0DAN | 2026-09-04 12:57:10 | 52.76212 | 12.75554 | 91° | 144km/h | 4593m | -6.4m/s | -4.2°C | 91.1% | 578.79hPa | 2.7V | 00:00:00 | 00:00:00 | 00:00:00 | |
| DF8AY | 2026-09-04 12:57:06 | 52.76215 | 12.75238 | 90° | 150km/h | 4622m | -5.9m/s | -4.4°C | 96.8% | 576.6hPa | 2.7V | 02:50:54 | 02:49:23 | 00:00:00 | |
| AA1-15 | 2026-09-04 12:57:06 | 52.76214 | 12.75301 | 90° | 151km/h | 4617m | -5.8m/s | -4.4°C | 96.7% | 577.2hPa | 2.7V | 02:50:54 | 02:49:24 | 00:00:00 | |
| DO2SHX-10 | 2026-09-04 12:57:05 | 52.76214 | 12.75238 | 91° | 150km/h | 4622m | -5.9m/s | -4.4°C | 93.9% | 576.6hPa | 2.7V | 00:00:00 | 02:49:23 | 00:00:00 | |
| AM1SDL-15 | 2026-09-04 12:57:04 | 52.76215 | 12.75175 | 91° | 153km/h | 4628m | -5.5m/s | -4.4°C | 94.0% | 576.1hPa | 2.7V | 00:00:00 | 02:49:22 | 00:00:00 | |
| DO2SHX-10 | 2026-09-04 12:57:02 | 52.76215 | 12.75050 | 91° | 151km/h | 4639m | -6.0m/s | -4.5°C | 93.4% | 575.4hPa | 2.7V | 02:50:00 | 02:49:20 | 00:00:00 | |
| DM0DOS-11 | 2026-09-04 12:57:00 | 52.76219 | 12.74540 | 90° | 155km/h | 4685m | -6m/s | -4.9°C | 93% | 572hPa | 2.7V | 02:50:51 | 02:49:12 | 00:00:00 | |
| DL2RXE-15 | 2026-09-04 12:57:00 | 52.76215 | 12.74924 | 91° | 153km/h | 4651m | -6.3m/s | -4.7°C | 92.8% | 574.5hPa | 2.7V | 02:50:00 | 00:00:00 | 00:00:00 | |
| DO2SHX-10 | 2026-09-04 12:56:59 | 52.76215 | 12.74860 | 91° | 151km/h | 4657m | -5.9m/s | -4.7°C | 94.5% | 574.1hPa | 2.7V | 00:00:00 | 02:49:17 | 00:00:00 | |
| DB0DAN | 2026-09-04 12:56:55 | 52.76218 | 12.74605 | 91° | 148km/h | 4679m | -5.7m/s | -4.9°C | 91.3% | 572.4hPa | 2.7V | 00:00:00 | 00:00:00 | 00:00:00 | |
| AA1-15 | 2026-09-04 12:56:55 | 52.76218 | 12.74605 | 91° | 155km/h | 4680m | -5.7m/s | -4.9°C | 96.7% | 572.4hPa | 2.7V | 02:50:54 | 02:49:13 | 00:00:00 | |
| DF8AY | 2026-09-04 12:56:54 | 52.76219 | 12.74540 | 91° | 155km/h | 4685m | -6.1m/s | -4.9°C | 96.7% | 572hPa | 2.7V | 02:50:54 | 02:49:12 | 00:00:00 | |
| DM0DOS-11 | 2026-09-04 12:56:54 | 52.76224 | 12.74155 | 91° | 151km/h | 4722m | -7.3m/s | -5.2°C | 92.9% | 569.3hPa | 2.7V | 02:50:57 | 02:49:06 | 00:00:00 | |
| SP3BTT-10 | 2026-09-04 12:56:53 | 52.76220 | 12.74475 | 91° | 157km/h | 4691m | -6.0m/s | -4.9°C | 93.6% | 571.5hPa | 2.7V | 00:00:00 | 00:00:00 | 00:00:00 | |
| AM1SDL-15 | 2026-09-04 12:56:52 | 52.76221 | 12.74410 | 92° | 153km/h | 4697m | -6.5m/s | -5.0°C | 93.3% | 571.1hPa | 2.7V | 00:00:00 | 02:49:10 | 00:00:00 | |
| DO2SHX-10 | 2026-09-04 12:56:50 | 52.76222 | 12.74282 | 92° | 151km/h | 4709m | -6.1m/s | -5.0°C | 92.4% | 570.2hPa | 2.7V | 00:00:00 | 02:49:08 | 00:00:00 | |
| DM0DOS-11 | 2026-09-04 12:56:49 | 52.76234 | 12.73774 | 91° | 155km/h | 4761m | -6.3m/s | -5.4°C | 91.8% | 566.6hPa | 2.7V | 02:51:03 | 02:49:00 | 00:00:00 | |
| AA1-15 | 2026-09-04 12:56:44 | 52.76231 | 12.73902 | 93° | 153km/h | 4748m | -6.7m/s | -5.3°C | 95.4% | 567.4hPa | 2.6V | 02:51:45 | 02:49:02 | 00:00:00 | |
| DF8AY | 2026-09-04 12:56:43 | 52.76236 | 12.73709 | 91° | 155km/h | 4767m | -6.5m/s | -5.4°C | 95.2% | 566.2hPa | 2.7V | 02:51:45 | 02:48:59 | 00:00:00 | |
| DM0DOS-11 | 2026-09-04 12:56:43 | 52.76238 | 12.73448 | 90° | 157km/h | 4793m | -6.8m/s | -5.5°C | 89.3% | 564.4hPa | 2.7V | 02:51:08 | 02:48:55 | 00:00:00 | |
| DB0DAN | 2026-09-04 12:56:40 | 52.76236 | 12.73644 | 91° | 150km/h | 4773m | -6.7m/s | -5.4°C | 86.7% | 565.77hPa | 2.7V | 00:00:00 | 00:00:00 | 00:00:00 | |
| AA1-15 | 2026-09-04 12:56:34 | 52.76240 | 12.73254 | 91° | 153km/h | 4812m | -6.2m/s | -5.7°C | 93.3% | 563hPa | 2.7V | 02:51:45 | 02:48:52 | 00:00:00 | |
| DM0DOS-11 | 2026-09-04 12:56:32 | 52.76244 | 12.72741 | 90° | 153km/h | 4863m | -6.9m/s | -6.1°C | 91.9% | 559.4hPa | 2.7V | 02:51:19 | 02:48:44 | 00:00:00 | |
| DF8AY | 2026-09-04 12:56:31 | 52.76241 | 12.73062 | 91° | 153km/h | 4830m | -6.6m/s | -5.8°C | 93.9% | 561.5hPa | 2.7V | 02:51:45 | 02:48:49 | 00:00:00 | |
| DO2SHX-10 | 2026-09-04 12:56:29 | 52.76242 | 12.72933 | 91° | 153km/h | 4844m | -6.5m/s | -5.9°C | 91.2% | 560.6hPa | 2.6V | 00:00:00 | 02:48:47 | 00:00:00 | |
| AM1SDL-15 | 2026-09-04 12:56:28 | 52.76243 | 12.72869 | 91° | 153km/h | 4850m | -6.3m/s | -5.9°C | 91.5% | 560.1hPa | 2.6V | 00:00:00 | 02:48:46 | 00:00:00 | |
| DM0DOS-11 | 2026-09-04 12:56:27 | 52.76245 | 12.72422 | 89° | 153km/h | 4895m | -6.4m/s | -6.3°C | 92.3% | 557hPa | 2.6V | 02:51:24 | 02:48:39 | 00:00:00 | |
| DB0DAN | 2026-09-04 12:56:25 | 52.76245 | 12.72677 | 91° | 146km/h | 4869m | -6.1m/s | -6.1°C | 89.8% | 558.83hPa | 2.7V | 00:00:00 | 00:00:00 | 00:00:00 | |
| AA1-15 | 2026-09-04 12:56:24 | 52.76245 | 12.72613 | 90° | 153km/h | 4875m | -6.9m/s | -6.1°C | 94.1% | 558.4hPa | 2.7V | 02:51:45 | 02:48:42 | 00:00:00 | |
| DO2SHX-10 | 2026-09-04 12:56:23 | 52.76245 | 12.72549 | 90° | 153km/h | 4883m | -7.9m/s | -6.1°C | 91.1% | 558.0hPa | 2.7V | 00:00:00 | 02:48:41 | 00:00:00 | |
| DM0DOS-11 | 2026-09-04 12:56:21 | 52.76242 | 12.72099 | 88° | 155km/h | 4928m | -6.7m/s | -6.6°C | 92.6% | 554.8hPa | 2.7V | 02:51:29 | 02:48:34 | 00:00:00 | |
| DF8AY | 2026-09-04 12:56:21 | 52.76245 | 12.72358 | 90° | 153km/h | 4902m | -7.3m/s | -6.4°C | 95.4% | 556.5hPa | 2.6V | 02:51:45 | 02:48:38 | 00:00:00 | |
| DO2SHX-10 | 2026-09-04 12:56:20 | 52.76245 | 12.72358 | 90° | 155km/h | 4902m | -7.3m/s | -6.3°C | 92.7% | 556.5hPa | 2.7V | 00:00:00 | 02:48:38 | 00:00:00 | |
| DF8AY-15 | 2026-09-04 12:56:19 | 52.76245 | 12.72293 | 90° | 155km/h | 4909m | -6.5m/s | -6.4°C | 93.1% | 555.9hPa | 2.7V | 02:51:00 | 02:48:37 | 00:00:00 | |
| EDDB2-11 | 2026-09-04 12:56:17 | 52.76242 | 12.72099 | 88° | 155km/h | 4928m | -6.7m/s | -6.6°C | 90.6% | 554.8hPa | 2.7V | 00:00:00 | 00:00:00 | 00:00:00 | |
| DM0DOS-11 | 2026-09-04 12:56:16 | 52.76241 | 12.71776 | 90° | 153km/h | 4961m | -6.8m/s | -6.9°C | 94.1% | 552.3hPa | 2.7V | 02:51:34 | 02:48:29 | 00:00:00 | |
| DL1XH-west | 2026-09-04 12:56:13 | 52.76241 | 12.71904 | 90° | 155km/h | 4948m | -6.7m/s | -6.8°C | 95.7% | 553.2hPa | 2.6V | 02:51:45 | 02:48:31 | 00:00:00 | |
| DB0DAN | 2026-09-04 12:56:10 | 52.76241 | 12.71712 | 91° | 146km/h | 4968m | -6.9m/s | -6.9°C | 92.4% | 551.88hPa | 2.7V | 00:00:00 | 00:00:00 | 00:00:00 | |
| DF8AY | 2026-09-04 12:56:09 | 52.76242 | 12.71648 | 91° | 155km/h | 4975m | -6.4m/s | -7°C | 95.6% | 551.4hPa | 2.7V | 02:51:45 | 02:48:27 | 00:00:00 | |
| DO2SHX-10 | 2026-09-04 12:56:08 | 52.76242 | 12.71583 | 92° | 155km/h | 4981m | -7.1m/s | -6.8°C | 90.8% | 550.9hPa | 2.7V | 02:51:00 | 02:48:26 | 00:00:00 | |
| EDDB2-12 | 2026-09-04 12:56:07 | 52.76243 | 12.71519 | 91° | 153km/h | 4988m | -6.6m/s | -6.7°C | 83.9% | 550.4hPa | 2.7V | 00:00:00 | 00:00:00 | 00:00:00 | |
| DH5RUM-10 | 2026-09-04 12:56:06 | 52.76243 | 12.71519 | 92° | 155km/h | 4988m | -6.6m/s | -6.7°C | 84.0% | 550.4hPa | 2.7V | 02:51:00 | 00:00:00 | 00:00:00 | |
| DO2SHX-10 | 2026-09-04 12:56:05 | 52.76245 | 12.71389 | 92° | 155km/h | 5002m | -6.9m/s | -6.6°C | 76.6% | 549.4hPa | 2.7V | 00:00:00 | 02:48:23 | 00:00:00 | |
| AM1SDL-15 | 2026-09-04 12:56:04 | 52.76245 | 12.71324 | 92° | 155km/h | 5009m | -6.6m/s | -6.6°C | 72.9% | 548.9hPa | 2.7V | 02:51:00 | 02:48:22 | 00:00:00 | |
| DM0DOS-11 | 2026-09-04 12:56:03 | 52.76249 | 12.71001 | 91° | 155km/h | 5042m | -6.7m/s | -6.9°C | 66.4% | 546.7hPa | 2.7V | 02:51:46 | 02:48:17 | 00:00:00 | |
| AA1-15 | 2026-09-04 12:56:02 | 52.76247 | 12.71195 | 91° | 155km/h | 5022m | -6.7m/s | -6.8°C | 75.4% | 548hPa | 2.7V | 02:51:45 | 02:48:20 | 00:00:00 | |
| BIOWL1-15 | 2026-09-04 12:56:01 | 52.76247 | 12.71131 | 91° | 155km/h | 5029m | -6.8m/s | -6.8°C | 72.9% | 547.5hPa | 2.7V | 02:52:36 | 02:48:19 | 00:00:00 | |
| DF8AY | 2026-09-04 12:55:58 | 52.76250 | 12.70936 | 92° | 157km/h | 5049m | -7m/s | -6.9°C | 70% | 546.2hPa | 2.5V | 02:52:36 | 02:48:16 | 00:00:00 | |
| DB0DAN | 2026-09-04 12:55:55 | 52.76253 | 12.70740 | 91° | 148km/h | 5069m | -6.8m/s | -7.1°C | 64.3% | 544.7hPa | 2.7V | 00:00:00 | 00:00:00 | 00:00:00 | |
| BIOWL1-15 | 2026-09-04 12:55:53 | 52.76254 | 12.70482 | 90° | 155km/h | 5095m | -6.5m/s | -7.1°C | 52.7% | 543hPa | 2.5V | 02:52:36 | 02:48:09 | 00:00:00 | |
| AA1-15 | 2026-09-04 12:55:52 | 52.76254 | 12.70547 | 90° | 155km/h | 5089m | -6m/s | -7°C | 54.9% | 543.4hPa | 2.7V | 02:52:36 | 02:48:10 | 00:00:00 | |
| DM0DOS-11 | 2026-09-04 12:55:51 | 52.76254 | 12.70353 | 90° | 153km/h | 5108m | -7m/s | -7.1°C | 43.9% | 542hPa | 2.7V | 02:51:56 | 02:48:07 | 00:00:00 | |
| DL1XH-west | 2026-09-04 12:55:50 | 52.76254 | 12.70417 | 90° | 155km/h | 5101m | -6.6m/s | -7.1°C | 50.1% | 542.4hPa | 2.6V | 02:52:36 | 02:48:08 | 00:00:00 | |
| DF8AY | 2026-09-04 12:55:47 | 52.76255 | 12.70225 | 91° | 153km/h | 5122m | -7.3m/s | -7.3°C | 48.3% | 541hPa | 2.7V | 02:52:36 | 02:48:05 | 00:00:00 | |
| DO2SHX-10 | 2026-09-04 12:55:47 | 52.76255 | 12.70225 | 91° | 155km/h | 5122m | -7.3m/s | -7.2°C | 43.4% | 541.0hPa | 2.7V | 00:00:00 | 02:48:05 | 00:00:00 | |
| DL1XH1-15 | 2026-09-04 12:55:46 | 52.76260 | 12.69835 | 91° | 159km/h | 5164m | -7.9m/s | -7.5°C | 44.4% | 538.1hPa | 2.7V | 02:52:04 | 02:47:59 | 00:00:00 | |
| EDDB2-11 | 2026-09-04 12:55:45 | 52.76256 | 12.70096 | 91° | 155km/h | 5135m | -6.9m/s | -7.4°C | 42.2% | 540.1hPa | 2.7V | 00:00:00 | 00:00:00 | 00:00:00 | |
| DO2SHX-10 | 2026-09-04 12:55:44 | 52.76257 | 12.70031 | 92° | 157km/h | 5142m | -7.0m/s | -7.4°C | 43.3% | 539.6hPa | 2.7V | 00:00:00 | 02:48:02 | 00:00:00 | |
| BIOWL9-15 | 2026-09-04 12:55:43 | 52.76258 | 12.69966 | 91° | 155km/h | 5149m | -7.1m/s | -7.5°C | 42.3% | 539.1hPa | 2.7V | 00:00:00 | 00:00:00 | 00:00:00 | |
| DM0DOS-11 | 2026-09-04 12:55:41 | 52.76262 | 12.69703 | 90° | 157km/h | 5178m | -6.9m/s | -7.6°C | 50.8% | 537.1hPa | 2.7V | 02:52:06 | 02:47:57 | 00:00:00 | |
| AA1-15 | 2026-09-04 12:55:41 | 52.76260 | 12.69834 | 91° | 159km/h | 5164m | -7.9m/s | -7.6°C | 49% | 538.1hPa | 2.7V | 02:52:36 | 02:47:59 | 00:00:00 | |
| DB0DAN | 2026-09-04 12:55:40 | 52.76261 | 12.69769 | 91° | 150km/h | 5172m | -7.1m/s | -7.6°C | 48.7% | 537.54hPa | 2.7V | 00:00:00 | 00:00:00 | 00:00:00 | |
| DL1XH-west | 2026-09-04 12:55:40 | 52.76262 | 12.69703 | 91° | 157km/h | 5178m | -6.9m/s | -7.6°C | 55.3% | 537.1hPa | 2.7V | 02:52:36 | 02:47:57 | 00:00:00 | |
| DF8AY | 2026-09-04 12:55:37 | 52.76274 | 12.69174 | 93° | 159km/h | 5232m | -6.8m/s | -7.8°C | 55.5% | 533.3hPa | 2.6V | 02:52:36 | 02:47:49 | 00:00:00 | |
| EDDB2-12 | 2026-09-04 12:55:36 | 52.76264 | 12.69506 | 91° | 157km/h | 5198m | -6.9m/s | -7.7°C | 50.0% | 535.7hPa | 2.7V | 00:00:00 | 00:00:00 | 00:00:00 | |
| DL1XH1-15 | 2026-09-04 12:55:35 | 52.76276 | 12.69108 | 92° | 159km/h | 5239m | -7.2m/s | -7.8°C | 49.7% | 532.9hPa | 2.7V | 02:52:15 | 02:47:48 | 00:00:00 | |
| DO2SHX-10 | 2026-09-04 12:55:35 | 52.76266 | 12.69440 | 93° | 159km/h | 5205m | -7.3m/s | -7.6°C | 50.3% | 535.1hPa | 2.6V | 00:00:00 | 02:47:53 | 00:00:00 | |
| S3001 | 2026-09-04 12:55:34 | 52.76267 | 12.69374 | 92° | 159km/h | 5212m | -7.3m/s | -7.7°C | 48.8% | 534.8hPa | 2.6V | 00:00:00 | 00:00:00 | 00:00:00 | |
| DO2SHX-10 | 2026-09-04 12:55:32 | 52.76271 | 12.69240 | 94° | 159km/h | 5225m | -6.7m/s | -7.7°C | 51.0% | 533.8hPa | 2.6V | 02:52:00 | 02:47:50 | 00:00:00 | |
| DM0DOS-11 | 2026-09-04 12:55:31 | 52.76278 | 12.69041 | 92° | 159km/h | 5245m | -6.6m/s | -7.7°C | 47.1% | 532.4hPa | 2.6V | 02:52:16 | 02:47:47 | 00:00:00 | |
| AA1-15 | 2026-09-04 12:55:30 | 52.76276 | 12.69108 | 93° | 159km/h | 5239m | -7.3m/s | -7.8°C | 54.7% | 532.9hPa | 2.7V | 02:52:36 | 02:47:48 | 00:00:00 | |
| DL1XH-west | 2026-09-04 12:55:29 | 52.76278 | 12.69041 | 93° | 161km/h | 5245m | -6.6m/s | -7.7°C | 52.2% | 532.4hPa | 2.6V | 02:52:36 | 02:47:47 | 00:00:00 | |
| DF8AY | 2026-09-04 12:55:26 | 52.76283 | 12.68842 | 93° | 159km/h | 5265m | -7.3m/s | -7.8°C | 48.6% | 531hPa | 2.7V | 02:52:36 | 02:47:44 | 00:00:00 | |
| DB0DAN | 2026-09-04 12:55:25 | 52.76285 | 12.68776 | 93° | 150km/h | 5272m | -7.3m/s | -7.8°C | 42.8% | 530.55hPa | 2.7V | 00:00:00 | 00:00:00 | 00:00:00 | |
| DO2SHX-10 | 2026-09-04 12:55:23 | 52.76290 | 12.68645 | 94° | 159km/h | 5287m | -7.0m/s | -7.7°C | 44.0% | 529.6hPa | 2.6V | 02:52:00 | 02:47:41 | 00:00:00 | |
| DL1XH1-15 | 2026-09-04 12:55:22 | 52.76302 | 12.68378 | 94° | 161km/h | 5314m | -7.2m/s | -7.8°C | 39.4% | 527.7hPa | 2.7V | 02:52:26 | 02:47:37 | 00:00:00 | |
| BIOWL1-15 | 2026-09-04 12:55:19 | 52.76311 | 12.68177 | 94° | 161km/h | 5333m | -7m/s | -7.9°C | 44.7% | 526.5hPa | 2.6V | 02:52:36 | 02:47:34 | 00:00:00 | |
| AA1-15 | 2026-09-04 12:55:19 | 52.76302 | 12.68378 | 94° | 161km/h | 5314m | -7.2m/s | -7.8°C | 44.8% | 527.7hPa | 2.7V | 02:52:36 | 02:47:37 | 00:00:00 | |
| DL1XH-west | 2026-09-04 12:55:19 | 52.76305 | 12.68311 | 94° | 162km/h | 5320m | -6.7m/s | -7.8°C | 44.7% | 527.4hPa | 2.7V | 02:52:36 | 02:47:36 | 00:00:00 | |
| DF8AY | 2026-09-04 12:55:16 | 52.76313 | 12.68110 | 94° | 159km/h | 5340m | -6.9m/s | -8°C | 44.6% | 526hPa | 2.5V | 02:52:36 | 02:47:33 | 00:00:00 | |
| BIOWL1-15 | 2026-09-04 12:55:11 | 52.76328 | 12.67719 | 93° | 155km/h | 5380m | -7.2m/s | -8.4°C | 44.2% | 523.2hPa | 2.6V | 02:52:36 | 02:47:27 | 00:00:00 | |
| DB0DAN | 2026-09-04 12:55:10 | 52.76325 | 12.67784 | 93° | 148km/h | 5373m | -6.6m/s | -8.3°C | 37.6% | 523.73hPa | 2.7V | 00:00:00 | 00:00:00 | 00:00:00 | |
| DL1XH1-15 | 2026-09-04 12:55:10 | 52.76328 | 12.67719 | 93° | 155km/h | 5380m | -7.2m/s | -8.4°C | 38.9% | 523.2hPa | 2.6V | 02:52:36 | 02:47:27 | 00:00:00 | |
| DL1XH-west | 2026-09-04 12:55:08 | 52.76330 | 12.67655 | 93° | 155km/h | 5387m | -7.3m/s | -8.5°C | 44.2% | 522.8hPa | 2.5V | 02:53:27 | 02:47:26 | 00:00:00 | |
| DF8AY | 2026-09-04 12:55:05 | 52.76339 | 12.67394 | 94° | 155km/h | 5416m | -7.5m/s | -8.8°C | 43.9% | 520.9hPa | 2.7V | 02:53:27 | 02:47:22 | 00:00:00 | |
| BIOWL1-15 | 2026-09-04 12:54:59 | 52.76354 | 12.66885 | 93° | 150km/h | 5475m | -7.6m/s | -9.2°C | 66.2% | 517hPa | 2.7V | 02:53:27 | 02:47:14 | 00:00:00 | |
| DL1XH-west | 2026-09-04 12:54:58 | 52.76351 | 12.67010 | 93° | 151km/h | 5460m | -7.5m/s | -9.1°C | 60.8% | 518hPa | 2.7V | 02:53:27 | 02:47:16 | 00:00:00 | |
| DF8AY | 2026-09-04 12:54:55 | 52.76358 | 12.66760 | 93° | 148km/h | 5489m | -7.1m/s | -9.3°C | 67.2% | 516hPa | 2.5V | 02:53:27 | 02:47:12 | 00:00:00 | |
| DB0DAN | 2026-09-04 12:54:55 | 52.76356 | 12.66823 | 93° | 142km/h | 5482m | -7.3m/s | -9.2°C | 61.4% | 516.42hPa | 2.6V | 00:00:00 | 00:00:00 | 00:00:00 | |
| AA1-15 | 2026-09-04 12:54:47 | 52.76373 | 12.66324 | 94° | 148km/h | 5537m | -7.1m/s | -9.5°C | 74.6% | 512.7hPa | 2.5V | 02:53:27 | 02:47:05 | 00:00:00 | |
| BIOWL1-15 | 2026-09-04 12:54:47 | 52.76375 | 12.66262 | 94° | 148km/h | 5544m | -7.2m/s | -9.5°C | 77.1% | 512.2hPa | 2.5V | 02:53:27 | 02:47:04 | 00:00:00 | |
| DF8AY | 2026-09-04 12:54:43 | 52.76383 | 12.66077 | 94° | 148km/h | 5565m | -7.8m/s | -9.6°C | 80.8% | 510.9hPa | 2.7V | 02:53:27 | 02:47:01 | 00:00:00 | |
| DB0DAN | 2026-09-04 12:54:40 | 52.76391 | 12.65893 | 94° | 141km/h | 5587m | -7.6m/s | -9.5°C | 79.2% | 509.38hPa | 2.5V | 00:00:00 | 00:00:00 | 00:00:00 | |
| DL1XH1-15 | 2026-09-04 12:54:40 | 52.76394 | 12.65831 | 93° | 148km/h | 5594m | -7.5m/s | -9.4°C | 82.1% | 508.9hPa | 2.5V | 02:53:06 | 02:46:57 | 00:00:00 | |
| AA1-15 | 2026-09-04 12:54:37 | 52.76398 | 12.65707 | 93° | 148km/h | 5609m | -7.4m/s | -9.3°C | 85.1% | 508hPa | 2.7V | 02:53:27 | 02:46:55 | 00:00:00 | |
| DL1XH-west | 2026-09-04 12:54:37 | 52.76399 | 12.65645 | 92° | 150km/h | 5616m | -7.4m/s | -9.4°C | 85% | 507.5hPa | 2.6V | 02:53:27 | 02:46:54 | 00:00:00 | |
| BIOWL1-15 | 2026-09-04 12:54:35 | 52.76405 | 12.65460 | 93° | 148km/h | 5638m | -7.3m/s | -9.5°C | 84% | 506.1hPa | 2.5V | 02:53:27 | 02:46:51 | 00:00:00 | |
| EDDB2-12 | 2026-09-04 12:54:35 | 52.76405 | 12.65460 | 92° | 148km/h | 5638m | -7.3m/s | -9.5°C | 79.0% | 506.1hPa | 2.6V | 00:00:00 | 00:00:00 | 00:00:00 | |
| DM0DOS-11 | 2026-09-04 12:54:33 | 52.76412 | 12.65214 | 92° | 148km/h | 5667m | -7.2m/s | -9.7°C | 83.4% | 504.2hPa | 2.6V | 02:53:16 | 02:46:47 | 00:00:00 | |
| DF8AY | 2026-09-04 12:54:32 | 52.76407 | 12.65399 | 93° | 148km/h | 5645m | -7.4m/s | -9.5°C | 84.1% | 505.6hPa | 2.7V | 02:53:27 | 02:46:50 | 00:00:00 | |
| AA1-15 | 2026-09-04 12:54:27 | 52.76416 | 12.65091 | 93° | 150km/h | 5681m | -8.2m/s | -9.8°C | 86.3% | 503.2hPa | 2.5V | 02:53:27 | 02:46:45 | 00:00:00 | |
| DL1XH-west | 2026-09-04 12:54:26 | 52.76417 | 12.65029 | 93° | 148km/h | 5689m | -7.8m/s | -9.8°C | 87.4% | 502.6hPa | 2.5V | 02:53:27 | 02:46:44 | 00:00:00 | |
| DB0DAN | 2026-09-04 12:54:25 | 52.76419 | 12.64968 | 93° | 141km/h | 5696m | -7.7m/s | -9.9°C | 82% | 502.1hPa | 2.7V | 00:00:00 | 00:00:00 | 00:00:00 | |
| DF8AY | 2026-09-04 12:54:22 | 52.76429 | 12.64724 | 94° | 148km/h | 5727m | -8.2m/s | -10.1°C | 89.7% | 500.2hPa | 2.6V | 02:53:27 | 02:46:39 | 00:00:00 | |
| DL1XH1-15 | 2026-09-04 12:54:20 | 52.76434 | 12.64600 | 93° | 150km/h | 5742m | -7.7m/s | -10.2°C | 87.9% | 499.3hPa | 2.5V | 02:53:26 | 02:46:37 | 00:00:00 | |
| AA1-15 | 2026-09-04 12:54:16 | 52.76443 | 12.64414 | 95° | 150km/h | 5765m | -7.6m/s | -10.4°C | 92.1% | 497.8hPa | 2.6V | 02:54:18 | 02:46:34 | 00:00:00 | |
| DL1XH-west | 2026-09-04 12:54:16 | 52.76446 | 12.64351 | 95° | 150km/h | 5772m | -7.7m/s | -10.4°C | 92.4% | 497.2hPa | 2.6V | 02:54:18 | 02:46:33 | 00:00:00 | |
| BIOWL1-15 | 2026-09-04 12:54:12 | 52.76460 | 12.64047 | 94° | 144km/h | 5809m | -7.8m/s | -10.4°C | 91.3% | 494.9hPa | 2.6V | 02:54:18 | 02:46:28 | 00:00:00 | |
| DF8AY | 2026-09-04 12:54:11 | 52.76457 | 12.64108 | 94° | 144km/h | 5801m | -8m/s | -10.4°C | 91% | 495.4hPa | 2.6V | 02:54:18 | 02:46:29 | 00:00:00 | |
| DB0DAN | 2026-09-04 12:54:10 | 52.76460 | 12.64047 | 94° | 139km/h | 5809m | -7.8m/s | -10.4°C | 86% | 494.92hPa | 2.6V | 00:00:00 | 00:00:00 | 00:00:00 | |
| DL1XH1-15 | 2026-09-04 12:54:10 | 52.76463 | 12.63987 | 94° | 144km/h | 5816m | -7.5m/s | -10.5°C | 88.9% | 494.5hPa | 2.6V | 02:53:36 | 02:46:27 | 00:00:00 | |
| AA1-15 | 2026-09-04 12:54:06 | 52.76471 | 12.63806 | 94° | 148km/h | 5838m | -8.3m/s | -10.6°C | 90.8% | 493hPa | 2.5V | 02:54:18 | 02:46:24 | 00:00:00 | |
| DL1XH-west | 2026-09-04 12:54:04 | 52.76477 | 12.63683 | 94° | 148km/h | 5853m | -7.6m/s | -10.7°C | 91.4% | 492hPa | 2.6V | 02:54:18 | 02:46:22 | 00:00:00 | |
| DF8AY | 2026-09-04 12:54:01 | 52.76484 | 12.63502 | 93° | 144km/h | 5876m | -8.1m/s | -10.9°C | 91.3% | 490.6hPa | 2.5V | 02:54:18 | 02:46:19 | 00:00:00 | |
| BIOWL1-15 | 2026-09-04 12:53:59 | 52.76488 | 12.63382 | 93° | 142km/h | 5891m | -7.8m/s | -10.9°C | 90.9% | 489.5hPa | 2.6V | 02:54:18 | 02:46:17 | 00:00:00 | |
| AA1-15 | 2026-09-04 12:53:56 | 52.76494 | 12.63205 | 93° | 142km/h | 5913m | -8m/s | -11.1°C | 90.2% | 488.1hPa | 2.6V | 02:54:18 | 02:46:14 | 00:00:00 | |
| DB0DAN | 2026-09-04 12:53:55 | 52.76496 | 12.63146 | 94° | 135km/h | 5921m | -7.9m/s | -11.2°C | 87.1% | 487.66hPa | 2.5V | 00:00:00 | 00:00:00 | 00:00:00 | |
| DL1XH-west | 2026-09-04 12:53:54 | 52.76499 | 12.63087 | 94° | 142km/h | 5929m | -7.9m/s | -11.2°C | 90.7% | 487.2hPa | 2.5V | 02:54:18 | 02:46:12 | 00:00:00 | |
| DF8AY | 2026-09-04 12:53:51 | 52.76506 | 12.62912 | 94° | 139km/h | 5951m | -7.8m/s | -11.4°C | 91.9% | 485.8hPa | 2.6V | 02:54:18 | 02:46:09 | 00:00:00 | |
| DL1XH1-15 | 2026-09-04 12:53:51 | 52.76511 | 12.62797 | 93° | 137km/h | 5966m | -7.5m/s | -11.5°C | 90.4% | 484.9hPa | 2.6V | 02:53:56 | 02:46:07 | 00:00:00 | |
| BIOWL1-15 | 2026-09-04 12:53:48 | 52.76513 | 12.62740 | 94° | 137km/h | 5974m | -9.1m/s | -11.6°C | 92.2% | 484.4hPa | 2.5V | 02:54:18 | 02:46:06 | 00:00:00 | |
| AA1-15 | 2026-09-04 12:53:45 | 52.76520 | 12.62570 | 95° | 137km/h | 5998m | -7.3m/s | -11.7°C | 91.6% | 482.9hPa | 2.6V | 02:54:18 | 02:46:03 | 00:00:00 | |
| DL1XH-west | 2026-09-04 12:53:43 | 52.76526 | 12.62455 | 95° | 139km/h | 6013m | -8.1m/s | -11.6°C | 89.4% | 482hPa | 2.6V | 02:54:18 | 02:46:01 | 00:00:00 | |
| DF8AY | 2026-09-04 12:53:41 | 52.76532 | 12.62340 | 94° | 139km/h | 6028m | -7.9m/s | -11.6°C | 88.4% | 480.9hPa | 2.5V | 02:54:18 | 02:45:59 | 00:00:00 | |
| DL1XH1-15 | 2026-09-04 12:53:41 | 52.76537 | 12.62225 | 93° | 139km/h | 6044m | -8.1m/s | -11.6°C | 85.3% | 480hPa | 2.6V | 02:54:06 | 02:45:57 | 00:00:00 | |
| DB0DAN | 2026-09-04 12:53:40 | 52.76534 | 12.62283 | 94° | 133km/h | 6036m | -8.1m/s | -11.6°C | 82.7% | 480.48hPa | 2.6V | 00:00:00 | 00:00:00 | 00:00:00 | |
| BIOWL1-15 | 2026-09-04 12:53:38 | 52.76542 | 12.62111 | 94° | 137km/h | 6059m | -7.9m/s | -11.7°C | 88.4% | 478.9hPa | 2.6V | 02:54:18 | 02:45:55 | 00:00:00 | |
| AA1-15 | 2026-09-04 12:53:34 | 52.76549 | 12.61940 | 95° | 137km/h | 6082m | -7.9m/s | -11.8°C | 88.9% | 477.6hPa | 2.6V | 02:54:18 | 02:45:52 | 00:00:00 | |
| DL1XH-west | 2026-09-04 12:53:32 | 52.76556 | 12.61827 | 96° | 135km/h | 6097m | -8.1m/s | -11.9°C | 89% | 476.6hPa | 2.6V | 02:54:18 | 02:45:50 | 00:00:00 | |
| EDDB2-12 | 2026-09-04 12:53:32 | 52.76559 | 12.61771 | 95° | 135km/h | 6105m | -7.6m/s | -11.9°C | 83.7% | 476.2hPa | 2.5V | 00:00:00 | 00:00:00 | 00:00:00 | |
| DL1XH1-15 | 2026-09-04 12:53:30 | 52.76569 | 12.61602 | 94° | 135km/h | 6127m | -8m/s | -12.1°C | 87.1% | 474.8hPa | 2.5V | 02:54:17 | 02:45:46 | 00:00:00 | |
| DF8AY | 2026-09-04 12:53:30 | 52.76574 | 12.61488 | 95° | 137km/h | 6143m | -8.6m/s | -12.2°C | 89.7% | 473.7hPa | 2.6V | 02:55:09 | 02:45:44 | 00:00:00 | |
| DM0DOS-11 | 2026-09-04 12:53:29 | 52.76580 | 12.61374 | 94° | 137km/h | 6158m | -7.6m/s | -12.3°C | 87.8% | 472.8hPa | 2.6V | 02:54:21 | 02:45:42 | 00:00:00 | |
| DO2SHX-10 | 2026-09-04 12:53:29 | 52.76566 | 12.61658 | 96° | 135km/h | 6120m | -7.9m/s | -12.0°C | 87.0% | 475.1hPa | 2.6V | 00:00:00 | 02:45:47 | 00:00:00 | |
| AM1SDL-15 | 2026-09-04 12:53:28 | 52.76569 | 12.61602 | 95° | 137km/h | 6127m | -7.9m/s | -12.1°C | 87.1% | 474.7hPa | 2.6V | 00:00:00 | 02:45:46 | 00:00:00 | |
| DL2RXE-15 | 2026-09-04 12:53:27 | 52.76571 | 12.61545 | 96° | 137km/h | 6135m | -7.8m/s | -12.2°C | 84.6% | 474.2hPa | 2.6V | 02:54:00 | 00:00:00 | 00:00:00 | |
| DB0DAN | 2026-09-04 12:53:25 | 52.76577 | 12.61431 | 95° | 130km/h | 6151m | -8.1m/s | -12.3°C | 85% | 473.29hPa | 2.6V | 00:00:00 | 00:00:00 | 00:00:00 | |
| AA1-15 | 2026-09-04 12:53:24 | 52.76580 | 12.61374 | 94° | 137km/h | 6158m | -7.6m/s | -12.3°C | 90.2% | 472.8hPa | 2.6V | 02:55:09 | 02:45:42 | 00:00:00 | |
| DL1XH-west | 2026-09-04 12:53:22 | 52.76585 | 12.61260 | 94° | 139km/h | 6173m | -7.8m/s | -12.4°C | 90.2% | 471.8hPa | 2.5V | 02:55:09 | 02:45:40 | 00:00:00 | |
| DF8AY | 2026-09-04 12:53:21 | 52.76589 | 12.61145 | 93° | 139km/h | 6189m | -8.1m/s | -12.5°C | 89.5% | 470.9hPa | 2.6V | 02:55:09 | 02:45:38 | 00:00:00 | |
| DL1XH1-15 | 2026-09-04 12:53:20 | 52.76593 | 12.61029 | 93° | 139km/h | 6205m | -8.7m/s | -12.6°C | 86.6% | 469.9hPa | 2.6V | 02:54:27 | 02:45:36 | 00:00:00 | |
| DO2SHX-10 | 2026-09-04 12:53:20 | 52.76589 | 12.61145 | 94° | 139km/h | 6189m | -8.0m/s | -12.5°C | 86.7% | 470.8hPa | 2.6V | 00:00:00 | 02:45:38 | 00:00:00 | |
| DF8AY-15 | 2026-09-04 12:53:19 | 52.76591 | 12.61087 | 94° | 135km/h | 6197m | -8.4m/s | -12.5°C | 86.7% | 470.4hPa | 2.6V | 02:54:00 | 02:45:37 | 00:00:00 | |
| DM0DOS-11 | 2026-09-04 12:53:14 | 52.76604 | 12.60801 | 94° | 135km/h | 6236m | -8m/s | -12.8°C | 86.7% | 468.1hPa | 2.6V | 02:54:31 | 02:45:32 | 00:00:00 | |
| BIOWL1-15 | 2026-09-04 12:53:14 | 52.76604 | 12.60801 | 95° | 135km/h | 6236m | -8m/s | -12.8°C | 89.2% | 468.1hPa | 2.6V | 02:55:09 | 02:45:32 | 00:00:00 | |
| DO2SHX-10 | 2026-09-04 12:53:14 | 52.76604 | 12.60801 | 95° | 135km/h | 6236m | -8.0m/s | -12.7°C | 86.7% | 468.0hPa | 2.6V | 00:00:00 | 02:45:32 | 00:00:00 | |
| DO2SHX-10 | 2026-09-04 12:53:11 | 52.76612 | 12.60634 | 95° | 133km/h | 6260m | -8.5m/s | -12.9°C | 87.0% | 466.6hPa | 2.6V | 00:00:00 | 02:45:29 | 00:00:00 | |
| DL1XH-west | 2026-09-04 12:53:11 | 52.76612 | 12.60634 | 94° | 133km/h | 6260m | -8.5m/s | -12.9°C | 89.3% | 466.6hPa | 2.5V | 02:55:09 | 02:45:29 | 00:00:00 | |
| DL1XH1-15 | 2026-09-04 12:53:10 | 52.76619 | 12.60467 | 93° | 133km/h | 6283m | -8.3m/s | -13.1°C | 87.6% | 465.2hPa | 2.6V | 02:54:37 | 02:45:26 | 00:00:00 | |
| DB0DAN | 2026-09-04 12:53:10 | 52.76615 | 12.60579 | 94° | 128km/h | 6268m | -8.2m/s | -13°C | 84% | 466.13hPa | 2.5V | 00:00:00 | 00:00:00 | 00:00:00 | |
| DF8AY | 2026-09-04 12:53:09 | 52.76617 | 12.60523 | 94° | 133km/h | 6276m | -7.8m/s | -13°C | 89.6% | 465.7hPa | 2.6V | 02:55:09 | 02:45:27 | 00:00:00 | |
| BIOWL1-15 | 2026-09-04 12:53:03 | 52.76629 | 12.60186 | 94° | 137km/h | 6322m | -8.3m/s | -13.3°C | 89.3% | 462.9hPa | 2.6V | 02:55:09 | 02:45:21 | 00:00:00 | |
| DL1XH-west | 2026-09-04 12:53:00 | 52.76637 | 12.60017 | 94° | 135km/h | 6345m | -7.7m/s | -13.5°C | 89.6% | 461.4hPa | 2.6V | 02:55:09 | 02:45:18 | 00:00:00 | |
| DL1XH1-15 | 2026-09-04 12:53:00 | 52.76641 | 12.59904 | 93° | 135km/h | 6361m | -7.4m/s | -13.6°C | 87.3% | 460.5hPa | 2.5V | 02:54:47 | 02:45:16 | 00:00:00 | |
| DF8AY | 2026-09-04 12:52:59 | 52.76639 | 12.59961 | 94° | 135km/h | 6354m | -8.3m/s | -13.5°C | 89.4% | 461.1hPa | 2.5V | 02:55:09 | 02:45:17 | 00:00:00 | |
| DM0DOS-11 | 2026-09-04 12:52:59 | 52.76651 | 12.59679 | 93° | 135km/h | 6391m | -7.7m/s | -13.8°C | 86.7% | 458.7hPa | 2.6V | 02:54:51 | 02:45:12 | 00:00:00 | |
| DO2SHX-10 | 2026-09-04 12:52:59 | 52.76639 | 12.59960 | 95° | 135km/h | 6354m | -8.3m/s | -13.5°C | 87.5% | 461.0hPa | 2.5V | 02:54:00 | 02:45:17 | 00:00:00 | |
| DB0DAN | 2026-09-04 12:52:55 | 52.76648 | 12.59735 | 94° | 128km/h | 6384m | -7.9m/s | -13.7°C | 84.4% | 459.12hPa | 2.6V | 00:00:00 | 00:00:00 | 00:00:00 | |
| BIOWL1-15 | 2026-09-04 12:52:54 | 52.76671 | 12.59232 | 95° | 135km/h | 6451m | -7.2m/s | -14.1°C | 88.2% | 455.1hPa | 2.5V | 02:55:09 | 02:45:04 | 00:00:00 | |
| AA1-15 | 2026-09-04 12:52:53 | 52.76652 | 12.59623 | 93° | 135km/h | 6399m | -7.4m/s | -13.8°C | 87.7% | 458.2hPa | 2.5V | 02:55:09 | 02:45:11 | 00:00:00 | |
| DL1XH-west | 2026-09-04 12:52:50 | 52.76660 | 12.59455 | 94° | 133km/h | 6422m | -8.2m/s | -13.9°C | 87.8% | 456.9hPa | 2.6V | 02:55:09 | 02:45:08 | 00:00:00 | |
| DL1XH1-15 | 2026-09-04 12:52:50 | 52.76665 | 12.59344 | 94° | 135km/h | 6436m | -7.8m/s | -14°C | 86.3% | 455.9hPa | 2.6V | 02:54:57 | 02:45:06 | 00:00:00 | |
| DF8AY | 2026-09-04 12:52:48 | 52.76665 | 12.59344 | 95° | 135km/h | 6436m | -7.8m/s | -14°C | 87.8% | 455.9hPa | 2.6V | 02:55:09 | 02:45:06 | 00:00:00 | |
| AA1-15 | 2026-09-04 12:52:43 | 52.76679 | 12.59063 | 94° | 135km/h | 6473m | -7.8m/s | -14.2°C | 89.3% | 453.8hPa | 2.6V | 02:55:09 | 02:45:01 | 00:00:00 | |
| BIOWL1-15 | 2026-09-04 12:52:43 | 52.76684 | 12.58951 | 94° | 133km/h | 6488m | -8.2m/s | -14.3°C | 90.1% | 452.9hPa | 2.5V | 02:55:09 | 02:44:59 | 00:00:00 | |
| DH5RUM-10 | 2026-09-04 12:52:41 | 52.76682 | 12.59007 | 95° | 135km/h | 6481m | -7.8m/s | -14.3°C | 85.3% | 453.3hPa | 2.5V | 02:55:00 | 00:00:00 | 00:00:00 | |
| DB0DAN | 2026-09-04 12:52:40 | 52.76686 | 12.58896 | 93° | 126km/h | 6496m | -7.4m/s | -14.4°C | 85.5% | 452.41hPa | 2.5V | 00:00:00 | 00:00:00 | 00:00:00 | |
| DL1XH-west | 2026-09-04 12:52:39 | 52.76688 | 12.58840 | 93° | 133km/h | 6503m | -7.7m/s | -14.4°C | 90.8% | 452hPa | 2.6V | 02:55:09 | 02:44:57 | 00:00:00 | |
| DF8AY | 2026-09-04 12:52:37 | 52.76691 | 12.58730 | 94° | 130km/h | 6518m | -7.4m/s | -14.6°C | 90.5% | 451.1hPa | 2.6V | 02:55:09 | 02:44:55 | 00:00:00 | |
| AA1-15 | 2026-09-04 12:52:33 | 52.76700 | 12.58511 | 94° | 133km/h | 6548m | -7.7m/s | -14.8°C | 91.4% | 449.3hPa | 2.6V | 02:56:00 | 02:44:51 | 00:00:00 | |
| BIOWL1-15 | 2026-09-04 12:52:33 | 52.76714 | 12.58234 | 95° | 131km/h | 6586m | -7.8m/s | -15.1°C | 92.1% | 447.1hPa | 2.6V | 02:56:00 | 02:44:46 | 00:00:00 | |
| DL1XH-west | 2026-09-04 12:52:29 | 52.76711 | 12.58289 | 95° | 133km/h | 6579m | -8.1m/s | -15.1°C | 92.1% | 447.6hPa | 2.5V | 02:56:00 | 02:44:47 | 00:00:00 | |
| DF8AY | 2026-09-04 12:52:26 | 52.76719 | 12.58124 | 94° | 133km/h | 6601m | -7m/s | -15.3°C | 93.4% | 446.2hPa | 2.6V | 02:56:00 | 02:44:44 | 00:00:00 | |
| DB0DAN | 2026-09-04 12:52:25 | 52.76722 | 12.58068 | 94° | 128km/h | 6608m | -7.2m/s | -15.3°C | 89.5% | 445.73hPa | 2.6V | 00:00:00 | 00:00:00 | 00:00:00 | |
| AA1-15 | 2026-09-04 12:52:22 | 52.76728 | 12.57901 | 93° | 133km/h | 6630m | -7.9m/s | -15.5°C | 93.2% | 444.4hPa | 2.6V | 02:56:00 | 02:44:40 | 00:00:00 | |
| DL1XH1-15 | 2026-09-04 12:52:20 | 52.76737 | 12.57678 | 93° | 135km/h | 6661m | -9m/s | -15.7°C | 92.2% | 442.7hPa | 2.5V | 02:55:27 | 02:44:36 | 00:00:00 | |
| BIOWL1-15 | 2026-09-04 12:52:20 | 52.76733 | 12.57790 | 94° | 133km/h | 6645m | -7.7m/s | -15.6°C | 93.2% | 443.5hPa | 2.6V | 02:56:00 | 02:44:38 | 00:00:00 | |
| DL1XH-west | 2026-09-04 12:52:19 | 52.76737 | 12.57678 | 94° | 135km/h | 6661m | -9m/s | -15.7°C | 93.2% | 442.7hPa | 2.5V | 02:56:00 | 02:44:36 | 00:00:00 | |
| DF8AY | 2026-09-04 12:52:15 | 52.76757 | 12.57230 | 94° | 135km/h | 6721m | -7.6m/s | -16.3°C | 94.9% | 439.1hPa | 2.6V | 02:56:00 | 02:44:28 | 00:00:00 | |
| AA1-15 | 2026-09-04 12:52:12 | 52.76752 | 12.57341 | 94° | 135km/h | 6706m | -7.1m/s | -16.1°C | 93.6% | 440hPa | 2.5V | 02:56:00 | 02:44:30 | 00:00:00 | |
| DO2SHX-10 | 2026-09-04 12:52:11 | 52.76754 | 12.57285 | 95° | 135km/h | 6714m | -7.6m/s | -16.1°C | 94.8% | 439.6hPa | 2.6V | 00:00:00 | 02:44:29 | 00:00:00 | |
| DL1XH1-15 | 2026-09-04 12:52:10 | 52.76762 | 12.57118 | 93° | 135km/h | 6736m | -7.8m/s | -16.4°C | 96.2% | 438.3hPa | 2.6V | 02:55:37 | 02:44:26 | 00:00:00 | |
| DB0DAN | 2026-09-04 12:52:10 | 52.76757 | 12.57230 | 94° | 128km/h | 6721m | -7.6m/s | -16.3°C | 92.1% | 439.14hPa | 2.6V | 00:00:00 | 00:00:00 | 00:00:00 | |
| BIOWL1-15 | 2026-09-04 12:52:09 | 52.76759 | 12.57174 | 94° | 135km/h | 6728m | -7.6m/s | -16.3°C | 95.6% | 438.8hPa | 2.6V | 02:56:00 | 02:44:27 | 00:00:00 | |
| DL1XH-west | 2026-09-04 12:52:08 | 52.76762 | 12.57118 | 94° | 135km/h | 6736m | -7.8m/s | -16.4°C | 95.9% | 438.3hPa | 2.6V | 02:56:00 | 02:44:26 | 00:00:00 | |
| DF8AY | 2026-09-04 12:52:05 | 52.76768 | 12.56948 | 94° | 137km/h | 6759m | -8.2m/s | -16.6°C | 96.9% | 437hPa | 2.6V | 02:56:00 | 02:44:23 | 00:00:00 | |
| BIOWL1-15 | 2026-09-04 12:52:01 | 52.76785 | 12.56610 | 96° | 135km/h | 6809m | -7.5m/s | -16.9°C | 95.6% | 434hPa | 2.6V | 02:56:00 | 02:44:17 | 00:00:00 | |
| AA1-15 | 2026-09-04 12:52:01 | 52.76778 | 12.56722 | 95° | 135km/h | 6792m | -8.5m/s | -16.8°C | 96.1% | 435.1hPa | 2.5V | 02:56:00 | 02:44:19 | 00:00:00 | |
| DL1XH1-15 | 2026-09-04 12:52:00 | 52.76788 | 12.56554 | 95° | 135km/h | 6817m | -7.7m/s | -16.9°C | 97.2% | 433.6hPa | 2.6V | 02:55:47 | 02:44:16 | 00:00:00 | |
| DM0DOS-11 | 2026-09-04 12:51:59 | 52.76800 | 12.56331 | 94° | 133km/h | 6846m | -7.7m/s | -17.2°C | 98.2% | 431.9hPa | 2.5V | 02:55:51 | 02:44:12 | 00:00:00 | |
| DL1XH-west | 2026-09-04 12:51:58 | 52.76788 | 12.56554 | 95° | 135km/h | 6817m | -7.7m/s | -16.9°C | 96.6% | 433.6hPa | 2.6V | 02:56:00 | 02:44:16 | 00:00:00 | |
| S3001 | 2026-09-04 12:51:57 | 52.76794 | 12.56442 | 94° | 135km/h | 6832m | -7.7m/s | -17.1°C | 93.7% | 432.7hPa | 2.5V | 00:00:00 | 00:00:00 | 00:00:00 | |
| DB0DAN | 2026-09-04 12:51:55 | 52.76797 | 12.56386 | 94° | 126km/h | 6839m | -7.5m/s | -17.1°C | 94.2% | 432.3hPa | 2.5V | 00:00:00 | 00:00:00 | 00:00:00 | |
| DL1XH-15 | 2026-09-04 12:51:55 | 52.76813 | 12.56113 | 96° | 131km/h | 6877m | -8.3m/s | -17.4°C | 98.7% | 430.1hPa | 2.5V | 02:55:55 | 02:44:08 | 00:00:00 | |
| DF8AY | 2026-09-04 12:51:54 | 52.76800 | 12.56331 | 95° | 133km/h | 6846m | -7.7m/s | -17.2°C | 97.5% | 431.9hPa | 2.5V | 02:56:00 | 02:44:12 | 00:00:00 | |
| AA1-15 | 2026-09-04 12:51:50 | 52.76813 | 12.56113 | 96° | 131km/h | 6877m | -8.3m/s | -17.4°C | 97.7% | 430.1hPa | 2.5V | 02:56:00 | 02:44:08 | 00:00:00 | |
| DF8AY | 2026-09-04 12:51:49 | 52.76840 | 12.55730 | 96° | 135km/h | 6929m | -8.1m/s | -17.8°C | 97.3% | 427.1hPa | 2.5V | 02:56:51 | 02:44:01 | 00:00:00 | |
| DM0DOS-11 | 2026-09-04 12:51:49 | 52.76836 | 12.55786 | 95° | 133km/h | 6921m | -7.9m/s | -17.7°C | 99.2% | 427.5hPa | 2.5V | 02:56:01 | 02:44:02 | 00:00:00 | |
| BIOWL1-15 | 2026-09-04 12:51:48 | 52.76821 | 12.56005 | 97° | 131km/h | 6892m | -7.5m/s | -17.5°C | 97.6% | 429.2hPa | 2.6V | 02:56:00 | 02:44:06 | 00:00:00 | |
| DL1XH-west | 2026-09-04 12:51:48 | 52.76824 | 12.55951 | 97° | 131km/h | 6899m | -7.4m/s | -17.5°C | 97.3% | 428.8hPa | 2.6V | 02:56:00 | 02:44:05 | 00:00:00 | |
| DO2SHX-10 | 2026-09-04 12:51:47 | 52.76824 | 12.55951 | 97° | 133km/h | 6899m | -7.4m/s | -17.5°C | 98.5% | 428.7hPa | 2.6V | 02:55:00 | 02:44:05 | 00:00:00 | |
| DF8AY-15 | 2026-09-04 12:51:46 | 52.76828 | 12.55896 | 97° | 133km/h | 6906m | -7.2m/s | -17.5°C | 99.7% | 428.4hPa | 2.6V | 02:55:00 | 02:44:04 | 00:00:00 | |
| DO2SHX-10 | 2026-09-04 12:51:44 | 52.76836 | 12.55786 | 96° | 135km/h | 6922m | -7.9m/s | -17.6°C | 99.2% | 427.5hPa | 2.5V | 00:00:00 | 02:44:02 | 00:00:00 | |
| DL1XH1-15 | 2026-09-04 12:51:43 | 52.76858 | 12.55451 | 96° | 135km/h | 6967m | -7.7m/s | -18°C | 99.9% | 425hPa | 2.5V | 02:56:07 | 02:43:56 | 00:00:00 | |
| DB0DAN | 2026-09-04 12:51:40 | 52.76850 | 12.55562 | 96° | 128km/h | 6952m | -7.5m/s | -17.9°C | 96.7% | 425.79hPa | 2.6V | 00:00:00 | 00:00:00 | 00:00:00 | |
| BIOWL1-15 | 2026-09-04 12:51:39 | 52.76876 | 12.55175 | 97° | 133km/h | 7006m | -7.5m/s | -18.4°C | 99.3% | 422.8hPa | 2.5V | 02:56:51 | 02:43:51 | 00:00:00 | |
| AA1-15 | 2026-09-04 12:51:39 | 52.76854 | 12.55506 | 96° | 133km/h | 6960m | -7.9m/s | -18°C | 98.9% | 425.3hPa | 2.5V | 02:56:51 | 02:43:57 | 00:00:00 | |
| DL1XH-west | 2026-09-04 12:51:37 | 52.76865 | 12.55340 | 96° | 133km/h | 6983m | -8.2m/s | -18.2°C | 99% | 424.1hPa | 2.6V | 02:56:51 | 02:43:54 | 00:00:00 | |
| DF8AY | 2026-09-04 12:51:32 | 52.76880 | 12.55120 | 97° | 133km/h | 7014m | -8.1m/s | -18.4°C | 99.2% | 422.4hPa | 2.5V | 02:56:51 | 02:43:50 | 00:00:00 | |
| SONDE2-11 | 2026-09-04 12:51:32 | 52.76885 | 12.55064 | 97° | 133km/h | 7022m | -7.7m/s | -18.5°C | 96.3% | 422.0hPa | 2.5V | 00:00:00 | 00:00:00 | 00:00:00 | |
| DL1XH1-15 | 2026-09-04 12:51:30 | 52.76899 | 12.54898 | 97° | 133km/h | 7045m | -8.3m/s | -18.6°C | 99.5% | 420.6hPa | 2.5V | 02:56:17 | 02:43:46 | 00:00:00 | |
| AA1-15 | 2026-09-04 12:51:29 | 52.76894 | 12.54953 | 98° | 133km/h | 7037m | -7.7m/s | -18.6°C | 98% | 421.1hPa | 2.6V | 02:56:51 | 02:43:47 | 00:00:00 | |
| DL1XH-west | 2026-09-04 12:51:26 | 52.76908 | 12.54789 | 98° | 131km/h | 7060m | -8m/s | -18.8°C | 99.2% | 419.8hPa | 2.6V | 02:56:51 | 02:43:44 | 00:00:00 | |
| DB0DAN | 2026-09-04 12:51:25 | 52.76913 | 12.54734 | 98° | 126km/h | 7068m | -8.5m/s | -18.8°C | 96.3% | 419.36hPa | 2.6V | 00:00:00 | 00:00:00 | 00:00:00 | |
| BIOWL1-15 | 2026-09-04 12:51:25 | 52.76913 | 12.54734 | 98° | 131km/h | 7068m | -8.5m/s | -18.8°C | 99.6% | 419.4hPa | 2.6V | 02:56:51 | 02:43:43 | 00:00:00 | |
| AM1SDL-15 | 2026-09-04 12:51:24 | 52.76918 | 12.54680 | 99° | 135km/h | 7076m | -8.1m/s | -18.8°C | 0% | 418.8hPa | 2.6V | 00:00:00 | 02:43:42 | 00:00:00 | |
| DL1XH1-15 | 2026-09-04 12:51:23 | 52.76947 | 12.54346 | 98° | 135km/h | 7123m | -7.2m/s | -19.2°C | 99.8% | 416.2hPa | 2.6V | 02:56:27 | 02:43:36 | 00:00:00 | |
| DF8AY | 2026-09-04 12:51:21 | 52.76933 | 12.54514 | 98° | 135km/h | 7101m | -7.8m/s | -19°C | 97.7% | 417.4hPa | 2.5V | 02:56:51 | 02:43:39 | 00:00:00 | |
| AA1-15 | 2026-09-04 12:51:18 | 52.76948 | 12.54346 | 99° | 135km/h | 7124m | -7.2m/s | -19.2°C | 96.2% | 416.2hPa | 2.6V | 02:56:51 | 02:43:36 | 00:00:00 | |
| DO2SHX-10 | 2026-09-04 12:51:17 | 52.76953 | 12.54290 | 99° | 135km/h | 7131m | -7.3m/s | -19.2°C | 0% | 415.6hPa | 2.6V | 00:00:00 | 02:43:35 | 00:00:00 | |
| DM0DOS-11 | 2026-09-04 12:51:16 | 52.76967 | 12.54123 | 98° | 135km/h | 7153m | -7.7m/s | -19.4°C | 0% | 414.6hPa | 2.6V | 02:56:31 | 02:43:32 | 00:00:00 | |
| DL1XH-west | 2026-09-04 12:51:15 | 52.76962 | 12.54179 | 98° | 135km/h | 7145m | -8m/s | -19.4°C | 98.6% | 414.9hPa | 2.6V | 02:56:51 | 02:43:33 | 00:00:00 | |
| BIOWL1-15 | 2026-09-04 12:51:15 | 52.76987 | 12.53900 | 98° | 135km/h | 7187m | -9.8m/s | -19.7°C | 100% | 412.6hPa | 2.6V | 02:56:51 | 02:43:28 | 00:00:00 | |
| DO2SHX-10 | 2026-09-04 12:51:14 | 52.76967 | 12.54123 | 99° | 135km/h | 7153m | -7.6m/s | -19.4°C | 0% | 414.5hPa | 2.6V | 00:00:00 | 02:43:32 | 00:00:00 | |
| DL1XH1-15 | 2026-09-04 12:51:13 | 52.76997 | 12.53788 | 98° | 137km/h | 7206m | -9.4m/s | -19.9°C | 0% | 411.7hPa | 2.6V | 02:56:37 | 02:43:26 | 00:00:00 | |
| DF8AY | 2026-09-04 12:51:11 | 52.76982 | 12.53956 | 98° | 135km/h | 7178m | -9m/s | -19.7°C | 100% | 413.2hPa | 2.5V | 02:56:51 | 02:43:29 | 00:00:00 | |
| DB0DAN | 2026-09-04 12:51:10 | 52.76987 | 12.53900 | 98° | 128km/h | 7187m | -9.8m/s | -19.7°C | 99% | 412.61hPa | 2.6V | 00:00:00 | 00:00:00 | 00:00:00 | |
| AA1-15 | 2026-09-04 12:51:08 | 52.76997 | 12.53788 | 98° | 137km/h | 7206m | -9.4m/s | -19.9°C | 100% | 411.7hPa | 2.6V | 02:56:51 | 02:43:26 | 00:00:00 | |
| DO2SHX-10 | 2026-09-04 12:51:08 | 52.76997 | 12.53788 | 99° | 137km/h | 7206m | -9.4m/s | -19.9°C | 0% | 411.6hPa | 2.6V | 00:00:00 | 02:43:26 | 00:00:00 | |
| DF8AY-15 | 2026-09-04 12:51:06 | 52.77007 | 12.53676 | 99° | 139km/h | 7226m | -9.2m/s | -20.1°C | 0% | 410.7hPa | 2.6V | 00:00:00 | 02:43:24 | 00:00:00 | |
| DL1XH-15 | 2026-09-04 12:51:05 | 52.77017 | 12.53563 | 98° | 135km/h | 7243m | -8.3m/s | -20.2°C | 0% | 409.5hPa | 2.6V | 02:56:41 | 02:43:22 | 00:00:00 | |
| DL1XH-west | 2026-09-04 12:51:05 | 52.77017 | 12.53563 | 98° | 135km/h | 7243m | -8.3m/s | -20.2°C | 99% | 409.5hPa | 2.6V | 02:56:51 | 02:43:22 | 00:00:00 | |
| BIOWL1-15 | 2026-09-04 12:51:01 | 52.77042 | 12.53281 | 98° | 139km/h | 7287m | -9.6m/s | -20.6°C | 100% | 407.1hPa | 2.5V | 02:56:51 | 02:43:17 | 00:00:00 | |
| DL1XH1-15 | 2026-09-04 12:51:00 | 52.77047 | 12.53224 | 98° | 139km/h | 7297m | -9.6m/s | -20.7°C | 0% | 406.5hPa | 2.5V | 02:56:47 | 02:43:16 | 00:00:00 | |
| DF8AY | 2026-09-04 12:51:00 | 52.77037 | 12.53338 | 98° | 137km/h | 7278m | -9.2m/s | -20.5°C | 100% | 407.6hPa | 2.5V | 02:56:51 | 02:43:18 | 00:00:00 | |
| AA1-15 | 2026-09-04 12:50:57 | 52.77052 | 12.53166 | 99° | 141km/h | 7306m | -9.1m/s | -20.7°C | 100% | 406.1hPa | 2.6V | 02:56:51 | 02:43:15 | 00:00:00 | |
| EDDB2-12 | 2026-09-04 12:50:57 | 52.77058 | 12.53109 | 99° | 139km/h | 7315m | -8.7m/s | -20.7°C | 98.7% | 405.6hPa | 2.6V | 00:00:00 | 00:00:00 | 00:00:00 | |
| DB0DAN | 2026-09-04 12:50:55 | 52.77063 | 12.53051 | 98° | 133km/h | 7323m | -8.9m/s | -20.8°C | 99.6% | 405.08hPa | 2.6V | 00:00:00 | 00:00:00 | 00:00:00 | |
| DL1XH-west | 2026-09-04 12:50:54 | 52.77068 | 12.52993 | 98° | 142km/h | 7333m | -9.8m/s | -21°C | 100% | 404.6hPa | 2.6V | 02:56:51 | 02:43:12 | 00:00:00 | |
| DF8AY | 2026-09-04 12:50:50 | 52.77089 | 12.52761 | 97° | 139km/h | 7373m | -10.1m/s | -20.9°C | 93.6% | 402.5hPa | 2.5V | 02:57:42 | 02:43:08 | 00:00:00 | |
| DL1XH1-15 | 2026-09-04 12:50:50 | 52.77098 | 12.52646 | 96° | 139km/h | 7392m | -9.4m/s | -21.1°C | 97.4% | 401.5hPa | 2.6V | 02:56:57 | 02:43:06 | 00:00:00 | |
| AA1-15 | 2026-09-04 12:50:47 | 52.77102 | 12.52588 | 97° | 139km/h | 7401m | -8.4m/s | -21.4°C | 99.5% | 400.9hPa | 2.6V | 02:57:42 | 02:43:05 | 00:00:00 | |
| DF8AY | 2026-09-04 12:50:44 | 52.77135 | 12.52126 | 97° | 142km/h | 7467m | -8.6m/s | -21.8°C | 93.8% | 397.3hPa | 2.5V | 02:57:42 | 02:42:57 | 00:00:00 | |
| DM0DOS-11 | 2026-09-04 12:50:44 | 52.77118 | 12.52360 | 96° | 139km/h | 7434m | -8.3m/s | -21.7°C | 0% | 399.1hPa | 2.6V | 02:57:02 | 02:43:01 | 00:00:00 | |
| DL1XH-west | 2026-09-04 12:50:44 | 52.77118 | 12.52360 | 97° | 139km/h | 7434m | -8.3m/s | -21.7°C | 95.7% | 399.1hPa | 2.6V | 02:57:42 | 02:43:01 | 00:00:00 | |
| DL1XH1-15 | 2026-09-04 12:50:43 | 52.77139 | 12.52067 | 96° | 142km/h | 7476m | -8.7m/s | -21.8°C | 95.8% | 396.8hPa | 2.6V | 02:57:07 | 02:42:56 | 00:00:00 | |
| BIOWL1-15 | 2026-09-04 12:50:40 | 52.77131 | 12.52185 | 97° | 142km/h | 7459m | -8m/s | -21.7°C | 93.5% | 397.7hPa | 2.5V | 02:57:42 | 02:42:58 | 00:00:00 | |
| DB0DAN | 2026-09-04 12:50:40 | 52.77131 | 12.52185 | 97° | 135km/h | 7459m | -8m/s | -21.7°C | 91.9% | 397.72hPa | 2.5V | 00:00:00 | 00:00:00 | 00:00:00 | |
| AA1-15 | 2026-09-04 12:50:37 | 52.77144 | 12.52008 | 97° | 144km/h | 7484m | -8.8m/s | -21.7°C | 89.2% | 396.3hPa | 2.6V | 02:57:42 | 02:42:55 | 00:00:00 | |
| DL1XH-15 | 2026-09-04 12:50:35 | 52.77164 | 12.51711 | 96° | 144km/h | 7525m | -8.5m/s | -21.5°C | 81.7% | 394.1hPa | 2.5V | 02:57:13 | 02:42:50 | 00:00:00 | |
| DL1XH-west | 2026-09-04 12:50:34 | 52.77160 | 12.51770 | 96° | 144km/h | 7517m | -7.7m/s | -21.5°C | 81.6% | 394.6hPa | 2.5V | 02:57:42 | 02:42:51 | 00:00:00 | |
| BIOWL9-15 | 2026-09-04 12:50:33 | 52.77164 | 12.51711 | 96° | 142km/h | 7525m | -8.5m/s | -21.5°C | 77.9% | 394.2hPa | 2.5V | 00:00:00 | 00:00:00 | 00:00:00 | |
| DO2SHX-10 | 2026-09-04 12:50:32 | 52.77164 | 12.51711 | 97° | 144km/h | 7525m | -8.4m/s | -21.5°C | 81.7% | 394.1hPa | 2.5V | 00:00:00 | 02:42:50 | 00:00:00 | |
| DL1XH1-15 | 2026-09-04 12:50:30 | 52.77185 | 12.51414 | 96° | 144km/h | 7565m | -7.5m/s | -21.8°C | 82.4% | 392.1hPa | 2.5V | 02:57:18 | 02:42:45 | 00:00:00 | |
| BIOWL1-15 | 2026-09-04 12:50:30 | 52.77172 | 12.51592 | 97° | 144km/h | 7541m | -7.7m/s | -21.7°C | 81.8% | 393.3hPa | 2.6V | 02:57:42 | 02:42:48 | 00:00:00 | |
| DF8AY | 2026-09-04 12:50:28 | 52.77181 | 12.51473 | 97° | 142km/h | 7557m | -8.3m/s | -21.8°C | 82.2% | 392.5hPa | 2.6V | 02:57:42 | 02:42:46 | 00:00:00 | |
| AA1-15 | 2026-09-04 12:50:26 | 52.77190 | 12.51354 | 97° | 144km/h | 7572m | -8.1m/s | -21.9°C | 83% | 391.6hPa | 2.5V | 02:57:42 | 02:42:44 | 00:00:00 | |
| DF8AY-15 | 2026-09-04 12:50:26 | 52.77190 | 12.51354 | 98° | 148km/h | 7572m | -8.0m/s | -21.9°C | 82.7% | 391.6hPa | 2.5V | 00:00:00 | 02:42:44 | 00:00:00 | |
| DL1XH-15 | 2026-09-04 12:50:25 | 52.77208 | 12.51115 | 97° | 146km/h | 7603m | -8.1m/s | -22.2°C | 83.5% | 390hPa | 2.5V | 02:57:23 | 02:42:40 | 00:00:00 | |
| DB0DAN | 2026-09-04 12:50:25 | 52.77194 | 12.51295 | 97° | 137km/h | 7580m | -8.3m/s | -22°C | 79.1% | 391.23hPa | 2.6V | 00:00:00 | 00:00:00 | 00:00:00 | |
| DL1XH-west | 2026-09-04 12:50:23 | 52.77203 | 12.51175 | 97° | 146km/h | 7596m | -7.5m/s | -22.1°C | 83.2% | 390.4hPa | 2.6V | 02:57:42 | 02:42:41 | 00:00:00 | |
| BIOWL1-15 | 2026-09-04 12:50:22 | 52.77216 | 12.50992 | 97° | 150km/h | 7618m | -7.4m/s | -22.3°C | 84.2% | 389.3hPa | 2.6V | 02:57:42 | 02:42:38 | 00:00:00 | |
| DL1XH1-15 | 2026-09-04 12:50:20 | 52.77229 | 12.50806 | 96° | 151km/h | 7640m | -7.9m/s | -22.4°C | 82.4% | 388hPa | 2.5V | 02:57:28 | 02:42:35 | 00:00:00 | |
| DO2SHX-10 | 2026-09-04 12:50:20 | 52.77216 | 12.50992 | 97° | 150km/h | 7619m | -7.4m/s | -22.3°C | 83.9% | 389.2hPa | 2.6V | 00:00:00 | 02:42:38 | 00:00:00 | |
| DM0DOS-11 | 2026-09-04 12:50:18 | 52.77246 | 12.50558 | 97° | 150km/h | 7671m | -7.6m/s | -22.6°C | 81.6% | 386.4hPa | 2.6V | 02:57:32 | 02:42:31 | 00:00:00 | |
| DF8AY | 2026-09-04 12:50:17 | 52.77229 | 12.50806 | 96° | 151km/h | 7640m | -7.9m/s | -22.4°C | 83% | 388hPa | 2.5V | 02:57:42 | 02:42:35 | 00:00:00 | |
| AA1-15 | 2026-09-04 12:50:15 | 52.77237 | 12.50682 | 97° | 150km/h | 7655m | -7.4m/s | -22.5°C | 82.1% | 387.2hPa | 2.6V | 02:57:42 | 02:42:33 | 00:00:00 | |
| DL1XH-west | 2026-09-04 12:50:13 | 52.77247 | 12.50558 | 97° | 150km/h | 7671m | -7.6m/s | -22.6°C | 82.1% | 386.4hPa | 2.6V | 02:57:42 | 02:42:31 | 00:00:00 | |
| DL1XH-15 | 2026-09-04 12:50:12 | 52.77256 | 12.50435 | 96° | 150km/h | 7686m | -7.5m/s | -22.8°C | 82.5% | 385.5hPa | 2.5V | 02:57:34 | 02:42:29 | 00:00:00 | |
| DB0DAN | 2026-09-04 12:50:10 | 52.77260 | 12.50372 | 97° | 144km/h | 7693m | -7.4m/s | -22.8°C | 78.4% | 385.27hPa | 2.6V | 00:00:00 | 00:00:00 | 00:00:00 | |
| BIOWL1-15 | 2026-09-04 12:50:09 | 52.77265 | 12.50310 | 97° | 151km/h | 7700m | -7.2m/s | -22.9°C | 83.1% | 384.8hPa | 2.6V | 02:57:42 | 02:42:27 | 00:00:00 | |
| DF8AY | 2026-09-04 12:50:07 | 52.77274 | 12.50184 | 97° | 151km/h | 7715m | -7.2m/s | -23°C | 83.6% | 384.1hPa | 2.5V | 02:57:42 | 02:42:25 | 00:00:00 | |
| DL1XH-15 | 2026-09-04 12:50:06 | 52.77300 | 12.49750 | 95° | 150km/h | 7764m | -7.3m/s | -23.4°C | 86.1% | 381.4hPa | 2.6V | 02:57:45 | 02:42:18 | 00:00:00 | |
| AA1-15 | 2026-09-04 12:50:05 | 52.77282 | 12.50059 | 96° | 151km/h | 7729m | -7.2m/s | -23.1°C | 84.3% | 383.3hPa | 2.6V | 02:57:42 | 02:42:23 | 00:00:00 | |
| DM0DOS-11 | 2026-09-04 12:50:03 | 52.77290 | 12.49935 | 95° | 148km/h | 7743m | -6.9m/s | -23.2°C | 85% | 382.5hPa | 2.6V | 02:57:42 | 02:42:21 | 00:00:00 | |
| DL1XH-west | 2026-09-04 12:50:03 | 52.77293 | 12.49874 | 95° | 148km/h | 7750m | -7m/s | -23.3°C | 85.6% | 382.2hPa | 2.5V | 02:58:33 | 02:42:20 | 00:00:00 | |
| BIOWL1-15 | 2026-09-04 12:49:59 | 52.77304 | 12.49688 | 96° | 150km/h | 7771m | -6.9m/s | -23.5°C | 86.5% | 381.2hPa | 2.6V | 02:58:33 | 02:42:17 | 00:00:00 | |
| DM0DOS-11 | 2026-09-04 12:49:58 | 52.77329 | 12.49310 | 96° | 153km/h | 7812m | -7.4m/s | -23.8°C | 88.4% | 378.9hPa | 2.6V | 02:57:52 | 02:42:11 | 00:00:00 | |
| DF8AY | 2026-09-04 12:49:56 | 52.77316 | 12.49500 | 97° | 151km/h | 7791m | -7m/s | -23.7°C | 87.5% | 380hPa | 2.5V | 02:58:33 | 02:42:14 | 00:00:00 | |
| DB0DAN | 2026-09-04 12:49:55 | 52.77321 | 12.49437 | 96° | 146km/h | 7798m | -7.1m/s | -23.8°C | 83.9% | 379.7hPa | 2.6V | 00:00:00 | 00:00:00 | 00:00:00 | |
| DL1XH-15 | 2026-09-04 12:49:55 | 52.77337 | 12.49184 | 95° | 151km/h | 7825m | -6.9m/s | -24°C | 89.1% | 378.3hPa | 2.5V | 02:57:54 | 02:42:09 | 00:00:00 | |
| AA1-15 | 2026-09-04 12:49:54 | 52.77325 | 12.49374 | 96° | 153km/h | 7805m | -6.9m/s | -23.8°C | 88.1% | 379.3hPa | 2.6V | 02:58:33 | 02:42:12 | 00:00:00 | |
| DL1XH-west | 2026-09-04 12:49:52 | 52.77337 | 12.49184 | 96° | 153km/h | 7825m | -6.9m/s | -24°C | 88.7% | 378.3hPa | 2.5V | 02:58:33 | 02:42:09 | 00:00:00 | |
| DL1XH1-15 | 2026-09-04 12:49:50 | 52.77352 | 12.48930 | 94° | 151km/h | 7852m | -6.9m/s | -24.2°C | 91% | 376.8hPa | 2.5V | 02:57:58 | 02:42:05 | 00:00:00 | |
| BIOWL1-15 | 2026-09-04 12:49:49 | 52.77345 | 12.49057 | 96° | 153km/h | 7839m | -6.8m/s | -24.1°C | 89.2% | 377.6hPa | 2.6V | 02:58:33 | 02:42:07 | 00:00:00 | |
| DM0DOS-11 | 2026-09-04 12:49:48 | 52.77365 | 12.48678 | 94° | 151km/h | 7879m | -7.1m/s | -24.4°C | 93.3% | 375.5hPa | 2.6V | 02:58:02 | 02:42:01 | 00:00:00 | |
| DF8AY | 2026-09-04 12:49:46 | 52.77355 | 12.48867 | 95° | 151km/h | 7859m | -6.8m/s | -24.3°C | 90.4% | 376.5hPa | 2.5V | 02:58:33 | 02:42:04 | 00:00:00 | |
| AA1-15 | 2026-09-04 12:49:43 | 52.77365 | 12.48678 | 94° | 151km/h | 7879m | -7.1m/s | -24.4°C | 92% | 375.5hPa | 2.6V | 02:58:33 | 02:42:01 | 00:00:00 | |
| DL1XH-west | 2026-09-04 12:49:41 | 52.77370 | 12.48551 | 94° | 153km/h | 7893m | -7.2m/s | -24.6°C | 92.5% | 374.8hPa | 2.5V | 02:58:33 | 02:41:59 | 00:00:00 | |
| DB0DAN | 2026-09-04 12:49:40 | 52.77373 | 12.48488 | 94° | 146km/h | 7900m | -6.8m/s | -24.6°C | 89.4% | 374.43hPa | 2.6V | 00:00:00 | 00:00:00 | 00:00:00 | |
| DL1XH1-15 | 2026-09-04 12:49:40 | 52.77382 | 12.48296 | 94° | 153km/h | 7921m | -6.8m/s | -24.8°C | 95% | 373.3hPa | 2.5V | 02:58:08 | 02:41:55 | 00:00:00 | |
| DM0DOS-11 | 2026-09-04 12:49:38 | 52.77394 | 12.48039 | 93° | 153km/h | 7949m | -6.9m/s | -25°C | 95.6% | 372hPa | 2.6V | 02:58:12 | 02:41:51 | 00:00:00 | |
| DF8AY | 2026-09-04 12:49:36 | 52.77385 | 12.48232 | 95° | 153km/h | 7928m | -7.1m/s | -24.8°C | 93.4% | 373hPa | 2.5V | 02:58:33 | 02:41:54 | 00:00:00 | |
| AA1-15 | 2026-09-04 12:49:32 | 52.77397 | 12.47975 | 93° | 157km/h | 7956m | -7.1m/s | -25°C | 93.9% | 371.6hPa | 2.6V | 02:58:33 | 02:41:50 | 00:00:00 | |
| DL1XH-west | 2026-09-04 12:49:30 | 52.77404 | 12.47780 | 93° | 157km/h | 7976m | -7m/s | -25.2°C | 94.4% | 370.6hPa | 2.5V | 02:58:33 | 02:41:47 | 00:00:00 | |
| DO2SHX-10 | 2026-09-04 12:49:29 | 52.77403 | 12.47780 | 93° | 157km/h | 7977m | -7.0m/s | -25.2°C | 96.4% | 370.5hPa | 2.6V | 00:00:00 | 02:41:47 | 00:00:00 | |
| BIOWL1-15 | 2026-09-04 12:49:29 | 52.77405 | 12.47715 | 93° | 155km/h | 7983m | -6m/s | -25.3°C | 94.4% | 370.2hPa | 2.6V | 02:58:33 | 02:41:46 | 00:00:00 | |
| DM0DOS-11 | 2026-09-04 12:49:28 | 52.77415 | 12.47390 | 92° | 155km/h | 8015m | -6.6m/s | -25.5°C | 96.5% | 368.5hPa | 2.6V | 02:58:22 | 02:41:41 | 00:00:00 | |
| SONDE2-11 | 2026-09-04 12:49:27 | 52.77407 | 12.47650 | 93° | 155km/h | 7989m | -6.9m/s | -25.3°C | 91.5% | 369.9hPa | 2.5V | 00:00:00 | 00:00:00 | 00:00:00 | |
| DB0DAN | 2026-09-04 12:49:25 | 52.77411 | 12.47520 | 93° | 148km/h | 8002m | -6.6m/s | -25.4°C | 92.2% | 369.18hPa | 2.5V | 00:00:00 | 00:00:00 | 00:00:00 | |
| DF8AY | 2026-09-04 12:49:25 | 52.77411 | 12.47520 | 93° | 155km/h | 8002m | -6.6m/s | -25.4°C | 94.5% | 369.2hPa | 2.5V | 02:58:33 | 02:41:43 | 00:00:00 | |
| DL1XH-15 | 2026-09-04 12:49:24 | 52.77424 | 12.47131 | 93° | 153km/h | 8042m | -7.6m/s | -25.7°C | 96.3% | 367.1hPa | 2.5V | 02:58:26 | 02:41:37 | 00:00:00 | |
| AA1-15 | 2026-09-04 12:49:22 | 52.77418 | 12.47325 | 93° | 157km/h | 8022m | -6.4m/s | -25.6°C | 93.9% | 368.2hPa | 2.6V | 02:58:33 | 02:41:40 | 00:00:00 | |
| DL1XH-west | 2026-09-04 12:49:19 | 52.77424 | 12.47131 | 93° | 153km/h | 8042m | -7.6m/s | -25.7°C | 93.3% | 367.1hPa | 2.5V | 02:58:33 | 02:41:37 | 00:00:00 | |
| DM0DOS-11 | 2026-09-04 12:49:18 | 52.77435 | 12.46745 | 91° | 155km/h | 8084m | -7m/s | -25.6°C | 87.4% | 365.1hPa | 2.5V | 02:58:32 | 02:41:31 | 00:00:00 | |
| DF8AY | 2026-09-04 12:49:15 | 52.77432 | 12.46875 | 92° | 155km/h | 8070m | -7.1m/s | -25.6°C | 86.4% | 365.8hPa | 2.6V | 02:58:33 | 02:41:33 | 00:00:00 | |
| DO2SHX-10 | 2026-09-04 12:49:14 | 52.77434 | 12.46810 | 93° | 155km/h | 8078m | -7.3m/s | -25.5°C | 87.0% | 365.4hPa | 2.5V | 02:58:00 | 02:41:32 | 00:00:00 | |
| DL1XH-15 | 2026-09-04 12:49:13 | 52.77440 | 12.46486 | 92° | 155km/h | 8112m | -7m/s | -25.8°C | 88.2% | 363.7hPa | 2.6V | 02:58:36 | 02:41:27 | 00:00:00 | |
| AA1-15 | 2026-09-04 12:49:11 | 52.77438 | 12.46615 | 92° | 157km/h | 8099m | -7.2m/s | -25.7°C | 87.6% | 364.4hPa | 2.6V | 02:59:24 | 02:41:29 | 00:00:00 | |
| DB0DAN | 2026-09-04 12:49:10 | 52.77439 | 12.46551 | 91° | 148km/h | 8105m | -6.3m/s | -25.8°C | 83.7% | 364.02hPa | 2.6V | 00:00:00 | 00:00:00 | 00:00:00 | |
| DL1XH1-15 | 2026-09-04 12:49:09 | 52.77443 | 12.46357 | 92° | 155km/h | 8127m | -8.2m/s | -25.9°C | 87.4% | 363hPa | 2.5V | 02:58:38 | 02:41:25 | 00:00:00 | |
| BIOWL1-15 | 2026-09-04 12:49:09 | 52.77447 | 12.46228 | 93° | 153km/h | 8141m | -7.3m/s | -26.1°C | 87.8% | 362.2hPa | 2.6V | 02:59:24 | 02:41:23 | 00:00:00 | |
| DL1XH-west | 2026-09-04 12:49:09 | 52.77442 | 12.46422 | 92° | 155km/h | 8120m | -8m/s | -25.9°C | 88.1% | 363.4hPa | 2.5V | 02:59:24 | 02:41:26 | 00:00:00 | |
| DF8AY | 2026-09-04 12:49:04 | 52.77449 | 12.46164 | 94° | 153km/h | 8148m | -6.8m/s | -26.1°C | 87.7% | 361.9hPa | 2.6V | 02:59:24 | 02:41:22 | 00:00:00 | |
| AA1-15 | 2026-09-04 12:49:01 | 52.77457 | 12.45972 | 94° | 153km/h | 8169m | -7.1m/s | -26.2°C | 86.4% | 360.9hPa | 2.5V | 02:59:24 | 02:41:19 | 00:00:00 | |
| DL1XH-west | 2026-09-04 12:48:59 | 52.77466 | 12.45782 | 94° | 153km/h | 8189m | -6.9m/s | -26.3°C | 85.6% | 359.8hPa | 2.6V | 02:59:24 | 02:41:16 | 00:00:00 | |
| DL1XH1-15 | 2026-09-04 12:48:58 | 52.77468 | 12.45718 | 93° | 151km/h | 8196m | -6.9m/s | -26.4°C | 85.2% | 359.5hPa | 2.6V | 02:58:48 | 02:41:15 | 00:00:00 | |
| BIOWL1-15 | 2026-09-04 12:48:55 | 52.77474 | 12.45592 | 94° | 151km/h | 8210m | -7m/s | -26.4°C | 83.9% | 358.9hPa | 2.5V | 02:59:24 | 02:41:13 | 00:00:00 | |
| AA1-15 | 2026-09-04 12:48:50 | 52.77487 | 12.45275 | 94° | 153km/h | 8245m | -6.7m/s | -26.6°C | 83.3% | 357.1hPa | 2.6V | 02:59:24 | 02:41:08 | 00:00:00 | |
| DO2SHX-10 | 2026-09-04 12:48:50 | 52.77487 | 12.45275 | 95° | 153km/h | 8245m | -6.7m/s | -26.5°C | 82.7% | 357.1hPa | 2.5V | 00:00:00 | 02:41:08 | 00:00:00 | |
| DL1XH1-15 | 2026-09-04 12:48:48 | 52.77496 | 12.45084 | 94° | 153km/h | 8265m | -7m/s | -26.7°C | 80% | 356.1hPa | 2.5V | 02:58:58 | 02:41:05 | 00:00:00 | |
| DL1XH-west | 2026-09-04 12:48:48 | 52.77496 | 12.45084 | 95° | 153km/h | 8265m | -7m/s | -26.7°C | 81.1% | 356.1hPa | 2.5V | 02:59:24 | 02:41:05 | 00:00:00 | |
| BIOWL1-15 | 2026-09-04 12:48:44 | 52.77513 | 12.44772 | 95° | 150km/h | 8301m | -7.6m/s | -26.9°C | 80% | 354.4hPa | 2.6V | 02:59:24 | 02:41:00 | 00:00:00 | |
| AA1-15 | 2026-09-04 12:48:39 | 52.77521 | 12.44585 | 94° | 151km/h | 8322m | -7.2m/s | -27.1°C | 81.2% | 353.4hPa | 2.5V | 02:59:24 | 02:40:57 | 00:00:00 | |
| DL1XH-west | 2026-09-04 12:48:37 | 52.77527 | 12.44458 | 94° | 155km/h | 8335m | -7m/s | -27.1°C | 82.3% | 352.7hPa | 2.6V | 02:59:24 | 02:40:55 | 00:00:00 | |
| BIOWL1-15 | 2026-09-04 12:48:36 | 52.77535 | 12.44265 | 94° | 155km/h | 8355m | -6.6m/s | -27.3°C | 82.9% | 351.7hPa | 2.5V | 02:59:24 | 02:40:52 | 00:00:00 | |
| DO2SHX-10 | 2026-09-04 12:48:35 | 52.77532 | 12.44330 | 94° | 155km/h | 8349m | -6.3m/s | -27.1°C | 81.9% | 352.0hPa | 2.5V | 00:00:00 | 02:40:53 | 00:00:00 | |
| DL2RXE-15 | 2026-09-04 12:48:34 | 52.77532 | 12.44330 | 95° | 157km/h | 8349m | -6.3m/s | -27.2°C | 77.3% | 352.0hPa | 2.5V | 00:00:00 | 00:00:00 | 00:00:00 | |
| DH5RUM-10 | 2026-09-04 12:48:33 | 52.77535 | 12.44265 | 95° | 155km/h | 8355m | -6.6m/s | -27.2°C | 77.5% | 351.7hPa | 2.5V | 02:59:00 | 00:00:00 | 00:00:00 | |
| DL1XH1-15 | 2026-09-04 12:48:32 | 52.77555 | 12.43815 | 94° | 153km/h | 8400m | -6.7m/s | -27.6°C | 81.3% | 349.6hPa | 2.5V | 02:59:18 | 02:40:45 | 00:00:00 | |
| AA1-15 | 2026-09-04 12:48:28 | 52.77552 | 12.43879 | 94° | 153km/h | 8394m | -6.4m/s | -27.5°C | 82.3% | 349.8hPa | 2.6V | 02:59:24 | 02:40:46 | 00:00:00 | |
| DL1XH-west | 2026-09-04 12:48:27 | 52.77555 | 12.43815 | 95° | 153km/h | 8400m | -6.7m/s | -27.6°C | 81.9% | 349.6hPa | 2.5V | 02:59:24 | 02:40:45 | 00:00:00 | |
| DB0DAN | 2026-09-04 12:48:25 | 52.77561 | 12.43688 | 94° | 146km/h | 8413m | -7m/s | -27.6°C | 75.1% | 348.92hPa | 2.5V | 00:00:00 | 00:00:00 | 00:00:00 | |
| DL1XH-15 | 2026-09-04 12:48:24 | 52.77568 | 12.43495 | 93° | 155km/h | 8433m | -6.8m/s | -27.6°C | 76.8% | 347.9hPa | 2.6V | 02:59:23 | 02:40:40 | 00:00:00 | |
| BIOWL1-15 | 2026-09-04 12:48:23 | 52.77570 | 12.43431 | 93° | 157km/h | 8440m | -7.2m/s | -27.7°C | 78.6% | 347.6hPa | 2.5V | 02:59:24 | 02:40:39 | 00:00:00 | |
| DO2SHX-10 | 2026-09-04 12:48:23 | 52.77566 | 12.43560 | 94° | 155km/h | 8427m | -7.0m/s | -27.5°C | 77.1% | 348.2hPa | 2.6V | 00:00:00 | 02:40:41 | 00:00:00 | |
| EDDB2-12 | 2026-09-04 12:48:21 | 52.77570 | 12.43431 | 93° | 155km/h | 8440m | -7.2m/s | -27.7°C | 72.7% | 347.6hPa | 2.6V | 00:00:00 | 00:00:00 | 00:00:00 | |
| S3001 | 2026-09-04 12:48:20 | 52.77575 | 12.43301 | 93° | 155km/h | 8453m | -5.9m/s | -27.8°C | 72.8% | 346.9hPa | 2.6V | 00:00:00 | 00:00:00 | 00:00:00 | |
| DL1XH1-15 | 2026-09-04 12:48:19 | 52.77579 | 12.43173 | 93° | 153km/h | 8467m | -6.5m/s | -27.8°C | 73.8% | 346.2hPa | 2.6V | 02:59:28 | 02:40:35 | 00:00:00 | |
| AA1-15 | 2026-09-04 12:48:18 | 52.77577 | 12.43237 | 93° | 153km/h | 8460m | -7.1m/s | -27.8°C | 76.9% | 346.6hPa | 2.6V | 03:00:15 | 02:40:36 | 00:00:00 | |
| DL1XH-west | 2026-09-04 12:48:17 | 52.77579 | 12.43173 | 94° | 153km/h | 8467m | -6.5m/s | -27.8°C | 75.7% | 346.2hPa | 2.6V | 03:00:15 | 02:40:35 | 00:00:00 | |
| BIOWL1-15 | 2026-09-04 12:48:12 | 52.77592 | 12.42852 | 93° | 153km/h | 8501m | -6.4m/s | -28°C | 75.7% | 344.6hPa | 2.6V | 03:00:15 | 02:40:30 | 00:00:00 | |
| DB0DAN | 2026-09-04 12:48:10 | 52.77596 | 12.42724 | 93° | 148km/h | 8513m | -6.9m/s | -28.2°C | 69.9% | 344.05hPa | 2.5V | 00:00:00 | 00:00:00 | 00:00:00 | |
| DL1XH-15 | 2026-09-04 12:48:09 | 52.77608 | 12.42342 | 93° | 153km/h | 8551m | -6.9m/s | -28.5°C | 75.7% | 342.2hPa | 2.5V | 02:59:41 | 02:40:22 | 00:00:00 | |
| DF8AY | 2026-09-04 12:48:08 | 52.77600 | 12.42597 | 93° | 153km/h | 8526m | -6.4m/s | -28.3°C | 76.3% | 343.4hPa | 2.6V | 03:00:15 | 02:40:26 | 00:00:00 | |
| AA1-15 | 2026-09-04 12:48:07 | 52.77602 | 12.42533 | 93° | 153km/h | 8532m | -6.5m/s | -28.3°C | 76.4% | 343.1hPa | 2.6V | 03:00:15 | 02:40:25 | 00:00:00 | |
| DL1XH-west | 2026-09-04 12:48:06 | 52.77606 | 12.42406 | 94° | 153km/h | 8545m | -6.6m/s | -28.4°C | 76.9% | 342.5hPa | 2.6V | 03:00:15 | 02:40:23 | 00:00:00 | |
| DM0DOS-11 | 2026-09-04 12:48:06 | 52.77611 | 12.42278 | 93° | 155km/h | 8558m | -6.9m/s | -28.6°C | 75.9% | 341.9hPa | 2.5V | 02:59:42 | 02:40:21 | 00:00:00 | |
| BIOWL1-15 | 2026-09-04 12:48:02 | 52.77613 | 12.42213 | 93° | 157km/h | 8565m | -6.7m/s | -28.6°C | 77.8% | 341.6hPa | 2.5V | 03:00:15 | 02:40:20 | 00:00:00 | |
| AA1-15 | 2026-09-04 12:47:57 | 52.77622 | 12.41888 | 92° | 155km/h | 8598m | -6.5m/s | -28.9°C | 79.2% | 339.9hPa | 2.5V | 03:00:15 | 02:40:15 | 00:00:00 | |
| DL1XH-west | 2026-09-04 12:47:55 | 52.77624 | 12.41759 | 91° | 153km/h | 8611m | -6.7m/s | -29.1°C | 79.8% | 339.4hPa | 2.5V | 03:00:15 | 02:40:13 | 00:00:00 | |
| DB0DAN | 2026-09-04 12:47:55 | 52.77624 | 12.41759 | 91° | 146km/h | 8611m | -6.7m/s | -29.1°C | 73.5% | 339.35hPa | 2.5V | 00:00:00 | 00:00:00 | 00:00:00 | |
| DM0DOS-11 | 2026-09-04 12:47:55 | 52.77626 | 12.41631 | 91° | 153km/h | 8624m | -6.6m/s | -29.2°C | 79.2% | 338.7hPa | 2.6V | 02:59:52 | 02:40:11 | 00:00:00 | |
| BIOWL1-15 | 2026-09-04 12:47:53 | 52.77628 | 12.41503 | 92° | 155km/h | 8637m | -7m/s | -29.3°C | 81% | 338.1hPa | 2.5V | 03:00:15 | 02:40:09 | 00:00:00 | |
| DO2SHX-10 | 2026-09-04 12:47:53 | 52.77626 | 12.41631 | 92° | 153km/h | 8624m | -6.5m/s | -29.1°C | 79.2% | 338.7hPa | 2.6V | 02:59:00 | 02:40:11 | 00:00:00 | |
| DL1XH1-15 | 2026-09-04 12:47:52 | 52.77637 | 12.41180 | 92° | 157km/h | 8671m | -7.3m/s | -29.6°C | 80.8% | 336.6hPa | 2.5V | 02:59:59 | 02:40:04 | 00:00:00 | |
| DO2SHX-10 | 2026-09-04 12:47:50 | 52.77630 | 12.41438 | 93° | 155km/h | 8644m | -7.2m/s | -29.3°C | 80.0% | 337.8hPa | 2.6V | 00:00:00 | 02:40:08 | 00:00:00 | |
| DM0DOS-11 | 2026-09-04 12:47:48 | 52.77642 | 12.40986 | 91° | 153km/h | 8691m | -7m/s | -29.8°C | 81.5% | 335.6hPa | 2.6V | 03:00:02 | 02:40:01 | 00:00:00 | |
| AA1-15 | 2026-09-04 12:47:46 | 52.77637 | 12.41180 | 93° | 157km/h | 8671m | -7.3m/s | -29.6°C | 82.3% | 336.6hPa | 2.5V | 03:00:15 | 02:40:04 | 00:00:00 | |
| DL1XH-west | 2026-09-04 12:47:44 | 52.77641 | 12.41050 | 92° | 155km/h | 8684m | -7.2m/s | -29.7°C | 82.8% | 335.9hPa | 2.5V | 03:00:15 | 02:40:02 | 00:00:00 | |
| BIOWL1-15 | 2026-09-04 12:47:43 | 52.77645 | 12.40860 | 92° | 151km/h | 8705m | -7m/s | -29.9°C | 82.2% | 335hPa | 2.6V | 03:00:15 | 02:39:59 | 00:00:00 | |
| DB0DAN | 2026-09-04 12:47:40 | 52.77646 | 12.40797 | 92° | 144km/h | 8712m | -7.7m/s | -30°C | 75% | 334.59hPa | 2.6V | 00:00:00 | 00:00:00 | 00:00:00 | |
| DJ2DS-15 | 2026-09-04 12:47:39 | 52.77647 | 12.40734 | 91° | 148km/h | 8720m | -6.6m/s | -30.0°C | 74.8% | 334.3hPa | 2.5V | 00:00:00 | 00:00:00 | 00:00:00 | |
| DM0DOS-11 | 2026-09-04 12:47:38 | 52.77654 | 12.40355 | 91° | 153km/h | 8760m | -6.7m/s | -30.4°C | 80.7% | 332.4hPa | 2.5V | 03:00:12 | 02:39:51 | 00:00:00 | |
| AA1-15 | 2026-09-04 12:47:36 | 52.77650 | 12.40546 | 92° | 151km/h | 8740m | -6.9m/s | -30.2°C | 81.1% | 333.3hPa | 2.6V | 03:00:15 | 02:39:54 | 00:00:00 | |
| DF8AY | 2026-09-04 12:47:36 | 52.77651 | 12.40483 | 92° | 151km/h | 8747m | -7.6m/s | -30.3°C | 81.3% | 333hPa | 2.6V | 03:00:15 | 02:39:53 | 00:00:00 | |
| DL1XH-west | 2026-09-04 12:47:33 | 52.77654 | 12.40355 | 92° | 153km/h | 8760m | -6.7m/s | -30.4°C | 81.5% | 332.4hPa | 2.5V | 03:00:15 | 02:39:51 | 00:00:00 | |
| DL1XH-15 | 2026-09-04 12:47:33 | 52.77659 | 12.40035 | 91° | 153km/h | 8794m | -6.6m/s | -30.6°C | 79% | 330.8hPa | 2.5V | 03:00:17 | 02:39:46 | 00:00:00 | |
| BIOWL1-15 | 2026-09-04 12:47:30 | 52.77657 | 12.40163 | 91° | 153km/h | 8781m | -7.1m/s | -30.5°C | 80.6% | 331.4hPa | 2.6V | 03:00:15 | 02:39:48 | 00:00:00 | |
| DO2SHX-10 | 2026-09-04 12:47:29 | 52.77658 | 12.40099 | 92° | 153km/h | 8788m | -6.8m/s | -30.5°C | 79.6% | 331.0hPa | 2.6V | 00:00:00 | 02:39:47 | 00:00:00 | |
| DM0DOS-11 | 2026-09-04 12:47:28 | 52.77665 | 12.39714 | 91° | 155km/h | 8827m | -6.3m/s | -30.8°C | 71.3% | 329.3hPa | 2.6V | 03:00:22 | 02:39:41 | 00:00:00 | |
| DL1XH1-15 | 2026-09-04 12:47:28 | 52.77661 | 12.39907 | 91° | 153km/h | 8808m | -7m/s | -30.8°C | 77.3% | 330.1hPa | 2.5V | 03:00:19 | 02:39:44 | 00:00:00 | |
| AA1-15 | 2026-09-04 12:47:26 | 52.77661 | 12.39907 | 92° | 153km/h | 8808m | -7m/s | -30.8°C | 77.9% | 330.1hPa | 2.5V | 03:01:06 | 02:39:44 | 00:00:00 | |
| DF8AY | 2026-09-04 12:47:25 | 52.77662 | 12.39843 | 91° | 155km/h | 8815m | -6.9m/s | -30.8°C | 77% | 329.9hPa | 2.6V | 03:01:06 | 02:39:43 | 00:00:00 | |
| DB0DAN | 2026-09-04 12:47:25 | 52.77662 | 12.39843 | 91° | 146km/h | 8815m | -6.9m/s | -30.8°C | 71.3% | 329.85hPa | 2.6V | 00:00:00 | 00:00:00 | 00:00:00 | |
| DL1XH-15 | 2026-09-04 12:47:23 | 52.77674 | 12.39391 | 92° | 155km/h | 8861m | -6.5m/s | -31°C | 72% | 327.6hPa | 2.6V | 03:00:27 | 02:39:36 | 00:00:00 | |
| DL1XH-west | 2026-09-04 12:47:22 | 52.77666 | 12.39650 | 93° | 155km/h | 8834m | -7.2m/s | -30.8°C | 73% | 328.8hPa | 2.5V | 03:01:06 | 02:39:40 | 00:00:00 | |
| BIOWL1-15 | 2026-09-04 12:47:22 | 52.77670 | 12.39521 | 93° | 155km/h | 8848m | -6.7m/s | -30.9°C | 73.6% | 328.2hPa | 2.6V | 03:01:06 | 02:39:38 | 00:00:00 | |
| AA1-15 | 2026-09-04 12:47:15 | 52.77681 | 12.39197 | 93° | 155km/h | 8881m | -7.2m/s | -31.1°C | 74.8% | 326.7hPa | 2.5V | 03:01:06 | 02:39:33 | 00:00:00 | |
| DO2SHX-10 | 2026-09-04 12:47:14 | 52.77683 | 12.39132 | 95° | 157km/h | 8888m | -6.8m/s | -31.1°C | 74.1% | 326.4hPa | 2.6V | 00:00:00 | 02:39:32 | 00:00:00 | |
| DM0DOS-11 | 2026-09-04 12:47:13 | 52.77689 | 12.39002 | 94° | 157km/h | 8902m | -6.6m/s | -31.2°C | 72.4% | 325.8hPa | 2.6V | 03:00:33 | 02:39:30 | 00:00:00 | |
| DL1XH-15 | 2026-09-04 12:47:11 | 52.77703 | 12.38739 | 95° | 157km/h | 8929m | -6.5m/s | -31.4°C | 71.2% | 324.5hPa | 2.6V | 03:00:37 | 02:39:26 | 00:00:00 | |
| BIOWL1-15 | 2026-09-04 12:47:11 | 52.77700 | 12.38805 | 95° | 159km/h | 8922m | -7.6m/s | -31.4°C | 73.3% | 324.9hPa | 2.6V | 03:01:06 | 02:39:27 | 00:00:00 | |
| DL1XH-west | 2026-09-04 12:47:11 | 52.77693 | 12.38936 | 95° | 159km/h | 8908m | -7.2m/s | -31.3°C | 74.1% | 325.5hPa | 2.5V | 03:01:06 | 02:39:29 | 00:00:00 | |
| DB0DAN | 2026-09-04 12:47:10 | 52.77696 | 12.38871 | 95° | 151km/h | 8915m | -6.7m/s | -31.3°C | 67.3% | 325.19hPa | 2.5V | 00:00:00 | 00:00:00 | 00:00:00 | |
| DM0DOS-11 | 2026-09-04 12:47:08 | 52.77727 | 12.38341 | 95° | 162km/h | 8970m | -7.4m/s | -31.7°C | 67.2% | 322.7hPa | 2.6V | 03:00:43 | 02:39:20 | 00:00:00 | |
| AA1-15 | 2026-09-04 12:47:04 | 52.77719 | 12.38475 | 96° | 161km/h | 8956m | -6.9m/s | -31.6°C | 70.5% | 323.3hPa | 2.5V | 03:01:06 | 02:39:22 | 00:00:00 | |
| DL1XH-15 | 2026-09-04 12:47:04 | 52.77742 | 12.38072 | 95° | 161km/h | 8998m | -7m/s | -32°C | 67.7% | 321.4hPa | 2.6V | 03:00:47 | 02:39:16 | 00:00:00 | |
| BIOWL1-15 | 2026-09-04 12:47:00 | 52.77742 | 12.38072 | 95° | 161km/h | 8998m | -7m/s | -32°C | 70% | 321.4hPa | 2.6V | 03:01:06 | 02:39:16 | 00:00:00 | |
| DL1XH-west | 2026-09-04 12:47:00 | 52.77734 | 12.38206 | 95° | 162km/h | 8984m | -7.4m/s | -31.9°C | 69.8% | 322hPa | 2.5V | 03:01:06 | 02:39:18 | 00:00:00 | |
| EDDB2-11 | 2026-09-04 12:46:58 | 52.77745 | 12.38005 | 94° | 159km/h | 9005m | -7.0m/s | -32.1°C | 62.8% | 321.0hPa | 2.5V | 00:00:00 | 00:00:00 | 00:00:00 | |
| TFSTFS | 2026-09-04 12:46:57 | 52.77742 | 12.38072 | 96° | 161km/h | 8998m | -7.0m/s | -32.0°C | 62.9% | 321.4hPa | 2.5V | 03:01:00 | 00:00:00 | 00:00:00 | |
| DB0DAN | 2026-09-04 12:46:55 | 52.77753 | 12.37872 | 95° | 151km/h | 9019m | -7m/s | -32.2°C | 62% | 320.45hPa | 2.5V | 00:00:00 | 00:00:00 | 00:00:00 | |
| DM0DOS-11 | 2026-09-04 12:46:54 | 52.77765 | 12.37675 | 95° | 161km/h | 9039m | -8.1m/s | -32.3°C | 65% | 319.4hPa | 2.6V | 03:00:53 | 02:39:10 | 00:00:00 | |
| AA1-15 | 2026-09-04 12:46:54 | 52.77757 | 12.37807 | 96° | 159km/h | 9025m | -6.9m/s | -32.2°C | 68.5% | 320.1hPa | 2.5V | 03:01:06 | 02:39:12 | 00:00:00 | |
| DL1XH-west | 2026-09-04 12:46:50 | 52.77774 | 12.37541 | 96° | 162km/h | 9055m | -9.3m/s | -32.3°C | 64.8% | 318.8hPa | 2.6V | 03:01:06 | 02:39:08 | 00:00:00 | |
| DL1XH1-15 | 2026-09-04 12:46:48 | 52.77790 | 12.37271 | 95° | 162km/h | 9085m | -7.7m/s | -32.4°C | 62.2% | 317.4hPa | 2.6V | 03:00:59 | 02:39:04 | 00:00:00 | |
| BIOWL1-15 | 2026-09-04 12:46:47 | 52.77786 | 12.37338 | 96° | 162km/h | 9078m | -7.4m/s | -32.4°C | 64.9% | 317.7hPa | 2.6V | 03:01:06 | 02:39:05 | 00:00:00 | |
| SP3WXH-11 | 2026-09-04 12:46:46 | 52.77794 | 12.37204 | 95° | 161km/h | 9092m | -7.0m/s | -32.5°C | 57.8% | 317.1hPa | 2.6V | 00:00:00 | 00:00:00 | 00:00:00 | |
| AA1-15 | 2026-09-04 12:46:43 | 52.77803 | 12.37071 | 97° | 161km/h | 9106m | -7.9m/s | -32.6°C | 65.7% | 316.3hPa | 2.6V | 03:01:06 | 02:39:01 | 00:00:00 | |
| DL1XH-15 | 2026-09-04 12:46:43 | 52.77825 | 12.36736 | 95° | 162km/h | 9145m | -8.5m/s | -33°C | 63.7% | 314.8hPa | 2.5V | 03:01:07 | 02:38:56 | 00:00:00 | |
| DB0DAN | 2026-09-04 12:46:40 | 52.77817 | 12.36871 | 96° | 153km/h | 9129m | -7.6m/s | -32.9°C | 58.7% | 315.45hPa | 2.5V | 00:00:00 | 00:00:00 | 00:00:00 | |
| DL1XH-west | 2026-09-04 12:46:40 | 52.77817 | 12.36871 | 96° | 161km/h | 9129m | -7.6m/s | -32.9°C | 66.3% | 315.4hPa | 2.5V | 03:01:06 | 02:38:58 | 00:00:00 | |
| SMARD9-10 | 2026-09-04 12:46:39 | 52.77817 | 12.36871 | 97° | 161km/h | 9129m | -7.6m/s | -32.9°C | 58.7% | 315.5hPa | 2.6V | 00:00:00 | 00:00:00 | 00:00:00 | |
| DL1XH1-15 | 2026-09-04 12:46:38 | 52.77832 | 12.36602 | 95° | 162km/h | 9161m | -8.5m/s | -33.1°C | 64.1% | 314.1hPa | 2.6V | 03:01:09 | 02:38:54 | 00:00:00 | |
| BIOWL1-15 | 2026-09-04 12:46:37 | 52.77829 | 12.36669 | 95° | 162km/h | 9153m | -7.9m/s | -33.1°C | 66.8% | 314.4hPa | 2.6V | 03:01:57 | 02:38:55 | 00:00:00 | |
| AA1-15 | 2026-09-04 12:46:33 | 52.77844 | 12.36401 | 96° | 161km/h | 9184m | -7.4m/s | -33.3°C | 67% | 313hPa | 2.5V | 03:01:57 | 02:38:51 | 00:00:00 | |
| DF8AY | 2026-09-04 12:46:33 | 52.77848 | 12.36334 | 96° | 162km/h | 9191m | -7.8m/s | -33.4°C | 66.9% | 312.8hPa | 2.6V | 03:01:57 | 02:38:50 | 00:00:00 | |
| DL1XH-west | 2026-09-04 12:46:29 | 52.77861 | 12.36132 | 96° | 162km/h | 9214m | -7.2m/s | -33.6°C | 66.6% | 311.7hPa | 2.5V | 03:01:57 | 02:38:47 | 00:00:00 | |
| DO2SHX-10 | 2026-09-04 12:46:29 | 52.77861 | 12.36132 | 96° | 162km/h | 9214m | -7.2m/s | -33.6°C | 64.7% | 311.7hPa | 2.6V | 00:00:00 | 02:38:47 | 00:00:00 | |
| DL1XH1-15 | 2026-09-04 12:46:28 | 52.77873 | 12.35929 | 96° | 162km/h | 9236m | -8.3m/s | -33.8°C | 64.1% | 310.7hPa | 2.6V | 03:01:19 | 02:38:44 | 00:00:00 | |
| BIOWL1-15 | 2026-09-04 12:46:26 | 52.77873 | 12.35929 | 96° | 162km/h | 9236m | -8.3m/s | -33.8°C | 66.1% | 310.7hPa | 2.6V | 03:01:57 | 02:38:44 | 00:00:00 | |
| DB0DAN | 2026-09-04 12:46:25 | 52.77877 | 12.35862 | 96° | 155km/h | 9244m | -7.6m/s | -33.8°C | 59.7% | 310.39hPa | 2.5V | 00:00:00 | 00:00:00 | 00:00:00 | |
| DM0DOS-11 | 2026-09-04 12:46:25 | 52.77890 | 12.35658 | 96° | 166km/h | 9267m | -8.4m/s | -34°C | 65.1% | 309.3hPa | 2.6V | 03:01:23 | 02:38:40 | 00:00:00 | |
| AA1-15 | 2026-09-04 12:46:23 | 52.77886 | 12.35726 | 96° | 164km/h | 9259m | -8.5m/s | -33.9°C | 66.5% | 309.8hPa | 2.5V | 03:01:57 | 02:38:41 | 00:00:00 | |
| DF8AY | 2026-09-04 12:46:21 | 52.77918 | 12.35248 | 97° | 164km/h | 9317m | -10.8m/s | -34.4°C | 67.1% | 307.2hPa | 2.6V | 03:01:57 | 02:38:34 | 00:00:00 | |
| DL1XH-west | 2026-09-04 12:46:18 | 52.77909 | 12.35385 | 97° | 166km/h | 9298m | -9.1m/s | -34.3°C | 67.6% | 308hPa | 2.5V | 03:01:57 | 02:38:36 | 00:00:00 | |
| BIOWL1-15 | 2026-09-04 12:46:17 | 52.77940 | 12.34912 | 96° | 161km/h | 9362m | -7.7m/s | -34.8°C | 66.6% | 305.2hPa | 2.6V | 03:01:57 | 02:38:29 | 00:00:00 | |
| DL1XH1-15 | 2026-09-04 12:46:17 | 52.77918 | 12.35248 | 96° | 164km/h | 9317m | -10.8m/s | -34.4°C | 63.8% | 307.2hPa | 2.6V | 03:01:29 | 02:38:34 | 00:00:00 | |
| DB0NH | 2026-09-04 12:46:17 | 52.77913 | 12.35317 | 97° | 161km/h | 9307m | -8.9m/s | -34.3°C | 64.6% | 307.6hPa | 2.6V | 00:00:00 | 02:38:35 | 00:00:00 | |
| SP3WXH-11 | 2026-09-04 12:46:15 | 52.77927 | 12.35114 | 96° | 161km/h | 9336m | -10.0m/s | -34.6°C | 58.8% | 306.3hPa | 2.6V | 00:00:00 | 00:00:00 | 00:00:00 | |
| DM0DOS-11 | 2026-09-04 12:46:14 | 52.77936 | 12.34979 | 96° | 162km/h | 9354m | -7.7m/s | -34.7°C | 64.8% | 305.4hPa | 2.6V | 03:01:33 | 02:38:30 | 00:00:00 | |
| AA1-15 | 2026-09-04 12:46:12 | 52.77936 | 12.34979 | 96° | 162km/h | 9354m | -7.7m/s | -34.7°C | 66.6% | 305.4hPa | 2.6V | 03:01:57 | 02:38:30 | 00:00:00 | |
| DB0DAN | 2026-09-04 12:46:10 | 52.77945 | 12.34845 | 97° | 155km/h | 9370m | -8m/s | -34.8°C | 59.7% | 304.77hPa | 2.5V | 00:00:00 | 00:00:00 | 00:00:00 | |
| DL1XH-west | 2026-09-04 12:46:07 | 52.77959 | 12.34643 | 96° | 161km/h | 9391m | -7m/s | -35°C | 64.1% | 303.9hPa | 2.6V | 03:01:57 | 02:38:25 | 00:00:00 | |
| DM0DOS-11 | 2026-09-04 12:46:07 | 52.77979 | 12.34309 | 95° | 161km/h | 9428m | -7.5m/s | -35.2°C | 55.7% | 302.2hPa | 2.5V | 03:01:43 | 02:38:20 | 00:00:00 | |
| DF8AY | 2026-09-04 12:46:05 | 52.77967 | 12.34509 | 96° | 161km/h | 9405m | -7.5m/s | -35.1°C | 60.4% | 303.3hPa | 2.6V | 03:01:57 | 02:38:23 | 00:00:00 | |
| BIOWL1-15 | 2026-09-04 12:46:05 | 52.77983 | 12.34242 | 96° | 161km/h | 9436m | -8.5m/s | -35.3°C | 58.2% | 301.9hPa | 2.6V | 03:01:57 | 02:38:19 | 00:00:00 | |
| DO2SHX-10 | 2026-09-04 12:46:05 | 52.77967 | 12.34509 | 96° | 161km/h | 9405m | -7.5m/s | -35.1°C | 58.3% | 303.2hPa | 2.6V | 00:00:00 | 02:38:23 | 00:00:00 | |
| DL1XH-15 | 2026-09-04 12:46:03 | 52.77995 | 12.34040 | 95° | 162km/h | 9459m | -8.1m/s | -35.5°C | 55.1% | 301hPa | 2.5V | 03:01:47 | 02:38:16 | 00:00:00 | |
| AA1-15 | 2026-09-04 12:46:02 | 52.77979 | 12.34309 | 95° | 161km/h | 9428m | -7.5m/s | -35.2°C | 58.1% | 302.2hPa | 2.5V | 03:01:57 | 02:38:20 | 00:00:00 | |
| DL1XH-west | 2026-09-04 12:45:57 | 52.77999 | 12.33973 | 96° | 162km/h | 9468m | -8m/s | -35.5°C | 57.4% | 300.6hPa | 2.5V | 03:01:57 | 02:38:15 | 00:00:00 | |
| EDDB2-11 | 2026-09-04 12:45:56 | 52.78008 | 12.33837 | 95° | 162km/h | 9484m | -9.1m/s | -35.6°C | 48.8% | 299.9hPa | 2.6V | 00:00:00 | 00:00:00 | 00:00:00 | |
| DB0DAN | 2026-09-04 12:45:55 | 52.78008 | 12.33837 | 96° | 155km/h | 9484m | -9.1m/s | -35.6°C | 48.8% | 299.93hPa | 2.6V | 00:00:00 | 00:00:00 | 00:00:00 | |
| DF8AY | 2026-09-04 12:45:54 | 52.78032 | 12.33431 | 95° | 161km/h | 9531m | -8.2m/s | -35.9°C | 53.8% | 297.9hPa | 2.5V | 03:01:57 | 02:38:07 | 00:00:00 | |
| DL1XH-15 | 2026-09-04 12:45:53 | 52.78035 | 12.33363 | 94° | 162km/h | 9538m | -6.4m/s | -35.9°C | 51.1% | 297.6hPa | 2.5V | 03:01:57 | 02:38:06 | 00:00:00 | |
| DM0DOS-11 | 2026-09-04 12:45:53 | 52.78020 | 12.33633 | 95° | 162km/h | 9508m | -7.6m/s | -35.7°C | 52.5% | 298.9hPa | 2.6V | 03:01:53 | 02:38:10 | 00:00:00 | |
| AA1-15 | 2026-09-04 12:45:52 | 52.78020 | 12.33633 | 96° | 162km/h | 9508m | -7.6m/s | -35.7°C | 54.9% | 298.9hPa | 2.6V | 03:01:57 | 02:38:10 | 00:00:00 | |
| BIOWL1-15 | 2026-09-04 12:45:50 | 52.78028 | 12.33498 | 95° | 162km/h | 9523m | -7.7m/s | -35.8°C | 54.2% | 298.2hPa | 2.6V | 03:01:57 | 02:38:08 | 00:00:00 | |
| SONCRA | 2026-09-04 12:45:50 | 52.78032 | 12.33431 | 95° | 161km/h | 9531m | -8.2m/s | -35.9°C | 46.8% | 297.9hPa | 2.5V | 00:00:00 | 00:00:00 | 00:00:00 | |
| DM0DOS-11 | 2026-09-04 12:45:47 | 52.78053 | 12.32960 | 94° | 161km/h | 9581m | -8m/s | -36.3°C | 49.2% | 295.7hPa | 2.5V | 03:02:03 | 02:38:00 | 00:00:00 | |
| EDDB2-12 | 2026-09-04 12:45:46 | 52.78041 | 12.33228 | 94° | 161km/h | 9551m | -6.8m/s | -36.0°C | 45.8% | 296.9hPa | 2.5V | 00:00:00 | 00:00:00 | 00:00:00 | |
| S3001 | 2026-09-04 12:45:44 | 52.78047 | 12.33094 | 94° | 161km/h | 9566m | -8.0m/s | -36.1°C | 45.1% | 296.3hPa | 2.5V | 00:00:00 | 00:00:00 | 00:00:00 | |
| AA1-15 | 2026-09-04 12:45:42 | 52.78056 | 12.32894 | 95° | 159km/h | 9589m | -7.4m/s | -36.3°C | 51.4% | 295.4hPa | 2.5V | 03:02:48 | 02:37:59 | 00:00:00 | |
| DL1XH-15 | 2026-09-04 12:45:42 | 52.78065 | 12.32696 | 94° | 161km/h | 9612m | -7.8m/s | -36.5°C | 48.5% | 294.5hPa | 2.6V | 03:02:07 | 02:37:56 | 00:00:00 | |
| TFSTFS | 2026-09-04 12:45:41 | 52.78053 | 12.32960 | 95° | 161km/h | 9582m | -8.0m/s | -36.3°C | 44.7% | 295.7hPa | 2.6V | 03:02:00 | 00:00:00 | 00:00:00 | |
| DB0DAN | 2026-09-04 12:45:40 | 52.78059 | 12.32828 | 94° | 151km/h | 9597m | -8m/s | -36.4°C | 43.8% | 295.12hPa | 2.6V | 00:00:00 | 00:00:00 | 00:00:00 | |
| BIOWL1-15 | 2026-09-04 12:45:40 | 52.78059 | 12.32828 | 95° | 159km/h | 9597m | -8m/s | -36.4°C | 51% | 295.1hPa | 2.6V | 03:02:48 | 02:37:58 | 00:00:00 | |
| DO2SHX-10 | 2026-09-04 12:45:38 | 52.78065 | 12.32696 | 95° | 161km/h | 9612m | -7.8m/s | -36.5°C | 48.5% | 294.4hPa | 2.6V | 00:00:00 | 02:37:56 | 00:00:00 | |
| DO2SHX-10 | 2026-09-04 12:45:35 | 52.78076 | 12.32496 | 95° | 162km/h | 9634m | -6.9m/s | -36.6°C | 48.1% | 293.4hPa | 2.6V | 03:02:00 | 02:37:53 | 00:00:00 | |
| DF2AP-13 | 2026-09-04 12:45:34 | 52.78080 | 12.32429 | 95° | 161km/h | 9642m | -7.8m/s | -36.7°C | 48.1% | 293.1hPa | 2.6V | 00:00:00 | 02:37:52 | 00:00:00 | |
| DM0DOS-11 | 2026-09-04 12:45:33 | 52.78086 | 12.32294 | 94° | 161km/h | 9657m | -7.2m/s | -36.9°C | 47% | 292.5hPa | 2.6V | 03:02:13 | 02:37:50 | 00:00:00 | |
| DL1XH-15 | 2026-09-04 12:45:33 | 52.78096 | 12.32027 | 92° | 161km/h | 9687m | -7.8m/s | -37.1°C | 45.2% | 291.2hPa | 2.6V | 03:02:17 | 02:37:46 | 00:00:00 | |
| DL1XH-west | 2026-09-04 12:45:33 | 52.78083 | 12.32362 | 95° | 162km/h | 9649m | -7.5m/s | -36.8°C | 50% | 292.9hPa | 2.6V | 03:02:48 | 02:37:51 | 00:00:00 | |
| AA1-15 | 2026-09-04 12:45:32 | 52.78089 | 12.32227 | 94° | 161km/h | 9664m | -7.7m/s | -36.9°C | 49% | 292.2hPa | 2.5V | 03:02:48 | 02:37:49 | 00:00:00 | |
| DL1XH1-15 | 2026-09-04 12:45:31 | 52.78099 | 12.31894 | 92° | 159km/h | 9703m | -7.7m/s | -37.2°C | 43.5% | 290.7hPa | 2.5V | 03:02:19 | 02:37:44 | 00:00:00 | |
| BIOWL1-15 | 2026-09-04 12:45:30 | 52.78091 | 12.32160 | 93° | 161km/h | 9672m | -7.8m/s | -37°C | 48.6% | 291.9hPa | 2.5V | 03:02:48 | 02:37:48 | 00:00:00 | |
| DO2SHX-10 | 2026-09-04 12:45:30 | 52.78094 | 12.32093 | 94° | 161km/h | 9680m | -8.2m/s | -37.0°C | 45.7% | 291.5hPa | 2.6V | 00:00:00 | 02:37:47 | 00:00:00 | |
| DM0DOS-11 | 2026-09-04 12:45:27 | 52.78106 | 12.31628 | 92° | 161km/h | 9733m | -7.9m/s | -37.4°C | 40.2% | 289.4hPa | 2.5V | 03:02:23 | 02:37:40 | 00:00:00 | |
| DH5RUM-10 | 2026-09-04 12:45:26 | 52.78097 | 12.31960 | 93° | 161km/h | 9695m | -7.8m/s | -37.2°C | 40.0% | 290.9hPa | 2.6V | 03:02:00 | 00:00:00 | 00:00:00 | |
| DB0DAN | 2026-09-04 12:45:25 | 52.78101 | 12.31827 | 92° | 151km/h | 9710m | -6.7m/s | -37.3°C | 38.4% | 290.25hPa | 2.6V | 00:00:00 | 00:00:00 | 00:00:00 | |
| DL1XH-west | 2026-09-04 12:45:23 | 52.78104 | 12.31694 | 92° | 159km/h | 9725m | -8.4m/s | -37.3°C | 43.8% | 289.6hPa | 2.5V | 03:02:48 | 02:37:41 | 00:00:00 | |
| DO2SHX-10 | 2026-09-04 12:45:23 | 52.78104 | 12.31694 | 92° | 161km/h | 9725m | -8.3m/s | -37.3°C | 41.0% | 289.6hPa | 2.5V | 03:02:00 | 02:37:41 | 00:00:00 | |
| BIOWL9-15 | 2026-09-04 12:45:22 | 52.78106 | 12.31628 | 92° | 159km/h | 9733m | -7.9m/s | -37.4°C | 36.1% | 289.4hPa | 2.5V | 00:00:00 | 00:00:00 | 00:00:00 | |
| DL1XH1-15 | 2026-09-04 12:45:21 | 52.78117 | 12.31225 | 92° | 162km/h | 9778m | -7.4m/s | -37.6°C | 36% | 287.4hPa | 2.5V | 03:02:29 | 02:37:34 | 00:00:00 | |
| AA1-15 | 2026-09-04 12:45:20 | 52.78109 | 12.31494 | 93° | 161km/h | 9747m | -7.4m/s | -37.4°C | 41.4% | 288.8hPa | 2.6V | 03:02:48 | 02:37:38 | 00:00:00 | |
| BIOWL1-15 | 2026-09-04 12:45:19 | 52.78111 | 12.31427 | 93° | 161km/h | 9755m | -7.6m/s | -37.5°C | 40.7% | 288.4hPa | 2.6V | 03:02:48 | 02:37:37 | 00:00:00 | |
| SONCRA | 2026-09-04 12:45:19 | 52.78113 | 12.31360 | 92° | 161km/h | 9763m | -8.8m/s | -37.5°C | 32.7% | 288.1hPa | 2.5V | 00:00:00 | 00:00:00 | 00:00:00 | |
| DB0NH | 2026-09-04 12:45:18 | 52.78113 | 12.31360 | 93° | 161km/h | 9763m | -8.7m/s | -37.4°C | 36.6% | 288.1hPa | 2.5V | 00:00:00 | 02:37:36 | 00:00:00 | |
| DM0DOS-11 | 2026-09-04 12:45:17 | 52.78121 | 12.30955 | 90° | 161km/h | 9808m | -7.8m/s | -37.8°C | 34.9% | 286.2hPa | 2.5V | 03:02:33 | 02:37:30 | 00:00:00 | |
| DO2SHX-10 | 2026-09-04 12:45:17 | 52.78115 | 12.31292 | 93° | 162km/h | 9771m | -7.2m/s | -37.5°C | 36.0% | 287.7hPa | 2.6V | 00:00:00 | 02:37:35 | 00:00:00 | |
| DJ2DS-15 | 2026-09-04 12:45:15 | 52.78119 | 12.31090 | 91° | 161km/h | 9793m | -7.2m/s | -37.7°C | 31.1% | 286.8hPa | 2.6V | 00:00:00 | 00:00:00 | 00:00:00 | |
| DO2SHX-10 | 2026-09-04 12:45:14 | 52.78119 | 12.31090 | 92° | 161km/h | 9793m | -7.1m/s | -37.6°C | 34.9% | 286.7hPa | 2.6V | 00:00:00 | 02:37:32 | 00:00:00 | |
| DL1XH-15 | 2026-09-04 12:45:13 | 52.78123 | 12.30686 | 90° | 161km/h | 9836m | -7.3m/s | -38°C | 33.7% | 285hPa | 2.6V | 03:02:37 | 02:37:26 | 00:00:00 | |
| DL1XH-west | 2026-09-04 12:45:13 | 52.78120 | 12.31022 | 91° | 161km/h | 9800m | -7.4m/s | -37.7°C | 38.1% | 286.4hPa | 2.6V | 03:02:48 | 02:37:31 | 00:00:00 | |
| SP3WXH-11 | 2026-09-04 12:45:13 | 52.78121 | 12.30955 | 90° | 161km/h | 9808m | -7.8m/s | -37.8°C | 31.1% | 286.2hPa | 2.5V | 00:00:00 | 00:00:00 | 00:00:00 | |
| DB0DAN | 2026-09-04 12:45:10 | 52.78122 | 12.30821 | 91° | 153km/h | 9822m | -7.6m/s | -37.9°C | 30.7% | 285.54hPa | 2.5V | 00:00:00 | 00:00:00 | 00:00:00 | |
| AA1-15 | 2026-09-04 12:45:09 | 52.78123 | 12.30753 | 91° | 161km/h | 9829m | -6.7m/s | -37.9°C | 37.3% | 285.3hPa | 2.6V | 03:02:48 | 02:37:27 | 00:00:00 | |
| DO2SHX-10 | 2026-09-04 12:45:08 | 52.78123 | 12.30686 | 91° | 162km/h | 9836m | -7.3m/s | -38.0°C | 33.7% | 285.0hPa | 2.5V | 00:00:00 | 02:37:26 | 00:00:00 | |
| DL1XH1-15 | 2026-09-04 12:45:07 | 52.78124 | 12.30484 | 90° | 161km/h | 9859m | -7.2m/s | -38.2°C | 33.5% | 284hPa | 2.5V | 03:02:40 | 02:37:23 | 00:00:00 | |
| DF8AY-15 | 2026-09-04 12:45:06 | 52.78123 | 12.30551 | 91° | 162km/h | 9851m | -8.6m/s | -38.1°C | 33.5% | 284.3hPa | 2.6V | 00:00:00 | 02:37:24 | 00:00:00 | |
| DO2SHX-10 | 2026-09-04 12:45:05 | 52.78124 | 12.30484 | 91° | 162km/h | 9859m | -7.1m/s | -38.2°C | 33.5% | 283.9hPa | 2.6V | 00:00:00 | 02:37:23 | 00:00:00 | |
| DM0DOS-11 | 2026-09-04 12:45:04 | 52.78125 | 12.30281 | 90° | 162km/h | 9881m | -7.3m/s | -38.4°C | 34.1% | 283.1hPa | 2.6V | 03:02:43 | 02:37:20 | 00:00:00 | |
| DL1XH-15 | 2026-09-04 12:45:03 | 52.78128 | 12.30009 | 91° | 162km/h | 9911m | -7.8m/s | -38.6°C | 35% | 281.9hPa | 2.5V | 03:02:47 | 02:37:16 | 00:00:00 | |
| DL1XH-west | 2026-09-04 12:45:02 | 52.78125 | 12.30281 | 91° | 162km/h | 9881m | -7.3m/s | -38.4°C | 37.2% | 283.1hPa | 2.6V | 03:02:48 | 02:37:20 | 00:00:00 | |
| AA1-15 | 2026-09-04 12:44:59 | 52.78127 | 12.30077 | 91° | 162km/h | 9903m | -7.8m/s | -38.6°C | 37.9% | 282.2hPa | 2.5V | 03:02:48 | 02:37:17 | 00:00:00 | |
| BIOWL1-15 | 2026-09-04 12:44:58 | 52.78129 | 12.29941 | 92° | 161km/h | 9918m | -7.7m/s | -38.7°C | 38.4% | 281.5hPa | 2.6V | 03:02:48 | 02:37:15 | 00:00:00 | |
| DL2RXE-15 | 2026-09-04 12:44:58 | 52.78128 | 12.30009 | 93° | 162km/h | 9911m | -7.8m/s | -38.7°C | 31.1% | 281.9hPa | 2.6V | 00:00:00 | 00:00:00 | 00:00:00 | |
| DL1XH1-15 | 2026-09-04 12:44:57 | 52.78132 | 12.29808 | 91° | 159km/h | 9933m | -7.4m/s | -38.9°C | 35.9% | 280.9hPa | 2.6V | 03:02:50 | 02:37:13 | 00:00:00 | |
| DB0DAN | 2026-09-04 12:44:55 | 52.78132 | 12.29808 | 91° | 151km/h | 9933m | -7.4m/s | -38.9°C | 31.9% | 280.92hPa | 2.6V | 00:00:00 | 00:00:00 | 00:00:00 | |
| DL1XH-15 | 2026-09-04 12:44:53 | 52.78133 | 12.29340 | 89° | 162km/h | 9987m | -8.1m/s | -39.4°C | 36.1% | 278.7hPa | 2.5V | 03:02:57 | 02:37:06 | 00:00:00 | |
| DM0DOS-11 | 2026-09-04 12:44:53 | 52.78134 | 12.29609 | 90° | 161km/h | 9956m | -8.9m/s | -39.1°C | 35.8% | 280hPa | 2.5V | 03:02:53 | 02:37:10 | 00:00:00 | |
| DL1XH-west | 2026-09-04 12:44:51 | 52.78134 | 12.29542 | 90° | 161km/h | 9964m | -8m/s | -39.2°C | 39% | 279.7hPa | 2.6V | 03:03:39 | 02:37:09 | 00:00:00 | |
| DL1XH1-15 | 2026-09-04 12:44:50 | 52.78132 | 12.29136 | 89° | 162km/h | 10010m | -8.6m/s | -39.6°C | 36% | 277.8hPa | 2.6V | 03:03:00 | 02:37:03 | 00:00:00 | |
| AA1-15 | 2026-09-04 12:44:48 | 52.78133 | 12.29340 | 89° | 162km/h | 9987m | -8.1m/s | -39.4°C | 39.2% | 278.7hPa | 2.5V | 03:03:39 | 02:37:06 | 00:00:00 | |
| DM0DOS-11 | 2026-09-04 12:44:48 | 52.78130 | 12.28935 | 89° | 161km/h | 10035m | -8.5m/s | -39.8°C | 34.8% | 276.8hPa | 2.5V | 03:03:03 | 02:37:00 | 00:00:00 | |
| BIOWL1-15 | 2026-09-04 12:44:47 | 52.78133 | 12.29272 | 89° | 162km/h | 9995m | -7.9m/s | -39.5°C | 39.2% | 278.4hPa | 2.5V | 03:03:39 | 02:37:05 | 00:00:00 | |
| DB0NH | 2026-09-04 12:44:47 | 52.78133 | 12.29272 | 90° | 159km/h | 9995m | -7.9m/s | -39.4°C | 36.1% | 278.4hPa | 2.5V | 03:02:00 | 02:37:05 | 00:00:00 | |
| DF8AY-15 | 2026-09-04 12:44:46 | 52.78132 | 12.29204 | 90° | 161km/h | 10002m | -7.6m/s | -39.5°C | 36.1% | 278.1hPa | 2.5V | 00:00:00 | 02:37:04 | 00:00:00 | |
| DH5RUM-10 | 2026-09-04 12:44:45 | 52.78132 | 12.29204 | 90° | 162km/h | 10002m | -7.7m/s | -39.5°C | 32.0% | 278.1hPa | 2.6V | 03:03:00 | 00:00:00 | 00:00:00 | |
| DO2SHX-10 | 2026-09-04 12:44:44 | 52.78131 | 12.29069 | 90° | 161km/h | 10018m | -8.4m/s | -39.6°C | 35.6% | 277.5hPa | 2.6V | 00:00:00 | 02:37:02 | 00:00:00 | |
| DL1XH-15 | 2026-09-04 12:44:43 | 52.78127 | 12.28666 | 88° | 162km/h | 10068m | -7.8m/s | -40.1°C | 34.5% | 275.5hPa | 2.6V | 03:03:07 | 02:36:56 | 00:00:00 | |
| DL1XH-west | 2026-09-04 12:44:41 | 52.78129 | 12.28868 | 89° | 161km/h | 10043m | -8.7m/s | -39.9°C | 37.8% | 276.5hPa | 2.5V | 03:03:39 | 02:36:59 | 00:00:00 | |
| DB0DAN | 2026-09-04 12:44:40 | 52.78129 | 12.28801 | 89° | 155km/h | 10052m | -8.9m/s | -40°C | 30.6% | 276.07hPa | 2.5V | 00:00:00 | 00:00:00 | 00:00:00 | |
| DF8AY | 2026-09-04 12:44:38 | 52.78127 | 12.28666 | 89° | 162km/h | 10068m | -7.8m/s | -40.1°C | 37.5% | 275.5hPa | 2.6V | 03:03:39 | 02:36:56 | 00:00:00 | |
| DL1XH1-15 | 2026-09-04 12:44:38 | 52.78125 | 12.28462 | 89° | 161km/h | 10092m | -8.3m/s | -40.3°C | 34.2% | 274.6hPa | 2.5V | 03:03:10 | 02:36:53 | 00:00:00 | |
| BIOWL1-15 | 2026-09-04 12:44:37 | 52.78126 | 12.28598 | 89° | 162km/h | 10075m | -7.7m/s | -40.2°C | 37.2% | 275.2hPa | 2.6V | 03:03:39 | 02:36:55 | 00:00:00 | |
| DO2SHX-10 | 2026-09-04 12:44:35 | 52.78125 | 12.28462 | 90° | 161km/h | 10092m | -8.2m/s | -40.2°C | 34.2% | 274.5hPa | 2.5V | 03:03:00 | 02:36:53 | 00:00:00 | |
| DF2AP-13 | 2026-09-04 12:44:34 | 52.78125 | 12.28395 | 91° | 159km/h | 10100m | -7.7m/s | -40.3°C | 34.3% | 274.1hPa | 2.5V | 00:00:00 | 02:36:52 | 00:00:00 | |
| DL1XH-15 | 2026-09-04 12:44:33 | 52.78128 | 12.28000 | 89° | 157km/h | 10148m | -8.1m/s | -40.8°C | 35.5% | 272.2hPa | 2.5V | 03:03:17 | 02:36:46 | 00:00:00 | |
| DL1XH-west | 2026-09-04 12:44:30 | 52.78127 | 12.28131 | 91° | 157km/h | 10132m | -8.7m/s | -40.6°C | 37.9% | 272.9hPa | 2.5V | 03:03:39 | 02:36:48 | 00:00:00 | |
| DF8AY | 2026-09-04 12:44:28 | 52.78128 | 12.28000 | 90° | 157km/h | 10149m | -8.1m/s | -40.8°C | 38.7% | 272.3hPa | 2.5V | 03:03:39 | 02:36:46 | 00:00:00 | |
| TFSTFS | 2026-09-04 12:44:28 | 52.78128 | 12.28000 | 91° | 157km/h | 10149m | -8.1m/s | -40.8°C | 31.3% | 272.3hPa | 2.5V | 03:03:00 | 00:00:00 | 00:00:00 | |
| DM0DOS-11 | 2026-09-04 12:44:27 | 52.78123 | 12.27606 | 88° | 157km/h | 10198m | -8m/s | -41.3°C | 37.3% | 270.4hPa | 2.5V | 03:03:23 | 02:36:40 | 00:00:00 | |
| AA1-15 | 2026-09-04 12:44:27 | 52.78127 | 12.27934 | 90° | 157km/h | 10157m | -8.5m/s | -40.8°C | 39% | 272hPa | 2.6V | 03:03:39 | 02:36:45 | 00:00:00 | |
| BIOWL1-15 | 2026-09-04 12:44:26 | 52.78126 | 12.27737 | 89° | 159km/h | 10182m | -8.3m/s | -41.1°C | 39.9% | 271hPa | 2.5V | 03:03:39 | 02:36:42 | 00:00:00 | |
| DB0DAN | 2026-09-04 12:44:25 | 52.78126 | 12.27803 | 89° | 150km/h | 10173m | -8.6m/s | -41°C | 32% | 271.3hPa | 2.6V | 00:00:00 | 00:00:00 | 00:00:00 | |
| DH5RUM-10 | 2026-09-04 12:44:24 | 52.78127 | 12.27803 | 90° | 157km/h | 10173m | -8.6m/s | -41.0°C | 32.0% | 271.3hPa | 2.6V | 03:03:00 | 00:00:00 | 00:00:00 | |
| EDDB2-11 | 2026-09-04 12:44:23 | 52.78124 | 12.27606 | 88° | 157km/h | 10198m | -8.0m/s | -41.3°C | 32.8% | 270.4hPa | 2.6V | 00:00:00 | 00:00:00 | 00:00:00 | |
| DL1XH1-15 | 2026-09-04 12:44:20 | 52.78127 | 12.27145 | 92° | 161km/h | 10253m | -8.1m/s | -41.7°C | 39.1% | 268.2hPa | 2.6V | 03:03:30 | 02:36:33 | 00:00:00 | |
| DL1XH-west | 2026-09-04 12:44:20 | 52.78123 | 12.27474 | 90° | 157km/h | 10213m | -8.1m/s | -41.4°C | 40.9% | 269.7hPa | 2.6V | 03:03:39 | 02:36:38 | 00:00:00 | |
| DM0DOS-11 | 2026-09-04 12:44:17 | 52.78132 | 12.26944 | 92° | 161km/h | 10275m | -7.8m/s | -42°C | 39.8% | 267.2hPa | 2.5V | 03:03:33 | 02:36:30 | 00:00:00 | |
| AA1-15 | 2026-09-04 12:44:16 | 52.78125 | 12.27211 | 92° | 159km/h | 10245m | -8.6m/s | -41.7°C | 42% | 268.4hPa | 2.5V | 03:03:39 | 02:36:34 | 00:00:00 | |
| BIOWL1-15 | 2026-09-04 12:44:13 | 52.78130 | 12.27011 | 92° | 161km/h | 10268m | -7.2m/s | -41.9°C | 42.8% | 267.5hPa | 2.6V | 03:03:39 | 02:36:31 | 00:00:00 | |
| SMARD9-10 | 2026-09-04 12:44:13 | 52.78130 | 12.27011 | 93° | 161km/h | 10268m | -7.2m/s | -41.9°C | 34.9% | 267.5hPa | 2.5V | 03:03:00 | 00:00:00 | 00:00:00 | |
| DB0DAN | 2026-09-04 12:44:10 | 52.78135 | 12.26809 | 92° | 155km/h | 10292m | -8.6m/s | -42.1°C | 35.4% | 266.64hPa | 2.5V | 00:00:00 | 00:00:00 | 00:00:00 | |
| DL1XH-west | 2026-09-04 12:44:09 | 52.78137 | 12.26741 | 92° | 162km/h | 10300m | -8.3m/s | -42.2°C | 43.6% | 266.2hPa | 2.6V | 03:03:39 | 02:36:27 | 00:00:00 | |
| DO2SHX-10 | 2026-09-04 12:44:08 | 52.78138 | 12.26674 | 92° | 161km/h | 10309m | -8.7m/s | -42.2°C | 40.7% | 265.9hPa | 2.6V | 00:00:00 | 02:36:26 | 00:00:00 | |
| DM0DOS-11 | 2026-09-04 12:44:06 | 52.78145 | 12.26212 | 92° | 157km/h | 10365m | -8.2m/s | -42.8°C | 42.3% | 263.7hPa | 2.6V | 03:03:44 | 02:36:19 | 00:00:00 | |
| AA1-15 | 2026-09-04 12:44:05 | 52.78140 | 12.26474 | 91° | 159km/h | 10333m | -8.1m/s | -42.5°C | 44.6% | 265hPa | 2.5V | 03:04:30 | 02:36:23 | 00:00:00 | |
| BIOWL1-15 | 2026-09-04 12:44:02 | 52.78143 | 12.26277 | 92° | 157km/h | 10357m | -8.5m/s | -42.7°C | 45.2% | 264hPa | 2.6V | 03:04:30 | 02:36:20 | 00:00:00 | |
| DO2SHX-10 | 2026-09-04 12:44:02 | 52.78143 | 12.26277 | 93° | 157km/h | 10357m | -8.5m/s | -42.7°C | 42.0% | 263.9hPa | 2.6V | 00:00:00 | 02:36:20 | 00:00:00 | |
| DL1XH1-15 | 2026-09-04 12:44:00 | 52.78160 | 12.25811 | 94° | 162km/h | 10415m | -8.5m/s | -43.3°C | 43.4% | 261.7hPa | 2.6V | 03:03:50 | 02:36:13 | 00:00:00 | |
| DL1XH-west | 2026-09-04 12:43:58 | 52.78152 | 12.26013 | 94° | 161km/h | 10390m | -8.6m/s | -43°C | 46.1% | 262.7hPa | 2.5V | 03:04:30 | 02:36:16 | 00:00:00 | |
| DM0DOS-11 | 2026-09-04 12:43:56 | 52.78173 | 12.25541 | 94° | 162km/h | 10449m | -9m/s | -43.5°C | 43.6% | 260.4hPa | 2.6V | 03:03:54 | 02:36:09 | 00:00:00 | |
| DB0DAN | 2026-09-04 12:43:55 | 52.78160 | 12.25811 | 94° | 155km/h | 10415m | -8.5m/s | -43.3°C | 38.2% | 261.68hPa | 2.6V | 00:00:00 | 00:00:00 | 00:00:00 | |
| DF8AY | 2026-09-04 12:43:54 | 52.78180 | 12.25407 | 95° | 159km/h | 10466m | -8.9m/s | -43.7°C | 47.3% | 259.8hPa | 2.6V | 03:04:30 | 02:36:07 | 00:00:00 | |
| AA1-15 | 2026-09-04 12:43:54 | 52.78163 | 12.25744 | 95° | 162km/h | 10424m | -8.2m/s | -43.3°C | 46.7% | 261.4hPa | 2.5V | 03:04:30 | 02:36:12 | 00:00:00 | |
| BIOWL1-15 | 2026-09-04 12:43:54 | 52.78170 | 12.25609 | 95° | 164km/h | 10440m | -8.6m/s | -43.5°C | 46.9% | 260.8hPa | 2.5V | 03:04:30 | 02:36:10 | 00:00:00 | |
| EDDB2-11 | 2026-09-04 12:43:52 | 52.78173 | 12.25541 | 94° | 162km/h | 10449m | -9.0m/s | -43.5°C | 38.4% | 260.4hPa | 2.6V | 00:00:00 | 00:00:00 | 00:00:00 | |
| DL1XH1-15 | 2026-09-04 12:43:50 | 52.78192 | 12.25142 | 94° | 157km/h | 10502m | -8.5m/s | -44°C | 44.8% | 258.3hPa | 2.6V | 03:04:00 | 02:36:03 | 00:00:00 | |
| DL1XH-west | 2026-09-04 12:43:47 | 52.78186 | 12.25274 | 95° | 159km/h | 10485m | -9.9m/s | -43.8°C | 47.6% | 259.1hPa | 2.5V | 03:04:30 | 02:36:05 | 00:00:00 | |
| SONCRA | 2026-09-04 12:43:46 | 52.78192 | 12.25142 | 94° | 157km/h | 10502m | -8.5m/s | -44.0°C | 39.4% | 258.4hPa | 2.6V | 00:00:00 | 00:00:00 | 00:00:00 | |
| AA1-15 | 2026-09-04 12:43:43 | 52.78198 | 12.25011 | 93° | 159km/h | 10519m | -8.6m/s | -44.1°C | 48.2% | 257.8hPa | 2.6V | 03:04:30 | 02:36:01 | 00:00:00 | |
| DL1XH-15 | 2026-09-04 12:43:43 | 52.78210 | 12.24675 | 94° | 164km/h | 10558m | -8.1m/s | -44.5°C | 46.7% | 256.1hPa | 2.6V | 03:04:07 | 02:35:56 | 00:00:00 | |
| DM0DOS-11 | 2026-09-04 12:43:42 | 52.78204 | 12.24811 | 93° | 162km/h | 10543m | -8.1m/s | -44.3°C | 45.9% | 256.8hPa | 2.5V | 03:04:05 | 02:35:58 | 00:00:00 | |
| BIOWL1-15 | 2026-09-04 12:43:42 | 52.78200 | 12.24945 | 93° | 159km/h | 10527m | -8.3m/s | -44.2°C | 48.3% | 257.4hPa | 2.5V | 03:04:30 | 02:36:00 | 00:00:00 | |
| DB0DAN | 2026-09-04 12:43:40 | 52.78204 | 12.24811 | 93° | 155km/h | 10543m | -8.1m/s | -44.3°C | 40.3% | 256.79hPa | 2.5V | 00:00:00 | 00:00:00 | 00:00:00 | |
| DL1XH1-15 | 2026-09-04 12:43:40 | 52.78219 | 12.24472 | 94° | 162km/h | 10584m | -8.9m/s | -44.7°C | 48.5% | 255.3hPa | 2.5V | 03:04:10 | 02:35:53 | 00:00:00 | |
| DF8AY | 2026-09-04 12:43:38 | 52.78226 | 12.24337 | 95° | 164km/h | 10601m | -9.4m/s | -44.9°C | 54% | 254.6hPa | 2.6V | 03:04:30 | 02:35:51 | 00:00:00 | |
| DL1XH-west | 2026-09-04 12:43:36 | 52.78216 | 12.24539 | 95° | 162km/h | 10575m | -8.5m/s | -44.6°C | 51.5% | 255.5hPa | 2.5V | 03:04:30 | 02:35:54 | 00:00:00 | |
| DM0DOS-11 | 2026-09-04 12:43:35 | 52.78238 | 12.24133 | 95° | 164km/h | 10630m | -10.1m/s | -45.1°C | 53% | 253.5hPa | 2.5V | 03:04:15 | 02:35:48 | 00:00:00 | |
| AA1-15 | 2026-09-04 12:43:32 | 52.78230 | 12.24269 | 96° | 164km/h | 10610m | -9.3m/s | -45°C | 54.7% | 254.2hPa | 2.6V | 03:04:30 | 02:35:50 | 00:00:00 | |
| BIOWL1-15 | 2026-09-04 12:43:31 | 52.78234 | 12.24201 | 96° | 164km/h | 10620m | -10.6m/s | -45°C | 55.7% | 253.9hPa | 2.6V | 03:04:30 | 02:35:49 | 00:00:00 | |
| DL1XH1-15 | 2026-09-04 12:43:31 | 52.78256 | 12.23794 | 93° | 161km/h | 10677m | -9.3m/s | -45.5°C | 56.4% | 251.8hPa | 2.6V | 03:04:20 | 02:35:43 | 00:00:00 | |
| DL1XH-15 | 2026-09-04 12:43:31 | 52.78246 | 12.23997 | 95° | 164km/h | 10649m | -9m/s | -45.3°C | 54.8% | 252.7hPa | 2.5V | 03:04:17 | 02:35:46 | 00:00:00 | |
| DL1XH-west | 2026-09-04 12:43:25 | 52.78256 | 12.23794 | 94° | 162km/h | 10677m | -9.3m/s | -45.6°C | 59.4% | 251.8hPa | 2.6V | 03:04:30 | 02:35:43 | 00:00:00 | |
| DB0DAN | 2026-09-04 12:43:25 | 52.78256 | 12.23794 | 94° | 153km/h | 10677m | -9.3m/s | -45.6°C | 49.8% | 251.75hPa | 2.6V | 00:00:00 | 00:00:00 | 00:00:00 | |
| DF8AY | 2026-09-04 12:43:23 | 52.78262 | 12.23660 | 94° | 161km/h | 10695m | -8.4m/s | -45.7°C | 60.4% | 251.1hPa | 2.5V | 03:04:30 | 02:35:41 | 00:00:00 | |
| DL1XH-15 | 2026-09-04 12:43:23 | 52.78283 | 12.23327 | 97° | 162km/h | 10738m | -8.8m/s | -46.1°C | 59.3% | 249.4hPa | 2.5V | 03:04:27 | 02:35:36 | 00:00:00 | |
| BIOWL1-15 | 2026-09-04 12:43:21 | 52.78269 | 12.23527 | 95° | 161km/h | 10712m | -9m/s | -45.9°C | 61.1% | 250.4hPa | 2.6V | 03:04:30 | 02:35:39 | 00:00:00 | |
| EDDB2-11 | 2026-09-04 12:43:21 | 52.78273 | 12.23460 | 96° | 161km/h | 10721m | -8.9m/s | -46.0°C | 52.0% | 250.0hPa | 2.6V | 00:00:00 | 00:00:00 | 00:00:00 | |
| DL1XH1-15 | 2026-09-04 12:43:20 | 52.78299 | 12.23125 | 97° | 162km/h | 10764m | -9.2m/s | -46.3°C | 59.9% | 248.4hPa | 2.6V | 03:04:30 | 02:35:33 | 00:00:00 | |
| DF8AY | 2026-09-04 12:43:14 | 52.78309 | 12.22990 | 96° | 164km/h | 10782m | -8.7m/s | -46.5°C | 62.9% | 247.8hPa | 2.5V | 03:05:21 | 02:35:31 | 00:00:00 | |
| BIOWL1-15 | 2026-09-04 12:43:10 | 52.78321 | 12.22787 | 95° | 162km/h | 10809m | -8.8m/s | -46.8°C | 62.4% | 246.8hPa | 2.6V | 03:05:21 | 02:35:28 | 00:00:00 | |
| DB0DAN | 2026-09-04 12:43:10 | 52.78321 | 12.22787 | 95° | 155km/h | 10809m | -8.8m/s | -46.8°C | 52.1% | 246.75hPa | 2.6V | 00:00:00 | 00:00:00 | 00:00:00 | |
| DF8AY | 2026-09-04 12:43:03 | 52.78345 | 12.22314 | 95° | 162km/h | 10876m | -9.2m/s | -47.4°C | 60% | 244.4hPa | 2.6V | 03:05:21 | 02:35:21 | 00:00:00 | |
| DM0DOS-11 | 2026-09-04 12:43:02 | 52.78359 | 12.22047 | 94° | 161km/h | 10912m | -9.2m/s | -47.7°C | 56.5% | 243hPa | 2.5V | 03:04:46 | 02:35:17 | 00:00:00 | |
| AA1-15 | 2026-09-04 12:43:00 | 52.78356 | 12.22114 | 95° | 161km/h | 10903m | -8.4m/s | -47.6°C | 59.4% | 243.3hPa | 2.5V | 03:05:21 | 02:35:18 | 00:00:00 | |
| DO2SHX-10 | 2026-09-04 12:42:59 | 52.78359 | 12.22047 | 95° | 159km/h | 10912m | -9.2m/s | -47.6°C | 56.5% | 242.9hPa | 2.5V | 03:04:00 | 02:35:17 | 00:00:00 | |
| DB0DAN | 2026-09-04 12:42:55 | 52.78371 | 12.21782 | 93° | 151km/h | 10947m | -8.8m/s | -47.9°C | 48.6% | 241.72hPa | 2.5V | 00:00:00 | 00:00:00 | 00:00:00 | |
| DL1XH-west | 2026-09-04 12:42:53 | 52.78375 | 12.21649 | 93° | 161km/h | 10963m | -9.1m/s | -48.1°C | 58.7% | 241.1hPa | 2.5V | 03:05:21 | 02:35:11 | 00:00:00 | |
| DF8AY | 2026-09-04 12:42:52 | 52.78377 | 12.21583 | 93° | 161km/h | 10972m | -9m/s | -48.2°C | 58.6% | 240.8hPa | 2.6V | 03:05:21 | 02:35:10 | 00:00:00 | |
| DM0DOS-11 | 2026-09-04 12:42:52 | 52.78384 | 12.21383 | 93° | 159km/h | 11000m | -9.1m/s | -48.4°C | 55.1% | 239.8hPa | 2.5V | 03:04:56 | 02:35:07 | 00:00:00 | |
| AA1-15 | 2026-09-04 12:42:49 | 52.78384 | 12.21384 | 93° | 159km/h | 11000m | -9.1m/s | -48.4°C | 58.6% | 239.8hPa | 2.5V | 03:05:21 | 02:35:07 | 00:00:00 | |
| BIOWL1-15 | 2026-09-04 12:42:47 | 52.78389 | 12.21252 | 93° | 159km/h | 11018m | -9.4m/s | -48.6°C | 58.5% | 239.1hPa | 2.6V | 03:05:21 | 02:35:05 | 00:00:00 | |
| DL1XH-west | 2026-09-04 12:42:43 | 52.78401 | 12.20923 | 93° | 159km/h | 11065m | -9m/s | -49°C | 58.2% | 237.3hPa | 2.5V | 03:05:21 | 02:35:00 | 00:00:00 | |
| DM0DOS-11 | 2026-09-04 12:42:42 | 52.78406 | 12.20726 | 92° | 157km/h | 11093m | -9.1m/s | -49.2°C | 54.4% | 236.4hPa | 2.6V | 03:05:06 | 02:34:57 | 00:00:00 | |
| DF8AY | 2026-09-04 12:42:42 | 52.78402 | 12.20857 | 93° | 159km/h | 11074m | -9.7m/s | -49.1°C | 58.1% | 237.1hPa | 2.5V | 03:05:21 | 02:34:59 | 00:00:00 | |
| AA1-15 | 2026-09-04 12:42:39 | 52.78406 | 12.20726 | 93° | 157km/h | 11093m | -9.1m/s | -49.2°C | 57.8% | 236.4hPa | 2.6V | 03:05:21 | 02:34:57 | 00:00:00 | |
| BIOWL1-15 | 2026-09-04 12:42:36 | 52.78412 | 12.20530 | 93° | 157km/h | 11120m | -9.5m/s | -49.5°C | 57.7% | 235.3hPa | 2.5V | 03:05:21 | 02:34:54 | 00:00:00 | |
| DL1XH-west | 2026-09-04 12:42:32 | 52.78421 | 12.20266 | 94° | 161km/h | 11159m | -9.7m/s | -49.8°C | 58.6% | 234hPa | 2.6V | 03:05:21 | 02:34:50 | 00:00:00 | |
| DF8AY | 2026-09-04 12:42:31 | 52.78424 | 12.20199 | 93° | 161km/h | 11169m | -9.9m/s | -49.9°C | 58.9% | 233.6hPa | 2.5V | 03:05:21 | 02:34:49 | 00:00:00 | |
| DM0DOS-11 | 2026-09-04 12:42:30 | 52.78428 | 12.20067 | 93° | 159km/h | 11189m | -9.8m/s | -50.1°C | 55.9% | 232.9hPa | 2.5V | 03:05:16 | 02:34:47 | 00:00:00 | |
| DL1XH-15 | 2026-09-04 12:42:30 | 52.78431 | 12.20001 | 92° | 159km/h | 11198m | -9.6m/s | -50.2°C | 56.3% | 232.7hPa | 2.6V | 03:05:17 | 02:34:46 | 00:00:00 | |
| BIOWL1-15 | 2026-09-04 12:42:30 | 52.78435 | 12.19870 | 93° | 159km/h | 11217m | -9.2m/s | -50.4°C | 60.4% | 232hPa | 2.6V | 03:05:21 | 02:34:44 | 00:00:00 | |
| DO2SHX-10 | 2026-09-04 12:42:29 | 52.78428 | 12.20067 | 94° | 159km/h | 11189m | -9.8m/s | -50.1°C | 55.9% | 232.9hPa | 2.5V | 00:00:00 | 02:34:47 | 00:00:00 | |
| AA1-15 | 2026-09-04 12:42:29 | 52.78428 | 12.20067 | 94° | 159km/h | 11189m | -9.8m/s | -50.1°C | 59.6% | 233hPa | 2.5V | 03:05:21 | 02:34:47 | 00:00:00 | |
| DF7ER-10 | 2026-09-04 12:42:26 | 52.78435 | 12.19869 | 94° | 159km/h | 11217m | -9.2m/s | -50.4°C | 49.1% | 232.0hPa | 2.6V | 03:05:00 | 00:00:00 | 00:00:00 | |
| DL1XH-15 | 2026-09-04 12:42:23 | 52.78442 | 12.19343 | 90° | 161km/h | 11297m | -8.9m/s | -51.1°C | 58.3% | 229.1hPa | 2.6V | 03:05:27 | 02:34:36 | 00:00:00 | |
| DL1XH-west | 2026-09-04 12:42:22 | 52.78440 | 12.19608 | 91° | 157km/h | 11257m | -10.3m/s | -50.8°C | 61.1% | 230.6hPa | 2.6V | 03:06:12 | 02:34:40 | 00:00:00 | |
| DF8AY | 2026-09-04 12:42:21 | 52.78441 | 12.19410 | 91° | 161km/h | 11287m | -9.7m/s | -51°C | 61.7% | 229.4hPa | 2.5V | 03:06:12 | 02:34:37 | 00:00:00 | |
| DM0DOS-11 | 2026-09-04 12:42:20 | 52.78441 | 12.19410 | 91° | 161km/h | 11287m | -9.7m/s | -51°C | 58.1% | 229.4hPa | 2.5V | 03:05:26 | 02:34:37 | 00:00:00 | |
| AA1-15 | 2026-09-04 12:42:18 | 52.78442 | 12.19343 | 91° | 161km/h | 11297m | -8.9m/s | -51.1°C | 61.8% | 229.1hPa | 2.6V | 03:06:12 | 02:34:36 | 00:00:00 | |
| BIOWL1-15 | 2026-09-04 12:42:15 | 52.78444 | 12.19142 | 91° | 161km/h | 11326m | -10.1m/s | -51.4°C | 63.4% | 228.1hPa | 2.5V | 03:06:12 | 02:34:33 | 00:00:00 | |
| DL1XH-west | 2026-09-04 12:42:11 | 52.78448 | 12.18808 | 91° | 159km/h | 11377m | -10.2m/s | -51.9°C | 66.8% | 226.3hPa | 2.6V | 03:06:12 | 02:34:28 | 00:00:00 | |
| DF8AY | 2026-09-04 12:42:11 | 52.78449 | 12.18742 | 92° | 161km/h | 11386m | -10.4m/s | -52°C | 67.3% | 226hPa | 2.6V | 03:06:12 | 02:34:27 | 00:00:00 | |
| DL1XH1-15 | 2026-09-04 12:42:10 | 52.78455 | 12.18479 | 91° | 157km/h | 11428m | -10.7m/s | -52.3°C | 65.6% | 224.5hPa | 2.6V | 03:05:40 | 02:34:23 | 00:00:00 | |
| DB0DAN | 2026-09-04 12:42:10 | 52.78448 | 12.18808 | 91° | 151km/h | 11377m | -10.2m/s | -51.9°C | 54.8% | 226.32hPa | 2.6V | 00:00:00 | 00:00:00 | 00:00:00 | |
| DL1XH-15 | 2026-09-04 12:42:10 | 52.78450 | 12.18675 | 92° | 159km/h | 11397m | -10.2m/s | -52.1°C | 64.6% | 225.6hPa | 2.5V | 03:05:37 | 02:34:26 | 00:00:00 | |
| AA1-15 | 2026-09-04 12:42:07 | 52.78452 | 12.18610 | 92° | 159km/h | 11407m | -10.6m/s | -52.2°C | 68.4% | 225.2hPa | 2.5V | 03:06:12 | 02:34:25 | 00:00:00 | |
| BIOWL1-15 | 2026-09-04 12:42:04 | 52.78453 | 12.18147 | 89° | 159km/h | 11480m | -9.9m/s | -52.8°C | 68.3% | 222.8hPa | 2.5V | 03:06:12 | 02:34:18 | 00:00:00 | |
| DL1XH-west | 2026-09-04 12:42:01 | 52.78454 | 12.18214 | 89° | 159km/h | 11470m | -10.2m/s | -52.7°C | 68.6% | 223.1hPa | 2.5V | 03:06:12 | 02:34:19 | 00:00:00 | |
| DF8AY | 2026-09-04 12:41:59 | 52.78452 | 12.18081 | 89° | 161km/h | 11489m | -10.6m/s | -52.9°C | 68% | 222.4hPa | 2.6V | 03:06:12 | 02:34:17 | 00:00:00 | |
| AA1-15 | 2026-09-04 12:41:56 | 52.78451 | 12.17880 | 90° | 161km/h | 11520m | -10.5m/s | -53.2°C | 66.9% | 221.3hPa | 2.5V | 03:06:12 | 02:34:14 | 00:00:00 | |
| DB0DAN | 2026-09-04 12:41:55 | 52.78450 | 12.17813 | 89° | 153km/h | 11531m | -10.1m/s | -53.3°C | 54% | 221.03hPa | 2.5V | 00:00:00 | 00:00:00 | 00:00:00 | |
| BIOWL1-15 | 2026-09-04 12:41:53 | 52.78450 | 12.17676 | 90° | 164km/h | 11551m | -10.1m/s | -53.5°C | 65.7% | 220.2hPa | 2.6V | 03:06:12 | 02:34:11 | 00:00:00 | |
| DO2SHX-10 | 2026-09-04 12:41:53 | 52.78450 | 12.17676 | 90° | 166km/h | 11551m | -10.1m/s | -53.5°C | 61.9% | 220.2hPa | 2.6V | 00:00:00 | 02:34:11 | 00:00:00 | |
| AM1SDL-15 | 2026-09-04 12:41:52 | 52.78450 | 12.17607 | 91° | 162km/h | 11561m | -10.4m/s | -53.5°C | 61.4% | 219.9hPa | 2.6V | 00:00:00 | 02:34:10 | 00:00:00 | |
| DD8BA-10 | 2026-09-04 12:41:51 | 52.78451 | 12.17538 | 90° | 161km/h | 11571m | -10.2m/s | -53.6°C | 61.5% | 219.5hPa | 2.6V | 00:00:00 | 00:00:00 | 00:00:00 | |
| DL1XH-west | 2026-09-04 12:41:51 | 52.78451 | 12.17469 | 90° | 168km/h | 11581m | -10.4m/s | -53.8°C | 65% | 219.3hPa | 2.5V | 03:06:12 | 02:34:08 | 00:00:00 | |
| DL1XH1-15 | 2026-09-04 12:41:50 | 52.78452 | 12.17127 | 89° | 159km/h | 11634m | -10.5m/s | -54.2°C | 61.2% | 217.5hPa | 2.6V | 03:06:00 | 02:34:03 | 00:00:00 | |
| DF8AY | 2026-09-04 12:41:48 | 52.78451 | 12.17330 | 90° | 164km/h | 11602m | -10.6m/s | -54°C | 65% | 218.6hPa | 2.6V | 03:06:12 | 02:34:06 | 00:00:00 | |
| AA1-15 | 2026-09-04 12:41:45 | 52.78452 | 12.17127 | 90° | 159km/h | 11634m | -10.5m/s | -54.3°C | 64.5% | 217.5hPa | 2.6V | 03:06:12 | 02:34:03 | 00:00:00 | |
| BIOWL9-15 | 2026-09-04 12:41:45 | 52.78452 | 12.17127 | 89° | 159km/h | 11634m | -10.5m/s | -54.3°C | 52.3% | 217.5hPa | 2.5V | 00:00:00 | 00:00:00 | 00:00:00 | |
| DO2SHX-10 | 2026-09-04 12:41:44 | 52.78451 | 12.17060 | 90° | 157km/h | 11645m | -10.8m/s | -54.3°C | 60.9% | 217.1hPa | 2.5V | 00:00:00 | 02:34:02 | 00:00:00 | |
| DL1XH-15 | 2026-09-04 12:41:43 | 52.78450 | 12.16663 | 89° | 162km/h | 11709m | -10.7m/s | -54.9°C | 59.9% | 215hPa | 2.5V | 03:06:07 | 02:33:56 | 00:00:00 | |
| DF7ER-10 | 2026-09-04 12:41:43 | 52.78451 | 12.16994 | 91° | 159km/h | 11656m | -11.0m/s | -54.5°C | 51.7% | 216.8hPa | 2.6V | 03:06:00 | 00:00:00 | 00:00:00 | |
| DM0DOS-11 | 2026-09-04 12:41:42 | 52.78451 | 12.16863 | 88° | 159km/h | 11678m | -10.6m/s | -54.6°C | 60.1% | 216.1hPa | 2.6V | 03:06:04 | 02:33:59 | 00:00:00 | |
| BIOWL1-15 | 2026-09-04 12:41:42 | 52.78452 | 12.16929 | 89° | 157km/h | 11667m | -10.8m/s | -54.5°C | 63.5% | 216.4hPa | 2.6V | 03:06:12 | 02:34:00 | 00:00:00 | |
| DB0UT-7 | 2026-09-04 12:41:42 | 52.78451 | 12.16929 | 90° | 159km/h | 11667m | -10.8m/s | -54.5°C | 60.3% | 216.4hPa | 2.6V | 03:06:00 | 02:34:00 | 00:00:00 | |
| DB0DAN | 2026-09-04 12:41:40 | 52.78451 | 12.16797 | 90° | 151km/h | 11689m | -10.9m/s | -54.7°C | 51% | 215.7hPa | 2.6V | 00:00:00 | 00:00:00 | 00:00:00 | |
| DL1XH1-15 | 2026-09-04 12:41:40 | 52.78449 | 12.16460 | 89° | 162km/h | 11740m | -9.5m/s | -55.2°C | 60.7% | 213.8hPa | 2.6V | 03:06:10 | 02:33:53 | 00:00:00 | |
| DL1XH-west | 2026-09-04 12:41:39 | 52.78451 | 12.16730 | 89° | 162km/h | 11699m | -10.2m/s | -54.8°C | 63% | 215.3hPa | 2.6V | 03:06:12 | 02:33:57 | 00:00:00 | |
| DF8AY | 2026-09-04 12:41:37 | 52.78450 | 12.16595 | 90° | 162km/h | 11720m | -11m/s | -55°C | 63.1% | 214.6hPa | 2.5V | 03:06:12 | 02:33:55 | 00:00:00 | |
| AA1-15 | 2026-09-04 12:41:35 | 52.78449 | 12.16460 | 90° | 162km/h | 11740m | -9.5m/s | -55.2°C | 63.4% | 213.8hPa | 2.6V | 03:06:12 | 02:33:53 | 00:00:00 | |
| BIOWL1-15 | 2026-09-04 12:41:34 | 52.78448 | 12.16258 | 89° | 161km/h | 11770m | -10.4m/s | -55.5°C | 64.3% | 212.9hPa | 2.5V | 03:07:03 | 02:33:50 | 00:00:00 | |
| DF2AP-13 | 2026-09-04 12:41:33 | 52.78448 | 12.16325 | 90° | 161km/h | 11760m | -9.9m/s | -55.3°C | 61.3% | 213.2hPa | 2.6V | 00:00:00 | 02:33:51 | 00:00:00 | |
| DM0DOS-11 | 2026-09-04 12:41:32 | 52.78447 | 12.16191 | 88° | 159km/h | 11781m | -10.7m/s | -55.6°C | 61.9% | 212.5hPa | 2.6V | 03:06:14 | 02:33:49 | 00:00:00 | |
| DF7ER-10 | 2026-09-04 12:41:32 | 52.78448 | 12.16258 | 90° | 161km/h | 11770m | -10.4m/s | -55.5°C | 52.3% | 212.9hPa | 2.6V | 03:07:00 | 00:00:00 | 00:00:00 | |
| DD8BA-10 | 2026-09-04 12:41:31 | 52.78447 | 12.16191 | 89° | 159km/h | 11781m | -10.7m/s | -55.5°C | 61.9% | 212.4hPa | 2.6V | 00:00:00 | 00:00:00 | 00:00:00 | |
| DL1XH1-15 | 2026-09-04 12:41:30 | 52.78441 | 12.15797 | 87° | 157km/h | 11845m | -11.3m/s | -56.2°C | 63.4% | 210.3hPa | 2.5V | 03:06:20 | 02:33:43 | 00:00:00 | |
| DL1XH-15 | 2026-09-04 12:41:30 | 52.78445 | 12.15993 | 87° | 157km/h | 11812m | -11.1m/s | -55.9°C | 62.2% | 211.4hPa | 2.6V | 03:06:17 | 02:33:46 | 00:00:00 | |
| DL1XH-west | 2026-09-04 12:41:29 | 52.78445 | 12.15993 | 88° | 159km/h | 11812m | -11.1m/s | -55.9°C | 65.3% | 211.4hPa | 2.6V | 03:07:03 | 02:33:46 | 00:00:00 | |
| DF8AY | 2026-09-04 12:41:27 | 52.78444 | 12.15928 | 88° | 159km/h | 11823m | -11.4m/s | -56°C | 65.5% | 211.1hPa | 2.6V | 03:07:03 | 02:33:45 | 00:00:00 | |
| DB0DAN | 2026-09-04 12:41:25 | 52.78441 | 12.15797 | 88° | 150km/h | 11845m | -11.3m/s | -56.2°C | 53.8% | 210.33hPa | 2.5V | 00:00:00 | 00:00:00 | 00:00:00 | |
| AA1-15 | 2026-09-04 12:41:24 | 52.78440 | 12.15731 | 88° | 159km/h | 11856m | -11.3m/s | -56.3°C | 66.4% | 210hPa | 2.6V | 03:07:03 | 02:33:42 | 00:00:00 | |
| DO2SHX-10 | 2026-09-04 12:41:23 | 52.78438 | 12.15665 | 88° | 159km/h | 11867m | -11.2m/s | -56.3°C | 64.2% | 209.6hPa | 2.6V | 03:06:00 | 02:33:41 | 00:00:00 | |
| DM0DOS-11 | 2026-09-04 12:41:22 | 52.78435 | 12.15533 | 87° | 161km/h | 11889m | -10.8m/s | -56.6°C | 64.9% | 208.9hPa | 2.6V | 03:06:24 | 02:33:39 | 00:00:00 | |
| TFSTFS | 2026-09-04 12:41:22 | 52.78436 | 12.15599 | 88° | 159km/h | 11878m | -10.9m/s | -56.5°C | 54.7% | 209.3hPa | 2.6V | 03:07:00 | 00:00:00 | 00:00:00 | |
| DF7ER-10 | 2026-09-04 12:41:21 | 52.78436 | 12.15599 | 88° | 159km/h | 11878m | -10.9m/s | -56.5°C | 54.8% | 209.3hPa | 2.6V | 03:07:00 | 00:00:00 | 00:00:00 | |
| DL1XH1-15 | 2026-09-04 12:41:20 | 52.78430 | 12.15126 | 87° | 164km/h | 11956m | -10.6m/s | -57.2°C | 66.5% | 206.8hPa | 2.6V | 03:06:30 | 02:33:33 | 00:00:00 | |
| DL1XH-west | 2026-09-04 12:41:18 | 52.78432 | 12.15331 | 89° | 164km/h | 11923m | -12.6m/s | -56.9°C | 68.1% | 207.8hPa | 2.6V | 03:07:03 | 02:33:36 | 00:00:00 | |
| DF8AY | 2026-09-04 12:41:17 | 52.78432 | 12.15263 | 89° | 162km/h | 11934m | -11m/s | -57°C | 68.5% | 207.5hPa | 2.6V | 03:07:03 | 02:33:35 | 00:00:00 | |
| AA1-15 | 2026-09-04 12:41:13 | 52.78427 | 12.14990 | 88° | 161km/h | 11978m | -12m/s | -57.4°C | 68.6% | 206hPa | 2.5V | 03:07:03 | 02:33:31 | 00:00:00 | |
| DB0DAN | 2026-09-04 12:41:10 | 52.78423 | 12.14790 | 88° | 151km/h | 12011m | -10.6m/s | -57.7°C | 55.6% | 204.91hPa | 2.6V | 00:00:00 | 00:00:00 | 00:00:00 | |
| DL1XH1-15 | 2026-09-04 12:41:10 | 52.78417 | 12.14452 | 87° | 161km/h | 12068m | -11.3m/s | -58.2°C | 63.6% | 203.2hPa | 2.6V | 03:06:40 | 02:33:23 | 00:00:00 | |
| BIOWL1-15 | 2026-09-04 12:41:10 | 52.78423 | 12.14790 | 88° | 159km/h | 12011m | -10.6m/s | -57.7°C | 67.5% | 204.9hPa | 2.6V | 03:07:03 | 02:33:28 | 00:00:00 | |
| DB0UT-7 | 2026-09-04 12:41:10 | 52.78423 | 12.14790 | 88° | 170km/h | 12011m | -10.6m/s | -57.7°C | 66.0% | 204.9hPa | 2.6V | 00:00:00 | 00:00:00 | 00:00:00 | |
| DL1XH-15 | 2026-09-04 12:41:09 | 52.78421 | 12.14655 | 88° | 162km/h | 12033m | -11.5m/s | -57.9°C | 65.4% | 204.2hPa | 2.5V | 03:06:37 | 02:33:26 | 00:00:00 | |
| DL1XH-west | 2026-09-04 12:41:08 | 52.78418 | 12.14519 | 88° | 164km/h | 12057m | -11.4m/s | -58.1°C | 65.4% | 203.5hPa | 2.5V | 03:07:03 | 02:33:24 | 00:00:00 | |
| DF8AY | 2026-09-04 12:41:07 | 52.78419 | 12.14588 | 88° | 162km/h | 12045m | -12m/s | -58°C | 66% | 203.9hPa | 2.5V | 03:07:03 | 02:33:25 | 00:00:00 | |
| DM0DOS-11 | 2026-09-04 12:41:06 | 52.78408 | 12.14180 | 86° | 164km/h | 12115m | -14.5m/s | -58.6°C | 62.1% | 201.7hPa | 2.5V | 03:06:44 | 02:33:19 | 00:00:00 | |
| DF8AY-15 | 2026-09-04 12:41:06 | 52.78418 | 12.14519 | 88° | 166km/h | 12057m | -11.4m/s | -58.1°C | 64.2% | 203.5hPa | 2.6V | 00:00:00 | 02:33:24 | 00:00:00 | |
| S3001 | 2026-09-04 12:41:05 | 52.78415 | 12.14385 | 86° | 161km/h | 12079m | -11.6m/s | -58.3°C | 53.0% | 202.8hPa | 2.6V | 00:00:00 | 00:00:00 | 00:00:00 | |
| AM1SDL-15 | 2026-09-04 12:41:04 | 52.78415 | 12.14384 | 87° | 162km/h | 12079m | -11.6m/s | -58.3°C | 63.2% | 202.8hPa | 2.6V | 00:00:00 | 02:33:22 | 00:00:00 | |
| DL1XH-15 | 2026-09-04 12:41:03 | 52.78400 | 12.13978 | 86° | 161km/h | 12148m | -11.2m/s | -59°C | 60.8% | 200.6hPa | 2.6V | 03:06:47 | 02:33:16 | 00:00:00 | |
| AA1-15 | 2026-09-04 12:41:02 | 52.78411 | 12.14249 | 87° | 164km/h | 12103m | -12m/s | -58.5°C | 63.1% | 202.1hPa | 2.5V | 03:07:03 | 02:33:20 | 00:00:00 | |
| DO2SHX-10 | 2026-09-04 12:41:02 | 52.78410 | 12.14249 | 87° | 164km/h | 12103m | -11.9m/s | -58.5°C | 62.7% | 202.0hPa | 2.5V | 00:00:00 | 02:33:20 | 00:00:00 | |
| DL1XH1-15 | 2026-09-04 12:41:00 | 52.78394 | 12.13774 | 87° | 162km/h | 12183m | -12.1m/s | -59.2°C | 58.6% | 199.4hPa | 2.5V | 03:06:50 | 02:33:13 | 00:00:00 | |
| DF8AY | 2026-09-04 12:40:56 | 52.78396 | 12.13842 | 87° | 162km/h | 12171m | -12.2m/s | -59.1°C | 59.3% | 199.8hPa | 2.5V | 03:07:03 | 02:33:14 | 00:00:00 | |
| DL1XH-west | 2026-09-04 12:40:55 | 52.78394 | 12.13774 | 87° | 162km/h | 12183m | -12.1m/s | -59.2°C | 58.6% | 199.4hPa | 2.5V | 03:07:03 | 02:33:13 | 00:00:00 | |
| DB0DAN | 2026-09-04 12:40:55 | 52.78394 | 12.13774 | 87° | 155km/h | 12183m | -12.1m/s | -59.2°C | 48.4% | 199.44hPa | 2.5V | 00:00:00 | 00:00:00 | 00:00:00 | |
| DH5RUM-10 | 2026-09-04 12:40:55 | 52.78394 | 12.13774 | 88° | 162km/h | 12183m | -12.1m/s | -59.2°C | 48.5% | 199.4hPa | 2.6V | 03:07:00 | 00:00:00 | 00:00:00 | |
| DL1XH-15 | 2026-09-04 12:40:53 | 52.78379 | 12.13282 | 87° | 172km/h | 12267m | -12.8m/s | -59.8°C | 55% | 196.8hPa | 2.6V | 03:06:57 | 02:33:06 | 00:00:00 | |
| AA1-15 | 2026-09-04 12:40:51 | 52.78385 | 12.13496 | 87° | 170km/h | 12230m | -12.6m/s | -59.5°C | 56.1% | 197.9hPa | 2.6V | 03:07:03 | 02:33:09 | 00:00:00 | |
| DL1XH1-15 | 2026-09-04 12:40:50 | 52.78374 | 12.13067 | 87° | 175km/h | 12302m | -12.3m/s | -59.9°C | 53.8% | 195.7hPa | 2.6V | 03:07:00 | 02:33:03 | 00:00:00 | |
| DO2SHX-10 | 2026-09-04 12:40:50 | 52.78383 | 12.13425 | 88° | 172km/h | 12243m | -13.0m/s | -59.5°C | 55.5% | 197.5hPa | 2.5V | 00:00:00 | 02:33:08 | 00:00:00 | |
| DF7ER-10 | 2026-09-04 12:40:49 | 52.78383 | 12.13425 | 88° | 173km/h | 12243m | -13.0m/s | -59.6°C | 45.6% | 197.5hPa | 2.6V | 03:07:00 | 00:00:00 | 00:00:00 | |
| DD8BA-10 | 2026-09-04 12:40:48 | 52.78379 | 12.13282 | 88° | 175km/h | 12267m | -12.7m/s | -59.7°C | 55.0% | 196.7hPa | 2.6V | 00:00:00 | 00:00:00 | 00:00:00 | |
| DB0NH | 2026-09-04 12:40:47 | 52.78377 | 12.13211 | 87° | 181km/h | 12279m | -11.3m/s | -59.8°C | 54.8% | 196.4hPa | 2.6V | 03:06:00 | 02:33:05 | 00:00:00 | |
| DM0DOS-11 | 2026-09-04 12:40:46 | 52.78369 | 12.12776 | 88° | 177km/h | 12350m | -12.2m/s | -59.9°C | 49.8% | 194.1hPa | 2.6V | 03:07:04 | 02:32:59 | 00:00:00 | |
| BIOWL1-15 | 2026-09-04 12:40:46 | 52.78375 | 12.13139 | 87° | 173km/h | 12290m | -12m/s | -59.9°C | 53.2% | 196hPa | 2.6V | 03:07:03 | 02:33:04 | 00:00:00 | |
| DL1XH-west | 2026-09-04 12:40:44 | 52.78372 | 12.12994 | 88° | 173km/h | 12314m | -12.1m/s | -59.7°C | 51.9% | 195.3hPa | 2.5V | 03:07:03 | 02:33:02 | 00:00:00 | |
| DO2SHX-10 | 2026-09-04 12:40:44 | 52.78372 | 12.12994 | 88° | 173km/h | 12314m | -12.0m/s | -59.7°C | 52.0% | 195.3hPa | 2.5V | 00:00:00 | 02:33:02 | 00:00:00 | |
| BIOWL9-15 | 2026-09-04 12:40:43 | 52.78371 | 12.12922 | 88° | 172km/h | 12326m | -13.2m/s | -59.7°C | 41.7% | 194.9hPa | 2.5V | 00:00:00 | 00:00:00 | 00:00:00 | |
| DL1XH-15 | 2026-09-04 12:40:41 | 52.78366 | 12.12551 | 88° | 183km/h | 12389m | -16.4m/s | -60.1°C | 48.3% | 193hPa | 2.5V | 03:07:07 | 02:32:56 | 00:00:00 | |
| AA1-15 | 2026-09-04 12:40:41 | 52.78369 | 12.12776 | 89° | 177km/h | 12350m | -12.2m/s | -59.9°C | 50.4% | 194.1hPa | 2.6V | 03:07:54 | 02:32:59 | 00:00:00 | |
| DB0DAN | 2026-09-04 12:40:40 | 52.78368 | 12.12701 | 88° | 173km/h | 12362m | -13.5m/s | -60°C | 39.8% | 193.75hPa | 2.6V | 00:00:00 | 00:00:00 | 00:00:00 | |
| DL1XH1-15 | 2026-09-04 12:40:40 | 52.78364 | 12.12323 | 88° | 181km/h | 12433m | -13.5m/s | -60.3°C | 48.3% | 191.6hPa | 2.6V | 03:07:10 | 02:32:53 | 00:00:00 | |
| DB0UT-7 | 2026-09-04 12:40:40 | 52.78368 | 12.12701 | 89° | 183km/h | 12362m | -13.4m/s | -59.9°C | 49.2% | 193.7hPa | 2.6V | 00:00:00 | 02:32:58 | 00:00:00 | |
| SONCRA | 2026-09-04 12:40:39 | 52.78367 | 12.12626 | 88° | 177km/h | 12375m | -13.7m/s | -60.0°C | 39.3% | 193.4hPa | 2.6V | 00:00:00 | 00:00:00 | 00:00:00 | |
| DO2SHX-10 | 2026-09-04 12:40:38 | 52.78366 | 12.12551 | 89° | 183km/h | 12390m | -16.3m/s | -60.0°C | 48.3% | 193.0hPa | 2.6V | 00:00:00 | 02:32:56 | 00:00:00 | |
| DM0DOS-11 | 2026-09-04 12:40:36 | 52.78363 | 12.12017 | 89° | 183km/h | 12492m | -16.5m/s | -60.5°C | 45.2% | 190hPa | 2.6V | 03:07:14 | 02:32:49 | 00:00:00 | |
| BIOWL1-15 | 2026-09-04 12:40:36 | 52.78365 | 12.12399 | 89° | 183km/h | 12420m | -15m/s | -60.3°C | 48.9% | 192.1hPa | 2.6V | 03:07:54 | 02:32:54 | 00:00:00 | |
| DF8AY | 2026-09-04 12:40:35 | 52.78364 | 12.12323 | 89° | 181km/h | 12433m | -13.5m/s | -60.3°C | 48.5% | 191.6hPa | 2.6V | 03:07:54 | 02:32:53 | 00:00:00 | |
| DL1XH-west | 2026-09-04 12:40:34 | 52.78363 | 12.12247 | 89° | 184km/h | 12446m | -13.1m/s | -60.3°C | 48% | 191.2hPa | 2.6V | 03:07:54 | 02:32:52 | 00:00:00 | |
| AA1-15 | 2026-09-04 12:40:30 | 52.78363 | 12.11942 | 89° | 179km/h | 12507m | -16.1m/s | -60.6°C | 46.7% | 189.5hPa | 2.6V | 03:07:54 | 02:32:48 | 00:00:00 | |
| DL1XH-15 | 2026-09-04 12:40:30 | 52.78363 | 12.11789 | 89° | 186km/h | 12538m | -15.1m/s | -60.9°C | 44.8% | 188.5hPa | 2.6V | 03:07:17 | 02:32:46 | 00:00:00 | |
| DL1XH1-15 | 2026-09-04 12:40:30 | 52.78363 | 12.11561 | 89° | 184km/h | 12583m | -16.6m/s | -61.3°C | 44.4% | 187.1hPa | 2.6V | 03:07:20 | 02:32:43 | 00:00:00 | |
| DF7ER-10 | 2026-09-04 12:40:29 | 52.78362 | 12.11866 | 91° | 184km/h | 12523m | -15.5m/s | -60.8°C | 36.0% | 189.0hPa | 2.6V | 03:07:00 | 00:00:00 | 00:00:00 | |
| DD8BA-10 | 2026-09-04 12:40:28 | 52.78362 | 12.11789 | 90° | 183km/h | 12538m | -15.1m/s | -60.9°C | 44.8% | 188.4hPa | 2.6V | 00:00:00 | 00:00:00 | 00:00:00 | |
| AM1SDL-15 | 2026-09-04 12:40:27 | 52.78363 | 12.11712 | 90° | 183km/h | 12553m | -15.6m/s | -61.0°C | 44.6% | 188.0hPa | 2.6V | 00:00:00 | 02:32:45 | 00:00:00 | |
| DB0DAN | 2026-09-04 12:40:25 | 52.78363 | 12.11561 | 90° | 177km/h | 12584m | -16.6m/s | -61.3°C | 35.2% | 187.14hPa | 2.6V | 00:00:00 | 00:00:00 | 00:00:00 | |
| DF8AY | 2026-09-04 12:40:24 | 52.78363 | 12.11485 | 90° | 181km/h | 12600m | -16.7m/s | -61.4°C | 44.1% | 186.7hPa | 2.6V | 03:07:54 | 02:32:42 | 00:00:00 | |
| DL1XH-west | 2026-09-04 12:40:23 | 52.78363 | 12.11410 | 90° | 181km/h | 12615m | -16m/s | -61.4°C | 43.7% | 186.2hPa | 2.6V | 03:07:54 | 02:32:41 | 00:00:00 | |
| DL1XH-15 | 2026-09-04 12:40:23 | 52.78361 | 12.11030 | 89° | 183km/h | 12685m | -15.6m/s | -61.5°C | 40.9% | 184.1hPa | 2.6V | 03:07:27 | 02:32:36 | 00:00:00 | |
| AA1-15 | 2026-09-04 12:40:20 | 52.78362 | 12.11183 | 89° | 184km/h | 12657m | -14.6m/s | -61.4°C | 42.7% | 184.8hPa | 2.5V | 03:07:54 | 02:32:38 | 00:00:00 | |
| TFSTFS | 2026-09-04 12:40:20 | 52.78362 | 12.11183 | 90° | 184km/h | 12658m | -14.6m/s | -61.4°C | 33.1% | 184.8hPa | 2.6V | 03:07:00 | 00:00:00 | 00:00:00 | |
| DF7ER-10 | 2026-09-04 12:40:19 | 52.78362 | 12.11106 | 90° | 184km/h | 12672m | -14.1m/s | -61.4°C | 32.6% | 184.4hPa | 2.6V | 03:07:00 | 00:00:00 | 00:00:00 | |
| DD8BA-10 | 2026-09-04 12:40:18 | 52.78361 | 12.11030 | 90° | 181km/h | 12686m | -15.5m/s | -61.5°C | 40.9% | 184.0hPa | 2.6V | 03:07:00 | 00:00:00 | 00:00:00 | |
| DB0NH | 2026-09-04 12:40:17 | 52.78361 | 12.10953 | 89° | 175km/h | 12701m | -15.7m/s | -61.6°C | 40.8% | 183.6hPa | 2.6V | 00:00:00 | 02:32:35 | 00:00:00 | |
| DM0DOS-11 | 2026-09-04 12:40:16 | 52.78356 | 12.10500 | 89° | 179km/h | 12790m | -11.7m/s | -62.4°C | 40.7% | 180.9hPa | 2.6V | 03:07:34 | 02:32:29 | 00:00:00 | |
| DF8AY | 2026-09-04 12:40:14 | 52.78358 | 12.10726 | 89° | 183km/h | 12748m | -16m/s | -62.1°C | 41.2% | 182.3hPa | 2.5V | 03:07:54 | 02:32:32 | 00:00:00 | |
| DL1XH-west | 2026-09-04 12:40:13 | 52.78357 | 12.10650 | 89° | 181km/h | 12763m | -15.3m/s | -62.2°C | 41% | 181.8hPa | 2.6V | 03:07:54 | 02:32:31 | 00:00:00 | |
| DL1XH-15 | 2026-09-04 12:40:13 | 52.78356 | 12.10278 | 90° | 175km/h | 12824m | -11.8m/s | -62.7°C | 39% | 179.9hPa | 2.5V | 03:07:37 | 02:32:26 | 00:00:00 | |
| BIOWL1-15 | 2026-09-04 12:40:12 | 52.78358 | 12.10059 | 91° | 175km/h | 12859m | -11.9m/s | -62.9°C | 35% | 178.9hPa | 2.6V | 03:07:54 | 02:32:23 | 00:00:00 | |
| DB0DAN | 2026-09-04 12:40:10 | 52.78356 | 12.10425 | 90° | 170km/h | 12802m | -11.5m/s | -62.5°C | 31.1% | 180.59hPa | 2.6V | 00:00:00 | 00:00:00 | 00:00:00 | |
| AA1-15 | 2026-09-04 12:40:10 | 52.78356 | 12.10425 | 90° | 177km/h | 12801m | -11.5m/s | -62.5°C | 39.5% | 180.6hPa | 2.6V | 03:07:54 | 02:32:28 | 00:00:00 | |
| DL1XH1-15 | 2026-09-04 12:40:10 | 52.78358 | 12.10059 | 90° | 175km/h | 12859m | -11.9m/s | -62.9°C | 36.2% | 178.9hPa | 2.6V | 03:07:40 | 02:32:23 | 00:00:00 | |
| DB0UT-7 | 2026-09-04 12:40:10 | 52.78356 | 12.10425 | 90° | 172km/h | 12802m | -11.4m/s | -62.5°C | 40.2% | 180.5hPa | 2.6V | 00:00:00 | 00:00:00 | 00:00:00 | |
| DO2SHX-10 | 2026-09-04 12:40:08 | 52.78356 | 12.10278 | 91° | 175km/h | 12824m | -11.7m/s | -62.7°C | 39.0% | 179.8hPa | 2.6V | 00:00:00 | 02:32:26 | 00:00:00 | |
| DF7ER-10 | 2026-09-04 12:40:07 | 52.78356 | 12.10278 | 91° | 175km/h | 12824m | -11.8m/s | -62.7°C | 30.0% | 179.9hPa | 2.6V | 03:07:00 | 00:00:00 | 00:00:00 | |
| DF8AY-15 | 2026-09-04 12:40:06 | 52.78357 | 12.10132 | 91° | 173km/h | 12848m | -11.6m/s | -62.8°C | 37.3% | 179.2hPa | 2.6V | 03:07:00 | 02:32:24 | 00:00:00 | |
| EDDB2-12 | 2026-09-04 12:40:05 | 52.78359 | 12.09987 | 90° | 173km/h | 12872m | -13.2m/s | -62.9°C | 26.9% | 178.6hPa | 2.6V | 00:00:00 | 00:00:00 | 00:00:00 | |
| DM0DOS-11 | 2026-09-04 12:40:04 | 52.78361 | 12.09770 | 91° | 172km/h | 12910m | -11.4m/s | -62.8°C | 34.1% | 177.4hPa | 2.6V | 03:07:44 | 02:32:19 | 00:00:00 | |
| DF8AY | 2026-09-04 12:40:04 | 52.78359 | 12.09987 | 91° | 173km/h | 12872m | -13.2m/s | -62.9°C | 34.2% | 178.6hPa | 2.6V | 03:07:54 | 02:32:22 | 00:00:00 | |
| BIOWL1-15 | 2026-09-04 12:40:01 | 52.78361 | 12.09770 | 91° | 172km/h | 12910m | -11.4m/s | -62.8°C | 32.6% | 177.4hPa | 2.6V | 03:07:54 | 02:32:19 | 00:00:00 | |
| DL1XH-15 | 2026-09-04 12:40:00 | 52.78364 | 12.09554 | 90° | 175km/h | 12944m | -11.4m/s | -63.1°C | 33.3% | 176.4hPa | 2.6V | 03:07:47 | 02:32:16 | 00:00:00 | |
| DL1XH1-15 | 2026-09-04 12:40:00 | 52.78365 | 12.09334 | 90° | 175km/h | 12981m | -13.5m/s | -63.4°C | 33% | 175.4hPa | 2.5V | 03:07:50 | 02:32:13 | 00:00:00 | |
| AA1-15 | 2026-09-04 12:39:59 | 52.78363 | 12.09626 | 92° | 173km/h | 12933m | -11.6m/s | -63°C | 31.6% | 176.8hPa | 2.6V | 03:07:54 | 02:32:17 | 00:00:00 | |
| DF8AY | 2026-09-04 12:39:55 | 52.78366 | 12.09261 | 91° | 173km/h | 12995m | -13.1m/s | -63.5°C | 29.3% | 175.1hPa | 2.6V | 03:07:54 | 02:32:12 | 00:00:00 | |
| DF2AP-13 | 2026-09-04 12:39:54 | 52.78366 | 12.09261 | 92° | 162km/h | 12995m | -13.0m/s | -63.4°C | 33.3% | 175.0hPa | 2.6V | 00:00:00 | 02:32:12 | 00:00:00 | |
| DO2SHX-10 | 2026-09-04 12:39:53 | 52.78367 | 12.09188 | 92° | 172km/h | 13006m | -11.1m/s | -63.5°C | 33.7% | 174.6hPa | 2.6V | 00:00:00 | 02:32:11 | 00:00:00 | |
| DM0DOS-11 | 2026-09-04 12:39:52 | 52.78370 | 12.09045 | 91° | 170km/h | 13028m | -10.5m/s | -63.7°C | 33.6% | 174hPa | 2.6V | 03:07:54 | 02:32:09 | 00:00:00 | |
| DL1XH-west | 2026-09-04 12:39:50 | 52.78372 | 12.08974 | 93° | 172km/h | 13038m | -10.7m/s | -63.8°C | 27.8% | 173.7hPa | 2.5V | 03:08:45 | 02:32:08 | 00:00:00 | |
| BIOWL1-15 | 2026-09-04 12:39:50 | 52.78378 | 12.08764 | 92° | 166km/h | 13072m | -11.1m/s | -64°C | 26.2% | 172.8hPa | 2.6V | 03:08:45 | 02:32:05 | 00:00:00 | |
| DL1XH1-15 | 2026-09-04 12:39:50 | 52.78380 | 12.08627 | 91° | 164km/h | 13094m | -11.8m/s | -64°C | 29.9% | 172.2hPa | 2.6V | 03:08:00 | 02:32:03 | 00:00:00 | |
| AA1-15 | 2026-09-04 12:39:48 | 52.78376 | 12.08833 | 93° | 168km/h | 13061m | -11.2m/s | -64°C | 26.7% | 173.1hPa | 2.6V | 03:08:45 | 02:32:06 | 00:00:00 | |
| DD8BA-10 | 2026-09-04 12:39:48 | 52.78376 | 12.08833 | 94° | 161km/h | 13061m | -11.2m/s | -64.0°C | 32.6% | 173.1hPa | 2.6V | 00:00:00 | 00:00:00 | 00:00:00 | |
| DB0NH | 2026-09-04 12:39:47 | 52.78378 | 12.08764 | 93° | 161km/h | 13073m | -11.0m/s | -64.0°C | 31.7% | 172.7hPa | 2.6V | 00:00:00 | 02:32:05 | 00:00:00 | |
| DF8AY-15 | 2026-09-04 12:39:46 | 52.78379 | 12.08695 | 92° | 159km/h | 13084m | -10.8m/s | -64.0°C | 30.8% | 172.4hPa | 2.6V | 00:00:00 | 02:32:04 | 00:00:00 | |
| DM0DOS-11 | 2026-09-04 12:39:44 | 52.78386 | 12.08359 | 91° | 155km/h | 13150m | -14.5m/s | -63.6°C | 25.8% | 170.6hPa | 2.6V | 03:08:04 | 02:31:59 | 00:00:00 | |
| DF8AY | 2026-09-04 12:39:43 | 52.78383 | 12.08491 | 92° | 161km/h | 13122m | -14.4m/s | -63.9°C | 23.6% | 171.5hPa | 2.6V | 03:08:45 | 02:32:01 | 00:00:00 | |
| DL1LOL-11 | 2026-09-04 12:39:43 | 52.78383 | 12.08491 | 93° | 161km/h | 13122m | -14.4m/s | -63.9°C | 19.7% | 171.5hPa | 2.5V | 00:00:00 | 00:00:00 | 00:00:00 | |
| DB0DAN | 2026-09-04 12:39:40 | 52.78386 | 12.08294 | 91° | 148km/h | 13164m | -14.2m/s | -63.3°C | 17.1% | 170.21hPa | 2.5V | 00:00:00 | 00:00:00 | 00:00:00 | |
| DL1XH1-15 | 2026-09-04 12:39:40 | 52.78387 | 12.07974 | 90° | 151km/h | 13237m | -15.3m/s | -61.7°C | 18.9% | 168.3hPa | 2.6V | 03:08:10 | 02:31:53 | 00:00:00 | |
| DL1XH-west | 2026-09-04 12:39:40 | 52.78386 | 12.08294 | 91° | 155km/h | 13164m | -14.2m/s | -63.3°C | 20.9% | 170.2hPa | 2.5V | 03:08:45 | 02:31:58 | 00:00:00 | |
| BIOWL1-15 | 2026-09-04 12:39:39 | 52.78387 | 12.08037 | 90° | 151km/h | 13223m | -14.3m/s | -61.7°C | 17.6% | 168.6hPa | 2.6V | 03:08:45 | 02:31:54 | 00:00:00 | |
| AA1-15 | 2026-09-04 12:39:37 | 52.78387 | 12.08101 | 90° | 153km/h | 13208m | -14.9m/s | -61.9°C | 18.2% | 169.1hPa | 2.6V | 03:08:45 | 02:31:55 | 00:00:00 | |
| DF8AY | 2026-09-04 12:39:32 | 52.78387 | 12.07781 | 90° | 157km/h | 13279m | -12.5m/s | -61.8°C | 16% | 167.1hPa | 2.6V | 03:08:45 | 02:31:50 | 00:00:00 | |
| DM0DOS-11 | 2026-09-04 12:39:32 | 52.78387 | 12.07715 | 90° | 159km/h | 13291m | -11.9m/s | -61.9°C | 18.2% | 166.7hPa | 2.5V | 03:08:14 | 02:31:49 | 00:00:00 | |
| DL1XH-west | 2026-09-04 12:39:30 | 52.78388 | 12.07648 | 90° | 161km/h | 13302m | -11.5m/s | -61.9°C | 15.2% | 166.4hPa | 2.5V | 03:08:45 | 02:31:48 | 00:00:00 | |
| BIOWL1-15 | 2026-09-04 12:39:30 | 52.78388 | 12.07515 | 90° | 161km/h | 13325m | -11.8m/s | -62.1°C | 14.4% | 165.8hPa | 2.6V | 03:08:45 | 02:31:46 | 00:00:00 | |
| AA1-15 | 2026-09-04 12:39:27 | 52.78388 | 12.07448 | 90° | 162km/h | 13337m | -11.9m/s | -62.2°C | 14% | 165.5hPa | 2.6V | 03:08:45 | 02:31:45 | 00:00:00 | |
| DB0DAN | 2026-09-04 12:39:25 | 52.78389 | 12.07311 | 91° | 157km/h | 13360m | -12.3m/s | -62.1°C | 10.9% | 164.91hPa | 2.5V | 00:00:00 | 00:00:00 | 00:00:00 | |
| DM0DOS-11 | 2026-09-04 12:39:24 | 52.78397 | 12.07036 | 94° | 164km/h | 13413m | -13.8m/s | -62°C | 15.2% | 163.5hPa | 2.6V | 03:08:24 | 02:31:39 | 00:00:00 | |
| DL4BBY-15 | 2026-09-04 12:39:24 | 52.78390 | 12.07243 | 93° | 150km/h | 13373m | -13.5m/s | -61.8°C | 0% | 0hPa | 2.5V | 00:00:00 | 00:00:00 | 00:00:00 | |
| DL1XH-15 | 2026-09-04 12:39:23 | 52.78409 | 12.06829 | 95° | 164km/h | 13455m | -15.1m/s | -62.1°C | 14.1% | 162.5hPa | 2.5V | 03:08:27 | 02:31:36 | 00:00:00 | |
| DF8AY | 2026-09-04 12:39:22 | 52.78394 | 12.07105 | 94° | 168km/h | 13400m | -13.6m/s | -62°C | 11.8% | 163.9hPa | 2.6V | 03:08:45 | 02:31:40 | 00:00:00 | |
| DL1XH-west | 2026-09-04 12:39:20 | 52.78401 | 12.06967 | 96° | 166km/h | 13426m | -12.5m/s | -62.1°C | 11% | 163.1hPa | 2.6V | 03:08:45 | 02:31:38 | 00:00:00 | |
| BIOWL1-15 | 2026-09-04 12:39:18 | 52.78414 | 12.06761 | 97° | 164km/h | 13470m | -15.1m/s | -62.2°C | 9.7% | 162hPa | 2.5V | 03:08:45 | 02:31:35 | 00:00:00 | |
| AA1-15 | 2026-09-04 12:39:16 | 52.78419 | 12.06693 | 98° | 164km/h | 13484m | -14.1m/s | -62.3°C | 9.4% | 161.6hPa | 2.6V | 03:08:45 | 02:31:34 | 00:00:00 | |
| DD8BA-10 | 2026-09-04 12:39:16 | 52.78419 | 12.06693 | 99° | 157km/h | 13484m | -14.1m/s | -62.2°C | 13.7% | 161.6hPa | 2.6V | 00:00:00 | 00:00:00 | 00:00:00 | |
| DO2SHX-10 | 2026-09-04 12:39:14 | 52.78432 | 12.06559 | 100° | 161km/h | 13511m | -12.1m/s | -62.2°C | 13.4% | 160.8hPa | 2.6V | 00:00:00 | 02:31:32 | 00:00:00 | |
| DL1XH-15 | 2026-09-04 12:39:13 | 52.78483 | 12.06176 | 104° | 150km/h | 13583m | -12.1m/s | -60.2°C | 10% | 159hPa | 2.6V | 03:08:37 | 02:31:26 | 00:00:00 | |
| DF8AY | 2026-09-04 12:39:13 | 52.78447 | 12.06428 | 101° | 157km/h | 13535m | -10.5m/s | -61.7°C | 7.7% | 160.3hPa | 2.5V | 03:08:45 | 02:31:30 | 00:00:00 | |
| EDDB2-11 | 2026-09-04 12:39:12 | 52.78447 | 12.06428 | 100° | 157km/h | 13535m | -10.5m/s | -61.7°C | 7.0% | 160.3hPa | 2.6V | 00:00:00 | 00:00:00 | 00:00:00 | |
| DB0DAN | 2026-09-04 12:39:10 | 52.78465 | 12.06300 | 104° | 150km/h | 13559m | -12m/s | -60.2°C | 5.7% | 159.7hPa | 2.6V | 00:00:00 | 00:00:00 | 00:00:00 | |
| DL1XH1-15 | 2026-09-04 12:39:10 | 52.78514 | 12.05997 | 106° | 146km/h | 13620m | -13.1m/s | -60°C | 9.4% | 158.1hPa | 2.5V | 03:08:40 | 02:31:23 | 00:00:00 | |
| DL1XH-west | 2026-09-04 12:39:09 | 52.78474 | 12.06237 | 103° | 151km/h | 13571m | -12.5m/s | -60.3°C | 6.5% | 159.3hPa | 2.5V | 03:08:45 | 02:31:27 | 00:00:00 | |
| BIOWL1-15 | 2026-09-04 12:39:07 | 52.78493 | 12.06116 | 106° | 148km/h | 13596m | -12.1m/s | -60.2°C | 6.1% | 158.7hPa | 2.6V | 03:08:45 | 02:31:25 | 00:00:00 | |
| AA1-15 | 2026-09-04 12:39:06 | 52.78503 | 12.06056 | 106° | 150km/h | 13607m | -12.6m/s | -60.2°C | 5.9% | 158.5hPa | 2.6V | 03:08:45 | 02:31:24 | 00:00:00 | |
| DF8AY-15 | 2026-09-04 12:39:06 | 52.78503 | 12.06056 | 106° | 126km/h | 13608m | -12.6m/s | -60.1°C | 9.8% | 158.5hPa | 2.6V | 00:00:00 | 02:31:24 | 00:00:00 | |
| DO2SHX-10 | 2026-09-04 12:39:05 | 52.78514 | 12.05997 | 107° | 144km/h | 13620m | -13.1m/s | -59.9°C | 9.4% | 158.1hPa | 2.6V | 00:00:00 | 02:31:23 | 00:00:00 | |
| DL1XH-15 | 2026-09-04 12:39:03 | 52.78582 | 12.05617 | 104° | 124km/h | 13717m | -16.4m/s | -59°C | 7.5% | 155.7hPa | 2.6V | 03:08:47 | 02:31:16 | 00:00:00 | |
| DF8AY | 2026-09-04 12:39:00 | 52.78565 | 12.05720 | 105° | 133km/h | 13685m | -16.2m/s | -59.1°C | 4.3% | 156.6hPa | 2.5V | 03:08:45 | 02:31:18 | 00:00:00 | |
| DL1XH-west | 2026-09-04 12:38:59 | 52.78574 | 12.05668 | 104° | 128km/h | 13701m | -16.5m/s | -59°C | 4.1% | 156.2hPa | 2.6V | 03:09:36 | 02:31:17 | 00:00:00 | |
| BIOWL1-15 | 2026-09-04 12:38:58 | 52.78596 | 12.05520 | 102° | 120km/h | 13747m | -15m/s | -58.6°C | 3.6% | 154.8hPa | 2.6V | 03:09:36 | 02:31:14 | 00:00:00 | |
| TFSTFS | 2026-09-04 12:38:56 | 52.78589 | 12.05569 | 105° | 120km/h | 13732m | -15.7m/s | -58.8°C | 3.5% | 155.4hPa | 2.6V | 03:09:00 | 00:00:00 | 00:00:00 | |
| DB0DAN | 2026-09-04 12:38:55 | 52.78603 | 12.05472 | 103° | 117km/h | 13761m | -14.5m/s | -58.3°C | 3.3% | 154.57hPa | 2.6V | 00:00:00 | 00:00:00 | 00:00:00 | |
| AA1-15 | 2026-09-04 12:38:55 | 52.78603 | 12.05472 | 103° | 122km/h | 13761m | -14.5m/s | -58.3°C | 3.6% | 154.6hPa | 2.6V | 03:09:36 | 02:31:13 | 00:00:00 | |
| DL4BBY-15 | 2026-09-04 12:38:54 | 52.78609 | 12.05423 | 102° | 120km/h | 13776m | -15.4m/s | -58.0°C | 0% | 0hPa | 2.6V | 00:00:00 | 00:00:00 | 00:00:00 | |
| DL1XH-15 | 2026-09-04 12:38:53 | 52.78640 | 12.05139 | 99° | 113km/h | 13863m | -14m/s | -58.2°C | 6.5% | 152.2hPa | 2.6V | 03:08:57 | 02:31:06 | 00:00:00 | |
| DF8AY | 2026-09-04 12:38:51 | 52.78631 | 12.05231 | 100° | 115km/h | 13834m | -15.4m/s | -58.1°C | 3.1% | 152.8hPa | 2.6V | 03:09:36 | 02:31:08 | 00:00:00 | |
| DL1XH-west | 2026-09-04 12:38:48 | 52.78640 | 12.05139 | 99° | 113km/h | 13863m | -14m/s | -58.2°C | 3% | 152.2hPa | 2.6V | 03:09:36 | 02:31:06 | 00:00:00 | |
| AA1-15 | 2026-09-04 12:38:45 | 52.78650 | 12.05000 | 94° | 111km/h | 13903m | -12.6m/s | -58.3°C | 2.9% | 151.1hPa | 2.6V | 03:09:36 | 02:31:03 | 00:00:00 | |
| DO2SHX-10 | 2026-09-04 12:38:44 | 52.78651 | 12.04954 | 94° | 110km/h | 13916m | -13.2m/s | -58.3°C | 6.4% | 150.8hPa | 2.6V | 00:00:00 | 02:31:02 | 00:00:00 | |
| DL1XH-15 | 2026-09-04 12:38:43 | 52.78656 | 12.04678 | 92° | 113km/h | 13999m | -14.6m/s | -58.5°C | 6.3% | 148.9hPa | 2.6V | 03:09:07 | 02:30:56 | 00:00:00 | |
| DM0DOS-11 | 2026-09-04 12:38:42 | 52.78654 | 12.04818 | 91° | 108km/h | 13954m | -15.1m/s | -58.5°C | 6.4% | 149.9hPa | 2.6V | 03:09:04 | 02:30:59 | 00:00:00 | |
| DF7ER-10 | 2026-09-04 12:38:41 | 52.78654 | 12.04864 | 93° | 111km/h | 13941m | -12.4m/s | -58.5°C | 2.8% | 150.2hPa | 2.6V | 03:09:00 | 00:00:00 | 00:00:00 | |
| DB0DAN | 2026-09-04 12:38:40 | 52.78655 | 12.04772 | 92° | 108km/h | 13969m | -15.1m/s | -58.6°C | 2.7% | 149.6hPa | 2.6V | 00:00:00 | 00:00:00 | 00:00:00 | |
| DF8AY | 2026-09-04 12:38:39 | 52.78656 | 12.04725 | 90° | 111km/h | 13984m | -14.6m/s | -58.6°C | 2.5% | 149.3hPa | 2.6V | 03:09:36 | 02:30:57 | 00:00:00 | |
| DL1XH-west | 2026-09-04 12:38:37 | 52.78657 | 12.04631 | 92° | 115km/h | 14013m | -13.5m/s | -58.5°C | 2.4% | 148.5hPa | 2.6V | 03:09:36 | 02:30:55 | 00:00:00 | |
| DM0DOS-11 | 2026-09-04 12:38:36 | 52.78657 | 12.04335 | 90° | 120km/h | 14092m | -12.6m/s | -58.4°C | 6.1% | 146.7hPa | 2.6V | 03:09:14 | 02:30:49 | 00:00:00 | |
| AA1-15 | 2026-09-04 12:38:35 | 52.78658 | 12.04533 | 89° | 117km/h | 14038m | -12.4m/s | -58.6°C | 2.3% | 147.9hPa | 2.7V | 03:09:36 | 02:30:53 | 00:00:00 | |
| BIOWL1-15 | 2026-09-04 12:38:35 | 52.78657 | 12.04335 | 91° | 120km/h | 14092m | -12.6m/s | -58.4°C | 2.1% | 146.7hPa | 2.6V | 03:09:36 | 02:30:49 | 00:00:00 | |
| DL1XH-15 | 2026-09-04 12:38:33 | 52.78658 | 12.04181 | 89° | 126km/h | 14127m | -12.8m/s | -57.5°C | 5.5% | 145.8hPa | 2.6V | 03:09:17 | 02:30:46 | 00:00:00 | |
| DF8AY | 2026-09-04 12:38:29 | 52.78658 | 12.04234 | 91° | 124km/h | 14115m | -12.5m/s | -57.7°C | 1.8% | 146.1hPa | 2.7V | 03:09:36 | 02:30:47 | 00:00:00 | |
| DL1XH-west | 2026-09-04 12:38:27 | 52.78658 | 12.04129 | 89° | 126km/h | 14140m | -13.6m/s | -57.5°C | 1.6% | 145.6hPa | 2.6V | 03:09:36 | 02:30:45 | 00:00:00 | |
| DB0DAN | 2026-09-04 12:38:25 | 52.78658 | 12.04023 | 93° | 122km/h | 14166m | -13.2m/s | -57.5°C | 2.1% | 144.91hPa | 2.6V | 00:00:00 | 00:00:00 | 00:00:00 | |
| AA1-15 | 2026-09-04 12:38:24 | 52.78660 | 12.03969 | 93° | 130km/h | 14180m | -15.3m/s | -57.5°C | 1.6% | 144.6hPa | 2.6V | 03:09:36 | 02:30:42 | 00:00:00 | |
| SMARD9-15 | 2026-09-04 12:38:24 | 52.78662 | 12.03916 | 94° | 126km/h | 14195m | -14.3m/s | -57.6°C | 2.1% | 144.3hPa | 2.6V | 00:00:00 | 00:00:00 | 00:00:00 | |
| DF2AP-13 | 2026-09-04 12:38:23 | 52.78662 | 12.03916 | 95° | 117km/h | 14195m | -14.3m/s | -57.5°C | 5.4% | 144.3hPa | 2.6V | 00:00:00 | 02:30:41 | 00:00:00 | |
| DL1XH-15 | 2026-09-04 12:38:22 | 52.78677 | 12.03651 | 97° | 126km/h | 14266m | -13.8m/s | -57.6°C | 5.6% | 142.7hPa | 2.6V | 03:09:27 | 02:30:36 | 00:00:00 | |
| DF7ER-10 | 2026-09-04 12:38:21 | 52.78664 | 12.03863 | 95° | 130km/h | 14209m | -15.3m/s | -57.6°C | 2.1% | 144.0hPa | 2.6V | 03:09:00 | 00:00:00 | 00:00:00 | |
| DL1XH1-15 | 2026-09-04 12:38:20 | 52.78689 | 12.03499 | 97° | 120km/h | 14303m | -12.7m/s | -57.6°C | 5.6% | 141.8hPa | 2.6V | 03:09:30 | 02:30:33 | 00:00:00 | |
| DF8AY | 2026-09-04 12:38:19 | 52.78673 | 12.03703 | 96° | 128km/h | 14253m | -13.8m/s | -57.7°C | 1.6% | 143hPa | 2.6V | 03:09:36 | 02:30:37 | 00:00:00 | |
| DL1XH-west | 2026-09-04 12:38:16 | 52.78685 | 12.03549 | 97° | 120km/h | 14291m | -12.4m/s | -57.6°C | 1.5% | 142.1hPa | 2.6V | 03:09:36 | 02:30:34 | 00:00:00 | |
| AA1-15 | 2026-09-04 12:38:14 | 52.78693 | 12.03450 | 98° | 117km/h | 14316m | -12m/s | -57.6°C | 1.6% | 141.5hPa | 2.6V | 03:09:36 | 02:30:32 | 00:00:00 | |
| BIOWL1-15 | 2026-09-04 12:38:13 | 52.78710 | 12.03211 | 95° | 113km/h | 14381m | -12.4m/s | -57.5°C | 1.4% | 140.1hPa | 2.7V | 03:09:36 | 02:30:27 | 00:00:00 | |
| DL1XH-15 | 2026-09-04 12:38:12 | 52.78712 | 12.03165 | 94° | 110km/h | 14394m | -13.6m/s | -57.3°C | 5.3% | 139.8hPa | 2.6V | 03:09:37 | 02:30:26 | 00:00:00 | |
| DM0DOS-11 | 2026-09-04 12:38:12 | 52.78705 | 12.03304 | 97° | 113km/h | 14354m | -13.9m/s | -57.5°C | 5.4% | 140.8hPa | 2.6V | 03:09:34 | 02:30:29 | 00:00:00 | |
| DH5RUM-10 | 2026-09-04 12:38:12 | 52.78701 | 12.03352 | 98° | 119km/h | 14341m | -12.4m/s | -57.6°C | 2.1% | 141.1hPa | 2.6V | 00:00:00 | 00:00:00 | 00:00:00 | |
| DB0DAN | 2026-09-04 12:38:10 | 52.78708 | 12.03258 | 94° | 106km/h | 14368m | -14.6m/s | -57.5°C | 2% | 140.4hPa | 2.6V | 00:00:00 | 00:00:00 | 00:00:00 | |
| DF8AY | 2026-09-04 12:38:08 | 52.78712 | 12.03165 | 94° | 110km/h | 14394m | -13.6m/s | -57.3°C | 1.4% | 139.8hPa | 2.6V | 03:10:27 | 02:30:26 | 00:00:00 | |
| DO2SHX-10 | 2026-09-04 12:38:08 | 52.78712 | 12.03165 | 95° | 110km/h | 14394m | -13.5m/s | -57.3°C | 5.3% | 139.8hPa | 2.6V | 00:00:00 | 02:30:26 | 00:00:00 | |
| DM0DOS-11 | 2026-09-04 12:38:06 | 52.78722 | 12.02843 | 92° | 111km/h | 14495m | -11.9m/s | -55.9°C | 4.8% | 137.6hPa | 2.6V | 03:09:44 | 02:30:19 | 00:00:00 | |
| BIOWL1-15 | 2026-09-04 12:38:05 | 52.78724 | 12.02797 | 94° | 113km/h | 14507m | -11.8m/s | -55.9°C | 1% | 137.3hPa | 2.6V | 03:10:27 | 02:30:18 | 00:00:00 | |
| DL1XH-west | 2026-09-04 12:38:05 | 52.78717 | 12.03028 | 92° | 111km/h | 14437m | -16.4m/s | -57.2°C | 1.3% | 138.9hPa | 2.6V | 03:10:27 | 02:30:23 | 00:00:00 | |
| AA1-15 | 2026-09-04 12:38:04 | 52.78718 | 12.02981 | 94° | 111km/h | 14454m | -15.8m/s | -57°C | 1.2% | 138.6hPa | 2.6V | 03:10:27 | 02:30:22 | 00:00:00 | |
| SONCRA | 2026-09-04 12:38:04 | 52.78720 | 12.02935 | 92° | 110km/h | 14469m | -15.1m/s | -56.7°C | 1.9% | 138.2hPa | 2.6V | 00:00:00 | 00:00:00 | 00:00:00 | |
| DO2SHX-10 | 2026-09-04 12:38:02 | 52.78721 | 12.02889 | 93° | 111km/h | 14483m | -13.2m/s | -56.2°C | 5.0% | 137.8hPa | 2.6V | 00:00:00 | 02:30:20 | 00:00:00 | |
| DL1XH1-15 | 2026-09-04 12:38:00 | 52.78732 | 12.02560 | 94° | 113km/h | 14572m | -14.4m/s | -55.6°C | 4.6% | 135.9hPa | 2.6V | 03:09:50 | 02:30:13 | 00:00:00 | |
| DF8AY | 2026-09-04 12:37:58 | 52.78727 | 12.02702 | 93° | 115km/h | 14532m | -14.1m/s | -55.9°C | 1% | 136.8hPa | 2.7V | 03:10:27 | 02:30:16 | 00:00:00 | |
| DM0DOS-11 | 2026-09-04 12:37:56 | 52.78745 | 12.02371 | 97° | 111km/h | 14629m | -13.1m/s | -55.7°C | 4.6% | 134.8hPa | 2.7V | 03:09:54 | 02:30:09 | 00:00:00 | |
| DB0DAN | 2026-09-04 12:37:55 | 52.78732 | 12.02560 | 95° | 108km/h | 14572m | -14.4m/s | -55.6°C | 1.7% | 135.94hPa | 2.6V | 00:00:00 | 00:00:00 | 00:00:00 | |
| DL1XH-west | 2026-09-04 12:37:54 | 52.78735 | 12.02513 | 96° | 113km/h | 14586m | -15.3m/s | -55.7°C | 1% | 135.7hPa | 2.6V | 03:10:27 | 02:30:12 | 00:00:00 | |
| AA1-15 | 2026-09-04 12:37:53 | 52.78738 | 12.02465 | 96° | 117km/h | 14601m | -14.7m/s | -55.6°C | 0.9% | 135.4hPa | 2.6V | 03:10:27 | 02:30:11 | 00:00:00 | |
| BIOWL1-15 | 2026-09-04 12:37:49 | 52.78751 | 12.02280 | 98° | 111km/h | 14655m | -14.6m/s | -55.9°C | 0.9% | 134.2hPa | 2.6V | 03:10:27 | 02:30:07 | 00:00:00 | |
| DL1XH1-15 | 2026-09-04 12:37:48 | 52.78768 | 12.02104 | 99° | 108km/h | 14712m | -13.9m/s | -56.1°C | 4.7% | 133hPa | 2.6V | 03:10:00 | 02:30:03 | 00:00:00 | |
| DF8AY | 2026-09-04 12:37:47 | 52.78760 | 12.02191 | 98° | 108km/h | 14683m | -14.3m/s | -56°C | 0.9% | 133.6hPa | 2.7V | 03:10:27 | 02:30:05 | 00:00:00 | |
| DL1XH-west | 2026-09-04 12:37:44 | 52.78773 | 12.02061 | 102° | 104km/h | 14726m | -14.2m/s | -56.2°C | 0.9% | 132.8hPa | 2.6V | 03:10:27 | 02:30:02 | 00:00:00 | |
| AA1-15 | 2026-09-04 12:37:43 | 52.78783 | 12.01976 | 102° | 102km/h | 14753m | -13.8m/s | -56.2°C | 0.9% | 132.2hPa | 2.6V | 03:10:27 | 02:30:00 | 00:00:00 | |
| DB0DAN | 2026-09-04 12:37:40 | 52.78793 | 12.01893 | 103° | 95km/h | 14781m | -15.4m/s | -56.2°C | 1.6% | 131.62hPa | 2.7V | 00:00:00 | 00:00:00 | 00:00:00 | |
| BIOWL1-15 | 2026-09-04 12:37:38 | 52.78804 | 12.01812 | 103° | 97km/h | 14808m | -13.3m/s | -56.2°C | 0.8% | 131hPa | 2.6V | 03:10:27 | 02:29:56 | 00:00:00 | |
| DL1XH1-15 | 2026-09-04 12:37:38 | 52.78818 | 12.01697 | 98° | 93km/h | 14850m | -15.7m/s | -56.2°C | 4.5% | 130.2hPa | 2.7V | 03:10:10 | 02:29:53 | 00:00:00 | |
| DF8AY | 2026-09-04 12:37:36 | 52.78814 | 12.01736 | 102° | 95km/h | 14835m | -14.8m/s | -56.2°C | 0.7% | 130.4hPa | 2.6V | 03:10:27 | 02:29:54 | 00:00:00 | |
| DL1XH-west | 2026-09-04 12:37:33 | 52.78825 | 12.01622 | 97° | 89km/h | 14881m | -14.6m/s | -56.1°C | 0.7% | 129.6hPa | 2.7V | 03:10:27 | 02:29:51 | 00:00:00 | |
| AA1-15 | 2026-09-04 12:37:32 | 52.78828 | 12.01586 | 97° | 84km/h | 14895m | -14.4m/s | -56°C | 0.7% | 129.2hPa | 2.6V | 03:10:27 | 02:29:50 | 00:00:00 | |
| BIOWL1-15 | 2026-09-04 12:37:27 | 52.78849 | 12.01351 | 97° | 77km/h | 15008m | -17.8m/s | -55.8°C | 0.5% | 127.1hPa | 2.6V | 03:10:27 | 02:29:43 | 00:00:00 | |
| DF8AY | 2026-09-04 12:37:26 | 52.78846 | 12.01383 | 100° | 77km/h | 14991m | -16.7m/s | -55.7°C | 0.5% | 127.4hPa | 2.6V | 03:10:27 | 02:29:44 | 00:00:00 | |
| DB0DAN | 2026-09-04 12:37:25 | 52.78849 | 12.01351 | 97° | 73km/h | 15008m | -17.8m/s | -55.8°C | 1.4% | 127.08hPa | 2.6V | 00:00:00 | 00:00:00 | 00:00:00 | |
| DL1XH-west | 2026-09-04 12:37:22 | 52.78856 | 12.01258 | 95° | 75km/h | 15061m | -18.7m/s | -56.2°C | 0.4% | 126.1hPa | 2.7V | 03:10:27 | 02:29:40 | 00:00:00 | |
| DM0DOS-11 | 2026-09-04 12:37:22 | 52.78858 | 12.01228 | 96° | 71km/h | 15080m | -18.4m/s | -56.3°C | 4.3% | 125.7hPa | 2.7V | 03:10:24 | 02:29:39 | 00:00:00 | |
| DL1XH-15 | 2026-09-04 12:37:22 | 52.78863 | 12.01136 | 92° | 69km/h | 15135m | -19.3m/s | -56.5°C | 4.3% | 124.6hPa | 2.6V | 03:10:27 | 02:29:36 | 00:00:00 | |
| AA1-15 | 2026-09-04 12:37:22 | 52.78858 | 12.01228 | 96° | 71km/h | 15080m | -18.5m/s | -56.3°C | 0.4% | 125.7hPa | 2.7V | 03:10:27 | 02:29:39 | 00:00:00 | |
| BIOWL1-15 | 2026-09-04 12:37:17 | 52.78864 | 12.01107 | 94° | 71km/h | 15153m | -18.7m/s | -56.5°C | 0.3% | 124.2hPa | 2.7V | 03:11:18 | 02:29:35 | 00:00:00 | |
| DL1XH1-15 | 2026-09-04 12:37:17 | 52.78865 | 12.01044 | 88° | 78km/h | 15191m | -18.7m/s | -56.7°C | 4.4% | 123.5hPa | 2.6V | 03:10:30 | 02:29:33 | 00:00:00 | |
| DM0DOS-11 | 2026-09-04 12:37:17 | 52.78864 | 12.00912 | 91° | 78km/h | 15259m | -16.6m/s | -56.7°C | 4.4% | 122.1hPa | 2.7V | 03:10:34 | 02:29:29 | 00:00:00 | |
| DF8AY | 2026-09-04 12:37:15 | 52.78865 | 12.01044 | 89° | 78km/h | 15191m | -18.7m/s | -56.7°C | 0.4% | 123.5hPa | 2.6V | 03:11:18 | 02:29:33 | 00:00:00 | |
| DL1XH-west | 2026-09-04 12:37:12 | 52.78863 | 12.00945 | 89° | 80km/h | 15243m | -17m/s | -56.7°C | 0.3% | 122.4hPa | 2.6V | 03:11:18 | 02:29:30 | 00:00:00 | |
| DL1XH-15 | 2026-09-04 12:37:12 | 52.78866 | 12.00809 | 94° | 82km/h | 15308m | -16.7m/s | -56.9°C | 4.5% | 121.1hPa | 2.6V | 03:10:37 | 02:29:26 | 00:00:00 | |
| MECKS9 | 2026-09-04 12:37:12 | 52.78864 | 12.00945 | 90° | 80km/h | 15243m | -17.0m/s | -56.7°C | 1.3% | 122.4hPa | 2.6V | 00:00:00 | 00:00:00 | 00:00:00 | |
| DB0DAN | 2026-09-04 12:37:10 | 52.78864 | 12.00878 | 93° | 77km/h | 15276m | -16.1m/s | -56.8°C | 1.3% | 121.87hPa | 2.6V | 00:00:00 | 00:00:00 | 00:00:00 | |
| AA1-15 | 2026-09-04 12:37:10 | 52.78865 | 12.00844 | 93° | 84km/h | 15292m | -17.2m/s | -56.8°C | 0.4% | 121.5hPa | 2.6V | 03:11:18 | 02:29:27 | 00:00:00 | |
| AM1SDL-15 | 2026-09-04 12:37:10 | 52.78865 | 12.00844 | 93° | 80km/h | 15292m | -17.1m/s | -56.8°C | 4.5% | 121.5hPa | 2.6V | 00:00:00 | 02:29:27 | 00:00:00 | |
| DL1XH1-15 | 2026-09-04 12:37:08 | 52.78871 | 12.00709 | 96° | 84km/h | 15354m | -16.1m/s | -56.8°C | 4.4% | 120.2hPa | 2.6V | 03:10:40 | 02:29:23 | 00:00:00 | |
| BIOWL1-15 | 2026-09-04 12:37:07 | 52.78868 | 12.00776 | 94° | 80km/h | 15324m | -15.6m/s | -56.8°C | 0.3% | 120.9hPa | 2.6V | 03:11:18 | 02:29:25 | 00:00:00 | |
| DF8AY | 2026-09-04 12:37:04 | 52.78873 | 12.00675 | 96° | 78km/h | 15370m | -16.3m/s | -56.8°C | 0.3% | 120hPa | 2.6V | 03:11:18 | 02:29:22 | 00:00:00 | |
| DL1XH-15 | 2026-09-04 12:37:02 | 52.78887 | 12.00478 | 94° | 75km/h | 15470m | -15.5m/s | -56.8°C | 4.5% | 118.1hPa | 2.6V | 03:10:47 | 02:29:16 | 00:00:00 | |
| DL1XH-west | 2026-09-04 12:37:01 | 52.78880 | 12.00574 | 97° | 80km/h | 15423m | -17.4m/s | -56.9°C | 0.4% | 119hPa | 2.6V | 03:11:18 | 02:29:19 | 00:00:00 | |
| AA1-15 | 2026-09-04 12:36:58 | 52.78887 | 12.00478 | 95° | 75km/h | 15470m | -15.5m/s | -56.8°C | 0.4% | 118.1hPa | 2.6V | 03:11:18 | 02:29:16 | 00:00:00 | |
| EDDB2-12 | 2026-09-04 12:36:58 | 52.78887 | 12.00478 | 94° | 75km/h | 15470m | -15.5m/s | -56.8°C | 1.3% | 118.1hPa | 2.6V | 00:00:00 | 00:00:00 | 00:00:00 | |
| DL1XH1-15 | 2026-09-04 12:36:57 | 52.78891 | 12.00383 | 89° | 75km/h | 15517m | -18.9m/s | -56.4°C | 4.4% | 117.3hPa | 2.6V | 03:10:50 | 02:29:13 | 00:00:00 | |
| SP3BTT-10 | 2026-09-04 12:36:57 | 52.78888 | 12.00446 | 94° | 49km/h | 15485m | -14.3m/s | -56.6°C | 4.5% | 117.7hPa | 2.6V | 03:10:00 | 00:00:00 | 00:00:00 | |
| DM0DOS-11 | 2026-09-04 12:36:56 | 52.78891 | 12.00258 | 87° | 78km/h | 15587m | -17.8m/s | -56.5°C | 4.3% | 115.9hPa | 2.7V | 03:10:54 | 02:29:09 | 00:00:00 | |
| SP3WXH-11 | 2026-09-04 12:36:56 | 52.78890 | 12.00415 | 96° | 75km/h | 15500m | -16.0m/s | -56.5°C | 1.2% | 117.5hPa | 2.6V | 00:00:00 | 00:00:00 | 00:00:00 | |
| DB0DAN | 2026-09-04 12:36:55 | 52.78891 | 12.00383 | 90° | 71km/h | 15517m | -18.9m/s | -56.4°C | 1.2% | 117.3hPa | 2.6V | 00:00:00 | 00:00:00 | 00:00:00 | |
| DF8AY | 2026-09-04 12:36:54 | 52.78891 | 12.00352 | 91° | 75km/h | 15535m | -18.7m/s | -56.4°C | 0.3% | 116.9hPa | 2.6V | 03:11:18 | 02:29:12 | 00:00:00 | |
| GOEST3-10 | 2026-09-04 12:36:54 | 52.78891 | 12.00352 | 91° | 75km/h | 15535m | -18.6m/s | -56.4°C | 4.4% | 116.9hPa | 2.5V | 03:10:00 | 00:00:00 | 00:00:00 | |
| DO2SHX-10 | 2026-09-04 12:36:53 | 52.78891 | 12.00321 | 90° | 75km/h | 15553m | -17.6m/s | -56.3°C | 4.4% | 116.5hPa | 2.5V | 00:00:00 | 02:29:11 | 00:00:00 | |
| DL1XH-15 | 2026-09-04 12:36:52 | 52.78887 | 12.00167 | 83° | 75km/h | 15642m | -19.5m/s | -56.9°C | 4.5% | 115hPa | 2.5V | 03:10:57 | 02:29:06 | 00:00:00 | |
| DL1XH-west | 2026-09-04 12:36:51 | 52.78891 | 12.00258 | 88° | 78km/h | 15587m | -17.8m/s | -56.5°C | 0.2% | 115.9hPa | 2.7V | 03:11:18 | 02:29:09 | 00:00:00 | |
| SMARD9-15 | 2026-09-04 12:36:51 | 52.78890 | 12.00227 | 85° | 71km/h | 15605m | -18.5m/s | -56.6°C | 1.2% | 115.7hPa | 2.7V | 00:00:00 | 00:00:00 | 00:00:00 | |
| DL1XH1-15 | 2026-09-04 12:36:50 | 52.78881 | 12.00075 | 81° | 77km/h | 15694m | -16.2m/s | -56.5°C | 4.4% | 114hPa | 2.7V | 03:11:00 | 02:29:03 | 00:00:00 | |
| AA1-15 | 2026-09-04 12:36:48 | 52.78887 | 12.00166 | 84° | 75km/h | 15642m | -19.5m/s | -56.9°C | 0.3% | 115hPa | 2.5V | 03:11:18 | 02:29:06 | 00:00:00 | |
| BIOWL1-15 | 2026-09-04 12:36:45 | 52.78881 | 12.00075 | 82° | 77km/h | 15694m | -16.3m/s | -56.5°C | 0.2% | 114hPa | 2.7V | 03:11:18 | 02:29:03 | 00:00:00 | |
| DM0DOS-11 | 2026-09-04 12:36:45 | 52.78873 | 11.99946 | 84° | 78km/h | 15760m | -16.2m/s | -56°C | 4.2% | 112.8hPa | 2.6V | 03:11:04 | 02:28:59 | 00:00:00 | |
| DF8AY | 2026-09-04 12:36:43 | 52.78877 | 12.00012 | 85° | 78km/h | 15726m | -17.4m/s | -56.2°C | 0.2% | 113.4hPa | 2.6V | 03:11:18 | 02:29:01 | 00:00:00 | |
| DL1ZP-14 | 2026-09-04 12:36:43 | 52.78877 | 12.00012 | 84° | 77km/h | 15726m | -17.4m/s | -56.2°C | 1.2% | 113.4hPa | 2.6V | 00:00:00 | 00:00:00 | 00:00:00 | |
| DL1XH-15 | 2026-09-04 12:36:42 | 52.78870 | 11.99848 | 88° | 82km/h | 15810m | -18.1m/s | -55.6°C | 4% | 111.9hPa | 2.6V | 03:11:07 | 02:28:56 | 00:00:00 | |
| DL1XH-west | 2026-09-04 12:36:40 | 52.78872 | 11.99914 | 86° | 78km/h | 15776m | -18.1m/s | -56°C | 0.1% | 112.5hPa | 2.7V | 03:11:18 | 02:28:58 | 00:00:00 | |
| DB0DAN | 2026-09-04 12:36:40 | 52.78872 | 11.99914 | 86° | 75km/h | 15776m | -18.1m/s | -56°C | 1.1% | 112.53hPa | 2.7V | 00:00:00 | 00:00:00 | 00:00:00 | |
| AA1-15 | 2026-09-04 12:36:38 | 52.78870 | 11.99814 | 90° | 78km/h | 15829m | -18.9m/s | -55.3°C | 0% | 111.7hPa | 2.6V | 03:11:18 | 02:28:55 | 00:00:00 | |
| EDDB2-11 | 2026-09-04 12:36:37 | 52.78870 | 11.99781 | 92° | 80km/h | 15847m | -18.5m/s | -55.2°C | 1.0% | 111.3hPa | 2.6V | 00:00:00 | 00:00:00 | 00:00:00 | |
| DF7ER-10 | 2026-09-04 12:36:36 | 52.78870 | 11.99781 | 93° | 80km/h | 15847m | -18.5m/s | -55.2°C | 1.0% | 111.3hPa | 2.6V | 03:11:00 | 00:00:00 | 00:00:00 | |
| DM0DOS-11 | 2026-09-04 12:36:35 | 52.78873 | 11.99613 | 89° | 82km/h | 15938m | -18.8m/s | -55.5°C | 4% | 109.8hPa | 2.6V | 03:11:14 | 02:28:49 | 00:00:00 | |
| BIOWL1-15 | 2026-09-04 12:36:35 | 52.78874 | 11.99512 | 89° | 78km/h | 15989m | -16.9m/s | -55.3°C | 0% | 108.8hPa | 2.7V | 03:11:18 | 02:28:46 | 00:00:00 | |
| DO2SHX-10 | 2026-09-04 12:36:35 | 52.78871 | 11.99747 | 91° | 80km/h | 15865m | -18.4m/s | -55.1°C | 3.8% | 110.9hPa | 2.6V | 03:11:00 | 02:28:53 | 00:00:00 | |
| BIOWL9-15 | 2026-09-04 12:36:34 | 52.78871 | 11.99713 | 91° | 78km/h | 15884m | -19.3m/s | -55.2°C | 1.0% | 110.7hPa | 2.6V | 00:00:00 | 00:00:00 | 00:00:00 | |
| AM1SDL-15 | 2026-09-04 12:36:33 | 52.78872 | 11.99680 | 92° | 80km/h | 15902m | -17.8m/s | -55.3°C | 3.9% | 110.3hPa | 2.6V | 03:11:00 | 02:28:51 | 00:00:00 | |
| DF8AY | 2026-09-04 12:36:33 | 52.78872 | 11.99680 | 92° | 78km/h | 15902m | -17.8m/s | -55.3°C | 0% | 110.4hPa | 2.6V | 03:11:18 | 02:28:51 | 00:00:00 | |
| GOEST3-10 | 2026-09-04 12:36:32 | 52.78873 | 11.99613 | 90° | 80km/h | 15938m | -18.7m/s | -55.5°C | 4.0% | 109.7hPa | 2.6V | 03:11:00 | 00:00:00 | 00:00:00 | |
| SONCRA | 2026-09-04 12:36:31 | 52.78873 | 11.99579 | 90° | 80km/h | 15955m | -17.2m/s | -55.5°C | 1.0% | 109.4hPa | 2.6V | 00:00:00 | 00:00:00 | 00:00:00 | |
| DL1XH1-15 | 2026-09-04 12:36:30 | 52.78875 | 11.99410 | 89° | 80km/h | 16039m | -16.8m/s | -54.9°C | 3.8% | 108hPa | 2.6V | 03:11:20 | 02:28:43 | 00:00:00 | |
| DL1XH-west | 2026-09-04 12:36:30 | 52.78873 | 11.99579 | 90° | 80km/h | 15955m | -17.2m/s | -55.5°C | 0% | 109.4hPa | 2.7V | 03:11:18 | 02:28:48 | 00:00:00 | |
| AA1-15 | 2026-09-04 12:36:27 | 52.78874 | 11.99479 | 92° | 80km/h | 16006m | -17.3m/s | -55°C | 0% | 108.5hPa | 2.5V | 03:11:18 | 02:28:45 | 00:00:00 | |
| DB0DAN | 2026-09-04 12:36:25 | 52.78875 | 11.99410 | 90° | 77km/h | 16039m | -16.8m/s | -54.9°C | 0.9% | 107.98hPa | 2.6V | 00:00:00 | 00:00:00 | 00:00:00 | |
| DF8AY | 2026-09-04 12:36:23 | 52.78876 | 11.99344 | 92° | 78km/h | 16071m | -16.5m/s | -55.1°C | 0% | 107.4hPa | 2.7V | 03:12:09 | 02:28:41 | 00:00:00 | |
| DF2AP-13 | 2026-09-04 12:36:23 | 52.78875 | 11.99343 | 92° | 62km/h | 16071m | -16.4m/s | -55.0°C | 3.9% | 107.4hPa | 2.6V | 00:00:00 | 02:28:41 | 00:00:00 | |
| DL1LOL-11 | 2026-09-04 12:36:21 | 52.78877 | 11.99277 | 94° | 82km/h | 16103m | -16.7m/s | -55.0°C | 1.0% | 106.8hPa | 2.6V | 00:00:00 | 00:00:00 | 00:00:00 | |
| DL1XH1-15 | 2026-09-04 12:36:20 | 52.78890 | 11.99088 | 98° | 69km/h | 16198m | -18m/s | -54.6°C | 3.8% | 105.3hPa | 2.6V | 03:11:30 | 02:28:33 | 00:00:00 | |
| DL1XH-west | 2026-09-04 12:36:19 | 52.78880 | 11.99210 | 94° | 78km/h | 16136m | -16.6m/s | -54.7°C | 0% | 106.3hPa | 2.7V | 03:12:09 | 02:28:37 | 00:00:00 | |
| BIOWL1-15 | 2026-09-04 12:36:18 | 52.78883 | 11.99178 | 97° | 77km/h | 16152m | -15.5m/s | -54.7°C | 0% | 106hPa | 2.7V | 03:12:09 | 02:28:36 | 00:00:00 | |
| AA1-15 | 2026-09-04 12:36:16 | 52.78888 | 11.99117 | 96° | 69km/h | 16183m | -14.9m/s | -54.7°C | 0% | 105.5hPa | 2.6V | 03:12:09 | 02:28:34 | 00:00:00 | |
| DM0DOS-11 | 2026-09-04 12:36:15 | 52.78901 | 11.98982 | 100° | 58km/h | 16265m | -15.4m/s | -54.2°C | 3.7% | 104.1hPa | 2.6V | 03:11:34 | 02:28:29 | 00:00:00 | |
| DF8AY | 2026-09-04 12:36:12 | 52.78899 | 11.99007 | 98° | 60km/h | 16249m | -16.3m/s | -54.3°C | 0% | 104.4hPa | 2.6V | 03:12:09 | 02:28:30 | 00:00:00 | |
| DL1XH-15 | 2026-09-04 12:36:12 | 52.78910 | 11.98908 | 98° | 57km/h | 16314m | -18m/s | -53.9°C | 3.5% | 103.4hPa | 2.7V | 03:11:37 | 02:28:26 | 00:00:00 | |
| DB0DAN | 2026-09-04 12:36:10 | 52.78905 | 11.98957 | 102° | 58km/h | 16280m | -16.3m/s | -54°C | 0.8% | 103.89hPa | 2.6V | 00:00:00 | 00:00:00 | 00:00:00 | |
| DL1XH1-15 | 2026-09-04 12:36:10 | 52.78915 | 11.98838 | 92° | 53km/h | 16370m | -18.7m/s | -54°C | 3.6% | 102.5hPa | 2.6V | 03:11:40 | 02:28:23 | 00:00:00 | |
| DL1XH-west | 2026-09-04 12:36:08 | 52.78910 | 11.98908 | 99° | 57km/h | 16314m | -18m/s | -53.9°C | 0% | 103.4hPa | 2.7V | 03:12:09 | 02:28:26 | 00:00:00 | |
| BIOWL1-15 | 2026-09-04 12:36:07 | 52.78916 | 11.98793 | 92° | 57km/h | 16404m | -16.8m/s | -54.1°C | 0% | 101.9hPa | 2.7V | 03:12:09 | 02:28:21 | 00:00:00 | |
| AA1-15 | 2026-09-04 12:36:05 | 52.78915 | 11.98838 | 93° | 53km/h | 16370m | -18.7m/s | -54.1°C | 0% | 102.5hPa | 2.6V | 03:12:09 | 02:28:23 | 00:00:00 | |
| DF7ER-10 | 2026-09-04 12:36:05 | 52.78914 | 11.98838 | 94° | 53km/h | 16370m | -18.7m/s | -54.0°C | 0.9% | 102.5hPa | 2.6V | 03:12:00 | 00:00:00 | 00:00:00 | |
| DL1XH-15 | 2026-09-04 12:36:03 | 52.78919 | 11.98684 | 90° | 49km/h | 16492m | -16.5m/s | -54.2°C | 3.6% | 100.5hPa | 2.6V | 03:11:47 | 02:28:16 | 00:00:00 | |
| DF8AY | 2026-09-04 12:36:02 | 52.78917 | 11.98770 | 92° | 55km/h | 16422m | -18.3m/s | -54.1°C | 0% | 101.7hPa | 2.7V | 03:12:09 | 02:28:20 | 00:00:00 | |
| DO2SHX-10 | 2026-09-04 12:36:02 | 52.78917 | 11.98770 | 92° | 53km/h | 16422m | -18.3m/s | -54.0°C | 3.6% | 101.6hPa | 2.7V | 00:00:00 | 02:28:20 | 00:00:00 | |
| GOEST3-10 | 2026-09-04 12:36:01 | 52.78917 | 11.98747 | 92° | 51km/h | 16440m | -18.8m/s | -54.1°C | 3.6% | 101.4hPa | 2.6V | 00:00:00 | 00:00:00 | 00:00:00 | |
| DL1XH1-15 | 2026-09-04 12:36:00 | 52.78921 | 11.98618 | 93° | 55km/h | 16543m | -17.8m/s | -54.2°C | 3.6% | 99.7hPa | 2.7V | 03:11:50 | 02:28:13 | 00:00:00 | |
| DL1XH-west | 2026-09-04 12:35:58 | 52.78919 | 11.98663 | 91° | 51km/h | 16508m | -17m/s | -54.3°C | 0% | 100.2hPa | 2.6V | 03:12:09 | 02:28:15 | 00:00:00 | |
| BIOWL1-15 | 2026-09-04 12:35:56 | 52.78920 | 11.98641 | 93° | 55km/h | 16526m | -18.6m/s | -54.2°C | 0% | 100hPa | 2.6V | 03:12:09 | 02:28:14 | 00:00:00 | |
| DB0DAN | 2026-09-04 12:35:55 | 52.78921 | 11.98618 | 94° | 53km/h | 16543m | -17.8m/s | -54.2°C | 0.8% | 99.69hPa | 2.7V | 00:00:00 | 00:00:00 | 00:00:00 | |
| AA1-15 | 2026-09-04 12:35:54 | 52.78922 | 11.98595 | 92° | 55km/h | 16560m | -17.9m/s | -54.1°C | 0% | 99.4hPa | 2.6V | 03:12:09 | 02:28:12 | 00:00:00 | |
| DF8AY | 2026-09-04 12:35:51 | 52.78915 | 11.98405 | 80° | 62km/h | 16691m | -16.3m/s | -53.7°C | 0% | 97.5hPa | 2.7V | 03:12:09 | 02:28:04 | 00:00:00 | |
| SMARD9-15 | 2026-09-04 12:35:48 | 52.78919 | 11.98454 | 82° | 57km/h | 16658m | -17.1m/s | -53.5°C | 0.8% | 97.9hPa | 2.7V | 00:00:00 | 00:00:00 | 00:00:00 | |
| DL1XH1-15 | 2026-09-04 12:35:47 | 52.78913 | 11.98380 | 81° | 62km/h | 16707m | -17.2m/s | -53.7°C | 3.4% | 97.2hPa | 2.7V | 03:12:00 | 02:28:03 | 00:00:00 | |
| DL1XH-west | 2026-09-04 12:35:47 | 52.78917 | 11.98430 | 81° | 58km/h | 16674m | -17m/s | -53.6°C | 0% | 97.7hPa | 2.6V | 03:12:09 | 02:28:05 | 00:00:00 | |
| BIOWL1-15 | 2026-09-04 12:35:45 | 52.78913 | 11.98380 | 82° | 62km/h | 16707m | -17.2m/s | -53.7°C | 0% | 97.2hPa | 2.7V | 03:12:09 | 02:28:03 | 00:00:00 | |
| AA1-15 | 2026-09-04 12:35:43 | 52.78909 | 11.98327 | 83° | 66km/h | 16743m | -18.2m/s | -53.9°C | 0% | 96.7hPa | 2.6V | 03:12:09 | 02:28:01 | 00:00:00 | |
| DB0DAN | 2026-09-04 12:35:40 | 52.78904 | 11.98241 | 86° | 68km/h | 16793m | -17.3m/s | -53.8°C | 0.8% | 95.96hPa | 2.7V | 00:00:00 | 00:00:00 | 00:00:00 | |
| DL1XH1-15 | 2026-09-04 12:35:40 | 52.78903 | 11.98094 | 89° | 71km/h | 16875m | -17.4m/s | -54.1°C | 3.5% | 94.7hPa | 2.7V | 03:12:10 | 02:27:53 | 00:00:00 | |
| DL1XH-west | 2026-09-04 12:35:36 | 52.78903 | 11.98123 | 90° | 71km/h | 16859m | -16.7m/s | -54°C | 0% | 95hPa | 2.6V | 03:12:09 | 02:27:54 | 00:00:00 | |
| BIOWL1-15 | 2026-09-04 12:35:35 | 52.78903 | 11.98094 | 90° | 71km/h | 16875m | -17.4m/s | -54.1°C | 0% | 94.7hPa | 2.7V | 03:13:00 | 02:27:53 | 00:00:00 | |
| AA1-15 | 2026-09-04 12:35:33 | 52.78907 | 11.98008 | 98° | 66km/h | 16926m | -15.7m/s | -54.2°C | 0% | 93.9hPa | 2.6V | 03:13:00 | 02:27:50 | 00:00:00 | |
| DL1XH-15 | 2026-09-04 12:35:32 | 52.78917 | 11.97900 | 99° | 64km/h | 16987m | -16.3m/s | -54°C | 3.5% | 93hPa | 2.7V | 03:12:17 | 02:27:46 | 00:00:00 | |
| DO2SHX-10 | 2026-09-04 12:35:32 | 52.78907 | 11.98008 | 98° | 66km/h | 16926m | -15.7m/s | -54.2°C | 3.6% | 93.9hPa | 2.6V | 00:00:00 | 02:27:50 | 00:00:00 | |
| DL1NUX | 2026-09-04 12:35:31 | 52.78923 | 11.97850 | 101° | 62km/h | 17015m | -15.1m/s | -54°C | 3.5% | 92.6hPa | 2.6V | 03:12:19 | 02:27:44 | 00:00:00 | |
| GOEST3-10 | 2026-09-04 12:35:31 | 52.78910 | 11.97981 | 97° | 66km/h | 16942m | -16.3m/s | -54.1°C | 3.5% | 93.6hPa | 2.6V | 03:12:00 | 00:00:00 | 00:00:00 | |
| SONDE2-11 | 2026-09-04 12:35:29 | 52.78917 | 11.97900 | 99° | 62km/h | 16987m | -16.3m/s | -54.0°C | 0.8% | 93.0hPa | 2.6V | 00:00:00 | 00:00:00 | 00:00:00 | |
| SONCRA | 2026-09-04 12:35:28 | 52.78917 | 11.97900 | 99° | 62km/h | 16987m | -16.3m/s | -54.0°C | 0.8% | 93.0hPa | 2.6V | 00:00:00 | 00:00:00 | 00:00:00 | |
| DL1XH1-15 | 2026-09-04 12:35:27 | 52.78926 | 11.97826 | 102° | 55km/h | 17030m | -15.8m/s | -54°C | 3.4% | 92.4hPa | 2.6V | 03:12:20 | 02:27:43 | 00:00:00 | |
| DL1XH-west | 2026-09-04 12:35:26 | 52.78923 | 11.97850 | 102° | 62km/h | 17015m | -15.1m/s | -54°C | 0% | 92.6hPa | 2.6V | 03:13:00 | 02:27:44 | 00:00:00 | |
| DB0DAN | 2026-09-04 12:35:25 | 52.78927 | 11.97826 | 103° | 53km/h | 17030m | -15.8m/s | -54°C | 0.7% | 92.43hPa | 2.6V | 00:00:00 | 00:00:00 | 00:00:00 | |
| BIOWL1-15 | 2026-09-04 12:35:25 | 52.78927 | 11.97826 | 103° | 55km/h | 17030m | -15.8m/s | -54°C | 0% | 92.4hPa | 2.6V | 03:13:00 | 02:27:43 | 00:00:00 | |
| AA1-15 | 2026-09-04 12:35:22 | 52.78938 | 11.97758 | 105° | 53km/h | 17082m | -19.2m/s | -54.1°C | 0% | 91.8hPa | 2.7V | 03:13:00 | 02:27:40 | 00:00:00 | |
| DL1XH-15 | 2026-09-04 12:35:22 | 52.78952 | 11.97676 | 101° | 51km/h | 17154m | -20.3m/s | -54.1°C | 3.4% | 90.8hPa | 2.7V | 03:12:27 | 02:27:36 | 00:00:00 | |
| DF7ER-10 | 2026-09-04 12:35:22 | 52.78934 | 11.97780 | 107° | 58km/h | 17064m | -18.3m/s | -54.1°C | 0.8% | 92.0hPa | 2.6V | 03:13:00 | 00:00:00 | 00:00:00 | |
| DB0UT-7 | 2026-09-04 12:35:21 | 52.78942 | 11.97736 | 105° | 47km/h | 17101m | -18.9m/s | -54.0°C | 3.4% | 91.5hPa | 2.6V | 03:12:00 | 02:27:39 | 00:00:00 | |
| DO2SHX-10 | 2026-09-04 12:35:20 | 52.78946 | 11.97716 | 105° | 49km/h | 17118m | -17.1m/s | -54.0°C | 3.4% | 91.1hPa | 2.6V | 00:00:00 | 02:27:38 | 00:00:00 | |
| DL1XH1-15 | 2026-09-04 12:35:17 | 52.78958 | 11.97621 | 94° | 42km/h | 17213m | -18.8m/s | -54.3°C | 3.5% | 89.9hPa | 2.6V | 03:12:30 | 02:27:33 | 00:00:00 | |
| DL1XH-west | 2026-09-04 12:35:16 | 52.78957 | 11.97639 | 97° | 44km/h | 17194m | -19.9m/s | -54.2°C | 0% | 90.2hPa | 2.6V | 03:13:00 | 02:27:34 | 00:00:00 | |
| DF8AY | 2026-09-04 12:35:15 | 52.78958 | 11.97621 | 94° | 42km/h | 17213m | -18.8m/s | -54.3°C | 0% | 89.9hPa | 2.6V | 03:13:00 | 02:27:33 | 00:00:00 | |
| BIOWL1-15 | 2026-09-04 12:35:14 | 52.78959 | 11.97604 | 98° | 42km/h | 17231m | -19.3m/s | -54.4°C | 0% | 89.6hPa | 2.6V | 03:13:00 | 02:27:32 | 00:00:00 | |
| DO2SHX-10 | 2026-09-04 12:35:14 | 52.78959 | 11.97604 | 99° | 40km/h | 17231m | -19.2m/s | -54.3°C | 3.5% | 89.6hPa | 2.6V | 00:00:00 | 02:27:32 | 00:00:00 | |
| NBG1-10 | 2026-09-04 12:35:13 | 52.78960 | 11.97587 | 91° | 46km/h | 17251m | -21.0m/s | -54.4°C | 3.5% | 89.4hPa | 2.6V | 03:12:00 | 02:27:31 | 00:00:00 | |
| DL1XH-15 | 2026-09-04 12:35:12 | 52.78956 | 11.97506 | 72° | 42km/h | 17338m | -20.2m/s | -55°C | 3.7% | 88.2hPa | 2.6V | 03:12:37 | 02:27:26 | 00:00:00 | |
| AA1-15 | 2026-09-04 12:35:12 | 52.78961 | 11.97554 | 82° | 37km/h | 17287m | -15.8m/s | -54.7°C | 0% | 88.8hPa | 2.7V | 03:13:00 | 02:27:29 | 00:00:00 | |
| DF7ER-10 | 2026-09-04 12:35:12 | 52.78961 | 11.97570 | 91° | 40km/h | 17271m | -18.0m/s | -54.6°C | 0.8% | 89.2hPa | 2.7V | 03:13:00 | 00:00:00 | 00:00:00 | |
| DB0DAN | 2026-09-04 12:35:10 | 52.78960 | 11.97539 | 81° | 35km/h | 17303m | -16.3m/s | -54.8°C | 0.8% | 88.59hPa | 2.7V | 00:00:00 | 00:00:00 | 00:00:00 | |
| BIOWL1-15 | 2026-09-04 12:35:10 | 52.78945 | 11.97439 | 76° | 46km/h | 17410m | -17.2m/s | -54.9°C | 0% | 87.2hPa | 2.7V | 03:13:00 | 02:27:22 | 00:00:00 | |
| AM1SDL-15 | 2026-09-04 12:35:09 | 52.78958 | 11.97523 | 80° | 46km/h | 17320m | -17.7m/s | -54.8°C | 3.6% | 88.4hPa | 2.6V | 00:00:00 | 02:27:27 | 00:00:00 | |
| DO2SHX-10 | 2026-09-04 12:35:08 | 52.78956 | 11.97506 | 73° | 42km/h | 17338m | -20.2m/s | -54.9°C | 3.7% | 88.2hPa | 2.6V | 00:00:00 | 02:27:26 | 00:00:00 | |
| DL1XH1-15 | 2026-09-04 12:35:07 | 52.78948 | 11.97456 | 72° | 44km/h | 17394m | -17.2m/s | -55°C | 3.8% | 87.4hPa | 2.7V | 03:12:40 | 02:27:23 | 00:00:00 | |
| DF8AY | 2026-09-04 12:35:05 | 52.78948 | 11.97456 | 73° | 44km/h | 17394m | -17.2m/s | -55°C | 0% | 87.4hPa | 2.7V | 03:13:00 | 02:27:23 | 00:00:00 | |
| DO2SHX-10 | 2026-09-04 12:35:05 | 52.78948 | 11.97456 | 73° | 46km/h | 17394m | -17.1m/s | -54.9°C | 3.8% | 87.3hPa | 2.7V | 00:00:00 | 02:27:23 | 00:00:00 | |
| DM0DOS-11 | 2026-09-04 12:35:04 | 52.78938 | 11.97381 | 81° | 46km/h | 17459m | -16.8m/s | -55°C | 3.7% | 86.5hPa | 2.7V | 03:12:44 | 02:27:19 | 00:00:00 | |
| EDDB2-11 | 2026-09-04 12:35:04 | 52.78942 | 11.97420 | 76° | 47km/h | 17427m | -17.9m/s | -54.8°C | 0.8% | 86.9hPa | 2.6V | 00:00:00 | 00:00:00 | 00:00:00 | |
| DL1XH-15 | 2026-09-04 12:35:02 | 52.78936 | 11.97317 | 89° | 53km/h | 17516m | -18.1m/s | -55.1°C | 3.8% | 85.7hPa | 2.6V | 03:12:47 | 02:27:16 | 00:00:00 | |
| AA1-15 | 2026-09-04 12:35:01 | 52.78938 | 11.97381 | 82° | 46km/h | 17459m | -16.8m/s | -55°C | 0% | 86.5hPa | 2.7V | 03:13:00 | 02:27:19 | 00:00:00 | |
| GOEST3-10 | 2026-09-04 12:35:01 | 52.78938 | 11.97380 | 82° | 51km/h | 17459m | -16.7m/s | -54.9°C | 3.7% | 86.5hPa | 2.7V | 00:00:00 | 00:00:00 | 00:00:00 | |
| DL1XH1-15 | 2026-09-04 12:35:00 | 52.78934 | 11.97249 | 85° | 58km/h | 17569m | -19.4m/s | -54.9°C | 3.7% | 85.1hPa | 2.7V | 03:12:50 | 02:27:13 | 00:00:00 | |
| SONDE2-11 | 2026-09-04 12:34:58 | 52.78935 | 11.97295 | 85° | 51km/h | 17533m | -16.9m/s | -55.1°C | 0.8% | 85.6hPa | 2.7V | 00:00:00 | 00:00:00 | 00:00:00 | |
| SP3BTT-10 | 2026-09-04 12:34:57 | 52.78935 | 11.97295 | 86° | 33km/h | 17533m | -16.9m/s | -55.1°C | 3.7% | 85.5hPa | 2.7V | 00:00:00 | 00:00:00 | 00:00:00 | |
| DB0DAN | 2026-09-04 12:34:55 | 52.78934 | 11.97249 | 85° | 57km/h | 17569m | -19.4m/s | -54.9°C | 0.7% | 85.09hPa | 2.7V | 00:00:00 | 00:00:00 | 00:00:00 | |
| DL1XH-west | 2026-09-04 12:34:55 | 52.78934 | 11.97249 | 85° | 58km/h | 17569m | -19.4m/s | -54.9°C | 0% | 85.1hPa | 2.7V | 03:13:00 | 02:27:13 | 00:00:00 | |
| EDDB2-12 | 2026-09-04 12:34:54 | 52.78933 | 11.97225 | 82° | 55km/h | 17589m | -20.8m/s | -54.6°C | 0.7% | 84.9hPa | 2.6V | 00:00:00 | 00:00:00 | 00:00:00 | |
| DM0DOS-11 | 2026-09-04 12:34:53 | 52.78927 | 11.97155 | 83° | 58km/h | 17646m | -17.7m/s | -54.3°C | 3.5% | 84hPa | 2.6V | 03:12:54 | 02:27:09 | 00:00:00 | |
| BIOWL1-15 | 2026-09-04 12:34:53 | 52.78931 | 11.97202 | 80° | 55km/h | 17610m | -19.3m/s | -54.3°C | 0% | 84.6hPa | 2.7V | 03:13:00 | 02:27:11 | 00:00:00 | |
| AA1-15 | 2026-09-04 12:34:51 | 52.78925 | 11.97132 | 83° | 57km/h | 17664m | -18.6m/s | -54.4°C | 0% | 83.8hPa | 2.6V | 03:13:00 | 02:27:08 | 00:00:00 | |
| DO2SHX-10 | 2026-09-04 12:34:50 | 52.78925 | 11.97132 | 83° | 58km/h | 17664m | -18.6m/s | -54.3°C | 3.5% | 83.7hPa | 2.6V | 00:00:00 | 02:27:08 | 00:00:00 | |
| DL1XH-15 | 2026-09-04 12:34:49 | 52.78922 | 11.97084 | 83° | 58km/h | 17702m | -19.6m/s | -54.5°C | 3.6% | 83.3hPa | 2.7V | 03:12:57 | 02:27:06 | 00:00:00 | |
| DF8AY | 2026-09-04 12:34:44 | 52.78921 | 11.96996 | 91° | 51km/h | 17774m | -18.5m/s | -54.3°C | 0% | 82.3hPa | 2.6V | 03:14:42 | 02:27:02 | 00:00:00 | |
| DO2SHX-10 | 2026-09-04 12:34:44 | 52.78921 | 11.96996 | 92° | 51km/h | 17774m | -18.4m/s | -54.2°C | 3.5% | 82.3hPa | 2.7V | 00:00:00 | 02:27:02 | 00:00:00 | |
| DM0DOS-11 | 2026-09-04 12:34:43 | 52.78925 | 11.96933 | 95° | 47km/h | 17828m | -18.8m/s | -54.4°C | 3.5% | 81.7hPa | 2.7V | 03:13:04 | 02:26:59 | 00:00:00 | |
| DL1NUX | 2026-09-04 12:34:42 | 52.78929 | 11.96858 | 94° | 42km/h | 17905m | -19.6m/s | -54.4°C | 3.4% | 80.7hPa | 2.7V | 03:13:08 | 02:26:55 | 00:00:00 | |
| AA1-15 | 2026-09-04 12:34:41 | 52.78926 | 11.96913 | 96° | 47km/h | 17848m | -20.3m/s | -54.5°C | 0% | 81.4hPa | 2.6V | 03:13:51 | 02:26:58 | 00:00:00 | |
| DL1XH1-15 | 2026-09-04 12:34:40 | 52.78931 | 11.96822 | 94° | 42km/h | 17943m | -19.2m/s | -54.3°C | 3.4% | 80.2hPa | 2.7V | 03:13:10 | 02:26:53 | 00:00:00 | |
| DB0DAN | 2026-09-04 12:34:40 | 52.78926 | 11.96913 | 96° | 46km/h | 17848m | -20.3m/s | -54.5°C | 0.7% | 81.44hPa | 2.6V | 00:00:00 | 00:00:00 | 00:00:00 | |
| DF8AY | 2026-09-04 12:34:34 | 52.78932 | 11.96805 | 87° | 38km/h | 17962m | -18.7m/s | -54.3°C | 0% | 80hPa | 2.6V | 03:14:42 | 02:26:52 | 00:00:00 | |
| DL1XH-west | 2026-09-04 12:34:34 | 52.78932 | 11.96789 | 89° | 38km/h | 17981m | -19.9m/s | -54.4°C | 0% | 79.7hPa | 2.6V | 03:13:51 | 02:26:51 | 00:00:00 | |
| AM1SDL-15 | 2026-09-04 12:34:33 | 52.78932 | 11.96789 | 90° | 40km/h | 17981m | -19.9m/s | -54.4°C | 3.5% | 79.7hPa | 2.6V | 00:00:00 | 02:26:51 | 00:00:00 | |
| BIOWL1-15 | 2026-09-04 12:34:33 | 52.78930 | 11.96759 | 80° | 35km/h | 18019m | -19.1m/s | -54.5°C | 0% | 79.2hPa | 2.6V | 03:13:51 | 02:26:49 | 00:00:00 | |
| DM0DOS-11 | 2026-09-04 12:34:32 | 52.78930 | 11.96759 | 79° | 35km/h | 18019m | -19.1m/s | -54.5°C | 3.5% | 79.2hPa | 2.6V | 03:13:14 | 02:26:49 | 00:00:00 | |
| AA1-15 | 2026-09-04 12:34:29 | 52.78926 | 11.96730 | 75° | 38km/h | 18054m | -17.5m/s | -54.5°C | 0% | 78.8hPa | 2.7V | 03:13:51 | 02:26:47 | 00:00:00 | |
| DO2SHX-10 | 2026-09-04 12:34:29 | 52.78925 | 11.96730 | 75° | 40km/h | 18054m | -17.4m/s | -54.4°C | 3.5% | 78.7hPa | 2.7V | 00:00:00 | 02:26:47 | 00:00:00 | |
| SMARD9-10 | 2026-09-04 12:34:26 | 52.78920 | 11.96699 | 69° | 40km/h | 18091m | -17.8m/s | -54.4°C | 0.7% | 78.3hPa | 2.7V | 00:00:00 | 00:00:00 | 00:00:00 | |
| DB0DAN | 2026-09-04 12:34:25 | 52.78913 | 11.96664 | 71° | 46km/h | 18124m | -16.7m/s | -54.5°C | 0.7% | 77.93hPa | 2.7V | 00:00:00 | 00:00:00 | 00:00:00 | |
| DF8AY | 2026-09-04 12:34:24 | 52.78906 | 11.96627 | 71° | 49km/h | 18158m | -17.9m/s | -54.8°C | 0% | 77.5hPa | 2.7V | 03:14:42 | 02:26:41 | 00:00:00 | |
| DL1XH-west | 2026-09-04 12:34:23 | 52.78902 | 11.96607 | 72° | 51km/h | 18174m | -15.6m/s | -54.9°C | 0% | 77.3hPa | 2.6V | 03:13:51 | 02:26:40 | 00:00:00 | |
| DM0DOS-11 | 2026-09-04 12:34:23 | 52.78898 | 11.96586 | 75° | 53km/h | 18190m | -17.5m/s | -54.9°C | 3.7% | 77.1hPa | 2.6V | 03:13:24 | 02:26:39 | 00:00:00 | |
| DL1XH-15 | 2026-09-04 12:34:23 | 52.78888 | 11.96521 | 74° | 55km/h | 18246m | -19.2m/s | -55.1°C | 3.8% | 76.5hPa | 2.7V | 03:13:27 | 02:26:36 | 00:00:00 | |
| BIOWL1-15 | 2026-09-04 12:34:20 | 52.78895 | 11.96564 | 77° | 53km/h | 18208m | -19.2m/s | -55°C | 0% | 77hPa | 2.6V | 03:13:51 | 02:26:38 | 00:00:00 | |
| AA1-15 | 2026-09-04 12:34:19 | 52.78888 | 11.96521 | 75° | 55km/h | 18246m | -19.2m/s | -55.2°C | 0% | 76.5hPa | 2.7V | 03:13:51 | 02:26:36 | 00:00:00 | |
| DB0NH | 2026-09-04 12:34:17 | 52.78885 | 11.96499 | 75° | 53km/h | 18264m | -18.2m/s | -55.1°C | 3.8% | 76.2hPa | 2.7V | 00:00:00 | 02:26:35 | 00:00:00 | |
| DM0DOS-11 | 2026-09-04 12:34:16 | 52.78869 | 11.96351 | 78° | 60km/h | 18369m | -15.8m/s | -54.7°C | 3.8% | 75hPa | 2.7V | 03:13:34 | 02:26:29 | 00:00:00 | |
| DF8AY | 2026-09-04 12:34:12 | 52.78872 | 11.96375 | 79° | 60km/h | 18352m | -17.8m/s | -54.9°C | 0% | 75.2hPa | 2.7V | 03:14:42 | 02:26:30 | 00:00:00 | |
| DL1NUX | 2026-09-04 12:34:12 | 52.78862 | 11.96251 | 87° | 60km/h | 18436m | -17.1m/s | -54°C | 3.5% | 74.3hPa | 2.7V | 03:13:38 | 02:26:25 | 00:00:00 | |
| DL1XH-west | 2026-09-04 12:34:11 | 52.78869 | 11.96351 | 79° | 60km/h | 18369m | -15.8m/s | -54.7°C | 0% | 75hPa | 2.7V | 03:13:51 | 02:26:29 | 00:00:00 | |
| DL1XH-15 | 2026-09-04 12:34:11 | 52.78863 | 11.96276 | 83° | 60km/h | 18418m | -17.8m/s | -54.3°C | 3.6% | 74.5hPa | 2.6V | 03:13:37 | 02:26:26 | 00:00:00 | |
| BIOWL1-15 | 2026-09-04 12:34:11 | 52.78864 | 11.96301 | 83° | 62km/h | 18401m | -16.6m/s | -54.3°C | 0% | 74.7hPa | 2.6V | 03:13:51 | 02:26:27 | 00:00:00 | |
| DB0DAN | 2026-09-04 12:34:10 | 52.78866 | 11.96326 | 82° | 57km/h | 18385m | -15.1m/s | -54.5°C | 0.7% | 74.79hPa | 2.7V | 00:00:00 | 00:00:00 | 00:00:00 | |
| DF7ER-10 | 2026-09-04 12:34:09 | 52.78864 | 11.96301 | 84° | 62km/h | 18401m | -16.6m/s | -54.3°C | 0.7% | 74.7hPa | 2.7V | 03:13:00 | 00:00:00 | 00:00:00 | |
| AA1-15 | 2026-09-04 12:34:08 | 52.78863 | 11.96276 | 83° | 60km/h | 18418m | -17.8m/s | -54.3°C | 0% | 74.5hPa | 2.6V | 03:13:51 | 02:26:26 | 00:00:00 | |
| DO2SHX-10 | 2026-09-04 12:34:08 | 52.78862 | 11.96275 | 84° | 58km/h | 18418m | -17.7m/s | -54.2°C | 3.6% | 74.4hPa | 2.7V | 00:00:00 | 02:26:26 | 00:00:00 | |
| DF8AY-15 | 2026-09-04 12:34:06 | 52.78861 | 11.96226 | 86° | 49km/h | 18453m | -16.2m/s | -53.7°C | 3.4% | 74.0hPa | 2.7V | 00:00:00 | 02:26:24 | 00:00:00 | |
| DO2SHX-10 | 2026-09-04 12:34:05 | 52.78860 | 11.96203 | 86° | 58km/h | 18469m | -16.6m/s | -53.8°C | 3.5% | 73.8hPa | 2.7V | 00:00:00 | 02:26:23 | 00:00:00 | |
| DM0DOS-11 | 2026-09-04 12:34:02 | 52.78857 | 11.96106 | 88° | 57km/h | 18533m | -17.9m/s | -53.9°C | 3.6% | 73.2hPa | 2.7V | 03:13:44 | 02:26:19 | 00:00:00 | |
| DL1NUX | 2026-09-04 12:34:02 | 52.78859 | 11.96016 | 93° | 53km/h | 18599m | -15m/s | -53.7°C | 3.5% | 72.3hPa | 2.6V | 03:13:48 | 02:26:15 | 00:00:00 | |
| EDDB2-11 | 2026-09-04 12:34:02 | 52.78857 | 11.96106 | 88° | 55km/h | 18533m | -17.9m/s | -53.9°C | 0.6% | 73.2hPa | 2.7V | 00:00:00 | 00:00:00 | 00:00:00 | |
| DL1XH-15 | 2026-09-04 12:34:01 | 52.78858 | 11.96038 | 93° | 57km/h | 18584m | -15.5m/s | -53.8°C | 3.5% | 72.5hPa | 2.7V | 03:13:47 | 02:26:16 | 00:00:00 | |
| DF8AY | 2026-09-04 12:34:01 | 52.78857 | 11.96106 | 89° | 57km/h | 18533m | -17.9m/s | -53.9°C | 0% | 73.2hPa | 2.7V | 03:14:42 | 02:26:19 | 00:00:00 | |
| BIOWL1-15 | 2026-09-04 12:34:01 | 52.78857 | 11.96061 | 93° | 53km/h | 18568m | -17.9m/s | -53.8°C | 0% | 72.8hPa | 2.7V | 03:13:51 | 02:26:17 | 00:00:00 | |
| DL1XH-west | 2026-09-04 12:34:00 | 52.78857 | 11.96083 | 90° | 55km/h | 18550m | -17.3m/s | -53.9°C | 0% | 73hPa | 2.7V | 03:13:51 | 02:26:18 | 00:00:00 | |
| AA1-15 | 2026-09-04 12:33:58 | 52.78859 | 11.96016 | 93° | 53km/h | 18599m | -15m/s | -53.7°C | 0% | 72.3hPa | 2.6V | 03:13:51 | 02:26:15 | 00:00:00 | |
| AM1SDL-15 | 2026-09-04 12:33:57 | 52.78859 | 11.96016 | 94° | 42km/h | 18599m | -15.0m/s | -53.7°C | 3.5% | 72.3hPa | 2.7V | 00:00:00 | 02:26:15 | 00:00:00 | |
| DM0DOS-11 | 2026-09-04 12:33:56 | 52.78870 | 11.95901 | 95° | 40km/h | 18703m | -21.4m/s | -53.5°C | 3.4% | 71.3hPa | 2.7V | 03:13:54 | 02:26:09 | 00:00:00 | |
| DB0DAN | 2026-09-04 12:33:55 | 52.78862 | 11.95974 | 95° | 44km/h | 18632m | -17m/s | -53.7°C | 0.6% | 71.98hPa | 2.6V | 00:00:00 | 00:00:00 | 00:00:00 | |
| DF8AY | 2026-09-04 12:33:51 | 52.78871 | 11.95885 | 92° | 37km/h | 18724m | -22.5m/s | -53.4°C | 0% | 71hPa | 2.6V | 03:14:42 | 02:26:08 | 00:00:00 | |
| DL1XH-15 | 2026-09-04 12:33:51 | 52.78872 | 11.95856 | 92° | 37km/h | 18766m | -18.8m/s | -53.1°C | 3.3% | 70.5hPa | 2.6V | 03:13:57 | 02:26:06 | 00:00:00 | |
| DL1XH-west | 2026-09-04 12:33:49 | 52.78871 | 11.95870 | 90° | 35km/h | 18746m | -21.5m/s | -53.3°C | 0% | 70.8hPa | 2.6V | 03:14:42 | 02:26:07 | 00:00:00 | |
| AA1-15 | 2026-09-04 12:33:47 | 52.78871 | 11.95827 | 84° | 35km/h | 18800m | -16.3m/s | -52.7°C | 0% | 70.1hPa | 2.7V | 03:14:42 | 02:26:04 | 00:00:00 | |
| DF7ER-10 | 2026-09-04 12:33:47 | 52.78872 | 11.95841 | 90° | 35km/h | 18784m | -17.7m/s | -52.9°C | 0.6% | 70.3hPa | 2.7V | 03:14:00 | 00:00:00 | 00:00:00 | |
| DL1XH1-15 | 2026-09-04 12:33:46 | 52.78871 | 11.95812 | 82° | 37km/h | 18816m | -17.1m/s | -52.7°C | 3.2% | 69.9hPa | 2.7V | 03:14:00 | 02:26:03 | 00:00:00 | |
| AM1SDL-15 | 2026-09-04 12:33:46 | 52.78871 | 11.95812 | 83° | 35km/h | 18816m | -17.1m/s | -52.7°C | 3.2% | 69.8hPa | 2.7V | 00:00:00 | 02:26:03 | 00:00:00 | |
| DO2SHX-10 | 2026-09-04 12:33:44 | 52.78870 | 11.95797 | 83° | 37km/h | 18833m | -16.7m/s | -52.8°C | 3.2% | 69.7hPa | 2.7V | 00:00:00 | 02:26:02 | 00:00:00 | |
| DM0DOS-11 | 2026-09-04 12:33:42 | 52.78864 | 11.95754 | 69° | 35km/h | 18880m | -16m/s | -52.7°C | 3.2% | 69.2hPa | 2.7V | 03:14:04 | 02:25:59 | 00:00:00 | |
| DL1NUX | 2026-09-04 12:33:42 | 52.78851 | 11.95700 | 70° | 38km/h | 18950m | -20.2m/s | -52.6°C | 3.1% | 68.5hPa | 2.6V | 03:14:08 | 02:25:55 | 00:00:00 | |
| DL1XH-15 | 2026-09-04 12:33:41 | 52.78854 | 11.95715 | 70° | 35km/h | 18931m | -19.5m/s | -52.7°C | 3.2% | 68.7hPa | 2.6V | 03:14:07 | 02:25:56 | 00:00:00 | |
| DB0DAN | 2026-09-04 12:33:40 | 52.78860 | 11.95741 | 65° | 35km/h | 18896m | -16m/s | -52.7°C | 0.6% | 69.06hPa | 2.7V | 00:00:00 | 00:00:00 | 00:00:00 | |
| DL1XH-west | 2026-09-04 12:33:39 | 52.78857 | 11.95728 | 67° | 35km/h | 18913m | -17.9m/s | -52.7°C | 0% | 68.9hPa | 2.6V | 03:14:42 | 02:25:57 | 00:00:00 | |
| DL1XH1-15 | 2026-09-04 12:33:39 | 52.78846 | 11.95673 | 70° | 35km/h | 18988m | -18.2m/s | -52.2°C | 3% | 68.1hPa | 2.7V | 03:14:10 | 02:25:53 | 00:00:00 | |
| AA1-15 | 2026-09-04 12:33:37 | 52.78851 | 11.95700 | 71° | 38km/h | 18950m | -20.2m/s | -52.6°C | 0% | 68.5hPa | 2.6V | 03:14:42 | 02:25:55 | 00:00:00 | |
| DF7ER-10 | 2026-09-04 12:33:37 | 52.78851 | 11.95700 | 72° | 38km/h | 18950m | -20.2m/s | -52.6°C | 0.6% | 68.5hPa | 2.6V | 03:14:00 | 00:00:00 | 00:00:00 | |
| DM0DOS-11 | 2026-09-04 12:33:36 | 52.78838 | 11.95611 | 80° | 40km/h | 19059m | -18.9m/s | -52.6°C | 3.1% | 67.4hPa | 2.6V | 03:14:14 | 02:25:49 | 00:00:00 | |
| BIOWL1-15 | 2026-09-04 12:33:35 | 52.78837 | 11.95611 | 81° | 40km/h | 19059m | -18.9m/s | -52.6°C | 0% | 67.4hPa | 2.6V | 03:14:42 | 02:25:49 | 00:00:00 | |
| DO2SHX-10 | 2026-09-04 12:33:35 | 52.78846 | 11.95673 | 71° | 37km/h | 18988m | -18.2m/s | -52.1°C | 3.0% | 68.0hPa | 2.7V | 03:14:00 | 02:25:53 | 00:00:00 | |
| DD8BA-10 | 2026-09-04 12:33:34 | 52.78843 | 11.95658 | 75° | 42km/h | 19005m | -17.2m/s | -52.2°C | 3.0% | 67.8hPa | 2.7V | 03:14:00 | 00:00:00 | 00:00:00 | |
| AM1SDL-15 | 2026-09-04 12:33:33 | 52.78841 | 11.95643 | 78° | 40km/h | 19022m | -18.0m/s | -52.3°C | 3.0% | 67.7hPa | 2.7V | 00:00:00 | 02:25:51 | 00:00:00 | |
| DL1NUX | 2026-09-04 12:33:32 | 52.78833 | 11.95541 | 84° | 40km/h | 19134m | -19.4m/s | -53.1°C | 3.3% | 66.6hPa | 2.7V | 03:14:18 | 02:25:45 | 00:00:00 | |
| DO2SHX-10 | 2026-09-04 12:33:32 | 52.78839 | 11.95627 | 80° | 40km/h | 19040m | -18.8m/s | -52.4°C | 3.1% | 67.5hPa | 2.7V | 00:00:00 | 02:25:50 | 00:00:00 | |
| DL1XH-15 | 2026-09-04 12:33:31 | 52.78834 | 11.95559 | 81° | 44km/h | 19115m | -19.2m/s | -53°C | 3.2% | 66.8hPa | 2.7V | 03:14:17 | 02:25:46 | 00:00:00 | |
| DL1XH-west | 2026-09-04 12:33:28 | 52.78834 | 11.95559 | 82° | 44km/h | 19115m | -19.2m/s | -53°C | 0% | 66.8hPa | 2.7V | 03:14:42 | 02:25:46 | 00:00:00 | |
| AA1-15 | 2026-09-04 12:33:27 | 52.78833 | 11.95541 | 85° | 40km/h | 19134m | -19.4m/s | -53.1°C | 0% | 66.6hPa | 2.7V | 03:14:42 | 02:25:45 | 00:00:00 | |
| DL1XH1-15 | 2026-09-04 12:33:26 | 52.78832 | 11.95505 | 88° | 42km/h | 19172m | -21m/s | -53.2°C | 3.2% | 66.2hPa | 2.6V | 03:14:20 | 02:25:43 | 00:00:00 | |
| DB0DAN | 2026-09-04 12:33:25 | 52.78832 | 11.95505 | 88° | 40km/h | 19172m | -21m/s | -53.2°C | 0.6% | 66.26hPa | 2.6V | 00:00:00 | 00:00:00 | 00:00:00 | |
| BIOWL1-15 | 2026-09-04 12:33:25 | 52.78832 | 11.95471 | 91° | 40km/h | 19211m | -19.1m/s | -53.1°C | 0% | 65.8hPa | 2.7V | 03:14:42 | 02:25:41 | 00:00:00 | |
| DD8BA-10 | 2026-09-04 12:33:24 | 52.78832 | 11.95488 | 89° | 33km/h | 19192m | -20.0m/s | -53.0°C | 3.2% | 66.0hPa | 2.7V | 00:00:00 | 00:00:00 | 00:00:00 | |
| DM0DOS-11 | 2026-09-04 12:33:23 | 52.78834 | 11.95439 | 98° | 37km/h | 19249m | -18.2m/s | -53.3°C | 3.3% | 65.4hPa | 2.6V | 03:14:24 | 02:25:39 | 00:00:00 | |
| DL1XH-15 | 2026-09-04 12:33:23 | 52.78836 | 11.95397 | 92° | 29km/h | 19301m | -17.7m/s | -53.4°C | 3.3% | 64.8hPa | 2.7V | 03:14:27 | 02:25:36 | 00:00:00 | |
| DL1NUX | 2026-09-04 12:33:22 | 52.78837 | 11.95386 | 87° | 27km/h | 19318m | -17.2m/s | -53.4°C | 3.3% | 64.7hPa | 2.7V | 03:14:28 | 02:25:35 | 00:00:00 | |
| EDDB2-12 | 2026-09-04 12:33:21 | 52.78835 | 11.95424 | 92° | 33km/h | 19266m | -17.5m/s | -53.3°C | 0.6% | 65.2hPa | 2.6V | 00:00:00 | 00:00:00 | 00:00:00 | |
| DO2SHX-10 | 2026-09-04 12:33:20 | 52.78835 | 11.95424 | 93° | 31km/h | 19267m | -17.4m/s | -53.3°C | 3.3% | 65.2hPa | 2.6V | 00:00:00 | 02:25:38 | 00:00:00 | |
| DL1XH1-15 | 2026-09-04 12:33:19 | 52.78836 | 11.95364 | 84° | 24km/h | 19354m | -19m/s | -53.4°C | 3.3% | 64.3hPa | 2.6V | 03:14:30 | 02:25:33 | 00:00:00 | |
| DF8AY | 2026-09-04 12:33:19 | 52.78836 | 11.95397 | 93° | 29km/h | 19301m | -17.7m/s | -53.4°C | 0% | 64.8hPa | 2.7V | 03:14:42 | 02:25:36 | 00:00:00 | |
| DL1XH-west | 2026-09-04 12:33:18 | 52.78837 | 11.95386 | 87° | 27km/h | 19318m | -17.3m/s | -53.4°C | 0% | 64.7hPa | 2.7V | 03:14:42 | 02:25:35 | 00:00:00 | |
| AA1-15 | 2026-09-04 12:33:16 | 52.78837 | 11.95375 | 88° | 26km/h | 19336m | -18.2m/s | -53.4°C | 0% | 64.5hPa | 2.6V | 03:14:42 | 02:25:34 | 00:00:00 | |
| BIOWL1-15 | 2026-09-04 12:33:13 | 52.78835 | 11.95344 | 84° | 24km/h | 19392m | -19m/s | -53.4°C | 0% | 64hPa | 2.7V | 03:14:42 | 02:25:31 | 00:00:00 | |
| DL1NUX | 2026-09-04 12:33:12 | 52.78830 | 11.95287 | 82° | 31km/h | 19492m | -17.3m/s | -53.6°C | 3.4% | 62.9hPa | 2.6V | 03:14:38 | 02:25:25 | 00:00:00 | |
| DL1XH-15 | 2026-09-04 12:33:11 | 52.78831 | 11.95298 | 77° | 26km/h | 19476m | -16.1m/s | -53.5°C | 3.3% | 63.1hPa | 2.6V | 03:14:37 | 02:25:26 | 00:00:00 | |
| DB0DAN | 2026-09-04 12:33:10 | 52.78833 | 11.95318 | 82° | 22km/h | 19443m | -16.3m/s | -53.4°C | 0.6% | 63.42hPa | 2.7V | 00:00:00 | 00:00:00 | 00:00:00 | |
| DF8AY | 2026-09-04 12:33:08 | 52.78830 | 11.95287 | 83° | 31km/h | 19492m | -17.3m/s | -53.7°C | 0% | 62.9hPa | 2.6V | 03:14:42 | 02:25:25 | 00:00:00 | |
| DL1XH1-15 | 2026-09-04 12:33:06 | 52.78829 | 11.95262 | 74° | 31km/h | 19526m | -17.4m/s | -53.9°C | 3.5% | 62.6hPa | 2.7V | 03:14:40 | 02:25:23 | 00:00:00 | |
| AA1-15 | 2026-09-04 12:33:06 | 52.78830 | 11.95274 | 86° | 29km/h | 19509m | -17.1m/s | -53.8°C | 0% | 62.8hPa | 2.7V | 03:14:42 | 02:25:24 | 00:00:00 | |
| BIOWL1-15 | 2026-09-04 12:33:03 | 52.78824 | 11.95235 | 66° | 33km/h | 19562m | -18.8m/s | -54°C | 0% | 62.3hPa | 2.7V | 03:14:42 | 02:25:21 | 00:00:00 | |
| DL1NUX | 2026-09-04 12:33:02 | 52.78809 | 11.95157 | 87° | 37km/h | 19667m | -16.8m/s | -54°C | 3.6% | 61.3hPa | 2.7V | 03:14:48 | 02:25:15 | 00:00:00 | |
| DO2SHX-10 | 2026-09-04 12:33:02 | 52.78820 | 11.95222 | 64° | 33km/h | 19581m | -17.9m/s | -53.9°C | 3.5% | 62.1hPa | 2.6V | 00:00:00 | 02:25:20 | 00:00:00 | |
| GOEST3-10 | 2026-09-04 12:33:01 | 52.78817 | 11.95210 | 65° | 33km/h | 19598m | -17.2m/s | -53.9°C | 3.5% | 61.9hPa | 2.6V | 00:00:00 | 00:00:00 | 00:00:00 | |
| DL1XH1-15 | 2026-09-04 12:32:59 | 52.78810 | 11.95125 | 92° | 42km/h | 19702m | -18.5m/s | -53.9°C | 3.6% | 60.9hPa | 2.6V | 03:14:50 | 02:25:13 | 00:00:00 | |
| BIOWL9-15 | 2026-09-04 12:32:57 | 52.78809 | 11.95157 | 87° | 35km/h | 19668m | -16.8m/s | -54.0°C | 0.6% | 61.3hPa | 2.6V | 00:00:00 | 00:00:00 | 00:00:00 | |
| DF8AY | 2026-09-04 12:32:57 | 52.78809 | 11.95142 | 90° | 38km/h | 19684m | -17.6m/s | -54°C | 0% | 61.1hPa | 2.7V | 03:16:24 | 02:25:14 | 00:00:00 | |
| DK1YY | 2026-09-04 12:32:56 | 52.78809 | 11.95142 | 89° | 37km/h | 19684m | -17.6m/s | -54.0°C | 0.6% | 61.1hPa | 2.6V | 00:00:00 | 00:00:00 | 00:00:00 | |
| DB0DAN | 2026-09-04 12:32:55 | 52.78810 | 11.95125 | 93° | 40km/h | 19702m | -18.5m/s | -53.9°C | 0.6% | 60.92hPa | 2.6V | 00:00:00 | 00:00:00 | 00:00:00 | |
| DL1XH-west | 2026-09-04 12:32:55 | 52.78810 | 11.95107 | 90° | 44km/h | 19720m | -18.6m/s | -53.9°C | 0% | 60.8hPa | 2.6V | 03:15:33 | 02:25:12 | 00:00:00 | |
| AA1-15 | 2026-09-04 12:32:55 | 52.78810 | 11.95125 | 93° | 42km/h | 19702m | -18.5m/s | -53.9°C | 0% | 60.9hPa | 2.6V | 03:15:33 | 02:25:13 | 00:00:00 | |
| BIOWL1-15 | 2026-09-04 12:32:53 | 52.78811 | 11.95090 | 88° | 42km/h | 19739m | -18.8m/s | -53.8°C | 0% | 60.6hPa | 2.6V | 03:15:33 | 02:25:11 | 00:00:00 | |
| DF2AP-13 | 2026-09-04 12:32:53 | 52.78810 | 11.95090 | 89° | 29km/h | 19739m | -18.8m/s | -53.8°C | 3.5% | 60.5hPa | 2.6V | 03:14:00 | 02:25:11 | 00:00:00 | |
| DL1NUX | 2026-09-04 12:32:52 | 52.78818 | 11.94985 | 104° | 42km/h | 19844m | -18.6m/s | -53.5°C | 3.5% | 59.6hPa | 2.6V | 03:14:58 | 02:25:05 | 00:00:00 | |
| EDDB2-12 | 2026-09-04 12:32:50 | 52.78814 | 11.95018 | 95° | 42km/h | 19809m | -17.8m/s | -53.9°C | 0.6% | 59.9hPa | 2.6V | 00:00:00 | 00:00:00 | 00:00:00 | |
| S3001 | 2026-09-04 12:32:48 | 52.78818 | 11.94985 | 104° | 40km/h | 19845m | -18.6m/s | -53.5°C | 0.6% | 59.6hPa | 2.6V | 00:00:00 | 00:00:00 | 00:00:00 | |
| DM0DOS-11 | 2026-09-04 12:32:47 | 52.78838 | 11.94898 | 118° | 35km/h | 19953m | -18.6m/s | -52.9°C | 3.3% | 58.5hPa | 2.6V | 03:15:04 | 02:24:59 | 00:00:00 | |
| DL1XH1-15 | 2026-09-04 12:32:46 | 52.78823 | 11.94953 | 107° | 38km/h | 19881m | -19.2m/s | -53.5°C | 3.5% | 59.2hPa | 2.7V | 03:15:00 | 02:25:03 | 00:00:00 | |
| BIOWL1-15 | 2026-09-04 12:32:46 | 52.78834 | 11.94910 | 115° | 37km/h | 19935m | -18.6m/s | -53°C | 0% | 58.7hPa | 2.7V | 03:15:33 | 02:25:00 | 00:00:00 | |
| DF8AY | 2026-09-04 12:32:45 | 52.78823 | 11.94953 | 107° | 38km/h | 19881m | -19.2m/s | -53.5°C | 0% | 59.2hPa | 2.7V | 03:16:24 | 02:25:03 | 00:00:00 | |
| DL1XH-west | 2026-09-04 12:32:44 | 52.78826 | 11.94938 | 109° | 37km/h | 19899m | -18.3m/s | -53.5°C | 0% | 59.1hPa | 2.7V | 03:15:33 | 02:25:02 | 00:00:00 | |
| DL1XH-15 | 2026-09-04 12:32:43 | 52.78852 | 11.94863 | 127° | 33km/h | 20006m | -18.6m/s | -52.8°C | 3.2% | 58.1hPa | 2.7V | 03:15:07 | 02:24:56 | 00:00:00 | |
| SMARD9-15 | 2026-09-04 12:32:42 | 52.78838 | 11.94898 | 118° | 33km/h | 19953m | -18.6m/s | -52.9°C | 0.6% | 58.5hPa | 2.7V | 00:00:00 | 00:00:00 | 00:00:00 | |
| DL1XH1-15 | 2026-09-04 12:32:41 | 52.78865 | 11.94835 | 127° | 26km/h | 20062m | -19.1m/s | -53°C | 3.4% | 57.6hPa | 2.7V | 03:15:10 | 02:24:53 | 00:00:00 | |
| DB0DAN | 2026-09-04 12:32:40 | 52.78842 | 11.94885 | 121° | 35km/h | 19970m | -17.3m/s | -52.8°C | 0.5% | 58.39hPa | 2.6V | 00:00:00 | 00:00:00 | 00:00:00 | |
| DF8AY | 2026-09-04 12:32:36 | 52.78866 | 11.94835 | 128° | 26km/h | 20062m | -19.1m/s | -53°C | 0% | 57.6hPa | 2.7V | 03:16:24 | 02:24:53 | 00:00:00 | |
| AA1-15 | 2026-09-04 12:32:34 | 52.78873 | 11.94821 | 128° | 20km/h | 20099m | -19.5m/s | -52.6°C | 0% | 57.2hPa | 2.6V | 03:15:33 | 02:24:51 | 00:00:00 | |
| DL1NUX | 2026-09-04 12:32:33 | 52.78888 | 11.94796 | 121° | 7km/h | 20209m | -20m/s | -52°C | 3% | 56.3hPa | 2.6V | 03:15:18 | 02:24:45 | 00:00:00 | |
| DM0DOS-11 | 2026-09-04 12:32:32 | 52.78880 | 11.94810 | 144° | 15km/h | 20134m | -17.9m/s | -52.2°C | 3.1% | 56.9hPa | 2.7V | 03:15:14 | 02:24:49 | 00:00:00 | |
| BIOWL1-15 | 2026-09-04 12:32:32 | 52.78877 | 11.94815 | 135° | 20km/h | 20117m | -17.9m/s | -52.3°C | 0% | 57.1hPa | 2.6V | 03:15:33 | 02:24:50 | 00:00:00 | |
| DO2SHX-10 | 2026-09-04 12:32:32 | 52.78877 | 11.94815 | 135° | 18km/h | 20117m | -17.9m/s | -52.3°C | 3.2% | 57.0hPa | 2.7V | 00:00:00 | 02:24:50 | 00:00:00 | |
| GOEST3-10 | 2026-09-04 12:32:31 | 52.78880 | 11.94810 | 145° | 13km/h | 20134m | -17.9m/s | -52.2°C | 3.1% | 56.9hPa | 2.7V | 03:15:00 | 00:00:00 | 00:00:00 | |
| DL1XH1-15 | 2026-09-04 12:32:30 | 52.78889 | 11.94790 | 72° | 11km/h | 20248m | -20.4m/s | -52°C | 3% | 56hPa | 2.6V | 03:15:20 | 02:24:43 | 00:00:00 | |
| DO2SHX-10 | 2026-09-04 12:32:29 | 52.78885 | 11.94802 | 119° | 9km/h | 20171m | -19.5m/s | -51.9°C | 3.0% | 56.6hPa | 2.7V | 00:00:00 | 02:24:47 | 00:00:00 | |
| EDDB2-11 | 2026-09-04 12:32:28 | 52.78887 | 11.94799 | 132° | 7km/h | 20190m | -19.3m/s | -51.9°C | 0.5% | 56.4hPa | 2.7V | 00:00:00 | 00:00:00 | 00:00:00 | |
| DM0DOS-11 | 2026-09-04 12:32:26 | 52.78880 | 11.94770 | 42° | 20km/h | 20326m | -19.3m/s | -52.3°C | 3.1% | 55.3hPa | 2.7V | 03:15:24 | 02:24:39 | 00:00:00 | |
| DB0DAN | 2026-09-04 12:32:25 | 52.78889 | 11.94790 | 72° | 11km/h | 20248m | -20.4m/s | -52°C | 0.5% | 56hPa | 2.6V | 00:00:00 | 00:00:00 | 00:00:00 | |
| DF8AY | 2026-09-04 12:32:25 | 52.78888 | 11.94785 | 65° | 13km/h | 20268m | -19.6m/s | -52.1°C | 0% | 55.8hPa | 2.7V | 03:16:24 | 02:24:42 | 00:00:00 | |
| DL1XH-west | 2026-09-04 12:32:23 | 52.78886 | 11.94781 | 53° | 16km/h | 20287m | -19.7m/s | -52.1°C | 0% | 55.7hPa | 2.7V | 03:15:33 | 02:24:41 | 00:00:00 | |
| DF2AP-13 | 2026-09-04 12:32:23 | 52.78886 | 11.94780 | 54° | 24km/h | 20288m | -19.6m/s | -52.1°C | 3.0% | 55.6hPa | 2.7V | 00:00:00 | 02:24:41 | 00:00:00 | |
| DL1NUX | 2026-09-04 12:32:22 | 52.78862 | 11.94745 | 41° | 24km/h | 20403m | -19.4m/s | -52.6°C | 3.1% | 54.6hPa | 2.7V | 03:15:28 | 02:24:35 | 00:00:00 | |
| BIOWL1-15 | 2026-09-04 12:32:21 | 52.78880 | 11.94770 | 42° | 20km/h | 20326m | -19.3m/s | -52.3°C | 0% | 55.3hPa | 2.7V | 03:15:33 | 02:24:39 | 00:00:00 | |
| DB0UT-7 | 2026-09-04 12:32:21 | 52.78880 | 11.94770 | 43° | 24km/h | 20326m | -19.2m/s | -52.2°C | 3.1% | 55.2hPa | 2.7V | 00:00:00 | 02:24:39 | 00:00:00 | |
| DL1XH1-15 | 2026-09-04 12:32:20 | 52.78854 | 11.94730 | 51° | 26km/h | 20443m | -20.5m/s | -52.7°C | 3.2% | 54.3hPa | 2.7V | 03:15:30 | 02:24:33 | 00:00:00 | |
| DF8AY | 2026-09-04 12:32:14 | 52.78851 | 11.94722 | 54° | 27km/h | 20463m | -20.2m/s | -52.7°C | 0% | 54.1hPa | 2.7V | 03:16:24 | 02:24:32 | 00:00:00 | |
| DL1XH-west | 2026-09-04 12:32:13 | 52.78847 | 11.94714 | 49° | 26km/h | 20483m | -20.3m/s | -52.8°C | 0% | 54hPa | 2.6V | 03:15:33 | 02:24:31 | 00:00:00 | |
| AA1-15 | 2026-09-04 12:32:13 | 52.78843 | 11.94705 | 64° | 26km/h | 20503m | -20.4m/s | -52.9°C | 0% | 53.8hPa | 2.6V | 03:15:33 | 02:24:30 | 00:00:00 | |
| DM0DOS-11 | 2026-09-04 12:32:12 | 52.78841 | 11.94695 | 69° | 27km/h | 20523m | -19.6m/s | -53°C | 3.2% | 53.6hPa | 2.6V | 03:15:34 | 02:24:29 | 00:00:00 | |
| BIOWL1-15 | 2026-09-04 12:32:10 | 52.78835 | 11.94663 | 83° | 29km/h | 20581m | -19.7m/s | -53.2°C | 0% | 53.1hPa | 2.7V | 03:16:24 | 02:24:26 | 00:00:00 | |
| DL1XH-15 | 2026-09-04 12:32:10 | 52.78835 | 11.94663 | 82° | 29km/h | 20581m | -19.6m/s | -53.2°C | 3.3% | 53.1hPa | 2.7V | 03:15:37 | 02:24:26 | 00:00:00 | |
| DL1XH1-15 | 2026-09-04 12:32:10 | 52.78836 | 11.94629 | 102° | 29km/h | 20642m | -21.1m/s | -53.4°C | 3.4% | 52.6hPa | 2.6V | 03:15:40 | 02:24:23 | 00:00:00 | |
| DB0DAN | 2026-09-04 12:32:10 | 52.78838 | 11.94685 | 63° | 24km/h | 20542m | -20.3m/s | -53.1°C | 0.5% | 53.48hPa | 2.7V | 00:00:00 | 00:00:00 | 00:00:00 | |
| DO2SHX-10 | 2026-09-04 12:32:09 | 52.78834 | 11.94663 | 83° | 27km/h | 20582m | -19.6m/s | -53.2°C | 3.3% | 53.1hPa | 2.7V | 00:00:00 | 02:24:26 | 00:00:00 | |
| DB0ND-19 | 2026-09-04 12:32:08 | 52.78834 | 11.94651 | 85° | 26km/h | 20602m | -20.6m/s | 0°C | -1.0% | -1.0hPa | 2.7V | 00:00:00 | 00:00:00 | 00:00:00 | |
| DM0DOS-11 | 2026-09-04 12:32:06 | 52.78843 | 11.94589 | 111° | 22km/h | 20720m | -21m/s | -53.6°C | 3.5% | 52hPa | 2.7V | 03:15:44 | 02:24:19 | 00:00:00 | |
| DF8AY | 2026-09-04 12:32:04 | 52.78837 | 11.94617 | 100° | 29km/h | 20662m | -19.9m/s | -53.4°C | 0% | 52.5hPa | 2.6V | 03:16:24 | 02:24:22 | 00:00:00 | |
| DL1ZP-14 | 2026-09-04 12:32:04 | 52.78839 | 11.94606 | 107° | 24km/h | 20681m | -19.5m/s | -53.5°C | 0.6% | 52.3hPa | 2.7V | 00:00:00 | 00:00:00 | 00:00:00 | |
| DL1XH-15 | 2026-09-04 12:32:03 | 52.78849 | 11.94569 | 104° | 20km/h | 20784m | -22.3m/s | -53.6°C | 3.5% | 51.5hPa | 2.6V | 03:15:47 | 02:24:16 | 00:00:00 | |
| DL1XH-west | 2026-09-04 12:32:02 | 52.78841 | 11.94597 | 114° | 22km/h | 20700m | -20.5m/s | -53.6°C | 0% | 52.2hPa | 2.7V | 03:16:24 | 02:24:20 | 00:00:00 | |
| DL1NUX | 2026-09-04 12:32:02 | 52.78850 | 11.94562 | 93° | 13km/h | 20805m | -21.1m/s | -53.6°C | 3.5% | 51.4hPa | 2.6V | 03:15:48 | 02:24:15 | 00:00:00 | |
| BIOWL1-15 | 2026-09-04 12:32:00 | 52.78849 | 11.94569 | 105° | 20km/h | 20784m | -22.3m/s | -53.7°C | 0% | 51.5hPa | 2.6V | 03:16:24 | 02:24:16 | 00:00:00 | |
| DO2SHX-10 | 2026-09-04 12:31:59 | 52.78847 | 11.94575 | 126° | 16km/h | 20763m | -21.4m/s | -53.7°C | 3.5% | 51.6hPa | 2.6V | 03:15:00 | 02:24:17 | 00:00:00 | |
| AM1SDL-15 | 2026-09-04 12:31:57 | 52.78850 | 11.94562 | 94° | 24km/h | 20805m | -21.0m/s | -53.6°C | 3.5% | 51.3hPa | 2.7V | 00:00:00 | 02:24:15 | 00:00:00 | |
| DB0DAN | 2026-09-04 12:31:55 | 52.78851 | 11.94549 | 86° | 16km/h | 20846m | -20.1m/s | -53.7°C | 0.6% | 50.99hPa | 2.7V | 00:00:00 | 00:00:00 | 00:00:00 | |
| DF8AY | 2026-09-04 12:31:54 | 52.78849 | 11.94542 | 67° | 22km/h | 20867m | -21.4m/s | -53.6°C | 0% | 50.9hPa | 2.7V | 03:16:24 | 02:24:12 | 00:00:00 | |
| DD8BA-10 | 2026-09-04 12:31:54 | 52.78849 | 11.94542 | 67° | 26km/h | 20867m | -21.3m/s | -53.6°C | 3.5% | 50.8hPa | 2.7V | 00:00:00 | 00:00:00 | 00:00:00 | |
| DO2SHX-10 | 2026-09-04 12:31:53 | 52.78847 | 11.94534 | 57° | 24km/h | 20888m | -20.9m/s | -53.5°C | 3.5% | 50.6hPa | 2.6V | 00:00:00 | 02:24:11 | 00:00:00 | |
| DM0DOS-11 | 2026-09-04 12:31:52 | 52.78842 | 11.94516 | 68° | 29km/h | 20929m | -20.9m/s | -53.4°C | 3.5% | 50.4hPa | 2.6V | 03:15:54 | 02:24:09 | 00:00:00 | |
| DL1NUX | 2026-09-04 12:31:52 | 52.78834 | 11.94469 | 81° | 29km/h | 21012m | -21.4m/s | -53°C | 3.3% | 49.7hPa | 2.7V | 03:15:58 | 02:24:05 | 00:00:00 | |
| DL1XH-west | 2026-09-04 12:31:52 | 52.78842 | 11.94516 | 68° | 29km/h | 20930m | -20.9m/s | -53.4°C | 0% | 50.4hPa | 2.6V | 03:16:24 | 02:24:09 | 00:00:00 | |
| DB0UT-7 | 2026-09-04 12:31:51 | 52.78842 | 11.94516 | 69° | 24km/h | 20930m | -20.9m/s | -53.4°C | 3.5% | 50.3hPa | 2.6V | 00:00:00 | 00:00:00 | 00:00:00 | |
| DL1XH-15 | 2026-09-04 12:31:50 | 52.78835 | 11.94481 | 71° | 27km/h | 20991m | -20.8m/s | -53.3°C | 3.4% | 49.9hPa | 2.7V | 03:15:57 | 02:24:06 | 00:00:00 | |
| DL1XH1-15 | 2026-09-04 12:31:50 | 52.78831 | 11.94447 | 77° | 22km/h | 21056m | -22.9m/s | -52.8°C | 3.2% | 49.4hPa | 2.6V | 03:16:00 | 02:24:03 | 00:00:00 | |
| EDDB2-12 | 2026-09-04 12:31:48 | 52.78834 | 11.94469 | 81° | 27km/h | 21012m | -21.4m/s | -53.0°C | 0.5% | 49.7hPa | 2.6V | 00:00:00 | 00:00:00 | 00:00:00 | |
| SP3WXH-11 | 2026-09-04 12:31:46 | 52.78831 | 11.94447 | 77° | 22km/h | 21056m | -22.9m/s | -52.8°C | 0.5% | 49.4hPa | 2.6V | 00:00:00 | 00:00:00 | 00:00:00 | |
| DF8AY | 2026-09-04 12:31:43 | 52.78830 | 11.94429 | 79° | 20km/h | 21100m | -21.7m/s | -52.9°C | 0% | 49hPa | 2.6V | 03:16:24 | 02:24:01 | 00:00:00 | |
| DL1XH-15 | 2026-09-04 12:31:43 | 52.78825 | 11.94388 | 80° | 26km/h | 21202m | -20.5m/s | -52.8°C | 3.3% | 48.2hPa | 2.6V | 03:16:07 | 02:23:56 | 00:00:00 | |
| DL1XH-west | 2026-09-04 12:31:41 | 52.78826 | 11.94398 | 81° | 20km/h | 21182m | -20m/s | -52.8°C | 0% | 48.4hPa | 2.7V | 03:16:24 | 02:23:57 | 00:00:00 | |
| DB0DAN | 2026-09-04 12:31:40 | 52.78827 | 11.94406 | 74° | 18km/h | 21162m | -20.9m/s | -52.8°C | 0.5% | 48.55hPa | 2.7V | 00:00:00 | 00:00:00 | 00:00:00 | |
| DF7ER-10 | 2026-09-04 12:31:40 | 52.78827 | 11.94406 | 75° | 20km/h | 21162m | -20.9m/s | -52.8°C | 0.6% | 48.6hPa | 2.7V | 03:16:00 | 00:00:00 | 00:00:00 | |
| DO2SHX-10 | 2026-09-04 12:31:38 | 52.78825 | 11.94388 | 81° | 24km/h | 21203m | -20.5m/s | -52.8°C | 3.3% | 48.2hPa | 2.7V | 00:00:00 | 02:23:56 | 00:00:00 | |
| DL1XH1-15 | 2026-09-04 12:31:37 | 52.78822 | 11.94359 | 90° | 29km/h | 21263m | -21.1m/s | -52.7°C | 3.2% | 47.8hPa | 2.7V | 03:16:10 | 02:23:53 | 00:00:00 | |
| BIOWL1-15 | 2026-09-04 12:31:36 | 52.78823 | 11.94369 | 77° | 26km/h | 21242m | -21.2m/s | -52.8°C | 0% | 47.9hPa | 2.6V | 03:16:24 | 02:23:54 | 00:00:00 | |
| DF8AY | 2026-09-04 12:31:33 | 52.78822 | 11.94335 | 88° | 27km/h | 21304m | -21.3m/s | -52.8°C | 0% | 47.5hPa | 2.7V | 03:16:24 | 02:23:51 | 00:00:00 | |
| DM0DOS-11 | 2026-09-04 12:31:33 | 52.78822 | 11.94312 | 95° | 31km/h | 21345m | -21.9m/s | -52.8°C | 3.4% | 47.2hPa | 2.6V | 03:16:14 | 02:23:49 | 00:00:00 | |
| DO2SHX-10 | 2026-09-04 12:31:32 | 52.78822 | 11.94324 | 95° | 27km/h | 21325m | -21.3m/s | -52.8°C | 3.4% | 47.3hPa | 2.6V | 00:00:00 | 02:23:50 | 00:00:00 | |
| GOEST3-10 | 2026-09-04 12:31:31 | 52.78823 | 11.94312 | 96° | 26km/h | 21345m | -21.8m/s | -52.8°C | 3.4% | 47.1hPa | 2.6V | 03:16:00 | 00:00:00 | 00:00:00 | |
| DL1XH1-15 | 2026-09-04 12:31:30 | 52.78827 | 11.94255 | 96° | 18km/h | 21481m | -23.6m/s | -52.8°C | 3.4% | 46.2hPa | 2.6V | 03:16:20 | 02:23:43 | 00:00:00 | |
| DL1XH-west | 2026-09-04 12:31:29 | 52.78826 | 11.94281 | 100° | 26km/h | 21414m | -24m/s | -52.8°C | 0% | 46.7hPa | 2.7V | 03:16:24 | 02:23:46 | 00:00:00 | |
| DF7ER-10 | 2026-09-04 12:31:28 | 52.78824 | 11.94291 | 101° | 26km/h | 21391m | -23.7m/s | -52.8°C | 0.6% | 46.9hPa | 2.6V | 03:16:00 | 00:00:00 | 00:00:00 | |
| DB0DAN | 2026-09-04 12:31:25 | 52.78827 | 11.94255 | 96° | 18km/h | 21481m | -23.6m/s | -52.8°C | 0.5% | 46.18hPa | 2.6V | 00:00:00 | 00:00:00 | 00:00:00 | |
| BIOWL1-15 | 2026-09-04 12:31:25 | 52.78827 | 11.94255 | 96° | 18km/h | 21481m | -23.6m/s | -52.8°C | 0% | 46.2hPa | 2.6V | 03:16:24 | 02:23:43 | 00:00:00 | |
| DJ2DS-15 | 2026-09-04 12:31:25 | 52.78827 | 11.94255 | 96° | 18km/h | 21481m | -23.6m/s | -52.8°C | 0.5% | 46.2hPa | 2.7V | 00:00:00 | 00:00:00 | 00:00:00 | |
| BIOWL9-15 | 2026-09-04 12:31:24 | 52.78829 | 11.94239 | 94° | 20km/h | 21527m | -23.0m/s | -52.8°C | 0.5% | 45.9hPa | 2.7V | 00:00:00 | 00:00:00 | 00:00:00 | |
| DO2SHX-10 | 2026-09-04 12:31:23 | 52.78829 | 11.94239 | 95° | 22km/h | 21527m | -23.0m/s | -52.7°C | 3.3% | 45.8hPa | 2.7V | 03:16:00 | 02:23:41 | 00:00:00 | |
| DM0DOS-11 | 2026-09-04 12:31:22 | 52.78831 | 11.94223 | 109° | 22km/h | 21571m | -23.1m/s | -52.7°C | 3.3% | 45.5hPa | 2.7V | 03:16:24 | 02:23:39 | 00:00:00 | |
| DF8AY | 2026-09-04 12:31:22 | 52.78831 | 11.94223 | 109° | 22km/h | 21572m | -23.1m/s | -52.7°C | 0% | 45.6hPa | 2.7V | 03:16:24 | 02:23:39 | 00:00:00 | |
| DB0UT-7 | 2026-09-04 12:31:21 | 52.78831 | 11.94223 | 110° | 22km/h | 21572m | -23.1m/s | -52.7°C | 3.3% | 45.5hPa | 2.7V | 03:16:00 | 02:23:39 | 00:00:00 | |
| DL1XH1-15 | 2026-09-04 12:31:20 | 52.78835 | 11.94186 | 67° | 11km/h | 21705m | -21.9m/s | -51.8°C | 3.1% | 44.6hPa | 2.7V | 03:16:30 | 02:23:33 | 00:00:00 | |
| AA1-15 | 2026-09-04 12:31:18 | 52.78836 | 11.94196 | 91° | 15km/h | 21662m | -22.8m/s | -51.9°C | 0% | 44.9hPa | 2.7V | 03:17:15 | 02:23:35 | 00:00:00 | |
| DB0NH | 2026-09-04 12:31:17 | 52.78836 | 11.94196 | 92° | 22km/h | 21662m | -22.8m/s | -51.8°C | 3.1% | 44.9hPa | 2.7V | 00:00:00 | 02:23:35 | 00:00:00 | |
| DM0DOS-11 | 2026-09-04 12:31:16 | 52.78828 | 11.94159 | 68° | 24km/h | 21787m | -20.6m/s | -51.7°C | 3.1% | 44.1hPa | 2.7V | 03:16:34 | 02:23:29 | 00:00:00 | |
| BIOWL1-15 | 2026-09-04 12:31:14 | 52.78830 | 11.94168 | 65° | 20km/h | 21767m | -20.1m/s | -51.8°C | 0% | 44.2hPa | 2.6V | 03:17:15 | 02:23:30 | 00:00:00 | |
| DF8AY | 2026-09-04 12:31:11 | 52.78828 | 11.94159 | 68° | 24km/h | 21787m | -20.6m/s | -51.7°C | 0% | 44.1hPa | 2.7V | 03:17:15 | 02:23:29 | 00:00:00 | |
| DB0DAN | 2026-09-04 12:31:10 | 52.78826 | 11.94150 | 74° | 24km/h | 21808m | -21.4m/s | -51.8°C | 0.5% | 43.95hPa | 2.7V | 00:00:00 | 00:00:00 | 00:00:00 | |
| DL1XH-15 | 2026-09-04 12:31:09 | 52.78822 | 11.94129 | 74° | 27km/h | 21849m | -20.7m/s | -52.1°C | 3.2% | 43.6hPa | 2.6V | 03:16:37 | 02:23:26 | 00:00:00 | |
| DL1XH-west | 2026-09-04 12:31:09 | 52.78822 | 11.94129 | 74° | 27km/h | 21849m | -20.7m/s | -52.1°C | 0% | 43.6hPa | 2.6V | 03:17:15 | 02:23:26 | 00:00:00 | |
| AA1-15 | 2026-09-04 12:31:07 | 52.78821 | 11.94104 | 94° | 33km/h | 21888m | -20.6m/s | -52.4°C | 0% | 43.3hPa | 2.7V | 03:17:15 | 02:23:24 | 00:00:00 | |
| DF8AY-15 | 2026-09-04 12:31:06 | 52.78821 | 11.94104 | 95° | 22km/h | 21889m | -20.6m/s | -52.3°C | 3.3% | 43.3hPa | 2.7V | 00:00:00 | 02:23:24 | 00:00:00 | |
| DO2SHX-10 | 2026-09-04 12:31:05 | 52.78822 | 11.94091 | 99° | 31km/h | 21909m | -20.5m/s | -52.4°C | 3.3% | 43.2hPa | 2.7V | 00:00:00 | 02:23:23 | 00:00:00 | |
| DD8BA-10 | 2026-09-04 12:31:04 | 52.78823 | 11.94079 | 103° | 22km/h | 21929m | -21.0m/s | -52.4°C | 3.3% | 43.0hPa | 2.7V | 00:00:00 | 00:00:00 | 00:00:00 | |
| DL1XH-15 | 2026-09-04 12:31:03 | 52.78839 | 11.94023 | 123° | 20km/h | 22068m | -23.8m/s | -52.1°C | 3.3% | 42.2hPa | 2.7V | 03:16:47 | 02:23:16 | 00:00:00 | |
| BIOWL1-15 | 2026-09-04 12:31:02 | 52.78828 | 11.94055 | 119° | 27km/h | 21973m | -22.9m/s | -52.3°C | 0% | 42.8hPa | 2.6V | 03:17:15 | 02:23:20 | 00:00:00 | |
| DL1NUX | 2026-09-04 12:31:02 | 52.78841 | 11.94016 | 121° | 20km/h | 22090m | -22.4m/s | -52°C | 3.3% | 42hPa | 2.7V | 03:16:48 | 02:23:15 | 00:00:00 | |
| DF8AY | 2026-09-04 12:31:01 | 52.78831 | 11.94045 | 115° | 27km/h | 21996m | -24.6m/s | -52.3°C | 0% | 42.7hPa | 2.6V | 03:17:15 | 02:23:19 | 00:00:00 | |
| DL1XH-west | 2026-09-04 12:30:58 | 52.78841 | 11.94016 | 121° | 20km/h | 22090m | -22.4m/s | -52°C | 0% | 42hPa | 2.7V | 03:17:15 | 02:23:15 | 00:00:00 | |
| AA1-15 | 2026-09-04 12:30:57 | 52.78844 | 11.94009 | 122° | 16km/h | 22113m | -20.7m/s | -51.7°C | 0% | 41.9hPa | 2.6V | 03:17:15 | 02:23:14 | 00:00:00 | |
| EDDB2-11 | 2026-09-04 12:30:55 | 52.78846 | 11.94002 | 106° | 15km/h | 22132m | -18.5m/s | -51.4°C | 0.5% | 41.7hPa | 2.7V | 00:00:00 | 00:00:00 | 00:00:00 | |
| BIOWL9-15 | 2026-09-04 12:30:53 | 52.78848 | 11.93983 | 98° | 16km/h | 22187m | -21.1m/s | -51.1°C | 0.4% | 41.4hPa | 2.7V | 00:00:00 | 00:00:00 | 00:00:00 | |
| DL1NUX | 2026-09-04 12:30:52 | 52.78854 | 11.93941 | 113° | 20km/h | 22292m | -23.8m/s | -51.2°C | 3% | 40.7hPa | 2.7V | 03:16:58 | 02:23:05 | 00:00:00 | |
| DF8AY | 2026-09-04 12:30:51 | 52.78849 | 11.93975 | 105° | 20km/h | 22207m | -20.6m/s | -51°C | 0% | 41.2hPa | 2.6V | 03:17:15 | 02:23:09 | 00:00:00 | |
| HSKMA3-T | 2026-09-04 12:30:49 | 52.78851 | 11.93958 | 99° | 22km/h | 22248m | -20.5m/s | -51°C | 0% | 41hPa | 2.7V | 03:17:15 | 02:23:07 | 00:00:00 | |
| DL1XH-15 | 2026-09-04 12:30:49 | 52.78852 | 11.93950 | 104° | 22km/h | 22269m | -21.5m/s | -51°C | 2.9% | 40.8hPa | 2.7V | 03:16:57 | 02:23:06 | 00:00:00 | |
| AA1-15 | 2026-09-04 12:30:46 | 52.78859 | 11.93926 | 126° | 18km/h | 22339m | -22.8m/s | -51.4°C | 0% | 40.5hPa | 2.6V | 03:17:15 | 02:23:03 | 00:00:00 | |
| DL1XH-west | 2026-09-04 12:30:46 | 52.78856 | 11.93933 | 114° | 18km/h | 22316m | -24m/s | -51.3°C | 0% | 40.6hPa | 2.7V | 03:17:15 | 02:23:04 | 00:00:00 | |
| EDDB2-12 | 2026-09-04 12:30:45 | 52.78859 | 11.93926 | 125° | 18km/h | 22339m | -22.8m/s | -51.4°C | 0.4% | 40.5hPa | 2.6V | 00:00:00 | 00:00:00 | 00:00:00 | |
| DD8BA-10 | 2026-09-04 12:30:44 | 52.78862 | 11.93920 | 129° | 15km/h | 22361m | -21.9m/s | -51.4°C | 3.0% | 40.3hPa | 2.6V | 00:00:00 | 00:00:00 | 00:00:00 | |
| DL1XH-15 | 2026-09-04 12:30:43 | 52.78886 | 11.93905 | 189° | 16km/h | 22497m | -24.4m/s | -51.1°C | 2.9% | 39.5hPa | 2.6V | 03:17:07 | 02:22:56 | 00:00:00 | |
| DO3MHA-11 | 2026-09-04 12:30:43 | 52.78865 | 11.93915 | 144° | 13km/h | 22384m | -24.2m/s | -51.3°C | 3.0% | 40.1hPa | 2.7V | 00:00:00 | 02:23:01 | 00:00:00 | |
| DL1NUX | 2026-09-04 12:30:42 | 52.78890 | 11.93907 | 204° | 13km/h | 22520m | -22.4m/s | -51.2°C | 2.9% | 39.3hPa | 2.7V | 03:17:08 | 02:22:55 | 00:00:00 | |
| BIOWL1-15 | 2026-09-04 12:30:41 | 52.78882 | 11.93905 | 179° | 15km/h | 22474m | -23.8m/s | -51.1°C | 0% | 39.6hPa | 2.6V | 03:17:15 | 02:22:57 | 00:00:00 | |
| DF8AY | 2026-09-04 12:30:40 | 52.78878 | 11.93906 | 169° | 20km/h | 22451m | -22.9m/s | -51.2°C | 0% | 39.7hPa | 2.7V | 03:17:15 | 02:22:58 | 00:00:00 | |
| DL1XH1-15 | 2026-09-04 12:30:40 | 52.78896 | 11.93909 | 182° | 7km/h | 22567m | -23.8m/s | -51.3°C | 2.9% | 39hPa | 2.7V | 03:17:10 | 02:22:53 | 00:00:00 | |
| DB0DAN | 2026-09-04 12:30:40 | 52.78878 | 11.93906 | 169° | 20km/h | 22451m | -22.9m/s | -51.2°C | 0.4% | 39.73hPa | 2.7V | 00:00:00 | 00:00:00 | 00:00:00 | |
| HSKMA3-T | 2026-09-04 12:30:39 | 52.78886 | 11.93905 | 190° | 16km/h | 22497m | -24.4m/s | -51.1°C | 0% | 39.5hPa | 2.6V | 03:17:15 | 02:22:56 | 00:00:00 | |
| AA1-15 | 2026-09-04 12:30:36 | 52.78896 | 11.93909 | 183° | 7km/h | 22567m | -23.8m/s | -51.3°C | 0% | 39hPa | 2.7V | 03:17:15 | 02:22:53 | 00:00:00 | |
| DF8AY | 2026-09-04 12:30:35 | 52.78897 | 11.93911 | 26° | 7km/h | 22676m | -21.1m/s | -51.4°C | 0% | 38.4hPa | 2.7V | 03:17:15 | 02:22:48 | 00:00:00 | |
| DO2SHX-10 | 2026-09-04 12:30:35 | 52.78896 | 11.93909 | 183° | 5km/h | 22567m | -23.7m/s | -51.2°C | 2.9% | 39.0hPa | 2.7V | 03:17:00 | 02:22:53 | 00:00:00 | |
| DD8BA-10 | 2026-09-04 12:30:34 | 52.78898 | 11.93910 | 227° | 9km/h | 22591m | -23.4m/s | -51.3°C | 3.0% | 38.9hPa | 2.7V | 00:00:00 | 00:00:00 | 00:00:00 | |
| DM0DOS-11 | 2026-09-04 12:30:33 | 52.78899 | 11.93913 | 39° | 4km/h | 22655m | -20.7m/s | -51.4°C | 3% | 38.5hPa | 2.7V | 03:17:14 | 02:22:49 | 00:00:00 | |
| BIOWL1-15 | 2026-09-04 12:30:31 | 52.78895 | 11.93910 | 21° | 11km/h | 22696m | -20.5m/s | -51.4°C | 0% | 38.3hPa | 2.7V | 03:18:06 | 02:22:47 | 00:00:00 | |
| DL1XH1-15 | 2026-09-04 12:30:30 | 52.78886 | 11.93900 | 34° | 15km/h | 22779m | -20.7m/s | -51.4°C | 2.9% | 37.7hPa | 2.7V | 03:17:20 | 02:22:43 | 00:00:00 | |
| DL1XH-15 | 2026-09-04 12:30:30 | 52.78893 | 11.93909 | 28° | 11km/h | 22717m | -21.9m/s | -51.4°C | 3% | 38.1hPa | 2.6V | 03:17:17 | 02:22:46 | 00:00:00 | |
| DL1NUX | 2026-09-04 12:30:30 | 52.78891 | 11.93906 | 39° | 11km/h | 22738m | -21.7m/s | -51.4°C | 3% | 38hPa | 2.6V | 03:17:18 | 02:22:45 | 00:00:00 | |
| HSKMA3-T | 2026-09-04 12:30:28 | 52.78893 | 11.93909 | 28° | 11km/h | 22717m | -21.9m/s | -51.4°C | 0% | 38.1hPa | 2.6V | 03:18:06 | 02:22:46 | 00:00:00 | |
| AA1-15 | 2026-09-04 12:30:25 | 52.78883 | 11.93896 | 54° | 16km/h | 22800m | -21.4m/s | -51.4°C | 0% | 37.6hPa | 2.7V | 03:18:06 | 02:22:42 | 00:00:00 | |
| DL1XH-west | 2026-09-04 12:30:25 | 52.78886 | 11.93900 | 35° | 15km/h | 22779m | -20.7m/s | -51.4°C | 0% | 37.7hPa | 2.7V | 03:18:06 | 02:22:43 | 00:00:00 | |
| DB0DAN | 2026-09-04 12:30:25 | 52.78886 | 11.93900 | 35° | 15km/h | 22779m | -20.7m/s | -51.4°C | 0.4% | 37.74hPa | 2.7V | 00:00:00 | 00:00:00 | 00:00:00 | |
| DF8AY | 2026-09-04 12:30:23 | 52.78873 | 11.93859 | 85° | 16km/h | 22938m | -23m/s | -51.7°C | 0% | 36.8hPa | 2.6V | 03:18:06 | 02:22:35 | 00:00:00 | |
| DO2SHX-10 | 2026-09-04 12:30:23 | 52.78881 | 11.93891 | 51° | 15km/h | 22821m | -21.2m/s | -51.4°C | 3.0% | 37.5hPa | 2.6V | 03:17:00 | 02:22:41 | 00:00:00 | |
| DL1NUX | 2026-09-04 12:30:22 | 52.78873 | 11.93859 | 84° | 16km/h | 22938m | -23m/s | -51.7°C | 3.1% | 36.8hPa | 2.6V | 03:17:28 | 02:22:35 | 00:00:00 | |
| BIOWL9-15 | 2026-09-04 12:30:22 | 52.78878 | 11.93881 | 58° | 13km/h | 22860m | -19.7m/s | -51.7°C | 0.4% | 37.2hPa | 2.6V | 00:00:00 | 00:00:00 | 00:00:00 | |
| DB0UT-7 | 2026-09-04 12:30:21 | 52.78878 | 11.93881 | 59° | 16km/h | 22860m | -19.6m/s | -51.6°C | 3.0% | 37.2hPa | 2.6V | 00:00:00 | 02:22:39 | 00:00:00 | |
| DL1XH1-15 | 2026-09-04 12:30:20 | 52.78873 | 11.93846 | 80° | 13km/h | 22986m | -23.7m/s | -51.9°C | 3.1% | 36.6hPa | 2.7V | 03:17:30 | 02:22:33 | 00:00:00 | |
| BIOWL1-15 | 2026-09-04 12:30:19 | 52.78858 | 11.93804 | 14° | 18km/h | 23256m | -23.8m/s | -52°C | 0% | 35.1hPa | 2.7V | 03:18:06 | 02:22:22 | 00:00:00 | |
| HSKMA3-T | 2026-09-04 12:30:18 | 52.78873 | 11.93852 | 87° | 16km/h | 22962m | -24.4m/s | -51.8°C | 0% | 36.7hPa | 2.6V | 03:18:06 | 02:22:34 | 00:00:00 | |
| DL1XH-west | 2026-09-04 12:30:15 | 52.78873 | 11.93841 | 94° | 15km/h | 23010m | -24.3m/s | -51.9°C | 0% | 36.5hPa | 2.7V | 03:18:06 | 02:22:32 | 00:00:00 | |
| AA1-15 | 2026-09-04 12:30:14 | 52.78874 | 11.93835 | 91° | 15km/h | 23033m | -23.3m/s | -51.9°C | 0% | 36.3hPa | 2.7V | 03:18:06 | 02:22:31 | 00:00:00 | |
| DO2SHX-10 | 2026-09-04 12:30:14 | 52.78873 | 11.93841 | 95° | 13km/h | 23010m | -24.2m/s | -51.8°C | 3.1% | 36.4hPa | 2.7V | 00:00:00 | 02:22:32 | 00:00:00 | |
| DL2RXE-15 | 2026-09-04 12:30:13 | 52.78873 | 11.93841 | 95° | 15km/h | 23010m | -24.3m/s | -51.9°C | 0.4% | 36.5hPa | 2.7V | 03:18:00 | 00:00:00 | 00:00:00 | |
| DL4BBY-15 | 2026-09-04 12:30:12 | 52.78873 | 11.93830 | 70° | 18km/h | 23058m | -25.3m/s | -51.8°C | 0% | 0hPa | 2.7V | 00:00:00 | 00:00:00 | 00:00:00 | |
| MECKS9 | 2026-09-04 12:30:11 | 52.78873 | 11.93830 | 70° | 9km/h | 23058m | -25.4m/s | -52.0°C | 0.5% | 36.2hPa | 2.7V | 00:00:00 | 00:00:00 | 00:00:00 | |
| DB0DAN | 2026-09-04 12:30:10 | 52.78872 | 11.93822 | 57° | 11km/h | 23109m | -25.8m/s | -52.1°C | 0.5% | 35.95hPa | 2.7V | 00:00:00 | 00:00:00 | 00:00:00 | |
| DL1XH1-15 | 2026-09-04 12:30:10 | 52.78862 | 11.93807 | 22° | 18km/h | 23232m | -24.5m/s | -52°C | 3.2% | 35.3hPa | 2.7V | 03:17:40 | 02:22:23 | 00:00:00 | |
| HSKMA3-T | 2026-09-04 12:30:06 | 52.78865 | 11.93809 | 30° | 15km/h | 23207m | -25.4m/s | -52°C | 0% | 35.4hPa | 2.6V | 03:18:06 | 02:22:24 | 00:00:00 | |
| DF8AY | 2026-09-04 12:30:05 | 52.78862 | 11.93807 | 23° | 18km/h | 23232m | -24.5m/s | -52°C | 0% | 35.3hPa | 2.7V | 03:18:06 | 02:22:23 | 00:00:00 | |
| AA1-15 | 2026-09-04 12:30:04 | 52.78853 | 11.93801 | 25° | 20km/h | 23280m | -23.7m/s | -52°C | 0% | 35hPa | 2.7V | 03:18:06 | 02:22:21 | 00:00:00 | |
| DL1XH-west | 2026-09-04 12:30:03 | 52.78849 | 11.93797 | 26° | 20km/h | 23303m | -21.5m/s | -51.8°C | 0% | 34.9hPa | 2.6V | 03:18:06 | 02:22:20 | 00:00:00 | |
| DO2SHX-10 | 2026-09-04 12:30:02 | 52.78849 | 11.93797 | 26° | 22km/h | 23303m | -21.5m/s | -51.8°C | 3.1% | 34.8hPa | 2.6V | 00:00:00 | 02:22:20 | 00:00:00 | |
| GOEST3-10 | 2026-09-04 12:30:01 | 52.78844 | 11.93793 | 34° | 24km/h | 23324m | -21.3m/s | -51.7°C | 3.1% | 34.7hPa | 2.6V | 00:00:00 | 00:00:00 | 00:00:00 | |
| DL1XH1-15 | 2026-09-04 12:30:00 | 52.78828 | 11.93748 | 71° | 20km/h | 23446m | -22.2m/s | -51.9°C | 3.1% | 34hPa | 2.7V | 03:17:50 | 02:22:13 | 00:00:00 | |
| BIOWL1-15 | 2026-09-04 12:29:57 | 52.78828 | 11.93748 | 71° | 20km/h | 23446m | -22.2m/s | -51.9°C | 0% | 34hPa | 2.7V | 03:18:06 | 02:22:13 | 00:00:00 | |
| HSKMA3-T | 2026-09-04 12:29:57 | 52.78829 | 11.93756 | 79° | 22km/h | 23425m | -21.8m/s | -51.9°C | 0% | 34.1hPa | 2.6V | 03:18:06 | 02:22:14 | 00:00:00 | |
| DB0DAN | 2026-09-04 12:29:55 | 52.78828 | 11.93748 | 71° | 18km/h | 23446m | -22.2m/s | -51.9°C | 0.4% | 34.03hPa | 2.7V | 00:00:00 | 00:00:00 | 00:00:00 | |
| DF8AY | 2026-09-04 12:29:54 | 52.78826 | 11.93742 | 75° | 16km/h | 23467m | -21.1m/s | -51.8°C | 0% | 33.9hPa | 2.7V | 03:18:06 | 02:22:12 | 00:00:00 | |
| AA1-15 | 2026-09-04 12:29:53 | 52.78824 | 11.93732 | 65° | 11km/h | 23511m | -21.8m/s | -51.6°C | 0% | 33.7hPa | 2.6V | 03:18:06 | 02:22:10 | 00:00:00 | |
| DL1XH-west | 2026-09-04 12:29:52 | 52.78822 | 11.93728 | 42° | 15km/h | 23534m | -22.7m/s | -51.6°C | 0% | 33.6hPa | 2.6V | 03:18:06 | 02:22:09 | 00:00:00 | |
| BIOWL9-15 | 2026-09-04 12:29:51 | 52.78819 | 11.93724 | 30° | 13km/h | 23556m | -22.7m/s | -51.6°C | 0.4% | 33.5hPa | 2.6V | 00:00:00 | 00:00:00 | 00:00:00 | |
| DO2SHX-10 | 2026-09-04 12:29:50 | 52.78819 | 11.93724 | 31° | 16km/h | 23556m | -22.7m/s | -51.5°C | 3.0% | 33.4hPa | 2.6V | 00:00:00 | 02:22:08 | 00:00:00 | |
| DL1XH-15 | 2026-09-04 12:29:49 | 52.78807 | 11.93716 | 30° | 22km/h | 23625m | -23.3m/s | -51.7°C | 3.1% | 33.1hPa | 2.6V | 03:17:58 | 02:22:05 | 00:00:00 | |
| BIOWL1-15 | 2026-09-04 12:29:47 | 52.78796 | 11.93707 | 27° | 29km/h | 23673m | -24.8m/s | -51.8°C | 0% | 32.9hPa | 2.7V | 03:18:06 | 02:22:03 | 00:00:00 | |
| HSKMA3-T | 2026-09-04 12:29:46 | 52.78802 | 11.93712 | 27° | 26km/h | 23649m | -24.6m/s | -51.7°C | 0% | 33hPa | 2.6V | 03:18:06 | 02:22:04 | 00:00:00 | |
| DF8AY-15 | 2026-09-04 12:29:46 | 52.78802 | 11.93712 | 28° | 27km/h | 23649m | -24.6m/s | -51.7°C | 3.1% | 32.9hPa | 2.6V | 00:00:00 | 02:22:04 | 00:00:00 | |
| DM0DOS-11 | 2026-09-04 12:29:44 | 52.78774 | 11.93678 | 49° | 26km/h | 23770m | -23.6m/s | -52.2°C | 3.2% | 32.4hPa | 2.6V | 03:18:04 | 02:21:59 | 00:00:00 | |
| DF8AY | 2026-09-04 12:29:44 | 52.78784 | 11.93695 | 37° | 29km/h | 23720m | -24.3m/s | -52.1°C | 0% | 32.6hPa | 2.7V | 03:18:06 | 02:22:01 | 00:00:00 | |
| AA1-15 | 2026-09-04 12:29:42 | 52.78774 | 11.93678 | 49° | 27km/h | 23770m | -23.7m/s | -52.2°C | 0% | 32.4hPa | 2.6V | 03:18:06 | 02:21:59 | 00:00:00 | |
| DL1XH-west | 2026-09-04 12:29:40 | 52.78770 | 11.93671 | 48° | 26km/h | 23793m | -25.6m/s | -52.3°C | 0% | 32.3hPa | 2.7V | 03:18:06 | 02:21:58 | 00:00:00 | |
| DB0DAN | 2026-09-04 12:29:40 | 52.78770 | 11.93671 | 47° | 24km/h | 23793m | -25.6m/s | -52.3°C | 0.5% | 32.3hPa | 2.7V | 00:00:00 | 00:00:00 | 00:00:00 | |
| BIOWL1-15 | 2026-09-04 12:29:36 | 52.78750 | 11.93623 | 66° | 27km/h | 23970m | -29.6m/s | -52.3°C | 0% | 31.5hPa | 2.7V | 03:18:57 | 02:21:52 | 00:00:00 | |
| HSKMA3-T | 2026-09-04 12:29:35 | 52.78753 | 11.93633 | 65° | 27km/h | 23940m | -29.9m/s | -52.3°C | 0% | 31.6hPa | 2.7V | 03:18:57 | 02:21:53 | 00:00:00 | |
| DF8AY | 2026-09-04 12:29:34 | 52.78746 | 11.93601 | 77° | 29km/h | 24025m | -26.5m/s | -52°C | 0% | 31.1hPa | 2.6V | 03:18:57 | 02:21:50 | 00:00:00 | |
| DM0DOS-11 | 2026-09-04 12:29:33 | 52.78744 | 11.93589 | 77° | 29km/h | 24050m | -24.7m/s | -51.9°C | 3.2% | 31hPa | 2.6V | 03:18:14 | 02:21:49 | 00:00:00 | |
| AA1-15 | 2026-09-04 12:29:31 | 52.78742 | 11.93577 | 79° | 29km/h | 24074m | -23.3m/s | -51.6°C | 0% | 30.9hPa | 2.7V | 03:18:57 | 02:21:48 | 00:00:00 | |
| DL1XH-west | 2026-09-04 12:29:30 | 52.78741 | 11.93566 | 82° | 31km/h | 24097m | -24.7m/s | -51.5°C | 0% | 30.8hPa | 2.7V | 03:18:57 | 02:21:47 | 00:00:00 | |
| DL1XH-15 | 2026-09-04 12:29:29 | 52.78740 | 11.93544 | 88° | 24km/h | 24145m | -24.6m/s | -51.5°C | 3.2% | 30.6hPa | 2.6V | 03:18:18 | 02:21:45 | 00:00:00 | |
| DO2SHX-10 | 2026-09-04 12:29:29 | 52.78741 | 11.93566 | 83° | 27km/h | 24097m | -24.7m/s | -51.4°C | 3.1% | 30.7hPa | 2.7V | 00:00:00 | 02:21:47 | 00:00:00 | |
| DL1ZP-14 | 2026-09-04 12:29:28 | 52.78741 | 11.93554 | 85° | 26km/h | 24122m | -23.3m/s | -51.4°C | 0.4% | 30.6hPa | 2.7V | 00:00:00 | 00:00:00 | 00:00:00 | |
| TFSTFS | 2026-09-04 12:29:26 | 52.78740 | 11.93544 | 90° | 24km/h | 24145m | -24.6m/s | -51.5°C | 0.4% | 30.6hPa | 2.7V | 03:18:00 | 00:00:00 | 00:00:00 | |
| DB0DAN | 2026-09-04 12:29:25 | 52.78741 | 11.93523 | 89° | 24km/h | 24191m | -23.8m/s | -51.7°C | 0.4% | 30.33hPa | 2.7V | 00:00:00 | 00:00:00 | 00:00:00 | |
| HSKMA3-T | 2026-09-04 12:29:24 | 52.78741 | 11.93514 | 89° | 20km/h | 24215m | -23.6m/s | -51.7°C | 0% | 30.2hPa | 2.7V | 03:18:57 | 02:21:42 | 00:00:00 | |
| BIOWL1-15 | 2026-09-04 12:29:24 | 52.78742 | 11.93484 | 91° | 26km/h | 24291m | -27.3m/s | -51.4°C | 0% | 29.9hPa | 2.6V | 03:18:57 | 02:21:39 | 00:00:00 | |
| DM0DOS-11 | 2026-09-04 12:29:23 | 52.78742 | 11.93484 | 90° | 26km/h | 24291m | -27.3m/s | -51.4°C | 3.2% | 29.9hPa | 2.6V | 03:18:24 | 02:21:39 | 00:00:00 | |
| DF8AY | 2026-09-04 12:29:23 | 52.78742 | 11.93494 | 91° | 27km/h | 24265m | -26.6m/s | -51.5°C | 0% | 30hPa | 2.6V | 03:18:57 | 02:21:40 | 00:00:00 | |
| DL1XH-west | 2026-09-04 12:29:20 | 52.78744 | 11.93460 | 97° | 29km/h | 24344m | -25.3m/s | -51.4°C | 0% | 29.6hPa | 2.7V | 03:18:57 | 02:21:37 | 00:00:00 | |
| BIOWL1-15 | 2026-09-04 12:29:15 | 52.78754 | 11.93389 | 110° | 24km/h | 24501m | -28.6m/s | -50.4°C | 0% | 29hPa | 2.7V | 03:18:57 | 02:21:31 | 00:00:00 | |
| HSKMA3-T | 2026-09-04 12:29:14 | 52.78752 | 11.93399 | 108° | 27km/h | 24473m | -28m/s | -50.6°C | 0% | 29.1hPa | 2.7V | 03:18:57 | 02:21:32 | 00:00:00 | |
| DO2SHX-10 | 2026-09-04 12:29:14 | 52.78751 | 11.93399 | 108° | 24km/h | 24473m | -28.0m/s | -50.5°C | 2.9% | 29.0hPa | 2.6V | 00:00:00 | 02:21:32 | 00:00:00 | |
| DM0DOS-11 | 2026-09-04 12:29:12 | 52.78759 | 11.93373 | 118° | 20km/h | 24558m | -30m/s | -50.1°C | 2.8% | 28.7hPa | 2.6V | 03:18:34 | 02:21:29 | 00:00:00 | |
| DL4BBY-15 | 2026-09-04 12:29:12 | 52.78756 | 11.93380 | 118° | 22km/h | 24529m | -29.2m/s | -50.0°C | 0% | 0hPa | 2.7V | 00:00:00 | 00:00:00 | 00:00:00 | |
| DL1XH1-15 | 2026-09-04 12:29:11 | 52.78777 | 11.93351 | 147° | 15km/h | 24730m | -25.8m/s | -50°C | 2.9% | 27.9hPa | 2.7V | 03:18:40 | 02:21:23 | 00:00:00 | |
| AA1-15 | 2026-09-04 12:29:10 | 52.78762 | 11.93367 | 133° | 13km/h | 24586m | -28m/s | -50°C | 0% | 28.6hPa | 2.7V | 03:18:57 | 02:21:28 | 00:00:00 | |
| DL1XH-west | 2026-09-04 12:29:09 | 52.78765 | 11.93363 | 139° | 15km/h | 24615m | -30.2m/s | -50°C | 0% | 28.5hPa | 2.7V | 03:18:57 | 02:21:27 | 00:00:00 | |
| DL1XH-15 | 2026-09-04 12:29:09 | 52.78771 | 11.93357 | 157° | 11km/h | 24674m | -29.6m/s | -50°C | 2.8% | 28.2hPa | 2.6V | 03:18:38 | 02:21:25 | 00:00:00 | |
| HSKMA3-T | 2026-09-04 12:29:03 | 52.78782 | 11.93344 | 142° | 15km/h | 24781m | -26.9m/s | -50°C | 0% | 27.7hPa | 2.7V | 03:18:57 | 02:21:21 | 00:00:00 | |
| DM0DOS-11 | 2026-09-04 12:29:02 | 52.78788 | 11.93330 | 113° | 20km/h | 24839m | -28.8m/s | -50°C | 2.8% | 27.5hPa | 2.6V | 03:18:44 | 02:21:19 | 00:00:00 | |
| DL1NUX | 2026-09-04 12:29:02 | 52.78798 | 11.93291 | 113° | 26km/h | 24949m | -28.8m/s | -50.4°C | 2.9% | 27hPa | 2.6V | 03:18:48 | 02:21:15 | 00:00:00 | |
| DF8AY | 2026-09-04 12:29:01 | 52.78788 | 11.93330 | 114° | 20km/h | 24839m | -28.8m/s | -50°C | 0% | 27.5hPa | 2.6V | 03:18:57 | 02:21:19 | 00:00:00 | |
| AA1-15 | 2026-09-04 12:28:59 | 52.78793 | 11.93313 | 119° | 27km/h | 24894m | -28.4m/s | -50.2°C | 0% | 27.3hPa | 2.7V | 03:18:57 | 02:21:17 | 00:00:00 | |
| DL1XH-west | 2026-09-04 12:28:59 | 52.78796 | 11.93302 | 110° | 31km/h | 24921m | -27.5m/s | -50.3°C | 0% | 27.1hPa | 2.7V | 03:18:57 | 02:21:16 | 00:00:00 | |
| DL1ZP-14 | 2026-09-04 12:28:57 | 52.78798 | 11.93291 | 113° | 24km/h | 24949m | -28.8m/s | -50.4°C | 0.3% | 27.0hPa | 2.6V | 00:00:00 | 00:00:00 | 00:00:00 | |
| DM0DOS-11 | 2026-09-04 12:28:56 | 52.78832 | 11.93237 | 151° | 27km/h | 25133m | -24.4m/s | -50.1°C | 2.9% | 26.2hPa | 2.7V | 03:18:55 | 02:21:08 | 00:00:00 | |
| HSKMA3-T | 2026-09-04 12:28:53 | 52.78815 | 11.93257 | 138° | 27km/h | 25058m | -27.9m/s | -50.2°C | 0% | 26.6hPa | 2.7V | 03:18:57 | 02:21:11 | 00:00:00 | |
| DO2SHX-10 | 2026-09-04 12:28:53 | 52.78815 | 11.93257 | 138° | 27km/h | 25058m | -27.9m/s | -50.2°C | 3.0% | 26.5hPa | 2.6V | 00:00:00 | 02:21:11 | 00:00:00 | |
| DD8BA-10 | 2026-09-04 12:28:52 | 52.78820 | 11.93249 | 140° | 27km/h | 25084m | -25.5m/s | -50.1°C | 2.9% | 26.3hPa | 2.6V | 03:18:00 | 00:00:00 | 00:00:00 | |
| DB0UT-7 | 2026-09-04 12:28:51 | 52.78826 | 11.93242 | 148° | 15km/h | 25110m | -25.1m/s | -50.0°C | 2.9% | 26.3hPa | 2.6V | 00:00:00 | 00:00:00 | 00:00:00 | |
| DO2SHX-10 | 2026-09-04 12:28:50 | 52.78832 | 11.93237 | 152° | 27km/h | 25134m | -24.4m/s | -50.0°C | 2.9% | 26.2hPa | 2.7V | 00:00:00 | 02:21:08 | 00:00:00 | |
| BIOWL1-15 | 2026-09-04 12:28:50 | 52.78832 | 11.93237 | 152° | 27km/h | 25133m | -24.4m/s | -50.1°C | 0% | 26.2hPa | 2.7V | 03:18:57 | 02:21:08 | 00:00:00 | |
| DL1XH-15 | 2026-09-04 12:28:49 | 52.78852 | 11.93225 | 159° | 26km/h | 25206m | -24.6m/s | -50°C | 3% | 25.9hPa | 2.6V | 03:18:58 | 02:21:05 | 00:00:00 | |
| DL1XH-west | 2026-09-04 12:28:49 | 52.78845 | 11.93229 | 164° | 29km/h | 25182m | -24.9m/s | -50°C | 0% | 26hPa | 2.7V | 03:18:57 | 02:21:06 | 00:00:00 | |
| TFSTFS | 2026-09-04 12:28:48 | 52.78845 | 11.93229 | 165° | 29km/h | 25182m | -24.9m/s | -50.0°C | 0.3% | 26.0hPa | 2.6V | 03:18:00 | 00:00:00 | 00:00:00 | |
| DB0NH | 2026-09-04 12:28:47 | 52.78852 | 11.93225 | 160° | 13km/h | 25206m | -24.6m/s | -49.9°C | 3.0% | 25.9hPa | 2.6V | 03:18:00 | 02:21:05 | 00:00:00 | |
| DF8AY-15 | 2026-09-04 12:28:46 | 52.78858 | 11.93222 | 171° | 15km/h | 25231m | -25.4m/s | -49.8°C | 2.9% | 25.8hPa | 2.6V | 00:00:00 | 02:21:04 | 00:00:00 | |
| DM0DOS-11 | 2026-09-04 12:28:45 | 52.78894 | 11.93217 | 171° | 20km/h | 25393m | -28.9m/s | -49.8°C | 3% | 25.2hPa | 2.7V | 03:19:05 | 02:20:58 | 00:00:00 | |
| SONCRA | 2026-09-04 12:28:45 | 52.78871 | 11.93219 | 170° | 22km/h | 25280m | -27.0m/s | -49.6°C | 0.3% | 25.6hPa | 2.7V | 00:00:00 | 00:00:00 | 00:00:00 | |
| HSKMA3-T | 2026-09-04 12:28:43 | 52.78878 | 11.93218 | 177° | 27km/h | 25307m | -26.7m/s | -49.6°C | 0% | 25.6hPa | 2.7V | 03:19:48 | 02:21:01 | 00:00:00 | |
| AM1SDL-15 | 2026-09-04 12:28:43 | 52.78878 | 11.93218 | 177° | 16km/h | 25308m | -26.6m/s | -49.6°C | 2.8% | 25.5hPa | 2.7V | 00:00:00 | 02:21:01 | 00:00:00 | |
| DD8BA-10 | 2026-09-04 12:28:42 | 52.78884 | 11.93218 | 182° | 15km/h | 25335m | -29.4m/s | -49.7°C | 2.9% | 25.4hPa | 2.7V | 00:00:00 | 00:00:00 | 00:00:00 | |
| DB0DAN | 2026-09-04 12:28:40 | 52.78894 | 11.93217 | 172° | 18km/h | 25393m | -29m/s | -49.8°C | 0.3% | 25.23hPa | 2.7V | 00:00:00 | 00:00:00 | 00:00:00 | |
| DF8AY | 2026-09-04 12:28:40 | 52.78899 | 11.93215 | 166° | 18km/h | 25422m | -27.7m/s | -49.7°C | 0% | 25.1hPa | 2.7V | 03:19:48 | 02:20:57 | 00:00:00 | |
| DL1XH-west | 2026-09-04 12:28:38 | 52.78908 | 11.93215 | 177° | 15km/h | 25477m | -28.9m/s | -49.5°C | 0% | 24.9hPa | 2.6V | 03:19:48 | 02:20:55 | 00:00:00 | |
| DO2SHX-10 | 2026-09-04 12:28:38 | 52.78904 | 11.93215 | 185° | 15km/h | 25450m | -27.4m/s | -49.6°C | 3.0% | 24.9hPa | 2.7V | 00:00:00 | 02:20:56 | 00:00:00 | |
| DL1XH1-15 | 2026-09-04 12:28:37 | 52.78915 | 11.93215 | 183° | 11km/h | 25538m | -31.2m/s | -49.2°C | 2.8% | 24.7hPa | 2.7V | 03:19:10 | 02:20:53 | 00:00:00 | |
| GOEST3-10 | 2026-09-04 12:28:36 | 52.78912 | 11.93215 | 186° | 11km/h | 25507m | -30.8m/s | -49.2°C | 2.8% | 24.7hPa | 2.7V | 00:00:00 | 02:20:54 | 00:00:00 | |
| DO2SHX-10 | 2026-09-04 12:28:35 | 52.78915 | 11.93215 | 184° | 9km/h | 25538m | -31.1m/s | -49.1°C | 2.8% | 24.6hPa | 2.7V | 03:19:00 | 02:20:53 | 00:00:00 | |
| OE3JTB-15 | 2026-09-04 12:28:34 | 52.78921 | 11.93221 | 237° | 7km/h | 25626m | -28.3m/s | -49.1°C | 2.9% | 24.3hPa | 2.7V | 00:00:00 | 00:00:00 | 00:00:00 | |
| DM0DOS-11 | 2026-09-04 12:28:33 | 52.78924 | 11.93225 | 245° | 7km/h | 25683m | -28.9m/s | -49°C | 2.8% | 24.1hPa | 2.7V | 03:19:15 | 02:20:48 | 00:00:00 | |
| HSKMA3-T | 2026-09-04 12:28:32 | 52.78922 | 11.93221 | 237° | 9km/h | 25625m | -28.3m/s | -49.1°C | 0% | 24.4hPa | 2.6V | 03:19:48 | 02:20:50 | 00:00:00 | |
| DO2SHX-10 | 2026-09-04 12:28:32 | 52.78921 | 11.93221 | 237° | 7km/h | 25626m | -28.3m/s | -49.1°C | 2.9% | 24.3hPa | 2.6V | 00:00:00 | 02:20:50 | 00:00:00 | |
| GOEST3-10 | 2026-09-04 12:28:31 | 52.78923 | 11.93223 | 215° | 5km/h | 25654m | -29.2m/s | -49.0°C | 2.8% | 24.2hPa | 2.6V | 03:19:00 | 00:00:00 | 00:00:00 | |
| DL1XH1-15 | 2026-09-04 12:28:30 | 52.78928 | 11.93233 | 149° | 5km/h | 25828m | -30.8m/s | -48.2°C | 2.6% | 23.6hPa | 2.7V | 03:19:20 | 02:20:43 | 00:00:00 | |
| DF8AY | 2026-09-04 12:28:29 | 52.78925 | 11.93229 | 263° | 7km/h | 25711m | -28.2m/s | -48.7°C | 0% | 24hPa | 2.7V | 03:19:48 | 02:20:47 | 00:00:00 | |
| AA1-15 | 2026-09-04 12:28:28 | 52.78926 | 11.93233 | 203° | 5km/h | 25768m | -29m/s | -48.4°C | 0% | 23.8hPa | 2.6V | 03:19:48 | 02:20:45 | 00:00:00 | |
| BIOWL1-15 | 2026-09-04 12:28:26 | 52.78927 | 11.93233 | 160° | 2km/h | 25798m | -31m/s | -48.2°C | 0% | 23.7hPa | 2.6V | 03:22:21 | 02:20:44 | 00:00:00 | |
| DF8AY-15 | 2026-09-04 12:28:26 | 52.78927 | 11.93233 | 161° | 7km/h | 25798m | -30.9m/s | -48.2°C | 2.6% | 23.7hPa | 2.7V | 00:00:00 | 02:20:44 | 00:00:00 | |
| DJ2DS-15 | 2026-09-04 12:28:25 | 52.78930 | 11.93232 | 144° | 5km/h | 25858m | -28.7m/s | -48.1°C | 0.3% | 23.5hPa | 2.7V | 00:00:00 | 00:00:00 | 00:00:00 | |
| DO2SHX-10 | 2026-09-04 12:28:23 | 52.78931 | 11.93230 | 157° | 7km/h | 25888m | -29.5m/s | -47.9°C | 2.6% | 23.3hPa | 2.7V | 03:19:00 | 02:20:41 | 00:00:00 | |
| DM0DOS-11 | 2026-09-04 12:28:22 | 52.78937 | 11.93225 | 164° | 9km/h | 25975m | -29.5m/s | -47.8°C | 2.5% | 23.1hPa | 2.7V | 03:19:25 | 02:20:38 | 00:00:00 | |
| DL1NUX | 2026-09-04 12:28:22 | 52.78943 | 11.93221 | 175° | 5km/h | 26063m | -29.7m/s | -47.6°C | 2.5% | 22.7hPa | 2.6V | 03:19:28 | 02:20:35 | 00:00:00 | |
| HSKMA3-T | 2026-09-04 12:28:22 | 52.78935 | 11.93226 | 148° | 7km/h | 25946m | -30.5m/s | -47.9°C | 0% | 23.2hPa | 2.6V | 03:19:48 | 02:20:39 | 00:00:00 | |
| DD8BA-10 | 2026-09-04 12:28:22 | 52.78933 | 11.93229 | 141° | 7km/h | 25917m | -28.9m/s | -47.8°C | 2.6% | 23.2hPa | 2.6V | 00:00:00 | 00:00:00 | 00:00:00 | |
| DB0UT-7 | 2026-09-04 12:28:21 | 52.78935 | 11.93226 | 148° | 9km/h | 25946m | -30.5m/s | -47.8°C | 2.5% | 23.1hPa | 2.7V | 00:00:00 | 02:20:39 | 00:00:00 | |
| DL1XH1-15 | 2026-09-04 12:28:20 | 52.78946 | 11.93222 | 278° | 2km/h | 26120m | -28.9m/s | -47.5°C | 2.5% | 22.5hPa | 2.7V | 03:19:30 | 02:20:33 | 00:00:00 | |
| DL1XH-west | 2026-09-04 12:28:18 | 52.78943 | 11.93221 | 176° | 5km/h | 26064m | -29.7m/s | -47.6°C | 0% | 22.7hPa | 2.6V | 03:19:48 | 02:20:35 | 00:00:00 | |
| AA1-15 | 2026-09-04 12:28:17 | 52.78945 | 11.93221 | 205° | 5km/h | 26092m | -28.6m/s | -47.5°C | 0% | 22.6hPa | 2.6V | 03:19:48 | 02:20:34 | 00:00:00 | |
| BIOWL1-15 | 2026-09-04 12:28:12 | 52.78939 | 11.93219 | 16° | 15km/h | 26270m | -30m/s | -47.5°C | 0% | 22hPa | 2.7V | 03:22:21 | 02:20:28 | 00:00:00 | |
| HSKMA3-T | 2026-09-04 12:28:11 | 52.78942 | 11.93221 | 30° | 11km/h | 26240m | -30.3m/s | -47.5°C | 0% | 22.2hPa | 2.6V | 03:19:48 | 02:20:29 | 00:00:00 | |
| DB0DAN | 2026-09-04 12:28:10 | 52.78939 | 11.93219 | 16° | 15km/h | 26270m | -30m/s | -47.5°C | 0.2% | 22.04hPa | 2.7V | 00:00:00 | 00:00:00 | 00:00:00 | |
| DL1XH-15 | 2026-09-04 12:28:10 | 52.78931 | 11.93207 | 39° | 15km/h | 26363m | -31.2m/s | -47.8°C | 2.6% | 21.7hPa | 2.6V | 03:19:38 | 02:20:25 | 00:00:00 | |
| DF8AY | 2026-09-04 12:28:08 | 52.78931 | 11.93207 | 39° | 15km/h | 26363m | -31.2m/s | -47.8°C | 0% | 21.7hPa | 2.6V | 03:19:48 | 02:20:25 | 00:00:00 | |
| AA1-15 | 2026-09-04 12:28:06 | 52.78927 | 11.93199 | 71° | 13km/h | 26423m | -31m/s | -47.9°C | 0% | 21.6hPa | 2.7V | 03:19:48 | 02:20:23 | 00:00:00 | |
| TFSTFS | 2026-09-04 12:28:05 | 52.78926 | 11.93199 | 72° | 13km/h | 26423m | -31.0m/s | -47.9°C | 0.3% | 21.6hPa | 2.6V | 00:00:00 | 00:00:00 | 00:00:00 | |
| HTAHTA | 2026-09-04 12:28:03 | 52.78928 | 11.93185 | 155° | 7km/h | 26544m | -29.5m/s | -47.6°C | 0.2% | 21.1hPa | 2.6V | 00:00:00 | 00:00:00 | 00:00:00 | |
| DL1NUX | 2026-09-04 12:28:02 | 52.78938 | 11.93183 | 180° | 15km/h | 26663m | -30.9m/s | -47.3°C | 2.5% | 20.8hPa | 2.6V | 03:19:48 | 02:20:15 | 00:00:00 | |
| HSKMA3-T | 2026-09-04 12:28:00 | 52.78931 | 11.93184 | 153° | 9km/h | 26573m | -30.1m/s | -47.4°C | 0% | 21.1hPa | 2.7V | 03:19:48 | 02:20:18 | 00:00:00 | |
| DL1XH1-15 | 2026-09-04 12:28:00 | 52.78944 | 11.93182 | 162° | 9km/h | 26724m | -30.8m/s | -47.4°C | 2.5% | 20.5hPa | 2.7V | 03:19:50 | 02:20:13 | 00:00:00 | |
| DF8AY | 2026-09-04 12:27:57 | 52.78938 | 11.93183 | 180° | 15km/h | 26663m | -30.9m/s | -47.3°C | 0% | 20.8hPa | 2.6V | 03:19:48 | 02:20:15 | 00:00:00 | |
| DL1XH-west | 2026-09-04 12:27:56 | 52.78944 | 11.93182 | 162° | 9km/h | 26724m | -30.8m/s | -47.4°C | 0% | 20.6hPa | 2.7V | 03:20:39 | 02:20:13 | 00:00:00 | |
| DB0DAN | 2026-09-04 12:27:55 | 52.78944 | 11.93182 | 162° | 9km/h | 26724m | -30.8m/s | -47.4°C | 0.2% | 20.55hPa | 2.7V | 00:00:00 | 00:00:00 | 00:00:00 | |
| AA1-15 | 2026-09-04 12:27:54 | 52.78946 | 11.93182 | 174° | 5km/h | 26754m | -29.2m/s | -47.3°C | 0% | 20.5hPa | 2.7V | 03:20:39 | 02:20:12 | 00:00:00 | |
| DM0DOS-11 | 2026-09-04 12:27:53 | 52.78955 | 11.93178 | 172° | 7km/h | 26871m | -27.8m/s | -46.9°C | 2.4% | 20.1hPa | 2.7V | 03:19:55 | 02:20:08 | 00:00:00 | |
| HSKMA3-T | 2026-09-04 12:27:50 | 52.78958 | 11.93178 | 159° | 9km/h | 26901m | -31.9m/s | -46.9°C | 0% | 20hPa | 2.7V | 03:20:39 | 02:20:07 | 00:00:00 | |
| DL1XH-15 | 2026-09-04 12:27:49 | 52.78961 | 11.93177 | 183° | 5km/h | 26964m | -30.8m/s | -46.9°C | 2.4% | 19.8hPa | 2.6V | 03:19:58 | 02:20:05 | 00:00:00 | |
| DJ2DS-15 | 2026-09-04 12:27:49 | 52.78959 | 11.93177 | 173° | 4km/h | 26933m | -32.2m/s | -46.9°C | 0.2% | 19.9hPa | 2.7V | 00:00:00 | 00:00:00 | 00:00:00 | |
| DL2RXE-15 | 2026-09-04 12:27:48 | 52.78957 | 11.93177 | 160° | 9km/h | 26902m | -31.9m/s | -46.9°C | 0.2% | 20.0hPa | 2.7V | 03:20:00 | 00:00:00 | 00:00:00 | |
| DL1XH1-15 | 2026-09-04 12:27:47 | 52.78964 | 11.93176 | 143° | 5km/h | 27026m | -31.5m/s | -47.1°C | 2.4% | 19.6hPa | 2.7V | 03:20:00 | 02:20:03 | 00:00:00 | |
| DF8AY | 2026-09-04 12:27:47 | 52.78961 | 11.93177 | 184° | 5km/h | 26964m | -30.8m/s | -46.9°C | 0% | 19.8hPa | 2.6V | 03:20:39 | 02:20:05 | 00:00:00 | |
| DL1XH-west | 2026-09-04 12:27:46 | 52.78964 | 11.93176 | 143° | 5km/h | 27026m | -31.5m/s | -47.1°C | 0% | 19.6hPa | 2.7V | 03:20:39 | 02:20:03 | 00:00:00 | |
| BIOWL1-15 | 2026-09-04 12:27:44 | 52.78964 | 11.93175 | 72° | 4km/h | 27057m | -29.7m/s | -47.1°C | 0% | 19.5hPa | 2.7V | 03:22:21 | 02:20:02 | 00:00:00 | |
| DO2SHX-10 | 2026-09-04 12:27:44 | 52.78964 | 11.93175 | 72° | 4km/h | 27057m | -29.7m/s | -47.1°C | 2.5% | 19.5hPa | 2.7V | 00:00:00 | 02:20:02 | 00:00:00 | |
| SONDE2-11 | 2026-09-04 12:27:43 | 52.78964 | 11.93172 | 105° | 4km/h | 27116m | -28.9m/s | -46.9°C | 0.2% | 19.4hPa | 2.7V | 00:00:00 | 00:00:00 | 00:00:00 | |
| DM0DOS-11 | 2026-09-04 12:27:42 | 52.78965 | 11.93168 | 115° | 7km/h | 27175m | -29.4m/s | -46.8°C | 2.4% | 19.2hPa | 2.7V | 03:20:05 | 02:19:58 | 00:00:00 | |
| DL1NUX | 2026-09-04 12:27:42 | 52.78967 | 11.93161 | 101° | 4km/h | 27263m | -29.1m/s | -46.7°C | 2.4% | 18.9hPa | 2.6V | 03:20:08 | 02:19:55 | 00:00:00 | |
| DF8AY | 2026-09-04 12:27:41 | 52.78967 | 11.93159 | 76° | 7km/h | 27291m | -27.9m/s | -46.8°C | 0% | 18.8hPa | 2.6V | 03:20:39 | 02:19:54 | 00:00:00 | |
| DO2SHX-10 | 2026-09-04 12:27:41 | 52.78964 | 11.93171 | 114° | 7km/h | 27145m | -31.0m/s | -46.8°C | 2.4% | 19.2hPa | 2.7V | 00:00:00 | 02:19:59 | 00:00:00 | |
| DL1XH1-15 | 2026-09-04 12:27:40 | 52.78967 | 11.93156 | 73° | 7km/h | 27319m | -27.8m/s | -46.9°C | 2.4% | 18.7hPa | 2.7V | 03:20:10 | 02:19:53 | 00:00:00 | |
| DB0DAN | 2026-09-04 12:27:40 | 52.78965 | 11.93168 | 116° | 7km/h | 27175m | -29.4m/s | -46.8°C | 0.2% | 19.16hPa | 2.7V | 00:00:00 | 00:00:00 | 00:00:00 | |
| HSKMA3-T | 2026-09-04 12:27:38 | 52.78966 | 11.93163 | 106° | 5km/h | 27233m | -29.9m/s | -46.7°C | 0% | 19hPa | 2.7V | 03:20:39 | 02:19:56 | 00:00:00 | |
| BIOWL1-15 | 2026-09-04 12:27:34 | 52.78965 | 11.93150 | 73° | 11km/h | 27375m | -28.5m/s | -47.1°C | 0% | 18.6hPa | 2.7V | 03:22:21 | 02:19:51 | 00:00:00 | |
| DM0DOS-11 | 2026-09-04 12:27:32 | 52.78960 | 11.93134 | 73° | 18km/h | 27460m | -28.4m/s | -47.2°C | 2.5% | 18.4hPa | 2.7V | 03:20:15 | 02:19:48 | 00:00:00 | |
| HTAHTA | 2026-09-04 12:27:32 | 52.78961 | 11.93141 | 55° | 15km/h | 27432m | -29.3m/s | -47.2°C | 0.2% | 18.4hPa | 2.6V | 00:00:00 | 00:00:00 | 00:00:00 | |
| AM1SDL-15 | 2026-09-04 12:27:31 | 52.78961 | 11.93140 | 56° | 11km/h | 27433m | -29.2m/s | -47.2°C | 2.4% | 18.4hPa | 2.6V | 00:00:00 | 02:19:49 | 00:00:00 | |
| GOEST3-10 | 2026-09-04 12:27:30 | 52.78960 | 11.93134 | 74° | 16km/h | 27461m | -28.4m/s | -47.2°C | 2.5% | 18.3hPa | 2.7V | 03:20:00 | 00:00:00 | 00:00:00 | |
| DL1XH-15 | 2026-09-04 12:27:29 | 52.78954 | 11.93113 | 68° | 16km/h | 27550m | -31m/s | -47.4°C | 2.5% | 18.1hPa | 2.6V | 03:20:18 | 02:19:45 | 00:00:00 | |
| HSKMA3-T | 2026-09-04 12:27:28 | 52.78956 | 11.93120 | 61° | 18km/h | 27521m | -29.3m/s | -47.3°C | 0% | 18.2hPa | 2.7V | 03:20:39 | 02:19:46 | 00:00:00 | |
| DL1XH1-15 | 2026-09-04 12:27:27 | 52.78952 | 11.93103 | 83° | 9km/h | 27611m | -31.5m/s | -47.5°C | 2.5% | 17.9hPa | 2.7V | 03:20:20 | 02:19:43 | 00:00:00 | |
| DF8AY | 2026-09-04 12:27:26 | 52.78953 | 11.93108 | 66° | 13km/h | 27581m | -30m/s | -47.4°C | 0% | 18hPa | 2.6V | 03:20:39 | 02:19:44 | 00:00:00 | |
| DB0DAN | 2026-09-04 12:27:25 | 52.78952 | 11.93103 | 84° | 9km/h | 27611m | -31.5m/s | -47.5°C | 0.2% | 17.91hPa | 2.7V | 00:00:00 | 00:00:00 | 00:00:00 | |
| AA1-15 | 2026-09-04 12:27:24 | 52.78953 | 11.93097 | 111° | 7km/h | 27671m | -29.7m/s | -47.6°C | 0% | 17.8hPa | 2.7V | 03:20:39 | 02:19:41 | 00:00:00 | |
| DO2SHX-10 | 2026-09-04 12:27:23 | 52.78953 | 11.93097 | 112° | 5km/h | 27671m | -29.7m/s | -47.5°C | 2.5% | 17.7hPa | 2.6V | 03:20:00 | 02:19:41 | 00:00:00 | |
| DL1NUX | 2026-09-04 12:27:22 | 52.78953 | 11.93090 | 21° | 5km/h | 27859m | -29.9m/s | -47.2°C | 2.5% | 17.2hPa | 2.6V | 03:20:28 | 02:19:35 | 00:00:00 | |
| DD8BA-10 | 2026-09-04 12:27:22 | 52.78954 | 11.93095 | 118° | 5km/h | 27701m | -30.0m/s | -47.4°C | 2.5% | 17.6hPa | 2.6V | 00:00:00 | 00:00:00 | 00:00:00 | |
| DB0UT-7 | 2026-09-04 12:27:21 | 52.78955 | 11.93093 | 151° | 9km/h | 27731m | -31.0m/s | -47.3°C | 2.5% | 17.6hPa | 2.6V | 03:20:00 | 02:19:39 | 00:00:00 | |
| DL1XH1-15 | 2026-09-04 12:27:20 | 52.78951 | 11.93088 | 31° | 5km/h | 27918m | -29.7m/s | -47°C | 2.4% | 17.1hPa | 2.7V | 03:20:30 | 02:19:33 | 00:00:00 | |
| HSKMA3-T | 2026-09-04 12:27:17 | 52.78953 | 11.93090 | 21° | 5km/h | 27859m | -29.9m/s | -47.2°C | 0% | 17.2hPa | 2.6V | 03:20:39 | 02:19:35 | 00:00:00 | |
| DF8AY | 2026-09-04 12:27:15 | 52.78950 | 11.93088 | 31° | 5km/h | 27918m | -29.7m/s | -47°C | 0% | 17.1hPa | 2.7V | 03:20:39 | 02:19:33 | 00:00:00 | |
| DL1XH-west | 2026-09-04 12:27:13 | 52.78948 | 11.93085 | 50° | 4km/h | 27980m | -31.6m/s | -47.1°C | 0% | 16.9hPa | 2.7V | 03:20:39 | 02:19:31 | 00:00:00 | |
| DL4BBY-15 | 2026-09-04 12:27:12 | 52.78948 | 11.93084 | 31° | 7km/h | 28012m | -29.9m/s | -46.8°C | 0% | 0hPa | 2.7V | 00:00:00 | 00:00:00 | 00:00:00 | |
| DB0DAN | 2026-09-04 12:27:10 | 52.78948 | 11.93080 | 70° | 4km/h | 28073m | -33.3m/s | -47.1°C | 0.2% | 16.71hPa | 2.7V | 00:00:00 | 00:00:00 | 00:00:00 | |
| DL1XH1-15 | 2026-09-04 12:27:10 | 52.78955 | 11.93069 | 122° | 9km/h | 28230m | -29.8m/s | -47.1°C | 2.5% | 16.3hPa | 2.7V | 03:20:40 | 02:19:23 | 00:00:00 | |
| GOEST3-10 | 2026-09-04 12:27:10 | 52.78948 | 11.93080 | 70° | 7km/h | 28073m | -33.2m/s | -47.1°C | 2.5% | 16.7hPa | 2.6V | 03:20:00 | 00:00:00 | 00:00:00 | |
| DL1XH-15 | 2026-09-04 12:27:09 | 52.78951 | 11.93074 | 145° | 11km/h | 28169m | -32m/s | -47.2°C | 2.5% | 16.4hPa | 2.6V | 03:20:38 | 02:19:25 | 00:00:00 | |
| HSKMA3-T | 2026-09-04 12:27:07 | 52.78953 | 11.93072 | 134° | 9km/h | 28200m | -30.2m/s | -47.2°C | 0% | 16.4hPa | 2.6V | 03:20:39 | 02:19:24 | 00:00:00 | |
| DF8AY | 2026-09-04 12:27:04 | 52.78956 | 11.93066 | 127° | 5km/h | 28261m | -31.5m/s | -47.1°C | 0% | 16.3hPa | 2.7V | 03:22:21 | 02:19:22 | 00:00:00 | |
| DL1XH-west | 2026-09-04 12:27:03 | 52.78958 | 11.93062 | 100° | 5km/h | 28327m | -31.9m/s | -47°C | 0% | 16.1hPa | 2.6V | 03:21:30 | 02:19:20 | 00:00:00 | |
| BIOWL1-15 | 2026-09-04 12:27:00 | 52.78960 | 11.93057 | 110° | 9km/h | 28386m | -28.7m/s | -46.8°C | 0% | 15.9hPa | 2.7V | 03:22:21 | 02:19:18 | 00:00:00 | |
| DL1NUX | 2026-09-04 12:27:00 | 52.78965 | 11.93045 | 126° | 13km/h | 28474m | -28.8m/s | -46.6°C | 2.5% | 15.7hPa | 2.6V | 03:20:48 | 02:19:15 | 00:00:00 | |
| DO2SHX-10 | 2026-09-04 12:26:59 | 52.78961 | 11.93053 | 122° | 13km/h | 28416m | -30.1m/s | -46.7°C | 2.5% | 15.8hPa | 2.7V | 03:20:00 | 02:19:17 | 00:00:00 | |
| DL1XH1-15 | 2026-09-04 12:26:57 | 52.78969 | 11.93036 | 126° | 15km/h | 28530m | -27m/s | -46.4°C | 2.5% | 15.5hPa | 2.7V | 03:20:50 | 02:19:13 | 00:00:00 | |
| HSKMA3-T | 2026-09-04 12:26:56 | 52.78969 | 11.93036 | 127° | 15km/h | 28530m | -27m/s | -46.4°C | 0% | 15.6hPa | 2.7V | 03:21:30 | 02:19:13 | 00:00:00 | |
| DB0DAN | 2026-09-04 12:26:55 | 52.78969 | 11.93036 | 127° | 13km/h | 28530m | -27m/s | -46.4°C | 0.2% | 15.55hPa | 2.7V | 00:00:00 | 00:00:00 | 00:00:00 | |
| DF8AY | 2026-09-04 12:26:54 | 52.78972 | 11.93031 | 135° | 16km/h | 28557m | -26.7m/s | -46.3°C | 0% | 15.5hPa | 2.7V | 03:22:21 | 02:19:12 | 00:00:00 | |
| AA1-15 | 2026-09-04 12:26:53 | 52.78975 | 11.93027 | 144° | 15km/h | 28584m | -27.2m/s | -46.2°C | 0% | 15.5hPa | 2.7V | 03:21:30 | 02:19:11 | 00:00:00 | |
| DL1XH-west | 2026-09-04 12:26:52 | 52.78978 | 11.93023 | 139° | 18km/h | 28609m | -24.3m/s | -46.1°C | 0% | 15.3hPa | 2.6V | 03:21:30 | 02:19:10 | 00:00:00 | |
| NBG1-10 | 2026-09-04 12:26:52 | 52.78978 | 11.93023 | 139° | 13km/h | 28609m | -24.2m/s | -46.1°C | 2.5% | 15.3hPa | 2.7V | 00:00:00 | 02:19:10 | 00:00:00 | |
| DL1XH1-15 | 2026-09-04 12:26:51 | 52.79002 | 11.92995 | 141° | 16km/h | 28801m | -25.5m/s | -45.9°C | 2.5% | 14.9hPa | 2.7V | 03:21:01 | 02:19:02 | 00:00:00 | |
| BIOWL1-15 | 2026-09-04 12:26:50 | 52.78985 | 11.93016 | 148° | 13km/h | 28656m | -23.8m/s | -46.1°C | 0% | 15.2hPa | 2.7V | 03:22:21 | 02:19:08 | 00:00:00 | |
| HSKMA3-T | 2026-09-04 12:26:45 | 52.79002 | 11.92995 | 142° | 16km/h | 28801m | -25.5m/s | -45.9°C | 0% | 14.9hPa | 2.7V | 03:21:30 | 02:19:02 | 00:00:00 | |
| BIOWL9-15 | 2026-09-04 12:26:45 | 52.79002 | 11.92995 | 141° | 15km/h | 28801m | -25.5m/s | -45.9°C | 0.2% | 14.9hPa | 2.7V | 00:00:00 | 00:00:00 | 00:00:00 | |
| DO3MHA-11 | 2026-09-04 12:26:44 | 52.79002 | 11.92995 | 142° | 11km/h | 28802m | -25.4m/s | -45.9°C | 2.5% | 14.8hPa | 2.7V | 03:21:00 | 02:19:02 | 00:00:00 | |
| DM0DOS-11 | 2026-09-04 12:26:43 | 52.79015 | 11.92982 | 139° | 11km/h | 28902m | -26.5m/s | -45.5°C | 2.4% | 14.7hPa | 2.7V | 03:21:05 | 02:18:58 | 00:00:00 | |
| DL1XH-west | 2026-09-04 12:26:42 | 52.79009 | 11.92988 | 145° | 18km/h | 28851m | -24.9m/s | -45.7°C | 0% | 14.8hPa | 2.6V | 03:21:30 | 02:19:00 | 00:00:00 | |
| DB0DAN | 2026-09-04 12:26:40 | 52.79015 | 11.92982 | 140° | 11km/h | 28902m | -26.5m/s | -45.5°C | 0.2% | 14.67hPa | 2.7V | 00:00:00 | 00:00:00 | 00:00:00 | |
| BIOWL1-15 | 2026-09-04 12:26:40 | 52.79015 | 11.92982 | 140° | 11km/h | 28902m | -26.5m/s | -45.5°C | 0% | 14.7hPa | 2.7V | 03:22:21 | 02:18:58 | 00:00:00 | |
| DD8BA-10 | 2026-09-04 12:26:40 | 52.79015 | 11.92982 | 140° | 9km/h | 28902m | -26.5m/s | -45.5°C | 2.4% | 14.6hPa | 2.7V | 00:00:00 | 00:00:00 | 00:00:00 | |
| DL1XH1-15 | 2026-09-04 12:26:39 | 52.79015 | 11.92970 | 62° | 9km/h | 29041m | -28.2m/s | -44.9°C | 2.3% | 14.4hPa | 2.7V | 03:21:10 | 02:18:53 | 00:00:00 | |
| HSKMA3-T | 2026-09-04 12:26:34 | 52.79015 | 11.92967 | 87° | 7km/h | 29070m | -28.9m/s | -44.6°C | 0% | 14.3hPa | 2.7V | 03:21:30 | 02:18:52 | 00:00:00 | |
| DO3MHA-11 | 2026-09-04 12:26:34 | 52.79015 | 11.92967 | 88° | 9km/h | 29070m | -28.9m/s | -44.6°C | 2.2% | 14.3hPa | 2.7V | 00:00:00 | 02:18:52 | 00:00:00 | |
| DM0DOS-11 | 2026-09-04 12:26:33 | 52.79016 | 11.92954 | 105° | 5km/h | 29189m | -30.9m/s | -43.7°C | 2% | 14.1hPa | 2.7V | 03:21:15 | 02:18:48 | 00:00:00 | |
| DF8AY | 2026-09-04 12:26:32 | 52.79014 | 11.92960 | 100° | 11km/h | 29128m | -30.1m/s | -44.2°C | 0% | 14.2hPa | 2.6V | 03:22:21 | 02:18:50 | 00:00:00 | |
| AA1-15 | 2026-09-04 12:26:32 | 52.79015 | 11.92957 | 117° | 9km/h | 29159m | -31.2m/s | -43.9°C | 0% | 14.1hPa | 2.6V | 03:21:30 | 02:18:49 | 00:00:00 | |
| AM1SDL-15 | 2026-09-04 12:26:31 | 52.79015 | 11.92957 | 118° | 13km/h | 29159m | -31.1m/s | -43.8°C | 2.1% | 14.1hPa | 2.7V | 00:00:00 | 02:18:49 | 00:00:00 | |
| SMARD9-15 | 2026-09-04 12:26:30 | 52.79016 | 11.92952 | 89° | 5km/h | 29221m | -31.8m/s | -43.8°C | 0.2% | 14.0hPa | 2.7V | 00:00:00 | 00:00:00 | 00:00:00 | |
| DO2SHX-10 | 2026-09-04 12:26:29 | 52.79016 | 11.92952 | 90° | 5km/h | 29221m | -31.8m/s | -43.7°C | 2.0% | 13.9hPa | 2.7V | 00:00:00 | 02:18:47 | 00:00:00 | |
| DB0DAN | 2026-09-04 12:26:25 | 52.79011 | 11.92950 | 348° | 15km/h | 29321m | -20.7m/s | -43.7°C | 0.1% | 13.73hPa | 2.7V | 00:00:00 | 00:00:00 | 00:00:00 | |
| BIOWL1-15 | 2026-09-04 12:26:24 | 52.78997 | 11.92956 | 348° | 24km/h | 29368m | -16m/s | -43.8°C | 0% | 13.6hPa | 2.6V | 03:22:21 | 02:18:40 | 00:00:00 | |
| HSKMA3-T | 2026-09-04 12:26:23 | 52.79002 | 11.92954 | 348° | 20km/h | 29354m | -13.5m/s | -43.7°C | 0% | 13.7hPa | 2.7V | 03:21:30 | 02:18:41 | 00:00:00 | |
| DM0DOS-11 | 2026-09-04 12:26:23 | 52.78986 | 11.92958 | 5° | 24km/h | 29400m | -16.5m/s | -44°C | 2.1% | 13.6hPa | 2.7V | 03:21:25 | 02:18:38 | 00:00:00 | |
| DO3MHA-11 | 2026-09-04 12:26:23 | 52.79002 | 11.92954 | 349° | 18km/h | 29354m | -13.4m/s | -43.7°C | 2.1% | 13.6hPa | 2.7V | 00:00:00 | 02:18:41 | 00:00:00 | |
| DL1NUX | 2026-09-04 12:26:22 | 52.78975 | 11.92949 | 89° | 15km/h | 29460m | -23.2m/s | -44.2°C | 2.1% | 13.4hPa | 2.6V | 03:21:28 | 02:18:35 | 00:00:00 | |
| DL1XH-west | 2026-09-04 12:26:21 | 52.78991 | 11.92957 | 354° | 24km/h | 29384m | -16.5m/s | -43.9°C | 0% | 13.6hPa | 2.6V | 03:21:30 | 02:18:39 | 00:00:00 | |
| HSKMA3-T | 2026-09-04 12:26:13 | 52.78986 | 11.92926 | 141° | 20km/h | 29550m | -25m/s | -44.5°C | 0% | 13.3hPa | 2.7V | 03:22:21 | 02:18:31 | 00:00:00 | |
| BIOWL9-15 | 2026-09-04 12:26:13 | 52.78986 | 11.92926 | 141° | 20km/h | 29550m | -25.0m/s | -44.5°C | 0.2% | 13.3hPa | 2.7V | 00:00:00 | 00:00:00 | 00:00:00 | |
| DM0DOS-11 | 2026-09-04 12:26:12 | 52.78989 | 11.92914 | 32° | 16km/h | 29635m | -33.6m/s | -44.4°C | 2.3% | 13.1hPa | 2.7V | 03:21:35 | 02:18:28 | 00:00:00 | |
| DF8AY | 2026-09-04 12:26:11 | 52.78990 | 11.92917 | 78° | 9km/h | 29604m | -29.1m/s | -44.4°C | 0% | 13.2hPa | 2.6V | 03:22:21 | 02:18:29 | 00:00:00 | |
| AA1-15 | 2026-09-04 12:26:11 | 52.78989 | 11.92914 | 32° | 16km/h | 29635m | -33.6m/s | -44.4°C | 0% | 13.1hPa | 2.7V | 03:22:21 | 02:18:28 | 00:00:00 | |
| DL1XH-west | 2026-09-04 12:26:11 | 52.78984 | 11.92910 | 18° | 24km/h | 29669m | -31.8m/s | -44.5°C | 0% | 13.1hPa | 2.7V | 03:22:21 | 02:18:27 | 00:00:00 | |
| BIOWL1-15 | 2026-09-04 12:26:10 | 52.78958 | 11.92892 | 36° | 27km/h | 29789m | -31.7m/s | -44.2°C | 0% | 12.8hPa | 2.7V | 03:22:21 | 02:18:23 | 00:00:00 | |
| DB0DAN | 2026-09-04 12:26:10 | 52.78989 | 11.92914 | 32° | 15km/h | 29636m | -33.6m/s | -44.4°C | 0.2% | 13.11hPa | 2.7V | 00:00:00 | 00:00:00 | 00:00:00 | |
| SONDE2-11 | 2026-09-04 12:26:10 | 52.78984 | 11.92910 | 18° | 24km/h | 29669m | -31.8m/s | -44.5°C | 0.2% | 13.1hPa | 2.6V | 00:00:00 | 00:00:00 | 00:00:00 | |
| DL1XH-15 | 2026-09-04 12:26:09 | 52.78971 | 11.92903 | 17° | 29km/h | 29728m | -28.9m/s | -44.5°C | 2.3% | 12.9hPa | 2.6V | 03:21:38 | 02:18:25 | 00:00:00 | |
| DL4BBY-15 | 2026-09-04 12:26:09 | 52.78984 | 11.92910 | 19° | 24km/h | 29669m | -31.7m/s | -44.2°C | 0% | 0hPa | 2.7V | 00:00:00 | 00:00:00 | 00:00:00 | |
| DO2SHX-10 | 2026-09-04 12:26:08 | 52.78978 | 11.92907 | 16° | 29km/h | 29699m | -29.7m/s | -44.4°C | 2.3% | 13.0hPa | 2.7V | 00:00:00 | 02:18:26 | 00:00:00 | |
| AM1SDL-15 | 2026-09-04 12:26:07 | 52.78971 | 11.92903 | 18° | 26km/h | 29729m | -28.9m/s | -44.4°C | 2.3% | 12.9hPa | 2.7V | 03:21:00 | 02:18:25 | 00:00:00 | |
| DF8AY-15 | 2026-09-04 12:26:06 | 52.78964 | 11.92898 | 27° | 27km/h | 29759m | -30.9m/s | -44.4°C | 2.3% | 12.8hPa | 2.7V | 00:00:00 | 02:18:24 | 00:00:00 | |
| DO2SHX-10 | 2026-09-04 12:26:05 | 52.78958 | 11.92892 | 37° | 29km/h | 29790m | -31.6m/s | -44.2°C | 2.2% | 12.8hPa | 2.7V | 00:00:00 | 02:18:23 | 00:00:00 | |
| SP3WXH-11 | 2026-09-04 12:26:04 | 52.78949 | 11.92876 | 54° | 27km/h | 29853m | -31.7m/s | -44.1°C | 0.2% | 12.7hPa | 2.7V | 00:00:00 | 00:00:00 | 00:00:00 | |
| DM0DOS-11 | 2026-09-04 12:26:02 | 52.78942 | 11.92847 | 80° | 22km/h | 29948m | -32.5m/s | -44.2°C | 2.2% | 12.5hPa | 2.7V | 03:21:45 | 02:18:18 | 00:00:00 | |
| HSKMA3-T | 2026-09-04 12:26:02 | 52.78946 | 11.92866 | 69° | 26km/h | 29884m | -30.9m/s | -44.1°C | 0% | 12.6hPa | 2.6V | 03:22:21 | 02:18:20 | 00:00:00 | |
| DF8AY | 2026-09-04 12:26:00 | 52.78943 | 11.92847 | 81° | 22km/h | 29948m | -32.5m/s | -44.2°C | 0% | 12.5hPa | 2.7V | 03:22:21 | 02:18:18 | 00:00:00 | |
| AA1-15 | 2026-09-04 12:26:00 | 52.78942 | 11.92838 | 85° | 22km/h | 29979m | -30.5m/s | -44.1°C | 0% | 12.4hPa | 2.7V | 03:22:21 | 02:18:17 | 00:00:00 | |
| DL1XH-west | 2026-09-04 12:25:59 | 52.78941 | 11.92830 | 80° | 22km/h | 30008m | -29.5m/s | -44°C | 0% | 12.4hPa | 2.7V | 03:22:21 | 02:18:16 | 00:00:00 | |
| SMARD9-15 | 2026-09-04 12:25:58 | 52.78941 | 11.92830 | 79° | 22km/h | 30008m | -29.5m/s | -44.0°C | 0.2% | 12.4hPa | 2.7V | 00:00:00 | 00:00:00 | 00:00:00 | |
| MECKS9 | 2026-09-04 12:25:56 | 52.78940 | 11.92820 | 84° | 24km/h | 30036m | -26.7m/s | -43.8°C | 0.2% | 12.3hPa | 2.7V | 00:00:00 | 00:00:00 | 00:00:00 | |
| DB0DAN | 2026-09-04 12:25:55 | 52.78938 | 11.92797 | 69° | 31km/h | 30098m | -33m/s | -43.4°C | 0.1% | 12.25hPa | 2.7V | 00:00:00 | 00:00:00 | 00:00:00 | |
| HSKMA3-T | 2026-09-04 12:25:52 | 52.78927 | 11.92762 | 56° | 33km/h | 30190m | -31.9m/s | -43.1°C | 0% | 12.1hPa | 2.6V | 03:22:21 | 02:18:10 | 00:00:00 | |
| DM0DOS-11 | 2026-09-04 12:25:51 | 52.78919 | 11.92741 | 58° | 27km/h | 30259m | -35m/s | -42.9°C | 2.1% | 11.9hPa | 2.7V | 03:21:55 | 02:18:08 | 00:00:00 | |
| AA1-15 | 2026-09-04 12:25:50 | 52.78915 | 11.92732 | 57° | 24km/h | 30293m | -32.9m/s | -42.8°C | 0% | 11.9hPa | 2.7V | 03:22:21 | 02:18:07 | 00:00:00 | |
| DL1XH1-15 | 2026-09-04 12:25:49 | 52.78912 | 11.92705 | 110° | 16km/h | 30431m | -35.8m/s | -42.5°C | 1.9% | 11.6hPa | 2.7V | 03:22:00 | 02:18:03 | 00:00:00 | |
| DL1XH-west | 2026-09-04 12:25:48 | 52.78912 | 11.92717 | 76° | 15km/h | 30360m | -34.2m/s | -42.7°C | 0% | 11.8hPa | 2.6V | 03:22:21 | 02:18:05 | 00:00:00 | |
| EDDB2-11 | 2026-09-04 12:25:45 | 52.78914 | 11.92699 | 123° | 13km/h | 30469m | -39.6m/s | -42.4°C | 0.2% | 11.6hPa | 2.7V | 00:00:00 | 00:00:00 | 00:00:00 | |
| DB0NH | 2026-09-04 12:25:43 | 52.78916 | 11.92694 | 124° | 15km/h | 30507m | -38.0m/s | -42.4°C | 2.0% | 11.5hPa | 2.7V | 00:00:00 | 02:18:01 | 00:00:00 | |
| DL1NUX | 2026-09-04 12:25:42 | 52.78922 | 11.92678 | 275° | 2km/h | 30696m | -26.6m/s | -41.8°C | 1.9% | 11.1hPa | 2.6V | 03:22:08 | 02:17:55 | 00:00:00 | |
| DM0DOS-11 | 2026-09-04 12:25:41 | 52.78922 | 11.92681 | 126° | 11km/h | 30610m | -29.9m/s | -42.3°C | 2% | 11.3hPa | 2.7V | 03:22:05 | 02:17:58 | 00:00:00 | |
| HSKMA3-T | 2026-09-04 12:25:41 | 52.78920 | 11.92684 | 128° | 13km/h | 30578m | -33.5m/s | -42.4°C | 0% | 11.3hPa | 2.6V | 03:22:21 | 02:17:59 | 00:00:00 | |
| DB0DAN | 2026-09-04 12:25:40 | 52.78922 | 11.92681 | 126° | 9km/h | 30610m | -29.9m/s | -42.3°C | 0.1% | 11.29hPa | 2.7V | 00:00:00 | 00:00:00 | 00:00:00 | |
| DF8AY | 2026-09-04 12:25:39 | 52.78922 | 11.92678 | 114° | 4km/h | 30639m | -30.5m/s | -42.2°C | 0% | 11.3hPa | 2.7V | 03:22:21 | 02:17:57 | 00:00:00 | |
| AA1-15 | 2026-09-04 12:25:39 | 52.78922 | 11.92678 | 275° | 2km/h | 30696m | -26.6m/s | -41.8°C | 0% | 11.1hPa | 2.6V | 03:22:21 | 02:17:55 | 00:00:00 | |
| DL1XH-west | 2026-09-04 12:25:38 | 52.78923 | 11.92678 | 54° | 0km/h | 30669m | -29.2m/s | -41.9°C | 0% | 11.2hPa | 2.7V | 03:22:21 | 02:17:56 | 00:00:00 | |
| BIOWL1-15 | 2026-09-04 12:25:35 | 52.78924 | 11.92682 | 210° | 9km/h | 30745m | -23.6m/s | -41.6°C | 0% | 11hPa | 2.7V | 03:22:21 | 02:17:53 | 00:00:00 | |
| EDDB2-12 | 2026-09-04 12:25:35 | 52.78927 | 11.92684 | 197° | 15km/h | 30767m | -20.5m/s | -41.6°C | 0.1% | 11.0hPa | 2.7V | 00:00:00 | 00:00:00 | 00:00:00 | |
| DO2SHX-10 | 2026-09-04 12:25:34 | 52.78927 | 11.92684 | 198° | 24km/h | 30767m | -20.4m/s | -41.5°C | 2.0% | 10.9hPa | 2.7V | 03:22:00 | 02:17:52 | 00:00:00 | |
| SP3WXH-11 | 2026-09-04 12:25:33 | 52.78938 | 11.92686 | 181° | 29km/h | 30805m | -17.2m/s | -41.5°C | 0.1% | 10.9hPa | 2.7V | 00:00:00 | 00:00:00 | 00:00:00 | |
| DM0DOS-11 | 2026-09-04 12:25:31 | 52.78954 | 11.92687 | 183° | 29km/h | 30817m | 4.9m/s | -41.6°C | 2% | 10.9hPa | 2.7V | 03:22:15 | 02:17:48 | 00:00:00 | |
| HSKMA3-T | 2026-09-04 12:25:31 | 52.78946 | 11.92686 | 184° | 31km/h | 30817m | -5.5m/s | -41.4°C | 0% | 10.9hPa | 2.6V | 03:22:21 | 02:17:49 | 00:00:00 | |
| DO2SHX-10 | 2026-09-04 12:25:31 | 52.78946 | 11.92686 | 184° | 29km/h | 30818m | -5.5m/s | -41.4°C | 2.0% | 10.8hPa | 2.6V | 00:00:00 | 02:17:49 | 00:00:00 | |
| DD8BA-10 | 2026-09-04 12:25:30 | 52.78954 | 11.92687 | 184° | 13km/h | 30818m | 4.9m/s | -41.5°C | 2.0% | 10.8hPa | 2.6V | 03:22:00 | 00:00:00 | 00:00:00 | |
| DL1XH-15 | 2026-09-04 12:25:29 | 52.78971 | 11.92690 | 192° | 15km/h | 30802m | 6.8m/s | -41.5°C | 1.9% | 10.9hPa | 2.6V | 03:22:18 | 02:17:45 | 00:00:00 | |
| DL1XH1-15 | 2026-09-04 12:25:29 | 52.78974 | 11.92693 | 316° | 4km/h | 30788m | 6.8m/s | -41.6°C | 2% | 10.9hPa | 2.7V | 03:22:20 | 02:17:43 | 00:00:00 | |
| DF8AY | 2026-09-04 12:25:29 | 52.78967 | 11.92689 | 185° | 22km/h | 30809m | 4.8m/s | -41.5°C | 0% | 10.9hPa | 2.7V | 03:22:21 | 02:17:46 | 00:00:00 | |
| AA1-15 | 2026-09-04 12:25:27 | 52.78972 | 11.92690 | 192° | 15km/h | 30802m | 6.8m/s | -41.5°C | 0% | 10.9hPa | 2.6V | 03:22:21 | 02:17:45 | 00:00:00 | |
| DL1XH-west | 2026-09-04 12:25:27 | 52.78974 | 11.92691 | 221° | 7km/h | 30795m | 7.9m/s | -41.6°C | 0% | 10.9hPa | 2.6V | 03:22:21 | 02:17:44 | 00:00:00 | |
| AP2371 | 2026-09-04 12:25:26 | 52.78971 | 11.92690 | 193° | 15km/h | 30803m | 6.8m/s | -41.5°C | 0.1% | 10.9hPa | 2.7V | 00:00:00 | 00:00:00 | 00:00:00 | |
| DB0DAN | 2026-09-04 12:25:25 | 52.78974 | 11.92693 | 316° | 4km/h | 30788m | 6.9m/s | -41.6°C | 0.1% | 10.94hPa | 2.7V | 00:00:00 | 00:00:00 | 00:00:00 | |
| BIOWL1-15 | 2026-09-04 12:25:23 | 52.78971 | 11.92692 | 43° | 7km/h | 30776m | 6.2m/s | -41.6°C | 0% | 10.9hPa | 2.7V | 03:24:54 | 02:17:41 | 00:00:00 | |
| DO2SHX-10 | 2026-09-04 12:25:22 | 52.78971 | 11.92689 | 98° | 15km/h | 30770m | 6.4m/s | -41.5°C | 2.0% | 10.9hPa | 2.6V | 03:22:00 | 02:17:40 | 00:00:00 | |
| DL1NUX | 2026-09-04 12:25:21 | 52.78992 | 11.92676 | 191° | 27km/h | 30738m | 7.2m/s | -41.5°C | 2% | 11hPa | 2.6V | 03:22:28 | 02:17:35 | 00:00:00 | |
| HSKMA3-T | 2026-09-04 12:25:19 | 52.78980 | 11.92676 | 163° | 24km/h | 30751m | 5.9m/s | -41.5°C | 0% | 11hPa | 2.7V | 03:23:12 | 02:17:37 | 00:00:00 | |
| DF8AY | 2026-09-04 12:25:17 | 52.78993 | 11.92676 | 191° | 27km/h | 30738m | 7.2m/s | -41.5°C | 0% | 11hPa | 2.6V | 03:23:12 | 02:17:35 | 00:00:00 | |
| AA1-15 | 2026-09-04 12:25:17 | 52.78999 | 11.92679 | 204° | 27km/h | 30731m | 6.9m/s | -41.6°C | 0% | 11hPa | 2.6V | 03:23:12 | 02:17:34 | 00:00:00 | |
| OE5DRO-10 | 2026-09-04 12:25:17 | 52.78992 | 11.92675 | 192° | 24km/h | 30738m | 7.2m/s | 0°C | 0% | 0hPa | 2.7V | 00:00:00 | 00:00:00 | 00:00:00 | |
| DL1XH1-15 | 2026-09-04 12:25:16 | 52.79005 | 11.92684 | 209° | 26km/h | 30725m | 5.9m/s | -41.7°C | 2.1% | 11hPa | 2.7V | 03:22:30 | 02:17:33 | 00:00:00 | |
| DL1XH-west | 2026-09-04 12:25:16 | 52.79005 | 11.92684 | 210° | 26km/h | 30725m | 5.9m/s | -41.7°C | 0% | 11hPa | 2.7V | 03:23:12 | 02:17:33 | 00:00:00 | |
| GOEST3-10 | 2026-09-04 12:25:15 | 52.79005 | 11.92684 | 210° | 20km/h | 30725m | 5.8m/s | -41.6°C | 2.1% | 11.0hPa | 2.7V | 00:00:00 | 02:17:33 | 00:00:00 | |
| EDDB2-11 | 2026-09-04 12:25:14 | 52.79015 | 11.92692 | 196° | 16km/h | 30713m | 6.0m/s | -41.6°C | 0.1% | 11.1hPa | 2.6V | 00:00:00 | 00:00:00 | 00:00:00 | |
| DB0NH | 2026-09-04 12:25:13 | 52.79015 | 11.92692 | 197° | 16km/h | 30713m | 5.9m/s | -41.6°C | 2.0% | 11.0hPa | 2.6V | 00:00:00 | 02:17:31 | 00:00:00 | |
| NBG1-10 | 2026-09-04 12:25:12 | 52.79019 | 11.92692 | 176° | 16km/h | 30707m | 6.5m/s | -41.6°C | 2.1% | 11.0hPa | 2.6V | 00:00:00 | 02:17:30 | 00:00:00 | |
| DB0DAN | 2026-09-04 12:25:10 | 52.79026 | 11.92686 | 135° | 16km/h | 30695m | 5.4m/s | -41.8°C | 0.1% | 11.09hPa | 2.7V | 00:00:00 | 00:00:00 | 00:00:00 | |
| DO2SHX-10 | 2026-09-04 12:25:10 | 52.79026 | 11.92686 | 136° | 16km/h | 30695m | 5.4m/s | -41.7°C | 2.1% | 11.0hPa | 2.6V | 03:22:00 | 02:17:28 | 00:00:00 | |
| DL1XH-15 | 2026-09-04 12:25:09 | 52.79033 | 11.92671 | 123° | 9km/h | 30677m | 7.2m/s | -41.9°C | 2.1% | 11.1hPa | 2.6V | 03:22:38 | 02:17:25 | 00:00:00 | |
| HSKMA3-T | 2026-09-04 12:25:08 | 52.79032 | 11.92675 | 119° | 15km/h | 30684m | 6.4m/s | -41.9°C | 0% | 11.1hPa | 2.7V | 03:23:12 | 02:17:26 | 00:00:00 | |
| DF8AY | 2026-09-04 12:25:07 | 52.79033 | 11.92671 | 123° | 9km/h | 30677m | 7.2m/s | -41.9°C | 0% | 11.1hPa | 2.6V | 03:23:12 | 02:17:25 | 00:00:00 | |
| AA1-15 | 2026-09-04 12:25:06 | 52.79037 | 11.92668 | 177° | 9km/h | 30664m | 5.8m/s | -42.1°C | 0% | 11.2hPa | 2.7V | 03:23:12 | 02:17:23 | 00:00:00 | |
| DL1XH-west | 2026-09-04 12:25:05 | 52.79040 | 11.92668 | 181° | 15km/h | 30658m | 6.8m/s | -42.2°C | 0% | 11.2hPa | 2.7V | 03:23:12 | 02:17:22 | 00:00:00 | |
| GOEST3-10 | 2026-09-04 12:25:05 | 52.79037 | 11.92668 | 177° | 18km/h | 30665m | 5.8m/s | -42.1°C | 2.2% | 11.1hPa | 2.7V | 00:00:00 | 02:17:23 | 00:00:00 | |
| EDDB2-12 | 2026-09-04 12:25:04 | 52.79044 | 11.92668 | 178° | 18km/h | 30651m | 7.2m/s | -42.2°C | 0.1% | 11.2hPa | 2.7V | 00:00:00 | 00:00:00 | 00:00:00 | |
| DM0DOS-11 | 2026-09-04 12:25:02 | 52.79060 | 11.92663 | 158° | 18km/h | 30634m | 4.9m/s | -42.2°C | 2.2% | 11.2hPa | 2.7V | 03:22:45 | 02:17:18 | 00:00:00 | |
| SP3WXH-11 | 2026-09-04 12:25:02 | 52.79055 | 11.92665 | 166° | 20km/h | 30639m | 4.7m/s | -42.2°C | 0.1% | 11.2hPa | 2.6V | 00:00:00 | 00:00:00 | 00:00:00 | |
| DL1NUX | 2026-09-04 12:25:01 | 52.79064 | 11.92653 | 56° | 11km/h | 30615m | 6.5m/s | -42.1°C | 2.1% | 11.2hPa | 2.6V | 03:22:48 | 02:17:15 | 00:00:00 | |
| DO2SHX-10 | 2026-09-04 12:25:01 | 52.79055 | 11.92665 | 167° | 18km/h | 30640m | 4.7m/s | -42.2°C | 2.2% | 11.1hPa | 2.7V | 00:00:00 | 02:17:19 | 00:00:00 | |
| GOEST3-10 | 2026-09-04 12:25:00 | 52.79060 | 11.92663 | 159° | 13km/h | 30635m | 4.9m/s | -42.2°C | 2.2% | 11.1hPa | 2.7V | 00:00:00 | 00:00:00 | 00:00:00 | |
| DL1XH1-15 | 2026-09-04 12:24:59 | 52.79059 | 11.92644 | 52° | 18km/h | 30604m | 5.1m/s | -42.2°C | 2.1% | 11.3hPa | 2.7V | 03:22:50 | 02:17:13 | 00:00:00 | |
| BIOWL1-15 | 2026-09-04 12:24:57 | 52.79064 | 11.92653 | 56° | 11km/h | 30615m | 6.5m/s | -42.1°C | 0% | 11.2hPa | 2.6V | 03:24:54 | 02:17:15 | 00:00:00 | |
| SMARD9-15 | 2026-09-04 12:24:56 | 52.79062 | 11.92649 | 47° | 15km/h | 30610m | 5.3m/s | -42.1°C | 0.1% | 11.2hPa | 2.7V | 00:00:00 | 00:00:00 | 00:00:00 | |
| DB0DAN | 2026-09-04 12:24:55 | 52.79059 | 11.92644 | 53° | 18km/h | 30604m | 5.1m/s | -42.2°C | 0.1% | 11.27hPa | 2.7V | 00:00:00 | 00:00:00 | 00:00:00 | |
| DL1XH-west | 2026-09-04 12:24:55 | 52.79063 | 11.92597 | 131° | 16km/h | 30569m | 6.1m/s | -42.5°C | 0% | 11.3hPa | 2.7V | 03:23:12 | 02:17:07 | 00:00:00 | |
| AA1-15 | 2026-09-04 12:24:54 | 52.79057 | 11.92637 | 67° | 20km/h | 30598m | 6.4m/s | -42.2°C | 0% | 11.3hPa | 2.7V | 03:23:12 | 02:17:12 | 00:00:00 | |
| AP2371 | 2026-09-04 12:24:53 | 52.79057 | 11.92637 | 68° | 20km/h | 30599m | 6.4m/s | -42.2°C | 0.1% | 11.3hPa | 2.6V | 00:00:00 | 00:00:00 | 00:00:00 | |
| DO2SHX-10 | 2026-09-04 12:24:52 | 52.79056 | 11.92619 | 103° | 22km/h | 30586m | 5.9m/s | -42.3°C | 2.1% | 11.2hPa | 2.6V | 00:00:00 | 02:17:10 | 00:00:00 | |
| DB0UT-7 | 2026-09-04 12:24:51 | 52.79058 | 11.92610 | 116° | 24km/h | 30580m | 5.3m/s | -42.3°C | 2.1% | 11.2hPa | 2.6V | 00:00:00 | 00:00:00 | 00:00:00 | |
| GOEST3-10 | 2026-09-04 12:24:50 | 52.79060 | 11.92603 | 126° | 13km/h | 30575m | 4.8m/s | -42.4°C | 2.1% | 11.2hPa | 2.6V | 03:22:00 | 00:00:00 | 00:00:00 | |
| DL1XH-15 | 2026-09-04 12:24:49 | 52.79066 | 11.92589 | 83° | 7km/h | 30556m | 6.5m/s | -42.5°C | 2.1% | 11.3hPa | 2.6V | 03:22:58 | 02:17:05 | 00:00:00 | |
| DL1XH1-15 | 2026-09-04 12:24:49 | 52.79063 | 11.92581 | 54° | 16km/h | 30544m | 5.5m/s | -42.5°C | 2.1% | 11.3hPa | 2.7V | 03:23:00 | 02:17:03 | 00:00:00 | |
| DF8AY | 2026-09-04 12:24:47 | 52.79066 | 11.92589 | 83° | 7km/h | 30556m | 6.5m/s | -42.5°C | 0% | 11.3hPa | 2.6V | 03:23:12 | 02:17:05 | 00:00:00 | |
| DL1XH-west | 2026-09-04 12:24:45 | 52.79063 | 11.92581 | 55° | 16km/h | 30544m | 5.5m/s | -42.5°C | 0% | 11.3hPa | 2.7V | 03:23:12 | 02:17:03 | 00:00:00 | |
| BIOWL1-15 | 2026-09-04 12:24:43 | 52.79059 | 11.92565 | 77° | 26km/h | 30532m | 6.4m/s | -42.5°C | 0% | 11.4hPa | 2.7V | 03:24:54 | 02:17:01 | 00:00:00 | |
| DM0DOS-11 | 2026-09-04 12:24:43 | 52.79061 | 11.92528 | 107° | 31km/h | 30514m | 5m/s | -42.2°C | 2.1% | 11.4hPa | 2.7V | 03:23:05 | 02:16:58 | 00:00:00 | |
| DB0NH | 2026-09-04 12:24:43 | 52.79059 | 11.92565 | 77° | 26km/h | 30533m | 6.3m/s | -42.4°C | 2.1% | 11.3hPa | 2.6V | 03:23:00 | 02:17:01 | 00:00:00 | |
| DL1NUX | 2026-09-04 12:24:41 | 52.79066 | 11.92500 | 97° | 15km/h | 30498m | 6.2m/s | -42.3°C | 2.1% | 11.4hPa | 2.6V | 03:23:08 | 02:16:55 | 00:00:00 | |
| DB0DAN | 2026-09-04 12:24:40 | 52.79061 | 11.92528 | 107° | 31km/h | 30514m | 5m/s | -42.2°C | 0.1% | 11.39hPa | 2.7V | 00:00:00 | 00:00:00 | 00:00:00 | |
| DO2SHX-10 | 2026-09-04 12:24:40 | 52.79061 | 11.92528 | 108° | 27km/h | 30515m | 4.9m/s | -42.2°C | 2.1% | 11.3hPa | 2.7V | 00:00:00 | 02:16:58 | 00:00:00 | |
| DL1XH1-15 | 2026-09-04 12:24:39 | 52.79064 | 11.92490 | 50° | 16km/h | 30486m | 5.4m/s | -42.3°C | 2.1% | 11.4hPa | 2.7V | 03:23:10 | 02:16:53 | 00:00:00 | |
| DF8AY | 2026-09-04 12:24:37 | 52.79066 | 11.92495 | 65° | 13km/h | 30492m | 5.9m/s | -42.3°C | 0% | 11.4hPa | 2.6V | 03:23:12 | 02:16:54 | 00:00:00 | |
| DL1XH-west | 2026-09-04 12:24:35 | 52.79061 | 11.92484 | 53° | 20km/h | 30481m | 5.7m/s | -42.4°C | 0% | 11.5hPa | 2.7V | 03:23:12 | 02:16:52 | 00:00:00 | |
| AA1-15 | 2026-09-04 12:24:33 | 52.79058 | 11.92476 | 63° | 24km/h | 30475m | 6.1m/s | -42.4°C | 0% | 11.5hPa | 2.7V | 03:23:12 | 02:16:51 | 00:00:00 | |
| DM0DOS-11 | 2026-09-04 12:24:33 | 52.79055 | 11.92440 | 97° | 33km/h | 30458m | 5.4m/s | -42.4°C | 2.1% | 11.5hPa | 2.7V | 03:23:15 | 02:16:48 | 00:00:00 | |
| BIOWL1-15 | 2026-09-04 12:24:32 | 52.79056 | 11.92466 | 75° | 29km/h | 30469m | 6m/s | -42.3°C | 0% | 11.5hPa | 2.6V | 03:24:54 | 02:16:50 | 00:00:00 | |
| DJ8HS-15 | 2026-09-04 12:24:31 | 52.79055 | 11.92453 | 87° | 31km/h | 30464m | 5.6m/s | 0°C | 0% | 0hPa | 2.7V | 00:00:00 | 02:16:49 | 00:00:00 | |
| GOEST3-10 | 2026-09-04 12:24:30 | 52.79055 | 11.92440 | 98° | 27km/h | 30458m | 5.3m/s | -42.3°C | 2.1% | 11.5hPa | 2.7V | 03:23:00 | 00:00:00 | 00:00:00 | |
| DL1XH1-15 | 2026-09-04 12:24:29 | 52.79058 | 11.92387 | 64° | 24km/h | 30430m | 6.1m/s | -42.8°C | 2.1% | 11.5hPa | 2.7V | 03:23:20 | 02:16:43 | 00:00:00 | |
| HSKMA3-T | 2026-09-04 12:24:26 | 52.79060 | 11.92396 | 82° | 22km/h | 30435m | 5.3m/s | -42.7°C | 0% | 11.5hPa | 2.6V | 03:24:03 | 02:16:44 | 00:00:00 | |
| DF8AY | 2026-09-04 12:24:25 | 52.79058 | 11.92387 | 64° | 24km/h | 30430m | 6.1m/s | -42.8°C | 0% | 11.5hPa | 2.7V | 03:24:03 | 02:16:43 | 00:00:00 | |
| DB0DAN | 2026-09-04 12:24:25 | 52.79058 | 11.92387 | 64° | 24km/h | 30430m | 6.1m/s | -42.8°C | 0.1% | 11.53hPa | 2.7V | 00:00:00 | 00:00:00 | 00:00:00 | |
| DL1XH-west | 2026-09-04 12:24:23 | 52.79050 | 11.92366 | 52° | 35km/h | 30417m | 6.4m/s | -42.9°C | 0% | 11.6hPa | 2.7V | 03:24:03 | 02:16:41 | 00:00:00 | |
| AA1-15 | 2026-09-04 12:24:22 | 52.79044 | 11.92354 | 54° | 40km/h | 30411m | 5.6m/s | -42.8°C | 0% | 11.6hPa | 2.6V | 03:24:03 | 02:16:40 | 00:00:00 | |
| DO2SHX-10 | 2026-09-04 12:24:22 | 52.79044 | 11.92354 | 55° | 38km/h | 30411m | 5.6m/s | -42.7°C | 2.1% | 11.5hPa | 2.6V | 03:23:00 | 02:16:40 | 00:00:00 | |
| DL1XH-15 | 2026-09-04 12:24:21 | 52.79031 | 11.92281 | 88° | 16km/h | 30376m | 5.2m/s | -42.6°C | 2.1% | 11.6hPa | 2.6V | 03:23:29 | 02:16:34 | 00:00:00 | |
| BIOWL1-15 | 2026-09-04 12:24:20 | 52.79034 | 11.92325 | 68° | 37km/h | 30400m | 5.5m/s | -42.6°C | 0% | 11.6hPa | 2.7V | 03:24:54 | 02:16:38 | 00:00:00 | |
| GOEST3-10 | 2026-09-04 12:24:20 | 52.79034 | 11.92325 | 69° | 27km/h | 30401m | 5.5m/s | -42.5°C | 2.1% | 11.5hPa | 2.7V | 00:00:00 | 00:00:00 | 00:00:00 | |
| DL1XH1-15 | 2026-09-04 12:24:19 | 52.79030 | 11.92275 | 68° | 16km/h | 30371m | 5.5m/s | -42.6°C | 2.1% | 11.7hPa | 2.7V | 03:23:30 | 02:16:33 | 00:00:00 | |
| DF8AY | 2026-09-04 12:24:15 | 52.79030 | 11.92275 | 68° | 16km/h | 30371m | 5.5m/s | -42.6°C | 0% | 11.7hPa | 2.7V | 03:24:03 | 02:16:33 | 00:00:00 | |
| DL1XH-west | 2026-09-04 12:24:13 | 52.79023 | 11.92260 | 48° | 29km/h | 30360m | 5.4m/s | -42.8°C | 0% | 11.7hPa | 2.7V | 03:24:03 | 02:16:31 | 00:00:00 | |
| DO2SHX-10 | 2026-09-04 12:24:13 | 52.79023 | 11.92260 | 49° | 37km/h | 30361m | 5.4m/s | -42.8°C | 2.1% | 11.6hPa | 2.6V | 00:00:00 | 02:16:31 | 00:00:00 | |
| DL1NUX | 2026-09-04 12:24:12 | 52.78997 | 11.92173 | 76° | 31km/h | 30325m | 5.8m/s | -42.6°C | 2.1% | 11.7hPa | 2.6V | 03:23:38 | 02:16:25 | 00:00:00 | |
| AA1-15 | 2026-09-04 12:24:11 | 52.79012 | 11.92236 | 58° | 42km/h | 30348m | 6.3m/s | -42.8°C | 0% | 11.7hPa | 2.6V | 03:24:03 | 02:16:29 | 00:00:00 | |
| DB0DAN | 2026-09-04 12:24:10 | 52.79007 | 11.92220 | 64° | 42km/h | 30342m | 6.1m/s | -42.8°C | 0.1% | 11.7hPa | 2.7V | 00:00:00 | 00:00:00 | 00:00:00 | |
| BIOWL1-15 | 2026-09-04 12:24:10 | 52.79007 | 11.92220 | 64° | 44km/h | 30342m | 6.1m/s | -42.8°C | 0% | 11.7hPa | 2.7V | 03:24:54 | 02:16:28 | 00:00:00 | |
| DL1XH1-15 | 2026-09-04 12:24:09 | 52.78994 | 11.92154 | 71° | 16km/h | 30313m | 6m/s | -42.8°C | 2.1% | 11.7hPa | 2.7V | 03:23:40 | 02:16:23 | 00:00:00 | |
| HSKMA3-T | 2026-09-04 12:24:05 | 52.78992 | 11.92147 | 62° | 15km/h | 30307m | 5.8m/s | -42.8°C | 0% | 11.8hPa | 2.7V | 03:24:03 | 02:16:22 | 00:00:00 | |
| DL1XH-west | 2026-09-04 12:24:03 | 52.78990 | 11.92142 | 57° | 16km/h | 30302m | 5.6m/s | -42.7°C | 0% | 11.8hPa | 2.7V | 03:24:03 | 02:16:21 | 00:00:00 | |
| DM0DOS-11 | 2026-09-04 12:24:03 | 52.78984 | 11.92117 | 75° | 27km/h | 30283m | 5.5m/s | -42.8°C | 2.1% | 11.8hPa | 2.7V | 03:23:45 | 02:16:18 | 00:00:00 | |
| AA1-15 | 2026-09-04 12:24:01 | 52.78986 | 11.92127 | 70° | 24km/h | 30290m | 6.4m/s | -42.8°C | 0% | 11.8hPa | 2.6V | 03:24:03 | 02:16:19 | 00:00:00 | |
| DL1NUX | 2026-09-04 12:24:01 | 52.78980 | 11.92082 | 80° | 27km/h | 30267m | 6.2m/s | -42.9°C | 2.1% | 11.9hPa | 2.6V | 03:23:48 | 02:16:15 | 00:00:00 | |
| BIOWL1-15 | 2026-09-04 12:23:59 | 52.78977 | 11.92062 | 73° | 22km/h | 30255m | 5m/s | -43.1°C | 0% | 11.8hPa | 2.7V | 03:24:54 | 02:16:13 | 00:00:00 | |
| DD8BA-10 | 2026-09-04 12:23:59 | 52.78982 | 11.92105 | 80° | 27km/h | 30279m | 5.0m/s | -42.9°C | 2.1% | 11.8hPa | 2.7V | 00:00:00 | 00:00:00 | 00:00:00 | |
| DO2SHX-10 | 2026-09-04 12:23:58 | 52.78981 | 11.92093 | 82° | 27km/h | 30273m | 5.6m/s | -42.9°C | 2.1% | 11.8hPa | 2.7V | 03:23:00 | 02:16:16 | 00:00:00 | |
| DB0DAN | 2026-09-04 12:23:55 | 52.78977 | 11.92062 | 73° | 22km/h | 30255m | 5m/s | -43.1°C | 0.1% | 11.84hPa | 2.7V | 00:00:00 | 00:00:00 | 00:00:00 | |
| HSKMA3-T | 2026-09-04 12:23:54 | 52.78975 | 11.92053 | 72° | 24km/h | 30250m | 5.3m/s | -43.1°C | 0% | 11.9hPa | 2.7V | 03:24:03 | 02:16:12 | 00:00:00 | |
| DL1XH-west | 2026-09-04 12:23:53 | 52.78974 | 11.92043 | 75° | 27km/h | 30245m | 5.8m/s | -43.1°C | 0% | 11.9hPa | 2.7V | 03:24:03 | 02:16:11 | 00:00:00 | |
| DO2SHX-10 | 2026-09-04 12:23:52 | 52.78972 | 11.92032 | 77° | 31km/h | 30239m | 5.8m/s | -43.1°C | 2.1% | 11.9hPa | 2.6V | 00:00:00 | 02:16:10 | 00:00:00 | |
| DM0DOS-11 | 2026-09-04 12:23:51 | 52.78970 | 11.92006 | 90° | 29km/h | 30228m | 5.4m/s | -43.3°C | 2.2% | 11.9hPa | 2.7V | 03:23:55 | 02:16:08 | 00:00:00 | |
| DF8AY | 2026-09-04 12:23:50 | 52.78970 | 11.92006 | 90° | 29km/h | 30228m | 5.4m/s | -43.3°C | 0% | 11.9hPa | 2.7V | 03:24:03 | 02:16:08 | 00:00:00 | |
| BIOWL1-15 | 2026-09-04 12:23:47 | 52.78962 | 11.91935 | 84° | 37km/h | 30170m | 6.5m/s | -43.3°C | 0% | 12hPa | 2.7V | 03:24:54 | 02:15:58 | 00:00:00 | |
| HSKMA3-T | 2026-09-04 12:23:43 | 52.78968 | 11.91966 | 49° | 16km/h | 30188m | 4.8m/s | -43.2°C | 0% | 12hPa | 2.7V | 03:24:03 | 02:16:01 | 00:00:00 | |
| DM0DOS-11 | 2026-09-04 12:23:43 | 52.78962 | 11.91935 | 84° | 37km/h | 30170m | 6.5m/s | -43.3°C | 2.2% | 12hPa | 2.7V | 03:24:05 | 02:15:58 | 00:00:00 | |
| DL1XH-west | 2026-09-04 12:23:42 | 52.78965 | 11.91959 | 64° | 22km/h | 30183m | 5.3m/s | -43.3°C | 0% | 12hPa | 2.6V | 03:24:03 | 02:16:00 | 00:00:00 | |
| DO3MHA-11 | 2026-09-04 12:23:42 | 52.78965 | 11.91959 | 64° | 29km/h | 30183m | 5.3m/s | -43.2°C | 2.2% | 11.9hPa | 2.7V | 00:00:00 | 02:16:00 | 00:00:00 | |
| MECKS9 | 2026-09-04 12:23:41 | 52.78965 | 11.91959 | 65° | 22km/h | 30183m | 5.3m/s | -43.3°C | 0.2% | 12.0hPa | 2.7V | 03:24:00 | 00:00:00 | 00:00:00 | |
| DB0DAN | 2026-09-04 12:23:40 | 52.78962 | 11.91935 | 84° | 35km/h | 30170m | 6.5m/s | -43.3°C | 0.2% | 11.99hPa | 2.7V | 00:00:00 | 00:00:00 | 00:00:00 | |
| DF8AY | 2026-09-04 12:23:39 | 52.78961 | 11.91919 | 91° | 40km/h | 30165m | 5.3m/s | -43.3°C | 0% | 12.1hPa | 2.7V | 03:24:54 | 02:15:57 | 00:00:00 | |
| BIOWL1-15 | 2026-09-04 12:23:33 | 52.78936 | 11.91842 | 40° | 35km/h | 30115m | 5.8m/s | -43.6°C | 0% | 12.2hPa | 2.7V | 03:24:54 | 02:15:48 | 00:00:00 | |
| HSKMA3-T | 2026-09-04 12:23:33 | 52.78950 | 11.91855 | 20° | 29km/h | 30127m | 5.9m/s | -43.4°C | 0% | 12.1hPa | 2.6V | 03:24:54 | 02:15:50 | 00:00:00 | |
| DM0DOS-11 | 2026-09-04 12:23:31 | 52.78936 | 11.91842 | 40° | 35km/h | 30115m | 5.8m/s | -43.6°C | 2.2% | 12.1hPa | 2.7V | 03:24:15 | 02:15:48 | 00:00:00 | |
| DL1XH-west | 2026-09-04 12:23:31 | 52.78943 | 11.91849 | 29° | 33km/h | 30121m | 6.1m/s | -43.5°C | 0% | 12.1hPa | 2.6V | 03:24:54 | 02:15:49 | 00:00:00 | |
| DL1NUX | 2026-09-04 12:23:31 | 52.78922 | 11.91807 | 72° | 31km/h | 30098m | 6m/s | -43.7°C | 2.2% | 12.1hPa | 2.6V | 03:24:18 | 02:15:45 | 00:00:00 | |
| AA1-15 | 2026-09-04 12:23:29 | 52.78930 | 11.91831 | 53° | 35km/h | 30109m | 5.5m/s | -43.7°C | 0% | 12.1hPa | 2.7V | 03:24:54 | 02:15:47 | 00:00:00 | |
| DF8AY | 2026-09-04 12:23:28 | 52.78925 | 11.91819 | 62° | 35km/h | 30104m | 5.4m/s | -43.8°C | 0% | 12.1hPa | 2.7V | 03:24:54 | 02:15:46 | 00:00:00 | |
| DD8BA-10 | 2026-09-04 12:23:28 | 52.78925 | 11.91819 | 63° | 26km/h | 30104m | 5.4m/s | -43.7°C | 2.2% | 12.1hPa | 2.7V | 03:24:00 | 00:00:00 | 00:00:00 | |
| DL1XH1-15 | 2026-09-04 12:23:27 | 52.78920 | 11.91785 | 89° | 22km/h | 30086m | 6.2m/s | -43.8°C | 2.2% | 12.2hPa | 2.7V | 03:24:20 | 02:15:43 | 00:00:00 | |
| DB0DAN | 2026-09-04 12:23:25 | 52.78920 | 11.91785 | 89° | 22km/h | 30086m | 6.2m/s | -43.8°C | 0.2% | 12.16hPa | 2.7V | 00:00:00 | 00:00:00 | 00:00:00 | |
| DO2SHX-10 | 2026-09-04 12:23:25 | 52.78920 | 11.91784 | 90° | 20km/h | 30086m | 6.1m/s | -43.7°C | 2.2% | 12.1hPa | 2.7V | 00:00:00 | 02:15:43 | 00:00:00 | |
| DM0DOS-11 | 2026-09-04 12:23:23 | 52.78918 | 11.91742 | 72° | 27km/h | 30056m | 6.2m/s | -43.9°C | 2.3% | 12.2hPa | 2.7V | 03:24:25 | 02:15:38 | 00:00:00 | |
| HSKMA3-T | 2026-09-04 12:23:21 | 52.78919 | 11.91752 | 76° | 22km/h | 30063m | 6.8m/s | -43.9°C | 0% | 12.2hPa | 2.6V | 03:24:54 | 02:15:39 | 00:00:00 | |
| DL1XH-15 | 2026-09-04 12:23:21 | 52.78910 | 11.91702 | 78° | 20km/h | 30034m | 6.7m/s | -44°C | 2.3% | 12.2hPa | 2.6V | 03:24:29 | 02:15:34 | 00:00:00 | |
| DL1XH-west | 2026-09-04 12:23:20 | 52.78918 | 11.91742 | 72° | 27km/h | 30056m | 6.2m/s | -43.9°C | 0% | 12.2hPa | 2.7V | 03:24:54 | 02:15:38 | 00:00:00 | |
| AA1-15 | 2026-09-04 12:23:19 | 52.78915 | 11.91732 | 71° | 29km/h | 30051m | 4.6m/s | -44°C | 0% | 12.2hPa | 2.7V | 03:24:54 | 02:15:37 | 00:00:00 | |
| DL1NUX | 2026-09-04 12:23:19 | 52.78912 | 11.91711 | 74° | 24km/h | 30041m | 6m/s | -44.1°C | 2.2% | 12.2hPa | 2.6V | 03:24:28 | 02:15:35 | 00:00:00 | |
| DL1XH1-15 | 2026-09-04 12:23:19 | 52.78909 | 11.91687 | 84° | 18km/h | 30022m | 5.7m/s | -44.2°C | 2.3% | 12.3hPa | 2.7V | 03:24:31 | 02:15:32 | 00:00:00 | |
| DF8AY | 2026-09-04 12:23:17 | 52.78911 | 11.91711 | 75° | 24km/h | 30041m | 6.1m/s | -44.1°C | 0% | 12.3hPa | 2.6V | 03:24:54 | 02:15:35 | 00:00:00 | |
| DL1ZP-14 | 2026-09-04 12:23:16 | 52.78909 | 11.91694 | 82° | 16km/h | 30028m | 6.1m/s | -44.1°C | 0.2% | 12.3hPa | 2.7V | 00:00:00 | 00:00:00 | 00:00:00 | |
| DO2SHX-10 | 2026-09-04 12:23:15 | 52.78909 | 11.91694 | 83° | 18km/h | 30028m | 6.1m/s | -44.1°C | 2.3% | 12.2hPa | 2.7V | 00:00:00 | 02:15:33 | 00:00:00 | |
| GOEST3-10 | 2026-09-04 12:23:14 | 52.78909 | 11.91687 | 85° | 24km/h | 30022m | 5.7m/s | -44.2°C | 2.3% | 12.3hPa | 2.7V | 00:00:00 | 02:15:32 | 00:00:00 | |
| DB0NH | 2026-09-04 12:23:13 | 52.78908 | 11.91679 | 80° | 26km/h | 30016m | 6.5m/s | -44.2°C | 2.3% | 12.3hPa | 2.6V | 00:00:00 | 02:15:31 | 00:00:00 | |
| DL1NUX | 2026-09-04 12:23:12 | 52.78887 | 11.91630 | 17° | 26km/h | 29982m | 6.5m/s | -44.2°C | 2.3% | 12.4hPa | 2.6V | 03:24:38 | 02:15:25 | 00:00:00 | |
| DM0DOS-11 | 2026-09-04 12:23:12 | 52.78902 | 11.91650 | 57° | 27km/h | 29999m | 4.4m/s | -44.2°C | 2.3% | 12.3hPa | 2.7V | 03:24:35 | 02:15:28 | 00:00:00 | |
| DL1XH-15 | 2026-09-04 12:23:11 | 52.78880 | 11.91627 | 8° | 29km/h | 29976m | 5.7m/s | -44.2°C | 2.3% | 12.4hPa | 2.6V | 03:24:39 | 02:15:24 | 00:00:00 | |
| DB0DAN | 2026-09-04 12:23:10 | 52.78902 | 11.91650 | 58° | 27km/h | 29999m | 4.4m/s | -44.2°C | 0.2% | 12.32hPa | 2.7V | 00:00:00 | 00:00:00 | 00:00:00 | |
| DL1XH-west | 2026-09-04 12:23:10 | 52.78902 | 11.91650 | 58° | 27km/h | 29999m | 4.4m/s | -44.2°C | 0% | 12.3hPa | 2.7V | 03:24:54 | 02:15:28 | 00:00:00 | |
| AA1-15 | 2026-09-04 12:23:09 | 52.78887 | 11.91630 | 18° | 26km/h | 29982m | 6.5m/s | -44.2°C | 0% | 12.4hPa | 2.6V | 03:24:54 | 02:15:25 | 00:00:00 | |
| BIOWL1-15 | 2026-09-04 12:23:07 | 52.78872 | 11.91625 | 8° | 33km/h | 29971m | 4.8m/s | -44.3°C | 0% | 12.4hPa | 2.7V | 03:24:54 | 02:15:23 | 00:00:00 | |
| DF8AY | 2026-09-04 12:23:07 | 52.78821 | 11.91578 | 62° | 5km/h | 29920m | 5.2m/s | -44°C | 0% | 12.5hPa | 2.6V | 03:24:54 | 02:15:14 | 00:00:00 | |
| DF8AY-15 | 2026-09-04 12:23:06 | 52.78880 | 11.91627 | 9° | 26km/h | 29976m | 5.7m/s | -44.2°C | 2.3% | 12.3hPa | 2.6V | 00:00:00 | 02:15:24 | 00:00:00 | |
| GOEST3-10 | 2026-09-04 12:23:04 | 52.78864 | 11.91623 | 13° | 35km/h | 29966m | 6.0m/s | -44.2°C | 2.3% | 12.4hPa | 2.6V | 00:00:00 | 02:15:22 | 00:00:00 | |
| DO2SHX-10 | 2026-09-04 12:23:03 | 52.78855 | 11.91619 | 19° | 37km/h | 29960m | 6.2m/s | -44.1°C | 2.3% | 12.4hPa | 2.6V | 00:00:00 | 02:15:21 | 00:00:00 | |
| DL4BBY-15 | 2026-09-04 12:23:02 | 52.78846 | 11.91613 | 28° | 20km/h | 29954m | 4.8m/s | -43.9°C | 0% | 0hPa | 2.6V | 00:00:00 | 00:00:00 | 00:00:00 | |
| DL1XH-15 | 2026-09-04 12:23:01 | 52.78822 | 11.91578 | 61° | 5km/h | 29920m | 5.2m/s | -44°C | 2.3% | 12.5hPa | 2.6V | 03:24:49 | 02:15:14 | 00:00:00 | |
| DM0DOS-11 | 2026-09-04 12:23:01 | 52.78832 | 11.91597 | 41° | 29km/h | 29945m | 4.6m/s | -44.2°C | 2.3% | 12.4hPa | 2.7V | 03:24:45 | 02:15:18 | 00:00:00 | |
| DL1XH-west | 2026-09-04 12:22:59 | 52.78827 | 11.91589 | 44° | 22km/h | 29939m | 6.3m/s | -44.2°C | 0% | 12.4hPa | 2.7V | 03:24:54 | 02:15:17 | 00:00:00 | |
| AA1-15 | 2026-09-04 12:22:57 | 52.78822 | 11.91580 | 57° | 7km/h | 29926m | 6.2m/s | -44.1°C | 0% | 12.5hPa | 2.6V | 03:24:54 | 02:15:15 | 00:00:00 | |
| DO2SHX-10 | 2026-09-04 12:22:57 | 52.78822 | 11.91580 | 57° | 7km/h | 29926m | 6.1m/s | -44.1°C | 2.3% | 12.4hPa | 2.6V | 03:24:00 | 02:15:15 | 00:00:00 | |
| DB0DAN | 2026-09-04 12:22:55 | 52.78821 | 11.91576 | 59° | 7km/h | 29915m | 4.6m/s | -44°C | 0.2% | 12.49hPa | 2.7V | 00:00:00 | 00:00:00 | 00:00:00 | |
| BIOWL1-15 | 2026-09-04 12:22:52 | 52.78812 | 11.91561 | 37° | 27km/h | 29897m | 5.9m/s | -44°C | 0% | 12.5hPa | 2.6V | 03:24:54 | 02:15:10 | 00:00:00 | |
| SMARD9-15 | 2026-09-04 12:22:52 | 52.78812 | 11.91561 | 37° | 26km/h | 29897m | 5.9m/s | -44.0°C | 0.2% | 12.5hPa | 2.6V | 00:00:00 | 00:00:00 | 00:00:00 | |
| DO2SHX-10 | 2026-09-04 12:22:51 | 52.78806 | 11.91554 | 32° | 33km/h | 29892m | 5.5m/s | -43.9°C | 2.2% | 12.5hPa | 2.6V | 00:00:00 | 02:15:09 | 00:00:00 | |
| TFSTFS | 2026-09-04 12:22:50 | 52.78806 | 11.91554 | 33° | 31km/h | 29892m | 5.5m/s | -44.0°C | 0.2% | 12.5hPa | 2.6V | 03:24:00 | 00:00:00 | 00:00:00 | |
| DL1XH-15 | 2026-09-04 12:22:49 | 52.78773 | 11.91526 | 42° | 24km/h | 29866m | 5.8m/s | -44.1°C | 2.2% | 12.6hPa | 2.6V | 03:24:59 | 02:15:04 | 00:00:00 | |
| DL1XH-west | 2026-09-04 12:22:49 | 52.78791 | 11.91542 | 23° | 31km/h | 29880m | 5.4m/s | -44.1°C | 0% | 12.6hPa | 2.7V | 03:25:45 | 02:15:07 | 00:00:00 | |
| HSKMA3-T | 2026-09-04 12:22:48 | 52.78784 | 11.91537 | 23° | 29km/h | 29875m | 4.3m/s | -44°C | 0% | 12.6hPa | 2.7V | 03:25:45 | 02:15:06 | 00:00:00 | |
| AA1-15 | 2026-09-04 12:22:47 | 52.78778 | 11.91532 | 32° | 26km/h | 29870m | 4.3m/s | -44°C | 0% | 12.6hPa | 2.6V | 03:25:45 | 02:15:05 | 00:00:00 | |
| DF8AY | 2026-09-04 12:22:46 | 52.78773 | 11.91526 | 42° | 24km/h | 29866m | 5.8m/s | -44.1°C | 0% | 12.6hPa | 2.6V | 03:25:45 | 02:15:04 | 00:00:00 | |
| DL1ZP-14 | 2026-09-04 12:22:45 | 52.78768 | 11.91512 | 73° | 18km/h | 29853m | 5.7m/s | -44.0°C | 0.2% | 12.6hPa | 2.7V | 00:00:00 | 00:00:00 | 00:00:00 | |
| GOEST3-10 | 2026-09-04 12:22:44 | 52.78768 | 11.91512 | 74° | 9km/h | 29854m | 5.6m/s | -43.9°C | 2.2% | 12.5hPa | 2.7V | 00:00:00 | 02:15:02 | 00:00:00 | |
| DB0NH | 2026-09-04 12:22:43 | 52.78767 | 11.91505 | 83° | 13km/h | 29848m | 4.5m/s | -44.0°C | 2.3% | 12.6hPa | 2.7V | 03:25:00 | 02:15:01 | 00:00:00 | |
| DL1NUX | 2026-09-04 12:22:42 | 52.78759 | 11.91497 | 25° | 15km/h | 29814m | 6.3m/s | -44.3°C | 2.3% | 12.7hPa | 2.6V | 03:25:08 | 02:14:55 | 00:00:00 | |
| DO2SHX-10 | 2026-09-04 12:22:42 | 52.78767 | 11.91500 | 92° | 5km/h | 29843m | 5.4m/s | -44.0°C | 2.2% | 12.6hPa | 2.6V | 00:00:00 | 02:15:00 | 00:00:00 | |
| DL1XH-15 | 2026-09-04 12:22:41 | 52.78754 | 11.91493 | 34° | 22km/h | 29808m | 5.8m/s | -44.4°C | 2.4% | 12.7hPa | 2.6V | 03:25:09 | 02:14:54 | 00:00:00 | |
| BIOWL1-15 | 2026-09-04 12:22:41 | 52.78766 | 11.91498 | 65° | 4km/h | 29837m | 6.7m/s | -44°C | 0% | 12.6hPa | 2.6V | 03:26:36 | 02:14:59 | 00:00:00 | |
| DB0DAN | 2026-09-04 12:22:40 | 52.78766 | 11.91498 | 344° | 5km/h | 29830m | 5.7m/s | -44°C | 0.2% | 12.64hPa | 2.7V | 00:00:00 | 00:00:00 | 00:00:00 | |
| DL1XH-west | 2026-09-04 12:22:38 | 52.78762 | 11.91498 | 7° | 11km/h | 29820m | 5.3m/s | -44.2°C | 0% | 12.7hPa | 2.7V | 03:25:45 | 02:14:56 | 00:00:00 | |
| HSKMA3-T | 2026-09-04 12:22:38 | 52.78759 | 11.91497 | 25° | 15km/h | 29814m | 6.3m/s | -44.3°C | 0% | 12.7hPa | 2.6V | 03:25:45 | 02:14:55 | 00:00:00 | |
| AA1-15 | 2026-09-04 12:22:37 | 52.78755 | 11.91493 | 35° | 22km/h | 29808m | 5.8m/s | -44.4°C | 0% | 12.7hPa | 2.6V | 03:25:45 | 02:14:54 | 00:00:00 | |
| DF8AY | 2026-09-04 12:22:35 | 52.78744 | 11.91481 | 34° | 29km/h | 29797m | 6.2m/s | -44.5°C | 0% | 12.7hPa | 2.7V | 03:25:45 | 02:14:52 | 00:00:00 | |
| GOEST3-10 | 2026-09-04 12:22:34 | 52.78744 | 11.91480 | 34° | 24km/h | 29797m | 6.2m/s | -44.4°C | 2.4% | 12.7hPa | 2.7V | 00:00:00 | 02:14:52 | 00:00:00 | |
| DO2SHX-10 | 2026-09-04 12:22:33 | 52.78738 | 11.91474 | 32° | 24km/h | 29791m | 5.9m/s | -44.5°C | 2.4% | 12.7hPa | 2.7V | 03:25:00 | 02:14:51 | 00:00:00 | |
| DL1NUX | 2026-09-04 12:22:32 | 52.78725 | 11.91441 | 123° | 11km/h | 29759m | 4.4m/s | -44.5°C | 2.4% | 12.8hPa | 2.7V | 03:25:18 | 02:14:45 | 00:00:00 | |
| DL4BBY-15 | 2026-09-04 12:22:32 | 52.78732 | 11.91468 | 32° | 13km/h | 29786m | 4.5m/s | -44.4°C | 0% | 0hPa | 2.6V | 00:00:00 | 00:00:00 | 00:00:00 | |
| DM0DOS-11 | 2026-09-04 12:22:31 | 52.78725 | 11.91458 | 61° | 16km/h | 29776m | 5.7m/s | -44.5°C | 2.4% | 12.8hPa | 2.6V | 03:25:15 | 02:14:48 | 00:00:00 | |
| DL1XH-15 | 2026-09-04 12:22:31 | 52.78727 | 11.91438 | 141° | 7km/h | 29754m | 5.2m/s | -44.5°C | 2.4% | 12.8hPa | 2.7V | 03:25:19 | 02:14:44 | 00:00:00 | |
| BIOWL1-15 | 2026-09-04 12:22:31 | 52.78728 | 11.91463 | 41° | 20km/h | 29781m | 4.4m/s | -44.7°C | 0% | 12.7hPa | 2.6V | 03:26:36 | 02:14:49 | 00:00:00 | |
| DO2SHX-10 | 2026-09-04 12:22:30 | 52.78725 | 11.91458 | 62° | 15km/h | 29777m | 5.6m/s | -44.5°C | 2.4% | 12.7hPa | 2.6V | 00:00:00 | 02:14:48 | 00:00:00 | |
| DL1XH1-15 | 2026-09-04 12:22:29 | 52.78728 | 11.91438 | 309° | 5km/h | 29741m | 5.7m/s | -44.5°C | 2.4% | 12.8hPa | 2.6V | 03:25:21 | 02:14:42 | 00:00:00 | |
| DL1XH-west | 2026-09-04 12:22:28 | 52.78724 | 11.91446 | 107° | 15km/h | 29763m | 5.8m/s | -44.6°C | 0% | 12.8hPa | 2.7V | 03:25:45 | 02:14:46 | 00:00:00 | |
| HSKMA3-T | 2026-09-04 12:22:27 | 52.78727 | 11.91438 | 142° | 7km/h | 29754m | 5.2m/s | -44.5°C | 0% | 12.8hPa | 2.7V | 03:25:45 | 02:14:44 | 00:00:00 | |
| TFSTFS | 2026-09-04 12:22:27 | 52.78725 | 11.91441 | 124° | 11km/h | 29759m | 4.4m/s | -44.5°C | 0.2% | 12.8hPa | 2.6V | 03:25:00 | 00:00:00 | 00:00:00 | |
| DF7ER-10 | 2026-09-04 12:22:26 | 52.78725 | 11.91441 | 124° | 11km/h | 29759m | 4.4m/s | -44.5°C | 0.2% | 12.8hPa | 2.6V | 03:25:00 | 00:00:00 | 00:00:00 | |
| DB0DAN | 2026-09-04 12:22:25 | 52.78728 | 11.91437 | 189° | 2km/h | 29748m | 6.7m/s | -44.5°C | 0.2% | 12.8hPa | 2.6V | 00:00:00 | 00:00:00 | 00:00:00 | |
| AA1-15 | 2026-09-04 12:22:25 | 52.78728 | 11.91437 | 189° | 2km/h | 29748m | 6.7m/s | -44.5°C | 0% | 12.8hPa | 2.6V | 03:25:45 | 02:14:43 | 00:00:00 | |
| DF8AY | 2026-09-04 12:22:25 | 52.78728 | 11.91438 | 309° | 5km/h | 29741m | 5.7m/s | -44.5°C | 0% | 12.8hPa | 2.6V | 03:25:45 | 02:14:42 | 00:00:00 | |
| DL1NUX | 2026-09-04 12:22:22 | 52.78717 | 11.91426 | 92° | 11km/h | 29704m | 5.7m/s | -44.5°C | 2.3% | 12.9hPa | 2.7V | 03:25:28 | 02:14:35 | 00:00:00 | |
| DL1XH-15 | 2026-09-04 12:22:21 | 52.78717 | 11.91423 | 94° | 7km/h | 29698m | 6.1m/s | -44.5°C | 2.4% | 12.9hPa | 2.7V | 03:25:29 | 02:14:34 | 00:00:00 | |
| BIOWL1-15 | 2026-09-04 12:22:20 | 52.78717 | 11.91431 | 86° | 13km/h | 29709m | 4.7m/s | -44.5°C | 0% | 12.9hPa | 2.7V | 03:26:36 | 02:14:36 | 00:00:00 | |
| DO3MHA-11 | 2026-09-04 12:22:20 | 52.78719 | 11.91439 | 43° | 7km/h | 29720m | 5.6m/s | -44.4°C | 2.4% | 12.8hPa | 2.6V | 00:00:00 | 02:14:38 | 00:00:00 | |
| DL1XH1-15 | 2026-09-04 12:22:19 | 52.78717 | 11.91420 | 45° | 2km/h | 29686m | 5.1m/s | -44.4°C | 2.4% | 12.9hPa | 2.6V | 03:25:31 | 02:14:32 | 00:00:00 | |
| DL1XH-west | 2026-09-04 12:22:17 | 52.78717 | 11.91426 | 93° | 11km/h | 29704m | 5.7m/s | -44.5°C | 0% | 12.9hPa | 2.7V | 03:25:45 | 02:14:35 | 00:00:00 | |
| AA1-15 | 2026-09-04 12:22:15 | 52.78717 | 11.91421 | 92° | 4km/h | 29691m | 5.7m/s | -44.4°C | 0% | 12.9hPa | 2.6V | 03:25:45 | 02:14:33 | 00:00:00 | |
| DF8AY | 2026-09-04 12:22:14 | 52.78717 | 11.91419 | 74° | 4km/h | 29681m | 5m/s | -44.5°C | 0% | 13hPa | 2.7V | 03:25:45 | 02:14:31 | 00:00:00 | |
| GOEST3-10 | 2026-09-04 12:22:14 | 52.78717 | 11.91420 | 46° | 5km/h | 29686m | 5.0m/s | -44.4°C | 2.4% | 12.9hPa | 2.6V | 00:00:00 | 02:14:32 | 00:00:00 | |
| DB0NH | 2026-09-04 12:22:13 | 52.78717 | 11.91419 | 74° | 11km/h | 29681m | 5.0m/s | -44.4°C | 2.3% | 12.9hPa | 2.7V | 00:00:00 | 02:14:31 | 00:00:00 | |
| DO2SHX-10 | 2026-09-04 12:22:12 | 52.78717 | 11.91417 | 79° | 9km/h | 29676m | 6.6m/s | -44.4°C | 2.4% | 12.9hPa | 2.7V | 00:00:00 | 02:14:30 | 00:00:00 | |
| DL1XH-15 | 2026-09-04 12:22:11 | 52.78706 | 11.91394 | 42° | 11km/h | 29633m | 5.4m/s | -44.5°C | 2.4% | 13.1hPa | 2.7V | 03:25:40 | 02:14:23 | 00:00:00 | |
| DB0DAN | 2026-09-04 12:22:10 | 52.78716 | 11.91410 | 81° | 11km/h | 29662m | 5.7m/s | -44.4°C | 0.2% | 13hPa | 2.6V | 00:00:00 | 00:00:00 | 00:00:00 | |
| BIOWL1-15 | 2026-09-04 12:22:09 | 52.78711 | 11.91399 | 29° | 11km/h | 29643m | 5.9m/s | -44.4°C | 0% | 13hPa | 2.7V | 03:26:36 | 02:14:25 | 00:00:00 | |
| DL1XH1-15 | 2026-09-04 12:22:09 | 52.78705 | 11.91390 | 62° | 11km/h | 29627m | 6.9m/s | -44.5°C | 2.4% | 13.1hPa | 2.6V | 03:25:41 | 02:14:22 | 00:00:00 | |
| DL1XH-west | 2026-09-04 12:22:06 | 52.78709 | 11.91397 | 29° | 11km/h | 29638m | 4.6m/s | -44.4°C | 0% | 13hPa | 2.7V | 03:25:45 | 02:14:24 | 00:00:00 | |
| DM0DOS-11 | 2026-09-04 12:22:06 | 52.78706 | 11.91372 | 122° | 9km/h | 29602m | 6.7m/s | -44.5°C | 2.4% | 13.1hPa | 2.7V | 03:25:45 | 02:14:18 | 00:00:00 | |
| AA1-15 | 2026-09-04 12:22:05 | 52.78705 | 11.91390 | 63° | 11km/h | 29627m | 6.9m/s | -44.5°C | 0% | 13.1hPa | 2.6V | 03:25:45 | 02:14:22 | 00:00:00 | |
| DF8AY | 2026-09-04 12:22:02 | 52.78704 | 11.91380 | 101° | 13km/h | 29614m | 5.5m/s | -44.5°C | 0% | 13.1hPa | 2.6V | 03:25:45 | 02:14:20 | 00:00:00 | |
| DL4BBY-15 | 2026-09-04 12:22:02 | 52.78704 | 11.91380 | 101° | 11km/h | 29615m | 5.4m/s | -44.3°C | 0% | 0hPa | 2.7V | 00:00:00 | 00:00:00 | 00:00:00 | |
| SONCRA | 2026-09-04 12:22:01 | 52.78705 | 11.91375 | 110° | 11km/h | 29609m | 5.9m/s | -44.6°C | 0.2% | 13.1hPa | 2.7V | 00:00:00 | 00:00:00 | 00:00:00 | |
| DO2SHX-10 | 2026-09-04 12:22:00 | 52.78706 | 11.91372 | 123° | 5km/h | 29602m | 6.7m/s | -44.5°C | 2.4% | 13.1hPa | 2.7V | 00:00:00 | 02:14:18 | 00:00:00 | |
| DL1XH1-15 | 2026-09-04 12:21:59 | 52.78714 | 11.91362 | 116° | 11km/h | 29568m | 4.6m/s | -44.4°C | 2.3% | 13.2hPa | 2.7V | 03:25:51 | 02:14:12 | 00:00:00 | |
| GOEST3-10 | 2026-09-04 12:21:59 | 52.78707 | 11.91370 | 145° | 7km/h | 29596m | 6.1m/s | -44.5°C | 2.4% | 13.0hPa | 2.7V | 00:00:00 | 00:00:00 | 00:00:00 | |
| DD8BA-10 | 2026-09-04 12:21:58 | 52.78708 | 11.91369 | 166° | 9km/h | 29591m | 4.9m/s | -44.5°C | 2.4% | 13.1hPa | 2.7V | 00:00:00 | 00:00:00 | 00:00:00 | |
| DO2SHX-10 | 2026-09-04 12:21:57 | 52.78709 | 11.91368 | 167° | 7km/h | 29586m | 5.1m/s | -44.5°C | 2.4% | 13.1hPa | 2.7V | 03:25:00 | 02:14:15 | 00:00:00 | |
| DL1XH-15 | 2026-09-04 12:21:56 | 52.78712 | 11.91365 | 134° | 11km/h | 29573m | 6.1m/s | -44.4°C | 2.4% | 13.1hPa | 2.7V | 03:25:50 | 02:14:13 | 00:00:00 | |
| BIOWL1-15 | 2026-09-04 12:21:56 | 52.78711 | 11.91367 | 150° | 7km/h | 29579m | 6.5m/s | -44.4°C | 0% | 13.2hPa | 2.7V | 03:26:36 | 02:14:14 | 00:00:00 | |
| S3001 | 2026-09-04 12:21:56 | 52.78713 | 11.91365 | 134° | 9km/h | 29573m | 6.1m/s | -44.4°C | 0.2% | 13.2hPa | 2.7V | 00:00:00 | 00:00:00 | 00:00:00 | |
| DB0DAN | 2026-09-04 12:21:55 | 52.78713 | 11.91365 | 134° | 9km/h | 29573m | 6.1m/s | -44.4°C | 0.2% | 13.15hPa | 2.7V | 00:00:00 | 00:00:00 | 00:00:00 | |
| AA1-15 | 2026-09-04 12:21:54 | 52.78714 | 11.91361 | 116° | 11km/h | 29568m | 4.6m/s | -44.4°C | 0% | 13.2hPa | 2.7V | 03:26:36 | 02:14:12 | 00:00:00 | |
| DF8AY | 2026-09-04 12:21:52 | 52.78713 | 11.91352 | 23° | 9km/h | 29551m | 7.3m/s | -44.3°C | 0% | 13.2hPa | 2.7V | 03:26:36 | 02:14:09 | 00:00:00 | |
| DB0UT-7 | 2026-09-04 12:21:51 | 52.78713 | 11.91352 | 23° | 13km/h | 29552m | 7.3m/s | -44.3°C | 2.3% | 13.2hPa | 2.6V | 00:00:00 | 00:00:00 | 00:00:00 | |
| DL1XH-15 | 2026-09-04 12:21:50 | 52.78691 | 11.91337 | 37° | 15km/h | 29516m | 4m/s | -44.2°C | 2.3% | 13.3hPa | 2.6V | 03:26:00 | 02:14:03 | 00:00:00 | |
| SMARD9-15 | 2026-09-04 12:21:50 | 52.78707 | 11.91350 | 8° | 15km/h | 29538m | 6.1m/s | -44.3°C | 0.2% | 13.2hPa | 2.7V | 00:00:00 | 00:00:00 | 00:00:00 | |
| DL1XH1-15 | 2026-09-04 12:21:49 | 52.78689 | 11.91334 | 28° | 11km/h | 29510m | 5.8m/s | -44.1°C | 2.3% | 13.3hPa | 2.7V | 03:26:01 | 02:14:02 | 00:00:00 | |
| DL1NUX | 2026-09-04 12:21:49 | 52.78698 | 11.91345 | 29° | 20km/h | 29525m | 6.2m/s | -44.2°C | 2.3% | 13.3hPa | 2.6V | 03:25:58 | 02:14:05 | 00:00:00 | |
| DJ2DS-15 | 2026-09-04 12:21:48 | 52.78703 | 11.91349 | 18° | 18km/h | 29532m | 6.9m/s | -44.2°C | 0.2% | 13.2hPa | 2.7V | 00:00:00 | 00:00:00 | 00:00:00 | |
| BIOWL1-15 | 2026-09-04 12:21:46 | 52.78685 | 11.91335 | 305° | 7km/h | 29497m | 6.2m/s | -44.2°C | 0% | 13.3hPa | 2.7V | 03:26:36 | 02:14:00 | 00:00:00 | |
| DF8AY-15 | 2026-09-04 12:21:46 | 52.78694 | 11.91341 | 39° | 13km/h | 29520m | 4.2m/s | -44.2°C | 2.3% | 13.2hPa | 2.6V | 00:00:00 | 02:14:04 | 00:00:00 | |
| DM0DOS-11 | 2026-09-04 12:21:45 | 52.78685 | 11.91340 | 267° | 5km/h | 29485m | 5.8m/s | -44.1°C | 2.3% | 13.3hPa | 2.6V | 03:26:05 | 02:13:58 | 00:00:00 | |
| DL1XH-west | 2026-09-04 12:21:45 | 52.78691 | 11.91337 | 38° | 15km/h | 29516m | 4.1m/s | -44.2°C | 0% | 13.3hPa | 2.6V | 03:26:36 | 02:14:03 | 00:00:00 | |
| AA1-15 | 2026-09-04 12:21:43 | 52.78687 | 11.91333 | 352° | 7km/h | 29504m | 7.2m/s | -44.2°C | 0% | 13.3hPa | 2.7V | 03:26:36 | 02:14:01 | 00:00:00 | |
| DF8AY | 2026-09-04 12:21:41 | 52.78685 | 11.91337 | 280° | 7km/h | 29491m | 5.7m/s | -44.2°C | 0% | 13.3hPa | 2.6V | 03:26:36 | 02:13:59 | 00:00:00 | |
| DB0DAN | 2026-09-04 12:21:40 | 52.78685 | 11.91340 | 268° | 5km/h | 29486m | 5.8m/s | -44.1°C | 0.2% | 13.35hPa | 2.6V | 00:00:00 | 00:00:00 | 00:00:00 | |
| DL1XH1-15 | 2026-09-04 12:21:39 | 52.78677 | 11.91331 | 3° | 16km/h | 29450m | 7m/s | -44°C | 2.3% | 13.4hPa | 2.7V | 03:26:11 | 02:13:52 | 00:00:00 | |
| DO2SHX-10 | 2026-09-04 12:21:39 | 52.78685 | 11.91341 | 217° | 5km/h | 29480m | 6.9m/s | -44.0°C | 2.3% | 13.3hPa | 2.6V | 00:00:00 | 02:13:57 | 00:00:00 | |
| DD8BA-10 | 2026-09-04 12:21:38 | 52.78685 | 11.91340 | 87° | 16km/h | 29473m | 6.1m/s | -44.0°C | 2.3% | 13.3hPa | 2.6V | 00:00:00 | 00:00:00 | 00:00:00 | |
| DL1XH-15 | 2026-09-04 12:21:36 | 52.78680 | 11.91332 | 23° | 13km/h | 29457m | 6.6m/s | -44°C | 2.3% | 13.4hPa | 2.6V | 03:26:10 | 02:13:53 | 00:00:00 | |
| DL1XH-west | 2026-09-04 12:21:34 | 52.78677 | 11.91331 | 3° | 16km/h | 29450m | 7m/s | -44°C | 0% | 13.4hPa | 2.7V | 03:26:36 | 02:13:52 | 00:00:00 | |
| BIOWL1-15 | 2026-09-04 12:21:33 | 52.78672 | 11.91331 | 358° | 20km/h | 29443m | 6.2m/s | -44°C | 0% | 13.4hPa | 2.7V | 03:26:36 | 02:13:51 | 00:00:00 | |
| AA1-15 | 2026-09-04 12:21:32 | 52.78666 | 11.91331 | 359° | 22km/h | 29437m | 6m/s | -44°C | 0% | 13.4hPa | 2.7V | 03:26:36 | 02:13:50 | 00:00:00 | |
| DF8AY | 2026-09-04 12:21:31 | 52.78655 | 11.91330 | 8° | 20km/h | 29425m | 6m/s | -43.8°C | 0% | 13.5hPa | 2.6V | 03:26:36 | 02:13:48 | 00:00:00 | |
| DL1XH-15 | 2026-09-04 12:21:30 | 52.78640 | 11.91339 | 283° | 13km/h | 29396m | 5.3m/s | -43.7°C | 2.2% | 13.5hPa | 2.7V | 03:26:20 | 02:13:43 | 00:00:00 | |
| DO2SHX-10 | 2026-09-04 12:21:30 | 52.78655 | 11.91330 | 8° | 18km/h | 29425m | 5.9m/s | -43.7°C | 2.2% | 13.4hPa | 2.6V | 00:00:00 | 02:13:48 | 00:00:00 | |
| DL1XH1-15 | 2026-09-04 12:21:29 | 52.78639 | 11.91344 | 269° | 9km/h | 29390m | 5.1m/s | -43.7°C | 2.2% | 13.5hPa | 2.6V | 03:26:21 | 02:13:42 | 00:00:00 | |
| DO3MHA-11 | 2026-09-04 12:21:29 | 52.78651 | 11.91329 | 4° | 11km/h | 29420m | 4.7m/s | -43.8°C | 2.2% | 13.5hPa | 2.7V | 03:26:00 | 02:13:47 | 00:00:00 | |
| DD8BA-10 | 2026-09-04 12:21:28 | 52.78647 | 11.91329 | 350° | 9km/h | 29415m | 4.9m/s | -43.9°C | 2.2% | 13.4hPa | 2.7V | 03:26:00 | 00:00:00 | 00:00:00 | |
| DO2SHX-10 | 2026-09-04 12:21:27 | 52.78643 | 11.91331 | 331° | 13km/h | 29409m | 7.0m/s | -43.8°C | 2.2% | 13.5hPa | 2.7V | 00:00:00 | 02:13:45 | 00:00:00 | |
| SO1NDE-10 | 2026-09-04 12:21:26 | 52.78641 | 11.91335 | 307° | 9km/h | 29402m | 6.5m/s | -43.7°C | 2.2% | 13.5hPa | 2.7V | 03:26:00 | 02:13:44 | 00:00:00 | |
| DM0DOS-11 | 2026-09-04 12:21:25 | 52.78638 | 11.91341 | 57° | 11km/h | 29365m | 5.4m/s | -43.6°C | 2.2% | 13.6hPa | 2.7V | 03:26:25 | 02:13:38 | 00:00:00 | |
| DB0DAN | 2026-09-04 12:21:25 | 52.78639 | 11.91339 | 283° | 11km/h | 29396m | 5.4m/s | -43.7°C | 0.2% | 13.53hPa | 2.7V | 00:00:00 | 00:00:00 | 00:00:00 | |
| DL1XH-west | 2026-09-04 12:21:23 | 52.78639 | 11.91346 | 253° | 4km/h | 29384m | 7.1m/s | -43.7°C | 0% | 13.5hPa | 2.6V | 03:26:36 | 02:13:41 | 00:00:00 | |
| BIOWL1-15 | 2026-09-04 12:21:22 | 52.78639 | 11.91346 | 100° | 4km/h | 29377m | 6.7m/s | -43.5°C | 0% | 13.5hPa | 2.7V | 03:26:36 | 02:13:40 | 00:00:00 | |
| HSKMA3-T | 2026-09-04 12:21:21 | 52.78639 | 11.91344 | 76° | 7km/h | 29371m | 5.9m/s | -43.5°C | 0% | 13.6hPa | 2.7V | 03:26:36 | 02:13:39 | 00:00:00 | |
| DF8AY | 2026-09-04 12:21:20 | 52.78620 | 11.91337 | 5° | 11km/h | 29330m | 7.2m/s | -43.7°C | 0% | 13.7hPa | 2.7V | 03:26:36 | 02:13:32 | 00:00:00 | |
| DO3MHA-11 | 2026-09-04 12:21:19 | 52.78636 | 11.91337 | 37° | 9km/h | 29360m | 6.4m/s | -43.6°C | 2.2% | 13.6hPa | 2.6V | 00:00:00 | 02:13:37 | 00:00:00 | |
| DO2SHX-10 | 2026-09-04 12:21:18 | 52.78634 | 11.91335 | 12° | 15km/h | 29353m | 6.5m/s | -43.6°C | 2.2% | 13.6hPa | 2.6V | 00:00:00 | 02:13:36 | 00:00:00 | |
| DM0DOS-11 | 2026-09-04 12:21:15 | 52.78616 | 11.91333 | 284° | 2km/h | 29304m | 7m/s | -43.8°C | 2.2% | 13.7hPa | 2.7V | 03:26:35 | 02:13:28 | 00:00:00 | |
| DL1XH-west | 2026-09-04 12:21:12 | 52.78616 | 11.91334 | 42° | 5km/h | 29317m | 5.8m/s | -43.6°C | 0% | 13.7hPa | 2.6V | 03:26:36 | 02:13:30 | 00:00:00 | |
| AA1-15 | 2026-09-04 12:21:12 | 52.78616 | 11.91333 | 46° | 2km/h | 29311m | 5.9m/s | -43.7°C | 0% | 13.7hPa | 2.6V | 03:26:36 | 02:13:29 | 00:00:00 | |
| HSKMA3-T | 2026-09-04 12:21:11 | 52.78615 | 11.91333 | 285° | 2km/h | 29304m | 7.1m/s | -43.8°C | 0% | 13.7hPa | 2.7V | 03:26:36 | 02:13:28 | 00:00:00 | |
| DL1XH-15 | 2026-09-04 12:21:10 | 52.78616 | 11.91330 | 84° | 13km/h | 29274m | 7m/s | -43.7°C | 2.2% | 13.8hPa | 2.7V | 03:26:40 | 02:13:23 | 00:00:00 | |
| DB0DAN | 2026-09-04 12:21:10 | 52.78615 | 11.91333 | 284° | 2km/h | 29304m | 7.1m/s | -43.8°C | 0.2% | 13.71hPa | 2.7V | 00:00:00 | 00:00:00 | 00:00:00 | |
| DF8AY | 2026-09-04 12:21:07 | 52.78616 | 11.91336 | 144° | 2km/h | 29288m | 5.5m/s | -43.9°C | 0% | 13.7hPa | 2.6V | 03:27:27 | 02:13:25 | 00:00:00 | |
| DF8AY-15 | 2026-09-04 12:21:06 | 52.78616 | 11.91334 | 96° | 9km/h | 29282m | 7.1m/s | -43.7°C | 2.2% | 13.7hPa | 2.7V | 00:00:00 | 02:13:24 | 00:00:00 | |
| EDDB2-11 | 2026-09-04 12:21:05 | 52.78616 | 11.91330 | 84° | 11km/h | 29274m | 7.0m/s | -43.7°C | 0.2% | 13.8hPa | 2.7V | 00:00:00 | 00:00:00 | 00:00:00 | |
| GOEST3-10 | 2026-09-04 12:21:04 | 52.78616 | 11.91325 | 77° | 13km/h | 29268m | 5.8m/s | -43.7°C | 2.2% | 13.8hPa | 2.7V | 00:00:00 | 02:13:22 | 00:00:00 | |
| DL1NUX | 2026-09-04 12:21:03 | 52.78606 | 11.91310 | 75° | 4km/h | 29226m | 6.9m/s | -43.8°C | 2.1% | 13.9hPa | 2.7V | 03:26:48 | 02:13:15 | 00:00:00 | |
| DM0DOS-11 | 2026-09-04 12:21:03 | 52.78609 | 11.91310 | 358° | 7km/h | 29243m | 5.5m/s | -43.8°C | 2.1% | 13.8hPa | 2.6V | 03:26:45 | 02:13:18 | 00:00:00 | |
| DL1XH-west | 2026-09-04 12:21:01 | 52.78611 | 11.91311 | 31° | 9km/h | 29249m | 6.6m/s | -43.8°C | 0% | 13.8hPa | 2.6V | 03:27:27 | 02:13:19 | 00:00:00 | |
| HSKMA3-T | 2026-09-04 12:21:00 | 52.78607 | 11.91311 | 344° | 5km/h | 29238m | 4.7m/s | -43.8°C | 0% | 13.8hPa | 2.6V | 03:27:27 | 02:13:17 | 00:00:00 | |
| DO3MHA-11 | 2026-09-04 12:20:59 | 52.78607 | 11.91310 | 345° | 5km/h | 29238m | 4.7m/s | -43.7°C | 2.1% | 13.8hPa | 2.6V | 00:00:00 | 02:13:17 | 00:00:00 | |
| DL1XH1-15 | 2026-09-04 12:20:58 | 52.78607 | 11.91302 | 104° | 7km/h | 29208m | 4.9m/s | -44.1°C | 2.1% | 13.9hPa | 2.6V | 03:26:51 | 02:13:12 | 00:00:00 | |
| BIOWL1-15 | 2026-09-04 12:20:58 | 52.78606 | 11.91311 | 356° | 4km/h | 29232m | 6.2m/s | -43.8°C | 0% | 13.9hPa | 2.7V | 03:29:09 | 02:13:16 | 00:00:00 | |
| DF8AY | 2026-09-04 12:20:57 | 52.78606 | 11.91308 | 102° | 7km/h | 29219m | 6.2m/s | -43.9°C | 0% | 13.9hPa | 2.7V | 03:27:27 | 02:13:14 | 00:00:00 | |
| DL2RXE-15 | 2026-09-04 12:20:56 | 52.78606 | 11.91310 | 77° | 4km/h | 29226m | 6.9m/s | -43.8°C | 0.2% | 13.9hPa | 2.6V | 00:00:00 | 00:00:00 | 00:00:00 | |
| DB0DAN | 2026-09-04 12:20:55 | 52.78606 | 11.91305 | 106° | 7km/h | 29213m | 5.4m/s | -44°C | 0.2% | 13.91hPa | 2.6V | 00:00:00 | 00:00:00 | 00:00:00 | |
| SP3WXH-11 | 2026-09-04 12:20:53 | 52.78607 | 11.91300 | 90° | 4km/h | 29202m | 6.8m/s | -44.2°C | 0.2% | 13.9hPa | 2.7V | 00:00:00 | 00:00:00 | 00:00:00 | |
| DM0DOS-11 | 2026-09-04 12:20:51 | 52.78603 | 11.91298 | 20° | 9km/h | 29184m | 4.9m/s | -44.6°C | 2.2% | 14hPa | 2.7V | 03:26:55 | 02:13:08 | 00:00:00 | |
| DL1XH-west | 2026-09-04 12:20:51 | 52.78605 | 11.91299 | 358° | 5km/h | 29189m | 5.3m/s | -44.5°C | 0% | 13.9hPa | 2.7V | 03:27:27 | 02:13:09 | 00:00:00 | |
| AA1-15 | 2026-09-04 12:20:51 | 52.78604 | 11.91298 | 20° | 9km/h | 29185m | 4.9m/s | -44.6°C | 0% | 14hPa | 2.7V | 03:27:27 | 02:13:08 | 00:00:00 | |
| DL1XH-15 | 2026-09-04 12:20:50 | 52.78593 | 11.91277 | 62° | 11km/h | 29154m | 5.7m/s | -44.8°C | 2.3% | 14hPa | 2.7V | 03:27:00 | 02:13:03 | 00:00:00 | |
| HSKMA3-T | 2026-09-04 12:20:48 | 52.78599 | 11.91292 | 50° | 15km/h | 29172m | 7.1m/s | -44.8°C | 0% | 14hPa | 2.6V | 03:27:27 | 02:13:06 | 00:00:00 | |
| DF8AY | 2026-09-04 12:20:47 | 52.78595 | 11.91281 | 63° | 15km/h | 29160m | 5.4m/s | -44.9°C | 0% | 14hPa | 2.7V | 03:27:27 | 02:13:04 | 00:00:00 | |
| BIOWL1-15 | 2026-09-04 12:20:47 | 52.78593 | 11.91274 | 240° | 2km/h | 29141m | 6.3m/s | -44.7°C | 0% | 14.1hPa | 2.6V | 03:29:09 | 02:13:01 | 00:00:00 | |
| DL1XH-west | 2026-09-04 12:20:40 | 52.78595 | 11.91278 | 188° | 5km/h | 29123m | 7m/s | -44.9°C | 0% | 14.1hPa | 2.7V | 03:27:27 | 02:12:58 | 00:00:00 | |
| DB0DAN | 2026-09-04 12:20:40 | 52.78595 | 11.91278 | 188° | 5km/h | 29123m | 7m/s | -44.9°C | 0.2% | 14.11hPa | 2.7V | 00:00:00 | 00:00:00 | 00:00:00 | |
| AA1-15 | 2026-09-04 12:20:40 | 52.78596 | 11.91278 | 140° | 7km/h | 29116m | 6.1m/s | -44.9°C | 0% | 14.1hPa | 2.7V | 03:27:27 | 02:12:57 | 00:00:00 | |
| DL1XH1-15 | 2026-09-04 12:20:39 | 52.78605 | 11.91262 | 155° | 9km/h | 29080m | 5.7m/s | -45.4°C | 2.5% | 14.2hPa | 2.7V | 03:27:12 | 02:12:51 | 00:00:00 | |
| HSKMA3-T | 2026-09-04 12:20:37 | 52.78599 | 11.91271 | 118° | 11km/h | 29105m | 5.4m/s | -45.2°C | 0% | 14.1hPa | 2.6V | 03:27:27 | 02:12:55 | 00:00:00 | |
| DF8AY | 2026-09-04 12:20:35 | 52.78601 | 11.91265 | 137° | 7km/h | 29093m | 6.6m/s | -45.4°C | 0% | 14.2hPa | 2.6V | 03:27:27 | 02:12:53 | 00:00:00 | |
| EDDB2-11 | 2026-09-04 12:20:35 | 52.78603 | 11.91263 | 151° | 5km/h | 29086m | 6.1m/s | -45.4°C | 0.2% | 14.2hPa | 2.7V | 00:00:00 | 00:00:00 | 00:00:00 | |
| DO2SHX-10 | 2026-09-04 12:20:34 | 52.78605 | 11.91262 | 156° | 11km/h | 29080m | 5.6m/s | -45.3°C | 2.5% | 14.1hPa | 2.7V | 03:27:00 | 02:12:51 | 00:00:00 | |
| DM0DOS-11 | 2026-09-04 12:20:32 | 52.78611 | 11.91252 | 123° | 13km/h | 29061m | 5.7m/s | -45.3°C | 2.4% | 14.2hPa | 2.6V | 03:27:15 | 02:12:48 | 00:00:00 | |
| BIOWL1-15 | 2026-09-04 12:20:32 | 52.78609 | 11.91256 | 131° | 13km/h | 29067m | 7.1m/s | -45.3°C | 0% | 14.2hPa | 2.6V | 03:29:09 | 02:12:49 | 00:00:00 | |
| DL1NUX | 2026-09-04 12:20:32 | 52.78614 | 11.91244 | 188° | 4km/h | 29043m | 7.5m/s | -45.6°C | 2.4% | 14.2hPa | 2.7V | 03:27:18 | 02:12:45 | 00:00:00 | |
| DL1XH-west | 2026-09-04 12:20:30 | 52.78611 | 11.91252 | 124° | 13km/h | 29061m | 5.7m/s | -45.4°C | 0% | 14.2hPa | 2.6V | 03:27:27 | 02:12:48 | 00:00:00 | |
| AA1-15 | 2026-09-04 12:20:28 | 52.78613 | 11.91245 | 126° | 5km/h | 29050m | 5.8m/s | -45.5°C | 0% | 14.2hPa | 2.7V | 03:27:27 | 02:12:46 | 00:00:00 | |
| HSKMA3-T | 2026-09-04 12:20:26 | 52.78615 | 11.91246 | 252° | 5km/h | 29037m | 6.6m/s | -45.7°C | 0% | 14.3hPa | 2.7V | 03:27:27 | 02:12:44 | 00:00:00 | |
| DL1XH-15 | 2026-09-04 12:20:26 | 52.78615 | 11.91248 | 253° | 7km/h | 29031m | 5.3m/s | -45.8°C | 2.5% | 14.3hPa | 2.6V | 03:27:20 | 02:12:43 | 00:00:00 | |
| DD8BA-10 | 2026-09-04 12:20:26 | 52.78615 | 11.91245 | 252° | 11km/h | 29037m | 6.5m/s | -45.7°C | 2.5% | 14.2hPa | 2.7V | 00:00:00 | 00:00:00 | 00:00:00 | |
| DM0DOS-11 | 2026-09-04 12:20:25 | 52.78621 | 11.91240 | 124° | 15km/h | 29001m | 5.4m/s | -45.7°C | 2.5% | 14.4hPa | 2.7V | 03:27:25 | 02:12:38 | 00:00:00 | |
| DB0DAN | 2026-09-04 12:20:25 | 52.78615 | 11.91248 | 253° | 7km/h | 29031m | 5.3m/s | -45.8°C | 0.2% | 14.3hPa | 2.6V | 00:00:00 | 00:00:00 | 00:00:00 | |
| DF8AY | 2026-09-04 12:20:25 | 52.78616 | 11.91250 | 241° | 4km/h | 29025m | 5.4m/s | -45.7°C | 0% | 14.3hPa | 2.6V | 03:27:27 | 02:12:42 | 00:00:00 | |
| DO2SHX-10 | 2026-09-04 12:20:24 | 52.78616 | 11.91250 | 242° | 5km/h | 29026m | 5.3m/s | -45.7°C | 2.5% | 14.3hPa | 2.6V | 00:00:00 | 02:12:42 | 00:00:00 | |
| DL1NUX | 2026-09-04 12:20:22 | 52.78630 | 11.91229 | 158° | 16km/h | 28982m | 5.3m/s | -45.8°C | 2.5% | 14.4hPa | 2.7V | 03:27:28 | 02:12:35 | 00:00:00 | |
| BIOWL1-15 | 2026-09-04 12:20:21 | 52.78619 | 11.91245 | 119° | 13km/h | 29006m | 5.9m/s | -45.6°C | 0% | 14.3hPa | 2.7V | 03:29:09 | 02:12:39 | 00:00:00 | |
| DL1XH-west | 2026-09-04 12:20:19 | 52.78623 | 11.91235 | 136° | 15km/h | 28994m | 6.8m/s | -45.8°C | 0% | 14.4hPa | 2.6V | 03:27:27 | 02:12:37 | 00:00:00 | |
| AA1-15 | 2026-09-04 12:20:18 | 52.78630 | 11.91229 | 159° | 16km/h | 28982m | 5.3m/s | -45.8°C | 0% | 14.4hPa | 2.7V | 03:28:18 | 02:12:35 | 00:00:00 | |
| HSKMA3-T | 2026-09-04 12:20:16 | 52.78634 | 11.91226 | 156° | 16km/h | 28976m | 5.5m/s | -45.8°C | 0% | 14.4hPa | 2.7V | 03:28:18 | 02:12:34 | 00:00:00 | |
| DL1XH-15 | 2026-09-04 12:20:16 | 52.78638 | 11.91223 | 148° | 18km/h | 28970m | 7.1m/s | -45.8°C | 2.5% | 14.4hPa | 2.7V | 03:27:30 | 02:12:33 | 00:00:00 | |
| DF8AY | 2026-09-04 12:20:14 | 52.78644 | 11.91214 | 136° | 15km/h | 28958m | 5.5m/s | -45.7°C | 0% | 14.5hPa | 2.6V | 03:28:18 | 02:12:31 | 00:00:00 | |
| DB0NH | 2026-09-04 12:20:13 | 52.78644 | 11.91214 | 136° | 13km/h | 28958m | 5.5m/s | -45.6°C | 2.5% | 14.4hPa | 2.7V | 00:00:00 | 02:12:31 | 00:00:00 | |
| DO2SHX-10 | 2026-09-04 12:20:12 | 52.78647 | 11.91210 | 144° | 7km/h | 28952m | 5.6m/s | -45.6°C | 2.5% | 14.4hPa | 2.7V | 00:00:00 | 02:12:30 | 00:00:00 | |
| DB0DAN | 2026-09-04 12:20:10 | 52.78650 | 11.91209 | 213° | 5km/h | 28938m | 6.9m/s | -45.6°C | 0.2% | 14.51hPa | 2.7V | 00:00:00 | 00:00:00 | 00:00:00 | |
| DL1XH-west | 2026-09-04 12:20:08 | 52.78652 | 11.91212 | 219° | 4km/h | 28927m | 5.8m/s | -45.7°C | 0% | 14.5hPa | 2.7V | 03:28:18 | 02:12:26 | 00:00:00 | |
| AA1-15 | 2026-09-04 12:20:07 | 52.78653 | 11.91212 | 146° | 4km/h | 28920m | 7.1m/s | -45.7°C | 0% | 14.6hPa | 2.6V | 03:28:18 | 02:12:25 | 00:00:00 | |
| DL1XH-15 | 2026-09-04 12:20:06 | 52.78655 | 11.91208 | 133° | 9km/h | 28908m | 5.2m/s | -45.8°C | 2.4% | 14.6hPa | 2.7V | 03:27:40 | 02:12:23 | 00:00:00 | |
| HSKMA3-T | 2026-09-04 12:20:06 | 52.78654 | 11.91211 | 123° | 7km/h | 28914m | 6.2m/s | -45.8°C | 0% | 14.6hPa | 2.6V | 03:28:18 | 02:12:24 | 00:00:00 | |
| DF8AY | 2026-09-04 12:20:02 | 52.78663 | 11.91201 | 164° | 15km/h | 28889m | 5.6m/s | -45.9°C | 0% | 14.6hPa | 2.7V | 03:28:18 | 02:12:20 | 00:00:00 | |
| DM0DOS-11 | 2026-09-04 12:20:01 | 52.78671 | 11.91196 | 150° | 15km/h | 28877m | 6.6m/s | -46°C | 2.4% | 14.6hPa | 2.6V | 03:27:45 | 02:12:18 | 00:00:00 | |
| DL1XH-west | 2026-09-04 12:19:58 | 52.78676 | 11.91189 | 132° | 13km/h | 28864m | 5.7m/s | -46.2°C | 0% | 14.7hPa | 2.7V | 03:28:18 | 02:12:16 | 00:00:00 | |
| BIOWL1-15 | 2026-09-04 12:19:58 | 52.78684 | 11.91187 | 214° | 11km/h | 28839m | 5.1m/s | -46.1°C | 0% | 14.7hPa | 2.6V | 03:29:09 | 02:12:12 | 00:00:00 | |
| DO3MHA-11 | 2026-09-04 12:19:58 | 52.78676 | 11.91189 | 133° | 9km/h | 28865m | 5.6m/s | -46.2°C | 2.5% | 14.6hPa | 2.6V | 00:00:00 | 02:12:16 | 00:00:00 | |
| DL1XH1-15 | 2026-09-04 12:19:57 | 52.78683 | 11.91187 | 214° | 11km/h | 28839m | 5.1m/s | -46.1°C | 2.5% | 14.7hPa | 2.6V | 03:27:51 | 02:12:12 | 00:00:00 | |
| AA1-15 | 2026-09-04 12:19:56 | 52.78680 | 11.91184 | 172° | 7km/h | 28852m | 7.1m/s | -46.3°C | 0% | 14.7hPa | 2.7V | 03:28:18 | 02:12:14 | 00:00:00 | |
| DL1XH-15 | 2026-09-04 12:19:56 | 52.78682 | 11.91185 | 201° | 9km/h | 28845m | 6.3m/s | -46.2°C | 2.5% | 14.7hPa | 2.6V | 03:27:50 | 02:12:13 | 00:00:00 | |
| HSKMA3-T | 2026-09-04 12:19:55 | 52.78681 | 11.91185 | 202° | 9km/h | 28845m | 6.3m/s | -46.2°C | 0% | 14.7hPa | 2.6V | 03:28:18 | 02:12:13 | 00:00:00 | |
| DB0DAN | 2026-09-04 12:19:55 | 52.78681 | 11.91185 | 202° | 9km/h | 28845m | 6.3m/s | -46.2°C | 0.2% | 14.71hPa | 2.6V | 00:00:00 | 00:00:00 | 00:00:00 | |
| EDDB2-12 | 2026-09-04 12:19:53 | 52.78686 | 11.91189 | 207° | 9km/h | 28834m | 4.9m/s | -46.1°C | 0.2% | 14.8hPa | 2.6V | 00:00:00 | 00:00:00 | 00:00:00 | |
| DL1NUX | 2026-09-04 12:19:52 | 52.78704 | 11.91168 | 149° | 26km/h | 28797m | 6.9m/s | -46.2°C | 2.5% | 14.9hPa | 2.6V | 03:27:58 | 02:12:05 | 00:00:00 | |
| DF8AY | 2026-09-04 12:19:51 | 52.78690 | 11.91189 | 145° | 9km/h | 28822m | 7.3m/s | -46.2°C | 0% | 14.8hPa | 2.7V | 03:28:18 | 02:12:09 | 00:00:00 | |
| DL1XH-west | 2026-09-04 12:19:48 | 52.78699 | 11.91173 | 140° | 22km/h | 28804m | 6.4m/s | -46.2°C | 0% | 14.8hPa | 2.6V | 03:28:18 | 02:12:06 | 00:00:00 | |
| DO2SHX-10 | 2026-09-04 12:19:48 | 52.78699 | 11.91173 | 140° | 24km/h | 28804m | 6.4m/s | -46.2°C | 2.5% | 14.8hPa | 2.6V | 00:00:00 | 02:12:06 | 00:00:00 | |
| DL1XH1-15 | 2026-09-04 12:19:47 | 52.78721 | 11.91155 | 154° | 22km/h | 28779m | 6.9m/s | -46.3°C | 2.6% | 14.9hPa | 2.7V | 03:28:01 | 02:12:02 | 00:00:00 | |
| AA1-15 | 2026-09-04 12:19:47 | 52.78710 | 11.91163 | 156° | 26km/h | 28791m | 5.7m/s | -46.2°C | 0% | 14.9hPa | 2.7V | 03:28:18 | 02:12:04 | 00:00:00 | |
| DL1XH-15 | 2026-09-04 12:19:46 | 52.78716 | 11.91159 | 157° | 24km/h | 28785m | 5.4m/s | -46.2°C | 2.5% | 14.9hPa | 2.7V | 03:28:00 | 02:12:03 | 00:00:00 | |
| HTAHTA | 2026-09-04 12:19:46 | 52.78710 | 11.91163 | 156° | 26km/h | 28791m | 5.7m/s | -46.2°C | 0.2% | 14.9hPa | 2.6V | 00:00:00 | 00:00:00 | 00:00:00 | |
| BIOWL1-15 | 2026-09-04 12:19:45 | 52.78732 | 11.91143 | 145° | 15km/h | 28761m | 5m/s | -46.2°C | 0% | 14.9hPa | 2.6V | 03:29:09 | 02:11:59 | 00:00:00 | |
| HSKMA3-T | 2026-09-04 12:19:45 | 52.78715 | 11.91159 | 158° | 24km/h | 28785m | 5.4m/s | -46.2°C | 0% | 14.9hPa | 2.7V | 03:28:18 | 02:12:03 | 00:00:00 | |
| DO2SHX-10 | 2026-09-04 12:19:45 | 52.78715 | 11.91159 | 158° | 22km/h | 28786m | 5.4m/s | -46.2°C | 2.5% | 14.8hPa | 2.7V | 03:28:00 | 02:12:03 | 00:00:00 | |
| GOEST3-10 | 2026-09-04 12:19:44 | 52.78721 | 11.91155 | 155° | 16km/h | 28780m | 6.8m/s | -46.2°C | 2.6% | 14.8hPa | 2.7V | 00:00:00 | 02:12:02 | 00:00:00 | |
| DB0NH | 2026-09-04 12:19:43 | 52.78725 | 11.91151 | 147° | 18km/h | 28773m | 7.0m/s | -46.3°C | 2.6% | 14.8hPa | 2.7V | 00:00:00 | 02:12:01 | 00:00:00 | |
| DL1NUX | 2026-09-04 12:19:42 | 52.78744 | 11.91134 | 141° | 15km/h | 28737m | 5.1m/s | -46.4°C | 2.6% | 14.9hPa | 2.7V | 03:28:08 | 02:11:55 | 00:00:00 | |
| DF8AY | 2026-09-04 12:19:40 | 52.78735 | 11.91140 | 155° | 13km/h | 28755m | 7.3m/s | -46.2°C | 0% | 14.9hPa | 2.6V | 03:28:18 | 02:11:58 | 00:00:00 | |
| DB0DAN | 2026-09-04 12:19:40 | 52.78735 | 11.91140 | 155° | 11km/h | 28755m | 7.3m/s | -46.2°C | 0.3% | 14.92hPa | 2.6V | 00:00:00 | 00:00:00 | 00:00:00 | |
| DL1XH1-15 | 2026-09-04 12:19:39 | 52.78752 | 11.91112 | 114° | 26km/h | 28718m | 5.4m/s | -46.2°C | 2.6% | 15hPa | 2.7V | 03:28:11 | 02:11:52 | 00:00:00 | |
| DL1XH-west | 2026-09-04 12:19:38 | 52.78747 | 11.91129 | 125° | 18km/h | 28731m | 7m/s | -46.4°C | 0% | 15hPa | 2.6V | 03:28:18 | 02:11:54 | 00:00:00 | |
| DL1XH-15 | 2026-09-04 12:19:36 | 52.78749 | 11.91121 | 115° | 24km/h | 28724m | 6.8m/s | -46.4°C | 2.6% | 15hPa | 2.6V | 03:28:10 | 02:11:53 | 00:00:00 | |
| AA1-15 | 2026-09-04 12:19:35 | 52.78749 | 11.91121 | 116° | 24km/h | 28725m | 6.8m/s | -46.4°C | 0% | 15hPa | 2.6V | 03:28:18 | 02:11:53 | 00:00:00 | |
| HSKMA3-T | 2026-09-04 12:19:35 | 52.78752 | 11.91112 | 114° | 26km/h | 28718m | 5.4m/s | -46.2°C | 0% | 15hPa | 2.7V | 03:28:18 | 02:11:52 | 00:00:00 | |
| BIOWL1-15 | 2026-09-04 12:19:33 | 52.78755 | 11.91102 | 119° | 26km/h | 28713m | 5.5m/s | -46.1°C | 0% | 15hPa | 2.7V | 03:29:09 | 02:11:51 | 00:00:00 | |
| DO2SHX-10 | 2026-09-04 12:19:33 | 52.78755 | 11.91102 | 119° | 24km/h | 28713m | 5.4m/s | -46.1°C | 2.6% | 14.9hPa | 2.7V | 03:28:00 | 02:11:51 | 00:00:00 | |
| DL1NUX | 2026-09-04 12:19:32 | 52.78785 | 11.91079 | 165° | 22km/h | 28678m | 6.3m/s | -46°C | 2.5% | 15.1hPa | 2.7V | 03:28:18 | 02:11:45 | 00:00:00 | |
| DF8AY | 2026-09-04 12:19:31 | 52.78768 | 11.91083 | 164° | 24km/h | 28694m | 5.7m/s | -46.1°C | 0% | 15.1hPa | 2.6V | 03:28:18 | 02:11:48 | 00:00:00 | |
| DO2SHX-10 | 2026-09-04 12:19:30 | 52.78768 | 11.91083 | 164° | 24km/h | 28694m | 5.7m/s | -46.0°C | 2.6% | 15.0hPa | 2.6V | 00:00:00 | 02:11:48 | 00:00:00 | |
| DO3MHA-11 | 2026-09-04 12:19:29 | 52.78780 | 11.91080 | 175° | 16km/h | 28684m | 5.4m/s | -46.0°C | 2.5% | 15.0hPa | 2.6V | 03:28:00 | 02:11:46 | 00:00:00 | |
| DL1XH1-15 | 2026-09-04 12:19:27 | 52.78796 | 11.91067 | 127° | 16km/h | 28659m | 5.3m/s | -46.1°C | 2.5% | 15.2hPa | 2.6V | 03:28:21 | 02:11:42 | 00:00:00 | |
| DL1XH-west | 2026-09-04 12:19:26 | 52.78790 | 11.91076 | 153° | 18km/h | 28671m | 6.7m/s | -46.1°C | 0% | 15.1hPa | 2.7V | 03:29:09 | 02:11:44 | 00:00:00 | |
| AA1-15 | 2026-09-04 12:19:25 | 52.78797 | 11.91067 | 128° | 16km/h | 28659m | 5.3m/s | -46.1°C | 0% | 15.2hPa | 2.6V | 03:29:09 | 02:11:42 | 00:00:00 | |
| DB0DAN | 2026-09-04 12:19:25 | 52.78794 | 11.91072 | 137° | 16km/h | 28665m | 5.9m/s | -46.1°C | 0.2% | 15.13hPa | 2.7V | 00:00:00 | 00:00:00 | 00:00:00 | |
| HSKMA3-T | 2026-09-04 12:19:23 | 52.78799 | 11.91061 | 127° | 15km/h | 28653m | 6.7m/s | -46.2°C | 0% | 15.2hPa | 2.6V | 03:29:09 | 02:11:41 | 00:00:00 | |
| DM0DOS-11 | 2026-09-04 12:19:22 | 52.78804 | 11.91048 | 114° | 13km/h | 28636m | 5.3m/s | -46°C | 2.5% | 15.2hPa | 2.7V | 03:28:25 | 02:11:38 | 00:00:00 | |
| DF8AY | 2026-09-04 12:19:20 | 52.78805 | 11.91048 | 114° | 13km/h | 28636m | 5.3m/s | -46.1°C | 0% | 15.2hPa | 2.7V | 03:29:09 | 02:11:38 | 00:00:00 | |
| SP3WXH-11 | 2026-09-04 12:19:20 | 52.78805 | 11.91048 | 114° | 13km/h | 28636m | 5.3m/s | -46.1°C | 0.2% | 15.2hPa | 2.7V | 00:00:00 | 00:00:00 | 00:00:00 | |
| GOEST3-10 | 2026-09-04 12:19:19 | 52.78806 | 11.91042 | 109° | 15km/h | 28630m | 7.0m/s | -46.0°C | 2.5% | 15.2hPa | 2.7V | 00:00:00 | 00:00:00 | 00:00:00 | |
| DO2SHX-10 | 2026-09-04 12:19:18 | 52.78807 | 11.91036 | 107° | 15km/h | 28623m | 6.3m/s | -46.1°C | 2.5% | 15.2hPa | 2.7V | 00:00:00 | 02:11:36 | 00:00:00 | |
| DL1XH-15 | 2026-09-04 12:19:17 | 52.78813 | 11.91023 | 160° | 15km/h | 28605m | 7m/s | -46.3°C | 2.5% | 15.3hPa | 2.7V | 03:28:30 | 02:11:33 | 00:00:00 | |
| DL1XH-west | 2026-09-04 12:19:16 | 52.78810 | 11.91026 | 138° | 13km/h | 28611m | 5.6m/s | -46.3°C | 0% | 15.3hPa | 2.6V | 03:29:09 | 02:11:34 | 00:00:00 | |
| AA1-15 | 2026-09-04 12:19:14 | 52.78817 | 11.91022 | 179° | 16km/h | 28598m | 5.9m/s | -46.3°C | 0% | 15.3hPa | 2.7V | 03:29:09 | 02:11:32 | 00:00:00 | |
| HSKMA3-T | 2026-09-04 12:19:13 | 52.78821 | 11.91022 | 182° | 18km/h | 28593m | 5.1m/s | -46.3°C | 0% | 15.3hPa | 2.7V | 03:29:09 | 02:11:31 | 00:00:00 | |
| DB0NH | 2026-09-04 12:19:13 | 52.78821 | 11.91022 | 183° | 13km/h | 28593m | 5.1m/s | -46.2°C | 2.5% | 15.2hPa | 2.6V | 00:00:00 | 02:11:31 | 00:00:00 | |
| DM0DOS-11 | 2026-09-04 12:19:12 | 52.78833 | 11.91016 | 129° | 16km/h | 28575m | 6.7m/s | -46.3°C | 2.5% | 15.3hPa | 2.6V | 03:28:35 | 02:11:28 | 00:00:00 | |
| DF8AY | 2026-09-04 12:19:10 | 52.78835 | 11.91010 | 109° | 16km/h | 28570m | 5.7m/s | -46.4°C | 0% | 15.4hPa | 2.6V | 03:29:09 | 02:11:27 | 00:00:00 | |
| DB0DAN | 2026-09-04 12:19:10 | 52.78833 | 11.91016 | 130° | 15km/h | 28576m | 6.7m/s | -46.3°C | 0.3% | 15.36hPa | 2.6V | 00:00:00 | 00:00:00 | 00:00:00 | |
| BIOWL1-15 | 2026-09-04 12:19:10 | 52.78838 | 11.90971 | 122° | 11km/h | 28522m | 5.4m/s | -46.4°C | 0% | 15.4hPa | 2.7V | 03:29:09 | 02:11:19 | 00:00:00 | |
| DO2SHX-10 | 2026-09-04 12:19:09 | 52.78834 | 11.91010 | 110° | 16km/h | 28570m | 5.6m/s | -46.3°C | 2.5% | 15.3hPa | 2.6V | 03:28:00 | 02:11:27 | 00:00:00 | |
| DO3MHA-11 | 2026-09-04 12:19:08 | 52.78836 | 11.91003 | 100° | 11km/h | 28564m | 5.7m/s | -46.4°C | 2.5% | 15.3hPa | 2.6V | 00:00:00 | 02:11:26 | 00:00:00 | |
| DL1XH1-15 | 2026-09-04 12:19:07 | 52.78836 | 11.90984 | 95° | 9km/h | 28540m | 5.1m/s | -46.4°C | 2.4% | 15.4hPa | 2.6V | 03:28:41 | 02:11:22 | 00:00:00 | |
| DL1XH-15 | 2026-09-04 12:19:06 | 52.78836 | 11.90988 | 90° | 9km/h | 28545m | 5.2m/s | -46.3°C | 2.5% | 15.4hPa | 2.6V | 03:28:40 | 02:11:23 | 00:00:00 | |
| DL1XH-west | 2026-09-04 12:19:06 | 52.78836 | 11.90992 | 91° | 11km/h | 28552m | 6.1m/s | -46.3°C | 0% | 15.4hPa | 2.7V | 03:29:09 | 02:11:24 | 00:00:00 | |
| AA1-15 | 2026-09-04 12:19:04 | 52.78837 | 11.90980 | 98° | 11km/h | 28534m | 7m/s | -46.5°C | 0% | 15.4hPa | 2.7V | 03:29:09 | 02:11:21 | 00:00:00 | |
| HSKMA3-T | 2026-09-04 12:19:03 | 52.78837 | 11.90975 | 101° | 11km/h | 28528m | 6.2m/s | -46.5°C | 0% | 15.5hPa | 2.7V | 03:29:09 | 02:11:20 | 00:00:00 | |
| DO2SHX-10 | 2026-09-04 12:19:03 | 52.78837 | 11.90980 | 98° | 11km/h | 28534m | 7.0m/s | -46.5°C | 2.5% | 15.4hPa | 2.7V | 00:00:00 | 02:11:21 | 00:00:00 | |
| DL1NUX | 2026-09-04 12:19:02 | 52.78850 | 11.90967 | 177° | 15km/h | 28498m | 4.2m/s | -46.6°C | 2.5% | 15.5hPa | 2.6V | 03:28:48 | 02:11:15 | 00:00:00 | |
| DF8AY | 2026-09-04 12:18:58 | 52.78847 | 11.90967 | 184° | 16km/h | 28503m | 5.5m/s | -46.5°C | 0% | 15.6hPa | 2.6V | 03:29:09 | 02:11:16 | 00:00:00 | |
| BIOWL1-15 | 2026-09-04 12:18:58 | 52.78854 | 11.90966 | 157° | 13km/h | 28493m | 5.6m/s | -46.7°C | 0% | 15.5hPa | 2.7V | 03:29:09 | 02:11:14 | 00:00:00 | |
| DL1XH1-15 | 2026-09-04 12:18:57 | 52.78857 | 11.90958 | 100° | 15km/h | 28481m | 5.8m/s | -46.6°C | 2.6% | 15.6hPa | 2.7V | 03:28:51 | 02:11:12 | 00:00:00 | |
| DO2SHX-10 | 2026-09-04 12:18:57 | 52.78850 | 11.90967 | 178° | 13km/h | 28498m | 4.2m/s | -46.6°C | 2.5% | 15.5hPa | 2.6V | 03:28:00 | 02:11:15 | 00:00:00 | |
| SO1NDE-10 | 2026-09-04 12:18:56 | 52.78853 | 11.90966 | 158° | 13km/h | 28494m | 5.5m/s | -46.6°C | 2.5% | 15.5hPa | 2.6V | 00:00:00 | 02:11:14 | 00:00:00 | |
| DM0DOS-11 | 2026-09-04 12:18:55 | 52.78855 | 11.90937 | 53° | 5km/h | 28458m | 5.7m/s | -46.9°C | 2.6% | 15.6hPa | 2.6V | 03:28:55 | 02:11:08 | 00:00:00 | |
| DB0DAN | 2026-09-04 12:18:55 | 52.78856 | 11.90963 | 130° | 11km/h | 28487m | 7m/s | -46.6°C | 0.2% | 15.58hPa | 2.7V | 00:00:00 | 00:00:00 | 00:00:00 | |
| DL1XH-west | 2026-09-04 12:18:55 | 52.78856 | 11.90963 | 130° | 13km/h | 28487m | 7m/s | -46.6°C | 0% | 15.6hPa | 2.7V | 03:29:09 | 02:11:13 | 00:00:00 | |
| AA1-15 | 2026-09-04 12:18:53 | 52.78857 | 11.90951 | 85° | 16km/h | 28475m | 5m/s | -46.6°C | 0% | 15.6hPa | 2.7V | 03:29:09 | 02:11:11 | 00:00:00 | |
| HSKMA3-T | 2026-09-04 12:18:51 | 52.78856 | 11.90940 | 66° | 11km/h | 28464m | 6.4m/s | -46.8°C | 0% | 15.6hPa | 2.6V | 03:29:09 | 02:11:09 | 00:00:00 | |
| DF8AY | 2026-09-04 12:18:48 | 52.78855 | 11.90934 | 146° | 9km/h | 28436m | 6.4m/s | -46.8°C | 0% | 15.7hPa | 2.6V | 03:29:09 | 02:11:04 | 00:00:00 | |
| BIOWL1-15 | 2026-09-04 12:18:47 | 52.78880 | 11.90922 | 168° | 9km/h | 28397m | 4.9m/s | -46.8°C | 0% | 15.8hPa | 2.6V | 03:29:09 | 02:10:57 | 00:00:00 | |
| DL1XH1-15 | 2026-09-04 12:18:47 | 52.78861 | 11.90928 | 148° | 16km/h | 28424m | 5m/s | -46.7°C | 2.6% | 15.7hPa | 2.7V | 03:29:01 | 02:11:02 | 00:00:00 | |
| DL1XH-15 | 2026-09-04 12:18:46 | 52.78857 | 11.90932 | 143° | 13km/h | 28430m | 6.1m/s | -46.7°C | 2.7% | 15.7hPa | 2.6V | 03:29:00 | 02:11:03 | 00:00:00 | |
| DL1XH-west | 2026-09-04 12:18:44 | 52.78861 | 11.90928 | 149° | 16km/h | 28424m | 5m/s | -46.7°C | 0% | 15.7hPa | 2.7V | 03:29:09 | 02:11:02 | 00:00:00 | |
| AA1-15 | 2026-09-04 12:18:43 | 52.78869 | 11.90923 | 168° | 18km/h | 28413m | 6.6m/s | -46.8°C | 0% | 15.7hPa | 2.7V | 03:29:09 | 02:11:00 | 00:00:00 | |
| DM0DOS-11 | 2026-09-04 12:18:42 | 52.78877 | 11.90922 | 182° | 13km/h | 28402m | 4.7m/s | -46.8°C | 2.6% | 15.8hPa | 2.6V | 03:29:05 | 02:10:58 | 00:00:00 | |
| HSKMA3-T | 2026-09-04 12:18:40 | 52.78877 | 11.90922 | 183° | 13km/h | 28402m | 4.7m/s | -46.8°C | 0% | 15.8hPa | 2.6V | 03:29:09 | 02:10:58 | 00:00:00 | |
| DL1XH-15 | 2026-09-04 12:18:40 | 52.78881 | 11.90904 | 81° | 16km/h | 28374m | 4.6m/s | -47°C | 2.7% | 15.8hPa | 2.7V | 03:29:10 | 02:10:53 | 00:00:00 | |
| DB0DAN | 2026-09-04 12:18:40 | 52.78877 | 11.90922 | 183° | 13km/h | 28402m | 4.7m/s | -46.8°C | 0.3% | 15.78hPa | 2.6V | 00:00:00 | 00:00:00 | 00:00:00 | |
| DF8AY | 2026-09-04 12:18:37 | 52.78882 | 11.90917 | 96° | 11km/h | 28385m | 6.5m/s | -46.9°C | 0% | 15.8hPa | 2.7V | 03:29:09 | 02:10:55 | 00:00:00 | |
| TFSTFS | 2026-09-04 12:18:37 | 52.78881 | 11.90920 | 133° | 7km/h | 28392m | 6.4m/s | -46.8°C | 0.3% | 15.8hPa | 2.7V | 03:29:00 | 00:00:00 | 00:00:00 | |
| DO2SHX-10 | 2026-09-04 12:18:36 | 52.78882 | 11.90911 | 87° | 16km/h | 28379m | 5.0m/s | -46.9°C | 2.6% | 15.8hPa | 2.7V | 00:00:00 | 02:10:54 | 00:00:00 | |
| DM0DOS-11 | 2026-09-04 12:18:35 | 52.78886 | 11.90884 | 156° | 15km/h | 28347m | 5.3m/s | -47.1°C | 2.6% | 15.9hPa | 2.7V | 03:29:15 | 02:10:48 | 00:00:00 | |
| DL1XH-west | 2026-09-04 12:18:33 | 52.78881 | 11.90889 | 125° | 7km/h | 28357m | 5.5m/s | -47°C | 0% | 15.9hPa | 2.6V | 03:30:00 | 02:10:50 | 00:00:00 | |
| AA1-15 | 2026-09-04 12:18:32 | 52.78883 | 11.90887 | 152° | 11km/h | 28352m | 4.9m/s | -47°C | 0% | 15.9hPa | 2.6V | 03:30:00 | 02:10:49 | 00:00:00 | |
| HSKMA3-T | 2026-09-04 12:18:30 | 52.78886 | 11.90884 | 157° | 15km/h | 28347m | 5.3m/s | -47.1°C | 0% | 15.9hPa | 2.7V | 03:30:00 | 02:10:48 | 00:00:00 | |
| DF8AY | 2026-09-04 12:18:27 | 52.78899 | 11.90874 | 154° | 20km/h | 28329m | 4.9m/s | -47.1°C | 0% | 15.9hPa | 2.7V | 03:30:00 | 02:10:45 | 00:00:00 | |
| DO2SHX-10 | 2026-09-04 12:18:27 | 52.78899 | 11.90874 | 154° | 16km/h | 28329m | 4.8m/s | -47.1°C | 2.7% | 15.9hPa | 2.7V | 00:00:00 | 02:10:45 | 00:00:00 | |
| DB0DAN | 2026-09-04 12:18:25 | 52.78907 | 11.90869 | 168° | 11km/h | 28318m | 6.3m/s | -47.1°C | 0.3% | 15.96hPa | 2.6V | 00:00:00 | 00:00:00 | 00:00:00 | |
| SONCRA | 2026-09-04 12:18:24 | 52.78910 | 11.90868 | 1° | 2km/h | 28306m | 5.6m/s | -47.1°C | 0.3% | 16.0hPa | 2.6V | 00:00:00 | 00:00:00 | 00:00:00 | |
| DM0DOS-11 | 2026-09-04 12:18:23 | 52.78903 | 11.90863 | 24° | 15km/h | 28288m | 4.4m/s | -47.1°C | 2.6% | 16hPa | 2.6V | 03:29:25 | 02:10:38 | 00:00:00 | |
| DL1NUX | 2026-09-04 12:18:22 | 52.78894 | 11.90860 | 344° | 5km/h | 28272m | 5.4m/s | -47.4°C | 2.6% | 16.1hPa | 2.7V | 03:29:28 | 02:10:35 | 00:00:00 | |
| AA1-15 | 2026-09-04 12:18:22 | 52.78906 | 11.90866 | 26° | 13km/h | 28294m | 6.3m/s | -47.1°C | 0% | 16hPa | 2.7V | 03:30:00 | 02:10:39 | 00:00:00 | |
| BIOWL1-15 | 2026-09-04 12:18:20 | 52.78896 | 11.90860 | 7° | 11km/h | 28278m | 6.6m/s | -47.3°C | 0% | 16.1hPa | 2.7V | 03:30:00 | 02:10:36 | 00:00:00 | |
| HSKMA3-T | 2026-09-04 12:18:20 | 52.78903 | 11.90863 | 24° | 15km/h | 28288m | 4.4m/s | -47.1°C | 0% | 16hPa | 2.6V | 03:30:00 | 02:10:38 | 00:00:00 | |
| DF8AY | 2026-09-04 12:18:16 | 52.78894 | 11.90861 | 241° | 2km/h | 28267m | 4.8m/s | -47.4°C | 0% | 16.1hPa | 2.7V | 03:30:00 | 02:10:34 | 00:00:00 | |
| DD8BA-10 | 2026-09-04 12:18:16 | 52.78893 | 11.90860 | 241° | 11km/h | 28267m | 4.8m/s | -47.3°C | 2.7% | 16.1hPa | 2.7V | 00:00:00 | 00:00:00 | 00:00:00 | |
| DO2SHX-10 | 2026-09-04 12:18:15 | 52.78894 | 11.90860 | 171° | 13km/h | 28262m | 5.6m/s | -47.2°C | 2.6% | 16.1hPa | 2.6V | 00:00:00 | 02:10:33 | 00:00:00 | |
| GOEST3-10 | 2026-09-04 12:18:14 | 52.78897 | 11.90859 | 156° | 15km/h | 28256m | 7.1m/s | -47.2°C | 2.7% | 16.1hPa | 2.6V | 00:00:00 | 02:10:32 | 00:00:00 | |
| HTAHTA | 2026-09-04 12:18:13 | 52.78904 | 11.90853 | 149° | 18km/h | 28244m | 4.2m/s | -47.3°C | 0.3% | 16.1hPa | 2.6V | 00:00:00 | 00:00:00 | 00:00:00 | |
| DL1NUX | 2026-09-04 12:18:12 | 52.78914 | 11.90851 | 312° | 7km/h | 28218m | 4.8m/s | -47.6°C | 2.7% | 16.2hPa | 2.6V | 03:29:38 | 02:10:25 | 00:00:00 | |
| DL1XH-west | 2026-09-04 12:18:11 | 52.78908 | 11.90849 | 154° | 16km/h | 28240m | 4.2m/s | -47.4°C | 0% | 16.1hPa | 2.7V | 03:30:00 | 02:10:29 | 00:00:00 | |
| AA1-15 | 2026-09-04 12:18:11 | 52.78911 | 11.90847 | 165° | 13km/h | 28235m | 6.2m/s | -47.4°C | 0% | 16.2hPa | 2.7V | 03:30:00 | 02:10:28 | 00:00:00 | |
| DB0DAN | 2026-09-04 12:18:10 | 52.78911 | 11.90847 | 165° | 13km/h | 28235m | 6.2m/s | -47.4°C | 0.3% | 16.18hPa | 2.7V | 00:00:00 | 00:00:00 | 00:00:00 | |
| HSKMA3-T | 2026-09-04 12:18:09 | 52.78914 | 11.90847 | 201° | 7km/h | 28228m | 6m/s | -47.4°C | 0% | 16.2hPa | 2.7V | 03:30:00 | 02:10:27 | 00:00:00 | |
| BIOWL1-15 | 2026-09-04 12:18:08 | 52.78915 | 11.90849 | 265° | 5km/h | 28223m | 5.4m/s | -47.5°C | 0% | 16.2hPa | 2.7V | 03:30:00 | 02:10:26 | 00:00:00 | |
| DF8AY | 2026-09-04 12:18:05 | 52.78909 | 11.90853 | 11° | 13km/h | 28207m | 6.6m/s | -47.4°C | 0% | 16.3hPa | 2.6V | 03:30:00 | 02:10:23 | 00:00:00 | |
| DL1ZP-14 | 2026-09-04 12:18:05 | 52.78906 | 11.90851 | 34° | 15km/h | 28201m | 5.9m/s | -47.3°C | 0.2% | 16.2hPa | 2.7V | 00:00:00 | 00:00:00 | 00:00:00 | |
| GOEST3-10 | 2026-09-04 12:18:04 | 52.78906 | 11.90851 | 35° | 11km/h | 28201m | 5.8m/s | -47.3°C | 2.6% | 16.2hPa | 2.7V | 00:00:00 | 02:10:22 | 00:00:00 | |
| DO2SHX-10 | 2026-09-04 12:18:03 | 52.78903 | 11.90846 | 51° | 13km/h | 28196m | 4.9m/s | -47.3°C | 2.6% | 16.2hPa | 2.7V | 00:00:00 | 02:10:21 | 00:00:00 | |
| DL1NUX | 2026-09-04 12:18:02 | 52.78903 | 11.90835 | 181° | 11km/h | 28164m | 6.6m/s | -47.5°C | 2.6% | 16.3hPa | 2.7V | 03:29:48 | 02:10:15 | 00:00:00 | |
| DL1XH-west | 2026-09-04 12:18:01 | 52.78899 | 11.90836 | 85° | 4km/h | 28179m | 5.7m/s | -47.4°C | 0% | 16.4hPa | 2.6V | 03:30:00 | 02:10:18 | 00:00:00 | |
| DL1XH-15 | 2026-09-04 12:18:00 | 52.78909 | 11.90835 | 180° | 9km/h | 28152m | 4.6m/s | -47.5°C | 2.6% | 16.4hPa | 2.7V | 03:29:50 | 02:10:13 | 00:00:00 | |
| AA1-15 | 2026-09-04 12:18:00 | 52.78900 | 11.90835 | 174° | 4km/h | 28174m | 5m/s | -47.4°C | 0% | 16.4hPa | 2.6V | 03:30:00 | 02:10:17 | 00:00:00 | |
| HSKMA3-T | 2026-09-04 12:17:58 | 52.78901 | 11.90835 | 186° | 7km/h | 28169m | 4.8m/s | -47.4°C | 0% | 16.4hPa | 2.6V | 03:30:00 | 02:10:16 | 00:00:00 | |
| BIOWL1-15 | 2026-09-04 12:17:57 | 52.78903 | 11.90835 | 181° | 11km/h | 28164m | 6.6m/s | -47.5°C | 0% | 16.4hPa | 2.7V | 03:30:00 | 02:10:15 | 00:00:00 | |
| BIOWL9-15 | 2026-09-04 12:17:56 | 52.78906 | 11.90835 | 176° | 11km/h | 28158m | 5.8m/s | -47.5°C | 0.3% | 16.4hPa | 2.7V | 00:00:00 | 00:00:00 | 00:00:00 | |
| DB0DAN | 2026-09-04 12:17:55 | 52.78909 | 11.90835 | 181° | 9km/h | 28152m | 4.6m/s | -47.5°C | 0.3% | 16.37hPa | 2.7V | 00:00:00 | 00:00:00 | 00:00:00 | |
| DF8AY | 2026-09-04 12:17:55 | 52.78911 | 11.90836 | 215° | 5km/h | 28147m | 5.3m/s | -47.6°C | 0% | 16.4hPa | 2.7V | 03:30:00 | 02:10:12 | 00:00:00 | |
| DL1XH-west | 2026-09-04 12:17:50 | 52.78905 | 11.90843 | 32° | 7km/h | 28120m | 6.5m/s | -47.8°C | 0% | 16.5hPa | 2.7V | 03:30:00 | 02:10:07 | 00:00:00 | |
| HSKMA3-T | 2026-09-04 12:17:48 | 52.78904 | 11.90840 | 75° | 11km/h | 28114m | 6m/s | -47.7°C | 0% | 16.5hPa | 2.7V | 03:30:00 | 02:10:06 | 00:00:00 | |
| DO2SHX-10 | 2026-09-04 12:17:48 | 52.78903 | 11.90840 | 75° | 13km/h | 28114m | 5.9m/s | -47.7°C | 2.7% | 16.4hPa | 2.6V | 00:00:00 | 02:10:06 | 00:00:00 | |
| DL1XH1-15 | 2026-09-04 12:17:47 | 52.78907 | 11.90823 | 130° | 7km/h | 28093m | 6m/s | -47.6°C | 2.6% | 16.5hPa | 2.6V | 03:30:01 | 02:10:02 | 00:00:00 | |
| BIOWL1-15 | 2026-09-04 12:17:46 | 52.78904 | 11.90830 | 109° | 13km/h | 28104m | 4.4m/s | -47.6°C | 0% | 16.5hPa | 2.6V | 03:30:00 | 02:10:04 | 00:00:00 | |
| DL1XH-15 | 2026-09-04 12:17:46 | 52.78905 | 11.90826 | 117° | 11km/h | 28099m | 5.9m/s | -47.6°C | 2.7% | 16.5hPa | 2.6V | 03:30:00 | 02:10:03 | 00:00:00 | |
| DF8AY | 2026-09-04 12:17:44 | 52.78907 | 11.90823 | 131° | 7km/h | 28093m | 6m/s | -47.6°C | 0% | 16.5hPa | 2.6V | 03:30:51 | 02:10:02 | 00:00:00 | |
| GOEST3-10 | 2026-09-04 12:17:44 | 52.78906 | 11.90823 | 131° | 4km/h | 28093m | 5.9m/s | -47.5°C | 2.6% | 16.5hPa | 2.6V | 00:00:00 | 02:10:02 | 00:00:00 | |
| DL1NUX | 2026-09-04 12:17:42 | 52.78909 | 11.90814 | 74° | 5km/h | 28056m | 5.5m/s | -47.5°C | 2.7% | 16.6hPa | 2.6V | 03:30:08 | 02:09:55 | 00:00:00 | |
| DM0DOS-11 | 2026-09-04 12:17:42 | 52.78909 | 11.90821 | 111° | 4km/h | 28073m | 5.8m/s | -47.7°C | 2.7% | 16.6hPa | 2.7V | 03:30:05 | 02:09:58 | 00:00:00 | |
| DB0DAN | 2026-09-04 12:17:40 | 52.78909 | 11.90821 | 112° | 4km/h | 28073m | 5.8m/s | -47.7°C | 0.3% | 16.6hPa | 2.7V | 00:00:00 | 00:00:00 | 00:00:00 | |
| AA1-15 | 2026-09-04 12:17:38 | 52.78909 | 11.90816 | 84° | 7km/h | 28062m | 5.3m/s | -47.6°C | 0% | 16.6hPa | 2.6V | 03:30:51 | 02:09:56 | 00:00:00 | |
| HSKMA3-T | 2026-09-04 12:17:37 | 52.78909 | 11.90814 | 74° | 5km/h | 28056m | 5.5m/s | -47.5°C | 0% | 16.6hPa | 2.6V | 03:30:51 | 02:09:55 | 00:00:00 | |
| DL1XH1-15 | 2026-09-04 12:17:37 | 52.78907 | 11.90811 | 28° | 5km/h | 28040m | 4m/s | -47.6°C | 2.7% | 16.7hPa | 2.7V | 03:30:11 | 02:09:52 | 00:00:00 | |
| DL1XH-15 | 2026-09-04 12:17:36 | 52.78907 | 11.90811 | 18° | 4km/h | 28044m | 5.2m/s | -47.6°C | 2.7% | 16.6hPa | 2.7V | 03:30:10 | 02:09:53 | 00:00:00 | |
| BIOWL1-15 | 2026-09-04 12:17:36 | 52.78904 | 11.90802 | 81° | 11km/h | 28023m | 4.9m/s | -47.5°C | 0% | 16.7hPa | 2.6V | 03:30:51 | 02:09:49 | 00:00:00 | |
| DO2SHX-10 | 2026-09-04 12:17:36 | 52.78908 | 11.90812 | 46° | 4km/h | 28050m | 6.5m/s | -47.5°C | 2.7% | 16.6hPa | 2.6V | 00:00:00 | 02:09:54 | 00:00:00 | |
| DM0DOS-11 | 2026-09-04 12:17:35 | 52.78904 | 11.90797 | 76° | 11km/h | 28018m | 4.8m/s | -47.5°C | 2.7% | 16.7hPa | 2.6V | 03:30:15 | 02:09:48 | 00:00:00 | |
| DF8AY | 2026-09-04 12:17:34 | 52.78907 | 11.90811 | 29° | 5km/h | 28040m | 4m/s | -47.6°C | 0% | 16.7hPa | 2.7V | 03:30:51 | 02:09:52 | 00:00:00 | |
| DL1ZP-14 | 2026-09-04 12:17:34 | 52.78906 | 11.90809 | 59° | 5km/h | 28035m | 6.0m/s | -47.7°C | 0.3% | 16.7hPa | 2.7V | 00:00:00 | 00:00:00 | 00:00:00 | |
| DO2SHX-10 | 2026-09-04 12:17:33 | 52.78906 | 11.90809 | 60° | 9km/h | 28035m | 5.9m/s | -47.7°C | 2.7% | 16.6hPa | 2.7V | 03:30:00 | 02:09:51 | 00:00:00 | |
| DL1NUX | 2026-09-04 12:17:32 | 52.78902 | 11.90793 | 326° | 4km/h | 28001m | 4.9m/s | -47.7°C | 2.7% | 16.7hPa | 2.7V | 03:30:18 | 02:09:45 | 00:00:00 | |
| DL1XH-15 | 2026-09-04 12:17:30 | 52.78900 | 11.90795 | 315° | 2km/h | 27991m | 5.5m/s | -47.6°C | 2.7% | 16.8hPa | 2.6V | 03:30:20 | 02:09:43 | 00:00:00 | |
| DO2SHX-10 | 2026-09-04 12:17:30 | 52.78904 | 11.90797 | 77° | 7km/h | 28018m | 4.7m/s | -47.5°C | 2.7% | 16.7hPa | 2.7V | 00:00:00 | 02:09:48 | 00:00:00 | |
| GOEST3-10 | 2026-09-04 12:17:29 | 52.78903 | 11.90794 | 69° | 4km/h | 28013m | 5.9m/s | -47.6°C | 2.7% | 16.7hPa | 2.7V | 03:30:00 | 00:00:00 | 00:00:00 | |
| EDDB2-11 | 2026-09-04 12:17:28 | 52.78902 | 11.90792 | 25° | 4km/h | 28007m | 6.5m/s | -47.7°C | 0.3% | 16.7hPa | 2.6V | 00:00:00 | 00:00:00 | 00:00:00 | |
| DL1XH1-15 | 2026-09-04 12:17:27 | 52.78900 | 11.90795 | 86° | 2km/h | 27985m | 6.2m/s | -47.6°C | 2.8% | 16.8hPa | 2.6V | 03:30:21 | 02:09:42 | 00:00:00 | |
| AA1-15 | 2026-09-04 12:17:27 | 52.78902 | 11.90793 | 327° | 4km/h | 28001m | 4.9m/s | -47.7°C | 0% | 16.7hPa | 2.7V | 03:30:51 | 02:09:45 | 00:00:00 | |
| BIOWL1-15 | 2026-09-04 12:17:26 | 52.78901 | 11.90794 | 311° | 4km/h | 27996m | 4.3m/s | -47.6°C | 0% | 16.8hPa | 2.7V | 03:30:51 | 02:09:44 | 00:00:00 | |
| DB0DAN | 2026-09-04 12:17:25 | 52.78900 | 11.90795 | 315° | 2km/h | 27991m | 5.5m/s | -47.6°C | 0.3% | 16.78hPa | 2.6V | 00:00:00 | 00:00:00 | 00:00:00 | |
| DF8AY | 2026-09-04 12:17:24 | 52.78900 | 11.90793 | 95° | 7km/h | 27979m | 5.6m/s | -47.7°C | 0% | 16.8hPa | 2.6V | 03:30:51 | 02:09:41 | 00:00:00 | |
| DL1NUX | 2026-09-04 12:17:22 | 52.78902 | 11.90788 | 258° | 11km/h | 27947m | 4.8m/s | -47.9°C | 2.7% | 16.9hPa | 2.6V | 03:30:28 | 02:09:35 | 00:00:00 | |
| SONDE2-11 | 2026-09-04 12:17:22 | 52.78901 | 11.90786 | 103° | 7km/h | 27969m | 4.8m/s | -47.8°C | 0.3% | 16.9hPa | 2.7V | 00:00:00 | 00:00:00 | 00:00:00 | |
| DB0UT-7 | 2026-09-04 12:17:21 | 52.78901 | 11.90786 | 104° | 7km/h | 27969m | 4.7m/s | -47.7°C | 2.8% | 16.8hPa | 2.7V | 03:30:00 | 02:09:39 | 00:00:00 | |
| DL4XJ-10 | 2026-09-04 12:17:20 | 52.78901 | 11.90784 | 110° | 7km/h | 27965m | 5.2m/s | -47.6°C | 0% | 0hPa | 2.7V | 00:00:00 | 00:00:00 | 00:00:00 | |
| GOEST3-10 | 2026-09-04 12:17:19 | 52.78901 | 11.90783 | 203° | 7km/h | 27959m | 6.3m/s | -47.8°C | 2.8% | 16.8hPa | 2.7V | 00:00:00 | 00:00:00 | 00:00:00 | |
| DO2SHX-10 | 2026-09-04 12:17:18 | 52.78902 | 11.90784 | 258° | 9km/h | 27953m | 6.3m/s | -47.8°C | 2.8% | 16.8hPa | 2.7V | 00:00:00 | 02:09:36 | 00:00:00 | |
| DL1XH1-15 | 2026-09-04 12:17:17 | 52.78905 | 11.90797 | 180° | 7km/h | 27930m | 5.8m/s | -47.9°C | 2.7% | 17hPa | 2.7V | 03:30:31 | 02:09:32 | 00:00:00 | |
| DL1XH-15 | 2026-09-04 12:17:16 | 52.78904 | 11.90796 | 232° | 7km/h | 27936m | 6.4m/s | -47.9°C | 2.8% | 16.9hPa | 2.7V | 03:30:30 | 02:09:33 | 00:00:00 | |
| AA1-15 | 2026-09-04 12:17:16 | 52.78903 | 11.90793 | 254° | 11km/h | 27941m | 4.6m/s | -47.9°C | 0% | 16.9hPa | 2.6V | 03:30:51 | 02:09:34 | 00:00:00 | |
| BIOWL1-15 | 2026-09-04 12:17:15 | 52.78904 | 11.90796 | 232° | 7km/h | 27936m | 6.4m/s | -47.9°C | 0% | 16.9hPa | 2.7V | 03:30:51 | 02:09:33 | 00:00:00 | |
| DF8AY | 2026-09-04 12:17:13 | 52.78907 | 11.90797 | 152° | 9km/h | 27925m | 5.1m/s | -47.9°C | 0% | 17hPa | 2.7V | 03:30:51 | 02:09:31 | 00:00:00 | |
| DO2SHX-10 | 2026-09-04 12:17:12 | 52.78909 | 11.90795 | 144° | 9km/h | 27920m | 5.0m/s | -47.9°C | 2.8% | 16.9hPa | 2.6V | 00:00:00 | 02:09:30 | 00:00:00 | |
| DB0DAN | 2026-09-04 12:17:10 | 52.78913 | 11.90790 | 146° | 7km/h | 27908m | 5.3m/s | -48°C | 0.3% | 17.01hPa | 2.6V | 00:00:00 | 00:00:00 | 00:00:00 | |
| DO2SHX-10 | 2026-09-04 12:17:09 | 52.78914 | 11.90788 | 139° | 9km/h | 27903m | 4.7m/s | -48.0°C | 2.7% | 17.0hPa | 2.7V | 03:30:00 | 02:09:27 | 00:00:00 | |
| SMARD9-10 | 2026-09-04 12:17:08 | 52.78914 | 11.90788 | 139° | 7km/h | 27903m | 4.8m/s | -48.0°C | 0.3% | 17.0hPa | 2.7V | 00:00:00 | 00:00:00 | 00:00:00 | |
| TFSTFS | 2026-09-04 12:17:07 | 52.78916 | 11.90786 | 126° | 9km/h | 27898m | 5.7m/s | -48.1°C | 0.3% | 17.1hPa | 2.7V | 03:30:00 | 00:00:00 | 00:00:00 | |
| DL1XH-15 | 2026-09-04 12:17:06 | 52.78918 | 11.90775 | 74° | 7km/h | 27880m | 4.8m/s | -48.1°C | 2.7% | 17.1hPa | 2.7V | 03:30:40 | 02:09:23 | 00:00:00 | |
| DL1XH1-15 | 2026-09-04 12:17:06 | 52.78917 | 11.90774 | 17° | 5km/h | 27875m | 5.9m/s | -48.2°C | 2.8% | 17.1hPa | 2.6V | 03:30:41 | 02:09:22 | 00:00:00 | |
| AA1-15 | 2026-09-04 12:17:06 | 52.78918 | 11.90779 | 99° | 9km/h | 27886m | 5m/s | -48.1°C | 0% | 17.1hPa | 2.7V | 03:30:51 | 02:09:24 | 00:00:00 | |
| BIOWL1-15 | 2026-09-04 12:17:05 | 52.78918 | 11.90776 | 75° | 7km/h | 27880m | 4.8m/s | -48.1°C | 0% | 17.1hPa | 2.7V | 03:30:51 | 02:09:23 | 00:00:00 | |
| HSKMA3-T | 2026-09-04 12:17:04 | 52.78917 | 11.90774 | 17° | 5km/h | 27875m | 5.9m/s | -48.2°C | 0% | 17.1hPa | 2.6V | 03:30:51 | 02:09:22 | 00:00:00 | |
| DF8AY | 2026-09-04 12:17:03 | 52.78914 | 11.90777 | 311° | 11km/h | 27863m | 5.3m/s | -48°C | 0% | 17.1hPa | 2.6V | 03:30:51 | 02:09:20 | 00:00:00 | |
| SP3BTT-10 | 2026-09-04 12:17:02 | 52.78914 | 11.90777 | 312° | 16km/h | 27864m | 5.2m/s | -48.0°C | 2.7% | 17.1hPa | 2.6V | 00:00:00 | 00:00:00 | 00:00:00 | |
| DL1XH-15 | 2026-09-04 12:17:00 | 52.78914 | 11.90766 | 106° | 13km/h | 27826m | 5.7m/s | -48.1°C | 2.7% | 17.2hPa | 2.6V | 03:30:50 | 02:09:13 | 00:00:00 | |
| DO2SHX-10 | 2026-09-04 12:17:00 | 52.78911 | 11.90783 | 308° | 5km/h | 27854m | 5.0m/s | -48.1°C | 2.7% | 17.1hPa | 2.7V | 00:00:00 | 02:09:18 | 00:00:00 | |
| GOEST3-10 | 2026-09-04 12:16:59 | 52.78910 | 11.90783 | 102° | 11km/h | 27848m | 6.4m/s | -48.1°C | 2.8% | 17.1hPa | 2.7V | 00:00:00 | 00:00:00 | 00:00:00 | |
| DL1LOL-11 | 2026-09-04 12:16:58 | 52.78910 | 11.90783 | 103° | 2km/h | 27848m | 6.4m/s | -48.1°C | 0.3% | 17.2hPa | 2.7V | 00:00:00 | 00:00:00 | 00:00:00 | |
| DL1XH1-15 | 2026-09-04 12:16:57 | 52.78914 | 11.90762 | 94° | 7km/h | 27820m | 5.5m/s | -48°C | 2.8% | 17.2hPa | 2.7V | 03:30:51 | 02:09:12 | 00:00:00 | |
| AA1-15 | 2026-09-04 12:16:56 | 52.78913 | 11.90771 | 108° | 15km/h | 27832m | 4.9m/s | -48.1°C | 0% | 17.2hPa | 2.6V | 03:30:51 | 02:09:14 | 00:00:00 | |
| DL1XH-west | 2026-09-04 12:16:56 | 52.78914 | 11.90766 | 107° | 13km/h | 27826m | 5.7m/s | -48.1°C | 0% | 17.2hPa | 2.6V | 03:30:51 | 02:09:13 | 00:00:00 | |
| DB0DAN | 2026-09-04 12:16:55 | 52.78914 | 11.90766 | 107° | 11km/h | 27826m | 5.7m/s | -48.1°C | 0.3% | 17.25hPa | 2.6V | 00:00:00 | 00:00:00 | 00:00:00 | |
| BIOWL1-15 | 2026-09-04 12:16:54 | 52.78914 | 11.90762 | 94° | 7km/h | 27820m | 5.5m/s | -48.1°C | 0% | 17.3hPa | 2.7V | 03:30:51 | 02:09:12 | 00:00:00 | |
| HSKMA3-T | 2026-09-04 12:16:53 | 52.78914 | 11.90759 | 74° | 5km/h | 27815m | 5.1m/s | -48°C | 0% | 17.3hPa | 2.7V | 03:31:42 | 02:09:11 | 00:00:00 | |
| DF8AY | 2026-09-04 12:16:52 | 52.78913 | 11.90755 | 58° | 7km/h | 27805m | 5.7m/s | -48.1°C | 0% | 17.3hPa | 2.7V | 03:31:42 | 02:09:09 | 00:00:00 | |
| SONDE2-11 | 2026-09-04 12:16:51 | 52.78912 | 11.90752 | 75° | 7km/h | 27799m | 5.8m/s | -48.1°C | 0.3% | 17.3hPa | 2.7V | 00:00:00 | 00:00:00 | 00:00:00 | |
| SONCRA | 2026-09-04 12:16:50 | 52.78912 | 11.90752 | 75° | 7km/h | 27799m | 5.8m/s | -48.1°C | 0.3% | 17.3hPa | 2.7V | 00:00:00 | 00:00:00 | 00:00:00 | |
| EDDB2-12 | 2026-09-04 12:16:47 | 52.78911 | 11.90740 | 73° | 7km/h | 27783m | 5.7m/s | -48.1°C | 0.3% | 17.3hPa | 2.7V | 00:00:00 | 00:00:00 | 00:00:00 | |
| DL1XH-15 | 2026-09-04 12:16:46 | 52.78909 | 11.90735 | 29° | 9km/h | 27772m | 4.5m/s | -48.1°C | 2.8% | 17.4hPa | 2.7V | 03:31:00 | 02:09:03 | 00:00:00 | |
| DL1XH1-15 | 2026-09-04 12:16:46 | 52.78906 | 11.90733 | 35° | 13km/h | 27768m | 4m/s | -48°C | 2.7% | 17.4hPa | 2.7V | 03:31:01 | 02:09:02 | 00:00:00 | |
| BIOWL1-15 | 2026-09-04 12:16:46 | 52.78906 | 11.90733 | 36° | 13km/h | 27768m | 4m/s | -48.1°C | 0% | 17.4hPa | 2.7V | 03:32:33 | 02:09:02 | 00:00:00 | |
| AA1-15 | 2026-09-04 12:16:46 | 52.78882 | 11.90679 | 53° | 18km/h | 27728m | 4.9m/s | -48°C | 0% | 17.5hPa | 2.7V | 03:31:42 | 02:08:55 | 00:00:00 | |
| DL1XH-west | 2026-09-04 12:16:45 | 52.78908 | 11.90735 | 29° | 9km/h | 27772m | 4.5m/s | -48.1°C | 0% | 17.4hPa | 2.7V | 03:31:42 | 02:09:03 | 00:00:00 | |
| SP3WXH-11 | 2026-09-04 12:16:45 | 52.78906 | 11.90733 | 35° | 11km/h | 27768m | 4.0m/s | -48.1°C | 0.3% | 17.4hPa | 2.6V | 00:00:00 | 00:00:00 | 00:00:00 | |
| HSKMA3-T | 2026-09-04 12:16:43 | 52.78900 | 11.90722 | 54° | 24km/h | 27756m | 6.8m/s | -48.2°C | 0% | 17.4hPa | 2.6V | 03:31:42 | 02:09:00 | 00:00:00 | |
| DM0DOS-11 | 2026-09-04 12:16:42 | 52.78893 | 11.90703 | 55° | 29km/h | 27745m | 5m/s | -48.1°C | 2.7% | 17.4hPa | 2.7V | 03:31:05 | 02:08:58 | 00:00:00 | |
| DF8AY | 2026-09-04 12:16:41 | 52.78897 | 11.90713 | 57° | 27km/h | 27750m | 5.4m/s | -48.1°C | 0% | 17.4hPa | 2.6V | 03:31:42 | 02:08:59 | 00:00:00 | |
| DL1XH-15 | 2026-09-04 12:16:40 | 52.78878 | 11.90666 | 68° | 16km/h | 27717m | 6.2m/s | -48.1°C | 2.8% | 17.5hPa | 2.6V | 03:31:10 | 02:08:53 | 00:00:00 | |
| DB0DAN | 2026-09-04 12:16:40 | 52.78893 | 11.90703 | 56° | 27km/h | 27745m | 5m/s | -48.1°C | 0.3% | 17.45hPa | 2.7V | 00:00:00 | 00:00:00 | 00:00:00 | |
| DO2SHX-10 | 2026-09-04 12:16:39 | 52.78888 | 11.90694 | 54° | 22km/h | 27740m | 6.3m/s | -48.1°C | 2.7% | 17.4hPa | 2.7V | 00:00:00 | 02:08:57 | 00:00:00 | |
| MECKS9 | 2026-09-04 12:16:38 | 52.78889 | 11.90694 | 55° | 26km/h | 27740m | 6.3m/s | -48.1°C | 0.3% | 17.5hPa | 2.6V | 00:00:00 | 00:00:00 | 00:00:00 | |
| DL4XJ-10 | 2026-09-04 12:16:37 | 52.78882 | 11.90679 | 53° | 13km/h | 27729m | 4.9m/s | -47.8°C | 0% | 0hPa | 2.6V | 00:00:00 | 00:00:00 | 00:00:00 | |
| DL1XH1-15 | 2026-09-04 12:16:36 | 52.78876 | 11.90660 | 71° | 15km/h | 27711m | 5m/s | -48°C | 2.8% | 17.5hPa | 2.6V | 03:31:11 | 02:08:52 | 00:00:00 | |
| DO2SHX-10 | 2026-09-04 12:16:36 | 52.78879 | 11.90673 | 63° | 16km/h | 27723m | 5.5m/s | -48.0°C | 2.8% | 17.5hPa | 2.7V | 00:00:00 | 02:08:54 | 00:00:00 | |
| DM0DOS-11 | 2026-09-04 12:16:35 | 52.78870 | 11.90653 | 347° | 9km/h | 27689m | 4.5m/s | -47.9°C | 2.8% | 17.6hPa | 2.7V | 03:31:15 | 02:08:48 | 00:00:00 | |
| BIOWL1-15 | 2026-09-04 12:16:35 | 52.78875 | 11.90656 | 64° | 9km/h | 27706m | 5m/s | -48°C | 0% | 17.6hPa | 2.7V | 03:32:33 | 02:08:51 | 00:00:00 | |
| AA1-15 | 2026-09-04 12:16:34 | 52.78876 | 11.90660 | 71° | 15km/h | 27711m | 5m/s | -48°C | 0% | 17.5hPa | 2.6V | 03:31:42 | 02:08:52 | 00:00:00 | |
| DF8AY | 2026-09-04 12:16:31 | 52.78872 | 11.90653 | 355° | 7km/h | 27694m | 6m/s | -48°C | 0% | 17.6hPa | 2.7V | 03:31:42 | 02:08:49 | 00:00:00 | |
| DL1XH-15 | 2026-09-04 12:16:30 | 52.78854 | 11.90634 | 50° | 22km/h | 27662m | 5.1m/s | -47.8°C | 2.7% | 17.7hPa | 2.7V | 03:31:20 | 02:08:43 | 00:00:00 | |
| DO2SHX-10 | 2026-09-04 12:16:30 | 52.78870 | 11.90653 | 348° | 11km/h | 27689m | 4.4m/s | -47.8°C | 2.8% | 17.6hPa | 2.7V | 00:00:00 | 02:08:48 | 00:00:00 | |
| GOEST3-10 | 2026-09-04 12:16:29 | 52.78868 | 11.90653 | 9° | 18km/h | 27685m | 4.3m/s | -47.8°C | 2.8% | 17.5hPa | 2.6V | 03:31:00 | 00:00:00 | 00:00:00 | |
| DL2RXE-15 | 2026-09-04 12:16:28 | 52.78868 | 11.90653 | 10° | 11km/h | 27685m | 4.4m/s | -47.9°C | 0.3% | 17.6hPa | 2.7V | 00:00:00 | 00:00:00 | 00:00:00 | |
| DL1XH1-15 | 2026-09-04 12:16:27 | 52.78851 | 11.90628 | 45° | 18km/h | 27657m | 5.4m/s | -47.8°C | 2.7% | 17.7hPa | 2.7V | 03:31:21 | 02:08:42 | 00:00:00 | |
| DO2SHX-10 | 2026-09-04 12:16:27 | 52.78861 | 11.90647 | 42° | 22km/h | 27673m | 5.7m/s | -47.7°C | 2.7% | 17.6hPa | 2.7V | 00:00:00 | 02:08:45 | 00:00:00 | |
| TFSTFS | 2026-09-04 12:16:26 | 52.78861 | 11.90647 | 42° | 20km/h | 27673m | 5.8m/s | -47.8°C | 0.3% | 17.6hPa | 2.7V | 03:31:00 | 00:00:00 | 00:00:00 | |
| DB0DAN | 2026-09-04 12:16:25 | 52.78854 | 11.90634 | 51° | 20km/h | 27662m | 5.1m/s | -47.8°C | 0.3% | 17.68hPa | 2.7V | 00:00:00 | 00:00:00 | 00:00:00 | |
| AA1-15 | 2026-09-04 12:16:23 | 52.78848 | 11.90623 | 41° | 15km/h | 27651m | 6.3m/s | -47.7°C | 0% | 17.7hPa | 2.7V | 03:31:42 | 02:08:41 | 00:00:00 | |
| DF8AY | 2026-09-04 12:16:21 | 52.78843 | 11.90618 | 14° | 7km/h | 27640m | 4.9m/s | -47.7°C | 0% | 17.7hPa | 2.6V | 03:31:42 | 02:08:39 | 00:00:00 | |
| HSKMA3-T | 2026-09-04 12:16:21 | 52.78841 | 11.90618 | 23° | 7km/h | 27635m | 5.9m/s | -47.6°C | 0% | 17.7hPa | 2.6V | 03:31:42 | 02:08:38 | 00:00:00 | |
| DO2SHX-10 | 2026-09-04 12:16:21 | 52.78843 | 11.90618 | 15° | 7km/h | 27641m | 4.9m/s | -47.7°C | 2.7% | 17.7hPa | 2.6V | 03:31:00 | 02:08:39 | 00:00:00 | |
| SONDE2-11 | 2026-09-04 12:16:20 | 52.78840 | 11.90616 | 47° | 7km/h | 27629m | 6.3m/s | -47.6°C | 0.3% | 17.8hPa | 2.6V | 00:00:00 | 00:00:00 | 00:00:00 | |
| SP3BTT-10 | 2026-09-04 12:16:19 | 52.78840 | 11.90616 | 48° | 11km/h | 27629m | 6.2m/s | -47.6°C | 2.7% | 17.7hPa | 2.6V | 00:00:00 | 00:00:00 | 00:00:00 | |
| DO2SHX-10 | 2026-09-04 12:16:18 | 52.78838 | 11.90613 | 58° | 11km/h | 27623m | 5.8m/s | -47.6°C | 2.7% | 17.7hPa | 2.6V | 00:00:00 | 02:08:36 | 00:00:00 | |
| DL1XH1-15 | 2026-09-04 12:16:17 | 52.78830 | 11.90599 | 24° | 13km/h | 27601m | 5.8m/s | -47.6°C | 2.7% | 17.8hPa | 2.6V | 03:31:31 | 02:08:32 | 00:00:00 | |
| DL4XJ-10 | 2026-09-04 12:16:17 | 52.78837 | 11.90609 | 55° | 13km/h | 27618m | 4.8m/s | -47.3°C | 0% | 0hPa | 2.7V | 00:00:00 | 00:00:00 | 00:00:00 | |
| DD8BA-10 | 2026-09-04 12:16:16 | 52.78835 | 11.90605 | 47° | 16km/h | 27613m | 4.6m/s | -47.6°C | 2.7% | 17.8hPa | 2.7V | 00:00:00 | 00:00:00 | 00:00:00 | |
| DM0DOS-11 | 2026-09-04 12:16:15 | 52.78817 | 11.90583 | 51° | 22km/h | 27578m | 5.4m/s | -47.6°C | 2.7% | 17.9hPa | 2.7V | 03:31:35 | 02:08:28 | 00:00:00 | |
| AA1-15 | 2026-09-04 12:16:13 | 52.78827 | 11.90597 | 26° | 15km/h | 27596m | 4.7m/s | -47.6°C | 0% | 17.9hPa | 2.6V | 03:31:42 | 02:08:31 | 00:00:00 | |
| DL1NUX | 2026-09-04 12:16:12 | 52.78808 | 11.90564 | 44° | 15km/h | 27563m | 6.1m/s | -47.6°C | 2.7% | 18hPa | 2.6V | 03:31:38 | 02:08:25 | 00:00:00 | |
| BIOWL1-15 | 2026-09-04 12:16:11 | 52.78820 | 11.90589 | 45° | 18km/h | 27585m | 6.9m/s | -47.6°C | 0% | 17.9hPa | 2.7V | 03:32:33 | 02:08:29 | 00:00:00 | |
| DF8AY | 2026-09-04 12:16:10 | 52.78816 | 11.90583 | 52° | 22km/h | 27579m | 5.4m/s | -47.6°C | 0% | 17.9hPa | 2.7V | 03:31:42 | 02:08:28 | 00:00:00 | |
| DB0DAN | 2026-09-04 12:16:10 | 52.78816 | 11.90583 | 52° | 20km/h | 27579m | 5.4m/s | -47.6°C | 0.3% | 17.91hPa | 2.7V | 00:00:00 | 00:00:00 | 00:00:00 | |
| AM1SDL-15 | 2026-09-04 12:16:10 | 52.78816 | 11.90583 | 52° | 15km/h | 27579m | 5.3m/s | -47.6°C | 2.7% | 17.9hPa | 2.7V | 00:00:00 | 02:08:28 | 00:00:00 | |
| HTAHTA | 2026-09-04 12:16:09 | 52.78810 | 11.90569 | 52° | 16km/h | 27569m | 4.9m/s | -47.6°C | 0.3% | 17.9hPa | 2.7V | 00:00:00 | 00:00:00 | 00:00:00 | |
| SMARD9-15 | 2026-09-04 12:16:08 | 52.78808 | 11.90564 | 44° | 15km/h | 27563m | 6.1m/s | -47.6°C | 0.3% | 18.0hPa | 2.7V | 00:00:00 | 00:00:00 | 00:00:00 | |
| DL1XH1-15 | 2026-09-04 12:16:06 | 52.78800 | 11.90558 | 18° | 11km/h | 27546m | 6.2m/s | -47.5°C | 2.7% | 18hPa | 2.7V | 03:31:41 | 02:08:22 | 00:00:00 | |
| DL1XH-west | 2026-09-04 12:16:04 | 52.78800 | 11.90558 | 19° | 11km/h | 27546m | 6.2m/s | -47.5°C | 0% | 18hPa | 2.7V | 03:31:42 | 02:08:22 | 00:00:00 | |
| AA1-15 | 2026-09-04 12:16:03 | 52.78797 | 11.90556 | 29° | 11km/h | 27540m | 6.5m/s | -47.5°C | 0% | 18hPa | 2.7V | 03:31:42 | 02:08:21 | 00:00:00 | |
| DM0DOS-11 | 2026-09-04 12:16:02 | 52.78790 | 11.90547 | 34° | 9km/h | 27525m | 4.9m/s | -47.4°C | 2.7% | 18hPa | 2.6V | 03:31:45 | 02:08:18 | 00:00:00 | |
| BIOWL1-15 | 2026-09-04 12:16:01 | 52.78792 | 11.90550 | 39° | 13km/h | 27529m | 4.2m/s | -47.4°C | 0% | 18.1hPa | 2.6V | 03:32:33 | 02:08:19 | 00:00:00 | |
| DF8AY | 2026-09-04 12:15:59 | 52.78788 | 11.90545 | 17° | 9km/h | 27519m | 6.9m/s | -47.4°C | 0% | 18.1hPa | 2.6V | 03:32:33 | 02:08:17 | 00:00:00 | |
| DL1XH1-15 | 2026-09-04 12:15:59 | 52.78781 | 11.90535 | 71° | 11km/h | 27489m | 4.3m/s | -47.3°C | 2.7% | 18.1hPa | 2.6V | 03:31:51 | 02:08:12 | 00:00:00 | |
| GOEST3-10 | 2026-09-04 12:15:59 | 52.78788 | 11.90545 | 18° | 7km/h | 27519m | 6.9m/s | -47.3°C | 2.7% | 18.0hPa | 2.6V | 00:00:00 | 00:00:00 | 00:00:00 | |
| AM1SDL-15 | 2026-09-04 12:15:58 | 52.78786 | 11.90545 | 2° | 9km/h | 27513m | 5.4m/s | -47.3°C | 2.7% | 18.0hPa | 2.7V | 00:00:00 | 02:08:16 | 00:00:00 | |
| DO2SHX-10 | 2026-09-04 12:15:57 | 52.78784 | 11.90544 | 22° | 7km/h | 27507m | 5.4m/s | -47.3°C | 2.7% | 18.1hPa | 2.7V | 03:31:00 | 02:08:15 | 00:00:00 | |
| DB0DAN | 2026-09-04 12:15:55 | 52.78782 | 11.90539 | 70° | 11km/h | 27494m | 6.1m/s | -47.3°C | 0.3% | 18.17hPa | 2.7V | 00:00:00 | 00:00:00 | 00:00:00 | |
| DL1XH-west | 2026-09-04 12:15:53 | 52.78779 | 11.90527 | 59° | 7km/h | 27479m | 6.3m/s | -47.3°C | 0% | 18.2hPa | 2.6V | 03:32:33 | 02:08:10 | 00:00:00 | |
| AA1-15 | 2026-09-04 12:15:53 | 52.78780 | 11.90531 | 69° | 11km/h | 27485m | 4.6m/s | -47.2°C | 0% | 18.1hPa | 2.6V | 03:32:33 | 02:08:11 | 00:00:00 | |
| DL1NUX | 2026-09-04 12:15:52 | 52.78770 | 11.90516 | 60° | 13km/h | 27452m | 6.2m/s | -47.3°C | 2.7% | 18.2hPa | 2.6V | 03:31:58 | 02:08:05 | 00:00:00 | |
| BIOWL9-15 | 2026-09-04 12:15:52 | 52.78778 | 11.90525 | 28° | 7km/h | 27473m | 5.5m/s | -47.3°C | 0.3% | 18.2hPa | 2.7V | 00:00:00 | 00:00:00 | 00:00:00 | |
| DM0DOS-11 | 2026-09-04 12:15:51 | 52.78776 | 11.90524 | 18° | 9km/h | 27468m | 4.9m/s | -47.2°C | 2.6% | 18.2hPa | 2.7V | 03:31:55 | 02:08:08 | 00:00:00 | |
| BIOWL1-15 | 2026-09-04 12:15:50 | 52.78776 | 11.90524 | 19° | 9km/h | 27468m | 4.9m/s | -47.2°C | 0% | 18.2hPa | 2.7V | 03:32:33 | 02:08:08 | 00:00:00 | |
| HSKMA3-T | 2026-09-04 12:15:49 | 52.78774 | 11.90522 | 25° | 9km/h | 27463m | 5.2m/s | -47.2°C | 0% | 18.3hPa | 2.7V | 03:32:33 | 02:08:07 | 00:00:00 | |
| SONDE2-11 | 2026-09-04 12:15:49 | 52.78772 | 11.90520 | 39° | 11km/h | 27458m | 6.0m/s | -47.3°C | 0.3% | 18.2hPa | 2.7V | 00:00:00 | 00:00:00 | 00:00:00 | |
| DL1XH1-15 | 2026-09-04 12:15:48 | 52.78766 | 11.90499 | 77° | 13km/h | 27435m | 4.2m/s | -47.3°C | 2.6% | 18.3hPa | 2.7V | 03:32:01 | 02:08:02 | 00:00:00 | |
| SONCRA | 2026-09-04 12:15:48 | 52.78772 | 11.90520 | 39° | 11km/h | 27458m | 6.0m/s | -47.3°C | 0.3% | 18.2hPa | 2.7V | 00:00:00 | 00:00:00 | 00:00:00 | |
| DJ2DS-15 | 2026-09-04 12:15:47 | 52.78770 | 11.90516 | 60° | 13km/h | 27452m | 6.2m/s | -47.3°C | 0.3% | 18.2hPa | 2.7V | 00:00:00 | 00:00:00 | 00:00:00 | |
| EDDB2-12 | 2026-09-04 12:15:45 | 52.78766 | 11.90499 | 77° | 11km/h | 27436m | 4.2m/s | -47.3°C | 0.3% | 18.3hPa | 2.7V | 00:00:00 | 00:00:00 | 00:00:00 | |
| DL1XH-west | 2026-09-04 12:15:43 | 52.78762 | 11.90493 | 350° | 7km/h | 27419m | 5.5m/s | -47.1°C | 0% | 18.4hPa | 2.7V | 03:32:33 | 02:07:59 | 00:00:00 | |
| AA1-15 | 2026-09-04 12:15:43 | 52.78765 | 11.90495 | 54° | 9km/h | 27430m | 6.4m/s | -47.2°C | 0% | 18.3hPa | 2.7V | 03:32:33 | 02:08:01 | 00:00:00 | |
| SP3WXH-11 | 2026-09-04 12:15:43 | 52.78764 | 11.90493 | 16° | 7km/h | 27424m | 6.5m/s | -47.1°C | 0.3% | 18.3hPa | 2.6V | 00:00:00 | 00:00:00 | 00:00:00 | |
| DB0NH | 2026-09-04 12:15:42 | 52.78764 | 11.90493 | 17° | 9km/h | 27425m | 6.5m/s | -47.1°C | 2.6% | 18.3hPa | 2.6V | 00:00:00 | 02:08:00 | 00:00:00 | |
| DM0DOS-11 | 2026-09-04 12:15:41 | 52.78760 | 11.90493 | 344° | 7km/h | 27413m | 5.3m/s | -47.2°C | 2.6% | 18.4hPa | 2.6V | 03:32:05 | 02:07:58 | 00:00:00 | |
| DB0DAN | 2026-09-04 12:15:40 | 52.78760 | 11.90493 | 344° | 7km/h | 27413m | 5.3m/s | -47.2°C | 0.3% | 18.37hPa | 2.6V | 00:00:00 | 00:00:00 | 00:00:00 | |
| BIOWL1-15 | 2026-09-04 12:15:40 | 52.78757 | 11.90491 | 80° | 5km/h | 27396m | 4.9m/s | -47°C | 0% | 18.4hPa | 2.7V | 03:32:33 | 02:07:55 | 00:00:00 | |
| HSKMA3-T | 2026-09-04 12:15:39 | 52.78759 | 11.90494 | 2° | 4km/h | 27407m | 6.6m/s | -47.1°C | 0% | 18.4hPa | 2.6V | 03:32:33 | 02:07:57 | 00:00:00 | |
| DF8AY | 2026-09-04 12:15:39 | 52.78757 | 11.90487 | 59° | 4km/h | 27384m | 6.9m/s | -46.9°C | 0% | 18.5hPa | 2.7V | 03:32:33 | 02:07:53 | 00:00:00 | |
| DO2SHX-10 | 2026-09-04 12:15:39 | 52.78758 | 11.90493 | 3° | 4km/h | 27407m | 6.6m/s | -47.0°C | 2.6% | 18.4hPa | 2.7V | 00:00:00 | 02:07:57 | 00:00:00 | |
| HTAHTA | 2026-09-04 12:15:38 | 52.78757 | 11.90491 | 80° | 4km/h | 27396m | 4.9m/s | -47.0°C | 0.3% | 18.4hPa | 2.7V | 00:00:00 | 00:00:00 | 00:00:00 | |
| DL4XJ-10 | 2026-09-04 12:15:37 | 52.78757 | 11.90491 | 81° | 9km/h | 27396m | 4.8m/s | -46.8°C | 0% | 0hPa | 2.7V | 00:00:00 | 00:00:00 | 00:00:00 | |
| DL1XH-15 | 2026-09-04 12:15:36 | 52.78757 | 11.90487 | 58° | 4km/h | 27384m | 6.8m/s | -46.9°C | 2.7% | 18.5hPa | 2.7V | 03:32:10 | 02:07:53 | 00:00:00 | |
| AA1-15 | 2026-09-04 12:15:32 | 52.78754 | 11.90481 | 76° | 9km/h | 27368m | 5.3m/s | -46.9°C | 0% | 18.5hPa | 2.6V | 03:32:33 | 02:07:50 | 00:00:00 | |
| DL1XH-west | 2026-09-04 12:15:31 | 52.78754 | 11.90470 | 87° | 16km/h | 27356m | 5.4m/s | -46.6°C | 0% | 18.5hPa | 2.7V | 03:32:33 | 02:07:48 | 00:00:00 | |
| DL1XH-15 | 2026-09-04 12:15:30 | 52.78745 | 11.90446 | 32° | 13km/h | 27329m | 4.6m/s | -46.7°C | 2.5% | 18.6hPa | 2.6V | 03:32:20 | 02:07:43 | 00:00:00 | |
| HSKMA3-T | 2026-09-04 12:15:29 | 52.78753 | 11.90463 | 79° | 16km/h | 27351m | 4.2m/s | -46.7°C | 0% | 18.6hPa | 2.7V | 03:32:33 | 02:07:47 | 00:00:00 | |
| BIOWL1-15 | 2026-09-04 12:15:26 | 52.78748 | 11.90449 | 33° | 13km/h | 27334m | 5m/s | -46.8°C | 0% | 18.6hPa | 2.6V | 03:32:33 | 02:07:44 | 00:00:00 | |
| DB0DAN | 2026-09-04 12:15:25 | 52.78745 | 11.90446 | 32° | 13km/h | 27329m | 4.6m/s | -46.7°C | 0.3% | 18.58hPa | 2.6V | 00:00:00 | 00:00:00 | 00:00:00 | |
| DF8AY | 2026-09-04 12:15:25 | 52.78745 | 11.90446 | 32° | 13km/h | 27329m | 4.6m/s | -46.7°C | 0% | 18.6hPa | 2.6V | 03:32:33 | 02:07:43 | 00:00:00 | |
| AA1-15 | 2026-09-04 12:15:22 | 52.78739 | 11.90435 | 63° | 9km/h | 27312m | 4.8m/s | -46.5°C | 0% | 18.7hPa | 2.7V | 03:32:33 | 02:07:40 | 00:00:00 | |
| DL1XH-west | 2026-09-04 12:15:21 | 52.78738 | 11.90432 | 63° | 7km/h | 27306m | 5.5m/s | -46.6°C | 0% | 18.7hPa | 2.7V | 03:32:33 | 02:07:39 | 00:00:00 | |
| HSKMA3-T | 2026-09-04 12:15:19 | 52.78737 | 11.90428 | 115° | 2km/h | 27289m | 5.1m/s | -46.6°C | 0% | 18.7hPa | 2.6V | 03:32:33 | 02:07:36 | 00:00:00 | |
| DO2SHX-10 | 2026-09-04 12:15:18 | 52.78737 | 11.90428 | 115° | 5km/h | 27289m | 5.1m/s | -46.6°C | 2.5% | 18.7hPa | 2.6V | 00:00:00 | 02:07:36 | 00:00:00 | |
| DL1XH-15 | 2026-09-04 12:15:17 | 52.78740 | 11.90421 | 118° | 9km/h | 27271m | 4.4m/s | -46.4°C | 2.4% | 18.7hPa | 2.7V | 03:32:30 | 02:07:33 | 00:00:00 | |
| DD8BA-10 | 2026-09-04 12:15:17 | 52.78738 | 11.90424 | 126° | 9km/h | 27277m | 5.7m/s | -46.5°C | 2.5% | 18.7hPa | 2.7V | 00:00:00 | 00:00:00 | 00:00:00 | |
| DM0DOS-11 | 2026-09-04 12:15:16 | 52.78732 | 11.90417 | 354° | 13km/h | 27243m | 4.9m/s | -46.6°C | 2.5% | 18.9hPa | 2.6V | 03:32:35 | 02:07:28 | 00:00:00 | |
| BIOWL1-15 | 2026-09-04 12:15:15 | 52.78740 | 11.90421 | 118° | 9km/h | 27271m | 4.4m/s | -46.4°C | 0% | 18.8hPa | 2.7V | 03:32:33 | 02:07:33 | 00:00:00 | |
| DF8AY | 2026-09-04 12:15:14 | 52.78740 | 11.90419 | 92° | 5km/h | 27266m | 5.1m/s | -46.4°C | 0% | 18.8hPa | 2.7V | 03:32:33 | 02:07:32 | 00:00:00 | |
| EDDB2-12 | 2026-09-04 12:15:14 | 52.78740 | 11.90416 | 36° | 4km/h | 27261m | 6.4m/s | -46.4°C | 0.3% | 18.8hPa | 2.7V | 00:00:00 | 00:00:00 | 00:00:00 | |
| DL1NUX | 2026-09-04 12:15:12 | 52.78725 | 11.90415 | 68° | 4km/h | 27225m | 5.4m/s | -46.5°C | 2.4% | 18.9hPa | 2.7V | 03:32:38 | 02:07:25 | 00:00:00 | |
| AA1-15 | 2026-09-04 12:15:11 | 52.78735 | 11.90416 | 353° | 13km/h | 27248m | 5.6m/s | -46.6°C | 0% | 18.9hPa | 2.6V | 03:33:24 | 02:07:29 | 00:00:00 | |
| DJ2DS-15 | 2026-09-04 12:15:11 | 52.78735 | 11.90416 | 352° | 13km/h | 27249m | 5.6m/s | -46.6°C | 0.3% | 18.9hPa | 2.6V | 00:00:00 | 00:00:00 | 00:00:00 | |
| DL1XH-15 | 2026-09-04 12:15:10 | 52.78726 | 11.90413 | 182° | 5km/h | 27214m | 6.2m/s | -46.6°C | 2.5% | 18.9hPa | 2.6V | 03:32:40 | 02:07:23 | 00:00:00 | |
| DB0DAN | 2026-09-04 12:15:10 | 52.78732 | 11.90417 | 355° | 13km/h | 27243m | 4.9m/s | -46.6°C | 0.3% | 18.85hPa | 2.6V | 00:00:00 | 00:00:00 | 00:00:00 | |
| HSKMA3-T | 2026-09-04 12:15:09 | 52.78726 | 11.90416 | 21° | 7km/h | 27231m | 6.1m/s | -46.5°C | 0% | 18.9hPa | 2.7V | 03:33:24 | 02:07:26 | 00:00:00 | |
| DD8BA-10 | 2026-09-04 12:15:06 | 52.78725 | 11.90414 | 134° | 5km/h | 27220m | 5.3m/s | -46.5°C | 2.4% | 18.9hPa | 2.7V | 00:00:00 | 00:00:00 | 00:00:00 | |
| DM0DOS-11 | 2026-09-04 12:15:05 | 52.78733 | 11.90416 | 130° | 7km/h | 27184m | 6.2m/s | -46.6°C | 2.5% | 19hPa | 2.7V | 03:32:45 | 02:07:18 | 00:00:00 | |
| BIOWL1-15 | 2026-09-04 12:15:04 | 52.78727 | 11.90414 | 209° | 7km/h | 27208m | 6.4m/s | -46.7°C | 0% | 18.9hPa | 2.6V | 03:33:24 | 02:07:22 | 00:00:00 | |
| AA1-15 | 2026-09-04 12:15:01 | 52.78732 | 11.90417 | 171° | 5km/h | 27191m | 6.8m/s | -46.6°C | 0% | 19hPa | 2.7V | 03:33:24 | 02:07:19 | 00:00:00 | |
| DL1XH-west | 2026-09-04 12:14:59 | 52.78734 | 11.90411 | 83° | 5km/h | 27174m | 4.6m/s | -46.8°C | 0% | 19.1hPa | 2.6V | 03:33:24 | 02:07:16 | 00:00:00 | |
| HSKMA3-T | 2026-09-04 12:14:58 | 52.78734 | 11.90409 | 29° | 4km/h | 27169m | 6.2m/s | -46.7°C | 0% | 19.1hPa | 2.6V | 03:33:24 | 02:07:15 | 00:00:00 | |
| DL4XJ-10 | 2026-09-04 12:14:57 | 52.78734 | 11.90409 | 30° | 11km/h | 27169m | 6.1m/s | -46.5°C | 0% | 0hPa | 2.6V | 00:00:00 | 00:00:00 | 00:00:00 | |
| SO1NDE-10 | 2026-09-04 12:14:56 | 52.78732 | 11.90409 | 330° | 11km/h | 27163m | 6.2m/s | -46.6°C | 2.5% | 19.0hPa | 2.6V | 00:00:00 | 02:07:14 | 00:00:00 | |
| DM0DOS-11 | 2026-09-04 12:14:55 | 52.78735 | 11.90419 | 181° | 16km/h | 27122m | 6.7m/s | -46.7°C | 2.5% | 19.2hPa | 2.6V | 03:32:56 | 02:07:07 | 00:00:00 | |
| DB0DAN | 2026-09-04 12:14:55 | 52.78731 | 11.90412 | 310° | 9km/h | 27156m | 5.6m/s | -46.7°C | 0.3% | 19.09hPa | 2.7V | 00:00:00 | 00:00:00 | 00:00:00 | |
| BIOWL1-15 | 2026-09-04 12:14:54 | 52.78728 | 11.90419 | 228° | 2km/h | 27139m | 6.3m/s | -46.8°C | 0% | 19.2hPa | 2.7V | 03:33:24 | 02:07:10 | 00:00:00 | |
| EDDB2-11 | 2026-09-04 12:14:53 | 52.78728 | 11.90417 | 294° | 5km/h | 27146m | 6.1m/s | -46.8°C | 0.3% | 19.1hPa | 2.7V | 00:00:00 | 00:00:00 | 00:00:00 | |
| DL1NUX | 2026-09-04 12:14:52 | 52.78744 | 11.90419 | 177° | 18km/h | 27111m | 5m/s | -46.9°C | 2.5% | 19.2hPa | 2.7V | 03:32:58 | 02:07:05 | 00:00:00 | |
| AA1-15 | 2026-09-04 12:14:51 | 52.78732 | 11.90419 | 177° | 13km/h | 27128m | 5.4m/s | -46.7°C | 0% | 19.2hPa | 2.6V | 03:33:24 | 02:07:08 | 00:00:00 | |
| DL1XH-west | 2026-09-04 12:14:49 | 52.78740 | 11.90419 | 184° | 18km/h | 27116m | 5.6m/s | -46.8°C | 0% | 19.2hPa | 2.7V | 03:33:24 | 02:07:06 | 00:00:00 | |
| HSKMA3-T | 2026-09-04 12:14:47 | 52.78748 | 11.90418 | 164° | 16km/h | 27105m | 6.1m/s | -46.9°C | 0% | 19.3hPa | 2.7V | 03:33:24 | 02:07:04 | 00:00:00 | |
| DD8BA-10 | 2026-09-04 12:14:47 | 52.78748 | 11.90418 | 164° | 9km/h | 27106m | 6.0m/s | -46.9°C | 2.5% | 19.2hPa | 2.7V | 03:32:00 | 00:00:00 | 00:00:00 | |
| DF8AY-15 | 2026-09-04 12:14:46 | 52.78748 | 11.90418 | 164° | 11km/h | 27106m | 6.0m/s | -46.9°C | 2.5% | 19.2hPa | 2.7V | 03:32:00 | 02:07:04 | 00:00:00 | |
| DL4BBY-15 | 2026-09-04 12:14:45 | 52.78751 | 11.90415 | 142° | 15km/h | 27100m | 6.8m/s | -46.6°C | 0% | 0hPa | 2.7V | 00:00:00 | 00:00:00 | 00:00:00 | |
| DM0DOS-11 | 2026-09-04 12:14:44 | 52.78753 | 11.90398 | 15° | 2km/h | 27063m | 6m/s | -47°C | 2.6% | 19.4hPa | 2.7V | 03:33:06 | 02:06:57 | 00:00:00 | |
| BIOWL1-15 | 2026-09-04 12:14:41 | 52.78754 | 11.90399 | 48° | 5km/h | 27075m | 6.7m/s | -47.1°C | 0% | 19.4hPa | 2.7V | 03:33:24 | 02:06:59 | 00:00:00 | |
| SP3WXH-11 | 2026-09-04 12:14:41 | 52.78753 | 11.90398 | 15° | 4km/h | 27069m | 5.6m/s | -47.1°C | 0.3% | 19.3hPa | 2.6V | 00:00:00 | 00:00:00 | 00:00:00 | |
| DL1XH-15 | 2026-09-04 12:14:40 | 52.78757 | 11.90393 | 160° | 11km/h | 27041m | 6.1m/s | -46.9°C | 2.5% | 19.4hPa | 2.6V | 03:33:10 | 02:06:53 | 00:00:00 | |
| DB0DAN | 2026-09-04 12:14:40 | 52.78753 | 11.90398 | 15° | 4km/h | 27069m | 5.6m/s | -47.1°C | 0.3% | 19.34hPa | 2.7V | 00:00:00 | 00:00:00 | 00:00:00 | |
| AA1-15 | 2026-09-04 12:14:39 | 52.78752 | 11.90398 | 15° | 2km/h | 27063m | 6m/s | -47°C | 0% | 19.4hPa | 2.7V | 03:33:24 | 02:06:57 | 00:00:00 | |
| DL1XH-west | 2026-09-04 12:14:38 | 52.78752 | 11.90397 | 117° | 2km/h | 27057m | 6.7m/s | -46.9°C | 0% | 19.4hPa | 2.7V | 03:33:24 | 02:06:56 | 00:00:00 | |
| HSKMA3-T | 2026-09-04 12:14:35 | 52.78758 | 11.90393 | 161° | 11km/h | 27041m | 6.1m/s | -46.9°C | 0% | 19.4hPa | 2.6V | 03:33:24 | 02:06:53 | 00:00:00 | |
| SMARD9-15 | 2026-09-04 12:14:35 | 52.78760 | 11.90391 | 157° | 9km/h | 27035m | 5.5m/s | -46.9°C | 0.3% | 19.5hPa | 2.6V | 00:00:00 | 00:00:00 | 00:00:00 | |
| DM0DOS-11 | 2026-09-04 12:14:34 | 52.78763 | 11.90365 | 70° | 16km/h | 27008m | 3.8m/s | -46.9°C | 2.5% | 19.6hPa | 2.6V | 03:33:16 | 02:06:47 | 00:00:00 | |
| BIOWL1-15 | 2026-09-04 12:14:31 | 52.78763 | 11.90365 | 70° | 16km/h | 27008m | 3.8m/s | -46.9°C | 0% | 19.6hPa | 2.6V | 03:33:24 | 02:06:47 | 00:00:00 | |
| DL1XH-15 | 2026-09-04 12:14:30 | 52.78761 | 11.90359 | 232° | 11km/h | 26985m | 5.4m/s | -46.8°C | 2.5% | 19.6hPa | 2.7V | 03:33:20 | 02:06:43 | 00:00:00 | |
| DL1XH1-15 | 2026-09-04 12:14:29 | 52.78763 | 11.90363 | 213° | 15km/h | 26979m | 5.5m/s | -46.9°C | 2.5% | 19.6hPa | 2.7V | 03:33:21 | 02:06:42 | 00:00:00 | |
| AA1-15 | 2026-09-04 12:14:28 | 52.78762 | 11.90359 | 59° | 13km/h | 27003m | 5.7m/s | -47°C | 0% | 19.6hPa | 2.6V | 03:33:24 | 02:06:46 | 00:00:00 | |
| DO2SHX-10 | 2026-09-04 12:14:27 | 52.78760 | 11.90356 | 36° | 7km/h | 26997m | 6.6m/s | -46.8°C | 2.6% | 19.6hPa | 2.7V | 00:00:00 | 02:06:45 | 00:00:00 | |
| DB0DAN | 2026-09-04 12:14:25 | 52.78760 | 11.90359 | 233° | 9km/h | 26985m | 5.4m/s | -46.8°C | 0.3% | 19.59hPa | 2.7V | 00:00:00 | 00:00:00 | 00:00:00 | |
| HSKMA3-T | 2026-09-04 12:14:24 | 52.78763 | 11.90363 | 214° | 15km/h | 26979m | 5.5m/s | -46.9°C | 0% | 19.6hPa | 2.7V | 03:33:24 | 02:06:42 | 00:00:00 | |
| DO2SHX-10 | 2026-09-04 12:14:24 | 52.78762 | 11.90362 | 214° | 18km/h | 26979m | 5.4m/s | -46.8°C | 2.5% | 19.6hPa | 2.7V | 00:00:00 | 02:06:42 | 00:00:00 | |
| DL1NUX | 2026-09-04 12:14:22 | 52.78796 | 11.90350 | 156° | 13km/h | 26938m | 5.8m/s | -46.8°C | 2.5% | 19.8hPa | 2.6V | 03:33:28 | 02:06:35 | 00:00:00 | |
| DF8AY | 2026-09-04 12:14:21 | 52.78777 | 11.90364 | 163° | 24km/h | 26960m | 5.6m/s | -46.8°C | 0% | 19.7hPa | 2.6V | 03:33:24 | 02:06:39 | 00:00:00 | |
| DO2SHX-10 | 2026-09-04 12:14:21 | 52.78777 | 11.90364 | 164° | 24km/h | 26961m | 5.6m/s | -46.7°C | 2.5% | 19.6hPa | 2.7V | 03:33:00 | 02:06:39 | 00:00:00 | |
| DL1XH-15 | 2026-09-04 12:14:20 | 52.78800 | 11.90347 | 129° | 4km/h | 26928m | 5.3m/s | -46.7°C | 2.5% | 19.8hPa | 2.7V | 03:33:30 | 02:06:33 | 00:00:00 | |
| BIOWL1-15 | 2026-09-04 12:14:18 | 52.78793 | 11.90353 | 155° | 20km/h | 26944m | 5.9m/s | -46.8°C | 0% | 19.7hPa | 2.7V | 03:34:15 | 02:06:36 | 00:00:00 | |
| DL1XH1-15 | 2026-09-04 12:14:17 | 52.78800 | 11.90345 | 82° | 5km/h | 26921m | 6.5m/s | -46.8°C | 2.4% | 19.8hPa | 2.7V | 03:33:31 | 02:06:32 | 00:00:00 | |
| HSKMA3-T | 2026-09-04 12:14:15 | 52.78800 | 11.90345 | 82° | 5km/h | 26922m | 6.5m/s | -46.8°C | 0% | 19.8hPa | 2.7V | 03:34:15 | 02:06:32 | 00:00:00 | |
| GOEST3-10 | 2026-09-04 12:14:14 | 52.78800 | 11.90345 | 83° | 7km/h | 26922m | 6.4m/s | -46.8°C | 2.4% | 19.7hPa | 2.7V | 00:00:00 | 02:06:32 | 00:00:00 | |
| DM0DOS-11 | 2026-09-04 12:14:13 | 52.78801 | 11.90330 | 151° | 4km/h | 26894m | 6.4m/s | -46.9°C | 2.5% | 19.9hPa | 2.7V | 03:33:36 | 02:06:27 | 00:00:00 | |
| DL1NUX | 2026-09-04 12:14:12 | 52.78804 | 11.90331 | 201° | 11km/h | 26882m | 5.4m/s | -47°C | 2.6% | 19.9hPa | 2.6V | 03:33:38 | 02:06:25 | 00:00:00 | |
| DF8AY | 2026-09-04 12:14:11 | 52.78799 | 11.90335 | 95° | 9km/h | 26904m | 4.5m/s | -46.9°C | 0% | 19.9hPa | 2.6V | 03:34:15 | 02:06:29 | 00:00:00 | |
| DB0DAN | 2026-09-04 12:14:10 | 52.78800 | 11.90332 | 111° | 5km/h | 26900m | 4.9m/s | -46.9°C | 0.3% | 19.89hPa | 2.7V | 00:00:00 | 00:00:00 | 00:00:00 | |
| SP3WXH-11 | 2026-09-04 12:14:10 | 52.78801 | 11.90330 | 151° | 4km/h | 26894m | 6.4m/s | -46.9°C | 0.2% | 19.9hPa | 2.7V | 00:00:00 | 00:00:00 | 00:00:00 | |
| DL1XH1-15 | 2026-09-04 12:14:09 | 52.78813 | 11.90332 | 166° | 15km/h | 26864m | 4.6m/s | -47°C | 2.5% | 20hPa | 2.7V | 03:33:41 | 02:06:22 | 00:00:00 | |
| BIOWL1-15 | 2026-09-04 12:14:07 | 52.78804 | 11.90331 | 202° | 11km/h | 26882m | 5.4m/s | -47°C | 0% | 19.9hPa | 2.6V | 03:34:15 | 02:06:25 | 00:00:00 | |
| DL1XH-west | 2026-09-04 12:14:05 | 52.78813 | 11.90332 | 166° | 15km/h | 26864m | 4.6m/s | -47°C | 0% | 20hPa | 2.7V | 03:34:15 | 02:06:22 | 00:00:00 | |
| HSKMA3-T | 2026-09-04 12:14:04 | 52.78817 | 11.90330 | 166° | 15km/h | 26859m | 5.3m/s | -47°C | 0% | 20hPa | 2.7V | 03:34:15 | 02:06:21 | 00:00:00 | |
| DO2SHX-10 | 2026-09-04 12:14:03 | 52.78817 | 11.90330 | 166° | 15km/h | 26860m | 5.2m/s | -46.9°C | 2.5% | 20.0hPa | 2.7V | 00:00:00 | 02:06:21 | 00:00:00 | |
| DL1NUX | 2026-09-04 12:14:02 | 52.78837 | 11.90322 | 143° | 16km/h | 26824m | 5.2m/s | -47°C | 2.6% | 20.1hPa | 2.7V | 03:33:48 | 02:06:15 | 00:00:00 | |
| DF8AY | 2026-09-04 12:14:00 | 52.78827 | 11.90328 | 177° | 13km/h | 26841m | 5.2m/s | -47°C | 0% | 20.1hPa | 2.6V | 03:34:15 | 02:06:18 | 00:00:00 | |
| AA1-15 | 2026-09-04 12:13:56 | 52.78840 | 11.90318 | 146° | 16km/h | 26819m | 4.4m/s | -47.1°C | 0% | 20.1hPa | 2.7V | 03:34:15 | 02:06:14 | 00:00:00 | |
| DL1ZP-14 | 2026-09-04 12:13:56 | 52.78843 | 11.90315 | 155° | 15km/h | 26814m | 6.3m/s | -47.0°C | 0.3% | 20.1hPa | 2.7V | 00:00:00 | 00:00:00 | 00:00:00 | |
| DB0DAN | 2026-09-04 12:13:55 | 52.78843 | 11.90315 | 156° | 15km/h | 26813m | 6.3m/s | -47°C | 0.3% | 20.11hPa | 2.7V | 00:00:00 | 00:00:00 | 00:00:00 | |
| DL1XH-west | 2026-09-04 12:13:55 | 52.78847 | 11.90313 | 172° | 15km/h | 26807m | 6.4m/s | -47°C | 0% | 20.2hPa | 2.7V | 03:34:15 | 02:06:12 | 00:00:00 | |
| HSKMA3-T | 2026-09-04 12:13:52 | 52.78854 | 11.90313 | 181° | 15km/h | 26796m | 5.1m/s | -47°C | 0% | 20.2hPa | 2.6V | 03:34:15 | 02:06:10 | 00:00:00 | |
| DF8AY | 2026-09-04 12:13:49 | 52.78866 | 11.90308 | 150° | 16km/h | 26778m | 5.4m/s | -47°C | 0% | 20.2hPa | 2.7V | 03:34:15 | 02:06:07 | 00:00:00 | |
| AA1-15 | 2026-09-04 12:13:46 | 52.78876 | 11.90299 | 157° | 9km/h | 26754m | 5.5m/s | -47.3°C | 0% | 20.4hPa | 2.6V | 03:34:15 | 02:06:03 | 00:00:00 | |
| BIOWL1-15 | 2026-09-04 12:13:46 | 52.78874 | 11.90301 | 162° | 9km/h | 26759m | 5.8m/s | -47.2°C | 0% | 20.3hPa | 2.6V | 03:34:15 | 02:06:04 | 00:00:00 | |
| DL1XH-west | 2026-09-04 12:13:44 | 52.78880 | 11.90295 | 138° | 13km/h | 26741m | 6.3m/s | -47.3°C | 0% | 20.4hPa | 2.7V | 03:34:15 | 02:06:01 | 00:00:00 | |
| SONCRA | 2026-09-04 12:13:44 | 52.78878 | 11.90298 | 148° | 9km/h | 26748m | 6.3m/s | -47.4°C | 0.3% | 20.4hPa | 2.7V | 00:00:00 | 00:00:00 | 00:00:00 | |
| HSKMA3-T | 2026-09-04 12:13:43 | 52.78883 | 11.90291 | 139° | 15km/h | 26736m | 4.8m/s | -47.4°C | 0% | 20.4hPa | 2.7V | 03:34:15 | 02:06:00 | 00:00:00 | |
| DB0NH | 2026-09-04 12:13:42 | 52.78883 | 11.90291 | 140° | 15km/h | 26736m | 4.7m/s | -47.3°C | 2.5% | 20.3hPa | 2.7V | 00:00:00 | 02:06:00 | 00:00:00 | |
| TFSTFS | 2026-09-04 12:13:41 | 52.78882 | 11.90291 | 140° | 15km/h | 26736m | 4.8m/s | -47.4°C | 0.3% | 20.4hPa | 2.7V | 03:34:00 | 00:00:00 | 00:00:00 | |
| DB0DAN | 2026-09-04 12:13:40 | 52.78889 | 11.90286 | 163° | 13km/h | 26725m | 6.8m/s | -47.3°C | 0.3% | 20.42hPa | 2.7V | 00:00:00 | 00:00:00 | 00:00:00 | |
| DM0DOS-11 | 2026-09-04 12:13:40 | 52.78892 | 11.90284 | 175° | 15km/h | 26719m | 5.7m/s | -47.3°C | 2.6% | 20.4hPa | 2.6V | 03:34:06 | 02:05:57 | 00:00:00 | |
| DF8AY | 2026-09-04 12:13:38 | 52.78896 | 11.90284 | 173° | 15km/h | 26714m | 4.4m/s | -47.2°C | 0% | 20.4hPa | 2.6V | 03:34:15 | 02:05:56 | 00:00:00 | |
| AA1-15 | 2026-09-04 12:13:36 | 52.78903 | 11.90279 | 149° | 18km/h | 26702m | 7.3m/s | -47.3°C | 0% | 20.5hPa | 2.7V | 03:34:15 | 02:05:54 | 00:00:00 | |
| DL1XH-west | 2026-09-04 12:13:34 | 52.78914 | 11.90265 | 139° | 16km/h | 26684m | 6.6m/s | -47.3°C | 0% | 20.5hPa | 2.7V | 03:34:15 | 02:05:51 | 00:00:00 | |
| HSKMA3-T | 2026-09-04 12:13:32 | 52.78919 | 11.90257 | 136° | 13km/h | 26672m | 5.1m/s | -47.3°C | 0% | 20.6hPa | 2.6V | 03:34:15 | 02:05:49 | 00:00:00 | |
| DM0DOS-11 | 2026-09-04 12:13:30 | 52.78923 | 11.90247 | 114° | 15km/h | 26659m | 6.6m/s | -47.3°C | 2.6% | 20.6hPa | 2.7V | 03:34:16 | 02:05:47 | 00:00:00 | |
| DF8AY | 2026-09-04 12:13:28 | 52.78925 | 11.90241 | 106° | 15km/h | 26653m | 5.4m/s | -47.3°C | 0% | 20.7hPa | 2.7V | 03:35:06 | 02:05:46 | 00:00:00 | |
| AA1-15 | 2026-09-04 12:13:26 | 52.78927 | 11.90228 | 128° | 7km/h | 26635m | 6.1m/s | -47.4°C | 0% | 20.7hPa | 2.6V | 03:35:06 | 02:05:43 | 00:00:00 | |
| SO1NDE-10 | 2026-09-04 12:13:26 | 52.78926 | 11.90231 | 109° | 13km/h | 26642m | 6.7m/s | -47.3°C | 2.6% | 20.6hPa | 2.7V | 03:34:00 | 02:05:44 | 00:00:00 | |
| DL1XH-15 | 2026-09-04 12:13:25 | 52.78928 | 11.90227 | 143° | 5km/h | 26629m | 5.4m/s | -47.3°C | 2.6% | 20.7hPa | 2.6V | 03:34:21 | 02:05:42 | 00:00:00 | |
| DB0DAN | 2026-09-04 12:13:25 | 52.78927 | 11.90228 | 127° | 5km/h | 26635m | 6.1m/s | -47.4°C | 0.3% | 20.69hPa | 2.6V | 00:00:00 | 00:00:00 | 00:00:00 | |
| BIOWL1-15 | 2026-09-04 12:13:22 | 52.78931 | 11.90221 | 117° | 11km/h | 26618m | 7m/s | -47.4°C | 0% | 20.7hPa | 2.7V | 03:35:06 | 02:05:40 | 00:00:00 | |
| HSKMA3-T | 2026-09-04 12:13:21 | 52.78932 | 11.90216 | 108° | 16km/h | 26611m | 6.5m/s | -47.4°C | 0% | 20.8hPa | 2.7V | 03:35:06 | 02:05:39 | 00:00:00 | |
| DB0UT-7 | 2026-09-04 12:13:21 | 52.78932 | 11.90216 | 109° | 15km/h | 26612m | 6.4m/s | -47.4°C | 2.5% | 20.7hPa | 2.6V | 03:34:00 | 02:05:39 | 00:00:00 | |
| DM0DOS-11 | 2026-09-04 12:13:20 | 52.78935 | 11.90201 | 102° | 18km/h | 26600m | 6.5m/s | -47.5°C | 2.6% | 20.8hPa | 2.6V | 03:34:26 | 02:05:37 | 00:00:00 | |
| DF8AY | 2026-09-04 12:13:18 | 52.78936 | 11.90194 | 104° | 16km/h | 26593m | 6.6m/s | -47.5°C | 0% | 20.8hPa | 2.6V | 03:35:06 | 02:05:36 | 00:00:00 | |
| DO2SHX-10 | 2026-09-04 12:13:18 | 52.78936 | 11.90194 | 105° | 16km/h | 26593m | 6.6m/s | -47.5°C | 2.6% | 20.8hPa | 2.7V | 00:00:00 | 02:05:36 | 00:00:00 | |
| DD8BA-10 | 2026-09-04 12:13:16 | 52.78936 | 11.90180 | 90° | 15km/h | 26582m | 5.2m/s | -47.5°C | 2.6% | 20.8hPa | 2.7V | 00:00:00 | 00:00:00 | 00:00:00 | |
| DL1XH-15 | 2026-09-04 12:13:15 | 52.78936 | 11.90165 | 78° | 20km/h | 26569m | 6m/s | -47.6°C | 2.6% | 20.9hPa | 2.6V | 03:34:31 | 02:05:32 | 00:00:00 | |
| AA1-15 | 2026-09-04 12:13:15 | 52.78936 | 11.90173 | 85° | 20km/h | 26576m | 7m/s | -47.6°C | 0% | 20.9hPa | 2.7V | 03:35:06 | 02:05:33 | 00:00:00 | |
| DO2SHX-10 | 2026-09-04 12:13:15 | 52.78936 | 11.90173 | 86° | 20km/h | 26576m | 6.9m/s | -47.6°C | 2.7% | 20.8hPa | 2.6V | 00:00:00 | 02:05:33 | 00:00:00 | |
| DM0DOS-11 | 2026-09-04 12:13:14 | 52.78929 | 11.90140 | 55° | 9km/h | 26540m | 4m/s | -47.6°C | 2.6% | 21hPa | 2.6V | 03:34:36 | 02:05:27 | 00:00:00 | |
| BIOWL1-15 | 2026-09-04 12:13:11 | 52.78932 | 11.90146 | 60° | 11km/h | 26551m | 6.7m/s | -47.6°C | 0% | 21hPa | 2.7V | 03:35:06 | 02:05:29 | 00:00:00 | |
| DB0DAN | 2026-09-04 12:13:10 | 52.78930 | 11.90143 | 45° | 7km/h | 26545m | 5.5m/s | -47.6°C | 0.4% | 20.99hPa | 2.7V | 00:00:00 | 00:00:00 | 00:00:00 | |
| HSKMA3-T | 2026-09-04 12:13:10 | 52.78930 | 11.90143 | 45° | 7km/h | 26545m | 5.5m/s | -47.6°C | 0% | 21hPa | 2.7V | 03:35:06 | 02:05:28 | 00:00:00 | |
| DF8AY | 2026-09-04 12:13:07 | 52.78927 | 11.90131 | 73° | 16km/h | 26529m | 6.5m/s | -47.6°C | 0% | 21hPa | 2.6V | 03:35:06 | 02:05:25 | 00:00:00 | |
| AA1-15 | 2026-09-04 12:13:05 | 52.78924 | 11.90116 | 73° | 22km/h | 26518m | 4.9m/s | -47.7°C | 0% | 21.1hPa | 2.7V | 03:35:06 | 02:05:23 | 00:00:00 | |
| DO3MHA-11 | 2026-09-04 12:13:05 | 52.78924 | 11.90116 | 73° | 13km/h | 26518m | 4.9m/s | -47.6°C | 2.7% | 21.0hPa | 2.7V | 00:00:00 | 02:05:23 | 00:00:00 | |
| GOEST3-10 | 2026-09-04 12:13:04 | 52.78922 | 11.90108 | 69° | 13km/h | 26512m | 5.6m/s | -47.7°C | 2.6% | 21.1hPa | 2.7V | 00:00:00 | 02:05:22 | 00:00:00 | |
| DO2SHX-10 | 2026-09-04 12:13:03 | 52.78920 | 11.90101 | 64° | 11km/h | 26507m | 6.2m/s | -47.7°C | 2.7% | 21.1hPa | 2.7V | 00:00:00 | 02:05:21 | 00:00:00 | |
| DM0DOS-11 | 2026-09-04 12:13:02 | 52.78915 | 11.90087 | 77° | 9km/h | 26483m | 6.1m/s | -47.7°C | 2.6% | 21.2hPa | 2.7V | 03:34:46 | 02:05:17 | 00:00:00 | |
| DL1NUX | 2026-09-04 12:13:02 | 52.78915 | 11.90078 | 70° | 11km/h | 26472m | 5.5m/s | -47.7°C | 2.6% | 21.2hPa | 2.7V | 03:34:48 | 02:05:15 | 00:00:00 | |
| BIOWL1-15 | 2026-09-04 12:13:01 | 52.78917 | 11.90093 | 52° | 9km/h | 26495m | 4.9m/s | -47.8°C | 0% | 21.2hPa | 2.6V | 03:35:06 | 02:05:19 | 00:00:00 | |
| HSKMA3-T | 2026-09-04 12:12:59 | 52.78916 | 11.90087 | 78° | 9km/h | 26483m | 6.1m/s | -47.7°C | 0% | 21.2hPa | 2.7V | 03:35:06 | 02:05:17 | 00:00:00 | |
| DF8AY | 2026-09-04 12:12:57 | 52.78914 | 11.90078 | 70° | 11km/h | 26472m | 5.5m/s | -47.7°C | 0% | 21.2hPa | 2.7V | 03:35:06 | 02:05:15 | 00:00:00 | |
| AA1-15 | 2026-09-04 12:12:55 | 52.78911 | 11.90071 | 32° | 11km/h | 26459m | 6.7m/s | -47.7°C | 0% | 21.2hPa | 2.6V | 03:35:06 | 02:05:13 | 00:00:00 | |
| DB0DAN | 2026-09-04 12:12:55 | 52.78911 | 11.90071 | 32° | 11km/h | 26459m | 6.7m/s | -47.7°C | 0.3% | 21.24hPa | 2.6V | 00:00:00 | 00:00:00 | 00:00:00 | |
| DO2SHX-10 | 2026-09-04 12:12:54 | 52.78909 | 11.90069 | 27° | 15km/h | 26453m | 5.4m/s | -47.7°C | 2.7% | 21.3hPa | 2.6V | 00:00:00 | 02:05:12 | 00:00:00 | |
| DL1NUX | 2026-09-04 12:12:52 | 52.78893 | 11.90038 | 43° | 11km/h | 26412m | 5.1m/s | -47.8°C | 2.7% | 21.4hPa | 2.6V | 03:34:58 | 02:05:05 | 00:00:00 | |
| DL1XH-west | 2026-09-04 12:12:51 | 52.78900 | 11.90058 | 57° | 16km/h | 26434m | 5.7m/s | -47.8°C | 0% | 21.4hPa | 2.7V | 03:35:06 | 02:05:09 | 00:00:00 | |
| DM0DOS-11 | 2026-09-04 12:12:51 | 52.78896 | 11.90047 | 58° | 15km/h | 26424m | 5.7m/s | -47.8°C | 2.6% | 21.4hPa | 2.7V | 03:34:56 | 02:05:07 | 00:00:00 | |
| BIOWL1-15 | 2026-09-04 12:12:49 | 52.78896 | 11.90047 | 58° | 15km/h | 26424m | 5.7m/s | -47.8°C | 0% | 21.4hPa | 2.7V | 03:35:06 | 02:05:07 | 00:00:00 | |
| HSKMA3-T | 2026-09-04 12:12:48 | 52.78895 | 11.90042 | 52° | 13km/h | 26418m | 6.5m/s | -47.9°C | 0% | 21.4hPa | 2.6V | 03:35:06 | 02:05:06 | 00:00:00 | |
| AA1-15 | 2026-09-04 12:12:45 | 52.78889 | 11.90032 | 55° | 11km/h | 26401m | 6.3m/s | -47.8°C | 0% | 21.5hPa | 2.7V | 03:35:06 | 02:05:03 | 00:00:00 | |
| GOEST3-10 | 2026-09-04 12:12:44 | 52.78887 | 11.90027 | 68° | 15km/h | 26395m | 7.0m/s | -47.7°C | 2.7% | 21.4hPa | 2.7V | 00:00:00 | 02:05:02 | 00:00:00 | |
| DL1NUX | 2026-09-04 12:12:42 | 52.78868 | 11.90000 | 18° | 13km/h | 26354m | 6m/s | -47.6°C | 2.5% | 21.6hPa | 2.7V | 03:35:08 | 02:04:55 | 00:00:00 | |
| DL1XH-west | 2026-09-04 12:12:41 | 52.78879 | 11.90006 | 31° | 15km/h | 26371m | 7m/s | -47.7°C | 0% | 21.6hPa | 2.6V | 03:35:06 | 02:04:58 | 00:00:00 | |
| DB0DAN | 2026-09-04 12:12:40 | 52.78879 | 11.90006 | 31° | 15km/h | 26371m | 7m/s | -47.7°C | 0.3% | 21.56hPa | 2.6V | 00:00:00 | 00:00:00 | 00:00:00 | |
| BIOWL1-15 | 2026-09-04 12:12:38 | 52.78872 | 11.90002 | 10° | 16km/h | 26360m | 4.7m/s | -47.7°C | 0% | 21.6hPa | 2.7V | 03:35:57 | 02:04:56 | 00:00:00 | |
| HSKMA3-T | 2026-09-04 12:12:37 | 52.78868 | 11.90000 | 19° | 13km/h | 26354m | 6m/s | -47.7°C | 0% | 21.6hPa | 2.7V | 03:35:57 | 02:04:55 | 00:00:00 | |
| DF8AY | 2026-09-04 12:12:35 | 52.78863 | 11.89995 | 56° | 11km/h | 26342m | 5.3m/s | -47.6°C | 0% | 21.6hPa | 2.6V | 03:35:57 | 02:04:53 | 00:00:00 | |
| AA1-15 | 2026-09-04 12:12:34 | 52.78862 | 11.89991 | 66° | 9km/h | 26336m | 5.2m/s | -47.7°C | 0% | 21.7hPa | 2.6V | 03:35:57 | 02:04:52 | 00:00:00 | |
| DO2SHX-10 | 2026-09-04 12:12:33 | 52.78861 | 11.89987 | 66° | 7km/h | 26330m | 7.1m/s | -47.6°C | 2.6% | 21.6hPa | 2.7V | 03:35:00 | 02:04:51 | 00:00:00 | |
| DL1NUX | 2026-09-04 12:12:32 | 52.78867 | 11.89970 | 132° | 7km/h | 26294m | 5.3m/s | -47.6°C | 2.5% | 21.8hPa | 2.7V | 03:35:18 | 02:04:45 | 00:00:00 | |
| DL1XH-west | 2026-09-04 12:12:31 | 52.78865 | 11.89972 | 139° | 13km/h | 26299m | 4.9m/s | -47.5°C | 0% | 21.8hPa | 2.6V | 03:35:57 | 02:04:46 | 00:00:00 | |
| BIOWL1-15 | 2026-09-04 12:12:26 | 52.78868 | 11.89968 | 79° | 2km/h | 26288m | 6.9m/s | -47.6°C | 0% | 21.8hPa | 2.7V | 03:35:57 | 02:04:44 | 00:00:00 | |
| DF8AY | 2026-09-04 12:12:25 | 52.78851 | 11.89962 | 51° | 4km/h | 26241m | 6.3m/s | -47.8°C | 0% | 22hPa | 2.7V | 03:35:57 | 02:04:36 | 00:00:00 | |
| DB0DAN | 2026-09-04 12:12:25 | 52.78867 | 11.89968 | 351° | 5km/h | 26281m | 6.6m/s | -47.6°C | 0.3% | 21.85hPa | 2.7V | 00:00:00 | 00:00:00 | 00:00:00 | |
| DL1ZP-14 | 2026-09-04 12:12:24 | 52.78861 | 11.89969 | 356° | 11km/h | 26271m | 5.7m/s | -47.7°C | 0.3% | 21.9hPa | 2.6V | 00:00:00 | 00:00:00 | 00:00:00 | |
| AA1-15 | 2026-09-04 12:12:24 | 52.78861 | 11.89969 | 356° | 13km/h | 26270m | 5.7m/s | -47.7°C | 0% | 21.9hPa | 2.6V | 03:35:57 | 02:04:41 | 00:00:00 | |
| DL1NUX | 2026-09-04 12:12:22 | 52.78851 | 11.89961 | 101° | 4km/h | 26235m | 5m/s | -47.8°C | 2.6% | 22hPa | 2.7V | 03:35:28 | 02:04:35 | 00:00:00 | |
| DL1XH-west | 2026-09-04 12:12:20 | 52.78853 | 11.89966 | 35° | 9km/h | 26253m | 5.3m/s | -47.9°C | 0% | 22hPa | 2.7V | 03:35:57 | 02:04:38 | 00:00:00 | |
| BIOWL1-15 | 2026-09-04 12:12:19 | 52.78853 | 11.89955 | 126° | 13km/h | 26223m | 7.3m/s | -47.8°C | 0% | 22.1hPa | 2.6V | 03:35:57 | 02:04:33 | 00:00:00 | |
| HSKMA3-T | 2026-09-04 12:12:16 | 52.78851 | 11.89958 | 121° | 9km/h | 26230m | 6m/s | -47.8°C | 0% | 22.1hPa | 2.6V | 03:35:57 | 02:04:34 | 00:00:00 | |
| DD8BA-10 | 2026-09-04 12:12:16 | 52.78851 | 11.89958 | 121° | 9km/h | 26230m | 5.9m/s | -47.8°C | 2.6% | 22.0hPa | 2.6V | 00:00:00 | 00:00:00 | 00:00:00 | |
| DL1XH-15 | 2026-09-04 12:12:15 | 52.78855 | 11.89950 | 128° | 15km/h | 26217m | 5.3m/s | -47.8°C | 2.6% | 22.1hPa | 2.6V | 03:35:31 | 02:04:32 | 00:00:00 | |
| DF8AY | 2026-09-04 12:12:14 | 52.78855 | 11.89950 | 129° | 15km/h | 26217m | 5.3m/s | -47.8°C | 0% | 22.1hPa | 2.6V | 03:35:57 | 02:04:32 | 00:00:00 | |
| DM0DOS-11 | 2026-09-04 12:12:14 | 52.78861 | 11.89936 | 136° | 4km/h | 26189m | 5.7m/s | -47.9°C | 2.6% | 22.2hPa | 2.6V | 03:35:36 | 02:04:27 | 00:00:00 | |
| AA1-15 | 2026-09-04 12:12:13 | 52.78857 | 11.89946 | 127° | 13km/h | 26212m | 4.2m/s | -47.8°C | 0% | 22.1hPa | 2.7V | 03:35:57 | 02:04:31 | 00:00:00 | |
| DL1NUX | 2026-09-04 12:12:12 | 52.78862 | 11.89933 | 135° | 7km/h | 26177m | 5.1m/s | -47.9°C | 2.6% | 22.2hPa | 2.7V | 03:35:38 | 02:04:25 | 00:00:00 | |
| DL1XH-west | 2026-09-04 12:12:10 | 52.78861 | 11.89935 | 131° | 5km/h | 26183m | 6.4m/s | -47.9°C | 0% | 22.2hPa | 2.7V | 03:35:57 | 02:04:26 | 00:00:00 | |
| DB0DAN | 2026-09-04 12:12:10 | 52.78860 | 11.89937 | 117° | 2km/h | 26195m | 5.8m/s | -47.9°C | 0.3% | 22.18hPa | 2.6V | 00:00:00 | 00:00:00 | 00:00:00 | |
| DO2SHX-10 | 2026-09-04 12:12:09 | 52.78861 | 11.89936 | 137° | 5km/h | 26189m | 5.7m/s | -47.9°C | 2.6% | 22.1hPa | 2.6V | 03:35:00 | 02:04:27 | 00:00:00 | |
| DL4BBY-15 | 2026-09-04 12:12:07 | 52.78862 | 11.89933 | 136° | 9km/h | 26177m | 5.0m/s | -47.7°C | 0% | 0hPa | 2.6V | 00:00:00 | 00:00:00 | 00:00:00 | |
| DO2SHX-10 | 2026-09-04 12:12:06 | 52.78864 | 11.89931 | 134° | 5km/h | 26172m | 4.4m/s | -47.9°C | 2.6% | 22.2hPa | 2.6V | 00:00:00 | 02:04:24 | 00:00:00 | |
| DL1XH-15 | 2026-09-04 12:12:05 | 52.78865 | 11.89927 | 120° | 4km/h | 26160m | 6.2m/s | -47.9°C | 2.6% | 22.3hPa | 2.6V | 03:35:41 | 02:04:22 | 00:00:00 | |
| HSKMA3-T | 2026-09-04 12:12:05 | 52.78865 | 11.89929 | 132° | 5km/h | 26167m | 5.9m/s | -48°C | 0% | 22.2hPa | 2.6V | 03:35:57 | 02:04:23 | 00:00:00 | |
| BIOWL1-15 | 2026-09-04 12:12:04 | 52.78866 | 11.89927 | 121° | 4km/h | 26160m | 6.3m/s | -47.9°C | 0% | 22.3hPa | 2.6V | 03:35:57 | 02:04:22 | 00:00:00 | |
| AA1-15 | 2026-09-04 12:12:03 | 52.78866 | 11.89926 | 111° | 4km/h | 26155m | 4.8m/s | -48°C | 0% | 22.3hPa | 2.7V | 03:35:57 | 02:04:21 | 00:00:00 | |
| DF8AY | 2026-09-04 12:12:02 | 52.78878 | 11.89900 | 138° | 16km/h | 26123m | 5.8m/s | -48.2°C | 0% | 22.4hPa | 2.7V | 03:35:57 | 02:04:15 | 00:00:00 | |
| DL1XH-west | 2026-09-04 12:12:00 | 52.78869 | 11.89916 | 127° | 15km/h | 26138m | 6.8m/s | -48.1°C | 0% | 22.3hPa | 2.6V | 03:35:57 | 02:04:18 | 00:00:00 | |
| SMARD9-15 | 2026-09-04 12:12:00 | 52.78872 | 11.89911 | 131° | 18km/h | 26132m | 5.1m/s | -48.1°C | 0.3% | 22.4hPa | 2.6V | 00:00:00 | 00:00:00 | 00:00:00 | |
| GOEST3-10 | 2026-09-04 12:11:59 | 52.78872 | 11.89911 | 132° | 15km/h | 26133m | 5.0m/s | -48.1°C | 2.7% | 22.3hPa | 2.6V | 00:00:00 | 00:00:00 | 00:00:00 | |
| DF7ER-10 | 2026-09-04 12:11:58 | 52.78872 | 11.89911 | 132° | 20km/h | 26133m | 5.1m/s | -48.1°C | 0.4% | 22.4hPa | 2.7V | 03:35:00 | 00:00:00 | 00:00:00 | |
| DO2SHX-10 | 2026-09-04 12:11:57 | 52.78878 | 11.89899 | 139° | 11km/h | 26123m | 5.7m/s | -48.2°C | 2.7% | 22.3hPa | 2.7V | 03:35:00 | 02:04:15 | 00:00:00 | |
| SO1NDE-10 | 2026-09-04 12:11:56 | 52.78881 | 11.89896 | 142° | 9km/h | 26117m | 6.0m/s | -48.3°C | 2.7% | 22.4hPa | 2.7V | 00:00:00 | 02:04:14 | 00:00:00 | |
| DL1XH-15 | 2026-09-04 12:11:55 | 52.78885 | 11.89893 | 177° | 5km/h | 26105m | 5.8m/s | -48.3°C | 2.7% | 22.4hPa | 2.7V | 03:35:51 | 02:04:12 | 00:00:00 | |
| DB0DAN | 2026-09-04 12:11:55 | 52.78883 | 11.89894 | 157° | 7km/h | 26111m | 6m/s | -48.3°C | 0.3% | 22.44hPa | 2.7V | 00:00:00 | 00:00:00 | 00:00:00 | |
| BIOWL1-15 | 2026-09-04 12:11:54 | 52.78885 | 11.89893 | 178° | 5km/h | 26105m | 5.8m/s | -48.3°C | 0% | 22.5hPa | 2.7V | 03:35:57 | 02:04:12 | 00:00:00 | |
| AA1-15 | 2026-09-04 12:11:53 | 52.78888 | 11.89893 | 174° | 9km/h | 26093m | 6.7m/s | -48.3°C | 0% | 22.5hPa | 2.6V | 03:35:57 | 02:04:10 | 00:00:00 | |
| DF8AY | 2026-09-04 12:11:52 | 52.78902 | 11.89882 | 139° | 11km/h | 26059m | 5.1m/s | -48.3°C | 0% | 22.6hPa | 2.6V | 03:36:48 | 02:04:04 | 00:00:00 | |
| DO2SHX-10 | 2026-09-04 12:11:51 | 52.78891 | 11.89892 | 165° | 11km/h | 26087m | 5.0m/s | -48.2°C | 2.7% | 22.5hPa | 2.6V | 00:00:00 | 02:04:09 | 00:00:00 | |
| DL1XH1-15 | 2026-09-04 12:11:49 | 52.78907 | 11.89875 | 144° | 16km/h | 26047m | 5.4m/s | -48.3°C | 2.6% | 22.7hPa | 2.7V | 03:36:01 | 02:04:02 | 00:00:00 | |
| HSKMA3-T | 2026-09-04 12:11:44 | 52.78908 | 11.89875 | 144° | 16km/h | 26047m | 5.4m/s | -48.3°C | 0% | 22.7hPa | 2.7V | 03:36:48 | 02:04:02 | 00:00:00 | |
| BIOWL1-15 | 2026-09-04 12:11:43 | 52.78911 | 11.89871 | 147° | 16km/h | 26042m | 4.6m/s | -48.2°C | 0% | 22.7hPa | 2.7V | 03:36:48 | 02:04:01 | 00:00:00 | |
| AA1-15 | 2026-09-04 12:11:42 | 52.78916 | 11.89865 | 143° | 7km/h | 26031m | 6.2m/s | -48.3°C | 0% | 22.7hPa | 2.6V | 03:36:48 | 02:03:59 | 00:00:00 | |
| TFSTFS | 2026-09-04 12:11:41 | 52.78914 | 11.89868 | 147° | 13km/h | 26038m | 5.1m/s | -48.3°C | 0.4% | 22.7hPa | 2.7V | 00:00:00 | 00:00:00 | 00:00:00 | |
| DB0DAN | 2026-09-04 12:11:40 | 52.78917 | 11.89864 | 132° | 4km/h | 26026m | 5.4m/s | -48.3°C | 0.4% | 22.71hPa | 2.7V | 00:00:00 | 00:00:00 | 00:00:00 | |
| DL1NUX | 2026-09-04 12:11:40 | 52.78918 | 11.89861 | 145° | 5km/h | 26009m | 6.2m/s | -48.4°C | 2.7% | 22.8hPa | 2.6V | 03:36:08 | 02:03:55 | 00:00:00 | |
| DF8AY | 2026-09-04 12:11:36 | 52.78920 | 11.89860 | 153° | 7km/h | 26003m | 5.2m/s | -48.3°C | 0% | 22.8hPa | 2.6V | 03:36:48 | 02:03:54 | 00:00:00 | |
| DD8BA-10 | 2026-09-04 12:11:36 | 52.78920 | 11.89860 | 153° | 7km/h | 26004m | 5.2m/s | -48.3°C | 2.7% | 22.8hPa | 2.7V | 00:00:00 | 00:00:00 | 00:00:00 | |
| DL1XH-15 | 2026-09-04 12:11:35 | 52.78923 | 11.89858 | 177° | 5km/h | 25993m | 6.2m/s | -48.5°C | 2.7% | 22.8hPa | 2.7V | 03:36:11 | 02:03:52 | 00:00:00 | |
| DL1XH-west | 2026-09-04 12:11:34 | 52.78923 | 11.89858 | 178° | 5km/h | 25993m | 6.2m/s | -48.5°C | 0% | 22.8hPa | 2.7V | 03:36:48 | 02:03:52 | 00:00:00 | |
| HSKMA3-T | 2026-09-04 12:11:34 | 52.78924 | 11.89859 | 201° | 5km/h | 25987m | 5.9m/s | -48.4°C | 0% | 22.9hPa | 2.7V | 03:36:48 | 02:03:51 | 00:00:00 | |
| BIOWL1-15 | 2026-09-04 12:11:32 | 52.78927 | 11.89860 | 187° | 7km/h | 25976m | 5.1m/s | -48.4°C | 0% | 22.9hPa | 2.7V | 03:36:48 | 02:03:49 | 00:00:00 | |
| DL1NUX | 2026-09-04 12:11:32 | 52.78937 | 11.89856 | 157° | 9km/h | 25954m | 5.6m/s | -48.3°C | 2.7% | 23hPa | 2.7V | 03:36:18 | 02:03:45 | 00:00:00 | |
| AA1-15 | 2026-09-04 12:11:31 | 52.78929 | 11.89860 | 172° | 9km/h | 25971m | 6.6m/s | -48.5°C | 0% | 22.9hPa | 2.6V | 03:36:48 | 02:03:48 | 00:00:00 | |
| DF8AY | 2026-09-04 12:11:26 | 52.78940 | 11.89855 | 239° | 2km/h | 25942m | 5.9m/s | -48.4°C | 0% | 23hPa | 2.7V | 03:36:48 | 02:03:43 | 00:00:00 | |
| DB0DAN | 2026-09-04 12:11:25 | 52.78940 | 11.89855 | 239° | 2km/h | 25942m | 5.9m/s | -48.4°C | 0.3% | 23.04hPa | 2.7V | 00:00:00 | 00:00:00 | 00:00:00 | |
| BIOWL1-15 | 2026-09-04 12:11:24 | 52.78941 | 11.89859 | 210° | 7km/h | 25926m | 6.4m/s | -48.7°C | 0% | 23.1hPa | 2.6V | 03:36:48 | 02:03:40 | 00:00:00 | |
| HSKMA3-T | 2026-09-04 12:11:23 | 52.78940 | 11.89857 | 245° | 4km/h | 25931m | 4.7m/s | -48.6°C | 0% | 23.1hPa | 2.6V | 03:36:48 | 02:03:41 | 00:00:00 | |
| AA1-15 | 2026-09-04 12:11:19 | 52.78949 | 11.89863 | 198° | 13km/h | 25908m | 6.3m/s | -48.6°C | 0% | 23.1hPa | 2.7V | 03:36:48 | 02:03:37 | 00:00:00 | |
| DL1NUX | 2026-09-04 12:11:19 | 52.78955 | 11.89867 | 200° | 13km/h | 25897m | 4.8m/s | -48.5°C | 2.8% | 23.2hPa | 2.7V | 03:36:28 | 02:03:35 | 00:00:00 | |
| DF8AY | 2026-09-04 12:11:15 | 52.78970 | 11.89860 | 48° | 4km/h | 25856m | 5.2m/s | -48.6°C | 0% | 23.3hPa | 2.6V | 03:36:48 | 02:03:28 | 00:00:00 | |
| DM0DOS-11 | 2026-09-04 12:11:14 | 52.78969 | 11.89858 | 53° | 4km/h | 25852m | 4.7m/s | -48.7°C | 2.6% | 23.4hPa | 2.6V | 03:36:36 | 02:03:27 | 00:00:00 | |
| HSKMA3-T | 2026-09-04 12:11:13 | 52.78967 | 11.89865 | 150° | 11km/h | 25874m | 5.1m/s | -48.7°C | 0% | 23.2hPa | 2.7V | 03:36:48 | 02:03:31 | 00:00:00 | |
| DL1NUX | 2026-09-04 12:11:12 | 52.78970 | 11.89855 | 146° | 7km/h | 25840m | 5.7m/s | -48.9°C | 2.7% | 23.4hPa | 2.7V | 03:36:38 | 02:03:25 | 00:00:00 | |
| BIOWL1-15 | 2026-09-04 12:11:12 | 52.78970 | 11.89855 | 146° | 7km/h | 25840m | 5.7m/s | -48.9°C | 0% | 23.4hPa | 2.7V | 03:36:48 | 02:03:25 | 00:00:00 | |
| DL1CLM-18 | 2026-09-04 12:11:11 | 52.78969 | 11.89862 | 136° | 7km/h | 25869m | 6.7m/s | -48.7°C | 0% | 23.3hPa | 2.6V | 03:36:00 | 00:00:00 | 00:00:00 | |
| DB0DAN | 2026-09-04 12:11:10 | 52.78970 | 11.89860 | 47° | 4km/h | 25856m | 5.2m/s | -48.6°C | 0.4% | 23.33hPa | 2.6V | 00:00:00 | 00:00:00 | 00:00:00 | |
| AA1-15 | 2026-09-04 12:11:08 | 52.78969 | 11.89857 | 106° | 4km/h | 25846m | 6.3m/s | -48.9°C | 0% | 23.4hPa | 2.7V | 03:36:48 | 02:03:26 | 00:00:00 | |
| DL4BBY-15 | 2026-09-04 12:11:07 | 52.78970 | 11.89855 | 147° | 9km/h | 25840m | 5.7m/s | -48.7°C | 0% | 0hPa | 2.6V | 00:00:00 | 00:00:00 | 00:00:00 | |
| DL4XJ-10 | 2026-09-04 12:11:06 | 52.78972 | 11.89854 | 166° | 11km/h | 25835m | 4.6m/s | -48.6°C | 0% | 0hPa | 2.6V | 00:00:00 | 00:00:00 | 00:00:00 | |
| DL1XH-15 | 2026-09-04 12:11:05 | 52.78977 | 11.89855 | 198° | 11km/h | 25824m | 6.4m/s | -48.9°C | 2.7% | 23.4hPa | 2.6V | 03:36:41 | 02:03:22 | 00:00:00 | |
| DO3MHA-11 | 2026-09-04 12:11:05 | 52.78974 | 11.89854 | 185° | 9km/h | 25830m | 5.0m/s | -48.8°C | 2.7% | 23.4hPa | 2.6V | 00:00:00 | 02:03:23 | 00:00:00 | |
| DM0DOS-11 | 2026-09-04 12:11:04 | 52.78989 | 11.89859 | 137° | 7km/h | 25791m | 4.8m/s | -49°C | 2.7% | 23.6hPa | 2.6V | 03:36:47 | 02:03:16 | 00:00:00 | |
| HSKMA3-T | 2026-09-04 12:11:03 | 52.78979 | 11.89857 | 217° | 11km/h | 25818m | 5.4m/s | -48.9°C | 0% | 23.5hPa | 2.6V | 03:36:48 | 02:03:21 | 00:00:00 | |
| DL1XH-west | 2026-09-04 12:11:02 | 52.78981 | 11.89859 | 216° | 11km/h | 25813m | 4.4m/s | -48.9°C | 0% | 23.5hPa | 2.7V | 03:36:48 | 02:03:20 | 00:00:00 | |
| BIOWL1-15 | 2026-09-04 12:11:01 | 52.78987 | 11.89861 | 152° | 7km/h | 25796m | 5.5m/s | -48.9°C | 0% | 23.6hPa | 2.7V | 03:36:48 | 02:03:17 | 00:00:00 | |
| DO2SHX-10 | 2026-09-04 12:11:00 | 52.78985 | 11.89862 | 179° | 7km/h | 25802m | 6.2m/s | -48.8°C | 2.7% | 23.5hPa | 2.6V | 00:00:00 | 02:03:18 | 00:00:00 | |
| DL1NUX | 2026-09-04 12:10:59 | 52.78990 | 11.89858 | 135° | 4km/h | 25786m | 5.5m/s | -49.1°C | 2.8% | 23.6hPa | 2.6V | 03:36:48 | 02:03:15 | 00:00:00 | |
| DF8AY | 2026-09-04 12:10:59 | 52.78990 | 11.89858 | 136° | 4km/h | 25786m | 5.5m/s | -49.1°C | 0% | 23.6hPa | 2.6V | 03:36:48 | 02:03:15 | 00:00:00 | |
| AA1-15 | 2026-09-04 12:10:58 | 52.78989 | 11.89859 | 137° | 7km/h | 25791m | 4.8m/s | -49°C | 0% | 23.6hPa | 2.6V | 03:36:48 | 02:03:16 | 00:00:00 | |
| HTAHTA | 2026-09-04 12:10:58 | 52.78989 | 11.89859 | 137° | 5km/h | 25791m | 4.8m/s | -49.0°C | 0.4% | 23.6hPa | 2.6V | 00:00:00 | 00:00:00 | 00:00:00 | |
| DO2SHX-10 | 2026-09-04 12:10:57 | 52.78990 | 11.89858 | 136° | 4km/h | 25786m | 5.5m/s | -49.0°C | 2.8% | 23.5hPa | 2.6V | 03:36:00 | 02:03:15 | 00:00:00 | |
| DB0DAN | 2026-09-04 12:10:55 | 52.78990 | 11.89859 | 283° | 5km/h | 25774m | 5.2m/s | -49°C | 0.4% | 23.61hPa | 2.7V | 00:00:00 | 00:00:00 | 00:00:00 | |
| DL1XH-west | 2026-09-04 12:10:52 | 52.78992 | 11.89866 | 204° | 11km/h | 25757m | 6.3m/s | -48.9°C | 0% | 23.7hPa | 2.7V | 03:37:39 | 02:03:10 | 00:00:00 | |
| DL1ZP-14 | 2026-09-04 12:10:50 | 52.79003 | 11.89872 | 199° | 18km/h | 25740m | 6.2m/s | -49.0°C | 0.3% | 23.8hPa | 2.6V | 00:00:00 | 00:00:00 | 00:00:00 | |
| DL1XH1-15 | 2026-09-04 12:10:49 | 52.79025 | 11.89870 | 144° | 16km/h | 25713m | 4.9m/s | -49.2°C | 2.7% | 23.9hPa | 2.6V | 03:37:01 | 02:03:02 | 00:00:00 | |
| BIOWL1-15 | 2026-09-04 12:10:49 | 52.79003 | 11.89872 | 199° | 18km/h | 25740m | 6.2m/s | -49°C | 0% | 23.8hPa | 2.6V | 03:37:39 | 02:03:07 | 00:00:00 | |
| DF8AY | 2026-09-04 12:10:47 | 52.79012 | 11.89876 | 186° | 18km/h | 25730m | 3.9m/s | -49°C | 0% | 23.8hPa | 2.7V | 03:37:39 | 02:03:05 | 00:00:00 | |
| EDDB2-11 | 2026-09-04 12:10:45 | 52.79025 | 11.89870 | 144° | 16km/h | 25713m | 4.9m/s | -49.2°C | 0.4% | 23.9hPa | 2.7V | 00:00:00 | 00:00:00 | 00:00:00 | |
| DL1XH-west | 2026-09-04 12:10:42 | 52.79030 | 11.89864 | 145° | 9km/h | 25703m | 6.5m/s | -49.4°C | 0% | 23.9hPa | 2.7V | 03:37:39 | 02:03:00 | 00:00:00 | |
| DO2SHX-10 | 2026-09-04 12:10:42 | 52.79030 | 11.89864 | 145° | 5km/h | 25703m | 6.5m/s | -49.4°C | 2.8% | 23.9hPa | 2.7V | 00:00:00 | 02:03:00 | 00:00:00 | |
| BIOWL9-15 | 2026-09-04 12:10:41 | 52.79031 | 11.89863 | 166° | 4km/h | 25697m | 5.7m/s | -49.5°C | 0.4% | 23.9hPa | 2.7V | 00:00:00 | 00:00:00 | 00:00:00 | |
| DM0DOS-11 | 2026-09-04 12:10:39 | 52.79034 | 11.89864 | 186° | 5km/h | 25680m | 6.3m/s | -49.5°C | 2.9% | 24hPa | 2.7V | 03:37:07 | 02:02:56 | 00:00:00 | |
| DO2SHX-10 | 2026-09-04 12:10:39 | 52.79033 | 11.89863 | 204° | 7km/h | 25686m | 5.8m/s | -49.4°C | 2.8% | 23.9hPa | 2.6V | 00:00:00 | 02:02:57 | 00:00:00 | |
| DL1XH-15 | 2026-09-04 12:10:38 | 52.79047 | 11.89869 | 199° | 18km/h | 25657m | 4.6m/s | -49.3°C | 2.8% | 24hPa | 2.6V | 03:37:11 | 02:02:52 | 00:00:00 | |
| BIOWL1-15 | 2026-09-04 12:10:38 | 52.79034 | 11.89864 | 186° | 5km/h | 25680m | 6.4m/s | -49.5°C | 0% | 24hPa | 2.7V | 03:37:39 | 02:02:56 | 00:00:00 | |
| AA1-15 | 2026-09-04 12:10:37 | 52.79036 | 11.89864 | 188° | 11km/h | 25674m | 5.4m/s | -49.4°C | 0% | 24hPa | 2.7V | 03:37:39 | 02:02:55 | 00:00:00 | |
| DF8AY | 2026-09-04 12:10:36 | 52.79047 | 11.89869 | 199° | 18km/h | 25657m | 4.6m/s | -49.3°C | 0% | 24hPa | 2.6V | 03:37:39 | 02:02:52 | 00:00:00 | |
| DD8BA-10 | 2026-09-04 12:10:36 | 52.79039 | 11.89865 | 194° | 16km/h | 25669m | 5.4m/s | -49.2°C | 2.8% | 24.0hPa | 2.6V | 00:00:00 | 00:00:00 | 00:00:00 | |
| DO3MHA-11 | 2026-09-04 12:10:35 | 52.79043 | 11.89867 | 201° | 16km/h | 25663m | 6.1m/s | -49.3°C | 2.8% | 24.0hPa | 2.6V | 03:37:00 | 02:02:53 | 00:00:00 | |
| GOEST3-10 | 2026-09-04 12:10:34 | 52.79047 | 11.89869 | 200° | 20km/h | 25658m | 4.6m/s | -49.3°C | 2.8% | 24.0hPa | 2.6V | 00:00:00 | 02:02:52 | 00:00:00 | |
| DM0DOS-11 | 2026-09-04 12:10:33 | 52.79074 | 11.89858 | 147° | 15km/h | 25627m | 4.9m/s | -49.6°C | 2.9% | 24.2hPa | 2.6V | 03:37:17 | 02:02:46 | 00:00:00 | |
| HSKMA3-T | 2026-09-04 12:10:32 | 52.79056 | 11.89872 | 176° | 20km/h | 25648m | 5.4m/s | -49.4°C | 0% | 24.1hPa | 2.7V | 03:37:39 | 02:02:50 | 00:00:00 | |
| DL1NUX | 2026-09-04 12:10:32 | 52.79079 | 11.89856 | 198° | 9km/h | 25615m | 5.5m/s | -49.4°C | 2.8% | 24.2hPa | 2.6V | 03:37:19 | 02:02:44 | 00:00:00 | |
| DL1XH-west | 2026-09-04 12:10:31 | 52.79061 | 11.89870 | 163° | 20km/h | 25643m | 6.4m/s | -49.5°C | 0% | 24.1hPa | 2.7V | 03:37:39 | 02:02:49 | 00:00:00 | |
| BIOWL1-15 | 2026-09-04 12:10:27 | 52.79077 | 11.89856 | 161° | 11km/h | 25621m | 6.1m/s | -49.5°C | 0% | 24.2hPa | 2.6V | 03:37:39 | 02:02:45 | 00:00:00 | |
| DF8AY | 2026-09-04 12:10:27 | 52.79079 | 11.89856 | 198° | 9km/h | 25615m | 5.5m/s | -49.4°C | 0% | 24.2hPa | 2.6V | 03:37:39 | 02:02:44 | 00:00:00 | |
| SMARD9-15 | 2026-09-04 12:10:27 | 52.79079 | 11.89856 | 198° | 7km/h | 25616m | 5.5m/s | -49.4°C | 0.3% | 24.2hPa | 2.7V | 00:00:00 | 00:00:00 | 00:00:00 | |
| DD8BA-10 | 2026-09-04 12:10:26 | 52.79079 | 11.89856 | 199° | 18km/h | 25616m | 5.5m/s | -49.3°C | 2.8% | 24.2hPa | 2.7V | 00:00:00 | 00:00:00 | 00:00:00 | |
| DL1XH-15 | 2026-09-04 12:10:25 | 52.79083 | 11.89860 | 213° | 11km/h | 25604m | 6.3m/s | -49.3°C | 2.8% | 24.3hPa | 2.7V | 03:37:21 | 02:02:42 | 00:00:00 | |
| DB0DAN | 2026-09-04 12:10:25 | 52.79081 | 11.89858 | 218° | 9km/h | 25610m | 5.4m/s | -49.3°C | 0.4% | 24.25hPa | 2.7V | 00:00:00 | 00:00:00 | 00:00:00 | |
| DL1XH-west | 2026-09-04 12:10:21 | 52.79095 | 11.89867 | 195° | 20km/h | 25589m | 4.5m/s | -49.3°C | 0% | 24.3hPa | 2.6V | 03:37:39 | 02:02:39 | 00:00:00 | |
| DO2SHX-10 | 2026-09-04 12:10:21 | 52.79095 | 11.89867 | 196° | 22km/h | 25589m | 4.4m/s | -49.3°C | 2.8% | 24.3hPa | 2.6V | 03:37:00 | 02:02:39 | 00:00:00 | |
| DL1XH1-15 | 2026-09-04 12:10:19 | 52.79134 | 11.89868 | 156° | 22km/h | 25551m | 3.8m/s | -49.7°C | 2.9% | 24.5hPa | 2.6V | 03:37:31 | 02:02:32 | 00:00:00 | |
| DL1NUX | 2026-09-04 12:10:19 | 52.79118 | 11.89876 | 179° | 24km/h | 25567m | 5.3m/s | -49.5°C | 2.8% | 24.4hPa | 2.7V | 03:37:28 | 02:02:35 | 00:00:00 | |
| BIOWL1-15 | 2026-09-04 12:10:16 | 52.79134 | 11.89868 | 157° | 22km/h | 25551m | 3.8m/s | -49.7°C | 0% | 24.5hPa | 2.6V | 03:37:39 | 02:02:32 | 00:00:00 | |
| AA1-15 | 2026-09-04 12:10:16 | 52.79129 | 11.89872 | 157° | 24km/h | 25555m | 4.8m/s | -49.6°C | 0% | 24.4hPa | 2.6V | 03:37:39 | 02:02:33 | 00:00:00 | |
| DF8AY | 2026-09-04 12:10:14 | 52.79139 | 11.89865 | 164° | 20km/h | 25547m | 5m/s | -49.6°C | 0% | 24.5hPa | 2.7V | 03:37:39 | 02:02:31 | 00:00:00 | |
| GOEST3-10 | 2026-09-04 12:10:14 | 52.79134 | 11.89868 | 157° | 20km/h | 25551m | 3.8m/s | -49.6°C | 2.9% | 24.4hPa | 2.6V | 00:00:00 | 02:02:32 | 00:00:00 | |
| EDDB2-11 | 2026-09-04 12:10:13 | 52.79139 | 11.89865 | 163° | 18km/h | 25547m | 5.0m/s | -49.6°C | 0.4% | 24.5hPa | 2.6V | 00:00:00 | 00:00:00 | 00:00:00 | |
| DB0NH | 2026-09-04 12:10:12 | 52.79143 | 11.89864 | 181° | 24km/h | 25542m | 5.8m/s | -49.5°C | 2.9% | 24.4hPa | 2.6V | 00:00:00 | 02:02:30 | 00:00:00 | |
| DM0DOS-11 | 2026-09-04 12:10:11 | 52.79163 | 11.89875 | 194° | 22km/h | 25521m | 6m/s | -49.7°C | 2.8% | 24.6hPa | 2.6V | 03:37:37 | 02:02:26 | 00:00:00 | |
| DB0DAN | 2026-09-04 12:10:10 | 52.79153 | 11.89868 | 205° | 20km/h | 25531m | 4.2m/s | -49.6°C | 0.4% | 24.55hPa | 2.6V | 00:00:00 | 00:00:00 | 00:00:00 | |
| DL1XH-west | 2026-09-04 12:10:10 | 52.79153 | 11.89868 | 205° | 20km/h | 25531m | 4.2m/s | -49.6°C | 0% | 24.6hPa | 2.6V | 03:37:39 | 02:02:28 | 00:00:00 | |
| BIOWL1-15 | 2026-09-04 12:10:06 | 52.79174 | 11.89877 | 176° | 24km/h | 25510m | 4.6m/s | -49.7°C | 0% | 24.6hPa | 2.7V | 03:37:39 | 02:02:24 | 00:00:00 | |
| AA1-15 | 2026-09-04 12:10:04 | 52.79186 | 11.89874 | 169° | 22km/h | 25499m | 5.8m/s | -49.8°C | 0% | 24.7hPa | 2.7V | 03:38:30 | 02:02:22 | 00:00:00 | |
| DF8AY | 2026-09-04 12:10:03 | 52.79196 | 11.89867 | 147° | 24km/h | 25490m | 4.6m/s | -50°C | 0% | 24.7hPa | 2.6V | 03:38:30 | 02:02:20 | 00:00:00 | |
| HSKMA3-T | 2026-09-04 12:10:00 | 52.79206 | 11.89854 | 139° | 27km/h | 25478m | 5.6m/s | -50°C | 0% | 24.8hPa | 2.7V | 03:38:30 | 02:02:18 | 00:00:00 | |
| DL1XH-west | 2026-09-04 12:10:00 | 52.79211 | 11.89847 | 144° | 27km/h | 25473m | 4.3m/s | -49.9°C | 0% | 24.8hPa | 2.7V | 03:38:30 | 02:02:17 | 00:00:00 | |
| DM0DOS-11 | 2026-09-04 12:09:59 | 52.79217 | 11.89841 | 153° | 24km/h | 25468m | 5.4m/s | -49.8°C | 2.9% | 24.7hPa | 2.7V | 03:37:47 | 02:02:16 | 00:00:00 | |
| DL1NUX | 2026-09-04 12:09:59 | 52.79222 | 11.89838 | 169° | 22km/h | 25462m | 6.5m/s | -49.8°C | 2.9% | 24.8hPa | 2.7V | 03:37:48 | 02:02:15 | 00:00:00 | |
| BIOWL1-15 | 2026-09-04 12:09:55 | 52.79234 | 11.89839 | 192° | 24km/h | 25452m | 4.5m/s | -49.9°C | 0% | 24.9hPa | 2.6V | 03:38:30 | 02:02:13 | 00:00:00 | |
| DB0DAN | 2026-09-04 12:09:55 | 52.79234 | 11.89839 | 192° | 24km/h | 25452m | 4.5m/s | -49.9°C | 0.5% | 24.85hPa | 2.6V | 00:00:00 | 00:00:00 | 00:00:00 | |
| AA1-15 | 2026-09-04 12:09:54 | 52.79247 | 11.89842 | 181° | 26km/h | 25441m | 5.1m/s | -49.9°C | 0% | 24.9hPa | 2.7V | 03:38:30 | 02:02:11 | 00:00:00 | |
| DF8AY | 2026-09-04 12:09:52 | 52.79259 | 11.89839 | 162° | 24km/h | 25431m | 4.9m/s | -49.9°C | 0% | 24.9hPa | 2.7V | 03:38:30 | 02:02:09 | 00:00:00 | |
| DL1NUX | 2026-09-04 12:09:52 | 52.79279 | 11.89827 | 162° | 24km/h | 25410m | 4.6m/s | -49.9°C | 2.8% | 25hPa | 2.6V | 03:37:58 | 02:02:05 | 00:00:00 | |
| HSKMA3-T | 2026-09-04 12:09:49 | 52.79269 | 11.89833 | 160° | 20km/h | 25421m | 5.9m/s | -49.8°C | 0% | 24.9hPa | 2.6V | 03:38:30 | 02:02:07 | 00:00:00 | |
| DL1XH-west | 2026-09-04 12:09:49 | 52.79273 | 11.89830 | 162° | 20km/h | 25415m | 5.1m/s | -49.8°C | 0% | 25hPa | 2.6V | 03:38:30 | 02:02:06 | 00:00:00 | |
| BIOWL1-15 | 2026-09-04 12:09:47 | 52.79292 | 11.89819 | 157° | 33km/h | 25399m | 5.8m/s | -49.8°C | 0% | 25hPa | 2.7V | 03:38:30 | 02:02:03 | 00:00:00 | |
| DJ2DS-15 | 2026-09-04 12:09:46 | 52.79285 | 11.89823 | 160° | 27km/h | 25405m | 5.5m/s | -49.9°C | 0.4% | 25.0hPa | 2.6V | 00:00:00 | 00:00:00 | 00:00:00 | |
| AA1-15 | 2026-09-04 12:09:43 | 52.79309 | 11.89807 | 158° | 37km/h | 25389m | 3.9m/s | -49.7°C | 0% | 25.1hPa | 2.6V | 03:38:30 | 02:02:01 | 00:00:00 | |
| DL1XH1-15 | 2026-09-04 12:09:42 | 52.79324 | 11.89799 | 167° | 27km/h | 25379m | 6.4m/s | -49.9°C | 2.9% | 25.1hPa | 2.7V | 03:38:04 | 02:01:59 | 00:00:00 | |
| DF8AY | 2026-09-04 12:09:41 | 52.79330 | 11.89798 | 180° | 24km/h | 25373m | 5.8m/s | -49.9°C | 0% | 25.1hPa | 2.7V | 03:38:30 | 02:01:58 | 00:00:00 | |
| DB0DAN | 2026-09-04 12:09:40 | 52.79330 | 11.89798 | 180° | 22km/h | 25373m | 5.8m/s | -49.9°C | 0.4% | 25.13hPa | 2.7V | 00:00:00 | 00:00:00 | 00:00:00 | |
| DL1NUX | 2026-09-04 12:09:39 | 52.79347 | 11.89802 | 188° | 24km/h | 25358m | 5.1m/s | -49.5°C | 2.9% | 25.2hPa | 2.6V | 03:38:08 | 02:01:55 | 00:00:00 | |
| HSKMA3-T | 2026-09-04 12:09:38 | 52.79341 | 11.89800 | 193° | 22km/h | 25364m | 5.1m/s | -49.6°C | 0% | 25.2hPa | 2.6V | 03:38:30 | 02:01:56 | 00:00:00 | |
| DL1XH-west | 2026-09-04 12:09:38 | 52.79347 | 11.89802 | 189° | 24km/h | 25358m | 5.1m/s | -49.6°C | 0% | 25.2hPa | 2.6V | 03:38:30 | 02:01:55 | 00:00:00 | |
| DL1XH-15 | 2026-09-04 12:09:37 | 52.79376 | 11.89803 | 176° | 29km/h | 25336m | 6.2m/s | -49.7°C | 2.8% | 25.3hPa | 2.7V | 03:38:12 | 02:01:51 | 00:00:00 | |
| BIOWL1-15 | 2026-09-04 12:09:34 | 52.79368 | 11.89803 | 179° | 31km/h | 25342m | 5.6m/s | -49.6°C | 0% | 25.2hPa | 2.7V | 03:38:30 | 02:01:52 | 00:00:00 | |
| AA1-15 | 2026-09-04 12:09:32 | 52.79383 | 11.89802 | 171° | 31km/h | 25331m | 4.3m/s | -49.8°C | 0% | 25.3hPa | 2.7V | 03:38:30 | 02:01:50 | 00:00:00 | |
| DL1NUX | 2026-09-04 12:09:32 | 52.79422 | 11.89773 | 149° | 31km/h | 25305m | 4.8m/s | -49.7°C | 2.8% | 25.4hPa | 2.7V | 03:38:18 | 02:01:45 | 00:00:00 | |
| DF8AY | 2026-09-04 12:09:30 | 52.79399 | 11.89794 | 157° | 35km/h | 25321m | 6.4m/s | -49.8°C | 0% | 25.4hPa | 2.6V | 03:38:30 | 02:01:48 | 00:00:00 | |
| HSKMA3-T | 2026-09-04 12:09:27 | 52.79422 | 11.89772 | 150° | 31km/h | 25305m | 4.9m/s | -49.7°C | 0% | 25.4hPa | 2.7V | 03:38:30 | 02:01:45 | 00:00:00 | |
| DL1XH-west | 2026-09-04 12:09:26 | 52.79429 | 11.89767 | 153° | 26km/h | 25300m | 6.4m/s | -49.6°C | 0% | 25.4hPa | 2.7V | 03:38:30 | 02:01:44 | 00:00:00 | |
| BIOWL1-15 | 2026-09-04 12:09:26 | 52.79440 | 11.89761 | 174° | 20km/h | 25289m | 4.9m/s | -49.6°C | 0% | 25.5hPa | 2.6V | 03:38:30 | 02:01:42 | 00:00:00 | |
| SO1NDE-10 | 2026-09-04 12:09:26 | 52.79429 | 11.89767 | 154° | 27km/h | 25300m | 6.3m/s | -49.6°C | 2.8% | 25.4hPa | 2.6V | 03:38:00 | 02:01:44 | 00:00:00 | |
| DO3MHA-11 | 2026-09-04 12:09:25 | 52.79434 | 11.89763 | 165° | 27km/h | 25294m | 5.2m/s | -49.5°C | 2.8% | 25.4hPa | 2.6V | 00:00:00 | 02:01:43 | 00:00:00 | |
| DB0DAN | 2026-09-04 12:09:25 | 52.79434 | 11.89763 | 165° | 20km/h | 25294m | 5.3m/s | -49.6°C | 0.4% | 25.48hPa | 2.7V | 00:00:00 | 00:00:00 | 00:00:00 | |
| DL1XH-15 | 2026-09-04 12:09:24 | 52.79445 | 11.89761 | 176° | 24km/h | 25284m | 5.4m/s | -49.7°C | 2.8% | 25.5hPa | 2.6V | 03:38:22 | 02:01:41 | 00:00:00 | |
| AA1-15 | 2026-09-04 12:09:22 | 52.79451 | 11.89760 | 173° | 27km/h | 25279m | 5.3m/s | -49.8°C | 0% | 25.5hPa | 2.6V | 03:38:30 | 02:01:40 | 00:00:00 | |
| DF8AY | 2026-09-04 12:09:20 | 52.79480 | 11.89745 | 155° | 29km/h | 25259m | 6.2m/s | -50.2°C | 0% | 25.6hPa | 2.6V | 03:38:30 | 02:01:36 | 00:00:00 | |
| GOEST3-10 | 2026-09-04 12:09:19 | 52.79473 | 11.89750 | 159° | 29km/h | 25265m | 5.0m/s | -50.1°C | 2.9% | 25.5hPa | 2.6V | 00:00:00 | 00:00:00 | 00:00:00 | |
| DL1XH-15 | 2026-09-04 12:09:18 | 52.79513 | 11.89711 | 143° | 35km/h | 25231m | 4.7m/s | -50.1°C | 2.9% | 25.7hPa | 2.6V | 03:38:32 | 02:01:31 | 00:00:00 | |
| HSKMA3-T | 2026-09-04 12:09:16 | 52.79493 | 11.89734 | 147° | 29km/h | 25248m | 5m/s | -50.1°C | 0% | 25.6hPa | 2.7V | 03:38:30 | 02:01:34 | 00:00:00 | |
| DL1XH-west | 2026-09-04 12:09:15 | 52.79499 | 11.89727 | 145° | 31km/h | 25243m | 5.2m/s | -50.2°C | 0% | 25.6hPa | 2.7V | 03:38:30 | 02:01:33 | 00:00:00 | |
| BIOWL1-15 | 2026-09-04 12:09:13 | 52.79513 | 11.89711 | 144° | 35km/h | 25231m | 4.7m/s | -50.1°C | 0% | 25.7hPa | 2.6V | 03:40:12 | 02:01:31 | 00:00:00 | |
| AA1-15 | 2026-09-04 12:09:12 | 52.79520 | 11.89702 | 144° | 33km/h | 25227m | 4.2m/s | -50.1°C | 0% | 25.7hPa | 2.6V | 03:39:21 | 02:01:30 | 00:00:00 | |
| DO2SHX-10 | 2026-09-04 12:09:12 | 52.79520 | 11.89702 | 144° | 29km/h | 25227m | 4.1m/s | -50.1°C | 2.9% | 25.6hPa | 2.7V | 00:00:00 | 02:01:30 | 00:00:00 | |
| DB0DAN | 2026-09-04 12:09:10 | 52.79531 | 11.89688 | 143° | 22km/h | 25215m | 6.3m/s | -50.2°C | 0.4% | 25.78hPa | 2.7V | 00:00:00 | 00:00:00 | 00:00:00 | |
| HSKMA3-T | 2026-09-04 12:09:05 | 52.79556 | 11.89668 | 161° | 22km/h | 25188m | 4.5m/s | -50.1°C | 0% | 25.9hPa | 2.6V | 03:39:21 | 02:01:23 | 00:00:00 | |
| DO3MHA-11 | 2026-09-04 12:09:05 | 52.79556 | 11.89668 | 161° | 31km/h | 25188m | 4.4m/s | -50.1°C | 3.0% | 25.8hPa | 2.6V | 00:00:00 | 02:01:23 | 00:00:00 | |
| DL1XH-15 | 2026-09-04 12:09:04 | 52.79566 | 11.89661 | 150° | 22km/h | 25177m | 4.8m/s | -49.9°C | 2.9% | 25.9hPa | 2.7V | 03:38:42 | 02:01:21 | 00:00:00 | |
| DL1XH-west | 2026-09-04 12:09:04 | 52.79561 | 11.89665 | 159° | 20km/h | 25183m | 6.2m/s | -50°C | 0% | 25.9hPa | 2.6V | 03:39:21 | 02:01:22 | 00:00:00 | |
| BIOWL1-15 | 2026-09-04 12:09:03 | 52.79571 | 11.89656 | 144° | 26km/h | 25173m | 4.5m/s | -50°C | 0% | 25.9hPa | 2.7V | 03:40:12 | 02:01:20 | 00:00:00 | |
| DM0DOS-11 | 2026-09-04 12:09:02 | 52.79603 | 11.89606 | 133° | 33km/h | 25147m | 5.1m/s | -50.1°C | 2.9% | 26hPa | 2.6V | 03:38:48 | 02:01:15 | 00:00:00 | |
| AA1-15 | 2026-09-04 12:09:01 | 52.79576 | 11.89649 | 140° | 31km/h | 25167m | 5.8m/s | -50°C | 0% | 26hPa | 2.7V | 03:39:21 | 02:01:19 | 00:00:00 | |
| EDDB2-12 | 2026-09-04 12:09:01 | 52.79576 | 11.89649 | 140° | 29km/h | 25167m | 5.8m/s | -50.0°C | 0.4% | 26.0hPa | 2.7V | 00:00:00 | 00:00:00 | 00:00:00 | |
| DO2SHX-10 | 2026-09-04 12:09:00 | 52.79583 | 11.89639 | 138° | 38km/h | 25162m | 6.3m/s | -49.9°C | 2.9% | 25.9hPa | 2.7V | 00:00:00 | 02:01:18 | 00:00:00 | |
| DL4BBY-15 | 2026-09-04 12:08:59 | 52.79590 | 11.89629 | 137° | 26km/h | 25155m | 4.6m/s | -49.7°C | 0% | 0hPa | 2.6V | 00:00:00 | 00:00:00 | 00:00:00 | |
| DL1XH-15 | 2026-09-04 12:08:58 | 52.79622 | 11.89582 | 164° | 15km/h | 25120m | 5.7m/s | -50.5°C | 2.9% | 26.1hPa | 2.6V | 03:38:53 | 02:01:10 | 00:00:00 | |
| DF8AY | 2026-09-04 12:08:55 | 52.79612 | 11.89591 | 136° | 18km/h | 25136m | 5.4m/s | -50.1°C | 0% | 26.1hPa | 2.7V | 03:40:12 | 02:01:13 | 00:00:00 | |
| DL1XH1-15 | 2026-09-04 12:08:55 | 52.79631 | 11.89577 | 157° | 22km/h | 25109m | 4.5m/s | -50.3°C | 3% | 26.2hPa | 2.7V | 03:38:55 | 02:01:08 | 00:00:00 | |
| DB0DAN | 2026-09-04 12:08:55 | 52.79612 | 11.89591 | 136° | 16km/h | 25135m | 5.4m/s | -50.1°C | 0.4% | 26.11hPa | 2.7V | 00:00:00 | 00:00:00 | 00:00:00 | |
| HSKMA3-T | 2026-09-04 12:08:54 | 52.79615 | 11.89587 | 145° | 15km/h | 25130m | 4.6m/s | -50.3°C | 0% | 26.1hPa | 2.7V | 03:39:21 | 02:01:12 | 00:00:00 | |
| DL1XH-west | 2026-09-04 12:08:53 | 52.79618 | 11.89584 | 157° | 13km/h | 25125m | 5.4m/s | -50.5°C | 0% | 26.1hPa | 2.6V | 03:39:21 | 02:01:11 | 00:00:00 | |
| AA1-15 | 2026-09-04 12:08:51 | 52.79626 | 11.89580 | 163° | 18km/h | 25114m | 5.3m/s | -50.4°C | 0% | 26.1hPa | 2.7V | 03:39:21 | 02:01:09 | 00:00:00 | |
| DB0UT-7 | 2026-09-04 12:08:51 | 52.79626 | 11.89580 | 163° | 26km/h | 25114m | 5.2m/s | -50.3°C | 3.0% | 26.1hPa | 2.7V | 00:00:00 | 00:00:00 | 00:00:00 | |
| GOEST3-10 | 2026-09-04 12:08:49 | 52.79636 | 11.89573 | 146° | 27km/h | 25105m | 4.6m/s | -50.3°C | 2.9% | 26.2hPa | 2.7V | 03:38:00 | 00:00:00 | 00:00:00 | |
| DO2SHX-10 | 2026-09-04 12:08:48 | 52.79640 | 11.89566 | 135° | 27km/h | 25100m | 5.5m/s | -50.3°C | 3.0% | 26.2hPa | 2.7V | 00:00:00 | 02:01:06 | 00:00:00 | |
| DL1XH-15 | 2026-09-04 12:08:47 | 52.79661 | 11.89491 | 115° | 40km/h | 25066m | 4.8m/s | -50.5°C | 3% | 26.3hPa | 2.7V | 03:39:03 | 02:01:00 | 00:00:00 | |
| BIOWL1-15 | 2026-09-04 12:08:46 | 52.79648 | 11.89547 | 111° | 31km/h | 25088m | 5.4m/s | -50.4°C | 0% | 26.3hPa | 2.6V | 03:40:12 | 02:01:04 | 00:00:00 | |
| HSKMA3-T | 2026-09-04 12:08:44 | 52.79653 | 11.89520 | 111° | 37km/h | 25078m | 5.2m/s | -50.4°C | 0% | 26.3hPa | 2.7V | 03:39:21 | 02:01:02 | 00:00:00 | |
| DL1XH-west | 2026-09-04 12:08:43 | 52.79657 | 11.89506 | 114° | 38km/h | 25072m | 6.5m/s | -50.5°C | 0% | 26.4hPa | 2.7V | 03:39:21 | 02:01:01 | 00:00:00 | |
| DB0NH | 2026-09-04 12:08:42 | 52.79661 | 11.89491 | 116° | 22km/h | 25067m | 4.8m/s | -50.5°C | 3.0% | 26.3hPa | 2.6V | 03:39:00 | 02:01:00 | 00:00:00 | |
| DL1XH1-15 | 2026-09-04 12:08:41 | 52.79669 | 11.89463 | 109° | 33km/h | 25056m | 6m/s | -50.6°C | 3% | 26.4hPa | 2.6V | 03:39:05 | 02:00:58 | 00:00:00 | |
| AA1-15 | 2026-09-04 12:08:40 | 52.79669 | 11.89463 | 110° | 33km/h | 25056m | 6m/s | -50.6°C | 0% | 26.4hPa | 2.6V | 03:39:21 | 02:00:58 | 00:00:00 | |
| DO2SHX-10 | 2026-09-04 12:08:39 | 52.79671 | 11.89451 | 106° | 24km/h | 25051m | 5.6m/s | -50.5°C | 3.0% | 26.4hPa | 2.7V | 00:00:00 | 02:00:57 | 00:00:00 | |
| BIOWL9-15 | 2026-09-04 12:08:37 | 52.79678 | 11.89419 | 120° | 16km/h | 25029m | 5.5m/s | -50.6°C | 0.4% | 26.5hPa | 2.7V | 00:00:00 | 00:00:00 | 00:00:00 | |
| DL1XH1-15 | 2026-09-04 12:08:36 | 52.79686 | 11.89384 | 115° | 26km/h | 25003m | 5.3m/s | -50.6°C | 3.1% | 26.6hPa | 2.7V | 03:39:15 | 02:00:48 | 00:00:00 | |
| DO3MHA-11 | 2026-09-04 12:08:35 | 52.79678 | 11.89419 | 121° | 22km/h | 25029m | 5.5m/s | -50.5°C | 3.0% | 26.5hPa | 2.7V | 03:39:00 | 02:00:53 | 00:00:00 | |
| DL1XH-15 | 2026-09-04 12:08:34 | 52.79683 | 11.89401 | 101° | 18km/h | 25012m | 4.7m/s | -50.6°C | 3% | 26.6hPa | 2.6V | 03:39:13 | 02:00:50 | 00:00:00 | |
| HSKMA3-T | 2026-09-04 12:08:33 | 52.79682 | 11.89407 | 109° | 16km/h | 25017m | 6.1m/s | -50.6°C | 0% | 26.6hPa | 2.6V | 03:39:21 | 02:00:51 | 00:00:00 | |
| DL1XH-west | 2026-09-04 12:08:32 | 52.79683 | 11.89401 | 102° | 18km/h | 25012m | 4.7m/s | -50.6°C | 0% | 26.6hPa | 2.6V | 03:39:21 | 02:00:50 | 00:00:00 | |
| DF8AY | 2026-09-04 12:08:32 | 52.79684 | 11.89393 | 107° | 22km/h | 25007m | 3.9m/s | -50.6°C | 0% | 26.6hPa | 2.7V | 03:40:12 | 02:00:49 | 00:00:00 | |
| AA1-15 | 2026-09-04 12:08:30 | 52.79686 | 11.89384 | 116° | 26km/h | 25003m | 5.3m/s | -50.7°C | 0% | 26.6hPa | 2.7V | 03:39:21 | 02:00:48 | 00:00:00 | |
| DO2SHX-10 | 2026-09-04 12:08:30 | 52.79686 | 11.89384 | 116° | 29km/h | 25003m | 5.2m/s | -50.6°C | 3.1% | 26.6hPa | 2.6V | 00:00:00 | 02:00:48 | 00:00:00 | |
| DL4BBY-15 | 2026-09-04 12:08:29 | 52.79689 | 11.89374 | 122° | 22km/h | 24998m | 6.1m/s | -50.4°C | 0% | 0hPa | 2.6V | 00:00:00 | 00:00:00 | 00:00:00 | |
| SP3WXH-11 | 2026-09-04 12:08:28 | 52.79694 | 11.89363 | 125° | 31km/h | 24991m | 5.0m/s | -50.5°C | 0.4% | 26.7hPa | 2.6V | 00:00:00 | 00:00:00 | 00:00:00 | |
| DL1XH-15 | 2026-09-04 12:08:27 | 52.79711 | 11.89310 | 119° | 11km/h | 24959m | 6.2m/s | -50.4°C | 3% | 26.8hPa | 2.6V | 03:39:23 | 02:00:40 | 00:00:00 | |
| DO2SHX-10 | 2026-09-04 12:08:27 | 52.79698 | 11.89352 | 125° | 29km/h | 24987m | 4.4m/s | -50.5°C | 3.1% | 26.6hPa | 2.7V | 00:00:00 | 02:00:45 | 00:00:00 | |
| DD8BA-10 | 2026-09-04 12:08:26 | 52.79703 | 11.89341 | 123° | 16km/h | 24981m | 5.5m/s | -50.5°C | 3.1% | 26.7hPa | 2.7V | 00:00:00 | 00:00:00 | 00:00:00 | |
| DL1XH1-15 | 2026-09-04 12:08:25 | 52.79714 | 11.89304 | 132° | 9km/h | 24949m | 3.7m/s | -50.3°C | 3% | 26.8hPa | 2.7V | 03:39:25 | 02:00:38 | 00:00:00 | |
| HSKMA3-T | 2026-09-04 12:08:23 | 52.79710 | 11.89315 | 110° | 15km/h | 24965m | 4.7m/s | -50.4°C | 0% | 26.8hPa | 2.6V | 03:40:12 | 02:00:41 | 00:00:00 | |
| HTAHTA | 2026-09-04 12:08:23 | 52.79714 | 11.89304 | 132° | 9km/h | 24949m | 3.7m/s | -50.3°C | 0.5% | 26.8hPa | 2.7V | 00:00:00 | 00:00:00 | 00:00:00 | |
| DM0DOS-11 | 2026-09-04 12:08:22 | 52.79717 | 11.89289 | 92° | 18km/h | 24934m | 5.9m/s | -50.3°C | 3% | 26.9hPa | 2.7V | 03:39:28 | 02:00:35 | 00:00:00 | |
| BIOWL1-15 | 2026-09-04 12:08:22 | 52.79711 | 11.89310 | 120° | 11km/h | 24959m | 6.2m/s | -50.4°C | 0% | 26.8hPa | 2.6V | 03:40:12 | 02:00:40 | 00:00:00 | |
| DL1XH-west | 2026-09-04 12:08:22 | 52.79713 | 11.89307 | 129° | 9km/h | 24954m | 5m/s | -50.3°C | 0% | 26.9hPa | 2.6V | 03:40:12 | 02:00:39 | 00:00:00 | |
| DF8AY | 2026-09-04 12:08:21 | 52.79718 | 11.89271 | 99° | 27km/h | 24924m | 5.2m/s | -50.4°C | 0% | 27hPa | 2.6V | 03:40:12 | 02:00:33 | 00:00:00 | |
| AA1-15 | 2026-09-04 12:08:20 | 52.79714 | 11.89304 | 133° | 9km/h | 24949m | 3.7m/s | -50.3°C | 0% | 26.8hPa | 2.7V | 03:40:12 | 02:00:38 | 00:00:00 | |
| GOEST3-10 | 2026-09-04 12:08:19 | 52.79716 | 11.89300 | 120° | 18km/h | 24946m | 4.1m/s | -50.2°C | 3.0% | 26.8hPa | 2.6V | 00:00:00 | 00:00:00 | 00:00:00 | |
| DO2SHX-10 | 2026-09-04 12:08:18 | 52.79717 | 11.89296 | 106° | 18km/h | 24941m | 5.9m/s | -50.3°C | 3.0% | 26.9hPa | 2.6V | 00:00:00 | 02:00:36 | 00:00:00 | |
| DD8BA-10 | 2026-09-04 12:08:16 | 52.79718 | 11.89281 | 94° | 26km/h | 24930m | 5.2m/s | -50.3°C | 3.0% | 26.9hPa | 2.6V | 00:00:00 | 00:00:00 | 00:00:00 | |
| DL1XH1-15 | 2026-09-04 12:08:15 | 52.79738 | 11.89210 | 118° | 24km/h | 24892m | 5.4m/s | -50.1°C | 2.9% | 27.1hPa | 2.6V | 03:39:36 | 02:00:27 | 00:00:00 | |
| DO2SHX-10 | 2026-09-04 12:08:15 | 52.79718 | 11.89271 | 100° | 27km/h | 24924m | 5.1m/s | -50.3°C | 3.0% | 26.9hPa | 2.6V | 00:00:00 | 02:00:33 | 00:00:00 | |
| DL1XH-15 | 2026-09-04 12:08:14 | 52.79727 | 11.89238 | 125° | 29km/h | 24907m | 4.3m/s | -50.2°C | 3% | 27hPa | 2.7V | 03:39:33 | 02:00:30 | 00:00:00 | |
| HSKMA3-T | 2026-09-04 12:08:13 | 52.79723 | 11.89249 | 119° | 29km/h | 24912m | 5.4m/s | -50.3°C | 0% | 27hPa | 2.7V | 03:40:12 | 02:00:31 | 00:00:00 | |
| DL1NUX | 2026-09-04 12:08:12 | 52.79744 | 11.89194 | 121° | 18km/h | 24882m | 4.4m/s | -50.1°C | 3% | 27.2hPa | 2.6V | 03:39:38 | 02:00:25 | 00:00:00 | |
| BIOWL1-15 | 2026-09-04 12:08:11 | 52.79731 | 11.89228 | 126° | 29km/h | 24903m | 4.8m/s | -50.2°C | 0% | 27hPa | 2.7V | 03:40:12 | 02:00:29 | 00:00:00 | |
| DB0DAN | 2026-09-04 12:08:10 | 52.79735 | 11.89219 | 122° | 26km/h | 24898m | 6m/s | -50.2°C | 0.5% | 27.08hPa | 2.7V | 00:00:00 | 00:00:00 | 00:00:00 | |
| EDDB2-11 | 2026-09-04 12:08:10 | 52.79738 | 11.89210 | 118° | 24km/h | 24892m | 5.4m/s | -50.1°C | 0.4% | 27.1hPa | 2.6V | 00:00:00 | 00:00:00 | 00:00:00 | |
| AA1-15 | 2026-09-04 12:08:10 | 52.79738 | 11.89210 | 119° | 24km/h | 24892m | 5.4m/s | -50.1°C | 0% | 27.1hPa | 2.6V | 03:40:12 | 02:00:27 | 00:00:00 | |
| DO2SHX-10 | 2026-09-04 12:08:09 | 52.79738 | 11.89210 | 119° | 22km/h | 24892m | 5.4m/s | -50.0°C | 2.9% | 27.0hPa | 2.6V | 03:39:00 | 02:00:27 | 00:00:00 | |
| DL1XH-15 | 2026-09-04 12:08:07 | 52.79757 | 11.89173 | 123° | 15km/h | 24856m | 5.7m/s | -50°C | 2.8% | 27.2hPa | 2.6V | 03:39:43 | 02:00:20 | 00:00:00 | |
| DO2SHX-10 | 2026-09-04 12:08:06 | 52.79746 | 11.89188 | 132° | 15km/h | 24877m | 6.1m/s | -50.0°C | 3.0% | 27.1hPa | 2.7V | 00:00:00 | 02:00:24 | 00:00:00 | |
| DF7ER-10 | 2026-09-04 12:08:05 | 52.79746 | 11.89189 | 133° | 15km/h | 24877m | 6.1m/s | -50.1°C | 0.5% | 27.1hPa | 2.7V | 03:40:00 | 00:00:00 | 00:00:00 | |
| DL1XH1-15 | 2026-09-04 12:08:04 | 52.79760 | 11.89161 | 101° | 18km/h | 24843m | 5.2m/s | -50°C | 2.9% | 27.3hPa | 2.7V | 03:39:45 | 02:00:18 | 00:00:00 | |
| HSKMA3-T | 2026-09-04 12:08:02 | 52.79757 | 11.89173 | 124° | 15km/h | 24856m | 5.7m/s | -50.1°C | 0% | 27.2hPa | 2.6V | 03:40:12 | 02:00:20 | 00:00:00 | |
| BIOWL1-15 | 2026-09-04 12:08:00 | 52.79760 | 11.89161 | 101° | 20km/h | 24843m | 5.3m/s | -50.1°C | 0% | 27.3hPa | 2.7V | 03:40:12 | 02:00:18 | 00:00:00 | |
| AA1-15 | 2026-09-04 12:07:58 | 52.79763 | 11.89145 | 110° | 20km/h | 24832m | 6.3m/s | -50°C | 0% | 27.4hPa | 2.6V | 03:40:12 | 02:00:16 | 00:00:00 | |
| DJ2DS-15 | 2026-09-04 12:07:58 | 52.79763 | 11.89145 | 110° | 18km/h | 24832m | 6.3m/s | -50.0°C | 0.4% | 27.4hPa | 2.6V | 00:00:00 | 00:00:00 | 00:00:00 | |
| DO2SHX-10 | 2026-09-04 12:07:57 | 52.79764 | 11.89138 | 121° | 18km/h | 24827m | 4.7m/s | -50.0°C | 2.9% | 27.3hPa | 2.6V | 03:39:00 | 02:00:15 | 00:00:00 | |
| SO1NDE-10 | 2026-09-04 12:07:56 | 52.79767 | 11.89131 | 124° | 15km/h | 24822m | 4.5m/s | -50.0°C | 2.9% | 27.3hPa | 2.7V | 00:00:00 | 02:00:14 | 00:00:00 | |
| DF7ER-10 | 2026-09-04 12:07:55 | 52.79767 | 11.89131 | 125° | 18km/h | 24822m | 4.6m/s | -50.1°C | 0.5% | 27.4hPa | 2.7V | 03:40:00 | 00:00:00 | 00:00:00 | |
| DL1XH-15 | 2026-09-04 12:07:54 | 52.79778 | 11.89115 | 168° | 16km/h | 24799m | 6.7m/s | -50.1°C | 3% | 27.4hPa | 2.7V | 03:39:53 | 02:00:10 | 00:00:00 | |
| DF8AY | 2026-09-04 12:07:54 | 52.79775 | 11.89117 | 154° | 15km/h | 24805m | 4.5m/s | -50.1°C | 0% | 27.5hPa | 2.7V | 03:40:12 | 02:00:11 | 00:00:00 | |
| HSKMA3-T | 2026-09-04 12:07:52 | 52.79778 | 11.89115 | 169° | 16km/h | 24800m | 6.7m/s | -50.1°C | 0% | 27.4hPa | 2.7V | 03:40:12 | 02:00:10 | 00:00:00 | |
| DL1XH1-15 | 2026-09-04 12:07:51 | 52.79788 | 11.89114 | 182° | 18km/h | 24788m | 4.3m/s | -50°C | 3% | 27.5hPa | 2.6V | 03:39:55 | 02:00:08 | 00:00:00 | |
| DL1XH-west | 2026-09-04 12:07:49 | 52.79792 | 11.89115 | 180° | 15km/h | 24783m | 5.2m/s | -50°C | 0% | 27.5hPa | 2.6V | 03:40:12 | 02:00:07 | 00:00:00 | |
| AA1-15 | 2026-09-04 12:07:48 | 52.79795 | 11.89114 | 167° | 9km/h | 24777m | 6.3m/s | -50°C | 0% | 27.6hPa | 2.7V | 03:40:12 | 02:00:06 | 00:00:00 | |
| BIOWL1-15 | 2026-09-04 12:07:45 | 52.79798 | 11.89109 | 114° | 5km/h | 24762m | 5.7m/s | -49.9°C | 0% | 27.7hPa | 2.7V | 03:40:12 | 02:00:03 | 00:00:00 | |
| DL1XH1-15 | 2026-09-04 12:07:45 | 52.79803 | 11.89100 | 112° | 7km/h | 24736m | 6.1m/s | -49.8°C | 2.9% | 27.8hPa | 2.7V | 03:40:05 | 01:59:58 | 00:00:00 | |
| DF8AY | 2026-09-04 12:07:42 | 52.79805 | 11.89088 | 121° | 13km/h | 24719m | 5.8m/s | -49.8°C | 0% | 27.8hPa | 2.6V | 03:40:12 | 01:59:55 | 00:00:00 | |
| HSKMA3-T | 2026-09-04 12:07:41 | 52.79802 | 11.89102 | 132° | 5km/h | 24741m | 4.6m/s | -49.9°C | 0% | 27.7hPa | 2.7V | 03:40:12 | 01:59:59 | 00:00:00 | |
| DM0DOS-11 | 2026-09-04 12:07:41 | 52.79808 | 11.89083 | 136° | 16km/h | 24713m | 6.6m/s | -49.9°C | 2.9% | 27.8hPa | 2.7V | 03:40:09 | 01:59:54 | 00:00:00 | |
| AA1-15 | 2026-09-04 12:07:38 | 52.79804 | 11.89092 | 105° | 11km/h | 24724m | 4.4m/s | -49.9°C | 0% | 27.8hPa | 2.6V | 03:40:12 | 01:59:56 | 00:00:00 | |
| BIOWL1-15 | 2026-09-04 12:07:35 | 52.79811 | 11.89079 | 145° | 20km/h | 24707m | 5.4m/s | -49.9°C | 0% | 27.9hPa | 2.7V | 03:40:12 | 01:59:53 | 00:00:00 | |
| DO3MHA-11 | 2026-09-04 12:07:34 | 52.79815 | 11.89073 | 142° | 20km/h | 24702m | 5.2m/s | -49.8°C | 3.0% | 27.9hPa | 2.7V | 00:00:00 | 01:59:52 | 00:00:00 | |
| DO2SHX-10 | 2026-09-04 12:07:33 | 52.79819 | 11.89068 | 134° | 20km/h | 24696m | 6.5m/s | -49.8°C | 2.9% | 27.9hPa | 2.7V | 03:40:00 | 01:59:51 | 00:00:00 | |
| DL1NUX | 2026-09-04 12:07:32 | 52.79837 | 11.89029 | 110° | 18km/h | 24664m | 6.5m/s | -49.8°C | 3% | 28.1hPa | 2.7V | 03:40:18 | 01:59:45 | 00:00:00 | |
| HSKMA3-T | 2026-09-04 12:07:31 | 52.79826 | 11.89055 | 129° | 20km/h | 24685m | 4.2m/s | -49.8°C | 0% | 27.9hPa | 2.6V | 03:41:03 | 01:59:49 | 00:00:00 | |
| AA1-15 | 2026-09-04 12:07:27 | 52.79837 | 11.89029 | 111° | 18km/h | 24664m | 6.5m/s | -49.8°C | 0% | 28.1hPa | 2.7V | 03:41:03 | 01:59:45 | 00:00:00 | |
| DF8AY | 2026-09-04 12:07:26 | 52.79838 | 11.89021 | 100° | 20km/h | 24657m | 6.5m/s | -49.8°C | 0% | 28.1hPa | 2.6V | 03:41:03 | 01:59:44 | 00:00:00 | |
| SO1NDE-10 | 2026-09-04 12:07:26 | 52.79838 | 11.89021 | 100° | 24km/h | 24658m | 6.5m/s | -49.8°C | 3.0% | 28.1hPa | 2.6V | 03:40:00 | 01:59:44 | 00:00:00 | |
| DL1XH1-15 | 2026-09-04 12:07:25 | 52.79846 | 11.88988 | 132° | 13km/h | 24624m | 4.7m/s | -49.9°C | 2.9% | 28.2hPa | 2.7V | 03:40:25 | 01:59:38 | 00:00:00 | |
| DB0DAN | 2026-09-04 12:07:25 | 52.79839 | 11.89013 | 95° | 18km/h | 24651m | 5m/s | -49.8°C | 0.4% | 28.14hPa | 2.6V | 00:00:00 | 00:00:00 | 00:00:00 | |
| BIOWL1-15 | 2026-09-04 12:07:24 | 52.79840 | 11.88999 | 109° | 15km/h | 24640m | 6.4m/s | -49.7°C | 0% | 28.2hPa | 2.7V | 03:41:03 | 01:59:41 | 00:00:00 | |
| HSKMA3-T | 2026-09-04 12:07:21 | 52.79844 | 11.88992 | 140° | 11km/h | 24629m | 4.5m/s | -49.9°C | 0% | 28.2hPa | 2.7V | 03:41:03 | 01:59:39 | 00:00:00 | |
| AA1-15 | 2026-09-04 12:07:17 | 52.79850 | 11.88969 | 98° | 22km/h | 24607m | 5.1m/s | -49.8°C | 0% | 28.3hPa | 2.6V | 03:41:03 | 01:59:35 | 00:00:00 | |
| DF8AY | 2026-09-04 12:07:16 | 52.79851 | 11.88959 | 102° | 26km/h | 24601m | 5m/s | -49.8°C | 0% | 28.3hPa | 2.7V | 03:41:03 | 01:59:34 | 00:00:00 | |
| BIOWL1-15 | 2026-09-04 12:07:15 | 52.79854 | 11.88937 | 110° | 27km/h | 24590m | 5.6m/s | -49.6°C | 0% | 28.4hPa | 2.7V | 03:41:03 | 01:59:32 | 00:00:00 | |
| HSKMA3-T | 2026-09-04 12:07:10 | 52.79861 | 11.88891 | 100° | 26km/h | 24568m | 4.2m/s | -49.6°C | 0% | 28.5hPa | 2.7V | 03:41:03 | 01:59:28 | 00:00:00 | |
| DB0DAN | 2026-09-04 12:07:10 | 52.79861 | 11.88891 | 100° | 26km/h | 24568m | 4.2m/s | -49.6°C | 0.4% | 28.48hPa | 2.7V | 00:00:00 | 00:00:00 | 00:00:00 | |
| DL1XH-west | 2026-09-04 12:07:07 | 52.79867 | 11.88865 | 119° | 18km/h | 24552m | 5.2m/s | -49.7°C | 0% | 28.6hPa | 2.6V | 03:41:03 | 01:59:25 | 00:00:00 | |
| AA1-15 | 2026-09-04 12:07:06 | 52.79869 | 11.88858 | 113° | 18km/h | 24546m | 4.7m/s | -49.8°C | 0% | 28.6hPa | 2.6V | 03:41:03 | 01:59:24 | 00:00:00 | |
| DF8AY | 2026-09-04 12:07:05 | 52.79870 | 11.88851 | 102° | 18km/h | 24541m | 6.8m/s | -49.9°C | 0% | 28.6hPa | 2.7V | 03:41:03 | 01:59:23 | 00:00:00 | |
| DL1XH1-15 | 2026-09-04 12:07:05 | 52.79873 | 11.88801 | 98° | 31km/h | 24513m | 4.3m/s | -50°C | 2.9% | 28.7hPa | 2.6V | 03:40:45 | 01:59:18 | 00:00:00 | |
| DL1XH-15 | 2026-09-04 12:07:04 | 52.79871 | 11.88825 | 94° | 26km/h | 24524m | 6.3m/s | -50°C | 2.9% | 28.6hPa | 2.7V | 03:40:43 | 01:59:20 | 00:00:00 | |
| BIOWL9-15 | 2026-09-04 12:07:04 | 52.79871 | 11.88843 | 91° | 18km/h | 24535m | 5.7m/s | -50.0°C | 0.4% | 28.6hPa | 2.7V | 00:00:00 | 00:00:00 | 00:00:00 | |
| DO3MHA-11 | 2026-09-04 12:07:03 | 52.79871 | 11.88834 | 92° | 31km/h | 24530m | 4.7m/s | 0°C | 0% | 0hPa | 2.7V | 00:00:00 | 01:59:21 | 00:00:00 | |
| DL1NUX | 2026-09-04 12:07:02 | 52.79875 | 11.88758 | 92° | 37km/h | 24496m | 5.1m/s | -50°C | 2.9% | 28.8hPa | 2.7V | 03:40:48 | 01:59:15 | 00:00:00 | |
| BIOWL1-15 | 2026-09-04 12:07:01 | 52.79872 | 11.88813 | 99° | 29km/h | 24518m | 5.3m/s | -49.9°C | 0% | 28.7hPa | 2.6V | 03:41:03 | 01:59:19 | 00:00:00 | |
| HSKMA3-T | 2026-09-04 12:07:00 | 52.79873 | 11.88801 | 98° | 31km/h | 24513m | 4.3m/s | -50°C | 0% | 28.7hPa | 2.6V | 03:41:03 | 01:59:18 | 00:00:00 | |
| DO2SHX-10 | 2026-09-04 12:07:00 | 52.79873 | 11.88801 | 99° | 35km/h | 24514m | 4.2m/s | -49.9°C | 2.9% | 28.7hPa | 2.7V | 00:00:00 | 01:59:18 | 00:00:00 | |
| DL4BBY-15 | 2026-09-04 12:06:59 | 52.79874 | 11.88787 | 97° | 26km/h | 24509m | 5.6m/s | -49.8°C | 0% | 0hPa | 2.7V | 00:00:00 | 00:00:00 | 00:00:00 | |
| GOEST3-10 | 2026-09-04 12:06:58 | 52.79875 | 11.88773 | 92° | 35km/h | 24502m | 6.3m/s | -50.0°C | 2.9% | 28.7hPa | 2.7V | 00:00:00 | 00:00:00 | 00:00:00 | |
| DO2SHX-10 | 2026-09-04 12:06:57 | 52.79875 | 11.88758 | 93° | 35km/h | 24496m | 5.1m/s | -50.0°C | 2.9% | 28.8hPa | 2.7V | 03:40:00 | 01:59:15 | 00:00:00 | |
| DL1LOL-11 | 2026-09-04 12:06:56 | 52.79875 | 11.88758 | 94° | 37km/h | 24496m | 5.1m/s | -50.0°C | 0.5% | 28.8hPa | 2.7V | 00:00:00 | 00:00:00 | 00:00:00 | |
| AA1-15 | 2026-09-04 12:06:56 | 52.79876 | 11.88743 | 97° | 35km/h | 24491m | 5.1m/s | -50°C | 0% | 28.8hPa | 2.7V | 03:41:03 | 01:59:14 | 00:00:00 | |
| DB0DAN | 2026-09-04 12:06:55 | 52.79877 | 11.88729 | 101° | 31km/h | 24485m | 6.5m/s | -49.9°C | 0.4% | 28.82hPa | 2.7V | 00:00:00 | 00:00:00 | 00:00:00 | |
| DL1XH-15 | 2026-09-04 12:06:54 | 52.79882 | 11.88696 | 96° | 24km/h | 24471m | 5.7m/s | -50.1°C | 2.9% | 28.9hPa | 2.6V | 03:40:53 | 01:59:10 | 00:00:00 | |
| DF8AY | 2026-09-04 12:06:54 | 52.79879 | 11.88717 | 106° | 29km/h | 24480m | 4.4m/s | -50°C | 0% | 28.9hPa | 2.6V | 03:41:03 | 01:59:12 | 00:00:00 | |
| BIOWL1-15 | 2026-09-04 12:06:53 | 52.79882 | 11.88686 | 85° | 22km/h | 24465m | 5.9m/s | -50.2°C | 0% | 28.9hPa | 2.7V | 03:41:03 | 01:59:09 | 00:00:00 | |
| DL1NUX | 2026-09-04 12:06:52 | 52.79876 | 11.88647 | 82° | 26km/h | 24443m | 5.8m/s | -50.2°C | 3% | 29hPa | 2.6V | 03:40:58 | 01:59:05 | 00:00:00 | |
| DL1XH1-15 | 2026-09-04 12:06:51 | 52.79881 | 11.88677 | 74° | 24km/h | 24459m | 5.5m/s | -50.1°C | 2.9% | 29hPa | 2.7V | 03:40:55 | 01:59:08 | 00:00:00 | |
| HSKMA3-T | 2026-09-04 12:06:50 | 52.79881 | 11.88677 | 74° | 24km/h | 24459m | 5.5m/s | -50.1°C | 0% | 29hPa | 2.7V | 03:41:03 | 01:59:08 | 00:00:00 | |
| AA1-15 | 2026-09-04 12:06:45 | 52.79876 | 11.88622 | 93° | 35km/h | 24433m | 4.7m/s | -50.2°C | 0% | 29.1hPa | 2.7V | 03:41:03 | 01:59:03 | 00:00:00 | |
| MECKS9 | 2026-09-04 12:06:45 | 52.79875 | 11.88622 | 94° | 35km/h | 24433m | 4.7m/s | -50.2°C | 0.4% | 29.1hPa | 2.6V | 03:41:00 | 00:00:00 | 00:00:00 | |
| DL1XH-15 | 2026-09-04 12:06:44 | 52.79876 | 11.88573 | 88° | 42km/h | 24416m | 4.3m/s | -50.4°C | 2.9% | 29.2hPa | 2.6V | 03:41:03 | 01:59:00 | 00:00:00 | |
| DO3MHA-11 | 2026-09-04 12:06:43 | 52.79876 | 11.88590 | 89° | 26km/h | 24421m | 6.2m/s | 0°C | 0% | 0hPa | 2.7V | 00:00:00 | 01:59:01 | 00:00:00 | |
| DL1NUX | 2026-09-04 12:06:42 | 52.79877 | 11.88514 | 80° | 15km/h | 24389m | 6.7m/s | -50.6°C | 3% | 29.2hPa | 2.7V | 03:41:08 | 01:58:55 | 00:00:00 | |
| BIOWL1-15 | 2026-09-04 12:06:40 | 52.79876 | 11.88542 | 95° | 33km/h | 24406m | 6.1m/s | -50.5°C | 0% | 29.2hPa | 2.7V | 03:41:54 | 01:58:58 | 00:00:00 | |
| HSKMA3-T | 2026-09-04 12:06:39 | 52.79877 | 11.88530 | 98° | 26km/h | 24400m | 5.3m/s | -50.5°C | 0% | 29.2hPa | 2.7V | 03:41:54 | 01:58:57 | 00:00:00 | |
| DL1XH-west | 2026-09-04 12:06:35 | 52.79874 | 11.88505 | 47° | 13km/h | 24378m | 4.8m/s | -50.7°C | 0% | 29.4hPa | 2.6V | 03:41:54 | 01:58:53 | 00:00:00 | |
| DL1XH-15 | 2026-09-04 12:06:34 | 52.79870 | 11.88492 | 86° | 15km/h | 24361m | 5.4m/s | -50.6°C | 3% | 29.4hPa | 2.7V | 03:41:13 | 01:58:50 | 00:00:00 | |
| AM1SDL-15 | 2026-09-04 12:06:34 | 52.79872 | 11.88501 | 51° | 26km/h | 24373m | 4.7m/s | -50.6°C | 3.0% | 29.3hPa | 2.6V | 00:00:00 | 01:58:52 | 00:00:00 | |
| GOEST3-10 | 2026-09-04 12:06:33 | 52.79871 | 11.88497 | 66° | 20km/h | 24368m | 5.7m/s | -50.5°C | 3.1% | 29.3hPa | 2.6V | 00:00:00 | 01:58:51 | 00:00:00 | |
| DL1NUX | 2026-09-04 12:06:32 | 52.79868 | 11.88435 | 83° | 37km/h | 24334m | 5.1m/s | -50.8°C | 3.1% | 29.5hPa | 2.6V | 03:41:18 | 01:58:45 | 00:00:00 | |
| BIOWL1-15 | 2026-09-04 12:06:30 | 52.79870 | 11.88475 | 89° | 26km/h | 24352m | 5.5m/s | -50.7°C | 0% | 29.4hPa | 2.7V | 03:41:54 | 01:58:48 | 00:00:00 | |
| HSKMA3-T | 2026-09-04 12:06:29 | 52.79870 | 11.88463 | 85° | 31km/h | 24346m | 6.6m/s | -50.8°C | 0% | 29.5hPa | 2.6V | 03:41:54 | 01:58:47 | 00:00:00 | |
| DF8AY | 2026-09-04 12:06:28 | 52.79869 | 11.88450 | 82° | 35km/h | 24339m | 6m/s | -50.8°C | 0% | 29.5hPa | 2.6V | 03:41:54 | 01:58:46 | 00:00:00 | |
| DM0DOS-11 | 2026-09-04 12:06:28 | 52.79867 | 11.88419 | 87° | 38km/h | 24328m | 6.3m/s | -50.8°C | 3.1% | 29.5hPa | 2.7V | 03:41:19 | 01:58:44 | 00:00:00 | |
| DL1XH-west | 2026-09-04 12:06:25 | 52.79867 | 11.88404 | 93° | 35km/h | 24322m | 5.4m/s | -50.7°C | 0% | 29.6hPa | 2.7V | 03:41:54 | 01:58:43 | 00:00:00 | |
| DL1XH-15 | 2026-09-04 12:06:24 | 52.79867 | 11.88369 | 78° | 22km/h | 24307m | 6.7m/s | -50.8°C | 3% | 29.7hPa | 2.6V | 03:41:23 | 01:58:40 | 00:00:00 | |
| AA1-15 | 2026-09-04 12:06:24 | 52.79867 | 11.88390 | 92° | 31km/h | 24317m | 4.5m/s | -50.7°C | 0% | 29.6hPa | 2.7V | 03:41:54 | 01:58:42 | 00:00:00 | |
| DO2SHX-10 | 2026-09-04 12:06:24 | 52.79867 | 11.88390 | 93° | 26km/h | 24318m | 4.5m/s | -50.7°C | 3.1% | 29.5hPa | 2.6V | 00:00:00 | 01:58:42 | 00:00:00 | |
| GOEST3-10 | 2026-09-04 12:06:23 | 52.79867 | 11.88378 | 88° | 20km/h | 24313m | 5.2m/s | -50.7°C | 3.1% | 29.6hPa | 2.6V | 00:00:00 | 01:58:41 | 00:00:00 | |
| DL1NUX | 2026-09-04 12:06:22 | 52.79861 | 11.88341 | 80° | 11km/h | 24279m | 4.4m/s | -50.7°C | 3% | 29.8hPa | 2.6V | 03:41:28 | 01:58:35 | 00:00:00 | |
| BIOWL1-15 | 2026-09-04 12:06:20 | 52.79864 | 11.88355 | 64° | 15km/h | 24295m | 5.1m/s | -51°C | 0% | 29.7hPa | 2.7V | 03:41:54 | 01:58:38 | 00:00:00 | |
| HSKMA3-T | 2026-09-04 12:06:18 | 52.79862 | 11.88346 | 80° | 11km/h | 24283m | 5.1m/s | -50.7°C | 0% | 29.8hPa | 2.6V | 03:41:54 | 01:58:36 | 00:00:00 | |
| DF8AY | 2026-09-04 12:06:18 | 52.79855 | 11.88309 | 75° | 29km/h | 24257m | 4.8m/s | -50.6°C | 0% | 29.9hPa | 2.7V | 03:41:54 | 01:58:31 | 00:00:00 | |
| DM0DOS-11 | 2026-09-04 12:06:17 | 52.79860 | 11.88336 | 75° | 15km/h | 24274m | 5.4m/s | -50.7°C | 3% | 29.8hPa | 2.6V | 03:41:29 | 01:58:34 | 00:00:00 | |
| DD8BA-10 | 2026-09-04 12:06:16 | 52.79860 | 11.88336 | 76° | 27km/h | 24274m | 5.4m/s | -50.6°C | 3.0% | 29.8hPa | 2.6V | 00:00:00 | 00:00:00 | 00:00:00 | |
| SP3BTT-10 | 2026-09-04 12:06:15 | 52.79859 | 11.88329 | 71° | 27km/h | 24268m | 5.8m/s | -50.7°C | 3.0% | 29.8hPa | 2.7V | 00:00:00 | 00:00:00 | 00:00:00 | |
| DL1XH-15 | 2026-09-04 12:06:14 | 52.79853 | 11.88297 | 82° | 31km/h | 24252m | 5.4m/s | -50.6°C | 2.9% | 29.9hPa | 2.7V | 03:41:33 | 01:58:30 | 00:00:00 | |
| AA1-15 | 2026-09-04 12:06:14 | 52.79857 | 11.88320 | 70° | 26km/h | 24262m | 5.4m/s | -50.8°C | 0% | 29.9hPa | 2.7V | 03:41:54 | 01:58:32 | 00:00:00 | |
| GOEST3-10 | 2026-09-04 12:06:13 | 52.79855 | 11.88309 | 76° | 31km/h | 24258m | 4.7m/s | -50.6°C | 3.0% | 29.8hPa | 2.7V | 00:00:00 | 01:58:31 | 00:00:00 | |
| DL1NUX | 2026-09-04 12:06:12 | 52.79856 | 11.88232 | 92° | 26km/h | 24224m | 5m/s | -50.6°C | 3.1% | 30hPa | 2.7V | 03:41:38 | 01:58:25 | 00:00:00 | |
| DM0DOS-11 | 2026-09-04 12:06:12 | 52.79856 | 11.88223 | 91° | 20km/h | 24218m | 5m/s | -50.6°C | 3.1% | 30hPa | 2.7V | 03:41:39 | 01:58:24 | 00:00:00 | |
| DB0DAN | 2026-09-04 12:06:10 | 52.79853 | 11.88270 | 96° | 31km/h | 24240m | 5.5m/s | -50.7°C | 0.5% | 29.96hPa | 2.6V | 00:00:00 | 00:00:00 | 00:00:00 | |
| BIOWL1-15 | 2026-09-04 12:06:09 | 52.79854 | 11.88256 | 97° | 31km/h | 24235m | 5m/s | -50.7°C | 0% | 30hPa | 2.6V | 03:41:54 | 01:58:27 | 00:00:00 | |
| HSKMA3-T | 2026-09-04 12:06:08 | 52.79855 | 11.88244 | 95° | 29km/h | 24229m | 6.4m/s | -50.6°C | 0% | 30hPa | 2.7V | 03:41:54 | 01:58:26 | 00:00:00 | |
| DF8AY | 2026-09-04 12:06:07 | 52.79856 | 11.88232 | 92° | 26km/h | 24224m | 5m/s | -50.6°C | 0% | 30hPa | 2.7V | 03:41:54 | 01:58:25 | 00:00:00 | |
| AA1-15 | 2026-09-04 12:06:04 | 52.79857 | 11.88208 | 104° | 15km/h | 24207m | 5.8m/s | -50.6°C | 0% | 30.1hPa | 2.6V | 03:41:54 | 01:58:22 | 00:00:00 | |
| DL1XH-west | 2026-09-04 12:06:03 | 52.79858 | 11.88202 | 99° | 15km/h | 24202m | 4.4m/s | -50.7°C | 0% | 30.1hPa | 2.7V | 03:41:54 | 01:58:21 | 00:00:00 | |
| DB0NH | 2026-09-04 12:06:03 | 52.79858 | 11.88202 | 99° | 31km/h | 24203m | 4.3m/s | -50.6°C | 3.0% | 30.1hPa | 2.7V | 00:00:00 | 01:58:21 | 00:00:00 | |
| NBG1-10 | 2026-09-04 12:06:02 | 52.79858 | 11.88196 | 86° | 26km/h | 24198m | 4.4m/s | -50.8°C | 3.0% | 30.1hPa | 2.7V | 00:00:00 | 01:58:20 | 00:00:00 | |
| DM0DOS-11 | 2026-09-04 12:06:01 | 52.79844 | 11.88120 | 82° | 38km/h | 24165m | 5.5m/s | -51°C | 3.1% | 30.3hPa | 2.7V | 03:41:49 | 01:58:14 | 00:00:00 | |
| BIOWL1-15 | 2026-09-04 12:05:59 | 52.79852 | 11.88166 | 69° | 35km/h | 24181m | 5.1m/s | -51.2°C | 0% | 30.2hPa | 2.6V | 03:41:54 | 01:58:17 | 00:00:00 | |
| HSKMA3-T | 2026-09-04 12:05:57 | 52.79846 | 11.88136 | 77° | 40km/h | 24170m | 5.8m/s | -51°C | 0% | 30.3hPa | 2.7V | 03:41:54 | 01:58:15 | 00:00:00 | |
| DO2SHX-10 | 2026-09-04 12:05:57 | 52.79846 | 11.88136 | 77° | 38km/h | 24170m | 5.8m/s | -51.0°C | 3.1% | 30.2hPa | 2.7V | 03:41:00 | 01:58:15 | 00:00:00 | |
| DB0DAN | 2026-09-04 12:05:55 | 52.79843 | 11.88105 | 86° | 35km/h | 24160m | 4.4m/s | -51°C | 0.5% | 30.32hPa | 2.7V | 00:00:00 | 00:00:00 | 00:00:00 | |
| DL1XH1-15 | 2026-09-04 12:05:55 | 52.79833 | 11.88038 | 71° | 20km/h | 24127m | 6.4m/s | -50.8°C | 3.1% | 30.5hPa | 2.7V | 03:41:56 | 01:58:07 | 00:00:00 | |
| AA1-15 | 2026-09-04 12:05:53 | 52.79841 | 11.88078 | 80° | 31km/h | 24150m | 6.1m/s | -50.9°C | 0% | 30.4hPa | 2.6V | 03:41:54 | 01:58:11 | 00:00:00 | |
| DL1NUX | 2026-09-04 12:05:52 | 52.79831 | 11.88023 | 82° | 20km/h | 24117m | 4.5m/s | -50.8°C | 3.1% | 30.6hPa | 2.7V | 03:41:58 | 01:58:05 | 00:00:00 | |
| DL1XH-west | 2026-09-04 12:05:52 | 52.79840 | 11.88066 | 73° | 27km/h | 24144m | 5.9m/s | -50.8°C | 0% | 30.4hPa | 2.6V | 03:41:54 | 01:58:10 | 00:00:00 | |
| BIOWL1-15 | 2026-09-04 12:05:48 | 52.79832 | 11.88031 | 80° | 18km/h | 24122m | 5.4m/s | -50.8°C | 0% | 30.5hPa | 2.7V | 03:42:45 | 01:58:06 | 00:00:00 | |
| DF8AY | 2026-09-04 12:05:46 | 52.79829 | 11.88003 | 76° | 29km/h | 24106m | 6m/s | -50.8°C | 0% | 30.6hPa | 2.6V | 03:42:45 | 01:58:03 | 00:00:00 | |
| HSKMA3-T | 2026-09-04 12:05:46 | 52.79830 | 11.88014 | 79° | 24km/h | 24112m | 5.2m/s | -50.8°C | 0% | 30.6hPa | 2.6V | 03:42:45 | 01:58:04 | 00:00:00 | |
| DF8AY-15 | 2026-09-04 12:05:46 | 52.79830 | 11.88014 | 80° | 26km/h | 24112m | 5.2m/s | -50.7°C | 3.1% | 30.5hPa | 2.6V | 00:00:00 | 01:58:04 | 00:00:00 | |
| DO2SHX-10 | 2026-09-04 12:05:45 | 52.79829 | 11.88003 | 76° | 33km/h | 24107m | 5.9m/s | -50.8°C | 3.0% | 30.5hPa | 2.7V | 03:42:00 | 01:58:03 | 00:00:00 | |
| DL1XH1-15 | 2026-09-04 12:05:44 | 52.79815 | 11.87910 | 65° | 26km/h | 24070m | 5.9m/s | -50.6°C | 3% | 30.8hPa | 2.7V | 03:42:07 | 01:57:56 | 00:00:00 | |
| AA1-15 | 2026-09-04 12:05:43 | 52.79824 | 11.87976 | 75° | 38km/h | 24096m | 4.9m/s | -50.7°C | 0% | 30.6hPa | 2.7V | 03:42:45 | 01:58:01 | 00:00:00 | |
| DL1XH-west | 2026-09-04 12:05:41 | 52.79820 | 11.87946 | 80° | 37km/h | 24085m | 5.5m/s | -50.5°C | 0% | 30.7hPa | 2.7V | 03:42:45 | 01:57:59 | 00:00:00 | |
| DB0DAN | 2026-09-04 12:05:40 | 52.79819 | 11.87932 | 80° | 31km/h | 24080m | 4.4m/s | -50.6°C | 0.5% | 30.73hPa | 2.6V | 00:00:00 | 00:00:00 | 00:00:00 | |
| BIOWL1-15 | 2026-09-04 12:05:38 | 52.79815 | 11.87909 | 66° | 26km/h | 24070m | 5.9m/s | -50.6°C | 0% | 30.8hPa | 2.7V | 03:42:45 | 01:57:56 | 00:00:00 | |
| HSKMA3-T | 2026-09-04 12:05:37 | 52.79809 | 11.87895 | 43° | 18km/h | 24059m | 5.1m/s | -50.6°C | 0% | 30.8hPa | 2.7V | 03:42:45 | 01:57:54 | 00:00:00 | |
| DF8AY | 2026-09-04 12:05:35 | 52.79791 | 11.87858 | 61° | 27km/h | 24021m | 5.8m/s | -50.9°C | 0% | 31hPa | 2.7V | 03:42:45 | 01:57:47 | 00:00:00 | |
| DL1XH-15 | 2026-09-04 12:05:34 | 52.79799 | 11.87880 | 60° | 13km/h | 24038m | 4.4m/s | -50.8°C | 3.1% | 30.9hPa | 2.7V | 03:42:13 | 01:57:50 | 00:00:00 | |
| DJ2DS-15 | 2026-09-04 12:05:34 | 52.79801 | 11.87884 | 55° | 9km/h | 24042m | 4.6m/s | -50.7°C | 0.5% | 30.9hPa | 2.6V | 00:00:00 | 00:00:00 | 00:00:00 | |
| DO2SHX-10 | 2026-09-04 12:05:33 | 52.79801 | 11.87884 | 56° | 13km/h | 24043m | 4.6m/s | -50.7°C | 3.0% | 30.8hPa | 2.6V | 03:42:00 | 01:57:51 | 00:00:00 | |
| DL1NUX | 2026-09-04 12:05:32 | 52.79785 | 11.87835 | 71° | 31km/h | 24010m | 5.7m/s | -50.9°C | 3% | 31hPa | 2.6V | 03:42:18 | 01:57:45 | 00:00:00 | |
| AA1-15 | 2026-09-04 12:05:32 | 52.79799 | 11.87880 | 60° | 13km/h | 24038m | 4.4m/s | -50.8°C | 0% | 30.9hPa | 2.7V | 03:42:45 | 01:57:50 | 00:00:00 | |
| DL1XH-west | 2026-09-04 12:05:30 | 52.79795 | 11.87867 | 60° | 24km/h | 24027m | 6.5m/s | -51°C | 0% | 31hPa | 2.7V | 03:42:45 | 01:57:48 | 00:00:00 | |
| BIOWL1-15 | 2026-09-04 12:05:29 | 52.79785 | 11.87835 | 72° | 31km/h | 24010m | 5.7m/s | -50.9°C | 0% | 31hPa | 2.6V | 03:42:45 | 01:57:45 | 00:00:00 | |
| HSKMA3-T | 2026-09-04 12:05:26 | 52.79783 | 11.87824 | 76° | 27km/h | 24005m | 5.1m/s | -50.9°C | 0% | 31.1hPa | 2.6V | 03:42:45 | 01:57:44 | 00:00:00 | |
| DB0DAN | 2026-09-04 12:05:25 | 52.79782 | 11.87814 | 77° | 22km/h | 24000m | 3.9m/s | -50.9°C | 0.5% | 31.1hPa | 2.7V | 00:00:00 | 00:00:00 | 00:00:00 | |
| DL1XH-15 | 2026-09-04 12:05:24 | 52.79777 | 11.87793 | 56° | 13km/h | 23984m | 5.6m/s | -51°C | 3% | 31.2hPa | 2.6V | 03:42:23 | 01:57:40 | 00:00:00 | |
| DF8AY | 2026-09-04 12:05:23 | 52.79777 | 11.87793 | 56° | 15km/h | 23984m | 5.6m/s | -51°C | 0% | 31.2hPa | 2.6V | 03:42:45 | 01:57:40 | 00:00:00 | |
| DL1XH1-15 | 2026-09-04 12:05:23 | 52.79772 | 11.87780 | 60° | 9km/h | 23964m | 3.9m/s | -51.1°C | 3.1% | 31.3hPa | 2.7V | 03:42:27 | 01:57:36 | 00:00:00 | |
| AA1-15 | 2026-09-04 12:05:21 | 52.79775 | 11.87789 | 49° | 11km/h | 23980m | 4.6m/s | -51.1°C | 0% | 31.2hPa | 2.6V | 03:42:45 | 01:57:39 | 00:00:00 | |
| DL1XH-west | 2026-09-04 12:05:20 | 52.79774 | 11.87785 | 54° | 7km/h | 23974m | 6.2m/s | -51.1°C | 0% | 31.2hPa | 2.7V | 03:42:45 | 01:57:38 | 00:00:00 | |
| BIOWL1-15 | 2026-09-04 12:05:19 | 52.79771 | 11.87776 | 57° | 13km/h | 23959m | 5.8m/s | -51.2°C | 0% | 31.3hPa | 2.6V | 03:42:45 | 01:57:35 | 00:00:00 | |
| GOEST3-10 | 2026-09-04 12:05:18 | 52.79772 | 11.87780 | 61° | 18km/h | 23964m | 3.9m/s | -51.1°C | 3.1% | 31.2hPa | 2.6V | 00:00:00 | 00:00:00 | 00:00:00 | |
| DM0DOS-11 | 2026-09-04 12:05:17 | 52.79769 | 11.87771 | 51° | 18km/h | 23953m | 6.1m/s | -51.1°C | 3.1% | 31.4hPa | 2.6V | 03:42:29 | 01:57:34 | 00:00:00 | |
| HSKMA3-T | 2026-09-04 12:05:15 | 52.79766 | 11.87764 | 57° | 24km/h | 23948m | 4.7m/s | -51°C | 0% | 31.4hPa | 2.6V | 03:42:45 | 01:57:33 | 00:00:00 | |
| DO2SHX-10 | 2026-09-04 12:05:15 | 52.79766 | 11.87764 | 57° | 26km/h | 23948m | 4.7m/s | -51.0°C | 3.1% | 31.3hPa | 2.6V | 00:00:00 | 01:57:33 | 00:00:00 | |
| DL1XH-15 | 2026-09-04 12:05:14 | 52.79757 | 11.87734 | 68° | 29km/h | 23931m | 5.1m/s | -51.1°C | 3.2% | 31.4hPa | 2.7V | 03:42:33 | 01:57:30 | 00:00:00 | |
| DF8AY | 2026-09-04 12:05:13 | 52.79757 | 11.87734 | 69° | 29km/h | 23931m | 5.1m/s | -51.1°C | 0% | 31.4hPa | 2.7V | 03:42:45 | 01:57:30 | 00:00:00 | |
| GOEST3-10 | 2026-09-04 12:05:13 | 52.79760 | 11.87745 | 68° | 29km/h | 23937m | 6.1m/s | -51.1°C | 3.1% | 31.4hPa | 2.7V | 00:00:00 | 01:57:31 | 00:00:00 | |
| DL1NUX | 2026-09-04 12:05:12 | 52.79736 | 11.87685 | 40° | 24km/h | 23905m | 4.4m/s | -51.3°C | 3.1% | 31.6hPa | 2.7V | 03:42:38 | 01:57:25 | 00:00:00 | |
| AA1-15 | 2026-09-04 12:05:10 | 52.79750 | 11.87712 | 59° | 31km/h | 23921m | 5.9m/s | -51°C | 0% | 31.5hPa | 2.6V | 03:42:45 | 01:57:28 | 00:00:00 | |
| DB0DAN | 2026-09-04 12:05:10 | 52.79750 | 11.87712 | 59° | 29km/h | 23921m | 5.9m/s | -51°C | 0.5% | 31.48hPa | 2.6V | 00:00:00 | 00:00:00 | 00:00:00 | |
| DL1XH-west | 2026-09-04 12:05:10 | 52.79746 | 11.87701 | 51° | 31km/h | 23915m | 5.8m/s | -51.1°C | 0% | 31.5hPa | 2.6V | 03:42:45 | 01:57:27 | 00:00:00 | |
| BIOWL1-15 | 2026-09-04 12:05:07 | 52.79736 | 11.87685 | 41° | 24km/h | 23905m | 4.4m/s | -51.3°C | 0% | 31.6hPa | 2.7V | 03:42:45 | 01:57:25 | 00:00:00 | |
| HSKMA3-T | 2026-09-04 12:05:05 | 52.79730 | 11.87675 | 45° | 11km/h | 23893m | 6m/s | -51.5°C | 0% | 31.6hPa | 2.7V | 03:42:45 | 01:57:23 | 00:00:00 | |
| DL1XH-15 | 2026-09-04 12:05:04 | 52.79726 | 11.87662 | 70° | 16km/h | 23877m | 5.6m/s | -51.7°C | 3.1% | 31.7hPa | 2.6V | 03:42:43 | 01:57:20 | 00:00:00 | |
| DO3MHA-11 | 2026-09-04 12:05:04 | 52.79728 | 11.87672 | 60° | 24km/h | 23888m | 5.1m/s | 0°C | 0% | 0hPa | 2.7V | 00:00:00 | 01:57:22 | 00:00:00 | |
| DL1XH1-15 | 2026-09-04 12:05:03 | 52.79720 | 11.87631 | 67° | 22km/h | 23856m | 4.3m/s | -51.7°C | 3.3% | 31.8hPa | 2.7V | 03:42:47 | 01:57:16 | 00:00:00 | |
| DO2SHX-10 | 2026-09-04 12:05:03 | 52.79727 | 11.87668 | 68° | 15km/h | 23883m | 5.9m/s | -51.6°C | 3.1% | 31.6hPa | 2.6V | 00:00:00 | 01:57:21 | 00:00:00 | |
| DL1NUX | 2026-09-04 12:05:02 | 52.79718 | 11.87622 | 59° | 26km/h | 23851m | 5.2m/s | -51.7°C | 3.3% | 31.9hPa | 2.6V | 03:42:48 | 01:57:15 | 00:00:00 | |
| DF8AY | 2026-09-04 12:05:01 | 52.79724 | 11.87655 | 76° | 18km/h | 23872m | 4.3m/s | -51.7°C | 0% | 31.7hPa | 2.6V | 03:42:45 | 01:57:19 | 00:00:00 | |
| DM0DOS-11 | 2026-09-04 12:05:01 | 52.79713 | 11.87613 | 49° | 29km/h | 23845m | 6.6m/s | -51.6°C | 3.3% | 31.9hPa | 2.6V | 03:42:49 | 01:57:14 | 00:00:00 | |
| DL1XH-west | 2026-09-04 12:04:59 | 52.79722 | 11.87639 | 77° | 22km/h | 23861m | 5.7m/s | -51.7°C | 0% | 31.8hPa | 2.7V | 03:43:36 | 01:57:17 | 00:00:00 | |
| BIOWL1-15 | 2026-09-04 12:04:56 | 52.79692 | 11.87585 | 36° | 20km/h | 23824m | 5.7m/s | -51.6°C | 0% | 32hPa | 2.6V | 03:43:36 | 01:57:10 | 00:00:00 | |
| SONDE2-11 | 2026-09-04 12:04:56 | 52.79714 | 11.87613 | 49° | 27km/h | 23845m | 6.6m/s | -51.6°C | 0.5% | 31.9hPa | 2.7V | 00:00:00 | 00:00:00 | 00:00:00 | |
| DB0DAN | 2026-09-04 12:04:55 | 52.79708 | 11.87604 | 40° | 29km/h | 23840m | 4.3m/s | -51.5°C | 0.5% | 31.91hPa | 2.7V | 00:00:00 | 00:00:00 | 00:00:00 | |
| HSKMA3-T | 2026-09-04 12:04:54 | 52.79702 | 11.87597 | 35° | 29km/h | 23835m | 4.5m/s | -51.6°C | 0% | 31.9hPa | 2.7V | 03:43:36 | 01:57:12 | 00:00:00 | |
| DL1XH-15 | 2026-09-04 12:04:54 | 52.79692 | 11.87584 | 36° | 20km/h | 23824m | 5.7m/s | -51.6°C | 3.3% | 32hPa | 2.6V | 03:42:53 | 01:57:10 | 00:00:00 | |
| EDDB2-12 | 2026-09-04 12:04:53 | 52.79692 | 11.87585 | 36° | 20km/h | 23825m | 5.7m/s | -51.6°C | 0.5% | 32.0hPa | 2.7V | 00:00:00 | 00:00:00 | 00:00:00 | |
| DL1NUX | 2026-09-04 12:04:52 | 52.79675 | 11.87556 | 48° | 27km/h | 23798m | 5.2m/s | -51.5°C | 3.2% | 32.1hPa | 2.7V | 03:42:58 | 01:57:05 | 00:00:00 | |
| GOEST3-10 | 2026-09-04 12:04:52 | 52.79692 | 11.87584 | 37° | 18km/h | 23825m | 5.7m/s | -51.6°C | 3.3% | 31.9hPa | 2.7V | 00:00:00 | 01:57:10 | 00:00:00 | |
| DM0DOS-11 | 2026-09-04 12:04:51 | 52.79671 | 11.87547 | 44° | 29km/h | 23793m | 4.7m/s | -51.5°C | 3.2% | 32.1hPa | 2.7V | 03:42:59 | 01:57:04 | 00:00:00 | |
| DF8AY | 2026-09-04 12:04:50 | 52.79685 | 11.87575 | 49° | 16km/h | 23814m | 4.8m/s | -51.6°C | 0% | 32hPa | 2.6V | 03:43:36 | 01:57:08 | 00:00:00 | |
| AA1-15 | 2026-09-04 12:04:48 | 52.79679 | 11.87563 | 53° | 22km/h | 23803m | 5.7m/s | -51.6°C | 0% | 32.1hPa | 2.7V | 03:43:36 | 01:57:06 | 00:00:00 | |
| BIOWL1-15 | 2026-09-04 12:04:47 | 52.79665 | 11.87539 | 42° | 27km/h | 23788m | 5.7m/s | -51.4°C | 0% | 32.1hPa | 2.6V | 03:43:36 | 01:57:03 | 00:00:00 | |
| SMARD9-15 | 2026-09-04 12:04:45 | 52.79660 | 11.87532 | 36° | 26km/h | 23783m | 5.5m/s | -51.3°C | 0.5% | 32.2hPa | 2.6V | 00:00:00 | 00:00:00 | 00:00:00 | |
| HSKMA3-T | 2026-09-04 12:04:44 | 52.79654 | 11.87526 | 32° | 27km/h | 23777m | 4.7m/s | -51.4°C | 0% | 32.2hPa | 2.6V | 03:43:36 | 01:57:01 | 00:00:00 | |
| DF7ER-10 | 2026-09-04 12:04:44 | 52.79660 | 11.87532 | 37° | 27km/h | 23783m | 5.5m/s | -51.3°C | 0.6% | 32.2hPa | 2.7V | 03:43:00 | 00:00:00 | 00:00:00 | |
| GOEST3-10 | 2026-09-04 12:04:42 | 52.79648 | 11.87520 | 30° | 31km/h | 23773m | 4.8m/s | -51.4°C | 3.2% | 32.2hPa | 2.7V | 00:00:00 | 01:57:00 | 00:00:00 | |
| DB0DAN | 2026-09-04 12:04:40 | 52.79634 | 11.87508 | 25° | 31km/h | 23761m | 5.4m/s | -51.4°C | 0.5% | 32.28hPa | 2.7V | 00:00:00 | 00:00:00 | 00:00:00 | |
| DF8AY | 2026-09-04 12:04:39 | 52.79626 | 11.87503 | 21° | 33km/h | 23756m | 4.4m/s | -51.3°C | 0% | 32.3hPa | 2.6V | 03:43:36 | 01:56:57 | 00:00:00 | |
| DL1XH-west | 2026-09-04 12:04:38 | 52.79619 | 11.87499 | 15° | 29km/h | 23751m | 6.3m/s | -51.3°C | 0% | 32.3hPa | 2.6V | 03:43:36 | 01:56:56 | 00:00:00 | |
| DM0DOS-11 | 2026-09-04 12:04:38 | 52.79605 | 11.87495 | 7° | 24km/h | 23740m | 4.4m/s | -51.3°C | 3.3% | 32.4hPa | 2.7V | 03:43:09 | 01:56:54 | 00:00:00 | |
| AA1-15 | 2026-09-04 12:04:37 | 52.79612 | 11.87496 | 8° | 26km/h | 23745m | 5.5m/s | -51.3°C | 0% | 32.4hPa | 2.7V | 03:43:36 | 01:56:55 | 00:00:00 | |
| DL1ZP-14 | 2026-09-04 12:04:37 | 52.79606 | 11.87495 | 7° | 24km/h | 23740m | 4.4m/s | -51.3°C | 0.6% | 32.4hPa | 2.7V | 00:00:00 | 00:00:00 | 00:00:00 | |
| DO2SHX-10 | 2026-09-04 12:04:36 | 52.79606 | 11.87495 | 8° | 26km/h | 23740m | 4.3m/s | -51.2°C | 3.3% | 32.3hPa | 2.6V | 00:00:00 | 01:56:54 | 00:00:00 | |
| DL1XH-15 | 2026-09-04 12:04:34 | 52.79581 | 11.87479 | 32° | 31km/h | 23719m | 4.7m/s | -51.1°C | 3.1% | 32.5hPa | 2.6V | 03:43:13 | 01:56:50 | 00:00:00 | |
| BIOWL1-15 | 2026-09-04 12:04:33 | 52.79581 | 11.87479 | 32° | 31km/h | 23719m | 4.7m/s | -51.1°C | 0% | 32.5hPa | 2.6V | 03:43:36 | 01:56:50 | 00:00:00 | |
| HSKMA3-T | 2026-09-04 12:04:33 | 52.79587 | 11.87485 | 30° | 29km/h | 23724m | 5.5m/s | -51.1°C | 0% | 32.5hPa | 2.6V | 03:43:36 | 01:56:51 | 00:00:00 | |
| DL1XH1-15 | 2026-09-04 12:04:33 | 52.79554 | 11.87456 | 19° | 27km/h | 23698m | 4.6m/s | -51°C | 3% | 32.6hPa | 2.7V | 03:43:17 | 01:56:46 | 00:00:00 | |
| DF8AY | 2026-09-04 12:04:31 | 52.79554 | 11.87456 | 20° | 27km/h | 23698m | 4.6m/s | -51°C | 0% | 32.6hPa | 2.7V | 03:43:36 | 01:56:46 | 00:00:00 | |
| DL1XH-west | 2026-09-04 12:04:28 | 52.79547 | 11.87453 | 20° | 27km/h | 23693m | 4.3m/s | -51°C | 0% | 32.6hPa | 2.6V | 03:43:36 | 01:56:45 | 00:00:00 | |
| DM0DOS-11 | 2026-09-04 12:04:27 | 52.79541 | 11.87449 | 23° | 27km/h | 23688m | 6.1m/s | -51.1°C | 3.1% | 32.6hPa | 2.6V | 03:43:19 | 01:56:44 | 00:00:00 | |
| AA1-15 | 2026-09-04 12:04:26 | 52.79541 | 11.87448 | 23° | 27km/h | 23688m | 6.1m/s | -51.1°C | 0% | 32.6hPa | 2.6V | 03:43:36 | 01:56:44 | 00:00:00 | |
| DD8BA-10 | 2026-09-04 12:04:26 | 52.79541 | 11.87448 | 24° | 22km/h | 23688m | 6.0m/s | -51.1°C | 3.1% | 32.6hPa | 2.7V | 00:00:00 | 00:00:00 | 00:00:00 | |
| SONCRA | 2026-09-04 12:04:25 | 52.79535 | 11.87444 | 23° | 26km/h | 23682m | 5.5m/s | -51.2°C | 0.6% | 32.7hPa | 2.7V | 00:00:00 | 00:00:00 | 00:00:00 | |
| DL1XH-15 | 2026-09-04 12:04:24 | 52.79519 | 11.87435 | 8° | 20km/h | 23666m | 5.7m/s | -51°C | 3.1% | 32.8hPa | 2.7V | 03:43:23 | 01:56:40 | 00:00:00 | |
| DO2SHX-10 | 2026-09-04 12:04:24 | 52.79529 | 11.87440 | 24° | 22km/h | 23677m | 4.6m/s | -51.2°C | 3.2% | 32.7hPa | 2.7V | 00:00:00 | 01:56:42 | 00:00:00 | |
| NBG1-10 | 2026-09-04 12:04:23 | 52.79523 | 11.87436 | 18° | 11km/h | 23672m | 5.7m/s | -51.0°C | 3.1% | 32.7hPa | 2.7V | 03:43:00 | 01:56:41 | 00:00:00 | |
| DL1XH1-15 | 2026-09-04 12:04:22 | 52.79499 | 11.87428 | 26° | 22km/h | 23645m | 5.7m/s | -51°C | 3.2% | 32.9hPa | 2.7V | 03:43:27 | 01:56:36 | 00:00:00 | |
| DL1NUX | 2026-09-04 12:04:22 | 52.79494 | 11.87424 | 33° | 22km/h | 23641m | 4.3m/s | -51°C | 3.1% | 32.9hPa | 2.7V | 03:43:28 | 01:56:35 | 00:00:00 | |
| HSKMA3-T | 2026-09-04 12:04:22 | 52.79518 | 11.87435 | 8° | 20km/h | 23666m | 5.7m/s | -51.1°C | 0% | 32.8hPa | 2.7V | 03:43:36 | 01:56:40 | 00:00:00 | |
| BIOWL1-15 | 2026-09-04 12:04:21 | 52.79514 | 11.87434 | 5° | 18km/h | 23661m | 4.4m/s | -51.1°C | 0% | 32.8hPa | 2.6V | 03:43:36 | 01:56:39 | 00:00:00 | |
| DF8AY | 2026-09-04 12:04:19 | 52.79479 | 11.87408 | 18° | 15km/h | 23621m | 5.1m/s | -51°C | 0% | 33hPa | 2.7V | 03:43:36 | 01:56:31 | 00:00:00 | |
| DL1XH-west | 2026-09-04 12:04:18 | 52.79495 | 11.87424 | 34° | 22km/h | 23641m | 4.3m/s | -51°C | 0% | 32.9hPa | 2.7V | 03:43:36 | 01:56:35 | 00:00:00 | |
| AA1-15 | 2026-09-04 12:04:15 | 52.79486 | 11.87414 | 33° | 18km/h | 23632m | 5.8m/s | -51.1°C | 0% | 33hPa | 2.6V | 03:43:36 | 01:56:33 | 00:00:00 | |
| DO2SHX-10 | 2026-09-04 12:04:15 | 52.79486 | 11.87414 | 33° | 16km/h | 23632m | 5.8m/s | -51.1°C | 3.1% | 32.9hPa | 2.7V | 00:00:00 | 01:56:33 | 00:00:00 | |
| DL1XH-15 | 2026-09-04 12:04:14 | 52.79475 | 11.87406 | 19° | 15km/h | 23615m | 5.9m/s | -51°C | 3.1% | 33hPa | 2.7V | 03:43:33 | 01:56:30 | 00:00:00 | |
| SMARD9-15 | 2026-09-04 12:04:14 | 52.79479 | 11.87408 | 18° | 15km/h | 23621m | 5.1m/s | -51.0°C | 0.5% | 33.0hPa | 2.6V | 00:00:00 | 00:00:00 | 00:00:00 | |
| DL1XH1-15 | 2026-09-04 12:04:12 | 52.79463 | 11.87401 | 346° | 9km/h | 23594m | 6.2m/s | -51°C | 3% | 33.1hPa | 2.6V | 03:43:37 | 01:56:26 | 00:00:00 | |
| DL1NUX | 2026-09-04 12:04:12 | 52.79461 | 11.87402 | 333° | 7km/h | 23588m | 5.5m/s | -51°C | 3.1% | 33.1hPa | 2.6V | 03:43:38 | 01:56:25 | 00:00:00 | |
| DF7ER-10 | 2026-09-04 12:04:12 | 52.79475 | 11.87406 | 21° | 15km/h | 23616m | 5.9m/s | -51.0°C | 0.5% | 33.0hPa | 2.7V | 03:43:00 | 00:00:00 | 00:00:00 | |
| MECKS9 | 2026-09-04 12:04:11 | 52.79475 | 11.87406 | 21° | 15km/h | 23616m | 5.9m/s | -51.0°C | 0.5% | 33.0hPa | 2.7V | 03:43:00 | 00:00:00 | 00:00:00 | |
| HSKMA3-T | 2026-09-04 12:04:11 | 52.79472 | 11.87404 | 19° | 15km/h | 23609m | 5.9m/s | -51°C | 0% | 33hPa | 2.7V | 03:43:36 | 01:56:29 | 00:00:00 | |
| DB0DAN | 2026-09-04 12:04:10 | 52.79468 | 11.87402 | 15° | 13km/h | 23604m | 4.5m/s | -51.1°C | 0.5% | 33.08hPa | 2.7V | 00:00:00 | 00:00:00 | 00:00:00 | |
| DF8AY | 2026-09-04 12:04:08 | 52.79463 | 11.87401 | 347° | 9km/h | 23594m | 6.2m/s | -51°C | 0% | 33.1hPa | 2.6V | 03:44:27 | 01:56:26 | 00:00:00 | |
| AA1-15 | 2026-09-04 12:04:06 | 52.79459 | 11.87403 | 26° | 5km/h | 23577m | 6.4m/s | -51.1°C | 0% | 33.2hPa | 2.7V | 03:44:27 | 01:56:23 | 00:00:00 | |
| DL1XH-15 | 2026-09-04 12:04:04 | 52.79456 | 11.87395 | 55° | 9km/h | 23562m | 6.3m/s | -51.2°C | 3.1% | 33.3hPa | 2.6V | 03:43:43 | 01:56:20 | 00:00:00 | |
| DO2SHX-10 | 2026-09-04 12:04:03 | 52.79456 | 11.87398 | 58° | 9km/h | 23567m | 4.2m/s | -51.1°C | 3.1% | 33.2hPa | 2.6V | 00:00:00 | 01:56:21 | 00:00:00 | |
| DL1XH1-15 | 2026-09-04 12:04:02 | 52.79448 | 11.87381 | 46° | 15km/h | 23539m | 5.6m/s | -51.2°C | 3.1% | 33.4hPa | 2.6V | 03:43:47 | 01:56:16 | 00:00:00 | |
| HSKMA3-T | 2026-09-04 12:04:01 | 52.79453 | 11.87390 | 46° | 11km/h | 23550m | 4.9m/s | -51.2°C | 0% | 33.4hPa | 2.7V | 03:44:27 | 01:56:18 | 00:00:00 | |
| DF8AY | 2026-09-04 12:03:58 | 52.79448 | 11.87381 | 47° | 15km/h | 23539m | 5.6m/s | -51.2°C | 0% | 33.4hPa | 2.6V | 03:44:27 | 01:56:16 | 00:00:00 | |
| AA1-15 | 2026-09-04 12:03:56 | 52.79440 | 11.87371 | 22° | 9km/h | 23523m | 5.8m/s | -51.3°C | 0% | 33.5hPa | 2.7V | 03:44:27 | 01:56:13 | 00:00:00 | |
| DB0DAN | 2026-09-04 12:03:55 | 52.79440 | 11.87371 | 22° | 9km/h | 23523m | 5.8m/s | -51.3°C | 0.5% | 33.49hPa | 2.7V | 00:00:00 | 00:00:00 | 00:00:00 | |
| DL1XH-15 | 2026-09-04 12:03:55 | 52.79435 | 11.87368 | 43° | 7km/h | 23508m | 5.4m/s | -51.3°C | 3.1% | 33.6hPa | 2.7V | 03:43:53 | 01:56:10 | 00:00:00 | |
| DO2SHX-10 | 2026-09-04 12:03:54 | 52.79438 | 11.87370 | 8° | 7km/h | 23518m | 4.7m/s | -51.1°C | 3.1% | 33.5hPa | 2.7V | 00:00:00 | 01:56:12 | 00:00:00 | |
| BIOWL1-15 | 2026-09-04 12:03:54 | 52.79438 | 11.87370 | 7° | 7km/h | 23518m | 4.8m/s | -51.2°C | 0% | 33.5hPa | 2.7V | 03:46:09 | 01:56:12 | 00:00:00 | |
| DL1XH1-15 | 2026-09-04 12:03:53 | 52.79428 | 11.87347 | 64° | 18km/h | 23487m | 6.1m/s | -51.3°C | 3.1% | 33.7hPa | 2.7V | 03:43:57 | 01:56:06 | 00:00:00 | |
| GOEST3-10 | 2026-09-04 12:03:52 | 52.79435 | 11.87368 | 44° | 15km/h | 23509m | 5.3m/s | -51.2°C | 3.1% | 33.5hPa | 2.7V | 00:00:00 | 01:56:10 | 00:00:00 | |
| DL1NUX | 2026-09-04 12:03:51 | 52.79427 | 11.87340 | 65° | 18km/h | 23481m | 5.3m/s | -51.4°C | 3.1% | 33.7hPa | 2.7V | 03:43:58 | 01:56:05 | 00:00:00 | |
| EDDB2-12 | 2026-09-04 12:03:51 | 52.79432 | 11.87360 | 65° | 15km/h | 23498m | 4.5m/s | -51.3°C | 0.5% | 33.6hPa | 2.7V | 00:00:00 | 00:00:00 | 00:00:00 | |
| DM0DOS-11 | 2026-09-04 12:03:50 | 52.79425 | 11.87333 | 64° | 20km/h | 23477m | 4.6m/s | -51.4°C | 3.1% | 33.7hPa | 2.7V | 03:43:59 | 01:56:04 | 00:00:00 | |
| HSKMA3-T | 2026-09-04 12:03:50 | 52.79432 | 11.87360 | 65° | 16km/h | 23497m | 4.5m/s | -51.3°C | 0% | 33.6hPa | 2.6V | 03:44:27 | 01:56:08 | 00:00:00 | |
| SP3WXH-11 | 2026-09-04 12:03:49 | 52.79428 | 11.87347 | 64° | 16km/h | 23487m | 6.1m/s | -51.3°C | 0.5% | 33.7hPa | 2.7V | 00:00:00 | 00:00:00 | 00:00:00 | |
| DF8AY | 2026-09-04 12:03:47 | 52.79412 | 11.87294 | 51° | 18km/h | 23453m | 5.7m/s | -51.5°C | 0% | 33.9hPa | 2.7V | 03:44:27 | 01:55:59 | 00:00:00 | |
| GOEST3-10 | 2026-09-04 12:03:47 | 52.79427 | 11.87340 | 66° | 20km/h | 23482m | 5.3m/s | -51.3°C | 3.1% | 33.7hPa | 2.7V | 03:43:00 | 00:00:00 | 00:00:00 | |
| DF8AY-15 | 2026-09-04 12:03:46 | 52.79425 | 11.87333 | 65° | 18km/h | 23477m | 4.6m/s | -51.4°C | 3.1% | 33.7hPa | 2.7V | 00:00:00 | 01:56:04 | 00:00:00 | |
| DO2SHX-10 | 2026-09-04 12:03:45 | 52.79422 | 11.87325 | 65° | 22km/h | 23472m | 5.5m/s | -51.4°C | 3.1% | 33.7hPa | 2.6V | 03:44:00 | 01:56:03 | 00:00:00 | |
| DL1XH-15 | 2026-09-04 12:03:44 | 52.79415 | 11.87301 | 57° | 20km/h | 23457m | 3.8m/s | -51.5°C | 3.1% | 33.9hPa | 2.7V | 03:44:03 | 01:56:00 | 00:00:00 | |
| AA1-15 | 2026-09-04 12:03:44 | 52.79420 | 11.87317 | 65° | 22km/h | 23466m | 5.7m/s | -51.5°C | 0% | 33.8hPa | 2.6V | 03:44:27 | 01:56:02 | 00:00:00 | |
| HSKMA3-T | 2026-09-04 12:03:40 | 52.79409 | 11.87289 | 42° | 15km/h | 23447m | 5.6m/s | -51.5°C | 0% | 33.9hPa | 2.6V | 03:44:27 | 01:55:58 | 00:00:00 | |
| DB0DAN | 2026-09-04 12:03:40 | 52.79409 | 11.87289 | 42° | 15km/h | 23447m | 5.6m/s | -51.5°C | 0.5% | 33.88hPa | 2.6V | 00:00:00 | 00:00:00 | 00:00:00 | |
| BIOWL1-15 | 2026-09-04 12:03:39 | 52.79402 | 11.87276 | 61° | 15km/h | 23432m | 6m/s | -51.5°C | 0% | 34hPa | 2.7V | 03:46:09 | 01:55:55 | 00:00:00 | |
| DL1NUX | 2026-09-04 12:03:39 | 52.79402 | 11.87276 | 61° | 15km/h | 23432m | 6m/s | -51.5°C | 3.1% | 34hPa | 2.7V | 03:44:08 | 01:55:55 | 00:00:00 | |
| DM0DOS-11 | 2026-09-04 12:03:38 | 52.79400 | 11.87270 | 67° | 16km/h | 23426m | 4.4m/s | -51.5°C | 3.1% | 34hPa | 2.7V | 03:44:09 | 01:55:54 | 00:00:00 | |
| DL1XH-west | 2026-09-04 12:03:34 | 52.79397 | 11.87257 | 62° | 16km/h | 23417m | 6.4m/s | -51.6°C | 0% | 34.1hPa | 2.7V | 03:44:27 | 01:55:52 | 00:00:00 | |
| DL1XH-15 | 2026-09-04 12:03:34 | 52.79393 | 11.87246 | 47° | 16km/h | 23406m | 5.2m/s | -51.6°C | 3.2% | 34.1hPa | 2.6V | 03:44:13 | 01:55:50 | 00:00:00 | |
| DO2SHX-10 | 2026-09-04 12:03:33 | 52.79395 | 11.87251 | 55° | 16km/h | 23411m | 5.3m/s | -51.6°C | 3.2% | 34.1hPa | 2.6V | 03:44:00 | 01:55:51 | 00:00:00 | |
| AA1-15 | 2026-09-04 12:03:33 | 52.79395 | 11.87251 | 55° | 15km/h | 23411m | 5.4m/s | -51.6°C | 0% | 34.1hPa | 2.6V | 03:44:27 | 01:55:51 | 00:00:00 | |
| DL1NUX | 2026-09-04 12:03:32 | 52.79377 | 11.87218 | 32° | 18km/h | 23381m | 4.8m/s | -51.8°C | 3.2% | 34.2hPa | 2.6V | 03:44:18 | 01:55:45 | 00:00:00 | |
| GOEST3-10 | 2026-09-04 12:03:32 | 52.79392 | 11.87246 | 48° | 18km/h | 23406m | 5.1m/s | -51.5°C | 3.2% | 34.1hPa | 2.6V | 00:00:00 | 01:55:50 | 00:00:00 | |
| DM0DOS-11 | 2026-09-04 12:03:31 | 52.79374 | 11.87214 | 17° | 16km/h | 23375m | 6.3m/s | -51.8°C | 3.1% | 34.3hPa | 2.6V | 03:44:19 | 01:55:44 | 00:00:00 | |
| DF8AY | 2026-09-04 12:03:30 | 52.79356 | 11.87210 | 36° | 5km/h | 23337m | 6.1m/s | -51.9°C | 0% | 34.5hPa | 2.7V | 03:44:27 | 01:55:37 | 00:00:00 | |
| BIOWL1-15 | 2026-09-04 12:03:29 | 52.79384 | 11.87229 | 54° | 20km/h | 23390m | 5.1m/s | -51.7°C | 0% | 34.2hPa | 2.7V | 03:46:09 | 01:55:47 | 00:00:00 | |
| DL4BBY-15 | 2026-09-04 12:03:29 | 52.79384 | 11.87229 | 55° | 11km/h | 23390m | 5.1m/s | -51.5°C | 0% | 0hPa | 2.6V | 00:00:00 | 00:00:00 | 00:00:00 | |
| DO2SHX-10 | 2026-09-04 12:03:27 | 52.79377 | 11.87218 | 33° | 16km/h | 23381m | 4.8m/s | -51.8°C | 3.2% | 34.2hPa | 2.6V | 00:00:00 | 01:55:45 | 00:00:00 | |
| MECKS9 | 2026-09-04 12:03:26 | 52.79377 | 11.87218 | 34° | 18km/h | 23381m | 4.8m/s | -51.8°C | 0.5% | 34.2hPa | 2.7V | 03:44:00 | 00:00:00 | 00:00:00 | |
| DB0DAN | 2026-09-04 12:03:25 | 52.79369 | 11.87213 | 1° | 16km/h | 23369m | 5.1m/s | -51.8°C | 0.5% | 34.31hPa | 2.7V | 00:00:00 | 00:00:00 | 00:00:00 | |
| DL1XH-west | 2026-09-04 12:03:24 | 52.79365 | 11.87214 | 353° | 15km/h | 23364m | 4.7m/s | -51.9°C | 0% | 34.3hPa | 2.7V | 03:44:27 | 01:55:42 | 00:00:00 | |
| DL1XH-15 | 2026-09-04 12:03:24 | 52.79360 | 11.87214 | 12° | 7km/h | 23353m | 5.6m/s | -51.9°C | 3.1% | 34.4hPa | 2.6V | 03:44:23 | 01:55:40 | 00:00:00 | |
| DO2SHX-10 | 2026-09-04 12:03:24 | 52.79365 | 11.87214 | 353° | 11km/h | 23364m | 4.7m/s | -51.8°C | 3.2% | 34.3hPa | 2.7V | 00:00:00 | 01:55:42 | 00:00:00 | |
| DL1XH1-15 | 2026-09-04 12:03:23 | 52.79355 | 11.87209 | 23° | 5km/h | 23331m | 5.1m/s | -52°C | 3.3% | 34.5hPa | 2.7V | 03:44:27 | 01:55:36 | 00:00:00 | |
| AA1-15 | 2026-09-04 12:03:22 | 52.79360 | 11.87214 | 13° | 7km/h | 23353m | 5.6m/s | -51.9°C | 0% | 34.4hPa | 2.6V | 03:44:27 | 01:55:40 | 00:00:00 | |
| GOEST3-10 | 2026-09-04 12:03:22 | 52.79360 | 11.87214 | 13° | 5km/h | 23353m | 5.6m/s | -51.8°C | 3.1% | 34.3hPa | 2.7V | 00:00:00 | 01:55:40 | 00:00:00 | |
| DM0DOS-11 | 2026-09-04 12:03:21 | 52.79352 | 11.87205 | 48° | 9km/h | 23321m | 5.5m/s | -52°C | 3.3% | 34.5hPa | 2.7V | 03:44:29 | 01:55:34 | 00:00:00 | |
| HSKMA3-T | 2026-09-04 12:03:18 | 52.79355 | 11.87209 | 23° | 5km/h | 23331m | 5.1m/s | -52°C | 0% | 34.5hPa | 2.7V | 03:44:27 | 01:55:36 | 00:00:00 | |
| SP3WXH-11 | 2026-09-04 12:03:18 | 52.79353 | 11.87208 | 33° | 5km/h | 23327m | 4.3m/s | -51.9°C | 0.6% | 34.6hPa | 2.7V | 00:00:00 | 00:00:00 | 00:00:00 | |
| GOEST3-10 | 2026-09-04 12:03:17 | 52.79353 | 11.87208 | 34° | 11km/h | 23327m | 4.2m/s | -51.9°C | 3.3% | 34.5hPa | 2.7V | 00:00:00 | 00:00:00 | 00:00:00 | |
| NBG1-10 | 2026-09-04 12:03:16 | 52.79352 | 11.87205 | 49° | 20km/h | 23322m | 5.4m/s | -52.0°C | 3.3% | 34.5hPa | 2.7V | 00:00:00 | 01:55:34 | 00:00:00 | |
| DO2SHX-10 | 2026-09-04 12:03:15 | 52.79350 | 11.87202 | 60° | 15km/h | 23316m | 6.0m/s | -52.1°C | 3.3% | 34.5hPa | 2.7V | 00:00:00 | 01:55:33 | 00:00:00 | |
| DL1XH-15 | 2026-09-04 12:03:14 | 52.79344 | 11.87187 | 38° | 16km/h | 23301m | 6.2m/s | -52.3°C | 3.3% | 34.7hPa | 2.7V | 03:44:33 | 01:55:30 | 00:00:00 | |
| DL1XH-west | 2026-09-04 12:03:14 | 52.79349 | 11.87197 | 61° | 15km/h | 23310m | 4.6m/s | -52.1°C | 0% | 34.6hPa | 2.6V | 03:45:18 | 01:55:32 | 00:00:00 | |
| DF8AY | 2026-09-04 12:03:14 | 52.79347 | 11.87192 | 54° | 15km/h | 23306m | 4.1m/s | -52.2°C | 0% | 34.6hPa | 2.6V | 03:47:00 | 01:55:31 | 00:00:00 | |
| BIOWL1-15 | 2026-09-04 12:03:13 | 52.79333 | 11.87180 | 15° | 15km/h | 23284m | 5.6m/s | -52.3°C | 0% | 34.8hPa | 2.6V | 03:46:09 | 01:55:27 | 00:00:00 | |
| AA1-15 | 2026-09-04 12:03:12 | 52.79344 | 11.87187 | 39° | 16km/h | 23301m | 6.2m/s | -52.3°C | 0% | 34.7hPa | 2.7V | 03:45:18 | 01:55:30 | 00:00:00 | |
| SMARD9-15 | 2026-09-04 12:03:12 | 52.79340 | 11.87184 | 20° | 16km/h | 23295m | 5.8m/s | -52.3°C | 0.6% | 34.7hPa | 2.7V | 00:00:00 | 00:00:00 | 00:00:00 | |
| DM0DOS-11 | 2026-09-04 12:03:11 | 52.79323 | 11.87176 | 4° | 11km/h | 23269m | 4.7m/s | -52.3°C | 3.3% | 34.9hPa | 2.7V | 03:44:39 | 01:55:24 | 00:00:00 | |
| DB0DAN | 2026-09-04 12:03:10 | 52.79337 | 11.87182 | 13° | 15km/h | 23289m | 5m/s | -52.2°C | 0.6% | 34.72hPa | 2.7V | 00:00:00 | 00:00:00 | 00:00:00 | |
| HSKMA3-T | 2026-09-04 12:03:07 | 52.79326 | 11.87177 | 15° | 13km/h | 23273m | 4.6m/s | -52.2°C | 0% | 34.8hPa | 2.7V | 03:45:18 | 01:55:25 | 00:00:00 | |
| GOEST3-10 | 2026-09-04 12:03:07 | 52.79326 | 11.87177 | 15° | 9km/h | 23274m | 4.5m/s | -52.2°C | 3.3% | 34.8hPa | 2.6V | 03:44:00 | 00:00:00 | 00:00:00 | |
| DF8AY-15 | 2026-09-04 12:03:06 | 52.79323 | 11.87176 | 5° | 7km/h | 23269m | 4.6m/s | -52.2°C | 3.3% | 34.8hPa | 2.6V | 00:00:00 | 01:55:24 | 00:00:00 | |
| DL1XH-15 | 2026-09-04 12:03:04 | 52.79315 | 11.87180 | 351° | 4km/h | 23247m | 6.1m/s | -52.1°C | 3.3% | 35hPa | 2.6V | 03:44:43 | 01:55:20 | 00:00:00 | |
| DF8AY | 2026-09-04 12:03:03 | 52.79316 | 11.87179 | 334° | 7km/h | 23252m | 5m/s | -52.2°C | 0% | 34.9hPa | 2.6V | 03:47:00 | 01:55:21 | 00:00:00 | |
| DL1XH1-15 | 2026-09-04 12:03:03 | 52.79310 | 11.87174 | 18° | 9km/h | 23227m | 6.1m/s | -52°C | 3.3% | 35.1hPa | 2.7V | 03:44:47 | 01:55:16 | 00:00:00 | |
| AA1-15 | 2026-09-04 12:03:01 | 52.79314 | 11.87180 | 48° | 4km/h | 23241m | 5.5m/s | -52°C | 0% | 35hPa | 2.7V | 03:45:18 | 01:55:19 | 00:00:00 | |
| BIOWL1-15 | 2026-09-04 12:02:58 | 52.79310 | 11.87174 | 18° | 9km/h | 23227m | 6.1m/s | -52°C | 0% | 35.1hPa | 2.7V | 03:46:09 | 01:55:16 | 00:00:00 | |
| HSKMA3-T | 2026-09-04 12:02:57 | 52.79308 | 11.87173 | 6° | 11km/h | 23221m | 5.1m/s | -52°C | 0% | 35.1hPa | 2.6V | 03:45:18 | 01:55:15 | 00:00:00 | |
| DO2SHX-10 | 2026-09-04 12:02:57 | 52.79308 | 11.87173 | 6° | 11km/h | 23222m | 5.0m/s | -52.0°C | 3.3% | 35.1hPa | 2.6V | 03:44:00 | 01:55:15 | 00:00:00 | |
| MECKS9 | 2026-09-04 12:02:56 | 52.79308 | 11.87173 | 7° | 11km/h | 23222m | 5.1m/s | -52.0°C | 0.6% | 35.1hPa | 2.6V | 03:45:00 | 00:00:00 | 00:00:00 | |
| DB0DAN | 2026-09-04 12:02:55 | 52.79302 | 11.87173 | 7° | 9km/h | 23212m | 5.6m/s | -51.9°C | 0.5% | 35.15hPa | 2.6V | 00:00:00 | 00:00:00 | 00:00:00 | |
| DL1XH-west | 2026-09-04 12:02:52 | 52.79297 | 11.87172 | 349° | 5km/h | 23196m | 4.9m/s | -51.9°C | 0% | 35.2hPa | 2.7V | 03:45:18 | 01:55:10 | 00:00:00 | |
| DL1NUX | 2026-09-04 12:02:52 | 52.79289 | 11.87175 | 43° | 11km/h | 23170m | 6.3m/s | -51.9°C | 3.2% | 35.4hPa | 2.7V | 03:44:58 | 01:55:05 | 00:00:00 | |
| AA1-15 | 2026-09-04 12:02:51 | 52.79296 | 11.87173 | 320° | 5km/h | 23191m | 5.6m/s | -51.9°C | 0% | 35.3hPa | 2.6V | 03:45:18 | 01:55:09 | 00:00:00 | |
| DB0UT-7 | 2026-09-04 12:02:51 | 52.79295 | 11.87173 | 320° | 11km/h | 23191m | 5.5m/s | -51.9°C | 3.2% | 35.2hPa | 2.6V | 00:00:00 | 00:00:00 | 00:00:00 | |
| DB0NH | 2026-09-04 12:02:50 | 52.79294 | 11.87175 | 318° | 11km/h | 23186m | 4.7m/s | -51.8°C | 3.2% | 35.2hPa | 2.6V | 00:00:00 | 01:55:08 | 00:00:00 | |
| DL1XH1-15 | 2026-09-04 12:02:49 | 52.79291 | 11.87177 | 15° | 7km/h | 23176m | 5.1m/s | -51.9°C | 3.2% | 35.4hPa | 2.7V | 03:44:57 | 01:55:06 | 00:00:00 | |
| HSKMA3-T | 2026-09-04 12:02:47 | 52.79289 | 11.87175 | 44° | 11km/h | 23170m | 6.3m/s | -51.9°C | 0% | 35.4hPa | 2.7V | 03:45:18 | 01:55:05 | 00:00:00 | |
| SP3WXH-11 | 2026-09-04 12:02:47 | 52.79287 | 11.87171 | 61° | 13km/h | 23165m | 5.5m/s | -51.9°C | 0.6% | 35.4hPa | 2.6V | 00:00:00 | 00:00:00 | 00:00:00 | |
| DD8BA-10 | 2026-09-04 12:02:46 | 52.79287 | 11.87171 | 62° | 11km/h | 23165m | 5.5m/s | -51.9°C | 3.3% | 35.4hPa | 2.6V | 03:44:00 | 00:00:00 | 00:00:00 | |
| DO2SHX-10 | 2026-09-04 12:02:45 | 52.79285 | 11.87165 | 67° | 13km/h | 23160m | 4.9m/s | -52.0°C | 3.3% | 35.4hPa | 2.7V | 03:45:00 | 01:55:03 | 00:00:00 | |
| DL1XH-15 | 2026-09-04 12:02:44 | 52.79281 | 11.87151 | 57° | 11km/h | 23144m | 4.9m/s | -52.1°C | 3.3% | 35.5hPa | 2.7V | 03:45:03 | 01:55:00 | 00:00:00 | |
| DL1XH1-15 | 2026-09-04 12:02:43 | 52.79272 | 11.87140 | 357° | 9km/h | 23122m | 6.3m/s | -52.2°C | 3.3% | 35.6hPa | 2.6V | 03:45:07 | 01:54:56 | 00:00:00 | |
| DL1XH-west | 2026-09-04 12:02:42 | 52.79280 | 11.87147 | 50° | 11km/h | 23139m | 6.4m/s | -52.1°C | 0% | 35.6hPa | 2.7V | 03:45:18 | 01:54:59 | 00:00:00 | |
| GOEST3-10 | 2026-09-04 12:02:41 | 52.79280 | 11.87147 | 51° | 11km/h | 23139m | 6.3m/s | -52.0°C | 3.3% | 35.5hPa | 2.7V | 00:00:00 | 01:54:59 | 00:00:00 | |
| DL1NUX | 2026-09-04 12:02:40 | 52.79271 | 11.87141 | 332° | 7km/h | 23116m | 5.1m/s | -52.1°C | 3.3% | 35.7hPa | 2.6V | 03:45:08 | 01:54:55 | 00:00:00 | |
| AA1-15 | 2026-09-04 12:02:40 | 52.79277 | 11.87144 | 39° | 13km/h | 23132m | 5.6m/s | -52°C | 0% | 35.6hPa | 2.7V | 03:45:18 | 01:54:58 | 00:00:00 | |
| BIOWL1-15 | 2026-09-04 12:02:36 | 52.79269 | 11.87143 | 337° | 7km/h | 23112m | 3.4m/s | -52.1°C | 0% | 35.7hPa | 2.7V | 03:46:09 | 01:54:54 | 00:00:00 | |
| DH5RUM-10 | 2026-09-04 12:02:35 | 52.79269 | 11.87142 | 338° | 7km/h | 23112m | 3.4m/s | -52.1°C | 0.6% | 35.7hPa | 2.6V | 00:00:00 | 00:00:00 | 00:00:00 | |
| DL1XH-15 | 2026-09-04 12:02:34 | 52.79262 | 11.87132 | 68° | 18km/h | 23092m | 4.6m/s | -52°C | 3.3% | 35.8hPa | 2.6V | 03:45:13 | 01:54:50 | 00:00:00 | |
| DL1XH1-15 | 2026-09-04 12:02:33 | 52.79259 | 11.87107 | 92° | 13km/h | 23071m | 3.8m/s | -52.1°C | 3.3% | 35.9hPa | 2.6V | 03:45:17 | 01:54:46 | 00:00:00 | |
| DO2SHX-10 | 2026-09-04 12:02:33 | 52.79264 | 11.87138 | 62° | 16km/h | 23097m | 5.4m/s | -52.1°C | 3.2% | 35.8hPa | 2.6V | 03:45:00 | 01:54:51 | 00:00:00 | |
| DL1NUX | 2026-09-04 12:02:32 | 52.79259 | 11.87102 | 89° | 13km/h | 23067m | 4.4m/s | -52°C | 3.2% | 36hPa | 2.6V | 03:45:18 | 01:54:45 | 00:00:00 | |
| AA1-15 | 2026-09-04 12:02:30 | 52.79260 | 11.87118 | 79° | 15km/h | 23081m | 5.7m/s | -52.1°C | 0% | 35.9hPa | 2.7V | 03:45:18 | 01:54:48 | 00:00:00 | |
| DO2SHX-10 | 2026-09-04 12:02:30 | 52.79260 | 11.87118 | 80° | 13km/h | 23081m | 5.7m/s | -52.1°C | 3.3% | 35.8hPa | 2.6V | 00:00:00 | 01:54:48 | 00:00:00 | |
| DL4BBY-15 | 2026-09-04 12:02:29 | 52.79259 | 11.87112 | 88° | 13km/h | 23075m | 4.7m/s | -51.8°C | 0% | 0hPa | 2.6V | 00:00:00 | 00:00:00 | 00:00:00 | |
| EDDB2-11 | 2026-09-04 12:02:28 | 52.79259 | 11.87107 | 92° | 11km/h | 23071m | 3.8m/s | -52.1°C | 0.6% | 35.9hPa | 2.6V | 00:00:00 | 00:00:00 | 00:00:00 | |
| DM0DOS-11 | 2026-09-04 12:02:27 | 52.79259 | 11.87097 | 85° | 15km/h | 23061m | 6m/s | -52.1°C | 3.3% | 36hPa | 2.6V | 03:45:19 | 01:54:44 | 00:00:00 | |
| BIOWL1-15 | 2026-09-04 12:02:25 | 52.79259 | 11.87090 | 81° | 15km/h | 23056m | 4.8m/s | -52.1°C | 0% | 36hPa | 2.7V | 03:46:09 | 01:54:43 | 00:00:00 | |
| DB0DAN | 2026-09-04 12:02:25 | 52.79259 | 11.87090 | 81° | 15km/h | 23056m | 4.8m/s | -52.1°C | 0.6% | 36.01hPa | 2.7V | 00:00:00 | 00:00:00 | 00:00:00 | |
| DL1XH-15 | 2026-09-04 12:02:24 | 52.79256 | 11.87075 | 69° | 7km/h | 23041m | 5.5m/s | -52.1°C | 3.4% | 36.1hPa | 2.7V | 03:45:23 | 01:54:40 | 00:00:00 | |
| DO2SHX-10 | 2026-09-04 12:02:24 | 52.79258 | 11.87084 | 77° | 11km/h | 23052m | 4.2m/s | -52.0°C | 3.3% | 36.0hPa | 2.7V | 00:00:00 | 01:54:42 | 00:00:00 | |
| DL1XH1-15 | 2026-09-04 12:02:23 | 52.79252 | 11.87059 | 68° | 16km/h | 23020m | 5.3m/s | -52.2°C | 3.4% | 36.2hPa | 2.7V | 03:45:27 | 01:54:36 | 00:00:00 | |
| DL1NUX | 2026-09-04 12:02:22 | 52.79251 | 11.87053 | 66° | 18km/h | 23015m | 4.2m/s | -52.2°C | 3.4% | 36.3hPa | 2.7V | 03:45:28 | 01:54:35 | 00:00:00 | |
| AM1SDL-15 | 2026-09-04 12:02:22 | 52.79256 | 11.87075 | 70° | 13km/h | 23041m | 5.5m/s | -52.0°C | 3.4% | 36.1hPa | 2.6V | 00:00:00 | 01:54:40 | 00:00:00 | |
| DM0DOS-11 | 2026-09-04 12:02:21 | 52.79247 | 11.87040 | 65° | 15km/h | 23004m | 5.4m/s | -52.2°C | 3.4% | 36.3hPa | 2.6V | 03:45:30 | 01:54:33 | 00:00:00 | |
| DL1XH-west | 2026-09-04 12:02:20 | 52.79255 | 11.87069 | 65° | 9km/h | 23031m | 4.4m/s | -52.1°C | 0% | 36.1hPa | 2.6V | 03:46:09 | 01:54:38 | 00:00:00 | |
| AA1-15 | 2026-09-04 12:02:19 | 52.79254 | 11.87065 | 67° | 13km/h | 23026m | 6.6m/s | -52.2°C | 0% | 36.2hPa | 2.6V | 03:46:09 | 01:54:37 | 00:00:00 | |
| HSKMA3-T | 2026-09-04 12:02:16 | 52.79247 | 11.87040 | 66° | 15km/h | 23004m | 5.4m/s | -52.2°C | 0% | 36.3hPa | 2.6V | 03:46:09 | 01:54:33 | 00:00:00 | |
| DH5RUM-10 | 2026-09-04 12:02:16 | 52.79249 | 11.87046 | 68° | 16km/h | 23010m | 5.8m/s | -52.2°C | 0.6% | 36.3hPa | 2.6V | 00:00:00 | 00:00:00 | 00:00:00 | |
| DO2SHX-10 | 2026-09-04 12:02:15 | 52.79247 | 11.87040 | 66° | 15km/h | 23004m | 5.4m/s | -52.2°C | 3.4% | 36.3hPa | 2.6V | 00:00:00 | 01:54:33 | 00:00:00 | |
| DL1XH-15 | 2026-09-04 12:02:14 | 52.79243 | 11.87024 | 69° | 15km/h | 22988m | 6.5m/s | -52.2°C | 3.3% | 36.4hPa | 2.7V | 03:45:33 | 01:54:30 | 00:00:00 | |
| BIOWL1-15 | 2026-09-04 12:02:14 | 52.79246 | 11.87035 | 69° | 13km/h | 22999m | 5m/s | -52.1°C | 0% | 36.4hPa | 2.6V | 03:46:09 | 01:54:32 | 00:00:00 | |
| DL1XH1-15 | 2026-09-04 12:02:13 | 52.79241 | 11.87000 | 107° | 9km/h | 22967m | 6.3m/s | -52.1°C | 3.3% | 36.5hPa | 2.6V | 03:45:37 | 01:54:26 | 00:00:00 | |
| DL1NUX | 2026-09-04 12:02:12 | 52.79242 | 11.86997 | 126° | 7km/h | 22961m | 4.9m/s | -52.1°C | 3.3% | 36.6hPa | 2.7V | 03:45:38 | 01:54:25 | 00:00:00 | |
| DO2SHX-10 | 2026-09-04 12:02:12 | 52.79243 | 11.87024 | 70° | 16km/h | 22988m | 6.4m/s | -52.1°C | 3.3% | 36.4hPa | 2.7V | 00:00:00 | 01:54:30 | 00:00:00 | |
| GOEST3-10 | 2026-09-04 12:02:11 | 52.79242 | 11.87017 | 74° | 13km/h | 22983m | 5.7m/s | -52.1°C | 3.3% | 36.4hPa | 2.7V | 00:00:00 | 01:54:29 | 00:00:00 | |
| DM0DOS-11 | 2026-09-04 12:02:10 | 52.79243 | 11.86995 | 125° | 5km/h | 22957m | 4m/s | -52°C | 3.3% | 36.6hPa | 2.7V | 03:45:39 | 01:54:24 | 00:00:00 | |
| DB0DAN | 2026-09-04 12:02:10 | 52.79241 | 11.87011 | 81° | 15km/h | 22977m | 4.5m/s | -52.1°C | 0.6% | 36.47hPa | 2.6V | 00:00:00 | 00:00:00 | 00:00:00 | |
| DL1XH-west | 2026-09-04 12:02:09 | 52.79241 | 11.87005 | 92° | 13km/h | 22972m | 4.5m/s | -52.1°C | 0% | 36.5hPa | 2.6V | 03:46:09 | 01:54:27 | 00:00:00 | |
| AA1-15 | 2026-09-04 12:02:08 | 52.79241 | 11.87000 | 108° | 9km/h | 22967m | 6.3m/s | -52.1°C | 0% | 36.5hPa | 2.6V | 03:46:09 | 01:54:26 | 00:00:00 | |
| HSKMA3-T | 2026-09-04 12:02:05 | 52.79243 | 11.86993 | 90° | 5km/h | 22952m | 4.9m/s | -52.1°C | 0% | 36.6hPa | 2.7V | 03:46:09 | 01:54:23 | 00:00:00 | |
| DL1XH1-15 | 2026-09-04 12:02:04 | 52.79218 | 11.86967 | 20° | 20km/h | 22914m | 4.1m/s | -51.8°C | 3.3% | 36.8hPa | 2.7V | 03:45:47 | 01:54:16 | 00:00:00 | |
| BIOWL1-15 | 2026-09-04 12:02:03 | 52.79241 | 11.86986 | 49° | 15km/h | 22941m | 5.3m/s | -52°C | 0% | 36.7hPa | 2.6V | 03:46:09 | 01:54:21 | 00:00:00 | |
| DO2SHX-10 | 2026-09-04 12:02:03 | 52.79241 | 11.86986 | 50° | 18km/h | 22941m | 5.3m/s | -52.0°C | 3.4% | 36.6hPa | 2.6V | 00:00:00 | 01:54:21 | 00:00:00 | |
| DL1NUX | 2026-09-04 12:02:02 | 52.79214 | 11.86964 | 29° | 18km/h | 22909m | 6m/s | -51.9°C | 3.3% | 36.9hPa | 2.6V | 03:45:48 | 01:54:15 | 00:00:00 | |
| GOEST3-10 | 2026-09-04 12:02:01 | 52.79233 | 11.86976 | 29° | 20km/h | 22930m | 5.8m/s | -51.9°C | 3.3% | 36.7hPa | 2.6V | 00:00:00 | 01:54:19 | 00:00:00 | |
| DM0DOS-11 | 2026-09-04 12:02:00 | 52.79210 | 11.86960 | 47° | 16km/h | 22903m | 5.5m/s | -51.9°C | 3.3% | 36.9hPa | 2.6V | 03:45:49 | 01:54:14 | 00:00:00 | |
| DL1XH-west | 2026-09-04 12:01:59 | 52.79218 | 11.86967 | 21° | 20km/h | 22914m | 4.1m/s | -51.8°C | 0% | 36.8hPa | 2.7V | 03:46:09 | 01:54:16 | 00:00:00 | |
| AA1-15 | 2026-09-04 12:01:57 | 52.79214 | 11.86964 | 30° | 18km/h | 22909m | 6m/s | -51.9°C | 0% | 36.9hPa | 2.6V | 03:46:09 | 01:54:15 | 00:00:00 | |
| DO2SHX-10 | 2026-09-04 12:01:57 | 52.79214 | 11.86964 | 30° | 15km/h | 22909m | 6.0m/s | -51.9°C | 3.3% | 36.8hPa | 2.6V | 03:45:00 | 01:54:15 | 00:00:00 | |
| DB0DAN | 2026-09-04 12:01:55 | 52.79208 | 11.86955 | 61° | 13km/h | 22898m | 4.7m/s | -51.8°C | 0.5% | 36.91hPa | 2.7V | 00:00:00 | 00:00:00 | 00:00:00 | |
| HSKMA3-T | 2026-09-04 12:01:54 | 52.79207 | 11.86951 | 61° | 11km/h | 22893m | 5.7m/s | -51.8°C | 0% | 37hPa | 2.7V | 03:46:09 | 01:54:12 | 00:00:00 | |
| DO2SHX-10 | 2026-09-04 12:01:54 | 52.79207 | 11.86951 | 62° | 9km/h | 22893m | 5.7m/s | -51.7°C | 3.3% | 36.9hPa | 2.7V | 00:00:00 | 01:54:12 | 00:00:00 | |
| DL1XH1-15 | 2026-09-04 12:01:53 | 52.79190 | 11.86934 | 2° | 16km/h | 22856m | 6.2m/s | -51.6°C | 3.2% | 37.2hPa | 2.7V | 03:45:58 | 01:54:05 | 00:00:00 | |
| BIOWL1-15 | 2026-09-04 12:01:53 | 52.79206 | 11.86947 | 51° | 7km/h | 22887m | 6.2m/s | -51.8°C | 0% | 37hPa | 2.7V | 03:46:09 | 01:54:11 | 00:00:00 | |
| DO3MHA-11 | 2026-09-04 12:01:52 | 52.79204 | 11.86945 | 37° | 11km/h | 22882m | 4.9m/s | 0°C | 0% | 0hPa | 2.6V | 00:00:00 | 01:54:10 | 00:00:00 | |
| DB0UT-7 | 2026-09-04 12:01:51 | 52.79202 | 11.86943 | 36° | 11km/h | 22877m | 5.0m/s | -51.6°C | 3.2% | 37.0hPa | 2.6V | 00:00:00 | 00:00:00 | 00:00:00 | |
| DM0DOS-11 | 2026-09-04 12:01:50 | 52.79185 | 11.86935 | 351° | 18km/h | 22850m | 6.1m/s | -51.6°C | 3.2% | 37.2hPa | 2.7V | 03:45:59 | 01:54:04 | 00:00:00 | |
| DF8AY | 2026-09-04 12:01:49 | 52.79198 | 11.86938 | 29° | 15km/h | 22865m | 4.6m/s | -51.7°C | 0% | 37.1hPa | 2.7V | 03:47:00 | 01:54:07 | 00:00:00 | |
| DL1XH-west | 2026-09-04 12:01:48 | 52.79190 | 11.86934 | 3° | 16km/h | 22856m | 6.2m/s | -51.6°C | 0% | 37.2hPa | 2.7V | 03:46:09 | 01:54:05 | 00:00:00 | |
| AA1-15 | 2026-09-04 12:01:46 | 52.79186 | 11.86935 | 352° | 18km/h | 22850m | 6.1m/s | -51.6°C | 0% | 37.2hPa | 2.7V | 03:46:09 | 01:54:04 | 00:00:00 | |
| HSKMA3-T | 2026-09-04 12:01:44 | 52.79176 | 11.86937 | 354° | 20km/h | 22840m | 4.5m/s | -51.6°C | 0% | 37.3hPa | 2.6V | 03:46:09 | 01:54:02 | 00:00:00 | |
| SP3BTT-10 | 2026-09-04 12:01:44 | 52.79176 | 11.86937 | 355° | 20km/h | 22840m | 4.4m/s | -51.5°C | 3.2% | 37.2hPa | 2.6V | 03:46:00 | 00:00:00 | 00:00:00 | |
| DL1XH1-15 | 2026-09-04 12:01:42 | 52.79156 | 11.86922 | 50° | 7km/h | 22803m | 5m/s | -51.5°C | 3.2% | 37.5hPa | 2.7V | 03:46:08 | 01:53:55 | 00:00:00 | |
| BIOWL1-15 | 2026-09-04 12:01:41 | 52.79159 | 11.86927 | 44° | 9km/h | 22814m | 5.7m/s | -51.4°C | 0% | 37.4hPa | 2.6V | 03:46:09 | 01:53:57 | 00:00:00 | |
| GOEST3-10 | 2026-09-04 12:01:41 | 52.79163 | 11.86933 | 35° | 9km/h | 22825m | 4.4m/s | -51.6°C | 3.2% | 37.3hPa | 2.7V | 00:00:00 | 01:53:59 | 00:00:00 | |
| DM0DOS-11 | 2026-09-04 12:01:40 | 52.79154 | 11.86919 | 48° | 9km/h | 22798m | 6.5m/s | -51.5°C | 3.2% | 37.5hPa | 2.7V | 03:46:09 | 01:53:54 | 00:00:00 | |
| DB0DAN | 2026-09-04 12:01:40 | 52.79161 | 11.86929 | 39° | 11km/h | 22819m | 5.6m/s | -51.5°C | 0.6% | 37.37hPa | 2.7V | 00:00:00 | 00:00:00 | 00:00:00 | |
| DF8AY | 2026-09-04 12:01:38 | 52.79157 | 11.86924 | 44° | 7km/h | 22808m | 5m/s | -51.4°C | 0% | 37.4hPa | 2.6V | 03:47:00 | 01:53:56 | 00:00:00 | |
| DL1XH-west | 2026-09-04 12:01:37 | 52.79156 | 11.86922 | 50° | 7km/h | 22803m | 5m/s | -51.5°C | 0% | 37.5hPa | 2.7V | 03:46:09 | 01:53:55 | 00:00:00 | |
| AA1-15 | 2026-09-04 12:01:36 | 52.79154 | 11.86919 | 48° | 9km/h | 22798m | 6.5m/s | -51.5°C | 0% | 37.5hPa | 2.7V | 03:46:09 | 01:53:54 | 00:00:00 | |
| HSKMA3-T | 2026-09-04 12:01:34 | 52.79150 | 11.86914 | 25° | 9km/h | 22787m | 5.3m/s | -51.5°C | 0% | 37.6hPa | 2.6V | 03:47:51 | 01:53:52 | 00:00:00 | |
| BIOWL1-15 | 2026-09-04 12:01:33 | 52.79143 | 11.86917 | 329° | 13km/h | 22769m | 4.2m/s | -51.5°C | 0% | 37.7hPa | 2.7V | 03:47:00 | 01:53:49 | 00:00:00 | |
| DO2SHX-10 | 2026-09-04 12:01:33 | 52.79148 | 11.86913 | 360° | 11km/h | 22781m | 6.6m/s | -51.5°C | 3.2% | 37.5hPa | 2.6V | 03:46:00 | 01:53:51 | 00:00:00 | |
| DL1NUX | 2026-09-04 12:01:32 | 52.79130 | 11.86921 | 17° | 11km/h | 22749m | 4.1m/s | -51.6°C | 3.2% | 37.8hPa | 2.6V | 03:46:18 | 01:53:45 | 00:00:00 | |
| GOEST3-10 | 2026-09-04 12:01:31 | 52.79142 | 11.86917 | 329° | 13km/h | 22770m | 4.1m/s | -51.4°C | 3.2% | 37.6hPa | 2.6V | 00:00:00 | 01:53:49 | 00:00:00 | |
| DM0DOS-11 | 2026-09-04 12:01:30 | 52.79128 | 11.86919 | 18° | 9km/h | 22744m | 5.8m/s | -51.6°C | 3.2% | 37.8hPa | 2.6V | 03:46:19 | 01:53:44 | 00:00:00 | |
| DF8AY | 2026-09-04 12:01:28 | 52.79133 | 11.86922 | 4° | 13km/h | 22754m | 5.3m/s | -51.6°C | 0% | 37.8hPa | 2.7V | 03:47:00 | 01:53:46 | 00:00:00 | |
| DL1XH-west | 2026-09-04 12:01:26 | 52.79127 | 11.86919 | 19° | 9km/h | 22744m | 5.9m/s | -51.6°C | 0% | 37.8hPa | 2.6V | 03:47:00 | 01:53:44 | 00:00:00 | |
| AA1-15 | 2026-09-04 12:01:25 | 52.79126 | 11.86919 | 9° | 4km/h | 22738m | 5.8m/s | -51.6°C | 0% | 37.8hPa | 2.6V | 03:47:00 | 01:53:43 | 00:00:00 | |
| DB0DAN | 2026-09-04 12:01:25 | 52.79126 | 11.86919 | 9° | 4km/h | 22738m | 5.8m/s | -51.6°C | 0.6% | 37.84hPa | 2.6V | 00:00:00 | 00:00:00 | 00:00:00 | |
| HSKMA3-T | 2026-09-04 12:01:23 | 52.79126 | 11.86919 | 189° | 4km/h | 22728m | 4.8m/s | -51.7°C | 0% | 37.9hPa | 2.7V | 03:47:51 | 01:53:41 | 00:00:00 | |
| DF8AY | 2026-09-04 12:01:18 | 52.79130 | 11.86921 | 245° | 7km/h | 22699m | 5.7m/s | -51.7°C | 0% | 38.1hPa | 2.7V | 03:47:00 | 01:53:36 | 00:00:00 | |
| DM0DOS-11 | 2026-09-04 12:01:17 | 52.79131 | 11.86928 | 274° | 7km/h | 22690m | 4.5m/s | -51.9°C | 3.2% | 38.1hPa | 2.6V | 03:46:29 | 01:53:34 | 00:00:00 | |
| DL1XH-west | 2026-09-04 12:01:16 | 52.79131 | 11.86928 | 275° | 7km/h | 22690m | 4.5m/s | -51.9°C | 0% | 38.1hPa | 2.6V | 03:47:00 | 01:53:34 | 00:00:00 | |
| DL1XH-15 | 2026-09-04 12:01:16 | 52.79128 | 11.86930 | 124° | 2km/h | 22669m | 4.1m/s | -51.8°C | 3.3% | 38.3hPa | 2.7V | 03:46:33 | 01:53:30 | 00:00:00 | |
| AA1-15 | 2026-09-04 12:01:15 | 52.79130 | 11.86930 | 309° | 5km/h | 22684m | 6.2m/s | -51.9°C | 0% | 38.1hPa | 2.6V | 03:47:00 | 01:53:33 | 00:00:00 | |
| HSKMA3-T | 2026-09-04 12:01:12 | 52.79128 | 11.86930 | 125° | 2km/h | 22669m | 4.1m/s | -51.8°C | 0% | 38.3hPa | 2.7V | 03:47:51 | 01:53:30 | 00:00:00 | |
| DO2SHX-10 | 2026-09-04 12:01:12 | 52.79128 | 11.86930 | 125° | 5km/h | 22669m | 4.1m/s | -51.7°C | 3.3% | 38.2hPa | 2.7V | 00:00:00 | 01:53:30 | 00:00:00 | |
| GOEST3-10 | 2026-09-04 12:01:11 | 52.79129 | 11.86930 | 192° | 13km/h | 22665m | 5.5m/s | -51.6°C | 3.3% | 38.3hPa | 2.7V | 00:00:00 | 01:53:29 | 00:00:00 | |
| DL1NUX | 2026-09-04 12:01:10 | 52.79140 | 11.86939 | 195° | 16km/h | 22643m | 5.7m/s | -51.6°C | 3.3% | 38.4hPa | 2.6V | 03:46:38 | 01:53:25 | 00:00:00 | |
| DB0DAN | 2026-09-04 12:01:10 | 52.79130 | 11.86931 | 210° | 9km/h | 22659m | 6.1m/s | -51.5°C | 0.5% | 38.32hPa | 2.7V | 00:00:00 | 00:00:00 | 00:00:00 | |
| BIOWL1-15 | 2026-09-04 12:01:09 | 52.79133 | 11.86934 | 209° | 15km/h | 22653m | 4.8m/s | -51.5°C | 0% | 38.4hPa | 2.6V | 03:47:00 | 01:53:27 | 00:00:00 | |
| DF8AY | 2026-09-04 12:01:08 | 52.79136 | 11.86936 | 205° | 16km/h | 22648m | 4.6m/s | -51.5°C | 0% | 38.4hPa | 2.6V | 03:47:00 | 01:53:26 | 00:00:00 | |
| DL1XH-west | 2026-09-04 12:01:06 | 52.79144 | 11.86940 | 183° | 15km/h | 22637m | 5.9m/s | -51.6°C | 0% | 38.5hPa | 2.7V | 03:47:00 | 01:53:24 | 00:00:00 | |
| DL1XH-15 | 2026-09-04 12:01:06 | 52.79154 | 11.86937 | 198° | 5km/h | 22617m | 5.7m/s | -51.5°C | 3.2% | 38.6hPa | 2.6V | 03:46:43 | 01:53:20 | 00:00:00 | |
| AA1-15 | 2026-09-04 12:01:04 | 52.79150 | 11.86938 | 162° | 11km/h | 22627m | 4.2m/s | -51.7°C | 0% | 38.5hPa | 2.7V | 03:47:00 | 01:53:22 | 00:00:00 | |
| DO2SHX-10 | 2026-09-04 12:01:03 | 52.79152 | 11.86937 | 169° | 7km/h | 22623m | 5.4m/s | -51.6°C | 3.2% | 38.5hPa | 2.6V | 00:00:00 | 01:53:21 | 00:00:00 | |
| DL1NUX | 2026-09-04 12:01:02 | 52.79165 | 11.86939 | 157° | 16km/h | 22590m | 5m/s | -51.4°C | 3.2% | 38.8hPa | 2.6V | 03:46:48 | 01:53:15 | 00:00:00 | |
| HSKMA3-T | 2026-09-04 12:01:01 | 52.79155 | 11.86938 | 217° | 7km/h | 22612m | 5.2m/s | -51.5°C | 0% | 38.6hPa | 2.7V | 03:47:51 | 01:53:19 | 00:00:00 | |
| BIOWL1-15 | 2026-09-04 12:01:01 | 52.79159 | 11.86941 | 187° | 9km/h | 22602m | 5.5m/s | -51.6°C | 0% | 38.6hPa | 2.7V | 03:47:00 | 01:53:17 | 00:00:00 | |
| DF8AY | 2026-09-04 12:00:57 | 52.79165 | 11.86939 | 158° | 16km/h | 22591m | 5m/s | -51.4°C | 0% | 38.8hPa | 2.6V | 03:47:00 | 01:53:15 | 00:00:00 | |
| DM0DOS-11 | 2026-09-04 12:00:57 | 52.79169 | 11.86936 | 158° | 20km/h | 22586m | 4.4m/s | -51.4°C | 3.2% | 38.8hPa | 2.6V | 03:46:49 | 01:53:14 | 00:00:00 | |
| DL1XH-west | 2026-09-04 12:00:55 | 52.79174 | 11.86934 | 163° | 20km/h | 22580m | 6.4m/s | -51.4°C | 0% | 38.8hPa | 2.7V | 03:47:00 | 01:53:13 | 00:00:00 | |
| DB0DAN | 2026-09-04 12:00:55 | 52.79174 | 11.86934 | 163° | 20km/h | 22580m | 6.4m/s | -51.4°C | 0.6% | 38.81hPa | 2.7V | 00:00:00 | 00:00:00 | 00:00:00 | |
| AA1-15 | 2026-09-04 12:00:55 | 52.79179 | 11.86932 | 170° | 22km/h | 22574m | 5.3m/s | -51.4°C | 0% | 38.8hPa | 2.7V | 03:47:00 | 01:53:12 | 00:00:00 | |
| HSKMA3-T | 2026-09-04 12:00:50 | 52.79200 | 11.86920 | 144° | 20km/h | 22553m | 5.9m/s | -51.4°C | 0% | 39hPa | 2.6V | 03:47:51 | 01:53:08 | 00:00:00 | |
| DM0DOS-11 | 2026-09-04 12:00:50 | 52.79211 | 11.86905 | 153° | 7km/h | 22530m | 4.7m/s | -51.3°C | 3.2% | 39.1hPa | 2.7V | 03:46:59 | 01:53:04 | 00:00:00 | |
| DL1NUX | 2026-09-04 12:00:50 | 52.79209 | 11.86907 | 145° | 11km/h | 22536m | 6.4m/s | -51.3°C | 3.1% | 39.1hPa | 2.7V | 03:46:58 | 01:53:05 | 00:00:00 | |
| BIOWL1-15 | 2026-09-04 12:00:48 | 52.79206 | 11.86910 | 137° | 15km/h | 22542m | 5.7m/s | -51.3°C | 0% | 39hPa | 2.7V | 03:47:00 | 01:53:06 | 00:00:00 | |
| SONCRA | 2026-09-04 12:00:48 | 52.79209 | 11.86907 | 145° | 11km/h | 22536m | 6.4m/s | -51.3°C | 0.6% | 39.1hPa | 2.7V | 00:00:00 | 00:00:00 | 00:00:00 | |
| DF8AY | 2026-09-04 12:00:46 | 52.79249 | 11.86853 | 134° | 26km/h | 22476m | 5.8m/s | -51.4°C | 0% | 39.4hPa | 2.7V | 03:47:51 | 01:52:54 | 00:00:00 | |
| DL1XH-15 | 2026-09-04 12:00:46 | 52.79220 | 11.86892 | 129° | 20km/h | 22509m | 5.8m/s | -51.3°C | 3.2% | 39.2hPa | 2.7V | 03:47:03 | 01:53:00 | 00:00:00 | |
| DL1XH-west | 2026-09-04 12:00:45 | 52.79215 | 11.86901 | 141° | 11km/h | 22521m | 5.9m/s | -51.3°C | 0% | 39.1hPa | 2.6V | 03:47:51 | 01:53:02 | 00:00:00 | |
| EDDB2-12 | 2026-09-04 12:00:45 | 52.79215 | 11.86901 | 140° | 9km/h | 22521m | 5.9m/s | -51.3°C | 0.5% | 39.1hPa | 2.7V | 00:00:00 | 00:00:00 | 00:00:00 | |
| AA1-15 | 2026-09-04 12:00:43 | 52.79218 | 11.86897 | 132° | 15km/h | 22515m | 6.1m/s | -51.3°C | 0% | 39.2hPa | 2.7V | 03:47:51 | 01:53:01 | 00:00:00 | |
| DO2SHX-10 | 2026-09-04 12:00:42 | 52.79220 | 11.86892 | 130° | 22km/h | 22509m | 5.7m/s | -51.3°C | 3.2% | 39.2hPa | 2.6V | 00:00:00 | 01:53:00 | 00:00:00 | |
| DB0DAN | 2026-09-04 12:00:40 | 52.79228 | 11.86879 | 141° | 22km/h | 22498m | 6.6m/s | -51.5°C | 0.5% | 39.3hPa | 2.6V | 00:00:00 | 00:00:00 | 00:00:00 | |
| BIOWL1-15 | 2026-09-04 12:00:38 | 52.79253 | 11.86846 | 128° | 24km/h | 22470m | 5m/s | -51.3°C | 0% | 39.5hPa | 2.7V | 03:47:51 | 01:52:53 | 00:00:00 | |
| DM0DOS-11 | 2026-09-04 12:00:37 | 52.79249 | 11.86853 | 133° | 26km/h | 22476m | 5.8m/s | -51.4°C | 3.2% | 39.4hPa | 2.7V | 03:47:09 | 01:52:54 | 00:00:00 | |
| DF8AY | 2026-09-04 12:00:34 | 52.79256 | 11.86839 | 123° | 20km/h | 22466m | 5m/s | -51.3°C | 0% | 39.5hPa | 2.7V | 03:47:51 | 01:52:52 | 00:00:00 | |
| DL1XH-west | 2026-09-04 12:00:33 | 52.79258 | 11.86832 | 122° | 16km/h | 22460m | 6.3m/s | -51.3°C | 0% | 39.5hPa | 2.6V | 03:47:51 | 01:52:51 | 00:00:00 | |
| DO2SHX-10 | 2026-09-04 12:00:33 | 52.79258 | 11.86832 | 123° | 13km/h | 22460m | 6.2m/s | -51.2°C | 3.1% | 39.5hPa | 2.6V | 03:47:00 | 01:52:51 | 00:00:00 | |
| AM1SDL-15 | 2026-09-04 12:00:32 | 52.79260 | 11.86827 | 120° | 20km/h | 22455m | 5.1m/s | -51.2°C | 3.2% | 39.5hPa | 2.6V | 00:00:00 | 01:52:50 | 00:00:00 | |
| AA1-15 | 2026-09-04 12:00:32 | 52.79260 | 11.86827 | 119° | 13km/h | 22454m | 5.1m/s | -51.2°C | 0% | 39.5hPa | 2.6V | 03:47:51 | 01:52:50 | 00:00:00 | |
| GOEST3-10 | 2026-09-04 12:00:31 | 52.79262 | 11.86823 | 111° | 18km/h | 22450m | 4.8m/s | -51.2°C | 3.1% | 39.5hPa | 2.6V | 00:00:00 | 01:52:49 | 00:00:00 | |
| DM0DOS-11 | 2026-09-04 12:00:30 | 52.79272 | 11.86786 | 130° | 26km/h | 22422m | 5.9m/s | -51.3°C | 3.2% | 39.8hPa | 2.6V | 03:47:19 | 01:52:44 | 00:00:00 | |
| BIOWL1-15 | 2026-09-04 12:00:27 | 52.79268 | 11.86795 | 122° | 26km/h | 22427m | 5.7m/s | -51.3°C | 0% | 39.7hPa | 2.6V | 03:47:51 | 01:52:45 | 00:00:00 | |
| DO2SHX-10 | 2026-09-04 12:00:27 | 52.79268 | 11.86795 | 123° | 26km/h | 22428m | 5.6m/s | -51.3°C | 3.2% | 39.7hPa | 2.6V | 00:00:00 | 01:52:45 | 00:00:00 | |
| MECKS9 | 2026-09-04 12:00:26 | 52.79268 | 11.86795 | 123° | 26km/h | 22428m | 5.7m/s | -51.3°C | 0.6% | 39.7hPa | 2.7V | 00:00:00 | 00:00:00 | 00:00:00 | |
| DB0DAN | 2026-09-04 12:00:25 | 52.79276 | 11.86778 | 135° | 24km/h | 22417m | 4.5m/s | -51.3°C | 0.6% | 39.78hPa | 2.7V | 00:00:00 | 00:00:00 | 00:00:00 | |
| DF8AY | 2026-09-04 12:00:24 | 52.79285 | 11.86763 | 126° | 24km/h | 22408m | 5.3m/s | -51.3°C | 0% | 39.9hPa | 2.7V | 03:47:51 | 01:52:41 | 00:00:00 | |
| DL1XH-west | 2026-09-04 12:00:22 | 52.79288 | 11.86754 | 114° | 24km/h | 22402m | 5.8m/s | -51.3°C | 0% | 39.9hPa | 2.6V | 03:47:51 | 01:52:40 | 00:00:00 | |
| AA1-15 | 2026-09-04 12:00:21 | 52.79290 | 11.86745 | 102° | 24km/h | 22397m | 5.7m/s | -51.3°C | 0% | 39.9hPa | 2.6V | 03:47:51 | 01:52:39 | 00:00:00 | |
| HSKMA3-T | 2026-09-04 12:00:17 | 52.79291 | 11.86701 | 89° | 16km/h | 22365m | 6.1m/s | -51.3°C | 0% | 40.1hPa | 2.6V | 03:47:51 | 01:52:33 | 00:00:00 | |
| BIOWL1-15 | 2026-09-04 12:00:16 | 52.79291 | 11.86708 | 94° | 15km/h | 22370m | 4.6m/s | -51.4°C | 0% | 40.1hPa | 2.7V | 03:47:51 | 01:52:34 | 00:00:00 | |
| DF8AY | 2026-09-04 12:00:13 | 52.79292 | 11.86685 | 102° | 20km/h | 22354m | 4.8m/s | -51.2°C | 0% | 40.2hPa | 2.6V | 03:47:51 | 01:52:31 | 00:00:00 | |
| AA1-15 | 2026-09-04 12:00:11 | 52.79296 | 11.86668 | 118° | 24km/h | 22343m | 4.9m/s | -51.2°C | 0% | 40.3hPa | 2.7V | 03:47:51 | 01:52:29 | 00:00:00 | |
| GOEST3-10 | 2026-09-04 12:00:11 | 52.79296 | 11.86668 | 118° | 26km/h | 22343m | 4.9m/s | -51.2°C | 3.2% | 40.2hPa | 2.7V | 00:00:00 | 01:52:29 | 00:00:00 | |
| DM0DOS-11 | 2026-09-04 12:00:10 | 52.79303 | 11.86618 | 84° | 26km/h | 22318m | 4.3m/s | -51.2°C | 3.1% | 40.4hPa | 2.7V | 03:47:39 | 01:52:24 | 00:00:00 | |
| DB0DAN | 2026-09-04 12:00:10 | 52.79298 | 11.86660 | 117° | 24km/h | 22338m | 4m/s | -51.3°C | 0.6% | 40.29hPa | 2.7V | 00:00:00 | 00:00:00 | 00:00:00 | |
| HSKMA3-T | 2026-09-04 12:00:06 | 52.79303 | 11.86618 | 85° | 26km/h | 22318m | 4.3m/s | -51.2°C | 0% | 40.4hPa | 2.7V | 03:47:51 | 01:52:24 | 00:00:00 | |
| DF8AY-15 | 2026-09-04 12:00:06 | 52.79303 | 11.86618 | 85° | 18km/h | 22319m | 4.3m/s | -51.1°C | 3.1% | 40.4hPa | 2.6V | 03:47:00 | 01:52:24 | 00:00:00 | |
| DL1XH-15 | 2026-09-04 12:00:05 | 52.79300 | 11.86586 | 74° | 15km/h | 22297m | 5.2m/s | -51°C | 3.2% | 40.5hPa | 2.6V | 03:47:43 | 01:52:20 | 00:00:00 | |
| BIOWL1-15 | 2026-09-04 12:00:05 | 52.79302 | 11.86608 | 83° | 24km/h | 22313m | 5.9m/s | -51.2°C | 0% | 40.4hPa | 2.7V | 03:47:51 | 01:52:23 | 00:00:00 | |
| DF8AY | 2026-09-04 12:00:02 | 52.79300 | 11.86587 | 74° | 15km/h | 22297m | 5.2m/s | -51°C | 0% | 40.5hPa | 2.6V | 03:47:51 | 01:52:20 | 00:00:00 | |
| DL1XH-west | 2026-09-04 12:00:01 | 52.79299 | 11.86581 | 71° | 16km/h | 22291m | 5.9m/s | -50.9°C | 0% | 40.6hPa | 2.7V | 03:47:51 | 01:52:19 | 00:00:00 | |
| AA1-15 | 2026-09-04 12:00:00 | 52.79298 | 11.86574 | 73° | 16km/h | 22286m | 4.7m/s | -50.9°C | 0% | 40.6hPa | 2.7V | 03:47:51 | 01:52:18 | 00:00:00 | |
| BIOWL1-15 | 2026-09-04 11:59:58 | 52.79304 | 11.86505 | 88° | 24km/h | 22246m | 4.4m/s | -50.9°C | 0% | 40.9hPa | 2.6V | 03:48:42 | 01:52:10 | 00:00:00 | |
| SP3BTT-10 | 2026-09-04 11:59:58 | 52.79297 | 11.86560 | 96° | 18km/h | 22277m | 5.5m/s | -50.9°C | 3.0% | 40.6hPa | 2.7V | 00:00:00 | 00:00:00 | 00:00:00 | |
| DM0DOS-11 | 2026-09-04 11:59:57 | 52.79300 | 11.86545 | 112° | 22km/h | 22265m | 5.1m/s | -50.9°C | 3% | 40.7hPa | 2.7V | 03:47:49 | 01:52:14 | 00:00:00 | |
| DO2SHX-10 | 2026-09-04 11:59:57 | 52.79298 | 11.86553 | 109° | 22km/h | 22271m | 6.1m/s | -50.9°C | 3.0% | 40.6hPa | 2.7V | 03:47:00 | 01:52:15 | 00:00:00 | |
| SO1NDE-10 | 2026-09-04 11:59:56 | 52.79299 | 11.86545 | 113° | 16km/h | 22266m | 5.1m/s | -50.9°C | 3.0% | 40.7hPa | 2.7V | 00:00:00 | 01:52:14 | 00:00:00 | |
| HSKMA3-T | 2026-09-04 11:59:56 | 52.79300 | 11.86545 | 112° | 22km/h | 22265m | 5.1m/s | -50.9°C | 0% | 40.7hPa | 2.7V | 03:47:51 | 01:52:14 | 00:00:00 | |
| DL1XH-15 | 2026-09-04 11:59:55 | 52.79304 | 11.86505 | 88° | 24km/h | 22245m | 4.4m/s | -50.9°C | 3.1% | 40.9hPa | 2.6V | 03:47:53 | 01:52:10 | 00:00:00 | |
| DB0DAN | 2026-09-04 11:59:55 | 52.79302 | 11.86536 | 108° | 22km/h | 22261m | 4.4m/s | -51°C | 0.6% | 40.74hPa | 2.7V | 00:00:00 | 00:00:00 | 00:00:00 | |
| EDDB2-11 | 2026-09-04 11:59:53 | 52.79304 | 11.86505 | 88° | 24km/h | 22246m | 4.4m/s | -50.9°C | 0.6% | 40.9hPa | 2.6V | 00:00:00 | 00:00:00 | 00:00:00 | |
| TFSTFS | 2026-09-04 11:59:52 | 52.79304 | 11.86505 | 89° | 24km/h | 22246m | 4.4m/s | -50.9°C | 0.6% | 40.9hPa | 2.6V | 00:00:00 | 00:00:00 | 00:00:00 | |
| DL1NUX | 2026-09-04 11:59:51 | 52.79300 | 11.86474 | 43° | 7km/h | 22214m | 4.7m/s | -51.2°C | 3.2% | 41hPa | 2.6V | 03:47:59 | 01:52:04 | 00:00:00 | |
| DL1XH-west | 2026-09-04 11:59:51 | 52.79303 | 11.86496 | 87° | 20km/h | 22240m | 5.8m/s | -50.9°C | 0% | 40.9hPa | 2.6V | 03:48:42 | 01:52:09 | 00:00:00 | |
| AA1-15 | 2026-09-04 11:59:49 | 52.79303 | 11.86483 | 85° | 11km/h | 22230m | 4.6m/s | -50.9°C | 0% | 40.9hPa | 2.7V | 03:48:42 | 01:52:07 | 00:00:00 | |
| HSKMA3-T | 2026-09-04 11:59:45 | 52.79299 | 11.86472 | 60° | 5km/h | 22210m | 4.8m/s | -51.2°C | 0% | 41.1hPa | 2.6V | 03:48:42 | 01:52:03 | 00:00:00 | |
| DL1XH-15 | 2026-09-04 11:59:45 | 52.79302 | 11.86463 | 132° | 15km/h | 22194m | 4m/s | -51.3°C | 3.1% | 41.2hPa | 2.7V | 03:48:03 | 01:52:00 | 00:00:00 | |
| BIOWL1-15 | 2026-09-04 11:59:44 | 52.79302 | 11.86463 | 133° | 15km/h | 22194m | 4m/s | -51.3°C | 0% | 41.2hPa | 2.7V | 03:48:42 | 01:52:00 | 00:00:00 | |
| DL1XH-west | 2026-09-04 11:59:41 | 52.79305 | 11.86457 | 125° | 18km/h | 22189m | 5.2m/s | -51.3°C | 0% | 41.2hPa | 2.7V | 03:48:42 | 01:51:59 | 00:00:00 | |
| DB0DAN | 2026-09-04 11:59:40 | 52.79307 | 11.86451 | 116° | 20km/h | 22184m | 5.4m/s | -51.3°C | 0.5% | 41.28hPa | 2.6V | 00:00:00 | 00:00:00 | 00:00:00 | |
| AA1-15 | 2026-09-04 11:59:39 | 52.79309 | 11.86443 | 113° | 22km/h | 22179m | 5.3m/s | -51.2°C | 0% | 41.3hPa | 2.6V | 03:48:42 | 01:51:57 | 00:00:00 | |
| DD8BA-10 | 2026-09-04 11:59:36 | 52.79316 | 11.86417 | 114° | 16km/h | 22163m | 4.1m/s | -51.0°C | 3.1% | 41.3hPa | 2.7V | 00:00:00 | 00:00:00 | 00:00:00 | |
| DL1XH-15 | 2026-09-04 11:59:35 | 52.79317 | 11.86390 | 73° | 15km/h | 22143m | 4.3m/s | -51.6°C | 3.1% | 41.5hPa | 2.7V | 03:48:13 | 01:51:50 | 00:00:00 | |
| HSKMA3-T | 2026-09-04 11:59:34 | 52.79318 | 11.86402 | 93° | 16km/h | 22153m | 6.1m/s | -51.4°C | 0% | 41.5hPa | 2.6V | 03:48:42 | 01:51:52 | 00:00:00 | |
| DL1XH-west | 2026-09-04 11:59:31 | 52.79316 | 11.86385 | 79° | 13km/h | 22138m | 5.2m/s | -51.7°C | 0% | 41.5hPa | 2.7V | 03:48:42 | 01:51:49 | 00:00:00 | |
| DF8AY | 2026-09-04 11:59:30 | 52.79337 | 11.86287 | 90° | 29km/h | 22081m | 5.8m/s | -52.1°C | 0% | 41.9hPa | 2.7V | 03:48:42 | 01:51:38 | 00:00:00 | |
| AA1-15 | 2026-09-04 11:59:28 | 52.79320 | 11.86368 | 121° | 18km/h | 22123m | 4.9m/s | -51.9°C | 0% | 41.6hPa | 2.6V | 03:48:42 | 01:51:46 | 00:00:00 | |
| SP3BTT-10 | 2026-09-04 11:59:28 | 52.79320 | 11.86368 | 121° | 24km/h | 22123m | 4.8m/s | -51.9°C | 3.2% | 41.6hPa | 2.6V | 00:00:00 | 00:00:00 | 00:00:00 | |
| DO2SHX-10 | 2026-09-04 11:59:27 | 52.79322 | 11.86360 | 118° | 24km/h | 22118m | 6.0m/s | -52.0°C | 3.3% | 41.6hPa | 2.6V | 00:00:00 | 01:51:45 | 00:00:00 | |
| SO1NDE-10 | 2026-09-04 11:59:26 | 52.79325 | 11.86351 | 115° | 29km/h | 22112m | 5.3m/s | -51.9°C | 3.3% | 41.7hPa | 2.6V | 03:48:00 | 01:51:44 | 00:00:00 | |
| DL1XH-15 | 2026-09-04 11:59:25 | 52.79335 | 11.86310 | 106° | 27km/h | 22092m | 4.3m/s | -52.1°C | 3.3% | 41.8hPa | 2.6V | 03:48:23 | 01:51:40 | 00:00:00 | |
| DB0DAN | 2026-09-04 11:59:25 | 52.79327 | 11.86342 | 113° | 26km/h | 22107m | 4.6m/s | -52.1°C | 0.6% | 41.72hPa | 2.7V | 00:00:00 | 00:00:00 | 00:00:00 | |
| HSKMA3-T | 2026-09-04 11:59:23 | 52.79333 | 11.86321 | 113° | 27km/h | 22096m | 5.2m/s | -52.1°C | 0% | 41.9hPa | 2.6V | 03:48:42 | 01:51:41 | 00:00:00 | |
| DL1XH-west | 2026-09-04 11:59:21 | 52.79337 | 11.86299 | 98° | 27km/h | 22087m | 5.2m/s | -52.1°C | 0% | 41.8hPa | 2.7V | 03:48:42 | 01:51:39 | 00:00:00 | |
| AA1-15 | 2026-09-04 11:59:18 | 52.79336 | 11.86264 | 86° | 27km/h | 22071m | 4.5m/s | -52.1°C | 0% | 42hPa | 2.7V | 03:48:42 | 01:51:36 | 00:00:00 | |
| NBG1-10 | 2026-09-04 11:59:18 | 52.79336 | 11.86264 | 87° | 26km/h | 22072m | 4.5m/s | -52.1°C | 3.3% | 41.9hPa | 2.6V | 00:00:00 | 01:51:36 | 00:00:00 | |
| DD8BA-10 | 2026-09-04 11:59:16 | 52.79338 | 11.86242 | 110° | 31km/h | 22061m | 4.9m/s | -52.1°C | 3.3% | 42.0hPa | 2.6V | 00:00:00 | 00:00:00 | 00:00:00 | |
| DL1XH-15 | 2026-09-04 11:59:15 | 52.79353 | 11.86193 | 113° | 37km/h | 22042m | 4.9m/s | -52.2°C | 3.3% | 42.1hPa | 2.7V | 03:48:33 | 01:51:30 | 00:00:00 | |
| BIOWL1-15 | 2026-09-04 11:59:13 | 52.79349 | 11.86207 | 118° | 37km/h | 22047m | 5m/s | -52.2°C | 0% | 42.1hPa | 2.7V | 03:48:42 | 01:51:31 | 00:00:00 | |
| DL1XH-west | 2026-09-04 11:59:11 | 52.79356 | 11.86179 | 108° | 35km/h | 22038m | 4.3m/s | -52.3°C | 0% | 42.2hPa | 2.6V | 03:48:42 | 01:51:29 | 00:00:00 | |
| DF8AY | 2026-09-04 11:59:10 | 52.79359 | 11.86166 | 105° | 33km/h | 22033m | 4.4m/s | -52.3°C | 0% | 42.2hPa | 2.6V | 03:48:42 | 01:51:28 | 00:00:00 | |
| DM0DOS-11 | 2026-09-04 11:59:10 | 52.79364 | 11.86118 | 94° | 31km/h | 22013m | 5.5m/s | -52.4°C | 3.3% | 42.4hPa | 2.6V | 03:48:39 | 01:51:24 | 00:00:00 | |
| DB0DAN | 2026-09-04 11:59:10 | 52.79359 | 11.86166 | 105° | 31km/h | 22033m | 4.4m/s | -52.3°C | 0.6% | 42.21hPa | 2.6V | 00:00:00 | 00:00:00 | 00:00:00 | |
| AA1-15 | 2026-09-04 11:59:08 | 52.79362 | 11.86141 | 100° | 27km/h | 22023m | 5.5m/s | -52.4°C | 0% | 42.3hPa | 2.7V | 03:48:42 | 01:51:26 | 00:00:00 | |
| DD8BA-10 | 2026-09-04 11:59:06 | 52.79364 | 11.86118 | 95° | 31km/h | 22014m | 5.5m/s | -52.4°C | 3.3% | 42.3hPa | 2.7V | 00:00:00 | 00:00:00 | 00:00:00 | |
| DL1XH-15 | 2026-09-04 11:59:05 | 52.79365 | 11.86064 | 90° | 29km/h | 21992m | 5.5m/s | -52.4°C | 3.3% | 42.5hPa | 2.7V | 03:48:43 | 01:51:20 | 00:00:00 | |
| HSKMA3-T | 2026-09-04 11:59:03 | 52.79365 | 11.86077 | 90° | 33km/h | 21997m | 5.4m/s | -52.4°C | 0% | 42.5hPa | 2.7V | 03:48:42 | 01:51:21 | 00:00:00 | |
| BIOWL1-15 | 2026-09-04 11:59:02 | 52.79365 | 11.86064 | 90° | 29km/h | 21992m | 5.5m/s | -52.4°C | 0% | 42.5hPa | 2.7V | 03:50:24 | 01:51:20 | 00:00:00 | |
| DL1XH-west | 2026-09-04 11:59:00 | 52.79365 | 11.86040 | 96° | 29km/h | 21982m | 5.8m/s | -52.5°C | 0% | 42.6hPa | 2.6V | 03:49:33 | 01:51:18 | 00:00:00 | |
| DF8AY | 2026-09-04 11:58:59 | 52.79366 | 11.86027 | 99° | 31km/h | 21977m | 5.4m/s | -52.5°C | 0% | 42.6hPa | 2.6V | 03:49:33 | 01:51:17 | 00:00:00 | |
| AA1-15 | 2026-09-04 11:58:58 | 52.79368 | 11.86015 | 100° | 31km/h | 21972m | 4.7m/s | -52.5°C | 0% | 42.7hPa | 2.7V | 03:49:33 | 01:51:16 | 00:00:00 | |
| DO2SHX-10 | 2026-09-04 11:58:57 | 52.79369 | 11.86003 | 99° | 26km/h | 21967m | 5.8m/s | -52.5°C | 3.4% | 42.6hPa | 2.7V | 03:48:00 | 01:51:15 | 00:00:00 | |
| SO1NDE-10 | 2026-09-04 11:58:56 | 52.79369 | 11.85992 | 95° | 24km/h | 21961m | 5.3m/s | -52.5°C | 3.4% | 42.7hPa | 2.7V | 00:00:00 | 01:51:14 | 00:00:00 | |
| DL1XH-15 | 2026-09-04 11:58:55 | 52.79368 | 11.85946 | 83° | 33km/h | 21942m | 4.3m/s | -52.5°C | 3.5% | 42.8hPa | 2.7V | 03:48:53 | 01:51:10 | 00:00:00 | |
| DB0DAN | 2026-09-04 11:58:55 | 52.79370 | 11.85982 | 90° | 24km/h | 21956m | 3.8m/s | -52.5°C | 0.6% | 42.73hPa | 2.6V | 00:00:00 | 00:00:00 | 00:00:00 | |
| HSKMA3-T | 2026-09-04 11:58:51 | 52.79367 | 11.85933 | 82° | 33km/h | 21938m | 3.2m/s | -52.5°C | 0% | 42.8hPa | 2.7V | 03:49:33 | 01:51:09 | 00:00:00 | |
| DF8AY | 2026-09-04 11:58:49 | 52.79362 | 11.85896 | 73° | 26km/h | 21924m | 5.5m/s | -52.4°C | 0% | 43hPa | 2.6V | 03:49:33 | 01:51:06 | 00:00:00 | |
| AA1-15 | 2026-09-04 11:58:47 | 52.79360 | 11.85886 | 71° | 24km/h | 21919m | 4.7m/s | -52.4°C | 0% | 43hPa | 2.6V | 03:49:33 | 01:51:05 | 00:00:00 | |
| DF8AY-15 | 2026-09-04 11:58:46 | 52.79358 | 11.85876 | 70° | 22km/h | 21914m | 4.4m/s | -52.4°C | 3.4% | 43.0hPa | 2.6V | 03:48:00 | 01:51:04 | 00:00:00 | |
| DL1XH-15 | 2026-09-04 11:58:45 | 52.79350 | 11.85837 | 64° | 22km/h | 21895m | 5.7m/s | -52.3°C | 3.4% | 43.1hPa | 2.6V | 03:49:03 | 01:51:00 | 00:00:00 | |
| BIOWL1-15 | 2026-09-04 11:58:40 | 52.79342 | 11.85813 | 66° | 22km/h | 21881m | 4.8m/s | -52.2°C | 0% | 43.3hPa | 2.7V | 03:50:24 | 01:50:57 | 00:00:00 | |
| HSKMA3-T | 2026-09-04 11:58:40 | 52.79344 | 11.85822 | 61° | 22km/h | 21885m | 3.7m/s | -52.2°C | 0% | 43.2hPa | 2.7V | 03:49:33 | 01:50:58 | 00:00:00 | |
| DB0DAN | 2026-09-04 11:58:40 | 52.79344 | 11.85822 | 61° | 20km/h | 21885m | 3.7m/s | -52.2°C | 0.6% | 43.19hPa | 2.7V | 00:00:00 | 00:00:00 | 00:00:00 | |
| DF8AY | 2026-09-04 11:58:38 | 52.79330 | 11.85763 | 70° | 18km/h | 21852m | 3.6m/s | -52.1°C | 0% | 43.5hPa | 2.7V | 03:49:33 | 01:50:51 | 00:00:00 | |
| DL1XH-west | 2026-09-04 11:58:38 | 52.79339 | 11.85804 | 71° | 24km/h | 21876m | 5.2m/s | -52.2°C | 0% | 43.3hPa | 2.7V | 03:49:33 | 01:50:56 | 00:00:00 | |
| AA1-15 | 2026-09-04 11:58:37 | 52.79337 | 11.85795 | 72° | 24km/h | 21871m | 4.5m/s | -52.1°C | 0% | 43.3hPa | 2.6V | 03:49:33 | 01:50:55 | 00:00:00 | |
| HSKMA3-T | 2026-09-04 11:58:30 | 52.79328 | 11.85740 | 89° | 20km/h | 21838m | 4.6m/s | -52.1°C | 0% | 43.5hPa | 2.6V | 03:49:33 | 01:50:48 | 00:00:00 | |
| BIOWL1-15 | 2026-09-04 11:58:28 | 52.79328 | 11.85724 | 89° | 18km/h | 21828m | 5.6m/s | -52.2°C | 0% | 43.6hPa | 2.7V | 03:50:24 | 01:50:46 | 00:00:00 | |
| DL1XH1-15 | 2026-09-04 11:58:27 | 52.79327 | 11.85712 | 72° | 13km/h | 21818m | 4.1m/s | -52.1°C | 3.3% | 43.6hPa | 2.6V | 03:49:19 | 01:50:44 | 00:00:00 | |
| AA1-15 | 2026-09-04 11:58:27 | 52.79327 | 11.85717 | 81° | 15km/h | 21823m | 5.1m/s | -52.1°C | 0% | 43.6hPa | 2.7V | 03:49:33 | 01:50:45 | 00:00:00 | |
| DO2SHX-10 | 2026-09-04 11:58:27 | 52.79327 | 11.85717 | 81° | 15km/h | 21823m | 5.1m/s | -52.1°C | 3.4% | 43.6hPa | 2.6V | 00:00:00 | 01:50:45 | 00:00:00 | |
| DB0DAN | 2026-09-04 11:58:25 | 52.79326 | 11.85706 | 73° | 15km/h | 21814m | 4.2m/s | -52.3°C | 0.7% | 43.68hPa | 2.6V | 00:00:00 | 00:00:00 | 00:00:00 | |
| DF8AY | 2026-09-04 11:58:24 | 52.79324 | 11.85700 | 75° | 16km/h | 21809m | 5.3m/s | -52.3°C | 0% | 43.7hPa | 2.6V | 03:49:33 | 01:50:42 | 00:00:00 | |
| HSKMA3-T | 2026-09-04 11:58:20 | 52.79321 | 11.85673 | 84° | 13km/h | 21789m | 5.1m/s | -52.2°C | 0% | 43.9hPa | 2.7V | 03:49:33 | 01:50:38 | 00:00:00 | |
| BIOWL1-15 | 2026-09-04 11:58:18 | 52.79321 | 11.85662 | 102° | 16km/h | 21780m | 4.6m/s | -52.3°C | 0% | 43.9hPa | 2.6V | 03:50:24 | 01:50:36 | 00:00:00 | |
| DM0DOS-11 | 2026-09-04 11:58:18 | 52.79324 | 11.85646 | 107° | 20km/h | 21770m | 4.2m/s | -52.2°C | 3.2% | 44hPa | 2.7V | 03:49:29 | 01:50:34 | 00:00:00 | |
| AA1-15 | 2026-09-04 11:58:16 | 52.79324 | 11.85646 | 108° | 20km/h | 21770m | 4.2m/s | -52.2°C | 0% | 44hPa | 2.7V | 03:49:33 | 01:50:34 | 00:00:00 | |
| GOEST3-10 | 2026-09-04 11:58:16 | 52.79324 | 11.85646 | 108° | 16km/h | 21770m | 4.1m/s | -52.2°C | 3.2% | 43.9hPa | 2.6V | 00:00:00 | 00:00:00 | 00:00:00 | |
| DL1XH-15 | 2026-09-04 11:58:15 | 52.79327 | 11.85620 | 86° | 13km/h | 21752m | 4.3m/s | -52.4°C | 3.3% | 44.1hPa | 2.6V | 03:49:33 | 01:50:30 | 00:00:00 | |
| DF8AY | 2026-09-04 11:58:14 | 52.79327 | 11.85631 | 102° | 16km/h | 21762m | 5.6m/s | -52.3°C | 0% | 44hPa | 2.7V | 03:49:33 | 01:50:32 | 00:00:00 | |
| DO2SHX-10 | 2026-09-04 11:58:12 | 52.79327 | 11.85619 | 87° | 15km/h | 21752m | 4.3m/s | -52.4°C | 3.3% | 44.1hPa | 2.6V | 00:00:00 | 01:50:30 | 00:00:00 | |
| DF7ER-10 | 2026-09-04 11:58:11 | 52.79327 | 11.85619 | 88° | 13km/h | 21752m | 4.3m/s | -52.4°C | 0.7% | 44.1hPa | 2.7V | 03:49:00 | 00:00:00 | 00:00:00 | |
| DB0DAN | 2026-09-04 11:58:10 | 52.79326 | 11.85608 | 82° | 15km/h | 21742m | 4.7m/s | -52.4°C | 0.6% | 44.2hPa | 2.7V | 00:00:00 | 00:00:00 | 00:00:00 | |
| HSKMA3-T | 2026-09-04 11:58:09 | 52.79326 | 11.85602 | 78° | 15km/h | 21737m | 4.5m/s | -52.4°C | 0% | 44.3hPa | 2.7V | 03:50:24 | 01:50:27 | 00:00:00 | |
| BIOWL1-15 | 2026-09-04 11:58:07 | 52.79323 | 11.85588 | 70° | 7km/h | 21722m | 4.3m/s | -52.6°C | 0% | 44.3hPa | 2.6V | 03:50:24 | 01:50:24 | 00:00:00 | |
| DM0DOS-11 | 2026-09-04 11:58:07 | 52.79323 | 11.85588 | 69° | 7km/h | 21722m | 4.3m/s | -52.6°C | 3.2% | 44.3hPa | 2.6V | 03:49:39 | 01:50:24 | 00:00:00 | |
| DL1XH-west | 2026-09-04 11:58:05 | 52.79323 | 11.85585 | 84° | 7km/h | 21718m | 3.9m/s | -52.7°C | 0% | 44.4hPa | 2.7V | 03:50:24 | 01:50:23 | 00:00:00 | |
| DF8AY | 2026-09-04 11:58:02 | 52.79324 | 11.85571 | 99° | 15km/h | 21704m | 4.2m/s | -52.7°C | 0% | 44.4hPa | 2.6V | 03:50:24 | 01:50:20 | 00:00:00 | |
| HSKMA3-T | 2026-09-04 11:57:59 | 52.79323 | 11.85556 | 64° | 13km/h | 21689m | 3.9m/s | -52.8°C | 0% | 44.5hPa | 2.7V | 03:50:24 | 01:50:17 | 00:00:00 | |
| SMARD9-10 | 2026-09-04 11:57:58 | 52.79323 | 11.85556 | 65° | 13km/h | 21690m | 3.9m/s | -52.8°C | 0.6% | 44.5hPa | 2.7V | 00:00:00 | 00:00:00 | 00:00:00 | |
| DO2SHX-10 | 2026-09-04 11:57:57 | 52.79319 | 11.85544 | 61° | 20km/h | 21681m | 5.8m/s | -52.9°C | 3.4% | 44.6hPa | 2.7V | 03:49:00 | 01:50:15 | 00:00:00 | |
| SO1NDE-10 | 2026-09-04 11:57:56 | 52.79317 | 11.85537 | 65° | 24km/h | 21676m | 4.4m/s | -53.0°C | 3.4% | 44.6hPa | 2.7V | 00:00:00 | 01:50:14 | 00:00:00 | |
| DL1XH-15 | 2026-09-04 11:57:55 | 52.79310 | 11.85509 | 88° | 15km/h | 21658m | 4.1m/s | -53.2°C | 3.5% | 44.8hPa | 2.7V | 03:49:53 | 01:50:10 | 00:00:00 | |
| AA1-15 | 2026-09-04 11:57:54 | 52.79313 | 11.85522 | 66° | 18km/h | 21667m | 4.2m/s | -53.1°C | 0% | 44.7hPa | 2.7V | 03:50:24 | 01:50:12 | 00:00:00 | |
| DF8AY | 2026-09-04 11:57:51 | 52.79311 | 11.85503 | 107° | 16km/h | 21654m | 4.7m/s | -53.3°C | 0% | 44.8hPa | 2.6V | 03:50:24 | 01:50:09 | 00:00:00 | |
| HSKMA3-T | 2026-09-04 11:57:46 | 52.79329 | 11.85466 | 138° | 22km/h | 21629m | 4.3m/s | -53.3°C | 0% | 45hPa | 2.6V | 03:50:24 | 01:50:04 | 00:00:00 | |
| DL1XH-15 | 2026-09-04 11:57:45 | 52.79340 | 11.85434 | 102° | 27km/h | 21612m | 4.9m/s | -53.2°C | 3.5% | 45.1hPa | 2.7V | 03:50:03 | 01:50:00 | 00:00:00 | |
| DJ2DS-15 | 2026-09-04 11:57:45 | 52.79336 | 11.85453 | 119° | 20km/h | 21622m | 4.1m/s | -53.3°C | 0.7% | 45.0hPa | 2.7V | 00:00:00 | 00:00:00 | 00:00:00 | |
| AA1-15 | 2026-09-04 11:57:43 | 52.79340 | 11.85434 | 102° | 27km/h | 21612m | 4.9m/s | -53.2°C | 0% | 45.1hPa | 2.7V | 03:50:24 | 01:50:00 | 00:00:00 | |
| BIOWL1-15 | 2026-09-04 11:57:43 | 52.79338 | 11.85444 | 109° | 24km/h | 21617m | 5.1m/s | -53.3°C | 0% | 45hPa | 2.7V | 03:50:24 | 01:50:01 | 00:00:00 | |
| DF8AY | 2026-09-04 11:57:40 | 52.79343 | 11.85412 | 101° | 27km/h | 21602m | 5.6m/s | -53.2°C | 0% | 45.1hPa | 2.7V | 03:50:24 | 01:49:58 | 00:00:00 | |
| DB0DAN | 2026-09-04 11:57:40 | 52.79343 | 11.85412 | 101° | 26km/h | 21602m | 5.6m/s | -53.2°C | 0.7% | 45.15hPa | 2.7V | 00:00:00 | 00:00:00 | 00:00:00 | |
| DO2SHX-10 | 2026-09-04 11:57:39 | 52.79344 | 11.85401 | 103° | 27km/h | 21597m | 4.4m/s | -53.0°C | 3.5% | 45.2hPa | 2.7V | 00:00:00 | 01:49:57 | 00:00:00 | |
| EDDB2-12 | 2026-09-04 11:57:38 | 52.79346 | 11.85390 | 103° | 27km/h | 21593m | 3.9m/s | -53.1°C | 0.7% | 45.2hPa | 2.7V | 00:00:00 | 00:00:00 | 00:00:00 | |
| DO2SHX-10 | 2026-09-04 11:57:36 | 52.79349 | 11.85367 | 102° | 26km/h | 21583m | 4.6m/s | -53.1°C | 3.5% | 45.3hPa | 2.7V | 00:00:00 | 01:49:54 | 00:00:00 | |
| DL1XH-15 | 2026-09-04 11:57:35 | 52.79354 | 11.85331 | 103° | 18km/h | 21564m | 3.6m/s | -53.1°C | 3.5% | 45.5hPa | 2.6V | 03:50:13 | 01:49:50 | 00:00:00 | |
| HSKMA3-T | 2026-09-04 11:57:35 | 52.79350 | 11.85356 | 105° | 26km/h | 21578m | 4.1m/s | -53.1°C | 0% | 45.4hPa | 2.7V | 03:50:24 | 01:49:53 | 00:00:00 | |
| DL1XH-west | 2026-09-04 11:57:33 | 52.79353 | 11.85338 | 108° | 20km/h | 21569m | 4.2m/s | -53°C | 0% | 45.4hPa | 2.6V | 03:50:24 | 01:49:51 | 00:00:00 | |
| AA1-15 | 2026-09-04 11:57:32 | 52.79355 | 11.85331 | 103° | 18km/h | 21565m | 3.7m/s | -53.1°C | 0% | 45.5hPa | 2.6V | 03:50:24 | 01:49:50 | 00:00:00 | |
| DF8AY | 2026-09-04 11:57:30 | 52.79355 | 11.85314 | 89° | 24km/h | 21555m | 5.4m/s | -53.1°C | 0% | 45.5hPa | 2.7V | 03:50:24 | 01:49:48 | 00:00:00 | |
| DO2SHX-10 | 2026-09-04 11:57:30 | 52.79355 | 11.85314 | 89° | 27km/h | 21555m | 5.3m/s | -53.1°C | 3.5% | 45.5hPa | 2.6V | 00:00:00 | 01:49:48 | 00:00:00 | |
| DL4BBY-15 | 2026-09-04 11:57:29 | 52.79355 | 11.85303 | 88° | 27km/h | 21551m | 4.3m/s | -52.9°C | 0% | 0hPa | 2.6V | 00:00:00 | 00:00:00 | 00:00:00 | |
| SP3BTT-10 | 2026-09-04 11:57:28 | 52.79355 | 11.85291 | 90° | 24km/h | 21547m | 3.9m/s | -53.2°C | 3.5% | 45.5hPa | 2.6V | 00:00:00 | 00:00:00 | 00:00:00 | |
| DO2SHX-10 | 2026-09-04 11:57:27 | 52.79355 | 11.85279 | 94° | 29km/h | 21542m | 5.1m/s | -53.1°C | 3.5% | 45.5hPa | 2.6V | 00:00:00 | 01:49:45 | 00:00:00 | |
| SO1NDE-10 | 2026-09-04 11:57:26 | 52.79356 | 11.85266 | 101° | 26km/h | 21537m | 5.2m/s | -53.1°C | 3.5% | 45.6hPa | 2.6V | 03:50:00 | 01:49:44 | 00:00:00 | |
| DL1XH-15 | 2026-09-04 11:57:25 | 52.79363 | 11.85220 | 96° | 31km/h | 21517m | 5.4m/s | -53.2°C | 3.5% | 45.7hPa | 2.6V | 03:50:23 | 01:49:40 | 00:00:00 | |
| DB0DAN | 2026-09-04 11:57:25 | 52.79358 | 11.85255 | 106° | 27km/h | 21532m | 4.8m/s | -53.2°C | 0.7% | 45.67hPa | 2.7V | 00:00:00 | 00:00:00 | 00:00:00 | |
| HSKMA3-T | 2026-09-04 11:57:23 | 52.79362 | 11.85232 | 102° | 29km/h | 21522m | 4.9m/s | -53.2°C | 0% | 45.7hPa | 2.7V | 03:50:24 | 01:49:41 | 00:00:00 | |
| DL1XH-west | 2026-09-04 11:57:22 | 52.79363 | 11.85220 | 96° | 31km/h | 21517m | 5.4m/s | -53.2°C | 0% | 45.8hPa | 2.6V | 03:50:24 | 01:49:40 | 00:00:00 | |
| AA1-15 | 2026-09-04 11:57:21 | 52.79363 | 11.85207 | 92° | 31km/h | 21512m | 4.5m/s | -53.3°C | 0% | 45.8hPa | 2.6V | 03:50:24 | 01:49:39 | 00:00:00 | |
| DF8AY | 2026-09-04 11:57:20 | 52.79364 | 11.85194 | 93° | 31km/h | 21507m | 4.8m/s | -53.4°C | 0% | 45.8hPa | 2.7V | 03:51:15 | 01:49:38 | 00:00:00 | |
| DF7ER-10 | 2026-09-04 11:57:20 | 52.79364 | 11.85194 | 93° | 31km/h | 21507m | 4.8m/s | -53.4°C | 0.7% | 45.8hPa | 2.7V | 03:51:00 | 00:00:00 | 00:00:00 | |
| DO2SHX-10 | 2026-09-04 11:57:18 | 52.79365 | 11.85169 | 96° | 27km/h | 21497m | 4.9m/s | -53.2°C | 3.5% | 45.9hPa | 2.7V | 00:00:00 | 01:49:36 | 00:00:00 | |
| EDDB2-11 | 2026-09-04 11:57:17 | 52.79365 | 11.85157 | 93° | 27km/h | 21493m | 3.7m/s | -53.3°C | 0.7% | 46.0hPa | 2.7V | 00:00:00 | 00:00:00 | 00:00:00 | |
| DL1XH-15 | 2026-09-04 11:57:16 | 52.79364 | 11.85100 | 87° | 24km/h | 21468m | 5.7m/s | -53.2°C | 3.6% | 46.1hPa | 2.7V | 03:50:33 | 01:49:30 | 00:00:00 | |
| HSKMA3-T | 2026-09-04 11:57:12 | 52.79363 | 11.85091 | 88° | 22km/h | 21463m | 4.5m/s | -53.3°C | 0% | 46.2hPa | 2.6V | 03:51:15 | 01:49:29 | 00:00:00 | |
| DM0DOS-11 | 2026-09-04 11:57:12 | 52.79359 | 11.85042 | 77° | 24km/h | 21439m | 5.2m/s | -53.3°C | 3.6% | 46.3hPa | 2.6V | 03:50:39 | 01:49:24 | 00:00:00 | |
| BIOWL1-15 | 2026-09-04 11:57:10 | 52.79363 | 11.85082 | 86° | 22km/h | 21459m | 4m/s | -53.3°C | 0% | 46.2hPa | 2.6V | 03:51:15 | 01:49:28 | 00:00:00 | |
| DF8AY | 2026-09-04 11:57:10 | 52.79363 | 11.85073 | 82° | 24km/h | 21454m | 5.7m/s | -53.3°C | 0% | 46.2hPa | 2.7V | 03:51:15 | 01:49:27 | 00:00:00 | |
| DB0DAN | 2026-09-04 11:57:10 | 52.79363 | 11.85082 | 86° | 20km/h | 21459m | 4m/s | -53.3°C | 0.7% | 46.19hPa | 2.6V | 00:00:00 | 00:00:00 | 00:00:00 | |
| DO2SHX-10 | 2026-09-04 11:57:09 | 52.79362 | 11.85073 | 83° | 26km/h | 21454m | 5.7m/s | -53.2°C | 3.5% | 46.2hPa | 2.7V | 03:50:00 | 01:49:27 | 00:00:00 | |
| AM1SDL-15 | 2026-09-04 11:57:08 | 52.79362 | 11.85063 | 79° | 24km/h | 21449m | 5.0m/s | -53.3°C | 3.5% | 46.2hPa | 2.7V | 03:50:00 | 01:49:26 | 00:00:00 | |
| EDDB2-12 | 2026-09-04 11:57:07 | 52.79360 | 11.85052 | 77° | 26km/h | 21444m | 4.3m/s | -53.4°C | 0.7% | 46.3hPa | 2.7V | 00:00:00 | 00:00:00 | 00:00:00 | |
| DO2SHX-10 | 2026-09-04 11:57:06 | 52.79359 | 11.85042 | 78° | 24km/h | 21440m | 5.1m/s | -53.3°C | 3.6% | 46.3hPa | 2.7V | 00:00:00 | 01:49:24 | 00:00:00 | |
| DL1XH-15 | 2026-09-04 11:57:05 | 52.79352 | 11.85006 | 68° | 24km/h | 21420m | 5.7m/s | -53.4°C | 3.5% | 46.5hPa | 2.7V | 03:50:43 | 01:49:20 | 00:00:00 | |
| DL1XH-west | 2026-09-04 11:57:01 | 52.79349 | 11.84996 | 66° | 27km/h | 21415m | 5.3m/s | -53.3°C | 0% | 46.5hPa | 2.7V | 03:51:15 | 01:49:19 | 00:00:00 | |
| HSKMA3-T | 2026-09-04 11:57:00 | 52.79347 | 11.84986 | 66° | 26km/h | 21409m | 4.8m/s | -53.3°C | 0% | 46.5hPa | 2.7V | 03:51:15 | 01:49:18 | 00:00:00 | |
| BIOWL1-15 | 2026-09-04 11:57:00 | 52.79341 | 11.84960 | 79° | 18km/h | 21395m | 3.9m/s | -53.3°C | 0% | 46.7hPa | 2.6V | 03:51:15 | 01:49:15 | 00:00:00 | |
| DF8AY | 2026-09-04 11:56:58 | 52.79342 | 11.84968 | 72° | 20km/h | 21399m | 5.2m/s | -53.2°C | 0% | 46.6hPa | 2.6V | 03:51:15 | 01:49:16 | 00:00:00 | |
| DF7ER-10 | 2026-09-04 11:56:58 | 52.79344 | 11.84976 | 68° | 24km/h | 21405m | 5.1m/s | -53.4°C | 0.7% | 46.6hPa | 2.7V | 03:51:00 | 00:00:00 | 00:00:00 | |
| DO2SHX-10 | 2026-09-04 11:56:57 | 52.79341 | 11.84960 | 79° | 20km/h | 21395m | 3.9m/s | -53.2°C | 3.6% | 46.6hPa | 2.7V | 03:50:00 | 01:49:15 | 00:00:00 | |
| SO1NDE-10 | 2026-09-04 11:56:56 | 52.79340 | 11.84952 | 83° | 18km/h | 21390m | 4.4m/s | -53.2°C | 3.5% | 46.6hPa | 2.7V | 00:00:00 | 01:49:14 | 00:00:00 | |
| DL1XH-15 | 2026-09-04 11:56:55 | 52.79337 | 11.84920 | 68° | 16km/h | 21372m | 5.3m/s | -53.2°C | 3.5% | 46.8hPa | 2.6V | 03:50:53 | 01:49:10 | 00:00:00 | |
| DB0DAN | 2026-09-04 11:56:55 | 52.79340 | 11.84944 | 84° | 20km/h | 21385m | 5.5m/s | -53.2°C | 0.7% | 46.74hPa | 2.7V | 00:00:00 | 00:00:00 | 00:00:00 | |
| DL1XH-west | 2026-09-04 11:56:51 | 52.79335 | 11.84914 | 55° | 15km/h | 21366m | 5.8m/s | -53.2°C | 0% | 46.9hPa | 2.7V | 03:51:15 | 01:49:09 | 00:00:00 | |
| HSKMA3-T | 2026-09-04 11:56:47 | 52.79324 | 11.84895 | 54° | 22km/h | 21346m | 5.6m/s | -53.1°C | 0% | 47hPa | 2.6V | 03:51:15 | 01:49:05 | 00:00:00 | |
| BIOWL1-15 | 2026-09-04 11:56:45 | 52.79317 | 11.84877 | 64° | 26km/h | 21337m | 4.3m/s | -53°C | 0% | 47.1hPa | 2.7V | 03:51:15 | 01:49:03 | 00:00:00 | |
| DL1XH-west | 2026-09-04 11:56:40 | 52.79307 | 11.84839 | 68° | 18km/h | 21313m | 5.7m/s | -53°C | 0% | 47.2hPa | 2.7V | 03:51:15 | 01:48:58 | 00:00:00 | |
| DB0DAN | 2026-09-04 11:56:40 | 52.79307 | 11.84839 | 68° | 18km/h | 21313m | 5.7m/s | -53°C | 0.7% | 47.24hPa | 2.7V | 00:00:00 | 00:00:00 | 00:00:00 | |
| AA1-15 | 2026-09-04 11:56:38 | 52.79301 | 11.84816 | 64° | 20km/h | 21298m | 3.9m/s | -53.1°C | 0% | 47.3hPa | 2.6V | 03:51:15 | 01:48:55 | 00:00:00 | |
| DL1XH1-15 | 2026-09-04 11:56:37 | 52.79299 | 11.84810 | 62° | 16km/h | 21293m | 5.5m/s | -53.1°C | 3.5% | 47.4hPa | 2.6V | 03:51:09 | 01:48:54 | 00:00:00 | |
| BIOWL1-15 | 2026-09-04 11:56:36 | 52.79292 | 11.84789 | 59° | 18km/h | 21274m | 5.8m/s | -53.2°C | 0% | 47.6hPa | 2.7V | 03:51:15 | 01:48:50 | 00:00:00 | |
| HSKMA3-T | 2026-09-04 11:56:35 | 52.79297 | 11.84804 | 61° | 13km/h | 21288m | 5.1m/s | -53.1°C | 0% | 47.4hPa | 2.6V | 03:51:15 | 01:48:53 | 00:00:00 | |
| DL1XH-15 | 2026-09-04 11:56:35 | 52.79292 | 11.84789 | 59° | 18km/h | 21273m | 5.8m/s | -53.1°C | 3.5% | 47.6hPa | 2.7V | 03:51:13 | 01:48:50 | 00:00:00 | |
| DF8AY | 2026-09-04 11:56:33 | 52.79294 | 11.84795 | 58° | 15km/h | 21279m | 5m/s | -53.1°C | 0% | 47.5hPa | 2.7V | 03:51:15 | 01:48:51 | 00:00:00 | |
| DL1XH-west | 2026-09-04 11:56:30 | 52.79287 | 11.84774 | 67° | 24km/h | 21264m | 4m/s | -53.2°C | 0% | 47.6hPa | 2.6V | 03:51:15 | 01:48:48 | 00:00:00 | |
| DO2SHX-10 | 2026-09-04 11:56:30 | 52.79287 | 11.84774 | 67° | 22km/h | 21264m | 3.9m/s | -53.1°C | 3.5% | 47.6hPa | 2.6V | 00:00:00 | 01:48:48 | 00:00:00 | |
| DL1NUX | 2026-09-04 11:56:29 | 52.79282 | 11.84738 | 88° | 24km/h | 21243m | 5.3m/s | -53.2°C | 3.5% | 47.8hPa | 2.6V | 03:51:19 | 01:48:44 | 00:00:00 | |
| DL4BBY-15 | 2026-09-04 11:56:29 | 52.79285 | 11.84765 | 73° | 27km/h | 21260m | 5.8m/s | -53.0°C | 0% | 0hPa | 2.7V | 00:00:00 | 00:00:00 | 00:00:00 | |
| SMARD9-15 | 2026-09-04 11:56:28 | 52.79283 | 11.84748 | 83° | 20km/h | 21249m | 4.9m/s | -53.2°C | 0.7% | 47.7hPa | 2.7V | 00:00:00 | 00:00:00 | 00:00:00 | |
| DO2SHX-10 | 2026-09-04 11:56:27 | 52.79283 | 11.84748 | 84° | 24km/h | 21249m | 4.8m/s | -53.2°C | 3.5% | 47.7hPa | 2.7V | 00:00:00 | 01:48:45 | 00:00:00 | |
| AA1-15 | 2026-09-04 11:56:27 | 52.79282 | 11.84738 | 88° | 24km/h | 21243m | 5.3m/s | -53.2°C | 0% | 47.8hPa | 2.6V | 03:52:06 | 01:48:44 | 00:00:00 | |
| SO1NDE-10 | 2026-09-04 11:56:26 | 52.79282 | 11.84738 | 89° | 27km/h | 21244m | 5.3m/s | -53.2°C | 3.5% | 47.7hPa | 2.7V | 00:00:00 | 01:48:44 | 00:00:00 | |
| DL1XH-15 | 2026-09-04 11:56:25 | 52.79281 | 11.84695 | 85° | 22km/h | 21221m | 6.1m/s | -53.2°C | 3.5% | 47.9hPa | 2.7V | 03:51:23 | 01:48:40 | 00:00:00 | |
| HSKMA3-T | 2026-09-04 11:56:25 | 52.79282 | 11.84728 | 87° | 27km/h | 21238m | 5.9m/s | -53.2°C | 0% | 47.8hPa | 2.6V | 03:52:06 | 01:48:43 | 00:00:00 | |
| DB0DAN | 2026-09-04 11:56:25 | 52.79282 | 11.84728 | 87° | 26km/h | 21238m | 5.9m/s | -53.2°C | 0.7% | 47.82hPa | 2.6V | 00:00:00 | 00:00:00 | 00:00:00 | |
| BIOWL1-15 | 2026-09-04 11:56:23 | 52.79281 | 11.84695 | 86° | 24km/h | 21222m | 6.1m/s | -53.2°C | 0% | 47.9hPa | 2.7V | 03:52:06 | 01:48:40 | 00:00:00 | |
| DF8AY | 2026-09-04 11:56:23 | 52.79281 | 11.84705 | 86° | 26km/h | 21227m | 4.9m/s | -53.2°C | 0% | 47.9hPa | 2.7V | 03:52:06 | 01:48:41 | 00:00:00 | |
| DL1XH-west | 2026-09-04 11:56:19 | 52.79277 | 11.84668 | 70° | 24km/h | 21207m | 6m/s | -53.3°C | 0% | 48hPa | 2.6V | 03:52:06 | 01:48:37 | 00:00:00 | |
| DO2SHX-10 | 2026-09-04 11:56:18 | 52.79275 | 11.84658 | 68° | 27km/h | 21202m | 5.2m/s | -53.1°C | 3.6% | 48.1hPa | 2.6V | 00:00:00 | 01:48:36 | 00:00:00 | |
| DF7ER-10 | 2026-09-04 11:56:17 | 52.79275 | 11.84658 | 68° | 27km/h | 21202m | 5.2m/s | -53.2°C | 0.8% | 48.1hPa | 2.6V | 03:52:00 | 00:00:00 | 00:00:00 | |
| GOEST3-10 | 2026-09-04 11:56:16 | 52.79269 | 11.84636 | 67° | 27km/h | 21192m | 5.5m/s | -53.1°C | 3.6% | 48.1hPa | 2.6V | 00:00:00 | 00:00:00 | 00:00:00 | |
| DL1XH-15 | 2026-09-04 11:56:15 | 52.79259 | 11.84595 | 72° | 29km/h | 21171m | 5.5m/s | -53.2°C | 3.6% | 48.3hPa | 2.6V | 03:51:33 | 01:48:30 | 00:00:00 | |
| HSKMA3-T | 2026-09-04 11:56:15 | 52.79266 | 11.84626 | 66° | 26km/h | 21186m | 5.4m/s | -53.2°C | 0% | 48.2hPa | 2.7V | 03:52:06 | 01:48:33 | 00:00:00 | |
| BIOWL1-15 | 2026-09-04 11:56:13 | 52.79262 | 11.84606 | 71° | 26km/h | 21176m | 4.4m/s | -53.2°C | 0% | 48.3hPa | 2.6V | 03:52:06 | 01:48:31 | 00:00:00 | |
| DF8AY | 2026-09-04 11:56:12 | 52.79257 | 11.84583 | 70° | 33km/h | 21165m | 5.8m/s | -53.2°C | 0% | 48.4hPa | 2.7V | 03:52:06 | 01:48:29 | 00:00:00 | |
| DL1LOL-11 | 2026-09-04 11:56:12 | 52.79259 | 11.84595 | 73° | 29km/h | 21171m | 5.5m/s | -53.2°C | 0.7% | 48.3hPa | 2.7V | 00:00:00 | 00:00:00 | 00:00:00 | |
| GOEST3-10 | 2026-09-04 11:56:11 | 52.79257 | 11.84583 | 71° | 33km/h | 21166m | 5.8m/s | -53.1°C | 3.5% | 48.3hPa | 2.7V | 00:00:00 | 01:48:29 | 00:00:00 | |
| DM0DOS-11 | 2026-09-04 11:56:10 | 52.79239 | 11.84520 | 60° | 31km/h | 21139m | 4.9m/s | -53°C | 3.4% | 48.5hPa | 2.6V | 03:51:39 | 01:48:24 | 00:00:00 | |
| DB0DAN | 2026-09-04 11:56:10 | 52.79254 | 11.84569 | 69° | 33km/h | 21160m | 4.3m/s | -53.1°C | 0.7% | 48.4hPa | 2.7V | 00:00:00 | 00:00:00 | 00:00:00 | |
| DL1XH-west | 2026-09-04 11:56:08 | 52.79247 | 11.84543 | 63° | 33km/h | 21150m | 6m/s | -53.1°C | 0% | 48.5hPa | 2.6V | 03:52:06 | 01:48:26 | 00:00:00 | |
| DF2AP-13 | 2026-09-04 11:56:08 | 52.79247 | 11.84543 | 63° | 26km/h | 21150m | 6.0m/s | -53.0°C | 3.5% | 48.5hPa | 2.6V | 00:00:00 | 01:48:26 | 00:00:00 | |
| GOEST3-10 | 2026-09-04 11:56:06 | 52.79238 | 11.84520 | 61° | 31km/h | 21139m | 4.9m/s | -53.0°C | 3.4% | 48.5hPa | 2.6V | 03:51:00 | 00:00:00 | 00:00:00 | |
| DL1XH-15 | 2026-09-04 11:56:05 | 52.79225 | 11.84474 | 64° | 27km/h | 21119m | 5.5m/s | -53°C | 3.4% | 48.7hPa | 2.6V | 03:51:43 | 01:48:20 | 00:00:00 | |
| HSKMA3-T | 2026-09-04 11:56:04 | 52.79231 | 11.84497 | 67° | 33km/h | 21128m | 4.6m/s | -53°C | 0% | 48.6hPa | 2.7V | 03:52:06 | 01:48:22 | 00:00:00 | |
| BIOWL1-15 | 2026-09-04 11:56:02 | 52.79219 | 11.84456 | 57° | 24km/h | 21107m | 4.9m/s | -52.9°C | 0% | 48.8hPa | 2.7V | 03:52:06 | 01:48:18 | 00:00:00 | |
| DF8AY | 2026-09-04 11:56:02 | 52.79225 | 11.84474 | 65° | 27km/h | 21119m | 5.5m/s | -53°C | 0% | 48.7hPa | 2.6V | 03:52:06 | 01:48:20 | 00:00:00 | |
| DL1XH-west | 2026-09-04 11:55:58 | 52.79213 | 11.84440 | 65° | 24km/h | 21097m | 5.8m/s | -52.9°C | 0% | 48.9hPa | 2.7V | 03:52:06 | 01:48:16 | 00:00:00 | |
| SMARD9-15 | 2026-09-04 11:55:57 | 52.79208 | 11.84421 | 65° | 24km/h | 21087m | 4.2m/s | -53.0°C | 0.7% | 49.0hPa | 2.7V | 00:00:00 | 00:00:00 | 00:00:00 | |
| SO1NDE-10 | 2026-09-04 11:55:56 | 52.79208 | 11.84421 | 66° | 24km/h | 21088m | 4.1m/s | -52.9°C | 3.4% | 48.9hPa | 2.7V | 00:00:00 | 01:48:14 | 00:00:00 | |
| DL1XH-15 | 2026-09-04 11:55:55 | 52.79192 | 11.84387 | 46° | 27km/h | 21066m | 4.7m/s | -53.1°C | 3.4% | 49.1hPa | 2.7V | 03:51:53 | 01:48:10 | 00:00:00 | |
| DB0DAN | 2026-09-04 11:55:55 | 52.79205 | 11.84412 | 58° | 24km/h | 21082m | 5.7m/s | -53°C | 0.7% | 48.98hPa | 2.6V | 00:00:00 | 00:00:00 | 00:00:00 | |
| AA1-15 | 2026-09-04 11:55:54 | 52.79201 | 11.84403 | 51° | 26km/h | 21076m | 6m/s | -53.1°C | 0% | 49hPa | 2.7V | 03:52:06 | 01:48:12 | 00:00:00 | |
| HSKMA3-T | 2026-09-04 11:55:54 | 52.79197 | 11.84395 | 46° | 27km/h | 21071m | 5m/s | -53°C | 0% | 49.1hPa | 2.7V | 03:52:06 | 01:48:11 | 00:00:00 | |
| DF8AY | 2026-09-04 11:55:51 | 52.79187 | 11.84378 | 50° | 29km/h | 21061m | 5.7m/s | -53.1°C | 0% | 49.1hPa | 2.6V | 03:52:06 | 01:48:09 | 00:00:00 | |
| DL1XH-west | 2026-09-04 11:55:48 | 52.79175 | 11.84351 | 49° | 24km/h | 21047m | 5.5m/s | -53.3°C | 0% | 49.3hPa | 2.7V | 03:52:06 | 01:48:06 | 00:00:00 | |
| DO2SHX-10 | 2026-09-04 11:55:48 | 52.79175 | 11.84351 | 50° | 22km/h | 21047m | 5.5m/s | -53.3°C | 3.5% | 49.2hPa | 2.7V | 00:00:00 | 01:48:06 | 00:00:00 | |
| DF8AY-15 | 2026-09-04 11:55:46 | 52.79166 | 11.84338 | 40° | 22km/h | 21037m | 4.2m/s | -53.4°C | 3.6% | 49.3hPa | 2.6V | 00:00:00 | 01:48:04 | 00:00:00 | |
| DL1XH-15 | 2026-09-04 11:55:45 | 52.79148 | 11.84309 | 47° | 27km/h | 21017m | 4.8m/s | -53.6°C | 3.6% | 49.5hPa | 2.7V | 03:52:03 | 01:48:00 | 00:00:00 | |
| AA1-15 | 2026-09-04 11:55:44 | 52.79157 | 11.84325 | 44° | 26km/h | 21027m | 6m/s | -53.6°C | 0% | 49.4hPa | 2.6V | 03:52:06 | 01:48:02 | 00:00:00 | |
| BIOWL1-15 | 2026-09-04 11:55:42 | 52.79136 | 11.84288 | 44° | 20km/h | 21001m | 5m/s | -53.6°C | 0% | 49.6hPa | 2.6V | 03:52:06 | 01:47:57 | 00:00:00 | |
| HSKMA3-T | 2026-09-04 11:55:42 | 52.79148 | 11.84309 | 48° | 27km/h | 21017m | 4.8m/s | 0°C | 0% | 49.5hPa | 2.7V | 03:52:06 | 01:48:00 | 00:00:00 | |
| DF8AY | 2026-09-04 11:55:41 | 52.79140 | 11.84294 | 42° | 22km/h | 21006m | 5.8m/s | -53.6°C | 0% | 49.6hPa | 2.7V | 03:52:06 | 01:47:58 | 00:00:00 | |
| DB0DAN | 2026-09-04 11:55:40 | 52.79140 | 11.84294 | 42° | 22km/h | 21006m | 5.8m/s | -53.6°C | 0.7% | 49.57hPa | 2.7V | 00:00:00 | 00:00:00 | 00:00:00 | |
| DL1XH-west | 2026-09-04 11:55:38 | 52.79132 | 11.84282 | 45° | 20km/h | 20996m | 4.8m/s | -53.6°C | 0% | 49.7hPa | 2.6V | 03:52:57 | 01:47:56 | 00:00:00 | |
| DF2AP-13 | 2026-09-04 11:55:38 | 52.79132 | 11.84282 | 46° | 18km/h | 20996m | 4.8m/s | -53.5°C | 3.6% | 49.6hPa | 2.7V | 03:52:00 | 01:47:56 | 00:00:00 | |
| DM0DOS-11 | 2026-09-04 11:55:37 | 52.79126 | 11.84268 | 56° | 22km/h | 20985m | 5.3m/s | -53.5°C | 3.6% | 49.8hPa | 2.7V | 03:52:09 | 01:47:54 | 00:00:00 | |
| SONDE2-11 | 2026-09-04 11:55:37 | 52.79129 | 11.84276 | 52° | 20km/h | 20991m | 5.8m/s | -53.6°C | 0.7% | 49.7hPa | 2.6V | 00:00:00 | 00:00:00 | 00:00:00 | |
| DO2SHX-10 | 2026-09-04 11:55:36 | 52.79126 | 11.84268 | 57° | 24km/h | 20985m | 5.3m/s | -53.5°C | 3.6% | 49.7hPa | 2.6V | 00:00:00 | 01:47:54 | 00:00:00 | |
| DL1XH-15 | 2026-09-04 11:55:35 | 52.79112 | 11.84238 | 49° | 20km/h | 20964m | 4.3m/s | -53.6°C | 3.6% | 49.9hPa | 2.6V | 03:52:13 | 01:47:50 | 00:00:00 | |
| AA1-15 | 2026-09-04 11:55:34 | 52.79119 | 11.84252 | 53° | 22km/h | 20975m | 6.1m/s | -53.6°C | 0% | 49.8hPa | 2.7V | 03:52:57 | 01:47:52 | 00:00:00 | |
| HSKMA3-T | 2026-09-04 11:55:32 | 52.79112 | 11.84238 | 50° | 20km/h | 20964m | 4.3m/s | 0°C | 0% | 49.9hPa | 2.6V | 18:12:15 | 01:47:50 | 00:00:00 | |
| DF8AY | 2026-09-04 11:55:30 | 52.79106 | 11.84224 | 64° | 22km/h | 20953m | 5.6m/s | -53.6°C | 0% | 50hPa | 2.7V | 03:52:57 | 01:47:48 | 00:00:00 | |
| BIOWL1-15 | 2026-09-04 11:55:29 | 52.79104 | 11.84216 | 66° | 22km/h | 20949m | 4.4m/s | -53.6°C | 0% | 50hPa | 2.7V | 03:52:57 | 01:47:47 | 00:00:00 | |
| DL1XH-west | 2026-09-04 11:55:27 | 52.79099 | 11.84201 | 57° | 16km/h | 20939m | 5.6m/s | -53.6°C | 0% | 50.1hPa | 2.6V | 03:52:57 | 01:47:45 | 00:00:00 | |
| DL1XH1-15 | 2026-09-04 11:55:27 | 52.79097 | 11.84196 | 47° | 15km/h | 20934m | 5.6m/s | -53.5°C | 3.5% | 50.1hPa | 2.6V | 03:52:19 | 01:47:44 | 00:00:00 | |
| SP3BTT-10 | 2026-09-04 11:55:27 | 52.79099 | 11.84201 | 57° | 15km/h | 20940m | 5.5m/s | -53.6°C | 3.5% | 50.1hPa | 2.7V | 03:52:00 | 00:00:00 | 00:00:00 | |
| DB0DAN | 2026-09-04 11:55:25 | 52.79095 | 11.84192 | 45° | 13km/h | 20929m | 4.3m/s | -53.6°C | 0.7% | 50.18hPa | 2.7V | 00:00:00 | 00:00:00 | 00:00:00 | |
| AA1-15 | 2026-09-04 11:55:23 | 52.79091 | 11.84183 | 66° | 15km/h | 20919m | 6.2m/s | -53.6°C | 0% | 50.3hPa | 2.7V | 03:52:57 | 01:47:41 | 00:00:00 | |
| HSKMA3-T | 2026-09-04 11:55:21 | 52.79089 | 11.84169 | 80° | 18km/h | 20908m | 4.7m/s | 0°C | 0% | 0hPa | 2.6V | 18:12:15 | 01:47:39 | 00:00:00 | |
| BIOWL1-15 | 2026-09-04 11:55:18 | 52.79086 | 11.84148 | 72° | 16km/h | 20891m | 5.4m/s | -53.5°C | 0% | 50.5hPa | 2.7V | 03:52:57 | 01:47:36 | 00:00:00 | |
| DL1NUX | 2026-09-04 11:55:18 | 52.79084 | 11.84135 | 84° | 18km/h | 20881m | 6.4m/s | -53.5°C | 3.6% | 50.5hPa | 2.6V | 03:52:29 | 01:47:34 | 00:00:00 | |
| DL1XH-west | 2026-09-04 11:55:17 | 52.79085 | 11.84142 | 80° | 16km/h | 20886m | 4.3m/s | -53.5°C | 0% | 50.5hPa | 2.6V | 03:52:57 | 01:47:35 | 00:00:00 | |
| AA1-15 | 2026-09-04 11:55:13 | 52.79084 | 11.84114 | 94° | 13km/h | 20864m | 6.6m/s | -53.5°C | 0% | 50.7hPa | 2.7V | 03:52:57 | 01:47:31 | 00:00:00 | |
| BIOWL1-15 | 2026-09-04 11:55:12 | 52.79096 | 11.84075 | 112° | 16km/h | 20825m | 5.7m/s | -53.5°C | 0% | 51hPa | 2.6V | 03:52:57 | 01:47:24 | 00:00:00 | |
| HSKMA3-T | 2026-09-04 11:55:11 | 52.79086 | 11.84105 | 116° | 13km/h | 20853m | 5m/s | 0°C | 0% | 0hPa | 2.6V | 18:12:15 | 01:47:29 | 00:00:00 | |
| DB0DAN | 2026-09-04 11:55:10 | 52.79088 | 11.84100 | 122° | 15km/h | 20847m | 6.3m/s | -53.5°C | 0.7% | 50.8hPa | 2.6V | 00:00:00 | 00:00:00 | 00:00:00 | |
| DF8AY | 2026-09-04 11:55:09 | 52.79090 | 11.84094 | 122° | 18km/h | 20841m | 5m/s | -53.5°C | 0% | 50.9hPa | 2.7V | 03:52:57 | 01:47:27 | 00:00:00 | |
| DL1XH-west | 2026-09-04 11:55:07 | 52.79095 | 11.84081 | 118° | 16km/h | 20831m | 6.6m/s | -53.5°C | 0% | 50.9hPa | 2.7V | 03:52:57 | 01:47:25 | 00:00:00 | |
| AA1-15 | 2026-09-04 11:55:03 | 52.79099 | 11.84043 | 93° | 24km/h | 20802m | 5.2m/s | -53.4°C | 0% | 51.2hPa | 2.7V | 03:52:57 | 01:47:20 | 00:00:00 | |
| DL1LOL-11 | 2026-09-04 11:55:03 | 52.79099 | 11.84053 | 95° | 22km/h | 20808m | 6.5m/s | -53.4°C | 0.7% | 51.1hPa | 2.7V | 00:00:00 | 00:00:00 | 00:00:00 | |
| GOEST3-10 | 2026-09-04 11:55:01 | 52.79099 | 11.84033 | 90° | 22km/h | 20798m | 4.4m/s | -53.3°C | 3.6% | 51.2hPa | 2.7V | 00:00:00 | 01:47:19 | 00:00:00 | |
| HSKMA3-T | 2026-09-04 11:55:01 | 52.79099 | 11.84033 | 89° | 24km/h | 20797m | 4.4m/s | 0°C | 0% | 0hPa | 2.7V | 18:12:15 | 01:47:19 | 00:00:00 | |
| DM0DOS-11 | 2026-09-04 11:55:00 | 52.79100 | 11.83991 | 109° | 20km/h | 20771m | 5.3m/s | -53.5°C | 3.5% | 51.4hPa | 2.7V | 03:52:49 | 01:47:14 | 00:00:00 | |
| BIOWL1-15 | 2026-09-04 11:54:59 | 52.79102 | 11.83983 | 116° | 20km/h | 20766m | 4.8m/s | -53.4°C | 0% | 51.5hPa | 2.7V | 03:52:57 | 01:47:13 | 00:00:00 | |
| DL1XH-west | 2026-09-04 11:54:56 | 52.79100 | 11.83991 | 110° | 20km/h | 20771m | 5.3m/s | -53.5°C | 0% | 51.4hPa | 2.7V | 03:52:57 | 01:47:14 | 00:00:00 | |
| SO1NDE-10 | 2026-09-04 11:54:56 | 52.79100 | 11.83990 | 110° | 24km/h | 20771m | 5.2m/s | -53.4°C | 3.5% | 51.4hPa | 2.6V | 00:00:00 | 01:47:14 | 00:00:00 | |
| DL1XH-15 | 2026-09-04 11:54:55 | 52.79107 | 11.83963 | 100° | 15km/h | 20750m | 4.2m/s | -53.5°C | 3.6% | 51.6hPa | 2.6V | 03:52:53 | 01:47:10 | 00:00:00 | |
| DB0DAN | 2026-09-04 11:54:55 | 52.79102 | 11.83983 | 116° | 18km/h | 20766m | 4.8m/s | -53.4°C | 0.7% | 51.49hPa | 2.7V | 00:00:00 | 00:00:00 | 00:00:00 | |
| AA1-15 | 2026-09-04 11:54:52 | 52.79107 | 11.83964 | 100° | 15km/h | 20750m | 4.2m/s | -53.5°C | 0% | 51.6hPa | 2.6V | 03:52:57 | 01:47:10 | 00:00:00 | |
| HSKMA3-T | 2026-09-04 11:54:50 | 52.79108 | 11.83949 | 94° | 22km/h | 20740m | 6m/s | 0°C | 0% | 0hPa | 2.7V | 18:12:15 | 01:47:08 | 00:00:00 | |
| DO2SHX-10 | 2026-09-04 11:54:48 | 52.79108 | 11.83929 | 86° | 26km/h | 20729m | 4.8m/s | -53.3°C | 3.7% | 51.7hPa | 2.6V | 00:00:00 | 01:47:06 | 00:00:00 | |
| DL1XH1-15 | 2026-09-04 11:54:47 | 52.79105 | 11.83908 | 75° | 24km/h | 20718m | 5m/s | -53.2°C | 3.6% | 51.9hPa | 2.6V | 03:52:59 | 01:47:04 | 00:00:00 | |
| BIOWL1-15 | 2026-09-04 11:54:47 | 52.79104 | 11.83899 | 78° | 24km/h | 20713m | 4m/s | -53.2°C | 0% | 51.9hPa | 2.7V | 03:53:48 | 01:47:03 | 00:00:00 | |
| DL1XH-west | 2026-09-04 11:54:46 | 52.79106 | 11.83908 | 76° | 24km/h | 20718m | 5.1m/s | -53.2°C | 0% | 51.9hPa | 2.6V | 03:53:48 | 01:47:04 | 00:00:00 | |
| DL1XH-15 | 2026-09-04 11:54:45 | 52.79103 | 11.83867 | 95° | 26km/h | 20697m | 5m/s | -53.1°C | 3.5% | 52hPa | 2.6V | 03:53:03 | 01:47:00 | 00:00:00 | |
| DJ2DS-15 | 2026-09-04 11:54:44 | 52.79103 | 11.83889 | 83° | 24km/h | 20708m | 5.8m/s | -53.2°C | 0.7% | 51.9hPa | 2.6V | 00:00:00 | 00:00:00 | 00:00:00 | |
| AA1-15 | 2026-09-04 11:54:42 | 52.79103 | 11.83867 | 96° | 26km/h | 20697m | 5m/s | -53.1°C | 0% | 52hPa | 2.6V | 03:53:48 | 01:47:00 | 00:00:00 | |
| DO2SHX-10 | 2026-09-04 11:54:42 | 52.79103 | 11.83867 | 96° | 24km/h | 20697m | 4.9m/s | -53.1°C | 3.5% | 52.0hPa | 2.7V | 00:00:00 | 01:47:00 | 00:00:00 | |
| DB0DAN | 2026-09-04 11:54:40 | 52.79105 | 11.83847 | 101° | 22km/h | 20686m | 4.9m/s | -53.1°C | 0.7% | 52.13hPa | 2.7V | 00:00:00 | 00:00:00 | 00:00:00 | |
| BIOWL1-15 | 2026-09-04 11:54:36 | 52.79106 | 11.83783 | 66° | 29km/h | 20654m | 5.4m/s | -52.9°C | 0% | 52.4hPa | 2.7V | 03:53:48 | 01:46:52 | 00:00:00 | |
| DL1XH-west | 2026-09-04 11:54:35 | 52.79108 | 11.83794 | 78° | 27km/h | 20660m | 6.1m/s | -53°C | 0% | 52.3hPa | 2.6V | 03:53:48 | 01:46:53 | 00:00:00 | |
| DL1XH-15 | 2026-09-04 11:54:35 | 52.79099 | 11.83762 | 59° | 29km/h | 20645m | 4.7m/s | -52.9°C | 3.5% | 52.5hPa | 2.7V | 03:53:13 | 01:46:50 | 00:00:00 | |
| HSKMA3-T | 2026-09-04 11:54:33 | 52.79103 | 11.83773 | 60° | 29km/h | 20650m | 3.7m/s | 0°C | 0% | 0hPa | 2.7V | 18:12:15 | 01:46:51 | 00:00:00 | |
| AA1-15 | 2026-09-04 11:54:31 | 52.79096 | 11.83751 | 66° | 29km/h | 20640m | 5.7m/s | -52.9°C | 0% | 52.5hPa | 2.7V | 03:53:48 | 01:46:49 | 00:00:00 | |
| GOEST3-10 | 2026-09-04 11:54:31 | 52.79095 | 11.83751 | 67° | 27km/h | 20640m | 5.7m/s | -52.9°C | 3.5% | 52.4hPa | 2.7V | 00:00:00 | 01:46:49 | 00:00:00 | |
| DO2SHX-10 | 2026-09-04 11:54:30 | 52.79093 | 11.83740 | 76° | 27km/h | 20635m | 4.9m/s | -52.9°C | 3.5% | 52.5hPa | 2.7V | 00:00:00 | 01:46:48 | 00:00:00 | |
| DL4BBY-15 | 2026-09-04 11:54:29 | 52.79092 | 11.83728 | 83° | 24km/h | 20631m | 4.4m/s | -52.7°C | 0% | 0hPa | 2.7V | 00:00:00 | 00:00:00 | 00:00:00 | |
| TFSTFS | 2026-09-04 11:54:28 | 52.79092 | 11.83728 | 84° | 29km/h | 20630m | 4.5m/s | -52.9°C | 0.7% | 52.6hPa | 2.7V | 03:53:00 | 00:00:00 | 00:00:00 | |
| DO2SHX-10 | 2026-09-04 11:54:27 | 52.79091 | 11.83706 | 88° | 20km/h | 20620m | 6.1m/s | -52.8°C | 3.4% | 52.6hPa | 2.7V | 00:00:00 | 01:46:45 | 00:00:00 | |
| SO1NDE-10 | 2026-09-04 11:54:26 | 52.79090 | 11.83698 | 89° | 22km/h | 20615m | 5.1m/s | -52.8°C | 3.4% | 52.7hPa | 2.7V | 00:00:00 | 01:46:44 | 00:00:00 | |
| DL1XH-15 | 2026-09-04 11:54:25 | 52.79089 | 11.83666 | 82° | 20km/h | 20594m | 4.6m/s | -52.7°C | 3.5% | 52.9hPa | 2.7V | 03:53:23 | 01:46:40 | 00:00:00 | |
| DL1XH-west | 2026-09-04 11:54:25 | 52.79090 | 11.83690 | 87° | 18km/h | 20609m | 4.4m/s | -52.8°C | 0% | 52.7hPa | 2.7V | 03:53:48 | 01:46:43 | 00:00:00 | |
| DB0DAN | 2026-09-04 11:54:25 | 52.79090 | 11.83690 | 87° | 18km/h | 20609m | 4.4m/s | -52.8°C | 0.7% | 52.74hPa | 2.7V | 00:00:00 | 00:00:00 | 00:00:00 | |
| HSKMA3-T | 2026-09-04 11:54:22 | 52.79089 | 11.83666 | 82° | 20km/h | 20594m | 4.6m/s | 0°C | 0% | 0hPa | 2.7V | 18:12:15 | 01:46:40 | 00:00:00 | |
| AA1-15 | 2026-09-04 11:54:20 | 52.79087 | 11.83651 | 63° | 18km/h | 20583m | 5.6m/s | -52.6°C | 0% | 53hPa | 2.7V | 03:53:48 | 01:46:38 | 00:00:00 | |
| DB0NH | 2026-09-04 11:54:20 | 52.79086 | 11.83651 | 64° | 24km/h | 20584m | 5.6m/s | -52.6°C | 3.5% | 52.9hPa | 2.6V | 03:53:00 | 01:46:38 | 00:00:00 | |
| DO2SHX-10 | 2026-09-04 11:54:18 | 52.79082 | 11.83637 | 60° | 24km/h | 20575m | 4.2m/s | -52.6°C | 3.5% | 53.0hPa | 2.6V | 00:00:00 | 01:46:36 | 00:00:00 | |
| DL1XH-15 | 2026-09-04 11:54:16 | 52.79067 | 11.83581 | 60° | 20km/h | 20544m | 4.2m/s | -52.6°C | 3.3% | 53.3hPa | 2.6V | 03:53:33 | 01:46:30 | 00:00:00 | |
| DL1XH-west | 2026-09-04 11:54:15 | 52.79074 | 11.83609 | 71° | 27km/h | 20559m | 4.6m/s | -52.6°C | 0% | 53.2hPa | 2.7V | 03:53:48 | 01:46:33 | 00:00:00 | |
| BIOWL1-15 | 2026-09-04 11:54:14 | 52.79072 | 11.83598 | 70° | 26km/h | 20554m | 5.5m/s | -52.6°C | 0% | 53.2hPa | 2.7V | 03:53:48 | 01:46:32 | 00:00:00 | |
| HSKMA3-T | 2026-09-04 11:54:11 | 52.79064 | 11.83574 | 54° | 20km/h | 20540m | 3.9m/s | 0°C | 0% | 0hPa | 2.7V | 18:12:15 | 01:46:29 | 00:00:00 | |
| AA1-15 | 2026-09-04 11:54:10 | 52.79061 | 11.83568 | 54° | 22km/h | 20535m | 5.5m/s | -52.6°C | 0% | 53.4hPa | 2.7V | 03:53:48 | 01:46:28 | 00:00:00 | |
| DB0DAN | 2026-09-04 11:54:10 | 52.79061 | 11.83568 | 54° | 20km/h | 20535m | 5.5m/s | -52.6°C | 0.6% | 53.35hPa | 2.7V | 00:00:00 | 00:00:00 | 00:00:00 | |
| DO2SHX-10 | 2026-09-04 11:54:09 | 52.79058 | 11.83560 | 56° | 22km/h | 20530m | 5.2m/s | -52.5°C | 3.4% | 53.4hPa | 2.7V | 03:53:00 | 01:46:27 | 00:00:00 | |
| DJ2DS-15 | 2026-09-04 11:54:08 | 52.79055 | 11.83552 | 54° | 22km/h | 20525m | 4.1m/s | -52.5°C | 0.7% | 53.5hPa | 2.6V | 00:00:00 | 00:00:00 | 00:00:00 | |
| DM0DOS-11 | 2026-09-04 11:54:07 | 52.79048 | 11.83538 | 50° | 20km/h | 20515m | 5.3m/s | -52.6°C | 3.4% | 53.5hPa | 2.6V | 03:53:39 | 01:46:24 | 00:00:00 | |
| DL1XH-15 | 2026-09-04 11:54:05 | 52.79035 | 11.83506 | 61° | 29km/h | 20495m | 4.8m/s | -52.6°C | 3.5% | 53.7hPa | 2.7V | 03:53:43 | 01:46:20 | 00:00:00 | |
| DF8AY | 2026-09-04 11:54:05 | 52.79045 | 11.83532 | 51° | 20km/h | 20510m | 4.3m/s | -52.6°C | 0% | 53.6hPa | 2.7V | 03:53:48 | 01:46:23 | 00:00:00 | |
| DL1XH-west | 2026-09-04 11:54:04 | 52.79042 | 11.83524 | 55° | 24km/h | 20505m | 4.7m/s | -52.7°C | 0% | 53.6hPa | 2.7V | 03:53:48 | 01:46:22 | 00:00:00 | |
| BIOWL1-15 | 2026-09-04 11:54:03 | 52.79038 | 11.83516 | 60° | 27km/h | 20501m | 5.6m/s | -52.6°C | 0% | 53.6hPa | 2.7V | 03:53:48 | 01:46:21 | 00:00:00 | |
| NBG1-10 | 2026-09-04 11:54:03 | 52.79038 | 11.83516 | 60° | 18km/h | 20501m | 5.5m/s | -52.6°C | 3.5% | 53.6hPa | 2.7V | 00:00:00 | 01:46:21 | 00:00:00 | |
| EDDB2-12 | 2026-09-04 11:54:01 | 52.79027 | 11.83485 | 53° | 27km/h | 20487m | 4.6m/s | -52.8°C | 0.7% | 53.8hPa | 2.6V | 00:00:00 | 00:00:00 | 00:00:00 | |
| DL1XH1-15 | 2026-09-04 11:54:00 | 52.79002 | 11.83458 | 25° | 22km/h | 20462m | 4.8m/s | -52.8°C | 3.4% | 54hPa | 2.6V | 03:53:50 | 01:46:13 | 00:00:00 | |
| AA1-15 | 2026-09-04 11:54:00 | 52.79027 | 11.83485 | 53° | 29km/h | 20487m | 4.6m/s | -52.8°C | 0% | 53.8hPa | 2.6V | 03:53:48 | 01:46:18 | 00:00:00 | |
| DF8AY | 2026-09-04 11:53:55 | 52.79002 | 11.83458 | 26° | 22km/h | 20462m | 4.8m/s | -52.8°C | 0% | 54hPa | 2.6V | 03:54:39 | 01:46:13 | 00:00:00 | |
| DL1XH-15 | 2026-09-04 11:53:55 | 52.78988 | 11.83447 | 22° | 20km/h | 20447m | 5.9m/s | -52.5°C | 3.4% | 54.1hPa | 2.7V | 03:53:53 | 01:46:10 | 00:00:00 | |
| DB0DAN | 2026-09-04 11:53:55 | 52.79002 | 11.83458 | 26° | 20km/h | 20462m | 4.8m/s | -52.8°C | 0.7% | 53.98hPa | 2.6V | 00:00:00 | 00:00:00 | 00:00:00 | |
| DL1XH-west | 2026-09-04 11:53:54 | 52.78997 | 11.83454 | 25° | 22km/h | 20457m | 4.3m/s | -52.7°C | 0% | 54hPa | 2.6V | 03:54:39 | 01:46:12 | 00:00:00 | |
| BIOWL1-15 | 2026-09-04 11:53:52 | 52.78983 | 11.83443 | 28° | 18km/h | 20442m | 4.6m/s | -52.4°C | 0% | 54.2hPa | 2.6V | 03:54:39 | 01:46:09 | 00:00:00 | |
| HSKMA3-T | 2026-09-04 11:53:49 | 52.78976 | 11.83433 | 48° | 22km/h | 20432m | 6.2m/s | 0°C | 0% | 0hPa | 2.7V | 18:12:15 | 01:46:07 | 00:00:00 | |
| DO2SHX-10 | 2026-09-04 11:53:48 | 52.78972 | 11.83425 | 56° | 22km/h | 20427m | 4.7m/s | -52.2°C | 3.4% | 54.2hPa | 2.6V | 00:00:00 | 01:46:06 | 00:00:00 | |
| DM0DOS-11 | 2026-09-04 11:53:47 | 52.78966 | 11.83410 | 56° | 20km/h | 20417m | 5.5m/s | -52.4°C | 3.5% | 54.3hPa | 2.6V | 03:53:59 | 01:46:04 | 00:00:00 | |
| DF8AY | 2026-09-04 11:53:45 | 52.78963 | 11.83404 | 44° | 15km/h | 20412m | 5.2m/s | -52.5°C | 0% | 54.4hPa | 2.6V | 03:54:39 | 01:46:03 | 00:00:00 | |
| DL1XH-15 | 2026-09-04 11:53:45 | 52.78954 | 11.83397 | 14° | 16km/h | 20397m | 5.6m/s | -52.7°C | 3.5% | 54.5hPa | 2.7V | 03:54:03 | 01:46:00 | 00:00:00 | |
| DL1XH-west | 2026-09-04 11:53:44 | 52.78960 | 11.83401 | 29° | 13km/h | 20407m | 4.4m/s | -52.6°C | 0% | 54.4hPa | 2.6V | 03:54:39 | 01:46:02 | 00:00:00 | |
| BIOWL1-15 | 2026-09-04 11:53:40 | 52.78945 | 11.83393 | 16° | 20km/h | 20387m | 4.5m/s | -52.7°C | 0% | 54.6hPa | 2.7V | 03:54:39 | 01:45:58 | 00:00:00 | |
| DB0DAN | 2026-09-04 11:53:40 | 52.78945 | 11.83393 | 16° | 18km/h | 20387m | 4.5m/s | -52.7°C | 0.7% | 54.63hPa | 2.7V | 00:00:00 | 00:00:00 | 00:00:00 | |
| AA1-15 | 2026-09-04 11:53:39 | 52.78932 | 11.83389 | 9° | 15km/h | 20372m | 4.9m/s | -52.6°C | 0% | 54.8hPa | 2.6V | 03:54:39 | 01:45:55 | 00:00:00 | |
| SMARD9-10 | 2026-09-04 11:53:39 | 52.78940 | 11.83391 | 15° | 18km/h | 20383m | 4.7m/s | -52.6°C | 0.7% | 54.7hPa | 2.7V | 03:54:00 | 00:00:00 | 00:00:00 | |
| DM0DOS-11 | 2026-09-04 11:53:37 | 52.78929 | 11.83387 | 17° | 13km/h | 20367m | 4.8m/s | -52.5°C | 3.4% | 54.8hPa | 2.7V | 03:54:09 | 01:45:54 | 00:00:00 | |
| DO2SHX-10 | 2026-09-04 11:53:36 | 52.78929 | 11.83387 | 18° | 13km/h | 20367m | 4.7m/s | -52.5°C | 3.4% | 54.7hPa | 2.6V | 00:00:00 | 01:45:54 | 00:00:00 | |
| DL1XH-15 | 2026-09-04 11:53:35 | 52.78920 | 11.83370 | 72° | 15km/h | 20347m | 4.5m/s | -52.3°C | 3.3% | 54.9hPa | 2.6V | 03:54:13 | 01:45:50 | 00:00:00 | |
| DF8AY | 2026-09-04 11:53:34 | 52.78923 | 11.83381 | 50° | 15km/h | 20357m | 5.3m/s | -52.4°C | 0% | 54.9hPa | 2.7V | 03:54:39 | 01:45:52 | 00:00:00 | |
| DL1XH-west | 2026-09-04 11:53:33 | 52.78921 | 11.83376 | 62° | 16km/h | 20352m | 4.3m/s | -52.4°C | 0% | 54.9hPa | 2.6V | 03:54:39 | 01:45:51 | 00:00:00 | |
| DO2SHX-10 | 2026-09-04 11:53:33 | 52.78921 | 11.83376 | 62° | 15km/h | 20352m | 4.2m/s | -52.4°C | 3.3% | 54.9hPa | 2.6V | 03:54:00 | 01:45:51 | 00:00:00 | |
| DD8BA-10 | 2026-09-04 11:53:32 | 52.78920 | 11.83370 | 73° | 9km/h | 20348m | 4.4m/s | -52.3°C | 3.3% | 54.9hPa | 2.7V | 00:00:00 | 00:00:00 | 00:00:00 | |
| GOEST3-10 | 2026-09-04 11:53:31 | 52.78919 | 11.83365 | 84° | 7km/h | 20342m | 6.2m/s | -52.1°C | 3.3% | 55.0hPa | 2.7V | 00:00:00 | 01:45:49 | 00:00:00 | |
| DL1XH1-15 | 2026-09-04 11:53:30 | 52.78923 | 11.83348 | 112° | 7km/h | 20311m | 4m/s | -52°C | 3.3% | 55.3hPa | 2.7V | 03:54:20 | 01:45:43 | 00:00:00 | |
| BIOWL1-15 | 2026-09-04 11:53:29 | 52.78920 | 11.83358 | 126° | 5km/h | 20331m | 4.2m/s | -52.1°C | 0% | 55.1hPa | 2.7V | 03:54:39 | 01:45:47 | 00:00:00 | |
| AA1-15 | 2026-09-04 11:53:28 | 52.78921 | 11.83356 | 126° | 7km/h | 20327m | 5.2m/s | -52.1°C | 0% | 55.1hPa | 2.6V | 03:54:39 | 01:45:46 | 00:00:00 | |
| AM1SDL-15 | 2026-09-04 11:53:28 | 52.78921 | 11.83356 | 126° | 9km/h | 20327m | 5.1m/s | -52.1°C | 3.4% | 55.1hPa | 2.6V | 00:00:00 | 01:45:46 | 00:00:00 | |
| DM0DOS-11 | 2026-09-04 11:53:27 | 52.78922 | 11.83351 | 105° | 7km/h | 20316m | 5m/s | -52.1°C | 3.3% | 55.2hPa | 2.6V | 03:54:19 | 01:45:44 | 00:00:00 | |
| DO2SHX-10 | 2026-09-04 11:53:27 | 52.78921 | 11.83353 | 115° | 7km/h | 20321m | 5.7m/s | -52.1°C | 3.4% | 55.1hPa | 2.6V | 00:00:00 | 01:45:45 | 00:00:00 | |
| DF8AY-15 | 2026-09-04 11:53:26 | 52.78922 | 11.83351 | 106° | 13km/h | 20316m | 4.9m/s | -52.0°C | 3.3% | 55.2hPa | 2.6V | 03:54:00 | 01:45:44 | 00:00:00 | |
| DL1XH-15 | 2026-09-04 11:53:25 | 52.78926 | 11.83341 | 138° | 7km/h | 20295m | 5.1m/s | -52.1°C | 3.3% | 55.4hPa | 2.6V | 03:54:23 | 01:45:40 | 00:00:00 | |
| DB0DAN | 2026-09-04 11:53:25 | 52.78923 | 11.83348 | 112° | 7km/h | 20311m | 4m/s | -52.1°C | 0.7% | 55.27hPa | 2.7V | 00:00:00 | 00:00:00 | 00:00:00 | |
| DF8AY | 2026-09-04 11:53:23 | 52.78925 | 11.83343 | 142° | 7km/h | 20301m | 5.9m/s | -52.3°C | 0% | 55.3hPa | 2.7V | 03:54:39 | 01:45:41 | 00:00:00 | |
| DL1XH-west | 2026-09-04 11:53:22 | 52.78927 | 11.83341 | 138° | 7km/h | 20295m | 5.1m/s | -52.1°C | 0% | 55.4hPa | 2.6V | 03:54:39 | 01:45:40 | 00:00:00 | |
| DD8BA-10 | 2026-09-04 11:53:22 | 52.78927 | 11.83341 | 139° | 11km/h | 20295m | 5.0m/s | -52.1°C | 3.3% | 55.3hPa | 2.6V | 03:54:00 | 00:00:00 | 00:00:00 | |
| DL1XH1-15 | 2026-09-04 11:53:20 | 52.78930 | 11.83309 | 144° | 13km/h | 20260m | 5m/s | -52.4°C | 3.3% | 55.7hPa | 2.6V | 03:54:30 | 01:45:33 | 00:00:00 | |
| BIOWL1-15 | 2026-09-04 11:53:19 | 52.78928 | 11.83330 | 80° | 13km/h | 20279m | 4.9m/s | -52.3°C | 0% | 55.5hPa | 2.7V | 03:54:39 | 01:45:37 | 00:00:00 | |
| AA1-15 | 2026-09-04 11:53:18 | 52.78928 | 11.83324 | 84° | 15km/h | 20275m | 3.6m/s | -52.3°C | 0% | 55.6hPa | 2.7V | 03:54:39 | 01:45:36 | 00:00:00 | |
| DL1XH-west | 2026-09-04 11:53:11 | 52.78942 | 11.83302 | 155° | 15km/h | 20238m | 4m/s | -52.3°C | 0% | 55.9hPa | 2.7V | 03:54:39 | 01:45:29 | 00:00:00 | |
| DL1NUX | 2026-09-04 11:53:11 | 52.78962 | 11.83278 | 127° | 18km/h | 20212m | 5.2m/s | -52.8°C | 3.4% | 56.1hPa | 2.7V | 03:54:39 | 01:45:24 | 00:00:00 | |
| DB0DAN | 2026-09-04 11:53:10 | 52.78946 | 11.83299 | 152° | 16km/h | 20234m | 5.6m/s | -52.3°C | 0.6% | 55.93hPa | 2.6V | 00:00:00 | 00:00:00 | 00:00:00 | |
| BIOWL1-15 | 2026-09-04 11:53:08 | 52.78955 | 11.83290 | 141° | 22km/h | 20223m | 4.4m/s | -52.4°C | 0% | 56hPa | 2.6V | 03:54:39 | 01:45:26 | 00:00:00 | |
| AA1-15 | 2026-09-04 11:53:08 | 52.78959 | 11.83284 | 135° | 20km/h | 20218m | 5.9m/s | -52.6°C | 0% | 56hPa | 2.7V | 03:54:39 | 01:45:25 | 00:00:00 | |
| DL1XH-west | 2026-09-04 11:53:01 | 52.78979 | 11.83249 | 144° | 24km/h | 20188m | 4.2m/s | -52.9°C | 0% | 56.3hPa | 2.7V | 03:55:30 | 01:45:19 | 00:00:00 | |
| DF8AY | 2026-09-04 11:53:00 | 52.78984 | 11.83243 | 144° | 24km/h | 20184m | 5m/s | -52.9°C | 0% | 56.4hPa | 2.7V | 03:55:30 | 01:45:18 | 00:00:00 | |
| BIOWL1-15 | 2026-09-04 11:52:57 | 52.78997 | 11.83225 | 141° | 22km/h | 20170m | 4.2m/s | -52.9°C | 0% | 56.5hPa | 2.6V | 03:55:30 | 01:45:15 | 00:00:00 | |
| AA1-15 | 2026-09-04 11:52:56 | 52.79002 | 11.83219 | 148° | 24km/h | 20164m | 6.1m/s | -53°C | 0% | 56.5hPa | 2.7V | 03:55:30 | 01:45:14 | 00:00:00 | |
| SO1NDE-10 | 2026-09-04 11:52:56 | 52.79002 | 11.83219 | 148° | 33km/h | 20165m | 6.0m/s | -52.9°C | 3.4% | 56.5hPa | 2.6V | 00:00:00 | 01:45:14 | 00:00:00 | |
| DL1XH-15 | 2026-09-04 11:52:55 | 52.79023 | 11.83196 | 132° | 26km/h | 20145m | 5.2m/s | -53.3°C | 3.6% | 56.7hPa | 2.6V | 03:54:53 | 01:45:10 | 00:00:00 | |
| DB0DAN | 2026-09-04 11:52:55 | 52.79007 | 11.83214 | 151° | 24km/h | 20159m | 4.9m/s | -53°C | 0.7% | 56.58hPa | 2.7V | 00:00:00 | 00:00:00 | 00:00:00 | |
| DL1XH-west | 2026-09-04 11:52:51 | 52.79027 | 11.83187 | 123° | 26km/h | 20140m | 5m/s | -53.3°C | 0% | 56.7hPa | 2.7V | 03:55:30 | 01:45:09 | 00:00:00 | |
| DF8AY | 2026-09-04 11:52:49 | 52.79034 | 11.83166 | 119° | 31km/h | 20131m | 5.3m/s | -53.4°C | 0% | 56.8hPa | 2.7V | 03:55:30 | 01:45:07 | 00:00:00 | |
| AA1-15 | 2026-09-04 11:52:46 | 52.79048 | 11.83127 | 123° | 42km/h | 20116m | 4.2m/s | -53.3°C | 0% | 57hPa | 2.6V | 03:55:30 | 01:45:04 | 00:00:00 | |
| DF8AY-15 | 2026-09-04 11:52:46 | 52.79048 | 11.83127 | 123° | 35km/h | 20116m | 4.1m/s | -53.2°C | 3.5% | 56.9hPa | 2.6V | 00:00:00 | 01:45:04 | 00:00:00 | |
| DL1XH-15 | 2026-09-04 11:52:45 | 52.79070 | 11.83075 | 132° | 33km/h | 20096m | 6m/s | -53.3°C | 3.5% | 57.1hPa | 2.7V | 03:55:03 | 01:45:00 | 00:00:00 | |
| DL1XH-west | 2026-09-04 11:52:40 | 52.79080 | 11.83060 | 143° | 26km/h | 20085m | 4.6m/s | -53.2°C | 0% | 57.2hPa | 2.6V | 03:55:30 | 01:44:58 | 00:00:00 | |
| DL1XH1-15 | 2026-09-04 11:52:40 | 52.79104 | 11.83017 | 128° | 37km/h | 20061m | 6.1m/s | -53°C | 3.4% | 57.4hPa | 2.6V | 03:55:10 | 01:44:53 | 00:00:00 | |
| DB0DAN | 2026-09-04 11:52:40 | 52.79080 | 11.83060 | 143° | 24km/h | 20086m | 4.6m/s | -53.2°C | 0.7% | 57.22hPa | 2.6V | 00:00:00 | 00:00:00 | 00:00:00 | |
| DF8AY | 2026-09-04 11:52:39 | 52.79085 | 11.83053 | 140° | 24km/h | 20080m | 5.6m/s | -53.1°C | 0% | 57.3hPa | 2.6V | 03:55:30 | 01:44:57 | 00:00:00 | |
| AA1-15 | 2026-09-04 11:52:35 | 52.79104 | 11.83017 | 128° | 37km/h | 20061m | 6.1m/s | -53°C | 0% | 57.4hPa | 2.6V | 03:55:30 | 01:44:53 | 00:00:00 | |
| DL1XH-15 | 2026-09-04 11:52:35 | 52.79122 | 11.82973 | 117° | 46km/h | 20046m | 5.7m/s | -53.1°C | 3.4% | 57.6hPa | 2.7V | 03:55:13 | 01:44:50 | 00:00:00 | |
| BIOWL1-15 | 2026-09-04 11:52:33 | 52.79116 | 11.82989 | 123° | 44km/h | 20051m | 4.9m/s | -53°C | 0% | 57.5hPa | 2.7V | 03:55:30 | 01:44:51 | 00:00:00 | |
| DL1XH-west | 2026-09-04 11:52:30 | 52.79130 | 11.82938 | 109° | 42km/h | 20036m | 4.7m/s | -53.1°C | 0% | 57.7hPa | 2.6V | 03:55:30 | 01:44:48 | 00:00:00 | |
| DF8AY | 2026-09-04 11:52:29 | 52.79134 | 11.82922 | 110° | 38km/h | 20031m | 4.9m/s | -53.1°C | 0% | 57.7hPa | 2.6V | 03:55:30 | 01:44:47 | 00:00:00 | |
| DL4BBY-15 | 2026-09-04 11:52:29 | 52.79134 | 11.82922 | 111° | 44km/h | 20032m | 4.9m/s | -52.9°C | 0% | 0hPa | 2.6V | 00:00:00 | 00:00:00 | 00:00:00 | |
| AM1SDL-15 | 2026-09-04 11:52:28 | 52.79137 | 11.82908 | 116° | 37km/h | 20026m | 5.3m/s | -53.1°C | 3.5% | 57.7hPa | 2.6V | 00:00:00 | 01:44:46 | 00:00:00 | |
| MECKS9 | 2026-09-04 11:52:27 | 52.79137 | 11.82908 | 116° | 35km/h | 20026m | 5.4m/s | -53.2°C | 0.7% | 57.8hPa | 2.7V | 00:00:00 | 00:00:00 | 00:00:00 | |
| DM0DOS-11 | 2026-09-04 11:52:26 | 52.79146 | 11.82886 | 127° | 31km/h | 20016m | 4.1m/s | -53.2°C | 3.4% | 57.9hPa | 2.7V | 03:55:19 | 01:44:44 | 00:00:00 | |
| SP3WXH-11 | 2026-09-04 11:52:26 | 52.79151 | 11.82875 | 128° | 33km/h | 20012m | 5.2m/s | -53.3°C | 0.7% | 57.9hPa | 2.6V | 00:00:00 | 00:00:00 | 00:00:00 | |
| DL1XH-15 | 2026-09-04 11:52:25 | 52.79165 | 11.82837 | 116° | 40km/h | 19996m | 5.1m/s | -53.3°C | 3.5% | 58hPa | 2.6V | 03:55:23 | 01:44:40 | 00:00:00 | |
| DB0DAN | 2026-09-04 11:52:25 | 52.79151 | 11.82875 | 128° | 31km/h | 20012m | 5.2m/s | -53.3°C | 0.7% | 57.87hPa | 2.7V | 00:00:00 | 00:00:00 | 00:00:00 | |
| AA1-15 | 2026-09-04 11:52:25 | 52.79156 | 11.82864 | 124° | 35km/h | 20006m | 5.4m/s | -53.3°C | 0% | 57.9hPa | 2.7V | 03:55:30 | 01:44:42 | 00:00:00 | |
| DF8AY | 2026-09-04 11:52:23 | 52.79182 | 11.82775 | 110° | 46km/h | 19976m | 4.6m/s | -53.5°C | 0% | 58.2hPa | 2.7V | 03:55:30 | 01:44:36 | 00:00:00 | |
| BIOWL1-15 | 2026-09-04 11:52:23 | 52.79161 | 11.82851 | 121° | 37km/h | 20001m | 5.3m/s | -53.3°C | 0% | 58hPa | 2.6V | 03:55:30 | 01:44:41 | 00:00:00 | |
| DM0DOS-11 | 2026-09-04 11:52:21 | 52.79190 | 11.82737 | 108° | 51km/h | 19964m | 5m/s | -53.4°C | 3.5% | 58.3hPa | 2.6V | 03:55:29 | 01:44:34 | 00:00:00 | |
| DL1XH-west | 2026-09-04 11:52:20 | 52.79174 | 11.82808 | 114° | 40km/h | 19985m | 5.1m/s | -53.3°C | 0% | 58.1hPa | 2.7V | 03:55:30 | 01:44:38 | 00:00:00 | |
| SMARD9-15 | 2026-09-04 11:52:19 | 52.79178 | 11.82792 | 111° | 40km/h | 19980m | 4.3m/s | -53.4°C | 0.7% | 58.2hPa | 2.6V | 00:00:00 | 00:00:00 | 00:00:00 | |
| DO2SHX-10 | 2026-09-04 11:52:18 | 52.79182 | 11.82775 | 110° | 49km/h | 19976m | 4.6m/s | -53.4°C | 3.5% | 58.2hPa | 2.6V | 00:00:00 | 01:44:36 | 00:00:00 | |
| MECKS9 | 2026-09-04 11:52:17 | 52.79182 | 11.82775 | 111° | 46km/h | 19976m | 4.6m/s | -53.5°C | 0.7% | 58.2hPa | 2.6V | 00:00:00 | 00:00:00 | 00:00:00 | |
| GOEST3-10 | 2026-09-04 11:52:16 | 52.79190 | 11.82737 | 109° | 47km/h | 19964m | 4.9m/s | -53.4°C | 3.5% | 58.2hPa | 2.6V | 00:00:00 | 00:00:00 | 00:00:00 | |
| DL1XH-15 | 2026-09-04 11:52:15 | 52.79206 | 11.82661 | 109° | 44km/h | 19945m | 3.7m/s | -53.2°C | 3.5% | 58.5hPa | 2.6V | 03:55:33 | 01:44:30 | 00:00:00 | |
| AA1-15 | 2026-09-04 11:52:14 | 52.79202 | 11.82679 | 110° | 46km/h | 19949m | 4.7m/s | -53.3°C | 0% | 58.5hPa | 2.7V | 03:56:21 | 01:44:31 | 00:00:00 | |
| BIOWL1-15 | 2026-09-04 11:52:12 | 52.79206 | 11.82661 | 109° | 44km/h | 19945m | 3.7m/s | -53.2°C | 0% | 58.5hPa | 2.6V | 03:56:21 | 01:44:30 | 00:00:00 | |
| DD8BA-10 | 2026-09-04 11:52:12 | 52.79206 | 11.82661 | 110° | 46km/h | 19945m | 3.6m/s | -53.2°C | 3.5% | 58.4hPa | 2.6V | 00:00:00 | 00:00:00 | 00:00:00 | |
| DB0DAN | 2026-09-04 11:52:10 | 52.79212 | 11.82626 | 104° | 42km/h | 19935m | 5.4m/s | -53.2°C | 0.7% | 58.58hPa | 2.6V | 00:00:00 | 00:00:00 | 00:00:00 | |
| DF8AY | 2026-09-04 11:52:09 | 52.79217 | 11.82589 | 101° | 47km/h | 19926m | 4.4m/s | -53.2°C | 0% | 58.7hPa | 2.7V | 03:56:21 | 01:44:26 | 00:00:00 | |
| DO2SHX-10 | 2026-09-04 11:52:09 | 52.79215 | 11.82608 | 102° | 46km/h | 19931m | 4.9m/s | -53.2°C | 3.5% | 58.6hPa | 2.6V | 03:55:00 | 01:44:27 | 00:00:00 | |
| DL1XH-west | 2026-09-04 11:52:09 | 52.79215 | 11.82608 | 102° | 46km/h | 19930m | 5m/s | -53.2°C | 0% | 58.6hPa | 2.7V | 03:56:21 | 01:44:27 | 00:00:00 | |
| DM0DOS-11 | 2026-09-04 11:52:08 | 52.79221 | 11.82551 | 101° | 44km/h | 19915m | 5.5m/s | -53.1°C | 3.5% | 58.8hPa | 2.6V | 03:55:39 | 01:44:24 | 00:00:00 | |
| DL1XH1-15 | 2026-09-04 11:52:07 | 52.79224 | 11.82533 | 102° | 46km/h | 19910m | 4.2m/s | -53.2°C | 3.4% | 58.8hPa | 2.6V | 03:55:40 | 01:44:23 | 00:00:00 | |
| DO2SHX-10 | 2026-09-04 11:52:06 | 52.79221 | 11.82551 | 102° | 46km/h | 19916m | 5.4m/s | -53.1°C | 3.5% | 58.7hPa | 2.7V | 00:00:00 | 01:44:24 | 00:00:00 | |
| DL1XH-15 | 2026-09-04 11:52:05 | 52.79231 | 11.82471 | 98° | 55km/h | 19895m | 5m/s | -53.6°C | 3.5% | 58.9hPa | 2.7V | 03:55:43 | 01:44:20 | 00:00:00 | |
| AA1-15 | 2026-09-04 11:52:03 | 52.79229 | 11.82493 | 100° | 53km/h | 19900m | 6m/s | -53.5°C | 0% | 58.9hPa | 2.7V | 03:56:21 | 01:44:21 | 00:00:00 | |
| BIOWL1-15 | 2026-09-04 11:52:02 | 52.79231 | 11.82471 | 98° | 55km/h | 19895m | 5m/s | -53.6°C | 0% | 58.9hPa | 2.7V | 03:56:21 | 01:44:20 | 00:00:00 | |
| GOEST3-10 | 2026-09-04 11:52:01 | 52.79233 | 11.82449 | 98° | 47km/h | 19890m | 4.7m/s | -53.6°C | 3.5% | 58.9hPa | 2.7V | 00:00:00 | 01:44:19 | 00:00:00 | |
| DL1XH1-15 | 2026-09-04 11:52:00 | 52.79241 | 11.82336 | 96° | 40km/h | 19860m | 4.5m/s | -53.8°C | 3.7% | 59.3hPa | 2.7V | 03:55:50 | 01:44:13 | 00:00:00 | |
| DL1XH-west | 2026-09-04 11:51:59 | 52.79236 | 11.82407 | 96° | 47km/h | 19880m | 4.6m/s | -53.9°C | 0% | 59.1hPa | 2.6V | 03:56:21 | 01:44:17 | 00:00:00 | |
| DM0DOS-11 | 2026-09-04 11:51:58 | 52.79240 | 11.82353 | 96° | 42km/h | 19865m | 5.4m/s | -53.8°C | 3.7% | 59.2hPa | 2.7V | 03:55:49 | 01:44:14 | 00:00:00 | |
| DF8AY | 2026-09-04 11:51:57 | 52.79239 | 11.82370 | 97° | 42km/h | 19871m | 5.1m/s | -53.8°C | 0% | 59.2hPa | 2.7V | 03:56:21 | 01:44:15 | 00:00:00 | |
| EDDB2-12 | 2026-09-04 11:51:56 | 52.79240 | 11.82353 | 96° | 40km/h | 19865m | 5.4m/s | -53.8°C | 0.8% | 59.2hPa | 2.7V | 00:00:00 | 00:00:00 | 00:00:00 | |
| DB0DAN | 2026-09-04 11:51:55 | 52.79241 | 11.82336 | 96° | 38km/h | 19861m | 4.5m/s | -53.8°C | 0.8% | 59.28hPa | 2.7V | 00:00:00 | 00:00:00 | 00:00:00 | |
| BIOWL1-15 | 2026-09-04 11:51:52 | 52.79245 | 11.82291 | 98° | 31km/h | 19845m | 5.7m/s | -53.8°C | 0% | 59.4hPa | 2.6V | 03:56:21 | 01:44:10 | 00:00:00 | |
| DD8BA-10 | 2026-09-04 11:51:52 | 52.79245 | 11.82291 | 98° | 40km/h | 19845m | 5.6m/s | -53.8°C | 3.6% | 59.4hPa | 2.7V | 00:00:00 | 00:00:00 | 00:00:00 | |
| DB0UT-7 | 2026-09-04 11:51:51 | 52.79245 | 11.82278 | 99° | 38km/h | 19840m | 4.0m/s | -53.7°C | 3.6% | 59.4hPa | 2.7V | 00:00:00 | 00:00:00 | 00:00:00 | |
| DL1XH1-15 | 2026-09-04 11:51:50 | 52.79253 | 11.82175 | 92° | 42km/h | 19812m | 5.6m/s | -53.7°C | 3.6% | 59.7hPa | 2.7V | 03:56:00 | 01:44:03 | 00:00:00 | |
| DL1XH-west | 2026-09-04 11:51:49 | 52.79250 | 11.82231 | 98° | 46km/h | 19826m | 4.3m/s | -53.7°C | 0% | 59.6hPa | 2.6V | 03:56:21 | 01:44:06 | 00:00:00 | |
| DF8AY | 2026-09-04 11:51:47 | 52.79251 | 11.82213 | 96° | 46km/h | 19822m | 3.9m/s | -53.7°C | 0% | 59.6hPa | 2.6V | 03:56:21 | 01:44:05 | 00:00:00 | |
| DJ2DS-15 | 2026-09-04 11:51:44 | 52.79253 | 11.82158 | 89° | 38km/h | 19807m | 5.1m/s | -53.8°C | 0.8% | 59.8hPa | 2.6V | 00:00:00 | 00:00:00 | 00:00:00 | |
| AA1-15 | 2026-09-04 11:51:42 | 52.79253 | 11.82112 | 91° | 37km/h | 19792m | 5.7m/s | -53.8°C | 0% | 59.9hPa | 2.6V | 03:56:21 | 01:43:59 | 00:00:00 | |
| BIOWL1-15 | 2026-09-04 11:51:42 | 52.79253 | 11.82127 | 89° | 37km/h | 19797m | 4.9m/s | -53.8°C | 0% | 59.9hPa | 2.6V | 03:56:21 | 01:44:00 | 00:00:00 | |
| DD8BA-10 | 2026-09-04 11:51:42 | 52.79253 | 11.82127 | 89° | 38km/h | 19797m | 4.9m/s | -53.8°C | 3.6% | 59.8hPa | 2.6V | 00:00:00 | 00:00:00 | 00:00:00 | |
| GOEST3-10 | 2026-09-04 11:51:41 | 52.79253 | 11.82112 | 92° | 35km/h | 19792m | 5.7m/s | -53.8°C | 3.6% | 59.9hPa | 2.6V | 00:00:00 | 01:43:59 | 00:00:00 | |
| DL1XH1-15 | 2026-09-04 11:51:40 | 52.79253 | 11.82023 | 85° | 40km/h | 19761m | 5.7m/s | -54°C | 3.6% | 60.2hPa | 2.7V | 03:56:10 | 01:43:53 | 00:00:00 | |
| DB0DAN | 2026-09-04 11:51:40 | 52.79253 | 11.82096 | 93° | 35km/h | 19786m | 4.9m/s | -53.8°C | 0.8% | 59.96hPa | 2.7V | 00:00:00 | 00:00:00 | 00:00:00 | |
| DL1XH-west | 2026-09-04 11:51:37 | 52.79254 | 11.82054 | 89° | 33km/h | 19771m | 4m/s | -53.8°C | 0% | 60.1hPa | 2.6V | 03:56:21 | 01:43:55 | 00:00:00 | |
| DF8AY | 2026-09-04 11:51:36 | 52.79254 | 11.82039 | 87° | 37km/h | 19766m | 4.9m/s | -53.9°C | 0% | 60.1hPa | 2.6V | 03:56:21 | 01:43:54 | 00:00:00 | |
| DO2SHX-10 | 2026-09-04 11:51:36 | 52.79253 | 11.82039 | 88° | 40km/h | 19767m | 4.9m/s | -53.8°C | 3.6% | 60.1hPa | 2.6V | 00:00:00 | 01:43:54 | 00:00:00 | |
| DL1XH-15 | 2026-09-04 11:51:35 | 52.79249 | 11.81970 | 78° | 44km/h | 19746m | 5.5m/s | -54.1°C | 3.7% | 60.3hPa | 2.6V | 03:56:13 | 01:43:50 | 00:00:00 | |
| BIOWL1-15 | 2026-09-04 11:51:33 | 52.79246 | 11.81953 | 75° | 40km/h | 19741m | 4.6m/s | -54°C | 0% | 60.4hPa | 2.6V | 03:56:21 | 01:43:49 | 00:00:00 | |
| DD8BA-10 | 2026-09-04 11:51:32 | 52.79249 | 11.81970 | 79° | 38km/h | 19747m | 5.5m/s | -54.1°C | 3.7% | 60.3hPa | 2.6V | 00:00:00 | 00:00:00 | 00:00:00 | |
| GOEST3-10 | 2026-09-04 11:51:31 | 52.79246 | 11.81953 | 76° | 40km/h | 19742m | 4.5m/s | -54.0°C | 3.6% | 60.3hPa | 2.6V | 00:00:00 | 01:43:49 | 00:00:00 | |
| AA1-15 | 2026-09-04 11:51:31 | 52.79244 | 11.81937 | 76° | 38km/h | 19737m | 4.3m/s | -54°C | 0% | 60.4hPa | 2.6V | 03:56:21 | 01:43:48 | 00:00:00 | |
| DL1XH1-15 | 2026-09-04 11:51:30 | 52.79235 | 11.81860 | 75° | 35km/h | 19712m | 5.9m/s | -54.1°C | 3.7% | 60.6hPa | 2.6V | 03:56:20 | 01:43:43 | 00:00:00 | |
| DF8AY | 2026-09-04 11:51:26 | 52.79237 | 11.81875 | 80° | 37km/h | 19718m | 4.8m/s | -54.3°C | 0% | 60.6hPa | 2.7V | 03:56:21 | 01:43:44 | 00:00:00 | |
| DF8AY-15 | 2026-09-04 11:51:26 | 52.79237 | 11.81875 | 81° | 31km/h | 19718m | 4.7m/s | -54.2°C | 3.7% | 60.5hPa | 2.7V | 00:00:00 | 01:43:44 | 00:00:00 | |
| DL1XH-15 | 2026-09-04 11:51:25 | 52.79226 | 11.81817 | 70° | 38km/h | 19697m | 5.9m/s | -54.3°C | 3.7% | 60.8hPa | 2.7V | 03:56:23 | 01:43:40 | 00:00:00 | |
| Es werden nur die letzten 3500 von 6365 Frames angezeigt. GPX/KML und Diagramme bleiben verfügbar. | |||||||||||||||